<?xml version="1.0" encoding="UTF-8" standalone="no" ?>
<gpx xmlns="http://www.topografix.com/GPX/1/1" xmlns:xsi="http://www.w3.org/2001/XMLSchema-instance" xsi:schemaLocation="http://www.topografix.com/GPX/1/1 http://www.topografix.com/GPX/1/1/gpx.xsd" version="1.1" creator="VisuGPX - https://www.visugpx.com">
  <metadata>
    <name>ski Grande Lauziere 2702m Grande Lance 2790m</name>
  </metadata>
  <trk>
    <name><![CDATA[ski Grande Lauziere 2702m Grande Lance 2790m]]></name>
    <trkseg>
      <trkpt lat="45.1872" lon="5.91278">
        <ele>1374.8000488281</ele>
        <time>2016-04-10T05:57:47.000Z</time>
      </trkpt>
      <trkpt lat="45.187" lon="5.91274">
        <ele>1375</ele>
        <time>2016-04-10T05:58:02.000Z</time>
      </trkpt>
      <trkpt lat="45.18699" lon="5.91273">
        <ele>1374.5999755859</ele>
        <time>2016-04-10T05:58:10.000Z</time>
      </trkpt>
      <trkpt lat="45.18699" lon="5.91273">
        <ele>1374.1999511719</ele>
        <time>2016-04-10T05:58:20.000Z</time>
      </trkpt>
      <trkpt lat="45.18699" lon="5.91276">
        <ele>1374.1999511719</ele>
        <time>2016-04-10T05:58:31.000Z</time>
      </trkpt>
      <trkpt lat="45.18699" lon="5.91278">
        <ele>1373.8000488281</ele>
        <time>2016-04-10T05:58:36.000Z</time>
      </trkpt>
      <trkpt lat="45.18697" lon="5.9128">
        <ele>1373.8000488281</ele>
        <time>2016-04-10T05:58:40.000Z</time>
      </trkpt>
      <trkpt lat="45.18693" lon="5.91282">
        <ele>1374.1999511719</ele>
        <time>2016-04-10T05:58:44.000Z</time>
      </trkpt>
      <trkpt lat="45.18692" lon="5.91285">
        <ele>1374.1999511719</ele>
        <time>2016-04-10T05:58:46.000Z</time>
      </trkpt>
      <trkpt lat="45.18688" lon="5.91292">
        <ele>1374.1999511719</ele>
        <time>2016-04-10T05:58:52.000Z</time>
      </trkpt>
      <trkpt lat="45.18683" lon="5.91295">
        <ele>1374.8000488281</ele>
        <time>2016-04-10T05:58:59.000Z</time>
      </trkpt>
      <trkpt lat="45.18683" lon="5.91295">
        <ele>1375</ele>
        <time>2016-04-10T05:59:00.000Z</time>
      </trkpt>
      <trkpt lat="45.18676" lon="5.91293">
        <ele>1375.8000488281</ele>
        <time>2016-04-10T05:59:07.000Z</time>
      </trkpt>
      <trkpt lat="45.18673" lon="5.91295">
        <ele>1376.5999755859</ele>
        <time>2016-04-10T05:59:13.000Z</time>
      </trkpt>
      <trkpt lat="45.18669" lon="5.91296">
        <ele>1376.8000488281</ele>
        <time>2016-04-10T05:59:17.000Z</time>
      </trkpt>
      <trkpt lat="45.18666" lon="5.91298">
        <ele>1377.4000244141</ele>
        <time>2016-04-10T05:59:20.000Z</time>
      </trkpt>
      <trkpt lat="45.18664" lon="5.91299">
        <ele>1377.8000488281</ele>
        <time>2016-04-10T05:59:23.000Z</time>
      </trkpt>
      <trkpt lat="45.18661" lon="5.913">
        <ele>1378.4000244141</ele>
        <time>2016-04-10T05:59:26.000Z</time>
      </trkpt>
      <trkpt lat="45.18658" lon="5.913">
        <ele>1379.4000244141</ele>
        <time>2016-04-10T05:59:29.000Z</time>
      </trkpt>
      <trkpt lat="45.18656" lon="5.91299">
        <ele>1379.8000488281</ele>
        <time>2016-04-10T05:59:32.000Z</time>
      </trkpt>
      <trkpt lat="45.18653" lon="5.91299">
        <ele>1380.4000244141</ele>
        <time>2016-04-10T05:59:36.000Z</time>
      </trkpt>
      <trkpt lat="45.18651" lon="5.91299">
        <ele>1381</ele>
        <time>2016-04-10T05:59:39.000Z</time>
      </trkpt>
      <trkpt lat="45.18649" lon="5.91299">
        <ele>1381.4000244141</ele>
        <time>2016-04-10T05:59:41.000Z</time>
      </trkpt>
      <trkpt lat="45.18645" lon="5.91299">
        <ele>1382.4000244141</ele>
        <time>2016-04-10T05:59:46.000Z</time>
      </trkpt>
      <trkpt lat="45.18645" lon="5.91299">
        <ele>1382.5999755859</ele>
        <time>2016-04-10T05:59:47.000Z</time>
      </trkpt>
      <trkpt lat="45.18645" lon="5.91299">
        <ele>1383</ele>
        <time>2016-04-10T05:59:50.000Z</time>
      </trkpt>
      <trkpt lat="45.18642" lon="5.913">
        <ele>1383.5999755859</ele>
        <time>2016-04-10T05:59:52.000Z</time>
      </trkpt>
      <trkpt lat="45.18641" lon="5.913">
        <ele>1384</ele>
        <time>2016-04-10T05:59:53.000Z</time>
      </trkpt>
      <trkpt lat="45.18639" lon="5.913">
        <ele>1384.1999511719</ele>
        <time>2016-04-10T05:59:54.000Z</time>
      </trkpt>
      <trkpt lat="45.18635" lon="5.913">
        <ele>1384.8000488281</ele>
        <time>2016-04-10T05:59:58.000Z</time>
      </trkpt>
      <trkpt lat="45.18628" lon="5.91301">
        <ele>1385.5999755859</ele>
        <time>2016-04-10T06:00:05.000Z</time>
      </trkpt>
      <trkpt lat="45.18627" lon="5.91301">
        <ele>1385.8000488281</ele>
        <time>2016-04-10T06:00:06.000Z</time>
      </trkpt>
      <trkpt lat="45.18624" lon="5.91301">
        <ele>1386.5999755859</ele>
        <time>2016-04-10T06:00:11.000Z</time>
      </trkpt>
      <trkpt lat="45.18621" lon="5.913">
        <ele>1387</ele>
        <time>2016-04-10T06:00:14.000Z</time>
      </trkpt>
      <trkpt lat="45.18615" lon="5.91302">
        <ele>1387.5999755859</ele>
        <time>2016-04-10T06:00:18.000Z</time>
      </trkpt>
      <trkpt lat="45.18611" lon="5.91302">
        <ele>1388</ele>
        <time>2016-04-10T06:00:22.000Z</time>
      </trkpt>
      <trkpt lat="45.18609" lon="5.91302">
        <ele>1388.1999511719</ele>
        <time>2016-04-10T06:00:24.000Z</time>
      </trkpt>
      <trkpt lat="45.18601" lon="5.91305">
        <ele>1389</ele>
        <time>2016-04-10T06:00:32.000Z</time>
      </trkpt>
      <trkpt lat="45.18599" lon="5.91305">
        <ele>1389.1999511719</ele>
        <time>2016-04-10T06:00:33.000Z</time>
      </trkpt>
      <trkpt lat="45.18592" lon="5.91309">
        <ele>1389.5999755859</ele>
        <time>2016-04-10T06:00:40.000Z</time>
      </trkpt>
      <trkpt lat="45.18588" lon="5.91311">
        <ele>1390.1999511719</ele>
        <time>2016-04-10T06:00:44.000Z</time>
      </trkpt>
      <trkpt lat="45.18585" lon="5.91313">
        <ele>1390.5999755859</ele>
        <time>2016-04-10T06:00:47.000Z</time>
      </trkpt>
      <trkpt lat="45.18581" lon="5.91316">
        <ele>1391.1999511719</ele>
        <time>2016-04-10T06:00:51.000Z</time>
      </trkpt>
      <trkpt lat="45.18579" lon="5.91319">
        <ele>1391.8000488281</ele>
        <time>2016-04-10T06:00:54.000Z</time>
      </trkpt>
      <trkpt lat="45.18577" lon="5.91321">
        <ele>1392.4000244141</ele>
        <time>2016-04-10T06:00:57.000Z</time>
      </trkpt>
      <trkpt lat="45.18575" lon="5.91322">
        <ele>1392.8000488281</ele>
        <time>2016-04-10T06:01:01.000Z</time>
      </trkpt>
      <trkpt lat="45.18573" lon="5.91325">
        <ele>1394</ele>
        <time>2016-04-10T06:01:05.000Z</time>
      </trkpt>
      <trkpt lat="45.1857" lon="5.91329">
        <ele>1394.8000488281</ele>
        <time>2016-04-10T06:01:10.000Z</time>
      </trkpt>
      <trkpt lat="45.18569" lon="5.91329">
        <ele>1395</ele>
        <time>2016-04-10T06:01:11.000Z</time>
      </trkpt>
      <trkpt lat="45.18565" lon="5.91335">
        <ele>1396</ele>
        <time>2016-04-10T06:01:16.000Z</time>
      </trkpt>
      <trkpt lat="45.18563" lon="5.91337">
        <ele>1396.4000244141</ele>
        <time>2016-04-10T06:01:18.000Z</time>
      </trkpt>
      <trkpt lat="45.18559" lon="5.91341">
        <ele>1397.1999511719</ele>
        <time>2016-04-10T06:01:22.000Z</time>
      </trkpt>
      <trkpt lat="45.18556" lon="5.91344">
        <ele>1397.8000488281</ele>
        <time>2016-04-10T06:01:25.000Z</time>
      </trkpt>
      <trkpt lat="45.18554" lon="5.91345">
        <ele>1398.4000244141</ele>
        <time>2016-04-10T06:01:27.000Z</time>
      </trkpt>
      <trkpt lat="45.18552" lon="5.91347">
        <ele>1399.1999511719</ele>
        <time>2016-04-10T06:01:31.000Z</time>
      </trkpt>
      <trkpt lat="45.18552" lon="5.91347">
        <ele>1399.5999755859</ele>
        <time>2016-04-10T06:01:32.000Z</time>
      </trkpt>
      <trkpt lat="45.18549" lon="5.91349">
        <ele>1400.5999755859</ele>
        <time>2016-04-10T06:01:36.000Z</time>
      </trkpt>
      <trkpt lat="45.18543" lon="5.91352">
        <ele>1401.8000488281</ele>
        <time>2016-04-10T06:01:41.000Z</time>
      </trkpt>
      <trkpt lat="45.18539" lon="5.91354">
        <ele>1402.8000488281</ele>
        <time>2016-04-10T06:01:47.000Z</time>
      </trkpt>
      <trkpt lat="45.18538" lon="5.91354">
        <ele>1403</ele>
        <time>2016-04-10T06:01:48.000Z</time>
      </trkpt>
      <trkpt lat="45.18534" lon="5.91357">
        <ele>1404</ele>
        <time>2016-04-10T06:01:53.000Z</time>
      </trkpt>
      <trkpt lat="45.18531" lon="5.9136">
        <ele>1405</ele>
        <time>2016-04-10T06:01:58.000Z</time>
      </trkpt>
      <trkpt lat="45.18526" lon="5.91365">
        <ele>1406</ele>
        <time>2016-04-10T06:02:04.000Z</time>
      </trkpt>
      <trkpt lat="45.18525" lon="5.91368">
        <ele>1406.4000244141</ele>
        <time>2016-04-10T06:02:06.000Z</time>
      </trkpt>
      <trkpt lat="45.18521" lon="5.91371">
        <ele>1407</ele>
        <time>2016-04-10T06:02:10.000Z</time>
      </trkpt>
      <trkpt lat="45.18519" lon="5.91374">
        <ele>1407.8000488281</ele>
        <time>2016-04-10T06:02:13.000Z</time>
      </trkpt>
      <trkpt lat="45.18517" lon="5.91377">
        <ele>1408.1999511719</ele>
        <time>2016-04-10T06:02:16.000Z</time>
      </trkpt>
      <trkpt lat="45.18515" lon="5.91382">
        <ele>1409</ele>
        <time>2016-04-10T06:02:20.000Z</time>
      </trkpt>
      <trkpt lat="45.18514" lon="5.91383">
        <ele>1409.4000244141</ele>
        <time>2016-04-10T06:02:21.000Z</time>
      </trkpt>
      <trkpt lat="45.18512" lon="5.91386">
        <ele>1410</ele>
        <time>2016-04-10T06:02:25.000Z</time>
      </trkpt>
      <trkpt lat="45.18511" lon="5.91386">
        <ele>1410.5999755859</ele>
        <time>2016-04-10T06:02:27.000Z</time>
      </trkpt>
      <trkpt lat="45.18508" lon="5.91386">
        <ele>1411.4000244141</ele>
        <time>2016-04-10T06:02:30.000Z</time>
      </trkpt>
      <trkpt lat="45.18505" lon="5.91386">
        <ele>1411.8000488281</ele>
        <time>2016-04-10T06:02:33.000Z</time>
      </trkpt>
      <trkpt lat="45.18503" lon="5.91386">
        <ele>1412.8000488281</ele>
        <time>2016-04-10T06:02:36.000Z</time>
      </trkpt>
      <trkpt lat="45.18501" lon="5.91385">
        <ele>1413</ele>
        <time>2016-04-10T06:02:37.000Z</time>
      </trkpt>
      <trkpt lat="45.18497" lon="5.91384">
        <ele>1414.1999511719</ele>
        <time>2016-04-10T06:02:41.000Z</time>
      </trkpt>
      <trkpt lat="45.18491" lon="5.91382">
        <ele>1415</ele>
        <time>2016-04-10T06:02:46.000Z</time>
      </trkpt>
      <trkpt lat="45.18491" lon="5.91382">
        <ele>1415.1999511719</ele>
        <time>2016-04-10T06:02:47.000Z</time>
      </trkpt>
      <trkpt lat="45.18486" lon="5.9138">
        <ele>1416.4000244141</ele>
        <time>2016-04-10T06:02:53.000Z</time>
      </trkpt>
      <trkpt lat="45.18486" lon="5.9138">
        <ele>1416.5999755859</ele>
        <time>2016-04-10T06:02:54.000Z</time>
      </trkpt>
      <trkpt lat="45.18482" lon="5.91376">
        <ele>1417.5999755859</ele>
        <time>2016-04-10T06:03:02.000Z</time>
      </trkpt>
      <trkpt lat="45.18481" lon="5.91376">
        <ele>1417.8000488281</ele>
        <time>2016-04-10T06:03:03.000Z</time>
      </trkpt>
      <trkpt lat="45.18479" lon="5.91375">
        <ele>1418.5999755859</ele>
        <time>2016-04-10T06:03:05.000Z</time>
      </trkpt>
      <trkpt lat="45.18473" lon="5.91373">
        <ele>1419.5999755859</ele>
        <time>2016-04-10T06:03:12.000Z</time>
      </trkpt>
      <trkpt lat="45.18469" lon="5.91371">
        <ele>1420</ele>
        <time>2016-04-10T06:03:18.000Z</time>
      </trkpt>
      <trkpt lat="45.18466" lon="5.91371">
        <ele>1420.8000488281</ele>
        <time>2016-04-10T06:03:21.000Z</time>
      </trkpt>
      <trkpt lat="45.18462" lon="5.91372">
        <ele>1421.4000244141</ele>
        <time>2016-04-10T06:03:24.000Z</time>
      </trkpt>
      <trkpt lat="45.18457" lon="5.91373">
        <ele>1422</ele>
        <time>2016-04-10T06:03:29.000Z</time>
      </trkpt>
      <trkpt lat="45.18455" lon="5.91374">
        <ele>1422.4000244141</ele>
        <time>2016-04-10T06:03:31.000Z</time>
      </trkpt>
      <trkpt lat="45.18452" lon="5.91374">
        <ele>1423.1999511719</ele>
        <time>2016-04-10T06:03:35.000Z</time>
      </trkpt>
      <trkpt lat="45.18447" lon="5.91374">
        <ele>1424</ele>
        <time>2016-04-10T06:03:41.000Z</time>
      </trkpt>
      <trkpt lat="45.18445" lon="5.91375">
        <ele>1424.4000244141</ele>
        <time>2016-04-10T06:03:43.000Z</time>
      </trkpt>
      <trkpt lat="45.18441" lon="5.91377">
        <ele>1425.4000244141</ele>
        <time>2016-04-10T06:03:49.000Z</time>
      </trkpt>
      <trkpt lat="45.18441" lon="5.91377">
        <ele>1425.8000488281</ele>
        <time>2016-04-10T06:03:50.000Z</time>
      </trkpt>
      <trkpt lat="45.18438" lon="5.91377">
        <ele>1426.5999755859</ele>
        <time>2016-04-10T06:03:53.000Z</time>
      </trkpt>
      <trkpt lat="45.18435" lon="5.91377">
        <ele>1427</ele>
        <time>2016-04-10T06:03:56.000Z</time>
      </trkpt>
      <trkpt lat="45.18433" lon="5.91378">
        <ele>1427.5999755859</ele>
        <time>2016-04-10T06:04:00.000Z</time>
      </trkpt>
      <trkpt lat="45.18429" lon="5.9138">
        <ele>1428</ele>
        <time>2016-04-10T06:04:03.000Z</time>
      </trkpt>
      <trkpt lat="45.18427" lon="5.9138">
        <ele>1428.5999755859</ele>
        <time>2016-04-10T06:04:06.000Z</time>
      </trkpt>
      <trkpt lat="45.18424" lon="5.91381">
        <ele>1429.5999755859</ele>
        <time>2016-04-10T06:04:10.000Z</time>
      </trkpt>
      <trkpt lat="45.18424" lon="5.91382">
        <ele>1430</ele>
        <time>2016-04-10T06:04:11.000Z</time>
      </trkpt>
      <trkpt lat="45.18422" lon="5.91383">
        <ele>1430.8000488281</ele>
        <time>2016-04-10T06:04:15.000Z</time>
      </trkpt>
      <trkpt lat="45.18421" lon="5.91383">
        <ele>1431.4000244141</ele>
        <time>2016-04-10T06:04:17.000Z</time>
      </trkpt>
      <trkpt lat="45.18421" lon="5.91383">
        <ele>1432</ele>
        <time>2016-04-10T06:04:21.000Z</time>
      </trkpt>
      <trkpt lat="45.18419" lon="5.91383">
        <ele>1432.4000244141</ele>
        <time>2016-04-10T06:04:23.000Z</time>
      </trkpt>
      <trkpt lat="45.18415" lon="5.91383">
        <ele>1433</ele>
        <time>2016-04-10T06:04:26.000Z</time>
      </trkpt>
      <trkpt lat="45.18411" lon="5.91382">
        <ele>1433.4000244141</ele>
        <time>2016-04-10T06:04:31.000Z</time>
      </trkpt>
      <trkpt lat="45.1841" lon="5.91382">
        <ele>1433.5999755859</ele>
        <time>2016-04-10T06:04:32.000Z</time>
      </trkpt>
      <trkpt lat="45.18405" lon="5.91381">
        <ele>1434.5999755859</ele>
        <time>2016-04-10T06:04:37.000Z</time>
      </trkpt>
      <trkpt lat="45.18404" lon="5.91381">
        <ele>1434.5999755859</ele>
        <time>2016-04-10T06:04:38.000Z</time>
      </trkpt>
      <trkpt lat="45.18402" lon="5.91381">
        <ele>1435.4000244141</ele>
        <time>2016-04-10T06:04:42.000Z</time>
      </trkpt>
      <trkpt lat="45.18402" lon="5.91381">
        <ele>1435.5999755859</ele>
        <time>2016-04-10T06:04:43.000Z</time>
      </trkpt>
      <trkpt lat="45.18399" lon="5.91382">
        <ele>1436.4000244141</ele>
        <time>2016-04-10T06:04:47.000Z</time>
      </trkpt>
      <trkpt lat="45.18397" lon="5.91382">
        <ele>1437</ele>
        <time>2016-04-10T06:04:49.000Z</time>
      </trkpt>
      <trkpt lat="45.18394" lon="5.91384">
        <ele>1437.5999755859</ele>
        <time>2016-04-10T06:04:52.000Z</time>
      </trkpt>
      <trkpt lat="45.18392" lon="5.91384">
        <ele>1438</ele>
        <time>2016-04-10T06:04:54.000Z</time>
      </trkpt>
      <trkpt lat="45.18391" lon="5.91385">
        <ele>1438.1999511719</ele>
        <time>2016-04-10T06:04:55.000Z</time>
      </trkpt>
      <trkpt lat="45.1839" lon="5.91385">
        <ele>1438.1999511719</ele>
        <time>2016-04-10T06:04:56.000Z</time>
      </trkpt>
      <trkpt lat="45.18386" lon="5.91385">
        <ele>1439.1999511719</ele>
        <time>2016-04-10T06:05:01.000Z</time>
      </trkpt>
      <trkpt lat="45.18382" lon="5.91386">
        <ele>1440.4000244141</ele>
        <time>2016-04-10T06:05:06.000Z</time>
      </trkpt>
      <trkpt lat="45.18382" lon="5.91386">
        <ele>1440.4000244141</ele>
        <time>2016-04-10T06:05:07.000Z</time>
      </trkpt>
      <trkpt lat="45.18377" lon="5.91386">
        <ele>1441.4000244141</ele>
        <time>2016-04-10T06:05:12.000Z</time>
      </trkpt>
      <trkpt lat="45.18376" lon="5.91386">
        <ele>1441.5999755859</ele>
        <time>2016-04-10T06:05:13.000Z</time>
      </trkpt>
      <trkpt lat="45.18372" lon="5.91388">
        <ele>1442.5999755859</ele>
        <time>2016-04-10T06:05:18.000Z</time>
      </trkpt>
      <trkpt lat="45.18366" lon="5.9139">
        <ele>1443.5999755859</ele>
        <time>2016-04-10T06:05:24.000Z</time>
      </trkpt>
      <trkpt lat="45.18365" lon="5.9139">
        <ele>1443.8000488281</ele>
        <time>2016-04-10T06:05:25.000Z</time>
      </trkpt>
      <trkpt lat="45.18361" lon="5.91392">
        <ele>1445</ele>
        <time>2016-04-10T06:05:30.000Z</time>
      </trkpt>
      <trkpt lat="45.18356" lon="5.91394">
        <ele>1445.8000488281</ele>
        <time>2016-04-10T06:05:35.000Z</time>
      </trkpt>
      <trkpt lat="45.18355" lon="5.91395">
        <ele>1446</ele>
        <time>2016-04-10T06:05:36.000Z</time>
      </trkpt>
      <trkpt lat="45.18353" lon="5.91397">
        <ele>1446.1999511719</ele>
        <time>2016-04-10T06:05:38.000Z</time>
      </trkpt>
      <trkpt lat="45.1835" lon="5.91398">
        <ele>1447</ele>
        <time>2016-04-10T06:05:43.000Z</time>
      </trkpt>
      <trkpt lat="45.18349" lon="5.91399">
        <ele>1447.1999511719</ele>
        <time>2016-04-10T06:05:44.000Z</time>
      </trkpt>
      <trkpt lat="45.18345" lon="5.91401">
        <ele>1448</ele>
        <time>2016-04-10T06:05:48.000Z</time>
      </trkpt>
      <trkpt lat="45.18342" lon="5.91402">
        <ele>1448.5999755859</ele>
        <time>2016-04-10T06:05:51.000Z</time>
      </trkpt>
      <trkpt lat="45.1834" lon="5.91402">
        <ele>1448.8000488281</ele>
        <time>2016-04-10T06:05:53.000Z</time>
      </trkpt>
      <trkpt lat="45.1834" lon="5.91403">
        <ele>1449.4000244141</ele>
        <time>2016-04-10T06:05:54.000Z</time>
      </trkpt>
      <trkpt lat="45.1834" lon="5.91404">
        <ele>1449.5999755859</ele>
        <time>2016-04-10T06:05:55.000Z</time>
      </trkpt>
      <trkpt lat="45.18338" lon="5.91405">
        <ele>1450.4000244141</ele>
        <time>2016-04-10T06:06:00.000Z</time>
      </trkpt>
      <trkpt lat="45.18334" lon="5.91408">
        <ele>1451.4000244141</ele>
        <time>2016-04-10T06:06:06.000Z</time>
      </trkpt>
      <trkpt lat="45.18331" lon="5.91411">
        <ele>1452</ele>
        <time>2016-04-10T06:06:11.000Z</time>
      </trkpt>
      <trkpt lat="45.18328" lon="5.91411">
        <ele>1452.5999755859</ele>
        <time>2016-04-10T06:06:14.000Z</time>
      </trkpt>
      <trkpt lat="45.18327" lon="5.91412">
        <ele>1453</ele>
        <time>2016-04-10T06:06:17.000Z</time>
      </trkpt>
      <trkpt lat="45.18322" lon="5.91414">
        <ele>1453.5999755859</ele>
        <time>2016-04-10T06:06:21.000Z</time>
      </trkpt>
      <trkpt lat="45.18319" lon="5.91416">
        <ele>1454.4000244141</ele>
        <time>2016-04-10T06:06:24.000Z</time>
      </trkpt>
      <trkpt lat="45.18318" lon="5.91416">
        <ele>1454.8000488281</ele>
        <time>2016-04-10T06:06:25.000Z</time>
      </trkpt>
      <trkpt lat="45.18313" lon="5.91419">
        <ele>1455.4000244141</ele>
        <time>2016-04-10T06:06:30.000Z</time>
      </trkpt>
      <trkpt lat="45.18311" lon="5.9142">
        <ele>1455.8000488281</ele>
        <time>2016-04-10T06:06:32.000Z</time>
      </trkpt>
      <trkpt lat="45.18308" lon="5.91421">
        <ele>1457</ele>
        <time>2016-04-10T06:06:37.000Z</time>
      </trkpt>
      <trkpt lat="45.18304" lon="5.91423">
        <ele>1458</ele>
        <time>2016-04-10T06:06:42.000Z</time>
      </trkpt>
      <trkpt lat="45.18303" lon="5.91423">
        <ele>1458.1999511719</ele>
        <time>2016-04-10T06:06:43.000Z</time>
      </trkpt>
      <trkpt lat="45.183" lon="5.91424">
        <ele>1459</ele>
        <time>2016-04-10T06:06:48.000Z</time>
      </trkpt>
      <trkpt lat="45.18298" lon="5.91425">
        <ele>1459.4000244141</ele>
        <time>2016-04-10T06:06:50.000Z</time>
      </trkpt>
      <trkpt lat="45.18295" lon="5.91425">
        <ele>1460.1999511719</ele>
        <time>2016-04-10T06:06:54.000Z</time>
      </trkpt>
      <trkpt lat="45.18294" lon="5.91425">
        <ele>1460.4000244141</ele>
        <time>2016-04-10T06:06:57.000Z</time>
      </trkpt>
      <trkpt lat="45.18292" lon="5.91425">
        <ele>1461.1999511719</ele>
        <time>2016-04-10T06:07:01.000Z</time>
      </trkpt>
      <trkpt lat="45.18289" lon="5.91425">
        <ele>1462</ele>
        <time>2016-04-10T06:07:05.000Z</time>
      </trkpt>
      <trkpt lat="45.18289" lon="5.91425">
        <ele>1462.4000244141</ele>
        <time>2016-04-10T06:07:06.000Z</time>
      </trkpt>
      <trkpt lat="45.18286" lon="5.91425">
        <ele>1463</ele>
        <time>2016-04-10T06:07:11.000Z</time>
      </trkpt>
      <trkpt lat="45.18284" lon="5.91425">
        <ele>1463.4000244141</ele>
        <time>2016-04-10T06:07:13.000Z</time>
      </trkpt>
      <trkpt lat="45.18281" lon="5.91426">
        <ele>1464.1999511719</ele>
        <time>2016-04-10T06:07:18.000Z</time>
      </trkpt>
      <trkpt lat="45.18279" lon="5.91426">
        <ele>1464.5999755859</ele>
        <time>2016-04-10T06:07:20.000Z</time>
      </trkpt>
      <trkpt lat="45.18275" lon="5.91426">
        <ele>1465.8000488281</ele>
        <time>2016-04-10T06:07:26.000Z</time>
      </trkpt>
      <trkpt lat="45.18272" lon="5.91426">
        <ele>1466.4000244141</ele>
        <time>2016-04-10T06:07:31.000Z</time>
      </trkpt>
      <trkpt lat="45.18269" lon="5.91426">
        <ele>1466.8000488281</ele>
        <time>2016-04-10T06:07:33.000Z</time>
      </trkpt>
      <trkpt lat="45.18266" lon="5.91426">
        <ele>1467.1999511719</ele>
        <time>2016-04-10T06:07:36.000Z</time>
      </trkpt>
      <trkpt lat="45.18263" lon="5.91428">
        <ele>1467.4000244141</ele>
        <time>2016-04-10T06:07:41.000Z</time>
      </trkpt>
      <trkpt lat="45.18261" lon="5.91429">
        <ele>1468</ele>
        <time>2016-04-10T06:07:43.000Z</time>
      </trkpt>
      <trkpt lat="45.1826" lon="5.91429">
        <ele>1468.5999755859</ele>
        <time>2016-04-10T06:07:46.000Z</time>
      </trkpt>
      <trkpt lat="45.18259" lon="5.91429">
        <ele>1469</ele>
        <time>2016-04-10T06:07:48.000Z</time>
      </trkpt>
      <trkpt lat="45.18256" lon="5.9143">
        <ele>1469.5999755859</ele>
        <time>2016-04-10T06:07:51.000Z</time>
      </trkpt>
      <trkpt lat="45.18254" lon="5.9143">
        <ele>1470</ele>
        <time>2016-04-10T06:07:53.000Z</time>
      </trkpt>
      <trkpt lat="45.18253" lon="5.9143">
        <ele>1470.5999755859</ele>
        <time>2016-04-10T06:07:56.000Z</time>
      </trkpt>
      <trkpt lat="45.18249" lon="5.9143">
        <ele>1471.1999511719</ele>
        <time>2016-04-10T06:08:00.000Z</time>
      </trkpt>
      <trkpt lat="45.18249" lon="5.9143">
        <ele>1471.4000244141</ele>
        <time>2016-04-10T06:08:01.000Z</time>
      </trkpt>
      <trkpt lat="45.18245" lon="5.91432">
        <ele>1472.1999511719</ele>
        <time>2016-04-10T06:08:06.000Z</time>
      </trkpt>
      <trkpt lat="45.1824" lon="5.91434">
        <ele>1473.4000244141</ele>
        <time>2016-04-10T06:08:12.000Z</time>
      </trkpt>
      <trkpt lat="45.18234" lon="5.91435">
        <ele>1474.1999511719</ele>
        <time>2016-04-10T06:08:17.000Z</time>
      </trkpt>
      <trkpt lat="45.18233" lon="5.91435">
        <ele>1474.5999755859</ele>
        <time>2016-04-10T06:08:18.000Z</time>
      </trkpt>
      <trkpt lat="45.18228" lon="5.91437">
        <ele>1475.8000488281</ele>
        <time>2016-04-10T06:08:25.000Z</time>
      </trkpt>
      <trkpt lat="45.18222" lon="5.9144">
        <ele>1476.8000488281</ele>
        <time>2016-04-10T06:08:31.000Z</time>
      </trkpt>
      <trkpt lat="45.18221" lon="5.9144">
        <ele>1477</ele>
        <time>2016-04-10T06:08:32.000Z</time>
      </trkpt>
      <trkpt lat="45.18219" lon="5.91442">
        <ele>1477.8000488281</ele>
        <time>2016-04-10T06:08:36.000Z</time>
      </trkpt>
      <trkpt lat="45.18217" lon="5.91443">
        <ele>1478.1999511719</ele>
        <time>2016-04-10T06:08:38.000Z</time>
      </trkpt>
      <trkpt lat="45.18212" lon="5.91444">
        <ele>1478.8000488281</ele>
        <time>2016-04-10T06:08:45.000Z</time>
      </trkpt>
      <trkpt lat="45.18207" lon="5.91445">
        <ele>1480</ele>
        <time>2016-04-10T06:08:51.000Z</time>
      </trkpt>
      <trkpt lat="45.18206" lon="5.91446">
        <ele>1480.4000244141</ele>
        <time>2016-04-10T06:08:53.000Z</time>
      </trkpt>
      <trkpt lat="45.18204" lon="5.91448">
        <ele>1481</ele>
        <time>2016-04-10T06:08:56.000Z</time>
      </trkpt>
      <trkpt lat="45.18203" lon="5.91449">
        <ele>1481.5999755859</ele>
        <time>2016-04-10T06:08:59.000Z</time>
      </trkpt>
      <trkpt lat="45.18201" lon="5.9145">
        <ele>1482</ele>
        <time>2016-04-10T06:09:02.000Z</time>
      </trkpt>
      <trkpt lat="45.18198" lon="5.9145">
        <ele>1483</ele>
        <time>2016-04-10T06:09:06.000Z</time>
      </trkpt>
      <trkpt lat="45.18197" lon="5.91452">
        <ele>1483.1999511719</ele>
        <time>2016-04-10T06:09:08.000Z</time>
      </trkpt>
      <trkpt lat="45.18193" lon="5.91455">
        <ele>1484.1999511719</ele>
        <time>2016-04-10T06:09:14.000Z</time>
      </trkpt>
      <trkpt lat="45.18191" lon="5.91456">
        <ele>1484.4000244141</ele>
        <time>2016-04-10T06:09:15.000Z</time>
      </trkpt>
      <trkpt lat="45.18186" lon="5.91458">
        <ele>1485.1999511719</ele>
        <time>2016-04-10T06:09:20.000Z</time>
      </trkpt>
      <trkpt lat="45.18184" lon="5.91459">
        <ele>1485.5999755859</ele>
        <time>2016-04-10T06:09:23.000Z</time>
      </trkpt>
      <trkpt lat="45.18181" lon="5.91461">
        <ele>1486.4000244141</ele>
        <time>2016-04-10T06:09:27.000Z</time>
      </trkpt>
      <trkpt lat="45.18178" lon="5.91462">
        <ele>1486.5999755859</ele>
        <time>2016-04-10T06:09:29.000Z</time>
      </trkpt>
      <trkpt lat="45.18174" lon="5.91463">
        <ele>1487.1999511719</ele>
        <time>2016-04-10T06:09:33.000Z</time>
      </trkpt>
      <trkpt lat="45.18169" lon="5.91462">
        <ele>1487.5999755859</ele>
        <time>2016-04-10T06:09:38.000Z</time>
      </trkpt>
      <trkpt lat="45.18168" lon="5.91462">
        <ele>1488</ele>
        <time>2016-04-10T06:09:40.000Z</time>
      </trkpt>
      <trkpt lat="45.18164" lon="5.91463">
        <ele>1488.8000488281</ele>
        <time>2016-04-10T06:09:45.000Z</time>
      </trkpt>
      <trkpt lat="45.18164" lon="5.91463">
        <ele>1488.8000488281</ele>
        <time>2016-04-10T06:09:46.000Z</time>
      </trkpt>
      <trkpt lat="45.18158" lon="5.91465">
        <ele>1489.8000488281</ele>
        <time>2016-04-10T06:09:52.000Z</time>
      </trkpt>
      <trkpt lat="45.18155" lon="5.91466">
        <ele>1490.8000488281</ele>
        <time>2016-04-10T06:09:58.000Z</time>
      </trkpt>
      <trkpt lat="45.18154" lon="5.91466">
        <ele>1491</ele>
        <time>2016-04-10T06:09:59.000Z</time>
      </trkpt>
      <trkpt lat="45.18153" lon="5.91466">
        <ele>1492</ele>
        <time>2016-04-10T06:10:02.000Z</time>
      </trkpt>
      <trkpt lat="45.18153" lon="5.91466">
        <ele>1492.1999511719</ele>
        <time>2016-04-10T06:10:04.000Z</time>
      </trkpt>
      <trkpt lat="45.18153" lon="5.91466">
        <ele>1493</ele>
        <time>2016-04-10T06:10:07.000Z</time>
      </trkpt>
      <trkpt lat="45.18151" lon="5.91467">
        <ele>1493.4000244141</ele>
        <time>2016-04-10T06:10:10.000Z</time>
      </trkpt>
      <trkpt lat="45.18149" lon="5.91468">
        <ele>1494.1999511719</ele>
        <time>2016-04-10T06:10:13.000Z</time>
      </trkpt>
      <trkpt lat="45.18147" lon="5.9147">
        <ele>1494.8000488281</ele>
        <time>2016-04-10T06:10:16.000Z</time>
      </trkpt>
      <trkpt lat="45.18145" lon="5.91471">
        <ele>1495.1999511719</ele>
        <time>2016-04-10T06:10:18.000Z</time>
      </trkpt>
      <trkpt lat="45.18145" lon="5.91471">
        <ele>1495.8000488281</ele>
        <time>2016-04-10T06:10:22.000Z</time>
      </trkpt>
      <trkpt lat="45.18144" lon="5.91471">
        <ele>1496.4000244141</ele>
        <time>2016-04-10T06:10:25.000Z</time>
      </trkpt>
      <trkpt lat="45.18138" lon="5.91473">
        <ele>1497.4000244141</ele>
        <time>2016-04-10T06:10:29.000Z</time>
      </trkpt>
      <trkpt lat="45.18132" lon="5.91475">
        <ele>1498</ele>
        <time>2016-04-10T06:10:34.000Z</time>
      </trkpt>
      <trkpt lat="45.18128" lon="5.91478">
        <ele>1498.5999755859</ele>
        <time>2016-04-10T06:10:39.000Z</time>
      </trkpt>
      <trkpt lat="45.18128" lon="5.91478">
        <ele>1498.8000488281</ele>
        <time>2016-04-10T06:10:40.000Z</time>
      </trkpt>
      <trkpt lat="45.18126" lon="5.91482">
        <ele>1499.4000244141</ele>
        <time>2016-04-10T06:10:43.000Z</time>
      </trkpt>
      <trkpt lat="45.18125" lon="5.91484">
        <ele>1499.5999755859</ele>
        <time>2016-04-10T06:10:45.000Z</time>
      </trkpt>
      <trkpt lat="45.18124" lon="5.91486">
        <ele>1500</ele>
        <time>2016-04-10T06:10:47.000Z</time>
      </trkpt>
      <trkpt lat="45.18123" lon="5.91493">
        <ele>1500.5999755859</ele>
        <time>2016-04-10T06:10:54.000Z</time>
      </trkpt>
      <trkpt lat="45.18124" lon="5.91496">
        <ele>1500.8000488281</ele>
        <time>2016-04-10T06:10:56.000Z</time>
      </trkpt>
      <trkpt lat="45.18127" lon="5.91507">
        <ele>1501.1999511719</ele>
        <time>2016-04-10T06:11:04.000Z</time>
      </trkpt>
      <trkpt lat="45.18129" lon="5.91513">
        <ele>1501.1999511719</ele>
        <time>2016-04-10T06:11:08.000Z</time>
      </trkpt>
      <trkpt lat="45.18129" lon="5.91516">
        <ele>1501.4000244141</ele>
        <time>2016-04-10T06:11:10.000Z</time>
      </trkpt>
      <trkpt lat="45.18131" lon="5.91523">
        <ele>1501.8000488281</ele>
        <time>2016-04-10T06:11:14.000Z</time>
      </trkpt>
      <trkpt lat="45.18131" lon="5.91525">
        <ele>1502</ele>
        <time>2016-04-10T06:11:16.000Z</time>
      </trkpt>
      <trkpt lat="45.18132" lon="5.91533">
        <ele>1502.5999755859</ele>
        <time>2016-04-10T06:11:21.000Z</time>
      </trkpt>
      <trkpt lat="45.18131" lon="5.91536">
        <ele>1502.8000488281</ele>
        <time>2016-04-10T06:11:23.000Z</time>
      </trkpt>
      <trkpt lat="45.18131" lon="5.91543">
        <ele>1503</ele>
        <time>2016-04-10T06:11:27.000Z</time>
      </trkpt>
      <trkpt lat="45.18129" lon="5.91547">
        <ele>1503.8000488281</ele>
        <time>2016-04-10T06:11:31.000Z</time>
      </trkpt>
      <trkpt lat="45.18128" lon="5.91551">
        <ele>1504.1999511719</ele>
        <time>2016-04-10T06:11:34.000Z</time>
      </trkpt>
      <trkpt lat="45.18126" lon="5.91557">
        <ele>1505</ele>
        <time>2016-04-10T06:11:39.000Z</time>
      </trkpt>
      <trkpt lat="45.18124" lon="5.91559">
        <ele>1505.1999511719</ele>
        <time>2016-04-10T06:11:41.000Z</time>
      </trkpt>
      <trkpt lat="45.18119" lon="5.91563">
        <ele>1506</ele>
        <time>2016-04-10T06:11:47.000Z</time>
      </trkpt>
      <trkpt lat="45.18112" lon="5.91568">
        <ele>1506.8000488281</ele>
        <time>2016-04-10T06:11:54.000Z</time>
      </trkpt>
      <trkpt lat="45.18111" lon="5.91569">
        <ele>1507</ele>
        <time>2016-04-10T06:11:56.000Z</time>
      </trkpt>
      <trkpt lat="45.18108" lon="5.91571">
        <ele>1507.1999511719</ele>
        <time>2016-04-10T06:11:58.000Z</time>
      </trkpt>
      <trkpt lat="45.18106" lon="5.91572">
        <ele>1507.4000244141</ele>
        <time>2016-04-10T06:12:00.000Z</time>
      </trkpt>
      <trkpt lat="45.18099" lon="5.91576">
        <ele>1508</ele>
        <time>2016-04-10T06:12:06.000Z</time>
      </trkpt>
      <trkpt lat="45.18098" lon="5.91576">
        <ele>1508</ele>
        <time>2016-04-10T06:12:07.000Z</time>
      </trkpt>
      <trkpt lat="45.18094" lon="5.91576">
        <ele>1508.5999755859</ele>
        <time>2016-04-10T06:12:12.000Z</time>
      </trkpt>
      <trkpt lat="45.18091" lon="5.91575">
        <ele>1509.1999511719</ele>
        <time>2016-04-10T06:12:15.000Z</time>
      </trkpt>
      <trkpt lat="45.18087" lon="5.91576">
        <ele>1509.8000488281</ele>
        <time>2016-04-10T06:12:19.000Z</time>
      </trkpt>
      <trkpt lat="45.18077" lon="5.9158">
        <ele>1510.1999511719</ele>
        <time>2016-04-10T06:12:27.000Z</time>
      </trkpt>
      <trkpt lat="45.18075" lon="5.9158">
        <ele>1510.4000244141</ele>
        <time>2016-04-10T06:12:29.000Z</time>
      </trkpt>
      <trkpt lat="45.18068" lon="5.91584">
        <ele>1510.8000488281</ele>
        <time>2016-04-10T06:12:35.000Z</time>
      </trkpt>
      <trkpt lat="45.18062" lon="5.91587">
        <ele>1511.1999511719</ele>
        <time>2016-04-10T06:12:41.000Z</time>
      </trkpt>
      <trkpt lat="45.18061" lon="5.91588">
        <ele>1511.4000244141</ele>
        <time>2016-04-10T06:12:42.000Z</time>
      </trkpt>
      <trkpt lat="45.18056" lon="5.9159">
        <ele>1512</ele>
        <time>2016-04-10T06:12:47.000Z</time>
      </trkpt>
      <trkpt lat="45.1805" lon="5.91592">
        <ele>1512.4000244141</ele>
        <time>2016-04-10T06:12:52.000Z</time>
      </trkpt>
      <trkpt lat="45.18047" lon="5.91592">
        <ele>1512.5999755859</ele>
        <time>2016-04-10T06:12:55.000Z</time>
      </trkpt>
      <trkpt lat="45.1804" lon="5.91593">
        <ele>1512.5999755859</ele>
        <time>2016-04-10T06:13:00.000Z</time>
      </trkpt>
      <trkpt lat="45.18033" lon="5.91592">
        <ele>1513.1999511719</ele>
        <time>2016-04-10T06:13:06.000Z</time>
      </trkpt>
      <trkpt lat="45.18028" lon="5.91591">
        <ele>1513.4000244141</ele>
        <time>2016-04-10T06:13:10.000Z</time>
      </trkpt>
      <trkpt lat="45.18028" lon="5.91591">
        <ele>1513.5999755859</ele>
        <time>2016-04-10T06:13:11.000Z</time>
      </trkpt>
      <trkpt lat="45.18021" lon="5.9159">
        <ele>1514</ele>
        <time>2016-04-10T06:13:17.000Z</time>
      </trkpt>
      <trkpt lat="45.18016" lon="5.91591">
        <ele>1514.4000244141</ele>
        <time>2016-04-10T06:13:22.000Z</time>
      </trkpt>
      <trkpt lat="45.18014" lon="5.9159">
        <ele>1514.4000244141</ele>
        <time>2016-04-10T06:13:24.000Z</time>
      </trkpt>
      <trkpt lat="45.18011" lon="5.9159">
        <ele>1515</ele>
        <time>2016-04-10T06:13:27.000Z</time>
      </trkpt>
      <trkpt lat="45.18008" lon="5.91589">
        <ele>1515.5999755859</ele>
        <time>2016-04-10T06:13:30.000Z</time>
      </trkpt>
      <trkpt lat="45.18005" lon="5.91588">
        <ele>1516.4000244141</ele>
        <time>2016-04-10T06:13:33.000Z</time>
      </trkpt>
      <trkpt lat="45.18003" lon="5.91588">
        <ele>1516.5999755859</ele>
        <time>2016-04-10T06:13:35.000Z</time>
      </trkpt>
      <trkpt lat="45.17996" lon="5.91588">
        <ele>1517.8000488281</ele>
        <time>2016-04-10T06:13:41.000Z</time>
      </trkpt>
      <trkpt lat="45.17991" lon="5.91588">
        <ele>1518.5999755859</ele>
        <time>2016-04-10T06:13:48.000Z</time>
      </trkpt>
      <trkpt lat="45.1799" lon="5.91589">
        <ele>1518.8000488281</ele>
        <time>2016-04-10T06:13:50.000Z</time>
      </trkpt>
      <trkpt lat="45.17988" lon="5.91589">
        <ele>1519.5999755859</ele>
        <time>2016-04-10T06:13:54.000Z</time>
      </trkpt>
      <trkpt lat="45.17987" lon="5.9159">
        <ele>1519.8000488281</ele>
        <time>2016-04-10T06:13:56.000Z</time>
      </trkpt>
      <trkpt lat="45.17984" lon="5.9159">
        <ele>1520.4000244141</ele>
        <time>2016-04-10T06:14:00.000Z</time>
      </trkpt>
      <trkpt lat="45.17982" lon="5.9159">
        <ele>1521</ele>
        <time>2016-04-10T06:14:02.000Z</time>
      </trkpt>
      <trkpt lat="45.1798" lon="5.91591">
        <ele>1521.5999755859</ele>
        <time>2016-04-10T06:14:05.000Z</time>
      </trkpt>
      <trkpt lat="45.17976" lon="5.91592">
        <ele>1522</ele>
        <time>2016-04-10T06:14:09.000Z</time>
      </trkpt>
      <trkpt lat="45.17975" lon="5.91592">
        <ele>1522.1999511719</ele>
        <time>2016-04-10T06:14:10.000Z</time>
      </trkpt>
      <trkpt lat="45.17972" lon="5.91592">
        <ele>1523</ele>
        <time>2016-04-10T06:14:14.000Z</time>
      </trkpt>
      <trkpt lat="45.17971" lon="5.91592">
        <ele>1523.1999511719</ele>
        <time>2016-04-10T06:14:15.000Z</time>
      </trkpt>
      <trkpt lat="45.17967" lon="5.91593">
        <ele>1524</ele>
        <time>2016-04-10T06:14:20.000Z</time>
      </trkpt>
      <trkpt lat="45.17967" lon="5.91593">
        <ele>1524</ele>
        <time>2016-04-10T06:14:21.000Z</time>
      </trkpt>
      <trkpt lat="45.17964" lon="5.91594">
        <ele>1524.8000488281</ele>
        <time>2016-04-10T06:14:26.000Z</time>
      </trkpt>
      <trkpt lat="45.17963" lon="5.91594">
        <ele>1525.1999511719</ele>
        <time>2016-04-10T06:14:27.000Z</time>
      </trkpt>
      <trkpt lat="45.17961" lon="5.91595">
        <ele>1525.8000488281</ele>
        <time>2016-04-10T06:14:31.000Z</time>
      </trkpt>
      <trkpt lat="45.17959" lon="5.91595">
        <ele>1526.1999511719</ele>
        <time>2016-04-10T06:14:33.000Z</time>
      </trkpt>
      <trkpt lat="45.17957" lon="5.91597">
        <ele>1527.1999511719</ele>
        <time>2016-04-10T06:14:37.000Z</time>
      </trkpt>
      <trkpt lat="45.17957" lon="5.91597">
        <ele>1527.1999511719</ele>
        <time>2016-04-10T06:14:38.000Z</time>
      </trkpt>
      <trkpt lat="45.17952" lon="5.91598">
        <ele>1528.4000244141</ele>
        <time>2016-04-10T06:14:44.000Z</time>
      </trkpt>
      <trkpt lat="45.17949" lon="5.91598">
        <ele>1529</ele>
        <time>2016-04-10T06:14:48.000Z</time>
      </trkpt>
      <trkpt lat="45.17946" lon="5.91599">
        <ele>1529.4000244141</ele>
        <time>2016-04-10T06:14:51.000Z</time>
      </trkpt>
      <trkpt lat="45.17944" lon="5.91599">
        <ele>1529.8000488281</ele>
        <time>2016-04-10T06:14:54.000Z</time>
      </trkpt>
      <trkpt lat="45.17941" lon="5.91599">
        <ele>1530.5999755859</ele>
        <time>2016-04-10T06:14:59.000Z</time>
      </trkpt>
      <trkpt lat="45.17936" lon="5.91601">
        <ele>1531.5999755859</ele>
        <time>2016-04-10T06:15:05.000Z</time>
      </trkpt>
      <trkpt lat="45.17934" lon="5.91603">
        <ele>1532.5999755859</ele>
        <time>2016-04-10T06:15:10.000Z</time>
      </trkpt>
      <trkpt lat="45.17933" lon="5.91604">
        <ele>1532.8000488281</ele>
        <time>2016-04-10T06:15:11.000Z</time>
      </trkpt>
      <trkpt lat="45.17929" lon="5.91605">
        <ele>1533.4000244141</ele>
        <time>2016-04-10T06:15:17.000Z</time>
      </trkpt>
      <trkpt lat="45.17928" lon="5.91606">
        <ele>1533.5999755859</ele>
        <time>2016-04-10T06:15:18.000Z</time>
      </trkpt>
      <trkpt lat="45.17925" lon="5.91606">
        <ele>1534.4000244141</ele>
        <time>2016-04-10T06:15:22.000Z</time>
      </trkpt>
      <trkpt lat="45.17925" lon="5.91606">
        <ele>1534.5999755859</ele>
        <time>2016-04-10T06:15:23.000Z</time>
      </trkpt>
      <trkpt lat="45.1792" lon="5.91605">
        <ele>1535.1999511719</ele>
        <time>2016-04-10T06:15:29.000Z</time>
      </trkpt>
      <trkpt lat="45.17918" lon="5.91605">
        <ele>1535.8000488281</ele>
        <time>2016-04-10T06:15:31.000Z</time>
      </trkpt>
      <trkpt lat="45.17916" lon="5.91604">
        <ele>1536.5999755859</ele>
        <time>2016-04-10T06:15:35.000Z</time>
      </trkpt>
      <trkpt lat="45.17915" lon="5.91603">
        <ele>1536.8000488281</ele>
        <time>2016-04-10T06:15:36.000Z</time>
      </trkpt>
      <trkpt lat="45.1791" lon="5.91602">
        <ele>1537.8000488281</ele>
        <time>2016-04-10T06:15:41.000Z</time>
      </trkpt>
      <trkpt lat="45.17908" lon="5.91604">
        <ele>1537.8000488281</ele>
        <time>2016-04-10T06:15:43.000Z</time>
      </trkpt>
      <trkpt lat="45.17906" lon="5.91605">
        <ele>1538.1999511719</ele>
        <time>2016-04-10T06:15:46.000Z</time>
      </trkpt>
      <trkpt lat="45.17902" lon="5.91607">
        <ele>1538.8000488281</ele>
        <time>2016-04-10T06:15:51.000Z</time>
      </trkpt>
      <trkpt lat="45.17901" lon="5.91607">
        <ele>1539</ele>
        <time>2016-04-10T06:15:52.000Z</time>
      </trkpt>
      <trkpt lat="45.17899" lon="5.91609">
        <ele>1540.1999511719</ele>
        <time>2016-04-10T06:15:57.000Z</time>
      </trkpt>
      <trkpt lat="45.17896" lon="5.91611">
        <ele>1541</ele>
        <time>2016-04-10T06:16:02.000Z</time>
      </trkpt>
      <trkpt lat="45.17895" lon="5.91611">
        <ele>1541.1999511719</ele>
        <time>2016-04-10T06:16:03.000Z</time>
      </trkpt>
      <trkpt lat="45.17893" lon="5.91611">
        <ele>1541.5999755859</ele>
        <time>2016-04-10T06:16:07.000Z</time>
      </trkpt>
      <trkpt lat="45.17892" lon="5.91612">
        <ele>1542.4000244141</ele>
        <time>2016-04-10T06:16:11.000Z</time>
      </trkpt>
      <trkpt lat="45.17891" lon="5.91612">
        <ele>1542.5999755859</ele>
        <time>2016-04-10T06:16:12.000Z</time>
      </trkpt>
      <trkpt lat="45.17887" lon="5.91614">
        <ele>1543.4000244141</ele>
        <time>2016-04-10T06:16:17.000Z</time>
      </trkpt>
      <trkpt lat="45.17886" lon="5.91615">
        <ele>1543.8000488281</ele>
        <time>2016-04-10T06:16:18.000Z</time>
      </trkpt>
      <trkpt lat="45.17884" lon="5.91616">
        <ele>1544.8000488281</ele>
        <time>2016-04-10T06:16:22.000Z</time>
      </trkpt>
      <trkpt lat="45.17884" lon="5.91616">
        <ele>1545</ele>
        <time>2016-04-10T06:16:23.000Z</time>
      </trkpt>
      <trkpt lat="45.17881" lon="5.91617">
        <ele>1545.4000244141</ele>
        <time>2016-04-10T06:16:27.000Z</time>
      </trkpt>
      <trkpt lat="45.17878" lon="5.91618">
        <ele>1546</ele>
        <time>2016-04-10T06:16:30.000Z</time>
      </trkpt>
      <trkpt lat="45.17876" lon="5.91619">
        <ele>1546.4000244141</ele>
        <time>2016-04-10T06:16:32.000Z</time>
      </trkpt>
      <trkpt lat="45.17873" lon="5.91621">
        <ele>1547.4000244141</ele>
        <time>2016-04-10T06:16:37.000Z</time>
      </trkpt>
      <trkpt lat="45.17872" lon="5.91622">
        <ele>1547.8000488281</ele>
        <time>2016-04-10T06:16:40.000Z</time>
      </trkpt>
      <trkpt lat="45.17868" lon="5.91624">
        <ele>1548.4000244141</ele>
        <time>2016-04-10T06:16:44.000Z</time>
      </trkpt>
      <trkpt lat="45.17867" lon="5.91625">
        <ele>1548.5999755859</ele>
        <time>2016-04-10T06:16:46.000Z</time>
      </trkpt>
      <trkpt lat="45.17864" lon="5.91628">
        <ele>1549.4000244141</ele>
        <time>2016-04-10T06:16:50.000Z</time>
      </trkpt>
      <trkpt lat="45.17863" lon="5.91629">
        <ele>1549.5999755859</ele>
        <time>2016-04-10T06:16:51.000Z</time>
      </trkpt>
      <trkpt lat="45.17859" lon="5.91631">
        <ele>1550.4000244141</ele>
        <time>2016-04-10T06:16:57.000Z</time>
      </trkpt>
      <trkpt lat="45.17859" lon="5.91631">
        <ele>1551.4000244141</ele>
        <time>2016-04-10T06:17:03.000Z</time>
      </trkpt>
      <trkpt lat="45.17859" lon="5.91631">
        <ele>1552.5999755859</ele>
        <time>2016-04-10T06:17:07.000Z</time>
      </trkpt>
      <trkpt lat="45.17859" lon="5.91631">
        <ele>1552.8000488281</ele>
        <time>2016-04-10T06:17:09.000Z</time>
      </trkpt>
      <trkpt lat="45.17858" lon="5.91632">
        <ele>1553.5999755859</ele>
        <time>2016-04-10T06:17:15.000Z</time>
      </trkpt>
      <trkpt lat="45.17853" lon="5.91636">
        <ele>1554.8000488281</ele>
        <time>2016-04-10T06:17:20.000Z</time>
      </trkpt>
      <trkpt lat="45.17848" lon="5.91639">
        <ele>1555.8000488281</ele>
        <time>2016-04-10T06:17:26.000Z</time>
      </trkpt>
      <trkpt lat="45.17847" lon="5.9164">
        <ele>1556</ele>
        <time>2016-04-10T06:17:28.000Z</time>
      </trkpt>
      <trkpt lat="45.17845" lon="5.91642">
        <ele>1556.5999755859</ele>
        <time>2016-04-10T06:17:32.000Z</time>
      </trkpt>
      <trkpt lat="45.17844" lon="5.91643">
        <ele>1557.1999511719</ele>
        <time>2016-04-10T06:17:34.000Z</time>
      </trkpt>
      <trkpt lat="45.1784" lon="5.91646">
        <ele>1557.8000488281</ele>
        <time>2016-04-10T06:17:38.000Z</time>
      </trkpt>
      <trkpt lat="45.17836" lon="5.9165">
        <ele>1558.1999511719</ele>
        <time>2016-04-10T06:17:42.000Z</time>
      </trkpt>
      <trkpt lat="45.17834" lon="5.91651">
        <ele>1558.5999755859</ele>
        <time>2016-04-10T06:17:44.000Z</time>
      </trkpt>
      <trkpt lat="45.17831" lon="5.91652">
        <ele>1559.4000244141</ele>
        <time>2016-04-10T06:17:49.000Z</time>
      </trkpt>
      <trkpt lat="45.17829" lon="5.91652">
        <ele>1559.4000244141</ele>
        <time>2016-04-10T06:17:50.000Z</time>
      </trkpt>
      <trkpt lat="45.17826" lon="5.91652">
        <ele>1560.4000244141</ele>
        <time>2016-04-10T06:17:54.000Z</time>
      </trkpt>
      <trkpt lat="45.17823" lon="5.91652">
        <ele>1561</ele>
        <time>2016-04-10T06:17:57.000Z</time>
      </trkpt>
      <trkpt lat="45.17819" lon="5.91653">
        <ele>1561.5999755859</ele>
        <time>2016-04-10T06:18:01.000Z</time>
      </trkpt>
      <trkpt lat="45.17818" lon="5.91654">
        <ele>1561.8000488281</ele>
        <time>2016-04-10T06:18:03.000Z</time>
      </trkpt>
      <trkpt lat="45.17814" lon="5.91656">
        <ele>1562.5999755859</ele>
        <time>2016-04-10T06:18:09.000Z</time>
      </trkpt>
      <trkpt lat="45.17814" lon="5.91656">
        <ele>1562.8000488281</ele>
        <time>2016-04-10T06:18:10.000Z</time>
      </trkpt>
      <trkpt lat="45.17811" lon="5.91657">
        <ele>1563</ele>
        <time>2016-04-10T06:18:15.000Z</time>
      </trkpt>
      <trkpt lat="45.17808" lon="5.91658">
        <ele>1563.8000488281</ele>
        <time>2016-04-10T06:18:20.000Z</time>
      </trkpt>
      <trkpt lat="45.17807" lon="5.91658">
        <ele>1564</ele>
        <time>2016-04-10T06:18:21.000Z</time>
      </trkpt>
      <trkpt lat="45.17805" lon="5.91659">
        <ele>1565</ele>
        <time>2016-04-10T06:18:25.000Z</time>
      </trkpt>
      <trkpt lat="45.17804" lon="5.9166">
        <ele>1565.1999511719</ele>
        <time>2016-04-10T06:18:26.000Z</time>
      </trkpt>
      <trkpt lat="45.17801" lon="5.91662">
        <ele>1566.1999511719</ele>
        <time>2016-04-10T06:18:32.000Z</time>
      </trkpt>
      <trkpt lat="45.178" lon="5.91663">
        <ele>1566.4000244141</ele>
        <time>2016-04-10T06:18:33.000Z</time>
      </trkpt>
      <trkpt lat="45.17801" lon="5.91665">
        <ele>1567.1999511719</ele>
        <time>2016-04-10T06:18:39.000Z</time>
      </trkpt>
      <trkpt lat="45.17801" lon="5.91665">
        <ele>1567.4000244141</ele>
        <time>2016-04-10T06:18:40.000Z</time>
      </trkpt>
      <trkpt lat="45.17802" lon="5.91666">
        <ele>1568.1999511719</ele>
        <time>2016-04-10T06:18:44.000Z</time>
      </trkpt>
      <trkpt lat="45.17805" lon="5.91668">
        <ele>1568.5999755859</ele>
        <time>2016-04-10T06:18:48.000Z</time>
      </trkpt>
      <trkpt lat="45.17808" lon="5.9167">
        <ele>1569.5999755859</ele>
        <time>2016-04-10T06:18:52.000Z</time>
      </trkpt>
      <trkpt lat="45.1781" lon="5.91671">
        <ele>1570.5999755859</ele>
        <time>2016-04-10T06:18:56.000Z</time>
      </trkpt>
      <trkpt lat="45.1781" lon="5.91671">
        <ele>1570.8000488281</ele>
        <time>2016-04-10T06:18:57.000Z</time>
      </trkpt>
      <trkpt lat="45.1781" lon="5.91671">
        <ele>1571.8000488281</ele>
        <time>2016-04-10T06:19:03.000Z</time>
      </trkpt>
      <trkpt lat="45.1781" lon="5.91671">
        <ele>1572</ele>
        <time>2016-04-10T06:19:04.000Z</time>
      </trkpt>
      <trkpt lat="45.1781" lon="5.91671">
        <ele>1573</ele>
        <time>2016-04-10T06:19:07.000Z</time>
      </trkpt>
      <trkpt lat="45.1781" lon="5.91671">
        <ele>1574.1999511719</ele>
        <time>2016-04-10T06:19:13.000Z</time>
      </trkpt>
      <trkpt lat="45.17815" lon="5.91677">
        <ele>1575.4000244141</ele>
        <time>2016-04-10T06:19:20.000Z</time>
      </trkpt>
      <trkpt lat="45.17817" lon="5.91678">
        <ele>1575.5999755859</ele>
        <time>2016-04-10T06:19:21.000Z</time>
      </trkpt>
      <trkpt lat="45.17823" lon="5.91683">
        <ele>1576.4000244141</ele>
        <time>2016-04-10T06:19:27.000Z</time>
      </trkpt>
      <trkpt lat="45.17827" lon="5.91685">
        <ele>1577</ele>
        <time>2016-04-10T06:19:30.000Z</time>
      </trkpt>
      <trkpt lat="45.1783" lon="5.91687">
        <ele>1577.5999755859</ele>
        <time>2016-04-10T06:19:33.000Z</time>
      </trkpt>
      <trkpt lat="45.17835" lon="5.9169">
        <ele>1578.4000244141</ele>
        <time>2016-04-10T06:19:38.000Z</time>
      </trkpt>
      <trkpt lat="45.17837" lon="5.91692">
        <ele>1578.5999755859</ele>
        <time>2016-04-10T06:19:40.000Z</time>
      </trkpt>
      <trkpt lat="45.17837" lon="5.91694">
        <ele>1579.1999511719</ele>
        <time>2016-04-10T06:19:45.000Z</time>
      </trkpt>
      <trkpt lat="45.17835" lon="5.91697">
        <ele>1579.5999755859</ele>
        <time>2016-04-10T06:19:49.000Z</time>
      </trkpt>
      <trkpt lat="45.17835" lon="5.91697">
        <ele>1579.8000488281</ele>
        <time>2016-04-10T06:19:50.000Z</time>
      </trkpt>
      <trkpt lat="45.17835" lon="5.91697">
        <ele>1580.8000488281</ele>
        <time>2016-04-10T06:19:53.000Z</time>
      </trkpt>
      <trkpt lat="45.17833" lon="5.91699">
        <ele>1581.8000488281</ele>
        <time>2016-04-10T06:19:56.000Z</time>
      </trkpt>
      <trkpt lat="45.17832" lon="5.91699">
        <ele>1582</ele>
        <time>2016-04-10T06:19:57.000Z</time>
      </trkpt>
      <trkpt lat="45.17828" lon="5.91702">
        <ele>1582.8000488281</ele>
        <time>2016-04-10T06:20:02.000Z</time>
      </trkpt>
      <trkpt lat="45.17826" lon="5.91703">
        <ele>1583</ele>
        <time>2016-04-10T06:20:05.000Z</time>
      </trkpt>
      <trkpt lat="45.17824" lon="5.91705">
        <ele>1583.1999511719</ele>
        <time>2016-04-10T06:20:07.000Z</time>
      </trkpt>
      <trkpt lat="45.17823" lon="5.91706">
        <ele>1583.5999755859</ele>
        <time>2016-04-10T06:20:08.000Z</time>
      </trkpt>
      <trkpt lat="45.1782" lon="5.91707">
        <ele>1584.4000244141</ele>
        <time>2016-04-10T06:20:14.000Z</time>
      </trkpt>
      <trkpt lat="45.1782" lon="5.91707">
        <ele>1585.5999755859</ele>
        <time>2016-04-10T06:20:19.000Z</time>
      </trkpt>
      <trkpt lat="45.1782" lon="5.91707">
        <ele>1586</ele>
        <time>2016-04-10T06:20:21.000Z</time>
      </trkpt>
      <trkpt lat="45.17819" lon="5.91707">
        <ele>1586.8000488281</ele>
        <time>2016-04-10T06:20:24.000Z</time>
      </trkpt>
      <trkpt lat="45.17816" lon="5.91708">
        <ele>1587.1999511719</ele>
        <time>2016-04-10T06:20:27.000Z</time>
      </trkpt>
      <trkpt lat="45.17811" lon="5.91712">
        <ele>1588</ele>
        <time>2016-04-10T06:20:34.000Z</time>
      </trkpt>
      <trkpt lat="45.1781" lon="5.91713">
        <ele>1588.1999511719</ele>
        <time>2016-04-10T06:20:35.000Z</time>
      </trkpt>
      <trkpt lat="45.17807" lon="5.91713">
        <ele>1589</ele>
        <time>2016-04-10T06:20:38.000Z</time>
      </trkpt>
      <trkpt lat="45.17803" lon="5.91715">
        <ele>1590.1999511719</ele>
        <time>2016-04-10T06:20:42.000Z</time>
      </trkpt>
      <trkpt lat="45.17801" lon="5.91716">
        <ele>1590.4000244141</ele>
        <time>2016-04-10T06:20:44.000Z</time>
      </trkpt>
      <trkpt lat="45.17797" lon="5.91718">
        <ele>1591.1999511719</ele>
        <time>2016-04-10T06:20:48.000Z</time>
      </trkpt>
      <trkpt lat="45.17795" lon="5.91719">
        <ele>1591.5999755859</ele>
        <time>2016-04-10T06:20:51.000Z</time>
      </trkpt>
      <trkpt lat="45.17792" lon="5.9172">
        <ele>1592.4000244141</ele>
        <time>2016-04-10T06:20:55.000Z</time>
      </trkpt>
      <trkpt lat="45.17788" lon="5.91722">
        <ele>1593</ele>
        <time>2016-04-10T06:20:59.000Z</time>
      </trkpt>
      <trkpt lat="45.17787" lon="5.91722">
        <ele>1593.4000244141</ele>
        <time>2016-04-10T06:21:02.000Z</time>
      </trkpt>
      <trkpt lat="45.17787" lon="5.91722">
        <ele>1594</ele>
        <time>2016-04-10T06:21:07.000Z</time>
      </trkpt>
      <trkpt lat="45.17787" lon="5.91722">
        <ele>1594.1999511719</ele>
        <time>2016-04-10T06:21:22.000Z</time>
      </trkpt>
      <trkpt lat="45.17787" lon="5.91722">
        <ele>1594.1999511719</ele>
        <time>2016-04-10T06:21:37.000Z</time>
      </trkpt>
      <trkpt lat="45.17787" lon="5.91722">
        <ele>1594.1999511719</ele>
        <time>2016-04-10T06:21:50.000Z</time>
      </trkpt>
      <trkpt lat="45.17787" lon="5.91722">
        <ele>1594.5999755859</ele>
        <time>2016-04-10T06:22:02.000Z</time>
      </trkpt>
      <trkpt lat="45.17787" lon="5.91722">
        <ele>1594.5999755859</ele>
        <time>2016-04-10T06:22:05.000Z</time>
      </trkpt>
      <trkpt lat="45.17787" lon="5.91722">
        <ele>1594</ele>
        <time>2016-04-10T06:22:19.000Z</time>
      </trkpt>
      <trkpt lat="45.17781" lon="5.91727">
        <ele>1595.5999755859</ele>
        <time>2016-04-10T06:22:25.000Z</time>
      </trkpt>
      <trkpt lat="45.1778" lon="5.91727">
        <ele>1595.8000488281</ele>
        <time>2016-04-10T06:22:26.000Z</time>
      </trkpt>
      <trkpt lat="45.17778" lon="5.9173">
        <ele>1596.8000488281</ele>
        <time>2016-04-10T06:22:29.000Z</time>
      </trkpt>
      <trkpt lat="45.17775" lon="5.91732">
        <ele>1597.8000488281</ele>
        <time>2016-04-10T06:22:33.000Z</time>
      </trkpt>
      <trkpt lat="45.17772" lon="5.91732">
        <ele>1598.1999511719</ele>
        <time>2016-04-10T06:22:35.000Z</time>
      </trkpt>
      <trkpt lat="45.1777" lon="5.91733">
        <ele>1599</ele>
        <time>2016-04-10T06:22:39.000Z</time>
      </trkpt>
      <trkpt lat="45.17767" lon="5.91735">
        <ele>1599.5999755859</ele>
        <time>2016-04-10T06:22:42.000Z</time>
      </trkpt>
      <trkpt lat="45.17766" lon="5.91735">
        <ele>1600.1999511719</ele>
        <time>2016-04-10T06:22:43.000Z</time>
      </trkpt>
      <trkpt lat="45.17761" lon="5.91738">
        <ele>1601.1999511719</ele>
        <time>2016-04-10T06:22:48.000Z</time>
      </trkpt>
      <trkpt lat="45.1776" lon="5.91739">
        <ele>1601.5999755859</ele>
        <time>2016-04-10T06:22:50.000Z</time>
      </trkpt>
      <trkpt lat="45.17757" lon="5.91741">
        <ele>1602.4000244141</ele>
        <time>2016-04-10T06:22:55.000Z</time>
      </trkpt>
      <trkpt lat="45.17753" lon="5.91742">
        <ele>1602.8000488281</ele>
        <time>2016-04-10T06:22:58.000Z</time>
      </trkpt>
      <trkpt lat="45.17751" lon="5.91744">
        <ele>1603.5999755859</ele>
        <time>2016-04-10T06:23:02.000Z</time>
      </trkpt>
      <trkpt lat="45.17753" lon="5.91747">
        <ele>1604.1999511719</ele>
        <time>2016-04-10T06:23:05.000Z</time>
      </trkpt>
      <trkpt lat="45.17754" lon="5.91748">
        <ele>1604.5999755859</ele>
        <time>2016-04-10T06:23:07.000Z</time>
      </trkpt>
      <trkpt lat="45.17757" lon="5.91749">
        <ele>1605.8000488281</ele>
        <time>2016-04-10T06:23:12.000Z</time>
      </trkpt>
      <trkpt lat="45.17758" lon="5.91749">
        <ele>1606</ele>
        <time>2016-04-10T06:23:13.000Z</time>
      </trkpt>
      <trkpt lat="45.17761" lon="5.91754">
        <ele>1606.8000488281</ele>
        <time>2016-04-10T06:23:20.000Z</time>
      </trkpt>
      <trkpt lat="45.17764" lon="5.91756">
        <ele>1608</ele>
        <time>2016-04-10T06:23:25.000Z</time>
      </trkpt>
      <trkpt lat="45.17767" lon="5.91759">
        <ele>1608.8000488281</ele>
        <time>2016-04-10T06:23:29.000Z</time>
      </trkpt>
      <trkpt lat="45.17768" lon="5.91759">
        <ele>1609.1999511719</ele>
        <time>2016-04-10T06:23:31.000Z</time>
      </trkpt>
      <trkpt lat="45.17768" lon="5.9176">
        <ele>1610.4000244141</ele>
        <time>2016-04-10T06:23:37.000Z</time>
      </trkpt>
      <trkpt lat="45.17768" lon="5.9176">
        <ele>1610.8000488281</ele>
        <time>2016-04-10T06:23:38.000Z</time>
      </trkpt>
      <trkpt lat="45.17768" lon="5.9176">
        <ele>1611.5999755859</ele>
        <time>2016-04-10T06:23:43.000Z</time>
      </trkpt>
      <trkpt lat="45.17768" lon="5.9176">
        <ele>1612.4000244141</ele>
        <time>2016-04-10T06:23:47.000Z</time>
      </trkpt>
      <trkpt lat="45.17768" lon="5.9176">
        <ele>1612.8000488281</ele>
        <time>2016-04-10T06:23:49.000Z</time>
      </trkpt>
      <trkpt lat="45.17771" lon="5.91762">
        <ele>1613.5999755859</ele>
        <time>2016-04-10T06:23:56.000Z</time>
      </trkpt>
      <trkpt lat="45.17772" lon="5.91763">
        <ele>1613.8000488281</ele>
        <time>2016-04-10T06:23:57.000Z</time>
      </trkpt>
      <trkpt lat="45.17778" lon="5.9177">
        <ele>1615</ele>
        <time>2016-04-10T06:24:03.000Z</time>
      </trkpt>
      <trkpt lat="45.17784" lon="5.91774">
        <ele>1616</ele>
        <time>2016-04-10T06:24:09.000Z</time>
      </trkpt>
      <trkpt lat="45.17792" lon="5.91778">
        <ele>1617</ele>
        <time>2016-04-10T06:24:14.000Z</time>
      </trkpt>
      <trkpt lat="45.17794" lon="5.91778">
        <ele>1617.1999511719</ele>
        <time>2016-04-10T06:24:16.000Z</time>
      </trkpt>
      <trkpt lat="45.17797" lon="5.91781">
        <ele>1618.1999511719</ele>
        <time>2016-04-10T06:24:21.000Z</time>
      </trkpt>
      <trkpt lat="45.17798" lon="5.91781">
        <ele>1618.4000244141</ele>
        <time>2016-04-10T06:24:22.000Z</time>
      </trkpt>
      <trkpt lat="45.17802" lon="5.91786">
        <ele>1619</ele>
        <time>2016-04-10T06:24:25.000Z</time>
      </trkpt>
      <trkpt lat="45.17802" lon="5.91787">
        <ele>1619.1999511719</ele>
        <time>2016-04-10T06:24:26.000Z</time>
      </trkpt>
      <trkpt lat="45.17803" lon="5.91787">
        <ele>1619.4000244141</ele>
        <time>2016-04-10T06:24:27.000Z</time>
      </trkpt>
      <trkpt lat="45.17805" lon="5.91791">
        <ele>1620.1999511719</ele>
        <time>2016-04-10T06:24:33.000Z</time>
      </trkpt>
      <trkpt lat="45.17805" lon="5.91791">
        <ele>1620.4000244141</ele>
        <time>2016-04-10T06:24:34.000Z</time>
      </trkpt>
      <trkpt lat="45.17805" lon="5.91791">
        <ele>1621.4000244141</ele>
        <time>2016-04-10T06:24:39.000Z</time>
      </trkpt>
      <trkpt lat="45.17805" lon="5.91791">
        <ele>1622</ele>
        <time>2016-04-10T06:24:41.000Z</time>
      </trkpt>
      <trkpt lat="45.17805" lon="5.91791">
        <ele>1622.4000244141</ele>
        <time>2016-04-10T06:24:42.000Z</time>
      </trkpt>
      <trkpt lat="45.178" lon="5.91793">
        <ele>1623.5999755859</ele>
        <time>2016-04-10T06:24:47.000Z</time>
      </trkpt>
      <trkpt lat="45.17799" lon="5.91793">
        <ele>1623.8000488281</ele>
        <time>2016-04-10T06:24:48.000Z</time>
      </trkpt>
      <trkpt lat="45.17796" lon="5.91795">
        <ele>1624.5999755859</ele>
        <time>2016-04-10T06:24:52.000Z</time>
      </trkpt>
      <trkpt lat="45.17795" lon="5.91795">
        <ele>1625</ele>
        <time>2016-04-10T06:24:54.000Z</time>
      </trkpt>
      <trkpt lat="45.17793" lon="5.91796">
        <ele>1625.8000488281</ele>
        <time>2016-04-10T06:24:57.000Z</time>
      </trkpt>
      <trkpt lat="45.1779" lon="5.91797">
        <ele>1626.1999511719</ele>
        <time>2016-04-10T06:25:00.000Z</time>
      </trkpt>
      <trkpt lat="45.17786" lon="5.91799">
        <ele>1626.8000488281</ele>
        <time>2016-04-10T06:25:04.000Z</time>
      </trkpt>
      <trkpt lat="45.17785" lon="5.91799">
        <ele>1627</ele>
        <time>2016-04-10T06:25:06.000Z</time>
      </trkpt>
      <trkpt lat="45.17781" lon="5.91799">
        <ele>1627.8000488281</ele>
        <time>2016-04-10T06:25:10.000Z</time>
      </trkpt>
      <trkpt lat="45.17779" lon="5.918">
        <ele>1628</ele>
        <time>2016-04-10T06:25:12.000Z</time>
      </trkpt>
      <trkpt lat="45.17776" lon="5.918">
        <ele>1628.8000488281</ele>
        <time>2016-04-10T06:25:16.000Z</time>
      </trkpt>
      <trkpt lat="45.17773" lon="5.91801">
        <ele>1629.4000244141</ele>
        <time>2016-04-10T06:25:19.000Z</time>
      </trkpt>
      <trkpt lat="45.1777" lon="5.91802">
        <ele>1630</ele>
        <time>2016-04-10T06:25:24.000Z</time>
      </trkpt>
      <trkpt lat="45.1777" lon="5.91802">
        <ele>1630</ele>
        <time>2016-04-10T06:25:25.000Z</time>
      </trkpt>
      <trkpt lat="45.1777" lon="5.91802">
        <ele>1631.1999511719</ele>
        <time>2016-04-10T06:25:31.000Z</time>
      </trkpt>
      <trkpt lat="45.1777" lon="5.91802">
        <ele>1631.4000244141</ele>
        <time>2016-04-10T06:25:32.000Z</time>
      </trkpt>
      <trkpt lat="45.1777" lon="5.91802">
        <ele>1632.1999511719</ele>
        <time>2016-04-10T06:25:36.000Z</time>
      </trkpt>
      <trkpt lat="45.17772" lon="5.91805">
        <ele>1632.5999755859</ele>
        <time>2016-04-10T06:25:40.000Z</time>
      </trkpt>
      <trkpt lat="45.17774" lon="5.91806">
        <ele>1633.4000244141</ele>
        <time>2016-04-10T06:25:44.000Z</time>
      </trkpt>
      <trkpt lat="45.17777" lon="5.91809">
        <ele>1634.1999511719</ele>
        <time>2016-04-10T06:25:48.000Z</time>
      </trkpt>
      <trkpt lat="45.17777" lon="5.91809">
        <ele>1634.4000244141</ele>
        <time>2016-04-10T06:25:49.000Z</time>
      </trkpt>
      <trkpt lat="45.17782" lon="5.91813">
        <ele>1635.5999755859</ele>
        <time>2016-04-10T06:25:56.000Z</time>
      </trkpt>
      <trkpt lat="45.17782" lon="5.91814">
        <ele>1635.8000488281</ele>
        <time>2016-04-10T06:25:57.000Z</time>
      </trkpt>
      <trkpt lat="45.17784" lon="5.91818">
        <ele>1636.8000488281</ele>
        <time>2016-04-10T06:26:01.000Z</time>
      </trkpt>
      <trkpt lat="45.17786" lon="5.91821">
        <ele>1637.1999511719</ele>
        <time>2016-04-10T06:26:05.000Z</time>
      </trkpt>
      <trkpt lat="45.17786" lon="5.91822">
        <ele>1637.8000488281</ele>
        <time>2016-04-10T06:26:10.000Z</time>
      </trkpt>
      <trkpt lat="45.17786" lon="5.91823">
        <ele>1638.1999511719</ele>
        <time>2016-04-10T06:26:12.000Z</time>
      </trkpt>
      <trkpt lat="45.17785" lon="5.91825">
        <ele>1638.8000488281</ele>
        <time>2016-04-10T06:26:15.000Z</time>
      </trkpt>
      <trkpt lat="45.17784" lon="5.91825">
        <ele>1639.8000488281</ele>
        <time>2016-04-10T06:26:19.000Z</time>
      </trkpt>
      <trkpt lat="45.17783" lon="5.91824">
        <ele>1640.4000244141</ele>
        <time>2016-04-10T06:26:22.000Z</time>
      </trkpt>
      <trkpt lat="45.17781" lon="5.91822">
        <ele>1641</ele>
        <time>2016-04-10T06:26:25.000Z</time>
      </trkpt>
      <trkpt lat="45.17777" lon="5.91822">
        <ele>1641.5999755859</ele>
        <time>2016-04-10T06:26:30.000Z</time>
      </trkpt>
      <trkpt lat="45.17771" lon="5.91824">
        <ele>1642</ele>
        <time>2016-04-10T06:26:35.000Z</time>
      </trkpt>
      <trkpt lat="45.1777" lon="5.91824">
        <ele>1642.4000244141</ele>
        <time>2016-04-10T06:26:37.000Z</time>
      </trkpt>
      <trkpt lat="45.17766" lon="5.91826">
        <ele>1643.1999511719</ele>
        <time>2016-04-10T06:26:42.000Z</time>
      </trkpt>
      <trkpt lat="45.17764" lon="5.91828">
        <ele>1643.5999755859</ele>
        <time>2016-04-10T06:26:45.000Z</time>
      </trkpt>
      <trkpt lat="45.17761" lon="5.9183">
        <ele>1644.1999511719</ele>
        <time>2016-04-10T06:26:48.000Z</time>
      </trkpt>
      <trkpt lat="45.17758" lon="5.91831">
        <ele>1644.8000488281</ele>
        <time>2016-04-10T06:26:52.000Z</time>
      </trkpt>
      <trkpt lat="45.17756" lon="5.91831">
        <ele>1645.1999511719</ele>
        <time>2016-04-10T06:26:54.000Z</time>
      </trkpt>
      <trkpt lat="45.17755" lon="5.91834">
        <ele>1646</ele>
        <time>2016-04-10T06:26:59.000Z</time>
      </trkpt>
      <trkpt lat="45.17757" lon="5.91835">
        <ele>1646.4000244141</ele>
        <time>2016-04-10T06:27:01.000Z</time>
      </trkpt>
      <trkpt lat="45.1776" lon="5.91837">
        <ele>1647.4000244141</ele>
        <time>2016-04-10T06:27:06.000Z</time>
      </trkpt>
      <trkpt lat="45.17762" lon="5.91837">
        <ele>1648.1999511719</ele>
        <time>2016-04-10T06:27:09.000Z</time>
      </trkpt>
      <trkpt lat="45.17763" lon="5.91838">
        <ele>1648.5999755859</ele>
        <time>2016-04-10T06:27:11.000Z</time>
      </trkpt>
      <trkpt lat="45.17767" lon="5.91842">
        <ele>1649.4000244141</ele>
        <time>2016-04-10T06:27:17.000Z</time>
      </trkpt>
      <trkpt lat="45.17767" lon="5.91843">
        <ele>1649.5999755859</ele>
        <time>2016-04-10T06:27:18.000Z</time>
      </trkpt>
      <trkpt lat="45.17766" lon="5.91847">
        <ele>1650.4000244141</ele>
        <time>2016-04-10T06:27:24.000Z</time>
      </trkpt>
      <trkpt lat="45.17765" lon="5.91847">
        <ele>1650.8000488281</ele>
        <time>2016-04-10T06:27:26.000Z</time>
      </trkpt>
      <trkpt lat="45.17761" lon="5.91847">
        <ele>1652</ele>
        <time>2016-04-10T06:27:31.000Z</time>
      </trkpt>
      <trkpt lat="45.17759" lon="5.91848">
        <ele>1652.4000244141</ele>
        <time>2016-04-10T06:27:33.000Z</time>
      </trkpt>
      <trkpt lat="45.17754" lon="5.9185">
        <ele>1653</ele>
        <time>2016-04-10T06:27:39.000Z</time>
      </trkpt>
      <trkpt lat="45.17751" lon="5.91851">
        <ele>1653.4000244141</ele>
        <time>2016-04-10T06:27:42.000Z</time>
      </trkpt>
      <trkpt lat="45.17747" lon="5.91852">
        <ele>1654.1999511719</ele>
        <time>2016-04-10T06:27:46.000Z</time>
      </trkpt>
      <trkpt lat="45.17745" lon="5.91851">
        <ele>1654.5999755859</ele>
        <time>2016-04-10T06:27:49.000Z</time>
      </trkpt>
      <trkpt lat="45.17738" lon="5.91853">
        <ele>1655.1999511719</ele>
        <time>2016-04-10T06:27:54.000Z</time>
      </trkpt>
      <trkpt lat="45.17736" lon="5.91853">
        <ele>1655.4000244141</ele>
        <time>2016-04-10T06:27:56.000Z</time>
      </trkpt>
      <trkpt lat="45.1773" lon="5.91856">
        <ele>1656.4000244141</ele>
        <time>2016-04-10T06:28:02.000Z</time>
      </trkpt>
      <trkpt lat="45.17728" lon="5.91856">
        <ele>1656.8000488281</ele>
        <time>2016-04-10T06:28:05.000Z</time>
      </trkpt>
      <trkpt lat="45.17724" lon="5.91857">
        <ele>1657.4000244141</ele>
        <time>2016-04-10T06:28:08.000Z</time>
      </trkpt>
      <trkpt lat="45.17719" lon="5.9186">
        <ele>1658.1999511719</ele>
        <time>2016-04-10T06:28:13.000Z</time>
      </trkpt>
      <trkpt lat="45.17717" lon="5.91862">
        <ele>1658.4000244141</ele>
        <time>2016-04-10T06:28:18.000Z</time>
      </trkpt>
      <trkpt lat="45.17717" lon="5.91862">
        <ele>1659.1999511719</ele>
        <time>2016-04-10T06:28:20.000Z</time>
      </trkpt>
      <trkpt lat="45.17717" lon="5.91862">
        <ele>1659.5999755859</ele>
        <time>2016-04-10T06:28:22.000Z</time>
      </trkpt>
      <trkpt lat="45.17721" lon="5.91864">
        <ele>1660.5999755859</ele>
        <time>2016-04-10T06:28:27.000Z</time>
      </trkpt>
      <trkpt lat="45.17722" lon="5.91864">
        <ele>1660.5999755859</ele>
        <time>2016-04-10T06:28:28.000Z</time>
      </trkpt>
      <trkpt lat="45.17725" lon="5.91865">
        <ele>1661.5999755859</ele>
        <time>2016-04-10T06:28:32.000Z</time>
      </trkpt>
      <trkpt lat="45.17729" lon="5.91868">
        <ele>1662.4000244141</ele>
        <time>2016-04-10T06:28:37.000Z</time>
      </trkpt>
      <trkpt lat="45.17731" lon="5.91871">
        <ele>1662.8000488281</ele>
        <time>2016-04-10T06:28:39.000Z</time>
      </trkpt>
      <trkpt lat="45.17734" lon="5.91884">
        <ele>1663.5999755859</ele>
        <time>2016-04-10T06:28:45.000Z</time>
      </trkpt>
      <trkpt lat="45.17733" lon="5.91885">
        <ele>1663.8000488281</ele>
        <time>2016-04-10T06:28:47.000Z</time>
      </trkpt>
      <trkpt lat="45.17731" lon="5.91889">
        <ele>1664.4000244141</ele>
        <time>2016-04-10T06:28:51.000Z</time>
      </trkpt>
      <trkpt lat="45.17729" lon="5.91891">
        <ele>1665</ele>
        <time>2016-04-10T06:28:54.000Z</time>
      </trkpt>
      <trkpt lat="45.17725" lon="5.91892">
        <ele>1666.1999511719</ele>
        <time>2016-04-10T06:28:59.000Z</time>
      </trkpt>
      <trkpt lat="45.17719" lon="5.91894">
        <ele>1667.4000244141</ele>
        <time>2016-04-10T06:29:06.000Z</time>
      </trkpt>
      <trkpt lat="45.17719" lon="5.91894">
        <ele>1667.8000488281</ele>
        <time>2016-04-10T06:29:07.000Z</time>
      </trkpt>
      <trkpt lat="45.17715" lon="5.91896">
        <ele>1668.4000244141</ele>
        <time>2016-04-10T06:29:11.000Z</time>
      </trkpt>
      <trkpt lat="45.17713" lon="5.91896">
        <ele>1668.5999755859</ele>
        <time>2016-04-10T06:29:14.000Z</time>
      </trkpt>
      <trkpt lat="45.1771" lon="5.91897">
        <ele>1669.4000244141</ele>
        <time>2016-04-10T06:29:19.000Z</time>
      </trkpt>
      <trkpt lat="45.17707" lon="5.91897">
        <ele>1670</ele>
        <time>2016-04-10T06:29:21.000Z</time>
      </trkpt>
      <trkpt lat="45.17705" lon="5.91897">
        <ele>1670.4000244141</ele>
        <time>2016-04-10T06:29:24.000Z</time>
      </trkpt>
      <trkpt lat="45.17703" lon="5.91898">
        <ele>1670.5999755859</ele>
        <time>2016-04-10T06:29:27.000Z</time>
      </trkpt>
      <trkpt lat="45.177" lon="5.919">
        <ele>1671.5999755859</ele>
        <time>2016-04-10T06:29:31.000Z</time>
      </trkpt>
      <trkpt lat="45.17699" lon="5.919">
        <ele>1672</ele>
        <time>2016-04-10T06:29:34.000Z</time>
      </trkpt>
      <trkpt lat="45.17701" lon="5.91902">
        <ele>1672.5999755859</ele>
        <time>2016-04-10T06:29:39.000Z</time>
      </trkpt>
      <trkpt lat="45.17704" lon="5.91904">
        <ele>1673.4000244141</ele>
        <time>2016-04-10T06:29:43.000Z</time>
      </trkpt>
      <trkpt lat="45.17706" lon="5.91905">
        <ele>1673.5999755859</ele>
        <time>2016-04-10T06:29:44.000Z</time>
      </trkpt>
      <trkpt lat="45.17708" lon="5.91909">
        <ele>1674.1999511719</ele>
        <time>2016-04-10T06:29:49.000Z</time>
      </trkpt>
      <trkpt lat="45.17709" lon="5.91911">
        <ele>1674.5999755859</ele>
        <time>2016-04-10T06:29:52.000Z</time>
      </trkpt>
      <trkpt lat="45.1771" lon="5.91918">
        <ele>1675.5999755859</ele>
        <time>2016-04-10T06:29:57.000Z</time>
      </trkpt>
      <trkpt lat="45.1771" lon="5.91919">
        <ele>1675.5999755859</ele>
        <time>2016-04-10T06:29:58.000Z</time>
      </trkpt>
      <trkpt lat="45.17709" lon="5.91924">
        <ele>1676.5999755859</ele>
        <time>2016-04-10T06:30:04.000Z</time>
      </trkpt>
      <trkpt lat="45.17709" lon="5.91925">
        <ele>1676.8000488281</ele>
        <time>2016-04-10T06:30:06.000Z</time>
      </trkpt>
      <trkpt lat="45.17708" lon="5.91935">
        <ele>1677.4000244141</ele>
        <time>2016-04-10T06:30:12.000Z</time>
      </trkpt>
      <trkpt lat="45.17707" lon="5.91939">
        <ele>1677.8000488281</ele>
        <time>2016-04-10T06:30:14.000Z</time>
      </trkpt>
      <trkpt lat="45.17706" lon="5.91947">
        <ele>1678.8000488281</ele>
        <time>2016-04-10T06:30:20.000Z</time>
      </trkpt>
      <trkpt lat="45.17706" lon="5.91949">
        <ele>1678.8000488281</ele>
        <time>2016-04-10T06:30:21.000Z</time>
      </trkpt>
      <trkpt lat="45.17705" lon="5.91957">
        <ele>1679.4000244141</ele>
        <time>2016-04-10T06:30:27.000Z</time>
      </trkpt>
      <trkpt lat="45.17705" lon="5.9196">
        <ele>1680</ele>
        <time>2016-04-10T06:30:30.000Z</time>
      </trkpt>
      <trkpt lat="45.17705" lon="5.91963">
        <ele>1680.5999755859</ele>
        <time>2016-04-10T06:30:33.000Z</time>
      </trkpt>
      <trkpt lat="45.17705" lon="5.91965">
        <ele>1681</ele>
        <time>2016-04-10T06:30:36.000Z</time>
      </trkpt>
      <trkpt lat="45.17704" lon="5.91968">
        <ele>1681.4000244141</ele>
        <time>2016-04-10T06:30:40.000Z</time>
      </trkpt>
      <trkpt lat="45.17697" lon="5.91978">
        <ele>1681.8000488281</ele>
        <time>2016-04-10T06:30:46.000Z</time>
      </trkpt>
      <trkpt lat="45.17694" lon="5.91981">
        <ele>1682.1999511719</ele>
        <time>2016-04-10T06:30:49.000Z</time>
      </trkpt>
      <trkpt lat="45.17689" lon="5.91984">
        <ele>1682.8000488281</ele>
        <time>2016-04-10T06:30:55.000Z</time>
      </trkpt>
      <trkpt lat="45.17682" lon="5.91987">
        <ele>1683.1999511719</ele>
        <time>2016-04-10T06:31:00.000Z</time>
      </trkpt>
      <trkpt lat="45.1768" lon="5.91988">
        <ele>1683.4000244141</ele>
        <time>2016-04-10T06:31:03.000Z</time>
      </trkpt>
      <trkpt lat="45.17675" lon="5.91997">
        <ele>1684</ele>
        <time>2016-04-10T06:31:11.000Z</time>
      </trkpt>
      <trkpt lat="45.17674" lon="5.92001">
        <ele>1684.1999511719</ele>
        <time>2016-04-10T06:31:15.000Z</time>
      </trkpt>
      <trkpt lat="45.17673" lon="5.92007">
        <ele>1685.4000244141</ele>
        <time>2016-04-10T06:31:20.000Z</time>
      </trkpt>
      <trkpt lat="45.1767" lon="5.9202">
        <ele>1686</ele>
        <time>2016-04-10T06:31:27.000Z</time>
      </trkpt>
      <trkpt lat="45.1767" lon="5.92036">
        <ele>1686</ele>
        <time>2016-04-10T06:31:34.000Z</time>
      </trkpt>
      <trkpt lat="45.17669" lon="5.9204">
        <ele>1686</ele>
        <time>2016-04-10T06:31:36.000Z</time>
      </trkpt>
      <trkpt lat="45.17668" lon="5.92048">
        <ele>1686.4000244141</ele>
        <time>2016-04-10T06:31:41.000Z</time>
      </trkpt>
      <trkpt lat="45.17667" lon="5.92051">
        <ele>1686.5999755859</ele>
        <time>2016-04-10T06:31:43.000Z</time>
      </trkpt>
      <trkpt lat="45.17662" lon="5.92061">
        <ele>1687.1999511719</ele>
        <time>2016-04-10T06:31:49.000Z</time>
      </trkpt>
      <trkpt lat="45.1766" lon="5.92062">
        <ele>1687.1999511719</ele>
        <time>2016-04-10T06:31:50.000Z</time>
      </trkpt>
      <trkpt lat="45.17658" lon="5.92064">
        <ele>1687.4000244141</ele>
        <time>2016-04-10T06:31:52.000Z</time>
      </trkpt>
      <trkpt lat="45.17656" lon="5.92065">
        <ele>1687.4000244141</ele>
        <time>2016-04-10T06:31:55.000Z</time>
      </trkpt>
      <trkpt lat="45.17648" lon="5.92068">
        <ele>1688.4000244141</ele>
        <time>2016-04-10T06:32:03.000Z</time>
      </trkpt>
      <trkpt lat="45.17646" lon="5.92068">
        <ele>1688.4000244141</ele>
        <time>2016-04-10T06:32:04.000Z</time>
      </trkpt>
      <trkpt lat="45.17635" lon="5.92071">
        <ele>1688.8000488281</ele>
        <time>2016-04-10T06:32:12.000Z</time>
      </trkpt>
      <trkpt lat="45.17626" lon="5.92078">
        <ele>1689.4000244141</ele>
        <time>2016-04-10T06:32:19.000Z</time>
      </trkpt>
      <trkpt lat="45.17623" lon="5.9208">
        <ele>1689.8000488281</ele>
        <time>2016-04-10T06:32:21.000Z</time>
      </trkpt>
      <trkpt lat="45.17619" lon="5.9209">
        <ele>1690</ele>
        <time>2016-04-10T06:32:31.000Z</time>
      </trkpt>
      <trkpt lat="45.17616" lon="5.92097">
        <ele>1690.4000244141</ele>
        <time>2016-04-10T06:32:36.000Z</time>
      </trkpt>
      <trkpt lat="45.17616" lon="5.92098">
        <ele>1690.5999755859</ele>
        <time>2016-04-10T06:32:37.000Z</time>
      </trkpt>
      <trkpt lat="45.1761" lon="5.92111">
        <ele>1691.1999511719</ele>
        <time>2016-04-10T06:32:47.000Z</time>
      </trkpt>
      <trkpt lat="45.17609" lon="5.92115">
        <ele>1691.4000244141</ele>
        <time>2016-04-10T06:32:51.000Z</time>
      </trkpt>
      <trkpt lat="45.17606" lon="5.92119">
        <ele>1691.8000488281</ele>
        <time>2016-04-10T06:32:55.000Z</time>
      </trkpt>
      <trkpt lat="45.17599" lon="5.92131">
        <ele>1691.8000488281</ele>
        <time>2016-04-10T06:33:04.000Z</time>
      </trkpt>
      <trkpt lat="45.17593" lon="5.9214">
        <ele>1692.5999755859</ele>
        <time>2016-04-10T06:33:10.000Z</time>
      </trkpt>
      <trkpt lat="45.1759" lon="5.92145">
        <ele>1692.8000488281</ele>
        <time>2016-04-10T06:33:14.000Z</time>
      </trkpt>
      <trkpt lat="45.17583" lon="5.92156">
        <ele>1692</ele>
        <time>2016-04-10T06:33:23.000Z</time>
      </trkpt>
      <trkpt lat="45.17576" lon="5.92162">
        <ele>1693.1999511719</ele>
        <time>2016-04-10T06:33:31.000Z</time>
      </trkpt>
      <trkpt lat="45.17576" lon="5.92163">
        <ele>1693.1999511719</ele>
        <time>2016-04-10T06:33:41.000Z</time>
      </trkpt>
      <trkpt lat="45.17575" lon="5.92161">
        <ele>1693.1999511719</ele>
        <time>2016-04-10T06:33:52.000Z</time>
      </trkpt>
      <trkpt lat="45.17575" lon="5.92161">
        <ele>1693.1999511719</ele>
        <time>2016-04-10T06:34:05.000Z</time>
      </trkpt>
      <trkpt lat="45.17575" lon="5.92161">
        <ele>1692.8000488281</ele>
        <time>2016-04-10T06:34:20.000Z</time>
      </trkpt>
      <trkpt lat="45.17577" lon="5.92159">
        <ele>1693.1999511719</ele>
        <time>2016-04-10T06:34:33.000Z</time>
      </trkpt>
      <trkpt lat="45.17577" lon="5.92159">
        <ele>1693</ele>
        <time>2016-04-10T06:34:43.000Z</time>
      </trkpt>
      <trkpt lat="45.17577" lon="5.92159">
        <ele>1692.8000488281</ele>
        <time>2016-04-10T06:34:59.000Z</time>
      </trkpt>
      <trkpt lat="45.17575" lon="5.92162">
        <ele>1693</ele>
        <time>2016-04-10T06:35:17.000Z</time>
      </trkpt>
      <trkpt lat="45.17577" lon="5.92163">
        <ele>1693.4000244141</ele>
        <time>2016-04-10T06:35:23.000Z</time>
      </trkpt>
      <trkpt lat="45.17577" lon="5.92163">
        <ele>1693.5999755859</ele>
        <time>2016-04-10T06:35:24.000Z</time>
      </trkpt>
      <trkpt lat="45.17575" lon="5.92166">
        <ele>1693.4000244141</ele>
        <time>2016-04-10T06:35:32.000Z</time>
      </trkpt>
      <trkpt lat="45.17575" lon="5.92166">
        <ele>1692.8000488281</ele>
        <time>2016-04-10T06:35:41.000Z</time>
      </trkpt>
      <trkpt lat="45.17575" lon="5.92166">
        <ele>1693.1999511719</ele>
        <time>2016-04-10T06:35:48.000Z</time>
      </trkpt>
      <trkpt lat="45.17576" lon="5.92164">
        <ele>1693</ele>
        <time>2016-04-10T06:35:56.000Z</time>
      </trkpt>
      <trkpt lat="45.17573" lon="5.92167">
        <ele>1692.8000488281</ele>
        <time>2016-04-10T06:36:04.000Z</time>
      </trkpt>
      <trkpt lat="45.17566" lon="5.92182">
        <ele>1693.5999755859</ele>
        <time>2016-04-10T06:36:12.000Z</time>
      </trkpt>
      <trkpt lat="45.1756" lon="5.92195">
        <ele>1694.5999755859</ele>
        <time>2016-04-10T06:36:20.000Z</time>
      </trkpt>
      <trkpt lat="45.17554" lon="5.92202">
        <ele>1695.4000244141</ele>
        <time>2016-04-10T06:36:28.000Z</time>
      </trkpt>
      <trkpt lat="45.17553" lon="5.92204">
        <ele>1695.5999755859</ele>
        <time>2016-04-10T06:36:30.000Z</time>
      </trkpt>
      <trkpt lat="45.17549" lon="5.92208">
        <ele>1696</ele>
        <time>2016-04-10T06:36:36.000Z</time>
      </trkpt>
      <trkpt lat="45.17546" lon="5.92216">
        <ele>1696.1999511719</ele>
        <time>2016-04-10T06:36:44.000Z</time>
      </trkpt>
      <trkpt lat="45.17541" lon="5.92231">
        <ele>1696.5999755859</ele>
        <time>2016-04-10T06:36:51.000Z</time>
      </trkpt>
      <trkpt lat="45.1754" lon="5.92233">
        <ele>1696.8000488281</ele>
        <time>2016-04-10T06:36:52.000Z</time>
      </trkpt>
      <trkpt lat="45.17537" lon="5.92246">
        <ele>1697.4000244141</ele>
        <time>2016-04-10T06:36:59.000Z</time>
      </trkpt>
      <trkpt lat="45.17534" lon="5.92254">
        <ele>1697.8000488281</ele>
        <time>2016-04-10T06:37:04.000Z</time>
      </trkpt>
      <trkpt lat="45.17534" lon="5.92256">
        <ele>1698</ele>
        <time>2016-04-10T06:37:06.000Z</time>
      </trkpt>
      <trkpt lat="45.17531" lon="5.92263">
        <ele>1698.8000488281</ele>
        <time>2016-04-10T06:37:12.000Z</time>
      </trkpt>
      <trkpt lat="45.17531" lon="5.92265">
        <ele>1698.8000488281</ele>
        <time>2016-04-10T06:37:13.000Z</time>
      </trkpt>
      <trkpt lat="45.1753" lon="5.92266">
        <ele>1699</ele>
        <time>2016-04-10T06:37:20.000Z</time>
      </trkpt>
      <trkpt lat="45.1753" lon="5.92268">
        <ele>1699.4000244141</ele>
        <time>2016-04-10T06:37:26.000Z</time>
      </trkpt>
      <trkpt lat="45.17527" lon="5.92277">
        <ele>1699</ele>
        <time>2016-04-10T06:37:32.000Z</time>
      </trkpt>
      <trkpt lat="45.17523" lon="5.92288">
        <ele>1699.1999511719</ele>
        <time>2016-04-10T06:37:38.000Z</time>
      </trkpt>
      <trkpt lat="45.17522" lon="5.92296">
        <ele>1698.8000488281</ele>
        <time>2016-04-10T06:37:43.000Z</time>
      </trkpt>
      <trkpt lat="45.17523" lon="5.923">
        <ele>1699</ele>
        <time>2016-04-10T06:37:45.000Z</time>
      </trkpt>
      <trkpt lat="45.17525" lon="5.92308">
        <ele>1699</ele>
        <time>2016-04-10T06:37:50.000Z</time>
      </trkpt>
      <trkpt lat="45.17529" lon="5.92318">
        <ele>1699</ele>
        <time>2016-04-10T06:37:58.000Z</time>
      </trkpt>
      <trkpt lat="45.17533" lon="5.92328">
        <ele>1699.5999755859</ele>
        <time>2016-04-10T06:38:05.000Z</time>
      </trkpt>
      <trkpt lat="45.17536" lon="5.92337">
        <ele>1699.5999755859</ele>
        <time>2016-04-10T06:38:10.000Z</time>
      </trkpt>
      <trkpt lat="45.1754" lon="5.92346">
        <ele>1699.5999755859</ele>
        <time>2016-04-10T06:38:16.000Z</time>
      </trkpt>
      <trkpt lat="45.17539" lon="5.92355">
        <ele>1699.1999511719</ele>
        <time>2016-04-10T06:38:23.000Z</time>
      </trkpt>
      <trkpt lat="45.17539" lon="5.92356">
        <ele>1699.1999511719</ele>
        <time>2016-04-10T06:38:32.000Z</time>
      </trkpt>
      <trkpt lat="45.17536" lon="5.92361">
        <ele>1699.1999511719</ele>
        <time>2016-04-10T06:38:41.000Z</time>
      </trkpt>
      <trkpt lat="45.17532" lon="5.92364">
        <ele>1699.4000244141</ele>
        <time>2016-04-10T06:38:49.000Z</time>
      </trkpt>
      <trkpt lat="45.17529" lon="5.92366">
        <ele>1699.5999755859</ele>
        <time>2016-04-10T06:38:54.000Z</time>
      </trkpt>
      <trkpt lat="45.17524" lon="5.92368">
        <ele>1699.8000488281</ele>
        <time>2016-04-10T06:39:00.000Z</time>
      </trkpt>
      <trkpt lat="45.17523" lon="5.92369">
        <ele>1699.8000488281</ele>
        <time>2016-04-10T06:39:01.000Z</time>
      </trkpt>
      <trkpt lat="45.17517" lon="5.92375">
        <ele>1700.4000244141</ele>
        <time>2016-04-10T06:39:08.000Z</time>
      </trkpt>
      <trkpt lat="45.1751" lon="5.92378">
        <ele>1700.8000488281</ele>
        <time>2016-04-10T06:39:17.000Z</time>
      </trkpt>
      <trkpt lat="45.17509" lon="5.92378">
        <ele>1701</ele>
        <time>2016-04-10T06:39:20.000Z</time>
      </trkpt>
      <trkpt lat="45.17505" lon="5.92381">
        <ele>1701.1999511719</ele>
        <time>2016-04-10T06:39:23.000Z</time>
      </trkpt>
      <trkpt lat="45.17499" lon="5.92386">
        <ele>1702</ele>
        <time>2016-04-10T06:39:29.000Z</time>
      </trkpt>
      <trkpt lat="45.17498" lon="5.92387">
        <ele>1702</ele>
        <time>2016-04-10T06:39:30.000Z</time>
      </trkpt>
      <trkpt lat="45.17492" lon="5.92391">
        <ele>1702.5999755859</ele>
        <time>2016-04-10T06:39:37.000Z</time>
      </trkpt>
      <trkpt lat="45.17491" lon="5.92393">
        <ele>1703</ele>
        <time>2016-04-10T06:39:39.000Z</time>
      </trkpt>
      <trkpt lat="45.17488" lon="5.92399">
        <ele>1703.4000244141</ele>
        <time>2016-04-10T06:39:44.000Z</time>
      </trkpt>
      <trkpt lat="45.17484" lon="5.92409">
        <ele>1703.8000488281</ele>
        <time>2016-04-10T06:39:50.000Z</time>
      </trkpt>
      <trkpt lat="45.17483" lon="5.92412">
        <ele>1704</ele>
        <time>2016-04-10T06:39:52.000Z</time>
      </trkpt>
      <trkpt lat="45.17479" lon="5.92415">
        <ele>1704.8000488281</ele>
        <time>2016-04-10T06:39:57.000Z</time>
      </trkpt>
      <trkpt lat="45.17478" lon="5.92417">
        <ele>1705.1999511719</ele>
        <time>2016-04-10T06:39:59.000Z</time>
      </trkpt>
      <trkpt lat="45.17476" lon="5.92418">
        <ele>1706.1999511719</ele>
        <time>2016-04-10T06:40:03.000Z</time>
      </trkpt>
      <trkpt lat="45.17476" lon="5.92418">
        <ele>1706.4000244141</ele>
        <time>2016-04-10T06:40:04.000Z</time>
      </trkpt>
      <trkpt lat="45.17475" lon="5.92418">
        <ele>1707.5999755859</ele>
        <time>2016-04-10T06:40:08.000Z</time>
      </trkpt>
      <trkpt lat="45.17471" lon="5.92419">
        <ele>1708.4000244141</ele>
        <time>2016-04-10T06:40:10.000Z</time>
      </trkpt>
      <trkpt lat="45.17472" lon="5.92419">
        <ele>1708.8000488281</ele>
        <time>2016-04-10T06:40:12.000Z</time>
      </trkpt>
      <trkpt lat="45.17472" lon="5.92419">
        <ele>1709.5999755859</ele>
        <time>2016-04-10T06:40:15.000Z</time>
      </trkpt>
      <trkpt lat="45.17471" lon="5.9242">
        <ele>1709.8000488281</ele>
        <time>2016-04-10T06:40:17.000Z</time>
      </trkpt>
      <trkpt lat="45.17469" lon="5.92421">
        <ele>1710</ele>
        <time>2016-04-10T06:40:19.000Z</time>
      </trkpt>
      <trkpt lat="45.17467" lon="5.92422">
        <ele>1710.1999511719</ele>
        <time>2016-04-10T06:40:20.000Z</time>
      </trkpt>
      <trkpt lat="45.17465" lon="5.92422">
        <ele>1710.1999511719</ele>
        <time>2016-04-10T06:40:21.000Z</time>
      </trkpt>
      <trkpt lat="45.17458" lon="5.92426">
        <ele>1710.1999511719</ele>
        <time>2016-04-10T06:40:26.000Z</time>
      </trkpt>
      <trkpt lat="45.17452" lon="5.92431">
        <ele>1709.5999755859</ele>
        <time>2016-04-10T06:40:32.000Z</time>
      </trkpt>
      <trkpt lat="45.17447" lon="5.92434">
        <ele>1710.5999755859</ele>
        <time>2016-04-10T06:40:39.000Z</time>
      </trkpt>
      <trkpt lat="45.17444" lon="5.92438">
        <ele>1711.1999511719</ele>
        <time>2016-04-10T06:40:42.000Z</time>
      </trkpt>
      <trkpt lat="45.1744" lon="5.92442">
        <ele>1711.8000488281</ele>
        <time>2016-04-10T06:40:46.000Z</time>
      </trkpt>
      <trkpt lat="45.17438" lon="5.92443">
        <ele>1712.1999511719</ele>
        <time>2016-04-10T06:40:48.000Z</time>
      </trkpt>
      <trkpt lat="45.17434" lon="5.92444">
        <ele>1712.8000488281</ele>
        <time>2016-04-10T06:40:51.000Z</time>
      </trkpt>
      <trkpt lat="45.17429" lon="5.92446">
        <ele>1713.1999511719</ele>
        <time>2016-04-10T06:40:54.000Z</time>
      </trkpt>
      <trkpt lat="45.17427" lon="5.92446">
        <ele>1713.4000244141</ele>
        <time>2016-04-10T06:40:57.000Z</time>
      </trkpt>
      <trkpt lat="45.17424" lon="5.92446">
        <ele>1713.4000244141</ele>
        <time>2016-04-10T06:41:03.000Z</time>
      </trkpt>
      <trkpt lat="45.17423" lon="5.92446">
        <ele>1714.4000244141</ele>
        <time>2016-04-10T06:41:06.000Z</time>
      </trkpt>
      <trkpt lat="45.17418" lon="5.92447">
        <ele>1715.1999511719</ele>
        <time>2016-04-10T06:41:09.000Z</time>
      </trkpt>
      <trkpt lat="45.17418" lon="5.92447">
        <ele>1715.5999755859</ele>
        <time>2016-04-10T06:41:11.000Z</time>
      </trkpt>
      <trkpt lat="45.17414" lon="5.92449">
        <ele>1716.4000244141</ele>
        <time>2016-04-10T06:41:14.000Z</time>
      </trkpt>
      <trkpt lat="45.17414" lon="5.92449">
        <ele>1716.5999755859</ele>
        <time>2016-04-10T06:41:15.000Z</time>
      </trkpt>
      <trkpt lat="45.17411" lon="5.92456">
        <ele>1717.5999755859</ele>
        <time>2016-04-10T06:41:20.000Z</time>
      </trkpt>
      <trkpt lat="45.17411" lon="5.92458">
        <ele>1717.8000488281</ele>
        <time>2016-04-10T06:41:21.000Z</time>
      </trkpt>
      <trkpt lat="45.1741" lon="5.9246">
        <ele>1718.8000488281</ele>
        <time>2016-04-10T06:41:25.000Z</time>
      </trkpt>
      <trkpt lat="45.17409" lon="5.92461">
        <ele>1719.1999511719</ele>
        <time>2016-04-10T06:41:26.000Z</time>
      </trkpt>
      <trkpt lat="45.17407" lon="5.92466">
        <ele>1720.4000244141</ele>
        <time>2016-04-10T06:41:30.000Z</time>
      </trkpt>
      <trkpt lat="45.17405" lon="5.92468">
        <ele>1720.5999755859</ele>
        <time>2016-04-10T06:41:31.000Z</time>
      </trkpt>
      <trkpt lat="45.17401" lon="5.92472">
        <ele>1721</ele>
        <time>2016-04-10T06:41:35.000Z</time>
      </trkpt>
      <trkpt lat="45.17399" lon="5.92474">
        <ele>1721.4000244141</ele>
        <time>2016-04-10T06:41:37.000Z</time>
      </trkpt>
      <trkpt lat="45.17395" lon="5.9248">
        <ele>1722.4000244141</ele>
        <time>2016-04-10T06:41:45.000Z</time>
      </trkpt>
      <trkpt lat="45.17395" lon="5.9248">
        <ele>1722.5999755859</ele>
        <time>2016-04-10T06:41:46.000Z</time>
      </trkpt>
      <trkpt lat="45.17392" lon="5.92485">
        <ele>1723.5999755859</ele>
        <time>2016-04-10T06:41:51.000Z</time>
      </trkpt>
      <trkpt lat="45.17392" lon="5.92485">
        <ele>1723.8000488281</ele>
        <time>2016-04-10T06:41:52.000Z</time>
      </trkpt>
      <trkpt lat="45.1739" lon="5.92488">
        <ele>1725</ele>
        <time>2016-04-10T06:41:56.000Z</time>
      </trkpt>
      <trkpt lat="45.17387" lon="5.92493">
        <ele>1726</ele>
        <time>2016-04-10T06:42:01.000Z</time>
      </trkpt>
      <trkpt lat="45.17385" lon="5.92496">
        <ele>1726.4000244141</ele>
        <time>2016-04-10T06:42:03.000Z</time>
      </trkpt>
      <trkpt lat="45.17382" lon="5.92501">
        <ele>1727</ele>
        <time>2016-04-10T06:42:07.000Z</time>
      </trkpt>
      <trkpt lat="45.1738" lon="5.92503">
        <ele>1727.4000244141</ele>
        <time>2016-04-10T06:42:09.000Z</time>
      </trkpt>
      <trkpt lat="45.17379" lon="5.92508">
        <ele>1728.1999511719</ele>
        <time>2016-04-10T06:42:15.000Z</time>
      </trkpt>
      <trkpt lat="45.17378" lon="5.9251">
        <ele>1728.4000244141</ele>
        <time>2016-04-10T06:42:16.000Z</time>
      </trkpt>
      <trkpt lat="45.17377" lon="5.92514">
        <ele>1729.4000244141</ele>
        <time>2016-04-10T06:42:19.000Z</time>
      </trkpt>
      <trkpt lat="45.17376" lon="5.92515">
        <ele>1729.8000488281</ele>
        <time>2016-04-10T06:42:21.000Z</time>
      </trkpt>
      <trkpt lat="45.17375" lon="5.92522">
        <ele>1730.4000244141</ele>
        <time>2016-04-10T06:42:27.000Z</time>
      </trkpt>
      <trkpt lat="45.17373" lon="5.92528">
        <ele>1731.4000244141</ele>
        <time>2016-04-10T06:42:33.000Z</time>
      </trkpt>
      <trkpt lat="45.17371" lon="5.92534">
        <ele>1732.5999755859</ele>
        <time>2016-04-10T06:42:38.000Z</time>
      </trkpt>
      <trkpt lat="45.17371" lon="5.92534">
        <ele>1732.8000488281</ele>
        <time>2016-04-10T06:42:39.000Z</time>
      </trkpt>
      <trkpt lat="45.1737" lon="5.92542">
        <ele>1733.8000488281</ele>
        <time>2016-04-10T06:42:44.000Z</time>
      </trkpt>
      <trkpt lat="45.17369" lon="5.92544">
        <ele>1733.8000488281</ele>
        <time>2016-04-10T06:42:45.000Z</time>
      </trkpt>
      <trkpt lat="45.17368" lon="5.9255">
        <ele>1734.1999511719</ele>
        <time>2016-04-10T06:42:51.000Z</time>
      </trkpt>
      <trkpt lat="45.17365" lon="5.92555">
        <ele>1734.8000488281</ele>
        <time>2016-04-10T06:42:56.000Z</time>
      </trkpt>
      <trkpt lat="45.17363" lon="5.92557">
        <ele>1735</ele>
        <time>2016-04-10T06:42:58.000Z</time>
      </trkpt>
      <trkpt lat="45.17363" lon="5.92559">
        <ele>1735.1999511719</ele>
        <time>2016-04-10T06:42:59.000Z</time>
      </trkpt>
      <trkpt lat="45.1736" lon="5.92565">
        <ele>1735.8000488281</ele>
        <time>2016-04-10T06:43:04.000Z</time>
      </trkpt>
      <trkpt lat="45.1736" lon="5.92565">
        <ele>1736.1999511719</ele>
        <time>2016-04-10T06:43:05.000Z</time>
      </trkpt>
      <trkpt lat="45.17357" lon="5.92569">
        <ele>1737.1999511719</ele>
        <time>2016-04-10T06:43:09.000Z</time>
      </trkpt>
      <trkpt lat="45.17356" lon="5.92569">
        <ele>1737.5999755859</ele>
        <time>2016-04-10T06:43:10.000Z</time>
      </trkpt>
      <trkpt lat="45.17353" lon="5.9257">
        <ele>1738.1999511719</ele>
        <time>2016-04-10T06:43:13.000Z</time>
      </trkpt>
      <trkpt lat="45.17352" lon="5.92571">
        <ele>1738.4000244141</ele>
        <time>2016-04-10T06:43:14.000Z</time>
      </trkpt>
      <trkpt lat="45.1735" lon="5.9257">
        <ele>1739</ele>
        <time>2016-04-10T06:43:16.000Z</time>
      </trkpt>
      <trkpt lat="45.17348" lon="5.9257">
        <ele>1739.5999755859</ele>
        <time>2016-04-10T06:43:19.000Z</time>
      </trkpt>
      <trkpt lat="45.17346" lon="5.92568">
        <ele>1740</ele>
        <time>2016-04-10T06:43:21.000Z</time>
      </trkpt>
      <trkpt lat="45.17343" lon="5.92566">
        <ele>1740.5999755859</ele>
        <time>2016-04-10T06:43:24.000Z</time>
      </trkpt>
      <trkpt lat="45.17343" lon="5.92566">
        <ele>1740.8000488281</ele>
        <time>2016-04-10T06:43:26.000Z</time>
      </trkpt>
      <trkpt lat="45.17339" lon="5.92562">
        <ele>1742</ele>
        <time>2016-04-10T06:43:32.000Z</time>
      </trkpt>
      <trkpt lat="45.17338" lon="5.9256">
        <ele>1742.4000244141</ele>
        <time>2016-04-10T06:43:33.000Z</time>
      </trkpt>
      <trkpt lat="45.17336" lon="5.92559">
        <ele>1742.5999755859</ele>
        <time>2016-04-10T06:43:34.000Z</time>
      </trkpt>
      <trkpt lat="45.17334" lon="5.92557">
        <ele>1743.1999511719</ele>
        <time>2016-04-10T06:43:37.000Z</time>
      </trkpt>
      <trkpt lat="45.17332" lon="5.92556">
        <ele>1743.4000244141</ele>
        <time>2016-04-10T06:43:39.000Z</time>
      </trkpt>
      <trkpt lat="45.17331" lon="5.92556">
        <ele>1743.4000244141</ele>
        <time>2016-04-10T06:43:40.000Z</time>
      </trkpt>
      <trkpt lat="45.17327" lon="5.92558">
        <ele>1744.1999511719</ele>
        <time>2016-04-10T06:43:44.000Z</time>
      </trkpt>
      <trkpt lat="45.17327" lon="5.92559">
        <ele>1744.4000244141</ele>
        <time>2016-04-10T06:43:45.000Z</time>
      </trkpt>
      <trkpt lat="45.17326" lon="5.92563">
        <ele>1745.4000244141</ele>
        <time>2016-04-10T06:43:49.000Z</time>
      </trkpt>
      <trkpt lat="45.17326" lon="5.92565">
        <ele>1745.5999755859</ele>
        <time>2016-04-10T06:43:50.000Z</time>
      </trkpt>
      <trkpt lat="45.17324" lon="5.92571">
        <ele>1746.4000244141</ele>
        <time>2016-04-10T06:43:53.000Z</time>
      </trkpt>
      <trkpt lat="45.17323" lon="5.92572">
        <ele>1746.4000244141</ele>
        <time>2016-04-10T06:43:54.000Z</time>
      </trkpt>
      <trkpt lat="45.17322" lon="5.92574">
        <ele>1747</ele>
        <time>2016-04-10T06:43:56.000Z</time>
      </trkpt>
      <trkpt lat="45.17321" lon="5.92575">
        <ele>1747.5999755859</ele>
        <time>2016-04-10T06:43:58.000Z</time>
      </trkpt>
      <trkpt lat="45.1732" lon="5.92578">
        <ele>1748</ele>
        <time>2016-04-10T06:44:01.000Z</time>
      </trkpt>
      <trkpt lat="45.17319" lon="5.92584">
        <ele>1748.5999755859</ele>
        <time>2016-04-10T06:44:06.000Z</time>
      </trkpt>
      <trkpt lat="45.17318" lon="5.92586">
        <ele>1748.8000488281</ele>
        <time>2016-04-10T06:44:08.000Z</time>
      </trkpt>
      <trkpt lat="45.17316" lon="5.92592">
        <ele>1749.8000488281</ele>
        <time>2016-04-10T06:44:13.000Z</time>
      </trkpt>
      <trkpt lat="45.17316" lon="5.92595">
        <ele>1750.1999511719</ele>
        <time>2016-04-10T06:44:15.000Z</time>
      </trkpt>
      <trkpt lat="45.17316" lon="5.92598">
        <ele>1751</ele>
        <time>2016-04-10T06:44:19.000Z</time>
      </trkpt>
      <trkpt lat="45.17315" lon="5.92602">
        <ele>1751.8000488281</ele>
        <time>2016-04-10T06:44:22.000Z</time>
      </trkpt>
      <trkpt lat="45.17315" lon="5.92605">
        <ele>1752</ele>
        <time>2016-04-10T06:44:24.000Z</time>
      </trkpt>
      <trkpt lat="45.17312" lon="5.92612">
        <ele>1752.8000488281</ele>
        <time>2016-04-10T06:44:29.000Z</time>
      </trkpt>
      <trkpt lat="45.17312" lon="5.92614">
        <ele>1753.1999511719</ele>
        <time>2016-04-10T06:44:31.000Z</time>
      </trkpt>
      <trkpt lat="45.17309" lon="5.92619">
        <ele>1754</ele>
        <time>2016-04-10T06:44:37.000Z</time>
      </trkpt>
      <trkpt lat="45.17309" lon="5.92624">
        <ele>1754.1999511719</ele>
        <time>2016-04-10T06:44:39.000Z</time>
      </trkpt>
      <trkpt lat="45.17307" lon="5.92627">
        <ele>1754.5999755859</ele>
        <time>2016-04-10T06:44:42.000Z</time>
      </trkpt>
      <trkpt lat="45.17306" lon="5.92631">
        <ele>1755.1999511719</ele>
        <time>2016-04-10T06:44:45.000Z</time>
      </trkpt>
      <trkpt lat="45.17306" lon="5.92637">
        <ele>1755.8000488281</ele>
        <time>2016-04-10T06:44:49.000Z</time>
      </trkpt>
      <trkpt lat="45.17305" lon="5.92643">
        <ele>1756.4000244141</ele>
        <time>2016-04-10T06:44:55.000Z</time>
      </trkpt>
      <trkpt lat="45.17304" lon="5.92647">
        <ele>1757.5999755859</ele>
        <time>2016-04-10T06:44:59.000Z</time>
      </trkpt>
      <trkpt lat="45.17303" lon="5.92649">
        <ele>1757.8000488281</ele>
        <time>2016-04-10T06:45:01.000Z</time>
      </trkpt>
      <trkpt lat="45.17298" lon="5.92653">
        <ele>1758.5999755859</ele>
        <time>2016-04-10T06:45:07.000Z</time>
      </trkpt>
      <trkpt lat="45.17295" lon="5.92655">
        <ele>1759.5999755859</ele>
        <time>2016-04-10T06:45:11.000Z</time>
      </trkpt>
      <trkpt lat="45.17294" lon="5.92655">
        <ele>1760</ele>
        <time>2016-04-10T06:45:14.000Z</time>
      </trkpt>
      <trkpt lat="45.17294" lon="5.92656">
        <ele>1760.5999755859</ele>
        <time>2016-04-10T06:45:18.000Z</time>
      </trkpt>
      <trkpt lat="45.17292" lon="5.92658">
        <ele>1761.4000244141</ele>
        <time>2016-04-10T06:45:22.000Z</time>
      </trkpt>
      <trkpt lat="45.17289" lon="5.9266">
        <ele>1761.8000488281</ele>
        <time>2016-04-10T06:45:25.000Z</time>
      </trkpt>
      <trkpt lat="45.17288" lon="5.9266">
        <ele>1762</ele>
        <time>2016-04-10T06:45:26.000Z</time>
      </trkpt>
      <trkpt lat="45.17287" lon="5.9266">
        <ele>1762.1999511719</ele>
        <time>2016-04-10T06:45:27.000Z</time>
      </trkpt>
      <trkpt lat="45.17285" lon="5.92661">
        <ele>1762.8000488281</ele>
        <time>2016-04-10T06:45:31.000Z</time>
      </trkpt>
      <trkpt lat="45.17282" lon="5.92661">
        <ele>1763.1999511719</ele>
        <time>2016-04-10T06:45:33.000Z</time>
      </trkpt>
      <trkpt lat="45.17279" lon="5.92661">
        <ele>1764</ele>
        <time>2016-04-10T06:45:36.000Z</time>
      </trkpt>
      <trkpt lat="45.17278" lon="5.92663">
        <ele>1764.8000488281</ele>
        <time>2016-04-10T06:45:39.000Z</time>
      </trkpt>
      <trkpt lat="45.17277" lon="5.92664">
        <ele>1765</ele>
        <time>2016-04-10T06:45:40.000Z</time>
      </trkpt>
      <trkpt lat="45.17273" lon="5.92665">
        <ele>1766</ele>
        <time>2016-04-10T06:45:44.000Z</time>
      </trkpt>
      <trkpt lat="45.17273" lon="5.92665">
        <ele>1766.1999511719</ele>
        <time>2016-04-10T06:45:45.000Z</time>
      </trkpt>
      <trkpt lat="45.17269" lon="5.92667">
        <ele>1767</ele>
        <time>2016-04-10T06:45:50.000Z</time>
      </trkpt>
      <trkpt lat="45.17267" lon="5.92667">
        <ele>1767.5999755859</ele>
        <time>2016-04-10T06:45:52.000Z</time>
      </trkpt>
      <trkpt lat="45.17265" lon="5.92668">
        <ele>1768.1999511719</ele>
        <time>2016-04-10T06:45:54.000Z</time>
      </trkpt>
      <trkpt lat="45.17263" lon="5.92669">
        <ele>1769.4000244141</ele>
        <time>2016-04-10T06:45:58.000Z</time>
      </trkpt>
      <trkpt lat="45.17258" lon="5.92669">
        <ele>1770.5999755859</ele>
        <time>2016-04-10T06:46:03.000Z</time>
      </trkpt>
      <trkpt lat="45.17256" lon="5.92669">
        <ele>1771.1999511719</ele>
        <time>2016-04-10T06:46:05.000Z</time>
      </trkpt>
      <trkpt lat="45.17257" lon="5.92673">
        <ele>1771.8000488281</ele>
        <time>2016-04-10T06:46:08.000Z</time>
      </trkpt>
      <trkpt lat="45.17258" lon="5.92676">
        <ele>1772.4000244141</ele>
        <time>2016-04-10T06:46:11.000Z</time>
      </trkpt>
      <trkpt lat="45.17258" lon="5.92679">
        <ele>1773</ele>
        <time>2016-04-10T06:46:13.000Z</time>
      </trkpt>
      <trkpt lat="45.17261" lon="5.92681">
        <ele>1774.1999511719</ele>
        <time>2016-04-10T06:46:17.000Z</time>
      </trkpt>
      <trkpt lat="45.17261" lon="5.92681">
        <ele>1774.4000244141</ele>
        <time>2016-04-10T06:46:18.000Z</time>
      </trkpt>
      <trkpt lat="45.17264" lon="5.92685">
        <ele>1775.1999511719</ele>
        <time>2016-04-10T06:46:23.000Z</time>
      </trkpt>
      <trkpt lat="45.17267" lon="5.92689">
        <ele>1776.1999511719</ele>
        <time>2016-04-10T06:46:28.000Z</time>
      </trkpt>
      <trkpt lat="45.17268" lon="5.92689">
        <ele>1776.4000244141</ele>
        <time>2016-04-10T06:46:29.000Z</time>
      </trkpt>
      <trkpt lat="45.17272" lon="5.92693">
        <ele>1777</ele>
        <time>2016-04-10T06:46:34.000Z</time>
      </trkpt>
      <trkpt lat="45.17274" lon="5.92695">
        <ele>1777.4000244141</ele>
        <time>2016-04-10T06:46:37.000Z</time>
      </trkpt>
      <trkpt lat="45.17276" lon="5.92697">
        <ele>1777.8000488281</ele>
        <time>2016-04-10T06:46:40.000Z</time>
      </trkpt>
      <trkpt lat="45.1728" lon="5.927">
        <ele>1778.5999755859</ele>
        <time>2016-04-10T06:46:45.000Z</time>
      </trkpt>
      <trkpt lat="45.17281" lon="5.92701">
        <ele>1778.8000488281</ele>
        <time>2016-04-10T06:46:47.000Z</time>
      </trkpt>
      <trkpt lat="45.17285" lon="5.92704">
        <ele>1779.5999755859</ele>
        <time>2016-04-10T06:46:53.000Z</time>
      </trkpt>
      <trkpt lat="45.17286" lon="5.92704">
        <ele>1779.8000488281</ele>
        <time>2016-04-10T06:46:54.000Z</time>
      </trkpt>
      <trkpt lat="45.1729" lon="5.92706">
        <ele>1780.8000488281</ele>
        <time>2016-04-10T06:47:00.000Z</time>
      </trkpt>
      <trkpt lat="45.17293" lon="5.92706">
        <ele>1781.4000244141</ele>
        <time>2016-04-10T06:47:03.000Z</time>
      </trkpt>
      <trkpt lat="45.17299" lon="5.92707">
        <ele>1781.8000488281</ele>
        <time>2016-04-10T06:47:09.000Z</time>
      </trkpt>
      <trkpt lat="45.173" lon="5.92708">
        <ele>1781.8000488281</ele>
        <time>2016-04-10T06:47:10.000Z</time>
      </trkpt>
      <trkpt lat="45.17304" lon="5.92709">
        <ele>1782.5999755859</ele>
        <time>2016-04-10T06:47:15.000Z</time>
      </trkpt>
      <trkpt lat="45.17306" lon="5.9271">
        <ele>1782.8000488281</ele>
        <time>2016-04-10T06:47:17.000Z</time>
      </trkpt>
      <trkpt lat="45.17309" lon="5.92712">
        <ele>1783.8000488281</ele>
        <time>2016-04-10T06:47:21.000Z</time>
      </trkpt>
      <trkpt lat="45.17309" lon="5.92712">
        <ele>1784</ele>
        <time>2016-04-10T06:47:22.000Z</time>
      </trkpt>
      <trkpt lat="45.17313" lon="5.92711">
        <ele>1784.8000488281</ele>
        <time>2016-04-10T06:47:27.000Z</time>
      </trkpt>
      <trkpt lat="45.17314" lon="5.92711">
        <ele>1785</ele>
        <time>2016-04-10T06:47:29.000Z</time>
      </trkpt>
      <trkpt lat="45.17315" lon="5.92713">
        <ele>1786</ele>
        <time>2016-04-10T06:47:32.000Z</time>
      </trkpt>
      <trkpt lat="45.17315" lon="5.92715">
        <ele>1786.5999755859</ele>
        <time>2016-04-10T06:47:34.000Z</time>
      </trkpt>
      <trkpt lat="45.17316" lon="5.9272">
        <ele>1787.1999511719</ele>
        <time>2016-04-10T06:47:39.000Z</time>
      </trkpt>
      <trkpt lat="45.17317" lon="5.92726">
        <ele>1788.1999511719</ele>
        <time>2016-04-10T06:47:44.000Z</time>
      </trkpt>
      <trkpt lat="45.17317" lon="5.92727">
        <ele>1788.4000244141</ele>
        <time>2016-04-10T06:47:45.000Z</time>
      </trkpt>
      <trkpt lat="45.17317" lon="5.92732">
        <ele>1789</ele>
        <time>2016-04-10T06:47:49.000Z</time>
      </trkpt>
      <trkpt lat="45.17317" lon="5.92737">
        <ele>1789.4000244141</ele>
        <time>2016-04-10T06:47:53.000Z</time>
      </trkpt>
      <trkpt lat="45.17317" lon="5.92738">
        <ele>1789.4000244141</ele>
        <time>2016-04-10T06:47:54.000Z</time>
      </trkpt>
      <trkpt lat="45.17317" lon="5.92746">
        <ele>1790.1999511719</ele>
        <time>2016-04-10T06:48:01.000Z</time>
      </trkpt>
      <trkpt lat="45.17316" lon="5.92748">
        <ele>1790.5999755859</ele>
        <time>2016-04-10T06:48:04.000Z</time>
      </trkpt>
      <trkpt lat="45.17315" lon="5.9275">
        <ele>1791</ele>
        <time>2016-04-10T06:48:06.000Z</time>
      </trkpt>
      <trkpt lat="45.17314" lon="5.92754">
        <ele>1791.5999755859</ele>
        <time>2016-04-10T06:48:09.000Z</time>
      </trkpt>
      <trkpt lat="45.17314" lon="5.92757">
        <ele>1791.8000488281</ele>
        <time>2016-04-10T06:48:11.000Z</time>
      </trkpt>
      <trkpt lat="45.17315" lon="5.92764">
        <ele>1792.8000488281</ele>
        <time>2016-04-10T06:48:16.000Z</time>
      </trkpt>
      <trkpt lat="45.17315" lon="5.92766">
        <ele>1792.8000488281</ele>
        <time>2016-04-10T06:48:17.000Z</time>
      </trkpt>
      <trkpt lat="45.17317" lon="5.92772">
        <ele>1793.4000244141</ele>
        <time>2016-04-10T06:48:21.000Z</time>
      </trkpt>
      <trkpt lat="45.17317" lon="5.92781">
        <ele>1793.8000488281</ele>
        <time>2016-04-10T06:48:27.000Z</time>
      </trkpt>
      <trkpt lat="45.17317" lon="5.92782">
        <ele>1793.8000488281</ele>
        <time>2016-04-10T06:48:28.000Z</time>
      </trkpt>
      <trkpt lat="45.17318" lon="5.92788">
        <ele>1794</ele>
        <time>2016-04-10T06:48:32.000Z</time>
      </trkpt>
      <trkpt lat="45.17319" lon="5.92791">
        <ele>1794.1999511719</ele>
        <time>2016-04-10T06:48:34.000Z</time>
      </trkpt>
      <trkpt lat="45.1732" lon="5.92797">
        <ele>1794.8000488281</ele>
        <time>2016-04-10T06:48:38.000Z</time>
      </trkpt>
      <trkpt lat="45.1732" lon="5.92798">
        <ele>1794.8000488281</ele>
        <time>2016-04-10T06:48:39.000Z</time>
      </trkpt>
      <trkpt lat="45.17322" lon="5.92803">
        <ele>1795.4000244141</ele>
        <time>2016-04-10T06:48:43.000Z</time>
      </trkpt>
      <trkpt lat="45.17324" lon="5.92808">
        <ele>1795.8000488281</ele>
        <time>2016-04-10T06:48:47.000Z</time>
      </trkpt>
      <trkpt lat="45.17324" lon="5.92809">
        <ele>1796</ele>
        <time>2016-04-10T06:48:48.000Z</time>
      </trkpt>
      <trkpt lat="45.17325" lon="5.92812">
        <ele>1797</ele>
        <time>2016-04-10T06:48:54.000Z</time>
      </trkpt>
      <trkpt lat="45.17325" lon="5.92813">
        <ele>1797.1999511719</ele>
        <time>2016-04-10T06:48:55.000Z</time>
      </trkpt>
      <trkpt lat="45.17327" lon="5.92817">
        <ele>1798</ele>
        <time>2016-04-10T06:48:59.000Z</time>
      </trkpt>
      <trkpt lat="45.17327" lon="5.92818">
        <ele>1798</ele>
        <time>2016-04-10T06:49:00.000Z</time>
      </trkpt>
      <trkpt lat="45.17328" lon="5.92822">
        <ele>1799</ele>
        <time>2016-04-10T06:49:05.000Z</time>
      </trkpt>
      <trkpt lat="45.17329" lon="5.92823">
        <ele>1799.1999511719</ele>
        <time>2016-04-10T06:49:06.000Z</time>
      </trkpt>
      <trkpt lat="45.1733" lon="5.92825">
        <ele>1800</ele>
        <time>2016-04-10T06:49:09.000Z</time>
      </trkpt>
      <trkpt lat="45.17331" lon="5.92825">
        <ele>1800.4000244141</ele>
        <time>2016-04-10T06:49:11.000Z</time>
      </trkpt>
      <trkpt lat="45.17333" lon="5.92826">
        <ele>1801</ele>
        <time>2016-04-10T06:49:14.000Z</time>
      </trkpt>
      <trkpt lat="45.17335" lon="5.92829">
        <ele>1801.4000244141</ele>
        <time>2016-04-10T06:49:17.000Z</time>
      </trkpt>
      <trkpt lat="45.17338" lon="5.92832">
        <ele>1802</ele>
        <time>2016-04-10T06:49:22.000Z</time>
      </trkpt>
      <trkpt lat="45.17339" lon="5.92833">
        <ele>1802.1999511719</ele>
        <time>2016-04-10T06:49:23.000Z</time>
      </trkpt>
      <trkpt lat="45.17341" lon="5.92835">
        <ele>1802.8000488281</ele>
        <time>2016-04-10T06:49:27.000Z</time>
      </trkpt>
      <trkpt lat="45.17343" lon="5.92838">
        <ele>1803.1999511719</ele>
        <time>2016-04-10T06:49:30.000Z</time>
      </trkpt>
      <trkpt lat="45.17344" lon="5.9284">
        <ele>1804</ele>
        <time>2016-04-10T06:49:33.000Z</time>
      </trkpt>
      <trkpt lat="45.17346" lon="5.92842">
        <ele>1804.1999511719</ele>
        <time>2016-04-10T06:49:35.000Z</time>
      </trkpt>
      <trkpt lat="45.17348" lon="5.92846">
        <ele>1805.1999511719</ele>
        <time>2016-04-10T06:49:39.000Z</time>
      </trkpt>
      <trkpt lat="45.17348" lon="5.92846">
        <ele>1805.5999755859</ele>
        <time>2016-04-10T06:49:40.000Z</time>
      </trkpt>
      <trkpt lat="45.1735" lon="5.92849">
        <ele>1806.5999755859</ele>
        <time>2016-04-10T06:49:44.000Z</time>
      </trkpt>
      <trkpt lat="45.17353" lon="5.9285">
        <ele>1807</ele>
        <time>2016-04-10T06:49:46.000Z</time>
      </trkpt>
      <trkpt lat="45.17359" lon="5.92854">
        <ele>1807.8000488281</ele>
        <time>2016-04-10T06:49:52.000Z</time>
      </trkpt>
      <trkpt lat="45.1736" lon="5.92855">
        <ele>1807.8000488281</ele>
        <time>2016-04-10T06:49:54.000Z</time>
      </trkpt>
      <trkpt lat="45.17363" lon="5.92856">
        <ele>1808.8000488281</ele>
        <time>2016-04-10T06:49:58.000Z</time>
      </trkpt>
      <trkpt lat="45.17366" lon="5.92857">
        <ele>1809.4000244141</ele>
        <time>2016-04-10T06:50:01.000Z</time>
      </trkpt>
      <trkpt lat="45.17368" lon="5.9286">
        <ele>1809.8000488281</ele>
        <time>2016-04-10T06:50:03.000Z</time>
      </trkpt>
      <trkpt lat="45.17369" lon="5.92861">
        <ele>1810</ele>
        <time>2016-04-10T06:50:06.000Z</time>
      </trkpt>
      <trkpt lat="45.1737" lon="5.92864">
        <ele>1810.8000488281</ele>
        <time>2016-04-10T06:50:10.000Z</time>
      </trkpt>
      <trkpt lat="45.1737" lon="5.92865">
        <ele>1811.1999511719</ele>
        <time>2016-04-10T06:50:11.000Z</time>
      </trkpt>
      <trkpt lat="45.17372" lon="5.92868">
        <ele>1812</ele>
        <time>2016-04-10T06:50:14.000Z</time>
      </trkpt>
      <trkpt lat="45.17373" lon="5.92871">
        <ele>1812.8000488281</ele>
        <time>2016-04-10T06:50:17.000Z</time>
      </trkpt>
      <trkpt lat="45.17373" lon="5.92873">
        <ele>1813</ele>
        <time>2016-04-10T06:50:18.000Z</time>
      </trkpt>
      <trkpt lat="45.17373" lon="5.92878">
        <ele>1813.8000488281</ele>
        <time>2016-04-10T06:50:22.000Z</time>
      </trkpt>
      <trkpt lat="45.17375" lon="5.9288">
        <ele>1814.1999511719</ele>
        <time>2016-04-10T06:50:24.000Z</time>
      </trkpt>
      <trkpt lat="45.17375" lon="5.92884">
        <ele>1815.4000244141</ele>
        <time>2016-04-10T06:50:28.000Z</time>
      </trkpt>
      <trkpt lat="45.17375" lon="5.92889">
        <ele>1816</ele>
        <time>2016-04-10T06:50:32.000Z</time>
      </trkpt>
      <trkpt lat="45.17376" lon="5.92891">
        <ele>1816.1999511719</ele>
        <time>2016-04-10T06:50:33.000Z</time>
      </trkpt>
      <trkpt lat="45.17376" lon="5.92892">
        <ele>1816.5999755859</ele>
        <time>2016-04-10T06:50:34.000Z</time>
      </trkpt>
      <trkpt lat="45.17379" lon="5.92895">
        <ele>1817.1999511719</ele>
        <time>2016-04-10T06:50:39.000Z</time>
      </trkpt>
      <trkpt lat="45.17381" lon="5.92895">
        <ele>1817.5999755859</ele>
        <time>2016-04-10T06:50:41.000Z</time>
      </trkpt>
      <trkpt lat="45.17382" lon="5.92897">
        <ele>1818.4000244141</ele>
        <time>2016-04-10T06:50:44.000Z</time>
      </trkpt>
      <trkpt lat="45.17383" lon="5.92898">
        <ele>1818.8000488281</ele>
        <time>2016-04-10T06:50:45.000Z</time>
      </trkpt>
      <trkpt lat="45.17384" lon="5.92902">
        <ele>1819.8000488281</ele>
        <time>2016-04-10T06:50:49.000Z</time>
      </trkpt>
      <trkpt lat="45.17384" lon="5.92903">
        <ele>1820.1999511719</ele>
        <time>2016-04-10T06:50:50.000Z</time>
      </trkpt>
      <trkpt lat="45.17385" lon="5.9291">
        <ele>1821.1999511719</ele>
        <time>2016-04-10T06:50:55.000Z</time>
      </trkpt>
      <trkpt lat="45.17384" lon="5.92911">
        <ele>1821.4000244141</ele>
        <time>2016-04-10T06:50:56.000Z</time>
      </trkpt>
      <trkpt lat="45.17384" lon="5.92916">
        <ele>1822.1999511719</ele>
        <time>2016-04-10T06:51:00.000Z</time>
      </trkpt>
      <trkpt lat="45.17386" lon="5.92921">
        <ele>1822.8000488281</ele>
        <time>2016-04-10T06:51:04.000Z</time>
      </trkpt>
      <trkpt lat="45.17387" lon="5.92923">
        <ele>1823.1999511719</ele>
        <time>2016-04-10T06:51:06.000Z</time>
      </trkpt>
      <trkpt lat="45.17389" lon="5.92927">
        <ele>1824.4000244141</ele>
        <time>2016-04-10T06:51:10.000Z</time>
      </trkpt>
      <trkpt lat="45.17391" lon="5.9293">
        <ele>1825.4000244141</ele>
        <time>2016-04-10T06:51:14.000Z</time>
      </trkpt>
      <trkpt lat="45.17391" lon="5.92931">
        <ele>1825.5999755859</ele>
        <time>2016-04-10T06:51:15.000Z</time>
      </trkpt>
      <trkpt lat="45.17392" lon="5.92936">
        <ele>1826.5999755859</ele>
        <time>2016-04-10T06:51:19.000Z</time>
      </trkpt>
      <trkpt lat="45.17393" lon="5.92937">
        <ele>1827</ele>
        <time>2016-04-10T06:51:21.000Z</time>
      </trkpt>
      <trkpt lat="45.17395" lon="5.92941">
        <ele>1827.5999755859</ele>
        <time>2016-04-10T06:51:25.000Z</time>
      </trkpt>
      <trkpt lat="45.17395" lon="5.92942">
        <ele>1828</ele>
        <time>2016-04-10T06:51:27.000Z</time>
      </trkpt>
      <trkpt lat="45.17396" lon="5.92945">
        <ele>1828.8000488281</ele>
        <time>2016-04-10T06:51:30.000Z</time>
      </trkpt>
      <trkpt lat="45.17396" lon="5.92947">
        <ele>1829.1999511719</ele>
        <time>2016-04-10T06:51:32.000Z</time>
      </trkpt>
      <trkpt lat="45.17397" lon="5.92948">
        <ele>1830</ele>
        <time>2016-04-10T06:51:34.000Z</time>
      </trkpt>
      <trkpt lat="45.17399" lon="5.92949">
        <ele>1830.8000488281</ele>
        <time>2016-04-10T06:51:37.000Z</time>
      </trkpt>
      <trkpt lat="45.174" lon="5.9295">
        <ele>1831.1999511719</ele>
        <time>2016-04-10T06:51:39.000Z</time>
      </trkpt>
      <trkpt lat="45.17403" lon="5.92951">
        <ele>1832.4000244141</ele>
        <time>2016-04-10T06:51:43.000Z</time>
      </trkpt>
      <trkpt lat="45.17403" lon="5.92951">
        <ele>1832.5999755859</ele>
        <time>2016-04-10T06:51:44.000Z</time>
      </trkpt>
      <trkpt lat="45.17404" lon="5.92952">
        <ele>1833.4000244141</ele>
        <time>2016-04-10T06:51:47.000Z</time>
      </trkpt>
      <trkpt lat="45.17405" lon="5.92953">
        <ele>1834.4000244141</ele>
        <time>2016-04-10T06:51:51.000Z</time>
      </trkpt>
      <trkpt lat="45.17405" lon="5.92953">
        <ele>1834.5999755859</ele>
        <time>2016-04-10T06:51:52.000Z</time>
      </trkpt>
      <trkpt lat="45.17407" lon="5.92958">
        <ele>1835.8000488281</ele>
        <time>2016-04-10T06:51:56.000Z</time>
      </trkpt>
      <trkpt lat="45.17407" lon="5.92958">
        <ele>1836.1999511719</ele>
        <time>2016-04-10T06:51:57.000Z</time>
      </trkpt>
      <trkpt lat="45.1741" lon="5.92963">
        <ele>1836.8000488281</ele>
        <time>2016-04-10T06:52:02.000Z</time>
      </trkpt>
      <trkpt lat="45.17412" lon="5.92966">
        <ele>1837.8000488281</ele>
        <time>2016-04-10T06:52:07.000Z</time>
      </trkpt>
      <trkpt lat="45.17412" lon="5.92967">
        <ele>1838.1999511719</ele>
        <time>2016-04-10T06:52:08.000Z</time>
      </trkpt>
      <trkpt lat="45.17413" lon="5.92968">
        <ele>1839</ele>
        <time>2016-04-10T06:52:11.000Z</time>
      </trkpt>
      <trkpt lat="45.17413" lon="5.9297">
        <ele>1839.5999755859</ele>
        <time>2016-04-10T06:52:14.000Z</time>
      </trkpt>
      <trkpt lat="45.17414" lon="5.92972">
        <ele>1840</ele>
        <time>2016-04-10T06:52:16.000Z</time>
      </trkpt>
      <trkpt lat="45.17414" lon="5.92974">
        <ele>1841</ele>
        <time>2016-04-10T06:52:20.000Z</time>
      </trkpt>
      <trkpt lat="45.17415" lon="5.92976">
        <ele>1841.4000244141</ele>
        <time>2016-04-10T06:52:21.000Z</time>
      </trkpt>
      <trkpt lat="45.17415" lon="5.92978">
        <ele>1842.1999511719</ele>
        <time>2016-04-10T06:52:24.000Z</time>
      </trkpt>
      <trkpt lat="45.17415" lon="5.92981">
        <ele>1842.5999755859</ele>
        <time>2016-04-10T06:52:26.000Z</time>
      </trkpt>
      <trkpt lat="45.17416" lon="5.92983">
        <ele>1843.1999511719</ele>
        <time>2016-04-10T06:52:29.000Z</time>
      </trkpt>
      <trkpt lat="45.17417" lon="5.92986">
        <ele>1843.5999755859</ele>
        <time>2016-04-10T06:52:32.000Z</time>
      </trkpt>
      <trkpt lat="45.17418" lon="5.92987">
        <ele>1844</ele>
        <time>2016-04-10T06:52:34.000Z</time>
      </trkpt>
      <trkpt lat="45.17417" lon="5.9299">
        <ele>1844.5999755859</ele>
        <time>2016-04-10T06:52:38.000Z</time>
      </trkpt>
      <trkpt lat="45.17418" lon="5.92992">
        <ele>1845.4000244141</ele>
        <time>2016-04-10T06:52:40.000Z</time>
      </trkpt>
      <trkpt lat="45.17418" lon="5.92994">
        <ele>1845.5999755859</ele>
        <time>2016-04-10T06:52:41.000Z</time>
      </trkpt>
      <trkpt lat="45.17417" lon="5.92999">
        <ele>1846.8000488281</ele>
        <time>2016-04-10T06:52:45.000Z</time>
      </trkpt>
      <trkpt lat="45.17419" lon="5.93006">
        <ele>1847.8000488281</ele>
        <time>2016-04-10T06:52:51.000Z</time>
      </trkpt>
      <trkpt lat="45.17418" lon="5.93008">
        <ele>1848</ele>
        <time>2016-04-10T06:52:52.000Z</time>
      </trkpt>
      <trkpt lat="45.17419" lon="5.93012">
        <ele>1848.5999755859</ele>
        <time>2016-04-10T06:52:55.000Z</time>
      </trkpt>
      <trkpt lat="45.17419" lon="5.93015">
        <ele>1849.1999511719</ele>
        <time>2016-04-10T06:52:57.000Z</time>
      </trkpt>
      <trkpt lat="45.1742" lon="5.9302">
        <ele>1849.5999755859</ele>
        <time>2016-04-10T06:53:00.000Z</time>
      </trkpt>
      <trkpt lat="45.17421" lon="5.93024">
        <ele>1850.1999511719</ele>
        <time>2016-04-10T06:53:03.000Z</time>
      </trkpt>
      <trkpt lat="45.17421" lon="5.93026">
        <ele>1850.4000244141</ele>
        <time>2016-04-10T06:53:05.000Z</time>
      </trkpt>
      <trkpt lat="45.17424" lon="5.93032">
        <ele>1850.8000488281</ele>
        <time>2016-04-10T06:53:10.000Z</time>
      </trkpt>
      <trkpt lat="45.17425" lon="5.93037">
        <ele>1851.1999511719</ele>
        <time>2016-04-10T06:53:13.000Z</time>
      </trkpt>
      <trkpt lat="45.17426" lon="5.93043">
        <ele>1851.5999755859</ele>
        <time>2016-04-10T06:53:17.000Z</time>
      </trkpt>
      <trkpt lat="45.17428" lon="5.93047">
        <ele>1852.4000244141</ele>
        <time>2016-04-10T06:53:22.000Z</time>
      </trkpt>
      <trkpt lat="45.17427" lon="5.93051">
        <ele>1852.8000488281</ele>
        <time>2016-04-10T06:53:25.000Z</time>
      </trkpt>
      <trkpt lat="45.17427" lon="5.93054">
        <ele>1853.4000244141</ele>
        <time>2016-04-10T06:53:28.000Z</time>
      </trkpt>
      <trkpt lat="45.17426" lon="5.93056">
        <ele>1853.8000488281</ele>
        <time>2016-04-10T06:53:30.000Z</time>
      </trkpt>
      <trkpt lat="45.17426" lon="5.9306">
        <ele>1854.4000244141</ele>
        <time>2016-04-10T06:53:33.000Z</time>
      </trkpt>
      <trkpt lat="45.17425" lon="5.93063">
        <ele>1854.8000488281</ele>
        <time>2016-04-10T06:53:36.000Z</time>
      </trkpt>
      <trkpt lat="45.17425" lon="5.93067">
        <ele>1855.5999755859</ele>
        <time>2016-04-10T06:53:42.000Z</time>
      </trkpt>
      <trkpt lat="45.17425" lon="5.93069">
        <ele>1856.5999755859</ele>
        <time>2016-04-10T06:53:47.000Z</time>
      </trkpt>
      <trkpt lat="45.17425" lon="5.93073">
        <ele>1857.8000488281</ele>
        <time>2016-04-10T06:53:53.000Z</time>
      </trkpt>
      <trkpt lat="45.17423" lon="5.9308">
        <ele>1858.8000488281</ele>
        <time>2016-04-10T06:53:58.000Z</time>
      </trkpt>
      <trkpt lat="45.17423" lon="5.9308">
        <ele>1859</ele>
        <time>2016-04-10T06:53:59.000Z</time>
      </trkpt>
      <trkpt lat="45.17425" lon="5.93085">
        <ele>1859.8000488281</ele>
        <time>2016-04-10T06:54:05.000Z</time>
      </trkpt>
      <trkpt lat="45.17427" lon="5.93093">
        <ele>1860.8000488281</ele>
        <time>2016-04-10T06:54:12.000Z</time>
      </trkpt>
      <trkpt lat="45.17427" lon="5.93094">
        <ele>1860.8000488281</ele>
        <time>2016-04-10T06:54:13.000Z</time>
      </trkpt>
      <trkpt lat="45.17428" lon="5.93095">
        <ele>1862</ele>
        <time>2016-04-10T06:54:17.000Z</time>
      </trkpt>
      <trkpt lat="45.17428" lon="5.93095">
        <ele>1862.8000488281</ele>
        <time>2016-04-10T06:54:19.000Z</time>
      </trkpt>
      <trkpt lat="45.17428" lon="5.93095">
        <ele>1863.1999511719</ele>
        <time>2016-04-10T06:54:20.000Z</time>
      </trkpt>
      <trkpt lat="45.17428" lon="5.93095">
        <ele>1864.1999511719</ele>
        <time>2016-04-10T06:54:26.000Z</time>
      </trkpt>
      <trkpt lat="45.17428" lon="5.93095">
        <ele>1864.4000244141</ele>
        <time>2016-04-10T06:54:27.000Z</time>
      </trkpt>
      <trkpt lat="45.17424" lon="5.93098">
        <ele>1864.8000488281</ele>
        <time>2016-04-10T06:54:34.000Z</time>
      </trkpt>
      <trkpt lat="45.17422" lon="5.93103">
        <ele>1865.4000244141</ele>
        <time>2016-04-10T06:54:39.000Z</time>
      </trkpt>
      <trkpt lat="45.17421" lon="5.93104">
        <ele>1866.1999511719</ele>
        <time>2016-04-10T06:54:42.000Z</time>
      </trkpt>
      <trkpt lat="45.17421" lon="5.93105">
        <ele>1866.5999755859</ele>
        <time>2016-04-10T06:54:43.000Z</time>
      </trkpt>
      <trkpt lat="45.1742" lon="5.93107">
        <ele>1867.5999755859</ele>
        <time>2016-04-10T06:54:46.000Z</time>
      </trkpt>
      <trkpt lat="45.1742" lon="5.93108">
        <ele>1868</ele>
        <time>2016-04-10T06:54:48.000Z</time>
      </trkpt>
      <trkpt lat="45.17421" lon="5.93112">
        <ele>1868.5999755859</ele>
        <time>2016-04-10T06:54:51.000Z</time>
      </trkpt>
      <trkpt lat="45.17422" lon="5.93114">
        <ele>1869</ele>
        <time>2016-04-10T06:54:53.000Z</time>
      </trkpt>
      <trkpt lat="45.17421" lon="5.93119">
        <ele>1869.8000488281</ele>
        <time>2016-04-10T06:54:56.000Z</time>
      </trkpt>
      <trkpt lat="45.1742" lon="5.93123">
        <ele>1870.5999755859</ele>
        <time>2016-04-10T06:55:00.000Z</time>
      </trkpt>
      <trkpt lat="45.17419" lon="5.93124">
        <ele>1870.8000488281</ele>
        <time>2016-04-10T06:55:01.000Z</time>
      </trkpt>
      <trkpt lat="45.17417" lon="5.93132">
        <ele>1871.5999755859</ele>
        <time>2016-04-10T06:55:08.000Z</time>
      </trkpt>
      <trkpt lat="45.17417" lon="5.93133">
        <ele>1872</ele>
        <time>2016-04-10T06:55:09.000Z</time>
      </trkpt>
      <trkpt lat="45.17417" lon="5.93138">
        <ele>1873</ele>
        <time>2016-04-10T06:55:15.000Z</time>
      </trkpt>
      <trkpt lat="45.17417" lon="5.93138">
        <ele>1874.4000244141</ele>
        <time>2016-04-10T06:55:21.000Z</time>
      </trkpt>
      <trkpt lat="45.17415" lon="5.93139">
        <ele>1875.1999511719</ele>
        <time>2016-04-10T06:55:24.000Z</time>
      </trkpt>
      <trkpt lat="45.17414" lon="5.9314">
        <ele>1875.5999755859</ele>
        <time>2016-04-10T06:55:26.000Z</time>
      </trkpt>
      <trkpt lat="45.17413" lon="5.93144">
        <ele>1876.1999511719</ele>
        <time>2016-04-10T06:55:30.000Z</time>
      </trkpt>
      <trkpt lat="45.17414" lon="5.93146">
        <ele>1876.8000488281</ele>
        <time>2016-04-10T06:55:33.000Z</time>
      </trkpt>
      <trkpt lat="45.17414" lon="5.93148">
        <ele>1877.4000244141</ele>
        <time>2016-04-10T06:55:36.000Z</time>
      </trkpt>
      <trkpt lat="45.17412" lon="5.93148">
        <ele>1878</ele>
        <time>2016-04-10T06:55:39.000Z</time>
      </trkpt>
      <trkpt lat="45.17412" lon="5.93146">
        <ele>1878.5999755859</ele>
        <time>2016-04-10T06:55:42.000Z</time>
      </trkpt>
      <trkpt lat="45.17412" lon="5.93145">
        <ele>1879</ele>
        <time>2016-04-10T06:55:44.000Z</time>
      </trkpt>
      <trkpt lat="45.17411" lon="5.93144">
        <ele>1880.1999511719</ele>
        <time>2016-04-10T06:55:49.000Z</time>
      </trkpt>
      <trkpt lat="45.1741" lon="5.93142">
        <ele>1880.5999755859</ele>
        <time>2016-04-10T06:55:52.000Z</time>
      </trkpt>
      <trkpt lat="45.17408" lon="5.93141">
        <ele>1881.4000244141</ele>
        <time>2016-04-10T06:55:59.000Z</time>
      </trkpt>
      <trkpt lat="45.17407" lon="5.93143">
        <ele>1881.4000244141</ele>
        <time>2016-04-10T06:56:00.000Z</time>
      </trkpt>
      <trkpt lat="45.17406" lon="5.9315">
        <ele>1882.1999511719</ele>
        <time>2016-04-10T06:56:06.000Z</time>
      </trkpt>
      <trkpt lat="45.17405" lon="5.93158">
        <ele>1882.4000244141</ele>
        <time>2016-04-10T06:56:12.000Z</time>
      </trkpt>
      <trkpt lat="45.17404" lon="5.9316">
        <ele>1882.4000244141</ele>
        <time>2016-04-10T06:56:13.000Z</time>
      </trkpt>
      <trkpt lat="45.17402" lon="5.93165">
        <ele>1883.1999511719</ele>
        <time>2016-04-10T06:56:20.000Z</time>
      </trkpt>
      <trkpt lat="45.17402" lon="5.93165">
        <ele>1883.5999755859</ele>
        <time>2016-04-10T06:56:21.000Z</time>
      </trkpt>
      <trkpt lat="45.174" lon="5.93164">
        <ele>1884.8000488281</ele>
        <time>2016-04-10T06:56:25.000Z</time>
      </trkpt>
      <trkpt lat="45.174" lon="5.93167">
        <ele>1885.1999511719</ele>
        <time>2016-04-10T06:56:27.000Z</time>
      </trkpt>
      <trkpt lat="45.174" lon="5.9317">
        <ele>1886</ele>
        <time>2016-04-10T06:56:30.000Z</time>
      </trkpt>
      <trkpt lat="45.17401" lon="5.93175">
        <ele>1886.5999755859</ele>
        <time>2016-04-10T06:56:33.000Z</time>
      </trkpt>
      <trkpt lat="45.17403" lon="5.93178">
        <ele>1887.1999511719</ele>
        <time>2016-04-10T06:56:38.000Z</time>
      </trkpt>
      <trkpt lat="45.17403" lon="5.93179">
        <ele>1887.1999511719</ele>
        <time>2016-04-10T06:56:39.000Z</time>
      </trkpt>
      <trkpt lat="45.17405" lon="5.93187">
        <ele>1887.8000488281</ele>
        <time>2016-04-10T06:56:45.000Z</time>
      </trkpt>
      <trkpt lat="45.17404" lon="5.93196">
        <ele>1888</ele>
        <time>2016-04-10T06:56:51.000Z</time>
      </trkpt>
      <trkpt lat="45.17404" lon="5.93198">
        <ele>1888.1999511719</ele>
        <time>2016-04-10T06:56:53.000Z</time>
      </trkpt>
      <trkpt lat="45.17403" lon="5.93203">
        <ele>1888.4000244141</ele>
        <time>2016-04-10T06:56:56.000Z</time>
      </trkpt>
      <trkpt lat="45.17401" lon="5.93213">
        <ele>1889</ele>
        <time>2016-04-10T06:57:02.000Z</time>
      </trkpt>
      <trkpt lat="45.174" lon="5.93217">
        <ele>1889.1999511719</ele>
        <time>2016-04-10T06:57:05.000Z</time>
      </trkpt>
      <trkpt lat="45.17399" lon="5.9322">
        <ele>1889.4000244141</ele>
        <time>2016-04-10T06:57:07.000Z</time>
      </trkpt>
      <trkpt lat="45.17398" lon="5.93227">
        <ele>1890.1999511719</ele>
        <time>2016-04-10T06:57:12.000Z</time>
      </trkpt>
      <trkpt lat="45.17398" lon="5.93228">
        <ele>1890.4000244141</ele>
        <time>2016-04-10T06:57:13.000Z</time>
      </trkpt>
      <trkpt lat="45.17394" lon="5.93232">
        <ele>1891.4000244141</ele>
        <time>2016-04-10T06:57:20.000Z</time>
      </trkpt>
      <trkpt lat="45.17391" lon="5.93237">
        <ele>1892.5999755859</ele>
        <time>2016-04-10T06:57:25.000Z</time>
      </trkpt>
      <trkpt lat="45.1739" lon="5.93238">
        <ele>1892.5999755859</ele>
        <time>2016-04-10T06:57:26.000Z</time>
      </trkpt>
      <trkpt lat="45.17387" lon="5.93248">
        <ele>1893</ele>
        <time>2016-04-10T06:57:32.000Z</time>
      </trkpt>
      <trkpt lat="45.17387" lon="5.93259">
        <ele>1892.8000488281</ele>
        <time>2016-04-10T06:57:38.000Z</time>
      </trkpt>
      <trkpt lat="45.17387" lon="5.93268">
        <ele>1893</ele>
        <time>2016-04-10T06:57:44.000Z</time>
      </trkpt>
      <trkpt lat="45.17387" lon="5.93279">
        <ele>1893.4000244141</ele>
        <time>2016-04-10T06:57:50.000Z</time>
      </trkpt>
      <trkpt lat="45.17386" lon="5.93282">
        <ele>1893.5999755859</ele>
        <time>2016-04-10T06:57:52.000Z</time>
      </trkpt>
      <trkpt lat="45.17386" lon="5.93288">
        <ele>1893.8000488281</ele>
        <time>2016-04-10T06:57:56.000Z</time>
      </trkpt>
      <trkpt lat="45.17385" lon="5.93295">
        <ele>1894.1999511719</ele>
        <time>2016-04-10T06:58:02.000Z</time>
      </trkpt>
      <trkpt lat="45.17384" lon="5.93297">
        <ele>1894.5999755859</ele>
        <time>2016-04-10T06:58:04.000Z</time>
      </trkpt>
      <trkpt lat="45.17383" lon="5.93301">
        <ele>1895.1999511719</ele>
        <time>2016-04-10T06:58:08.000Z</time>
      </trkpt>
      <trkpt lat="45.17382" lon="5.93306">
        <ele>1895.8000488281</ele>
        <time>2016-04-10T06:58:11.000Z</time>
      </trkpt>
      <trkpt lat="45.1738" lon="5.93309">
        <ele>1896.4000244141</ele>
        <time>2016-04-10T06:58:14.000Z</time>
      </trkpt>
      <trkpt lat="45.17379" lon="5.93312">
        <ele>1896.8000488281</ele>
        <time>2016-04-10T06:58:17.000Z</time>
      </trkpt>
      <trkpt lat="45.17378" lon="5.93314">
        <ele>1897</ele>
        <time>2016-04-10T06:58:18.000Z</time>
      </trkpt>
      <trkpt lat="45.17375" lon="5.93318">
        <ele>1898</ele>
        <time>2016-04-10T06:58:21.000Z</time>
      </trkpt>
      <trkpt lat="45.17372" lon="5.93327">
        <ele>1898.4000244141</ele>
        <time>2016-04-10T06:58:26.000Z</time>
      </trkpt>
      <trkpt lat="45.17372" lon="5.9333">
        <ele>1898.4000244141</ele>
        <time>2016-04-10T06:58:28.000Z</time>
      </trkpt>
      <trkpt lat="45.1737" lon="5.93338">
        <ele>1899.1999511719</ele>
        <time>2016-04-10T06:58:33.000Z</time>
      </trkpt>
      <trkpt lat="45.17371" lon="5.9334">
        <ele>1899.4000244141</ele>
        <time>2016-04-10T06:58:34.000Z</time>
      </trkpt>
      <trkpt lat="45.17371" lon="5.93342">
        <ele>1899.4000244141</ele>
        <time>2016-04-10T06:58:35.000Z</time>
      </trkpt>
      <trkpt lat="45.1737" lon="5.93352">
        <ele>1899.8000488281</ele>
        <time>2016-04-10T06:58:40.000Z</time>
      </trkpt>
      <trkpt lat="45.17371" lon="5.93364">
        <ele>1900.1999511719</ele>
        <time>2016-04-10T06:58:47.000Z</time>
      </trkpt>
      <trkpt lat="45.17372" lon="5.93374">
        <ele>1900.4000244141</ele>
        <time>2016-04-10T06:58:53.000Z</time>
      </trkpt>
      <trkpt lat="45.17372" lon="5.93384">
        <ele>1901</ele>
        <time>2016-04-10T06:59:00.000Z</time>
      </trkpt>
      <trkpt lat="45.17372" lon="5.93385">
        <ele>1901.1999511719</ele>
        <time>2016-04-10T06:59:01.000Z</time>
      </trkpt>
      <trkpt lat="45.17371" lon="5.93392">
        <ele>1901.5999755859</ele>
        <time>2016-04-10T06:59:06.000Z</time>
      </trkpt>
      <trkpt lat="45.1737" lon="5.93398">
        <ele>1902.1999511719</ele>
        <time>2016-04-10T06:59:10.000Z</time>
      </trkpt>
      <trkpt lat="45.1737" lon="5.934">
        <ele>1902.5999755859</ele>
        <time>2016-04-10T06:59:12.000Z</time>
      </trkpt>
      <trkpt lat="45.17369" lon="5.93408">
        <ele>1903.4000244141</ele>
        <time>2016-04-10T06:59:17.000Z</time>
      </trkpt>
      <trkpt lat="45.17369" lon="5.9341">
        <ele>1903.4000244141</ele>
        <time>2016-04-10T06:59:18.000Z</time>
      </trkpt>
      <trkpt lat="45.17367" lon="5.93416">
        <ele>1904.4000244141</ele>
        <time>2016-04-10T06:59:24.000Z</time>
      </trkpt>
      <trkpt lat="45.17366" lon="5.93417">
        <ele>1904.5999755859</ele>
        <time>2016-04-10T06:59:25.000Z</time>
      </trkpt>
      <trkpt lat="45.17363" lon="5.93425">
        <ele>1905.8000488281</ele>
        <time>2016-04-10T06:59:32.000Z</time>
      </trkpt>
      <trkpt lat="45.17362" lon="5.93429">
        <ele>1906.8000488281</ele>
        <time>2016-04-10T06:59:35.000Z</time>
      </trkpt>
      <trkpt lat="45.17361" lon="5.93434">
        <ele>1907.4000244141</ele>
        <time>2016-04-10T06:59:39.000Z</time>
      </trkpt>
      <trkpt lat="45.1736" lon="5.93436">
        <ele>1907.8000488281</ele>
        <time>2016-04-10T06:59:41.000Z</time>
      </trkpt>
      <trkpt lat="45.1736" lon="5.93442">
        <ele>1908.5999755859</ele>
        <time>2016-04-10T06:59:45.000Z</time>
      </trkpt>
      <trkpt lat="45.1736" lon="5.93443">
        <ele>1909</ele>
        <time>2016-04-10T06:59:47.000Z</time>
      </trkpt>
      <trkpt lat="45.17359" lon="5.93449">
        <ele>1910</ele>
        <time>2016-04-10T06:59:52.000Z</time>
      </trkpt>
      <trkpt lat="45.17357" lon="5.93456">
        <ele>1911.5999755859</ele>
        <time>2016-04-10T06:59:57.000Z</time>
      </trkpt>
      <trkpt lat="45.17358" lon="5.93458">
        <ele>1912.4000244141</ele>
        <time>2016-04-10T06:59:59.000Z</time>
      </trkpt>
      <trkpt lat="45.17358" lon="5.93459">
        <ele>1912.8000488281</ele>
        <time>2016-04-10T07:00:01.000Z</time>
      </trkpt>
      <trkpt lat="45.17359" lon="5.93459">
        <ele>1914</ele>
        <time>2016-04-10T07:00:05.000Z</time>
      </trkpt>
      <trkpt lat="45.1736" lon="5.93461">
        <ele>1914.1999511719</ele>
        <time>2016-04-10T07:00:06.000Z</time>
      </trkpt>
      <trkpt lat="45.17363" lon="5.93464">
        <ele>1914.8000488281</ele>
        <time>2016-04-10T07:00:09.000Z</time>
      </trkpt>
      <trkpt lat="45.17363" lon="5.93465">
        <ele>1915</ele>
        <time>2016-04-10T07:00:10.000Z</time>
      </trkpt>
      <trkpt lat="45.17365" lon="5.93472">
        <ele>1915.8000488281</ele>
        <time>2016-04-10T07:00:15.000Z</time>
      </trkpt>
      <trkpt lat="45.17365" lon="5.93474">
        <ele>1916</ele>
        <time>2016-04-10T07:00:16.000Z</time>
      </trkpt>
      <trkpt lat="45.17367" lon="5.93483">
        <ele>1917.1999511719</ele>
        <time>2016-04-10T07:00:22.000Z</time>
      </trkpt>
      <trkpt lat="45.17367" lon="5.93484">
        <ele>1917.4000244141</ele>
        <time>2016-04-10T07:00:23.000Z</time>
      </trkpt>
      <trkpt lat="45.1737" lon="5.93494">
        <ele>1918</ele>
        <time>2016-04-10T07:00:29.000Z</time>
      </trkpt>
      <trkpt lat="45.1737" lon="5.93496">
        <ele>1918.1999511719</ele>
        <time>2016-04-10T07:00:30.000Z</time>
      </trkpt>
      <trkpt lat="45.17372" lon="5.93499">
        <ele>1919.1999511719</ele>
        <time>2016-04-10T07:00:35.000Z</time>
      </trkpt>
      <trkpt lat="45.17372" lon="5.935">
        <ele>1919.5999755859</ele>
        <time>2016-04-10T07:00:36.000Z</time>
      </trkpt>
      <trkpt lat="45.17375" lon="5.93505">
        <ele>1920.4000244141</ele>
        <time>2016-04-10T07:00:41.000Z</time>
      </trkpt>
      <trkpt lat="45.17376" lon="5.93508">
        <ele>1920.5999755859</ele>
        <time>2016-04-10T07:00:44.000Z</time>
      </trkpt>
      <trkpt lat="45.17376" lon="5.93513">
        <ele>1921.8000488281</ele>
        <time>2016-04-10T07:00:48.000Z</time>
      </trkpt>
      <trkpt lat="45.17375" lon="5.93521">
        <ele>1923</ele>
        <time>2016-04-10T07:00:54.000Z</time>
      </trkpt>
      <trkpt lat="45.17374" lon="5.93524">
        <ele>1923.4000244141</ele>
        <time>2016-04-10T07:00:56.000Z</time>
      </trkpt>
      <trkpt lat="45.17374" lon="5.9353">
        <ele>1924</ele>
        <time>2016-04-10T07:01:00.000Z</time>
      </trkpt>
      <trkpt lat="45.17374" lon="5.93531">
        <ele>1924</ele>
        <time>2016-04-10T07:01:01.000Z</time>
      </trkpt>
      <trkpt lat="45.17375" lon="5.9354">
        <ele>1925</ele>
        <time>2016-04-10T07:01:07.000Z</time>
      </trkpt>
      <trkpt lat="45.17375" lon="5.93548">
        <ele>1926.4000244141</ele>
        <time>2016-04-10T07:01:13.000Z</time>
      </trkpt>
      <trkpt lat="45.17375" lon="5.9355">
        <ele>1926.8000488281</ele>
        <time>2016-04-10T07:01:15.000Z</time>
      </trkpt>
      <trkpt lat="45.17376" lon="5.93556">
        <ele>1927.4000244141</ele>
        <time>2016-04-10T07:01:18.000Z</time>
      </trkpt>
      <trkpt lat="45.17378" lon="5.93561">
        <ele>1928.1999511719</ele>
        <time>2016-04-10T07:01:22.000Z</time>
      </trkpt>
      <trkpt lat="45.17379" lon="5.93565">
        <ele>1928.5999755859</ele>
        <time>2016-04-10T07:01:25.000Z</time>
      </trkpt>
      <trkpt lat="45.17378" lon="5.93569">
        <ele>1929.8000488281</ele>
        <time>2016-04-10T07:01:29.000Z</time>
      </trkpt>
      <trkpt lat="45.17375" lon="5.93576">
        <ele>1931.1999511719</ele>
        <time>2016-04-10T07:01:33.000Z</time>
      </trkpt>
      <trkpt lat="45.17375" lon="5.93579">
        <ele>1932.1999511719</ele>
        <time>2016-04-10T07:01:36.000Z</time>
      </trkpt>
      <trkpt lat="45.17374" lon="5.93579">
        <ele>1933.4000244141</ele>
        <time>2016-04-10T07:01:41.000Z</time>
      </trkpt>
      <trkpt lat="45.17373" lon="5.93578">
        <ele>1933.8000488281</ele>
        <time>2016-04-10T07:01:43.000Z</time>
      </trkpt>
      <trkpt lat="45.1737" lon="5.93579">
        <ele>1934.4000244141</ele>
        <time>2016-04-10T07:01:46.000Z</time>
      </trkpt>
      <trkpt lat="45.17368" lon="5.93579">
        <ele>1935</ele>
        <time>2016-04-10T07:01:50.000Z</time>
      </trkpt>
      <trkpt lat="45.17365" lon="5.93579">
        <ele>1935.4000244141</ele>
        <time>2016-04-10T07:01:54.000Z</time>
      </trkpt>
      <trkpt lat="45.17365" lon="5.93579">
        <ele>1936.1999511719</ele>
        <time>2016-04-10T07:01:56.000Z</time>
      </trkpt>
      <trkpt lat="45.17364" lon="5.93579">
        <ele>1936.5999755859</ele>
        <time>2016-04-10T07:01:57.000Z</time>
      </trkpt>
      <trkpt lat="45.17363" lon="5.93579">
        <ele>1937.5999755859</ele>
        <time>2016-04-10T07:02:03.000Z</time>
      </trkpt>
      <trkpt lat="45.17364" lon="5.93579">
        <ele>1937.8000488281</ele>
        <time>2016-04-10T07:02:04.000Z</time>
      </trkpt>
      <trkpt lat="45.17368" lon="5.93584">
        <ele>1938.4000244141</ele>
        <time>2016-04-10T07:02:09.000Z</time>
      </trkpt>
      <trkpt lat="45.1737" lon="5.93588">
        <ele>1939</ele>
        <time>2016-04-10T07:02:12.000Z</time>
      </trkpt>
      <trkpt lat="45.17372" lon="5.93591">
        <ele>1939.5999755859</ele>
        <time>2016-04-10T07:02:16.000Z</time>
      </trkpt>
      <trkpt lat="45.17373" lon="5.93592">
        <ele>1940</ele>
        <time>2016-04-10T07:02:18.000Z</time>
      </trkpt>
      <trkpt lat="45.17375" lon="5.93595">
        <ele>1940.8000488281</ele>
        <time>2016-04-10T07:02:23.000Z</time>
      </trkpt>
      <trkpt lat="45.17376" lon="5.93596">
        <ele>1941.1999511719</ele>
        <time>2016-04-10T07:02:25.000Z</time>
      </trkpt>
      <trkpt lat="45.17379" lon="5.93597">
        <ele>1942.1999511719</ele>
        <time>2016-04-10T07:02:29.000Z</time>
      </trkpt>
      <trkpt lat="45.1738" lon="5.93597">
        <ele>1942.1999511719</ele>
        <time>2016-04-10T07:02:30.000Z</time>
      </trkpt>
      <trkpt lat="45.17382" lon="5.93598">
        <ele>1943</ele>
        <time>2016-04-10T07:02:36.000Z</time>
      </trkpt>
      <trkpt lat="45.1738" lon="5.93596">
        <ele>1943.4000244141</ele>
        <time>2016-04-10T07:02:42.000Z</time>
      </trkpt>
      <trkpt lat="45.17379" lon="5.93596">
        <ele>1943.5999755859</ele>
        <time>2016-04-10T07:02:43.000Z</time>
      </trkpt>
      <trkpt lat="45.17375" lon="5.93599">
        <ele>1944.1999511719</ele>
        <time>2016-04-10T07:02:49.000Z</time>
      </trkpt>
      <trkpt lat="45.17374" lon="5.936">
        <ele>1944.4000244141</ele>
        <time>2016-04-10T07:02:51.000Z</time>
      </trkpt>
      <trkpt lat="45.17371" lon="5.93601">
        <ele>1945.1999511719</ele>
        <time>2016-04-10T07:02:55.000Z</time>
      </trkpt>
      <trkpt lat="45.17371" lon="5.93601">
        <ele>1945.5999755859</ele>
        <time>2016-04-10T07:02:57.000Z</time>
      </trkpt>
      <trkpt lat="45.17367" lon="5.93598">
        <ele>1946.5999755859</ele>
        <time>2016-04-10T07:03:02.000Z</time>
      </trkpt>
      <trkpt lat="45.17363" lon="5.93596">
        <ele>1947.8000488281</ele>
        <time>2016-04-10T07:03:07.000Z</time>
      </trkpt>
      <trkpt lat="45.17362" lon="5.93596">
        <ele>1948</ele>
        <time>2016-04-10T07:03:08.000Z</time>
      </trkpt>
      <trkpt lat="45.17358" lon="5.93595">
        <ele>1949</ele>
        <time>2016-04-10T07:03:14.000Z</time>
      </trkpt>
      <trkpt lat="45.17356" lon="5.93593">
        <ele>1950</ele>
        <time>2016-04-10T07:03:18.000Z</time>
      </trkpt>
      <trkpt lat="45.17355" lon="5.93593">
        <ele>1950.4000244141</ele>
        <time>2016-04-10T07:03:20.000Z</time>
      </trkpt>
      <trkpt lat="45.17353" lon="5.93594">
        <ele>1951.1999511719</ele>
        <time>2016-04-10T07:03:23.000Z</time>
      </trkpt>
      <trkpt lat="45.17352" lon="5.93593">
        <ele>1951.4000244141</ele>
        <time>2016-04-10T07:03:25.000Z</time>
      </trkpt>
      <trkpt lat="45.17351" lon="5.93593">
        <ele>1952.1999511719</ele>
        <time>2016-04-10T07:03:28.000Z</time>
      </trkpt>
      <trkpt lat="45.17351" lon="5.93593">
        <ele>1952.5999755859</ele>
        <time>2016-04-10T07:03:32.000Z</time>
      </trkpt>
      <trkpt lat="45.17352" lon="5.93596">
        <ele>1953.1999511719</ele>
        <time>2016-04-10T07:03:40.000Z</time>
      </trkpt>
      <trkpt lat="45.17353" lon="5.93596">
        <ele>1953.1999511719</ele>
        <time>2016-04-10T07:03:42.000Z</time>
      </trkpt>
      <trkpt lat="45.17354" lon="5.93602">
        <ele>1953</ele>
        <time>2016-04-10T07:03:51.000Z</time>
      </trkpt>
      <trkpt lat="45.17356" lon="5.93608">
        <ele>1954.1999511719</ele>
        <time>2016-04-10T07:03:56.000Z</time>
      </trkpt>
      <trkpt lat="45.17356" lon="5.93609">
        <ele>1954.4000244141</ele>
        <time>2016-04-10T07:03:57.000Z</time>
      </trkpt>
      <trkpt lat="45.17358" lon="5.93614">
        <ele>1954.5999755859</ele>
        <time>2016-04-10T07:04:00.000Z</time>
      </trkpt>
      <trkpt lat="45.17359" lon="5.93614">
        <ele>1955.4000244141</ele>
        <time>2016-04-10T07:04:05.000Z</time>
      </trkpt>
      <trkpt lat="45.17359" lon="5.93614">
        <ele>1955.5999755859</ele>
        <time>2016-04-10T07:04:06.000Z</time>
      </trkpt>
      <trkpt lat="45.17355" lon="5.93614">
        <ele>1956.5999755859</ele>
        <time>2016-04-10T07:04:11.000Z</time>
      </trkpt>
      <trkpt lat="45.17355" lon="5.93614">
        <ele>1956.5999755859</ele>
        <time>2016-04-10T07:04:12.000Z</time>
      </trkpt>
      <trkpt lat="45.1735" lon="5.93611">
        <ele>1957.1999511719</ele>
        <time>2016-04-10T07:04:17.000Z</time>
      </trkpt>
      <trkpt lat="45.17348" lon="5.9361">
        <ele>1957.5999755859</ele>
        <time>2016-04-10T07:04:19.000Z</time>
      </trkpt>
      <trkpt lat="45.17346" lon="5.93607">
        <ele>1958.4000244141</ele>
        <time>2016-04-10T07:04:22.000Z</time>
      </trkpt>
      <trkpt lat="45.17345" lon="5.93607">
        <ele>1958.5999755859</ele>
        <time>2016-04-10T07:04:23.000Z</time>
      </trkpt>
      <trkpt lat="45.17339" lon="5.93604">
        <ele>1959.8000488281</ele>
        <time>2016-04-10T07:04:30.000Z</time>
      </trkpt>
      <trkpt lat="45.17336" lon="5.93603">
        <ele>1960.5999755859</ele>
        <time>2016-04-10T07:04:35.000Z</time>
      </trkpt>
      <trkpt lat="45.17335" lon="5.93602">
        <ele>1960.8000488281</ele>
        <time>2016-04-10T07:04:36.000Z</time>
      </trkpt>
      <trkpt lat="45.1733" lon="5.936">
        <ele>1961.8000488281</ele>
        <time>2016-04-10T07:04:43.000Z</time>
      </trkpt>
      <trkpt lat="45.17329" lon="5.936">
        <ele>1962.1999511719</ele>
        <time>2016-04-10T07:04:44.000Z</time>
      </trkpt>
      <trkpt lat="45.17328" lon="5.93601">
        <ele>1963.1999511719</ele>
        <time>2016-04-10T07:04:46.000Z</time>
      </trkpt>
      <trkpt lat="45.17326" lon="5.93602">
        <ele>1964</ele>
        <time>2016-04-10T07:04:49.000Z</time>
      </trkpt>
      <trkpt lat="45.17326" lon="5.93602">
        <ele>1964.1999511719</ele>
        <time>2016-04-10T07:04:51.000Z</time>
      </trkpt>
      <trkpt lat="45.17324" lon="5.93603">
        <ele>1965.1999511719</ele>
        <time>2016-04-10T07:04:55.000Z</time>
      </trkpt>
      <trkpt lat="45.17323" lon="5.93603">
        <ele>1965.4000244141</ele>
        <time>2016-04-10T07:04:56.000Z</time>
      </trkpt>
      <trkpt lat="45.17322" lon="5.93604">
        <ele>1966.4000244141</ele>
        <time>2016-04-10T07:05:00.000Z</time>
      </trkpt>
      <trkpt lat="45.1732" lon="5.93605">
        <ele>1966.8000488281</ele>
        <time>2016-04-10T07:05:02.000Z</time>
      </trkpt>
      <trkpt lat="45.17318" lon="5.93608">
        <ele>1967.4000244141</ele>
        <time>2016-04-10T07:05:06.000Z</time>
      </trkpt>
      <trkpt lat="45.17317" lon="5.93609">
        <ele>1968.1999511719</ele>
        <time>2016-04-10T07:05:09.000Z</time>
      </trkpt>
      <trkpt lat="45.17316" lon="5.93609">
        <ele>1968.5999755859</ele>
        <time>2016-04-10T07:05:10.000Z</time>
      </trkpt>
      <trkpt lat="45.17314" lon="5.9361">
        <ele>1969.8000488281</ele>
        <time>2016-04-10T07:05:16.000Z</time>
      </trkpt>
      <trkpt lat="45.17311" lon="5.93612">
        <ele>1970.8000488281</ele>
        <time>2016-04-10T07:05:21.000Z</time>
      </trkpt>
      <trkpt lat="45.17309" lon="5.93613">
        <ele>1971.1999511719</ele>
        <time>2016-04-10T07:05:24.000Z</time>
      </trkpt>
      <trkpt lat="45.17307" lon="5.93614">
        <ele>1971.8000488281</ele>
        <time>2016-04-10T07:05:27.000Z</time>
      </trkpt>
      <trkpt lat="45.17304" lon="5.93615">
        <ele>1972.4000244141</ele>
        <time>2016-04-10T07:05:30.000Z</time>
      </trkpt>
      <trkpt lat="45.17302" lon="5.93617">
        <ele>1973</ele>
        <time>2016-04-10T07:05:33.000Z</time>
      </trkpt>
      <trkpt lat="45.17301" lon="5.93618">
        <ele>1973.1999511719</ele>
        <time>2016-04-10T07:05:34.000Z</time>
      </trkpt>
      <trkpt lat="45.173" lon="5.93618">
        <ele>1973.4000244141</ele>
        <time>2016-04-10T07:05:35.000Z</time>
      </trkpt>
      <trkpt lat="45.17298" lon="5.93618">
        <ele>1974</ele>
        <time>2016-04-10T07:05:37.000Z</time>
      </trkpt>
      <trkpt lat="45.17295" lon="5.9362">
        <ele>1974.8000488281</ele>
        <time>2016-04-10T07:05:41.000Z</time>
      </trkpt>
      <trkpt lat="45.17294" lon="5.9362">
        <ele>1975.1999511719</ele>
        <time>2016-04-10T07:05:43.000Z</time>
      </trkpt>
      <trkpt lat="45.17291" lon="5.93621">
        <ele>1975.5999755859</ele>
        <time>2016-04-10T07:05:46.000Z</time>
      </trkpt>
      <trkpt lat="45.17289" lon="5.93622">
        <ele>1976.1999511719</ele>
        <time>2016-04-10T07:05:48.000Z</time>
      </trkpt>
      <trkpt lat="45.17284" lon="5.93624">
        <ele>1977</ele>
        <time>2016-04-10T07:05:52.000Z</time>
      </trkpt>
      <trkpt lat="45.17282" lon="5.93625">
        <ele>1977.1999511719</ele>
        <time>2016-04-10T07:05:54.000Z</time>
      </trkpt>
      <trkpt lat="45.17277" lon="5.93627">
        <ele>1978</ele>
        <time>2016-04-10T07:05:59.000Z</time>
      </trkpt>
      <trkpt lat="45.1727" lon="5.93631">
        <ele>1978.1999511719</ele>
        <time>2016-04-10T07:06:05.000Z</time>
      </trkpt>
      <trkpt lat="45.17264" lon="5.93632">
        <ele>1979</ele>
        <time>2016-04-10T07:06:12.000Z</time>
      </trkpt>
      <trkpt lat="45.17262" lon="5.93634">
        <ele>1979.1999511719</ele>
        <time>2016-04-10T07:06:14.000Z</time>
      </trkpt>
      <trkpt lat="45.1726" lon="5.93635">
        <ele>1979.8000488281</ele>
        <time>2016-04-10T07:06:18.000Z</time>
      </trkpt>
      <trkpt lat="45.17257" lon="5.93636">
        <ele>1980.4000244141</ele>
        <time>2016-04-10T07:06:21.000Z</time>
      </trkpt>
      <trkpt lat="45.17254" lon="5.93638">
        <ele>1981.1999511719</ele>
        <time>2016-04-10T07:06:24.000Z</time>
      </trkpt>
      <trkpt lat="45.17251" lon="5.93639">
        <ele>1981.4000244141</ele>
        <time>2016-04-10T07:06:26.000Z</time>
      </trkpt>
      <trkpt lat="45.17246" lon="5.9364">
        <ele>1982</ele>
        <time>2016-04-10T07:06:31.000Z</time>
      </trkpt>
      <trkpt lat="45.17243" lon="5.93643">
        <ele>1982.5999755859</ele>
        <time>2016-04-10T07:06:36.000Z</time>
      </trkpt>
      <trkpt lat="45.17242" lon="5.93643">
        <ele>1982.5999755859</ele>
        <time>2016-04-10T07:06:37.000Z</time>
      </trkpt>
      <trkpt lat="45.17237" lon="5.93646">
        <ele>1983</ele>
        <time>2016-04-10T07:06:44.000Z</time>
      </trkpt>
      <trkpt lat="45.17232" lon="5.93649">
        <ele>1983.5999755859</ele>
        <time>2016-04-10T07:06:49.000Z</time>
      </trkpt>
      <trkpt lat="45.17231" lon="5.9365">
        <ele>1984</ele>
        <time>2016-04-10T07:06:51.000Z</time>
      </trkpt>
      <trkpt lat="45.17226" lon="5.93652">
        <ele>1984.5999755859</ele>
        <time>2016-04-10T07:06:57.000Z</time>
      </trkpt>
      <trkpt lat="45.17225" lon="5.93652">
        <ele>1984.8000488281</ele>
        <time>2016-04-10T07:06:58.000Z</time>
      </trkpt>
      <trkpt lat="45.1722" lon="5.93655">
        <ele>1985.8000488281</ele>
        <time>2016-04-10T07:07:03.000Z</time>
      </trkpt>
      <trkpt lat="45.17219" lon="5.93655">
        <ele>1986</ele>
        <time>2016-04-10T07:07:05.000Z</time>
      </trkpt>
      <trkpt lat="45.17215" lon="5.93659">
        <ele>1986.8000488281</ele>
        <time>2016-04-10T07:07:10.000Z</time>
      </trkpt>
      <trkpt lat="45.17212" lon="5.9366">
        <ele>1987.8000488281</ele>
        <time>2016-04-10T07:07:13.000Z</time>
      </trkpt>
      <trkpt lat="45.17211" lon="5.9366">
        <ele>1988</ele>
        <time>2016-04-10T07:07:14.000Z</time>
      </trkpt>
      <trkpt lat="45.17206" lon="5.93662">
        <ele>1988.8000488281</ele>
        <time>2016-04-10T07:07:19.000Z</time>
      </trkpt>
      <trkpt lat="45.17204" lon="5.93663">
        <ele>1989</ele>
        <time>2016-04-10T07:07:21.000Z</time>
      </trkpt>
      <trkpt lat="45.172" lon="5.93665">
        <ele>1989.4000244141</ele>
        <time>2016-04-10T07:07:25.000Z</time>
      </trkpt>
      <trkpt lat="45.17194" lon="5.93666">
        <ele>1990</ele>
        <time>2016-04-10T07:07:31.000Z</time>
      </trkpt>
      <trkpt lat="45.17193" lon="5.93667">
        <ele>1990.1999511719</ele>
        <time>2016-04-10T07:07:32.000Z</time>
      </trkpt>
      <trkpt lat="45.17187" lon="5.93668">
        <ele>1991</ele>
        <time>2016-04-10T07:07:37.000Z</time>
      </trkpt>
      <trkpt lat="45.17186" lon="5.93668">
        <ele>1991.1999511719</ele>
        <time>2016-04-10T07:07:38.000Z</time>
      </trkpt>
      <trkpt lat="45.1718" lon="5.93669">
        <ele>1991.5999755859</ele>
        <time>2016-04-10T07:07:43.000Z</time>
      </trkpt>
      <trkpt lat="45.17175" lon="5.9367">
        <ele>1992</ele>
        <time>2016-04-10T07:07:49.000Z</time>
      </trkpt>
      <trkpt lat="45.17174" lon="5.9367">
        <ele>1992.1999511719</ele>
        <time>2016-04-10T07:07:50.000Z</time>
      </trkpt>
      <trkpt lat="45.17171" lon="5.93673">
        <ele>1993.1999511719</ele>
        <time>2016-04-10T07:07:55.000Z</time>
      </trkpt>
      <trkpt lat="45.1717" lon="5.93673">
        <ele>1993.4000244141</ele>
        <time>2016-04-10T07:07:56.000Z</time>
      </trkpt>
      <trkpt lat="45.17168" lon="5.93674">
        <ele>1994.4000244141</ele>
        <time>2016-04-10T07:07:59.000Z</time>
      </trkpt>
      <trkpt lat="45.17165" lon="5.93675">
        <ele>1994.8000488281</ele>
        <time>2016-04-10T07:08:03.000Z</time>
      </trkpt>
      <trkpt lat="45.17159" lon="5.93676">
        <ele>1995</ele>
        <time>2016-04-10T07:08:10.000Z</time>
      </trkpt>
      <trkpt lat="45.17156" lon="5.93677">
        <ele>1995.4000244141</ele>
        <time>2016-04-10T07:08:14.000Z</time>
      </trkpt>
      <trkpt lat="45.17156" lon="5.93676">
        <ele>1995.5999755859</ele>
        <time>2016-04-10T07:08:15.000Z</time>
      </trkpt>
      <trkpt lat="45.17155" lon="5.93676">
        <ele>1995.8000488281</ele>
        <time>2016-04-10T07:08:16.000Z</time>
      </trkpt>
      <trkpt lat="45.17152" lon="5.93673">
        <ele>1996.4000244141</ele>
        <time>2016-04-10T07:08:22.000Z</time>
      </trkpt>
      <trkpt lat="45.17152" lon="5.93673">
        <ele>1996.4000244141</ele>
        <time>2016-04-10T07:08:23.000Z</time>
      </trkpt>
      <trkpt lat="45.17152" lon="5.93672">
        <ele>1996.4000244141</ele>
        <time>2016-04-10T07:08:32.000Z</time>
      </trkpt>
      <trkpt lat="45.17149" lon="5.93672">
        <ele>1996</ele>
        <time>2016-04-10T07:08:36.000Z</time>
      </trkpt>
      <trkpt lat="45.17148" lon="5.93673">
        <ele>1995.8000488281</ele>
        <time>2016-04-10T07:08:37.000Z</time>
      </trkpt>
      <trkpt lat="45.17143" lon="5.93676">
        <ele>1996</ele>
        <time>2016-04-10T07:08:42.000Z</time>
      </trkpt>
      <trkpt lat="45.17136" lon="5.93676">
        <ele>1995.8000488281</ele>
        <time>2016-04-10T07:08:48.000Z</time>
      </trkpt>
      <trkpt lat="45.17134" lon="5.93678">
        <ele>1995.4000244141</ele>
        <time>2016-04-10T07:08:50.000Z</time>
      </trkpt>
      <trkpt lat="45.1713" lon="5.93683">
        <ele>1995.1999511719</ele>
        <time>2016-04-10T07:08:54.000Z</time>
      </trkpt>
      <trkpt lat="45.17125" lon="5.93691">
        <ele>1995.1999511719</ele>
        <time>2016-04-10T07:09:00.000Z</time>
      </trkpt>
      <trkpt lat="45.17113" lon="5.93695">
        <ele>1994.8000488281</ele>
        <time>2016-04-10T07:09:07.000Z</time>
      </trkpt>
      <trkpt lat="45.17111" lon="5.93696">
        <ele>1994.4000244141</ele>
        <time>2016-04-10T07:09:09.000Z</time>
      </trkpt>
      <trkpt lat="45.17106" lon="5.93698">
        <ele>1993.5999755859</ele>
        <time>2016-04-10T07:09:13.000Z</time>
      </trkpt>
      <trkpt lat="45.171" lon="5.937">
        <ele>1993.5999755859</ele>
        <time>2016-04-10T07:09:19.000Z</time>
      </trkpt>
      <trkpt lat="45.17097" lon="5.937">
        <ele>1993.4000244141</ele>
        <time>2016-04-10T07:09:22.000Z</time>
      </trkpt>
      <trkpt lat="45.17094" lon="5.937">
        <ele>1993</ele>
        <time>2016-04-10T07:09:25.000Z</time>
      </trkpt>
      <trkpt lat="45.17085" lon="5.93702">
        <ele>1992.4000244141</ele>
        <time>2016-04-10T07:09:33.000Z</time>
      </trkpt>
      <trkpt lat="45.17083" lon="5.93703">
        <ele>1992.1999511719</ele>
        <time>2016-04-10T07:09:34.000Z</time>
      </trkpt>
      <trkpt lat="45.17078" lon="5.93705">
        <ele>1991</ele>
        <time>2016-04-10T07:09:37.000Z</time>
      </trkpt>
      <trkpt lat="45.17074" lon="5.93708">
        <ele>1990.1999511719</ele>
        <time>2016-04-10T07:09:39.000Z</time>
      </trkpt>
      <trkpt lat="45.17074" lon="5.93709">
        <ele>1989.8000488281</ele>
        <time>2016-04-10T07:09:40.000Z</time>
      </trkpt>
      <trkpt lat="45.17074" lon="5.93709">
        <ele>1988.4000244141</ele>
        <time>2016-04-10T07:09:43.000Z</time>
      </trkpt>
      <trkpt lat="45.17074" lon="5.93709">
        <ele>1987</ele>
        <time>2016-04-10T07:09:45.000Z</time>
      </trkpt>
      <trkpt lat="45.17073" lon="5.9371">
        <ele>1986.4000244141</ele>
        <time>2016-04-10T07:09:53.000Z</time>
      </trkpt>
      <trkpt lat="45.17068" lon="5.93712">
        <ele>1986.4000244141</ele>
        <time>2016-04-10T07:10:00.000Z</time>
      </trkpt>
      <trkpt lat="45.17064" lon="5.93716">
        <ele>1986.5999755859</ele>
        <time>2016-04-10T07:10:04.000Z</time>
      </trkpt>
      <trkpt lat="45.17063" lon="5.93717">
        <ele>1986.5999755859</ele>
        <time>2016-04-10T07:10:05.000Z</time>
      </trkpt>
      <trkpt lat="45.17057" lon="5.93724">
        <ele>1987</ele>
        <time>2016-04-10T07:10:10.000Z</time>
      </trkpt>
      <trkpt lat="45.17051" lon="5.93727">
        <ele>1986.5999755859</ele>
        <time>2016-04-10T07:10:14.000Z</time>
      </trkpt>
      <trkpt lat="45.17048" lon="5.93727">
        <ele>1986</ele>
        <time>2016-04-10T07:10:17.000Z</time>
      </trkpt>
      <trkpt lat="45.17045" lon="5.93728">
        <ele>1986</ele>
        <time>2016-04-10T07:10:20.000Z</time>
      </trkpt>
      <trkpt lat="45.17043" lon="5.93727">
        <ele>1987.1999511719</ele>
        <time>2016-04-10T07:10:23.000Z</time>
      </trkpt>
      <trkpt lat="45.17041" lon="5.93726">
        <ele>1987.4000244141</ele>
        <time>2016-04-10T07:10:24.000Z</time>
      </trkpt>
      <trkpt lat="45.1704" lon="5.93725">
        <ele>1988.1999511719</ele>
        <time>2016-04-10T07:10:28.000Z</time>
      </trkpt>
      <trkpt lat="45.17038" lon="5.93726">
        <ele>1988.8000488281</ele>
        <time>2016-04-10T07:10:30.000Z</time>
      </trkpt>
      <trkpt lat="45.17036" lon="5.93725">
        <ele>1989.1999511719</ele>
        <time>2016-04-10T07:10:32.000Z</time>
      </trkpt>
      <trkpt lat="45.17032" lon="5.93723">
        <ele>1989.8000488281</ele>
        <time>2016-04-10T07:10:36.000Z</time>
      </trkpt>
      <trkpt lat="45.17031" lon="5.93722">
        <ele>1990.4000244141</ele>
        <time>2016-04-10T07:10:38.000Z</time>
      </trkpt>
      <trkpt lat="45.17028" lon="5.93721">
        <ele>1991.4000244141</ele>
        <time>2016-04-10T07:10:41.000Z</time>
      </trkpt>
      <trkpt lat="45.17026" lon="5.93721">
        <ele>1991.5999755859</ele>
        <time>2016-04-10T07:10:42.000Z</time>
      </trkpt>
      <trkpt lat="45.17021" lon="5.93719">
        <ele>1992.4000244141</ele>
        <time>2016-04-10T07:10:46.000Z</time>
      </trkpt>
      <trkpt lat="45.1702" lon="5.93719">
        <ele>1992.8000488281</ele>
        <time>2016-04-10T07:10:47.000Z</time>
      </trkpt>
      <trkpt lat="45.17014" lon="5.93718">
        <ele>1993.4000244141</ele>
        <time>2016-04-10T07:10:52.000Z</time>
      </trkpt>
      <trkpt lat="45.1701" lon="5.93719">
        <ele>1994</ele>
        <time>2016-04-10T07:10:56.000Z</time>
      </trkpt>
      <trkpt lat="45.1701" lon="5.93719">
        <ele>1994.4000244141</ele>
        <time>2016-04-10T07:10:57.000Z</time>
      </trkpt>
      <trkpt lat="45.17002" lon="5.9372">
        <ele>1995.1999511719</ele>
        <time>2016-04-10T07:11:03.000Z</time>
      </trkpt>
      <trkpt lat="45.16997" lon="5.93721">
        <ele>1995.8000488281</ele>
        <time>2016-04-10T07:11:08.000Z</time>
      </trkpt>
      <trkpt lat="45.16991" lon="5.93722">
        <ele>1996.4000244141</ele>
        <time>2016-04-10T07:11:13.000Z</time>
      </trkpt>
      <trkpt lat="45.16986" lon="5.93723">
        <ele>1997</ele>
        <time>2016-04-10T07:11:18.000Z</time>
      </trkpt>
      <trkpt lat="45.16983" lon="5.93724">
        <ele>1997.4000244141</ele>
        <time>2016-04-10T07:11:21.000Z</time>
      </trkpt>
      <trkpt lat="45.16982" lon="5.93725">
        <ele>1997.8000488281</ele>
        <time>2016-04-10T07:11:23.000Z</time>
      </trkpt>
      <trkpt lat="45.16977" lon="5.93732">
        <ele>1998.4000244141</ele>
        <time>2016-04-10T07:11:29.000Z</time>
      </trkpt>
      <trkpt lat="45.16978" lon="5.93732">
        <ele>1998.5999755859</ele>
        <time>2016-04-10T07:11:30.000Z</time>
      </trkpt>
      <trkpt lat="45.16974" lon="5.93736">
        <ele>1999</ele>
        <time>2016-04-10T07:11:34.000Z</time>
      </trkpt>
      <trkpt lat="45.16973" lon="5.93739">
        <ele>1999.5999755859</ele>
        <time>2016-04-10T07:11:37.000Z</time>
      </trkpt>
      <trkpt lat="45.1697" lon="5.93744">
        <ele>2000.1999511719</ele>
        <time>2016-04-10T07:11:41.000Z</time>
      </trkpt>
      <trkpt lat="45.16968" lon="5.93747">
        <ele>2000.8000488281</ele>
        <time>2016-04-10T07:11:44.000Z</time>
      </trkpt>
      <trkpt lat="45.16965" lon="5.93751">
        <ele>2001.4000244141</ele>
        <time>2016-04-10T07:11:47.000Z</time>
      </trkpt>
      <trkpt lat="45.16962" lon="5.93754">
        <ele>2001.8000488281</ele>
        <time>2016-04-10T07:11:51.000Z</time>
      </trkpt>
      <trkpt lat="45.16961" lon="5.93755">
        <ele>2002</ele>
        <time>2016-04-10T07:11:53.000Z</time>
      </trkpt>
      <trkpt lat="45.16955" lon="5.9376">
        <ele>2002.4000244141</ele>
        <time>2016-04-10T07:12:00.000Z</time>
      </trkpt>
      <trkpt lat="45.16951" lon="5.93763">
        <ele>2002.8000488281</ele>
        <time>2016-04-10T07:12:06.000Z</time>
      </trkpt>
      <trkpt lat="45.16949" lon="5.93764">
        <ele>2003</ele>
        <time>2016-04-10T07:12:07.000Z</time>
      </trkpt>
      <trkpt lat="45.16944" lon="5.93771">
        <ele>2003.8000488281</ele>
        <time>2016-04-10T07:12:14.000Z</time>
      </trkpt>
      <trkpt lat="45.16943" lon="5.93775">
        <ele>2003.8000488281</ele>
        <time>2016-04-10T07:12:17.000Z</time>
      </trkpt>
      <trkpt lat="45.1694" lon="5.93779">
        <ele>2004.5999755859</ele>
        <time>2016-04-10T07:12:21.000Z</time>
      </trkpt>
      <trkpt lat="45.16939" lon="5.93782">
        <ele>2005.1999511719</ele>
        <time>2016-04-10T07:12:23.000Z</time>
      </trkpt>
      <trkpt lat="45.16935" lon="5.93788">
        <ele>2005.8000488281</ele>
        <time>2016-04-10T07:12:28.000Z</time>
      </trkpt>
      <trkpt lat="45.16933" lon="5.93789">
        <ele>2006.4000244141</ele>
        <time>2016-04-10T07:12:30.000Z</time>
      </trkpt>
      <trkpt lat="45.16928" lon="5.93794">
        <ele>2007.1999511719</ele>
        <time>2016-04-10T07:12:35.000Z</time>
      </trkpt>
      <trkpt lat="45.16926" lon="5.93796">
        <ele>2007.4000244141</ele>
        <time>2016-04-10T07:12:38.000Z</time>
      </trkpt>
      <trkpt lat="45.16922" lon="5.938">
        <ele>2007.8000488281</ele>
        <time>2016-04-10T07:12:42.000Z</time>
      </trkpt>
      <trkpt lat="45.16919" lon="5.93805">
        <ele>2007.8000488281</ele>
        <time>2016-04-10T07:12:49.000Z</time>
      </trkpt>
      <trkpt lat="45.16918" lon="5.93808">
        <ele>2008.4000244141</ele>
        <time>2016-04-10T07:12:53.000Z</time>
      </trkpt>
      <trkpt lat="45.16916" lon="5.93813">
        <ele>2009.1999511719</ele>
        <time>2016-04-10T07:12:57.000Z</time>
      </trkpt>
      <trkpt lat="45.16915" lon="5.93815">
        <ele>2009.5999755859</ele>
        <time>2016-04-10T07:12:58.000Z</time>
      </trkpt>
      <trkpt lat="45.16913" lon="5.93821">
        <ele>2010.5999755859</ele>
        <time>2016-04-10T07:13:04.000Z</time>
      </trkpt>
      <trkpt lat="45.16912" lon="5.93824">
        <ele>2011</ele>
        <time>2016-04-10T07:13:06.000Z</time>
      </trkpt>
      <trkpt lat="45.16912" lon="5.93828">
        <ele>2011.8000488281</ele>
        <time>2016-04-10T07:13:09.000Z</time>
      </trkpt>
      <trkpt lat="45.1691" lon="5.93833">
        <ele>2013</ele>
        <time>2016-04-10T07:13:13.000Z</time>
      </trkpt>
      <trkpt lat="45.16909" lon="5.93834">
        <ele>2013.1999511719</ele>
        <time>2016-04-10T07:13:14.000Z</time>
      </trkpt>
      <trkpt lat="45.16907" lon="5.93838">
        <ele>2014</ele>
        <time>2016-04-10T07:13:19.000Z</time>
      </trkpt>
      <trkpt lat="45.16906" lon="5.9384">
        <ele>2014.1999511719</ele>
        <time>2016-04-10T07:13:22.000Z</time>
      </trkpt>
      <trkpt lat="45.16903" lon="5.93843">
        <ele>2015</ele>
        <time>2016-04-10T07:13:26.000Z</time>
      </trkpt>
      <trkpt lat="45.16901" lon="5.93846">
        <ele>2015.4000244141</ele>
        <time>2016-04-10T07:13:29.000Z</time>
      </trkpt>
      <trkpt lat="45.169" lon="5.9385">
        <ele>2016.1999511719</ele>
        <time>2016-04-10T07:13:33.000Z</time>
      </trkpt>
      <trkpt lat="45.16899" lon="5.93853">
        <ele>2016.8000488281</ele>
        <time>2016-04-10T07:13:36.000Z</time>
      </trkpt>
      <trkpt lat="45.16897" lon="5.93855">
        <ele>2017.1999511719</ele>
        <time>2016-04-10T07:13:38.000Z</time>
      </trkpt>
      <trkpt lat="45.16894" lon="5.93862">
        <ele>2018</ele>
        <time>2016-04-10T07:13:43.000Z</time>
      </trkpt>
      <trkpt lat="45.16893" lon="5.93864">
        <ele>2018.4000244141</ele>
        <time>2016-04-10T07:13:45.000Z</time>
      </trkpt>
      <trkpt lat="45.16889" lon="5.93871">
        <ele>2019.1999511719</ele>
        <time>2016-04-10T07:13:51.000Z</time>
      </trkpt>
      <trkpt lat="45.16887" lon="5.93874">
        <ele>2019.4000244141</ele>
        <time>2016-04-10T07:13:54.000Z</time>
      </trkpt>
      <trkpt lat="45.16886" lon="5.93877">
        <ele>2019.4000244141</ele>
        <time>2016-04-10T07:13:57.000Z</time>
      </trkpt>
      <trkpt lat="45.16881" lon="5.93882">
        <ele>2020.1999511719</ele>
        <time>2016-04-10T07:14:04.000Z</time>
      </trkpt>
      <trkpt lat="45.1688" lon="5.93883">
        <ele>2020.4000244141</ele>
        <time>2016-04-10T07:14:05.000Z</time>
      </trkpt>
      <trkpt lat="45.16876" lon="5.93887">
        <ele>2021</ele>
        <time>2016-04-10T07:14:11.000Z</time>
      </trkpt>
      <trkpt lat="45.16871" lon="5.93891">
        <ele>2021.4000244141</ele>
        <time>2016-04-10T07:14:17.000Z</time>
      </trkpt>
      <trkpt lat="45.16868" lon="5.93894">
        <ele>2021.8000488281</ele>
        <time>2016-04-10T07:14:21.000Z</time>
      </trkpt>
      <trkpt lat="45.16862" lon="5.939">
        <ele>2022.4000244141</ele>
        <time>2016-04-10T07:14:27.000Z</time>
      </trkpt>
      <trkpt lat="45.1686" lon="5.93902">
        <ele>2022.8000488281</ele>
        <time>2016-04-10T07:14:29.000Z</time>
      </trkpt>
      <trkpt lat="45.16855" lon="5.93908">
        <ele>2023.4000244141</ele>
        <time>2016-04-10T07:14:36.000Z</time>
      </trkpt>
      <trkpt lat="45.1685" lon="5.9391">
        <ele>2024.5999755859</ele>
        <time>2016-04-10T07:14:42.000Z</time>
      </trkpt>
      <trkpt lat="45.16849" lon="5.9391">
        <ele>2024.8000488281</ele>
        <time>2016-04-10T07:14:43.000Z</time>
      </trkpt>
      <trkpt lat="45.16843" lon="5.93915">
        <ele>2025.5999755859</ele>
        <time>2016-04-10T07:14:51.000Z</time>
      </trkpt>
      <trkpt lat="45.16841" lon="5.93916">
        <ele>2025.5999755859</ele>
        <time>2016-04-10T07:14:52.000Z</time>
      </trkpt>
      <trkpt lat="45.16836" lon="5.93917">
        <ele>2025.8000488281</ele>
        <time>2016-04-10T07:14:57.000Z</time>
      </trkpt>
      <trkpt lat="45.1683" lon="5.93921">
        <ele>2026.1999511719</ele>
        <time>2016-04-10T07:15:04.000Z</time>
      </trkpt>
      <trkpt lat="45.16826" lon="5.93921">
        <ele>2026.8000488281</ele>
        <time>2016-04-10T07:15:07.000Z</time>
      </trkpt>
      <trkpt lat="45.16822" lon="5.9392">
        <ele>2027</ele>
        <time>2016-04-10T07:15:10.000Z</time>
      </trkpt>
      <trkpt lat="45.16819" lon="5.93919">
        <ele>2027.1999511719</ele>
        <time>2016-04-10T07:15:12.000Z</time>
      </trkpt>
      <trkpt lat="45.16814" lon="5.93914">
        <ele>2027.1999511719</ele>
        <time>2016-04-10T07:15:17.000Z</time>
      </trkpt>
      <trkpt lat="45.16806" lon="5.93909">
        <ele>2027.4000244141</ele>
        <time>2016-04-10T07:15:23.000Z</time>
      </trkpt>
      <trkpt lat="45.16802" lon="5.93904">
        <ele>2027.4000244141</ele>
        <time>2016-04-10T07:15:29.000Z</time>
      </trkpt>
      <trkpt lat="45.16799" lon="5.939">
        <ele>2028</ele>
        <time>2016-04-10T07:15:34.000Z</time>
      </trkpt>
      <trkpt lat="45.16797" lon="5.93899">
        <ele>2028.1999511719</ele>
        <time>2016-04-10T07:15:35.000Z</time>
      </trkpt>
      <trkpt lat="45.16795" lon="5.93896">
        <ele>2029</ele>
        <time>2016-04-10T07:15:38.000Z</time>
      </trkpt>
      <trkpt lat="45.16793" lon="5.93894">
        <ele>2029.4000244141</ele>
        <time>2016-04-10T07:15:40.000Z</time>
      </trkpt>
      <trkpt lat="45.16788" lon="5.93893">
        <ele>2030</ele>
        <time>2016-04-10T07:15:45.000Z</time>
      </trkpt>
      <trkpt lat="45.16787" lon="5.93893">
        <ele>2030</ele>
        <time>2016-04-10T07:15:46.000Z</time>
      </trkpt>
      <trkpt lat="45.16783" lon="5.93893">
        <ele>2031</ele>
        <time>2016-04-10T07:15:51.000Z</time>
      </trkpt>
      <trkpt lat="45.16778" lon="5.93895">
        <ele>2032.1999511719</ele>
        <time>2016-04-10T07:15:56.000Z</time>
      </trkpt>
      <trkpt lat="45.16778" lon="5.93897">
        <ele>2032.5999755859</ele>
        <time>2016-04-10T07:15:57.000Z</time>
      </trkpt>
      <trkpt lat="45.16776" lon="5.93899">
        <ele>2033.4000244141</ele>
        <time>2016-04-10T07:15:59.000Z</time>
      </trkpt>
      <trkpt lat="45.16775" lon="5.93903">
        <ele>2034.4000244141</ele>
        <time>2016-04-10T07:16:03.000Z</time>
      </trkpt>
      <trkpt lat="45.16775" lon="5.93905">
        <ele>2035</ele>
        <time>2016-04-10T07:16:05.000Z</time>
      </trkpt>
      <trkpt lat="45.16774" lon="5.93909">
        <ele>2035.5999755859</ele>
        <time>2016-04-10T07:16:07.000Z</time>
      </trkpt>
      <trkpt lat="45.16771" lon="5.93912">
        <ele>2036.5999755859</ele>
        <time>2016-04-10T07:16:13.000Z</time>
      </trkpt>
      <trkpt lat="45.16766" lon="5.93918">
        <ele>2037.5999755859</ele>
        <time>2016-04-10T07:16:19.000Z</time>
      </trkpt>
      <trkpt lat="45.16761" lon="5.93925">
        <ele>2038.5999755859</ele>
        <time>2016-04-10T07:16:26.000Z</time>
      </trkpt>
      <trkpt lat="45.16759" lon="5.93932">
        <ele>2038.5999755859</ele>
        <time>2016-04-10T07:16:31.000Z</time>
      </trkpt>
      <trkpt lat="45.16758" lon="5.93933">
        <ele>2038.8000488281</ele>
        <time>2016-04-10T07:16:32.000Z</time>
      </trkpt>
      <trkpt lat="45.16757" lon="5.93936">
        <ele>2039.1999511719</ele>
        <time>2016-04-10T07:16:34.000Z</time>
      </trkpt>
      <trkpt lat="45.16755" lon="5.93949">
        <ele>2039.4000244141</ele>
        <time>2016-04-10T07:16:41.000Z</time>
      </trkpt>
      <trkpt lat="45.16754" lon="5.93958">
        <ele>2039.1999511719</ele>
        <time>2016-04-10T07:16:47.000Z</time>
      </trkpt>
      <trkpt lat="45.16754" lon="5.93969">
        <ele>2039.4000244141</ele>
        <time>2016-04-10T07:16:53.000Z</time>
      </trkpt>
      <trkpt lat="45.16752" lon="5.93974">
        <ele>2039.5999755859</ele>
        <time>2016-04-10T07:16:56.000Z</time>
      </trkpt>
      <trkpt lat="45.16751" lon="5.93977">
        <ele>2039.8000488281</ele>
        <time>2016-04-10T07:16:58.000Z</time>
      </trkpt>
      <trkpt lat="45.1675" lon="5.93981">
        <ele>2040</ele>
        <time>2016-04-10T07:17:00.000Z</time>
      </trkpt>
      <trkpt lat="45.16746" lon="5.93992">
        <ele>2040.1999511719</ele>
        <time>2016-04-10T07:17:07.000Z</time>
      </trkpt>
      <trkpt lat="45.16741" lon="5.94005">
        <ele>2040.4000244141</ele>
        <time>2016-04-10T07:17:15.000Z</time>
      </trkpt>
      <trkpt lat="45.16736" lon="5.94016">
        <ele>2040.5999755859</ele>
        <time>2016-04-10T07:17:22.000Z</time>
      </trkpt>
      <trkpt lat="45.16734" lon="5.94019">
        <ele>2040.8000488281</ele>
        <time>2016-04-10T07:17:25.000Z</time>
      </trkpt>
      <trkpt lat="45.16732" lon="5.94023">
        <ele>2041</ele>
        <time>2016-04-10T07:17:28.000Z</time>
      </trkpt>
      <trkpt lat="45.16728" lon="5.94032">
        <ele>2042</ele>
        <time>2016-04-10T07:17:35.000Z</time>
      </trkpt>
      <trkpt lat="45.16727" lon="5.94034">
        <ele>2042.4000244141</ele>
        <time>2016-04-10T07:17:36.000Z</time>
      </trkpt>
      <trkpt lat="45.16724" lon="5.94037">
        <ele>2043.1999511719</ele>
        <time>2016-04-10T07:17:40.000Z</time>
      </trkpt>
      <trkpt lat="45.16723" lon="5.94041">
        <ele>2043.5999755859</ele>
        <time>2016-04-10T07:17:43.000Z</time>
      </trkpt>
      <trkpt lat="45.16721" lon="5.94045">
        <ele>2044.4000244141</ele>
        <time>2016-04-10T07:17:46.000Z</time>
      </trkpt>
      <trkpt lat="45.1672" lon="5.94049">
        <ele>2045</ele>
        <time>2016-04-10T07:17:50.000Z</time>
      </trkpt>
      <trkpt lat="45.16718" lon="5.94052">
        <ele>2045.4000244141</ele>
        <time>2016-04-10T07:17:52.000Z</time>
      </trkpt>
      <trkpt lat="45.16718" lon="5.94056">
        <ele>2046.4000244141</ele>
        <time>2016-04-10T07:17:56.000Z</time>
      </trkpt>
      <trkpt lat="45.16715" lon="5.94061">
        <ele>2047.4000244141</ele>
        <time>2016-04-10T07:18:00.000Z</time>
      </trkpt>
      <trkpt lat="45.16713" lon="5.94065">
        <ele>2048</ele>
        <time>2016-04-10T07:18:04.000Z</time>
      </trkpt>
      <trkpt lat="45.16711" lon="5.94068">
        <ele>2048.6000976562</ele>
        <time>2016-04-10T07:18:07.000Z</time>
      </trkpt>
      <trkpt lat="45.16708" lon="5.94073">
        <ele>2049.1999511719</ele>
        <time>2016-04-10T07:18:12.000Z</time>
      </trkpt>
      <trkpt lat="45.16705" lon="5.94078">
        <ele>2049.6000976562</ele>
        <time>2016-04-10T07:18:16.000Z</time>
      </trkpt>
      <trkpt lat="45.16703" lon="5.94082">
        <ele>2049.6000976562</ele>
        <time>2016-04-10T07:18:19.000Z</time>
      </trkpt>
      <trkpt lat="45.16699" lon="5.94088">
        <ele>2050.6000976562</ele>
        <time>2016-04-10T07:18:24.000Z</time>
      </trkpt>
      <trkpt lat="45.16698" lon="5.94089">
        <ele>2051</ele>
        <time>2016-04-10T07:18:26.000Z</time>
      </trkpt>
      <trkpt lat="45.16697" lon="5.9409">
        <ele>2051.1999511719</ele>
        <time>2016-04-10T07:18:33.000Z</time>
      </trkpt>
      <trkpt lat="45.16697" lon="5.9409">
        <ele>2051.1999511719</ele>
        <time>2016-04-10T07:18:45.000Z</time>
      </trkpt>
      <trkpt lat="45.16697" lon="5.9409">
        <ele>2051</ele>
        <time>2016-04-10T07:18:56.000Z</time>
      </trkpt>
      <trkpt lat="45.16697" lon="5.9409">
        <ele>2051</ele>
        <time>2016-04-10T07:19:10.000Z</time>
      </trkpt>
      <trkpt lat="45.16697" lon="5.9409">
        <ele>2051.1999511719</ele>
        <time>2016-04-10T07:19:22.000Z</time>
      </trkpt>
      <trkpt lat="45.16697" lon="5.9409">
        <ele>2051.1999511719</ele>
        <time>2016-04-10T07:19:35.000Z</time>
      </trkpt>
      <trkpt lat="45.16697" lon="5.9409">
        <ele>2051</ele>
        <time>2016-04-10T07:19:49.000Z</time>
      </trkpt>
      <trkpt lat="45.16697" lon="5.9409">
        <ele>2051</ele>
        <time>2016-04-10T07:20:04.000Z</time>
      </trkpt>
      <trkpt lat="45.16697" lon="5.9409">
        <ele>2051</ele>
        <time>2016-04-10T07:20:17.000Z</time>
      </trkpt>
      <trkpt lat="45.16696" lon="5.9409">
        <ele>2050.8000488281</ele>
        <time>2016-04-10T07:20:26.000Z</time>
      </trkpt>
      <trkpt lat="45.16696" lon="5.9409">
        <ele>2050.8000488281</ele>
        <time>2016-04-10T07:20:39.000Z</time>
      </trkpt>
      <trkpt lat="45.16695" lon="5.94093">
        <ele>2051</ele>
        <time>2016-04-10T07:20:49.000Z</time>
      </trkpt>
      <trkpt lat="45.1669" lon="5.94102">
        <ele>2051.8000488281</ele>
        <time>2016-04-10T07:20:55.000Z</time>
      </trkpt>
      <trkpt lat="45.16688" lon="5.94104">
        <ele>2051.8000488281</ele>
        <time>2016-04-10T07:20:57.000Z</time>
      </trkpt>
      <trkpt lat="45.16682" lon="5.94115">
        <ele>2052.3999023438</ele>
        <time>2016-04-10T07:21:05.000Z</time>
      </trkpt>
      <trkpt lat="45.16676" lon="5.94122">
        <ele>2052.8000488281</ele>
        <time>2016-04-10T07:21:10.000Z</time>
      </trkpt>
      <trkpt lat="45.16674" lon="5.94125">
        <ele>2053</ele>
        <time>2016-04-10T07:21:13.000Z</time>
      </trkpt>
      <trkpt lat="45.16669" lon="5.94131">
        <ele>2053.8000488281</ele>
        <time>2016-04-10T07:21:20.000Z</time>
      </trkpt>
      <trkpt lat="45.16664" lon="5.94135">
        <ele>2054.6000976562</ele>
        <time>2016-04-10T07:21:26.000Z</time>
      </trkpt>
      <trkpt lat="45.16661" lon="5.94136">
        <ele>2055</ele>
        <time>2016-04-10T07:21:28.000Z</time>
      </trkpt>
      <trkpt lat="45.16656" lon="5.94137">
        <ele>2055.3999023438</ele>
        <time>2016-04-10T07:21:32.000Z</time>
      </trkpt>
      <trkpt lat="45.16652" lon="5.9414">
        <ele>2056</ele>
        <time>2016-04-10T07:21:36.000Z</time>
      </trkpt>
      <trkpt lat="45.1665" lon="5.9414">
        <ele>2056.3999023438</ele>
        <time>2016-04-10T07:21:38.000Z</time>
      </trkpt>
      <trkpt lat="45.16644" lon="5.94143">
        <ele>2057</ele>
        <time>2016-04-10T07:21:43.000Z</time>
      </trkpt>
      <trkpt lat="45.16643" lon="5.94143">
        <ele>2057.1999511719</ele>
        <time>2016-04-10T07:21:44.000Z</time>
      </trkpt>
      <trkpt lat="45.16637" lon="5.94144">
        <ele>2057.3999023438</ele>
        <time>2016-04-10T07:21:50.000Z</time>
      </trkpt>
      <trkpt lat="45.16629" lon="5.94144">
        <ele>2058</ele>
        <time>2016-04-10T07:21:57.000Z</time>
      </trkpt>
      <trkpt lat="45.16628" lon="5.94144">
        <ele>2058.3999023438</ele>
        <time>2016-04-10T07:21:58.000Z</time>
      </trkpt>
      <trkpt lat="45.16624" lon="5.94145">
        <ele>2059.3999023438</ele>
        <time>2016-04-10T07:22:03.000Z</time>
      </trkpt>
      <trkpt lat="45.16619" lon="5.94144">
        <ele>2060.6000976562</ele>
        <time>2016-04-10T07:22:09.000Z</time>
      </trkpt>
      <trkpt lat="45.16617" lon="5.94145">
        <ele>2061</ele>
        <time>2016-04-10T07:22:10.000Z</time>
      </trkpt>
      <trkpt lat="45.16611" lon="5.94145">
        <ele>2061.8000488281</ele>
        <time>2016-04-10T07:22:15.000Z</time>
      </trkpt>
      <trkpt lat="45.16608" lon="5.94144">
        <ele>2062.1999511719</ele>
        <time>2016-04-10T07:22:18.000Z</time>
      </trkpt>
      <trkpt lat="45.16605" lon="5.94144">
        <ele>2062.8000488281</ele>
        <time>2016-04-10T07:22:21.000Z</time>
      </trkpt>
      <trkpt lat="45.16604" lon="5.94145">
        <ele>2063</ele>
        <time>2016-04-10T07:22:23.000Z</time>
      </trkpt>
      <trkpt lat="45.16598" lon="5.94145">
        <ele>2063.8000488281</ele>
        <time>2016-04-10T07:22:28.000Z</time>
      </trkpt>
      <trkpt lat="45.16596" lon="5.94145">
        <ele>2064</ele>
        <time>2016-04-10T07:22:30.000Z</time>
      </trkpt>
      <trkpt lat="45.16593" lon="5.94147">
        <ele>2064.8000488281</ele>
        <time>2016-04-10T07:22:34.000Z</time>
      </trkpt>
      <trkpt lat="45.1659" lon="5.94146">
        <ele>2065.6000976562</ele>
        <time>2016-04-10T07:22:37.000Z</time>
      </trkpt>
      <trkpt lat="45.16587" lon="5.94146">
        <ele>2066</ele>
        <time>2016-04-10T07:22:40.000Z</time>
      </trkpt>
      <trkpt lat="45.16584" lon="5.94148">
        <ele>2066.8000488281</ele>
        <time>2016-04-10T07:22:45.000Z</time>
      </trkpt>
      <trkpt lat="45.16581" lon="5.94148">
        <ele>2067.1999511719</ele>
        <time>2016-04-10T07:22:47.000Z</time>
      </trkpt>
      <trkpt lat="45.16579" lon="5.94152">
        <ele>2068.1999511719</ele>
        <time>2016-04-10T07:22:52.000Z</time>
      </trkpt>
      <trkpt lat="45.16577" lon="5.94157">
        <ele>2069.1999511719</ele>
        <time>2016-04-10T07:22:56.000Z</time>
      </trkpt>
      <trkpt lat="45.16574" lon="5.94162">
        <ele>2070.1999511719</ele>
        <time>2016-04-10T07:22:59.000Z</time>
      </trkpt>
      <trkpt lat="45.16573" lon="5.94165">
        <ele>2070.3999023438</ele>
        <time>2016-04-10T07:23:00.000Z</time>
      </trkpt>
      <trkpt lat="45.16572" lon="5.94169">
        <ele>2070.6000976562</ele>
        <time>2016-04-10T07:23:02.000Z</time>
      </trkpt>
      <trkpt lat="45.16572" lon="5.94173">
        <ele>2071.1999511719</ele>
        <time>2016-04-10T07:23:05.000Z</time>
      </trkpt>
      <trkpt lat="45.16572" lon="5.94174">
        <ele>2071.3999023438</ele>
        <time>2016-04-10T07:23:07.000Z</time>
      </trkpt>
      <trkpt lat="45.1657" lon="5.94181">
        <ele>2071.8000488281</ele>
        <time>2016-04-10T07:23:11.000Z</time>
      </trkpt>
      <trkpt lat="45.16569" lon="5.94195">
        <ele>2072.3999023438</ele>
        <time>2016-04-10T07:23:17.000Z</time>
      </trkpt>
      <trkpt lat="45.16566" lon="5.94207">
        <ele>2072.1999511719</ele>
        <time>2016-04-10T07:23:24.000Z</time>
      </trkpt>
      <trkpt lat="45.16564" lon="5.94211">
        <ele>2072.3999023438</ele>
        <time>2016-04-10T07:23:28.000Z</time>
      </trkpt>
      <trkpt lat="45.16562" lon="5.94213">
        <ele>2073</ele>
        <time>2016-04-10T07:23:31.000Z</time>
      </trkpt>
      <trkpt lat="45.1656" lon="5.94215">
        <ele>2073.6000976562</ele>
        <time>2016-04-10T07:23:33.000Z</time>
      </trkpt>
      <trkpt lat="45.16556" lon="5.94219">
        <ele>2074.6000976562</ele>
        <time>2016-04-10T07:23:38.000Z</time>
      </trkpt>
      <trkpt lat="45.1655" lon="5.94224">
        <ele>2075.6000976562</ele>
        <time>2016-04-10T07:23:45.000Z</time>
      </trkpt>
      <trkpt lat="45.16549" lon="5.94225">
        <ele>2075.8000488281</ele>
        <time>2016-04-10T07:23:46.000Z</time>
      </trkpt>
      <trkpt lat="45.16542" lon="5.94232">
        <ele>2076.8000488281</ele>
        <time>2016-04-10T07:23:53.000Z</time>
      </trkpt>
      <trkpt lat="45.16537" lon="5.94243">
        <ele>2077.1999511719</ele>
        <time>2016-04-10T07:24:00.000Z</time>
      </trkpt>
      <trkpt lat="45.16531" lon="5.94258">
        <ele>2077.6000976562</ele>
        <time>2016-04-10T07:24:08.000Z</time>
      </trkpt>
      <trkpt lat="45.16525" lon="5.94263">
        <ele>2077.3999023438</ele>
        <time>2016-04-10T07:24:14.000Z</time>
      </trkpt>
      <trkpt lat="45.1652" lon="5.94267">
        <ele>2078</ele>
        <time>2016-04-10T07:24:21.000Z</time>
      </trkpt>
      <trkpt lat="45.16515" lon="5.94268">
        <ele>2079</ele>
        <time>2016-04-10T07:24:26.000Z</time>
      </trkpt>
      <trkpt lat="45.16513" lon="5.94271">
        <ele>2079.3999023438</ele>
        <time>2016-04-10T07:24:29.000Z</time>
      </trkpt>
      <trkpt lat="45.16508" lon="5.94277">
        <ele>2080.1999511719</ele>
        <time>2016-04-10T07:24:35.000Z</time>
      </trkpt>
      <trkpt lat="45.16504" lon="5.94281">
        <ele>2080.8000488281</ele>
        <time>2016-04-10T07:24:40.000Z</time>
      </trkpt>
      <trkpt lat="45.16502" lon="5.94287">
        <ele>2081.3999023438</ele>
        <time>2016-04-10T07:24:46.000Z</time>
      </trkpt>
      <trkpt lat="45.16499" lon="5.94289">
        <ele>2081.8000488281</ele>
        <time>2016-04-10T07:24:48.000Z</time>
      </trkpt>
      <trkpt lat="45.16496" lon="5.94295">
        <ele>2082.3999023438</ele>
        <time>2016-04-10T07:24:53.000Z</time>
      </trkpt>
      <trkpt lat="45.16495" lon="5.94298">
        <ele>2082.6000976562</ele>
        <time>2016-04-10T07:24:55.000Z</time>
      </trkpt>
      <trkpt lat="45.16489" lon="5.94305">
        <ele>2083.3999023438</ele>
        <time>2016-04-10T07:25:03.000Z</time>
      </trkpt>
      <trkpt lat="45.16488" lon="5.94306">
        <ele>2083.6000976562</ele>
        <time>2016-04-10T07:25:04.000Z</time>
      </trkpt>
      <trkpt lat="45.16485" lon="5.94313">
        <ele>2084.6000976562</ele>
        <time>2016-04-10T07:25:11.000Z</time>
      </trkpt>
      <trkpt lat="45.16485" lon="5.94314">
        <ele>2084.8000488281</ele>
        <time>2016-04-10T07:25:12.000Z</time>
      </trkpt>
      <trkpt lat="45.16482" lon="5.94321">
        <ele>2085.1999511719</ele>
        <time>2016-04-10T07:25:18.000Z</time>
      </trkpt>
      <trkpt lat="45.1648" lon="5.94326">
        <ele>2085.8000488281</ele>
        <time>2016-04-10T07:25:21.000Z</time>
      </trkpt>
      <trkpt lat="45.16478" lon="5.94332">
        <ele>2086</ele>
        <time>2016-04-10T07:25:26.000Z</time>
      </trkpt>
      <trkpt lat="45.16476" lon="5.94338">
        <ele>2086.8000488281</ele>
        <time>2016-04-10T07:25:30.000Z</time>
      </trkpt>
      <trkpt lat="45.16474" lon="5.94341">
        <ele>2087.1999511719</ele>
        <time>2016-04-10T07:25:33.000Z</time>
      </trkpt>
      <trkpt lat="45.16472" lon="5.94344">
        <ele>2088</ele>
        <time>2016-04-10T07:25:36.000Z</time>
      </trkpt>
      <trkpt lat="45.16469" lon="5.94349">
        <ele>2088.6000976562</ele>
        <time>2016-04-10T07:25:41.000Z</time>
      </trkpt>
      <trkpt lat="45.16468" lon="5.94351">
        <ele>2089</ele>
        <time>2016-04-10T07:25:43.000Z</time>
      </trkpt>
      <trkpt lat="45.16464" lon="5.94357">
        <ele>2089.6000976562</ele>
        <time>2016-04-10T07:25:49.000Z</time>
      </trkpt>
      <trkpt lat="45.16462" lon="5.9436">
        <ele>2090.1999511719</ele>
        <time>2016-04-10T07:25:52.000Z</time>
      </trkpt>
      <trkpt lat="45.16459" lon="5.94366">
        <ele>2091</ele>
        <time>2016-04-10T07:25:56.000Z</time>
      </trkpt>
      <trkpt lat="45.16459" lon="5.94366">
        <ele>2091.3999023438</ele>
        <time>2016-04-10T07:25:57.000Z</time>
      </trkpt>
      <trkpt lat="45.16455" lon="5.94371">
        <ele>2092.6000976562</ele>
        <time>2016-04-10T07:26:02.000Z</time>
      </trkpt>
      <trkpt lat="45.16455" lon="5.94372">
        <ele>2093</ele>
        <time>2016-04-10T07:26:03.000Z</time>
      </trkpt>
      <trkpt lat="45.16453" lon="5.94375">
        <ele>2093.6000976562</ele>
        <time>2016-04-10T07:26:05.000Z</time>
      </trkpt>
      <trkpt lat="45.16451" lon="5.94379">
        <ele>2094.8000488281</ele>
        <time>2016-04-10T07:26:10.000Z</time>
      </trkpt>
      <trkpt lat="45.16449" lon="5.94383">
        <ele>2095.8000488281</ele>
        <time>2016-04-10T07:26:14.000Z</time>
      </trkpt>
      <trkpt lat="45.16447" lon="5.94389">
        <ele>2096.8000488281</ele>
        <time>2016-04-10T07:26:18.000Z</time>
      </trkpt>
      <trkpt lat="45.16445" lon="5.94396">
        <ele>2097.8000488281</ele>
        <time>2016-04-10T07:26:23.000Z</time>
      </trkpt>
      <trkpt lat="45.16444" lon="5.94401">
        <ele>2098.8000488281</ele>
        <time>2016-04-10T07:26:26.000Z</time>
      </trkpt>
      <trkpt lat="45.16443" lon="5.94405">
        <ele>2099.3999023438</ele>
        <time>2016-04-10T07:26:29.000Z</time>
      </trkpt>
      <trkpt lat="45.16443" lon="5.94406">
        <ele>2099.8000488281</ele>
        <time>2016-04-10T07:26:31.000Z</time>
      </trkpt>
      <trkpt lat="45.16443" lon="5.94407">
        <ele>2101</ele>
        <time>2016-04-10T07:26:35.000Z</time>
      </trkpt>
      <trkpt lat="45.16444" lon="5.94407">
        <ele>2101.1999511719</ele>
        <time>2016-04-10T07:26:36.000Z</time>
      </trkpt>
      <trkpt lat="45.16444" lon="5.94411">
        <ele>2102</ele>
        <time>2016-04-10T07:26:40.000Z</time>
      </trkpt>
      <trkpt lat="45.16444" lon="5.94413">
        <ele>2102.6000976562</ele>
        <time>2016-04-10T07:26:43.000Z</time>
      </trkpt>
      <trkpt lat="45.16443" lon="5.94418">
        <ele>2103.3999023438</ele>
        <time>2016-04-10T07:26:47.000Z</time>
      </trkpt>
      <trkpt lat="45.16444" lon="5.94421">
        <ele>2104.3999023438</ele>
        <time>2016-04-10T07:26:50.000Z</time>
      </trkpt>
      <trkpt lat="45.16444" lon="5.94423">
        <ele>2105.3999023438</ele>
        <time>2016-04-10T07:26:55.000Z</time>
      </trkpt>
      <trkpt lat="45.16444" lon="5.94422">
        <ele>2105.6000976562</ele>
        <time>2016-04-10T07:26:56.000Z</time>
      </trkpt>
      <trkpt lat="45.16444" lon="5.94423">
        <ele>2106.6000976562</ele>
        <time>2016-04-10T07:27:00.000Z</time>
      </trkpt>
      <trkpt lat="45.16443" lon="5.94423">
        <ele>2107.3999023438</ele>
        <time>2016-04-10T07:27:03.000Z</time>
      </trkpt>
      <trkpt lat="45.16442" lon="5.94425">
        <ele>2107.8000488281</ele>
        <time>2016-04-10T07:27:05.000Z</time>
      </trkpt>
      <trkpt lat="45.16441" lon="5.94427">
        <ele>2108.3999023438</ele>
        <time>2016-04-10T07:27:10.000Z</time>
      </trkpt>
      <trkpt lat="45.16439" lon="5.94429">
        <ele>2109</ele>
        <time>2016-04-10T07:27:13.000Z</time>
      </trkpt>
      <trkpt lat="45.16436" lon="5.94432">
        <ele>2109.8000488281</ele>
        <time>2016-04-10T07:27:17.000Z</time>
      </trkpt>
      <trkpt lat="45.16435" lon="5.94433">
        <ele>2110</ele>
        <time>2016-04-10T07:27:18.000Z</time>
      </trkpt>
      <trkpt lat="45.16433" lon="5.94432">
        <ele>2111.1999511719</ele>
        <time>2016-04-10T07:27:23.000Z</time>
      </trkpt>
      <trkpt lat="45.16432" lon="5.94432">
        <ele>2111.6000976562</ele>
        <time>2016-04-10T07:27:24.000Z</time>
      </trkpt>
      <trkpt lat="45.16429" lon="5.94425">
        <ele>2112.3999023438</ele>
        <time>2016-04-10T07:27:30.000Z</time>
      </trkpt>
      <trkpt lat="45.16428" lon="5.94423">
        <ele>2112.8000488281</ele>
        <time>2016-04-10T07:27:32.000Z</time>
      </trkpt>
      <trkpt lat="45.16425" lon="5.94416">
        <ele>2113.3999023438</ele>
        <time>2016-04-10T07:27:37.000Z</time>
      </trkpt>
      <trkpt lat="45.16425" lon="5.94415">
        <ele>2113.3999023438</ele>
        <time>2016-04-10T07:27:38.000Z</time>
      </trkpt>
      <trkpt lat="45.16424" lon="5.94413">
        <ele>2114.3999023438</ele>
        <time>2016-04-10T07:27:44.000Z</time>
      </trkpt>
      <trkpt lat="45.16423" lon="5.94412">
        <ele>2114.6000976562</ele>
        <time>2016-04-10T07:27:45.000Z</time>
      </trkpt>
      <trkpt lat="45.16422" lon="5.94407">
        <ele>2115.1999511719</ele>
        <time>2016-04-10T07:27:51.000Z</time>
      </trkpt>
      <trkpt lat="45.16421" lon="5.94406">
        <ele>2115.6000976562</ele>
        <time>2016-04-10T07:27:52.000Z</time>
      </trkpt>
      <trkpt lat="45.1642" lon="5.94396">
        <ele>2116.6000976562</ele>
        <time>2016-04-10T07:27:57.000Z</time>
      </trkpt>
      <trkpt lat="45.16419" lon="5.94395">
        <ele>2116.8000488281</ele>
        <time>2016-04-10T07:27:58.000Z</time>
      </trkpt>
      <trkpt lat="45.16417" lon="5.94391">
        <ele>2117.8000488281</ele>
        <time>2016-04-10T07:28:03.000Z</time>
      </trkpt>
      <trkpt lat="45.16414" lon="5.94385">
        <ele>2118.8000488281</ele>
        <time>2016-04-10T07:28:09.000Z</time>
      </trkpt>
      <trkpt lat="45.16411" lon="5.94383">
        <ele>2120</ele>
        <time>2016-04-10T07:28:14.000Z</time>
      </trkpt>
      <trkpt lat="45.16409" lon="5.94383">
        <ele>2120.1999511719</ele>
        <time>2016-04-10T07:28:15.000Z</time>
      </trkpt>
      <trkpt lat="45.16407" lon="5.9438">
        <ele>2121.1999511719</ele>
        <time>2016-04-10T07:28:19.000Z</time>
      </trkpt>
      <trkpt lat="45.16407" lon="5.94381">
        <ele>2121.3999023438</ele>
        <time>2016-04-10T07:28:20.000Z</time>
      </trkpt>
      <trkpt lat="45.16403" lon="5.94381">
        <ele>2122.6000976562</ele>
        <time>2016-04-10T07:28:25.000Z</time>
      </trkpt>
      <trkpt lat="45.16399" lon="5.9438">
        <ele>2123</ele>
        <time>2016-04-10T07:28:28.000Z</time>
      </trkpt>
      <trkpt lat="45.16399" lon="5.9438">
        <ele>2123.6000976562</ele>
        <time>2016-04-10T07:28:30.000Z</time>
      </trkpt>
      <trkpt lat="45.16397" lon="5.94379">
        <ele>2124.1999511719</ele>
        <time>2016-04-10T07:28:34.000Z</time>
      </trkpt>
      <trkpt lat="45.16395" lon="5.94378">
        <ele>2124.6000976562</ele>
        <time>2016-04-10T07:28:36.000Z</time>
      </trkpt>
      <trkpt lat="45.16393" lon="5.94378">
        <ele>2125.1999511719</ele>
        <time>2016-04-10T07:28:40.000Z</time>
      </trkpt>
      <trkpt lat="45.16391" lon="5.94376">
        <ele>2125.8000488281</ele>
        <time>2016-04-10T07:28:42.000Z</time>
      </trkpt>
      <trkpt lat="45.1639" lon="5.94376">
        <ele>2126.8000488281</ele>
        <time>2016-04-10T07:28:47.000Z</time>
      </trkpt>
      <trkpt lat="45.16389" lon="5.94381">
        <ele>2128</ele>
        <time>2016-04-10T07:28:50.000Z</time>
      </trkpt>
      <trkpt lat="45.16389" lon="5.94389">
        <ele>2129</ele>
        <time>2016-04-10T07:28:55.000Z</time>
      </trkpt>
      <trkpt lat="45.16387" lon="5.94395">
        <ele>2129.8000488281</ele>
        <time>2016-04-10T07:29:00.000Z</time>
      </trkpt>
      <trkpt lat="45.16386" lon="5.94397">
        <ele>2130.1999511719</ele>
        <time>2016-04-10T07:29:02.000Z</time>
      </trkpt>
      <trkpt lat="45.16385" lon="5.94402">
        <ele>2131</ele>
        <time>2016-04-10T07:29:07.000Z</time>
      </trkpt>
      <trkpt lat="45.16385" lon="5.94403">
        <ele>2131.1999511719</ele>
        <time>2016-04-10T07:29:09.000Z</time>
      </trkpt>
      <trkpt lat="45.16384" lon="5.94408">
        <ele>2132.1999511719</ele>
        <time>2016-04-10T07:29:14.000Z</time>
      </trkpt>
      <trkpt lat="45.16384" lon="5.94411">
        <ele>2132.1999511719</ele>
        <time>2016-04-10T07:29:15.000Z</time>
      </trkpt>
      <trkpt lat="45.16384" lon="5.94415">
        <ele>2133</ele>
        <time>2016-04-10T07:29:20.000Z</time>
      </trkpt>
      <trkpt lat="45.16384" lon="5.94416">
        <ele>2133.1999511719</ele>
        <time>2016-04-10T07:29:22.000Z</time>
      </trkpt>
      <trkpt lat="45.16384" lon="5.94419">
        <ele>2134.1999511719</ele>
        <time>2016-04-10T07:29:26.000Z</time>
      </trkpt>
      <trkpt lat="45.16383" lon="5.94419">
        <ele>2134.3999023438</ele>
        <time>2016-04-10T07:29:27.000Z</time>
      </trkpt>
      <trkpt lat="45.16382" lon="5.94425">
        <ele>2135.6000976562</ele>
        <time>2016-04-10T07:29:33.000Z</time>
      </trkpt>
      <trkpt lat="45.16382" lon="5.94426">
        <ele>2135.6000976562</ele>
        <time>2016-04-10T07:29:34.000Z</time>
      </trkpt>
      <trkpt lat="45.16382" lon="5.94436">
        <ele>2136.3999023438</ele>
        <time>2016-04-10T07:29:41.000Z</time>
      </trkpt>
      <trkpt lat="45.16382" lon="5.9444">
        <ele>2136.8000488281</ele>
        <time>2016-04-10T07:29:43.000Z</time>
      </trkpt>
      <trkpt lat="45.16382" lon="5.94444">
        <ele>2137.8000488281</ele>
        <time>2016-04-10T07:29:47.000Z</time>
      </trkpt>
      <trkpt lat="45.16382" lon="5.94445">
        <ele>2138</ele>
        <time>2016-04-10T07:29:48.000Z</time>
      </trkpt>
      <trkpt lat="45.16384" lon="5.94451">
        <ele>2138.8000488281</ele>
        <time>2016-04-10T07:29:53.000Z</time>
      </trkpt>
      <trkpt lat="45.16384" lon="5.9445">
        <ele>2139</ele>
        <time>2016-04-10T07:29:54.000Z</time>
      </trkpt>
      <trkpt lat="45.16385" lon="5.94456">
        <ele>2140</ele>
        <time>2016-04-10T07:30:00.000Z</time>
      </trkpt>
      <trkpt lat="45.16385" lon="5.94457">
        <ele>2140.6000976562</ele>
        <time>2016-04-10T07:30:01.000Z</time>
      </trkpt>
      <trkpt lat="45.16385" lon="5.94458">
        <ele>2141.3999023438</ele>
        <time>2016-04-10T07:30:04.000Z</time>
      </trkpt>
      <trkpt lat="45.16385" lon="5.94461">
        <ele>2142</ele>
        <time>2016-04-10T07:30:07.000Z</time>
      </trkpt>
      <trkpt lat="45.16386" lon="5.94463">
        <ele>2142.6000976562</ele>
        <time>2016-04-10T07:30:09.000Z</time>
      </trkpt>
      <trkpt lat="45.16384" lon="5.94465">
        <ele>2143.6000976562</ele>
        <time>2016-04-10T07:30:13.000Z</time>
      </trkpt>
      <trkpt lat="45.16384" lon="5.94466">
        <ele>2143.8000488281</ele>
        <time>2016-04-10T07:30:14.000Z</time>
      </trkpt>
      <trkpt lat="45.16381" lon="5.94471">
        <ele>2145</ele>
        <time>2016-04-10T07:30:20.000Z</time>
      </trkpt>
      <trkpt lat="45.16381" lon="5.94475">
        <ele>2146</ele>
        <time>2016-04-10T07:30:24.000Z</time>
      </trkpt>
      <trkpt lat="45.16381" lon="5.94475">
        <ele>2146.3999023438</ele>
        <time>2016-04-10T07:30:25.000Z</time>
      </trkpt>
      <trkpt lat="45.1638" lon="5.94478">
        <ele>2147.1999511719</ele>
        <time>2016-04-10T07:30:28.000Z</time>
      </trkpt>
      <trkpt lat="45.1638" lon="5.94482">
        <ele>2148</ele>
        <time>2016-04-10T07:30:31.000Z</time>
      </trkpt>
      <trkpt lat="45.1638" lon="5.94482">
        <ele>2148.1999511719</ele>
        <time>2016-04-10T07:30:32.000Z</time>
      </trkpt>
      <trkpt lat="45.1638" lon="5.94485">
        <ele>2149</ele>
        <time>2016-04-10T07:30:36.000Z</time>
      </trkpt>
      <trkpt lat="45.1638" lon="5.94487">
        <ele>2149.1999511719</ele>
        <time>2016-04-10T07:30:38.000Z</time>
      </trkpt>
      <trkpt lat="45.16381" lon="5.94493">
        <ele>2150</ele>
        <time>2016-04-10T07:30:42.000Z</time>
      </trkpt>
      <trkpt lat="45.1638" lon="5.94495">
        <ele>2150.6000976562</ele>
        <time>2016-04-10T07:30:44.000Z</time>
      </trkpt>
      <trkpt lat="45.16378" lon="5.94499">
        <ele>2151.3999023438</ele>
        <time>2016-04-10T07:30:48.000Z</time>
      </trkpt>
      <trkpt lat="45.16378" lon="5.945">
        <ele>2152</ele>
        <time>2016-04-10T07:30:49.000Z</time>
      </trkpt>
      <trkpt lat="45.16378" lon="5.94505">
        <ele>2153</ele>
        <time>2016-04-10T07:30:54.000Z</time>
      </trkpt>
      <trkpt lat="45.16378" lon="5.94507">
        <ele>2153.3999023438</ele>
        <time>2016-04-10T07:30:56.000Z</time>
      </trkpt>
      <trkpt lat="45.16379" lon="5.9451">
        <ele>2154</ele>
        <time>2016-04-10T07:30:59.000Z</time>
      </trkpt>
      <trkpt lat="45.16379" lon="5.94512">
        <ele>2154.8000488281</ele>
        <time>2016-04-10T07:31:02.000Z</time>
      </trkpt>
      <trkpt lat="45.1638" lon="5.94514">
        <ele>2155.1999511719</ele>
        <time>2016-04-10T07:31:04.000Z</time>
      </trkpt>
      <trkpt lat="45.16379" lon="5.94516">
        <ele>2156.1999511719</ele>
        <time>2016-04-10T07:31:09.000Z</time>
      </trkpt>
      <trkpt lat="45.16379" lon="5.94517">
        <ele>2156.3999023438</ele>
        <time>2016-04-10T07:31:10.000Z</time>
      </trkpt>
      <trkpt lat="45.16377" lon="5.94518">
        <ele>2157.3999023438</ele>
        <time>2016-04-10T07:31:13.000Z</time>
      </trkpt>
      <trkpt lat="45.16376" lon="5.94518">
        <ele>2158</ele>
        <time>2016-04-10T07:31:15.000Z</time>
      </trkpt>
      <trkpt lat="45.16374" lon="5.94519">
        <ele>2158.6000976562</ele>
        <time>2016-04-10T07:31:18.000Z</time>
      </trkpt>
      <trkpt lat="45.16371" lon="5.9452">
        <ele>2159.6000976562</ele>
        <time>2016-04-10T07:31:22.000Z</time>
      </trkpt>
      <trkpt lat="45.16367" lon="5.94522">
        <ele>2160.8000488281</ele>
        <time>2016-04-10T07:31:27.000Z</time>
      </trkpt>
      <trkpt lat="45.16365" lon="5.94523">
        <ele>2161.3999023438</ele>
        <time>2016-04-10T07:31:30.000Z</time>
      </trkpt>
      <trkpt lat="45.16364" lon="5.94525">
        <ele>2162</ele>
        <time>2016-04-10T07:31:33.000Z</time>
      </trkpt>
      <trkpt lat="45.16363" lon="5.94531">
        <ele>2163.3999023438</ele>
        <time>2016-04-10T07:31:37.000Z</time>
      </trkpt>
      <trkpt lat="45.16361" lon="5.94537">
        <ele>2164.3999023438</ele>
        <time>2016-04-10T07:31:43.000Z</time>
      </trkpt>
      <trkpt lat="45.16361" lon="5.94537">
        <ele>2164.8000488281</ele>
        <time>2016-04-10T07:31:44.000Z</time>
      </trkpt>
      <trkpt lat="45.1636" lon="5.94537">
        <ele>2165.6000976562</ele>
        <time>2016-04-10T07:31:47.000Z</time>
      </trkpt>
      <trkpt lat="45.16357" lon="5.94537">
        <ele>2166.1999511719</ele>
        <time>2016-04-10T07:31:51.000Z</time>
      </trkpt>
      <trkpt lat="45.16355" lon="5.94537">
        <ele>2166.6000976562</ele>
        <time>2016-04-10T07:31:54.000Z</time>
      </trkpt>
      <trkpt lat="45.16353" lon="5.94536">
        <ele>2167.1999511719</ele>
        <time>2016-04-10T07:31:57.000Z</time>
      </trkpt>
      <trkpt lat="45.16353" lon="5.94534">
        <ele>2167.6000976562</ele>
        <time>2016-04-10T07:32:00.000Z</time>
      </trkpt>
      <trkpt lat="45.16353" lon="5.94534">
        <ele>2168.1999511719</ele>
        <time>2016-04-10T07:32:08.000Z</time>
      </trkpt>
      <trkpt lat="45.16353" lon="5.94534">
        <ele>2168.1999511719</ele>
        <time>2016-04-10T07:32:25.000Z</time>
      </trkpt>
      <trkpt lat="45.16353" lon="5.94534">
        <ele>2168.1999511719</ele>
        <time>2016-04-10T07:32:38.000Z</time>
      </trkpt>
      <trkpt lat="45.16352" lon="5.94534">
        <ele>2168.1999511719</ele>
        <time>2016-04-10T07:32:53.000Z</time>
      </trkpt>
      <trkpt lat="45.16349" lon="5.94534">
        <ele>2168.3999023438</ele>
        <time>2016-04-10T07:33:02.000Z</time>
      </trkpt>
      <trkpt lat="45.16349" lon="5.94534">
        <ele>2168.8000488281</ele>
        <time>2016-04-10T07:33:06.000Z</time>
      </trkpt>
      <trkpt lat="45.16349" lon="5.94534">
        <ele>2168.6000976562</ele>
        <time>2016-04-10T07:33:12.000Z</time>
      </trkpt>
      <trkpt lat="45.16346" lon="5.94534">
        <ele>2168.3999023438</ele>
        <time>2016-04-10T07:33:30.000Z</time>
      </trkpt>
      <trkpt lat="45.16345" lon="5.94534">
        <ele>2168.3999023438</ele>
        <time>2016-04-10T07:33:31.000Z</time>
      </trkpt>
      <trkpt lat="45.16335" lon="5.94529">
        <ele>2168.1999511719</ele>
        <time>2016-04-10T07:33:35.000Z</time>
      </trkpt>
      <trkpt lat="45.16329" lon="5.94526">
        <ele>2166.8000488281</ele>
        <time>2016-04-10T07:33:37.000Z</time>
      </trkpt>
      <trkpt lat="45.16319" lon="5.94526">
        <ele>2165.1999511719</ele>
        <time>2016-04-10T07:33:40.000Z</time>
      </trkpt>
      <trkpt lat="45.16311" lon="5.94526">
        <ele>2163.8000488281</ele>
        <time>2016-04-10T07:33:42.000Z</time>
      </trkpt>
      <trkpt lat="45.16303" lon="5.94525">
        <ele>2161.6000976562</ele>
        <time>2016-04-10T07:33:44.000Z</time>
      </trkpt>
      <trkpt lat="45.163" lon="5.94525">
        <ele>2160.1999511719</ele>
        <time>2016-04-10T07:33:45.000Z</time>
      </trkpt>
      <trkpt lat="45.16297" lon="5.94526">
        <ele>2159</ele>
        <time>2016-04-10T07:33:46.000Z</time>
      </trkpt>
      <trkpt lat="45.16294" lon="5.94526">
        <ele>2158</ele>
        <time>2016-04-10T07:33:47.000Z</time>
      </trkpt>
      <trkpt lat="45.16289" lon="5.94526">
        <ele>2156</ele>
        <time>2016-04-10T07:33:49.000Z</time>
      </trkpt>
      <trkpt lat="45.16287" lon="5.94526">
        <ele>2155</ele>
        <time>2016-04-10T07:33:50.000Z</time>
      </trkpt>
      <trkpt lat="45.16286" lon="5.94527">
        <ele>2154</ele>
        <time>2016-04-10T07:33:51.000Z</time>
      </trkpt>
      <trkpt lat="45.16285" lon="5.94527">
        <ele>2152.8000488281</ele>
        <time>2016-04-10T07:33:52.000Z</time>
      </trkpt>
      <trkpt lat="45.16284" lon="5.94528">
        <ele>2151.8000488281</ele>
        <time>2016-04-10T07:33:53.000Z</time>
      </trkpt>
      <trkpt lat="45.16283" lon="5.94528">
        <ele>2151</ele>
        <time>2016-04-10T07:33:54.000Z</time>
      </trkpt>
      <trkpt lat="45.16281" lon="5.94528">
        <ele>2150.1999511719</ele>
        <time>2016-04-10T07:33:55.000Z</time>
      </trkpt>
      <trkpt lat="45.16274" lon="5.94531">
        <ele>2148.6000976562</ele>
        <time>2016-04-10T07:33:58.000Z</time>
      </trkpt>
      <trkpt lat="45.16272" lon="5.94532">
        <ele>2147.8000488281</ele>
        <time>2016-04-10T07:33:59.000Z</time>
      </trkpt>
      <trkpt lat="45.1627" lon="5.94533">
        <ele>2147.1999511719</ele>
        <time>2016-04-10T07:34:00.000Z</time>
      </trkpt>
      <trkpt lat="45.16269" lon="5.94534">
        <ele>2145.8000488281</ele>
        <time>2016-04-10T07:34:01.000Z</time>
      </trkpt>
      <trkpt lat="45.16267" lon="5.94536">
        <ele>2144</ele>
        <time>2016-04-10T07:34:03.000Z</time>
      </trkpt>
      <trkpt lat="45.16267" lon="5.94537">
        <ele>2143.3999023438</ele>
        <time>2016-04-10T07:34:04.000Z</time>
      </trkpt>
      <trkpt lat="45.16266" lon="5.94539">
        <ele>2142.8000488281</ele>
        <time>2016-04-10T07:34:06.000Z</time>
      </trkpt>
      <trkpt lat="45.16267" lon="5.94542">
        <ele>2142.3999023438</ele>
        <time>2016-04-10T07:34:08.000Z</time>
      </trkpt>
      <trkpt lat="45.16271" lon="5.94555">
        <ele>2141.1999511719</ele>
        <time>2016-04-10T07:34:10.000Z</time>
      </trkpt>
      <trkpt lat="45.1627" lon="5.94562">
        <ele>2139.3999023438</ele>
        <time>2016-04-10T07:34:12.000Z</time>
      </trkpt>
      <trkpt lat="45.16269" lon="5.94565">
        <ele>2138.1999511719</ele>
        <time>2016-04-10T07:34:14.000Z</time>
      </trkpt>
      <trkpt lat="45.16262" lon="5.94565">
        <ele>2137.3999023438</ele>
        <time>2016-04-10T07:34:17.000Z</time>
      </trkpt>
      <trkpt lat="45.1626" lon="5.94563">
        <ele>2137.1999511719</ele>
        <time>2016-04-10T07:34:18.000Z</time>
      </trkpt>
      <trkpt lat="45.16254" lon="5.94558">
        <ele>2135.8000488281</ele>
        <time>2016-04-10T07:34:21.000Z</time>
      </trkpt>
      <trkpt lat="45.16249" lon="5.94553">
        <ele>2134.8000488281</ele>
        <time>2016-04-10T07:34:24.000Z</time>
      </trkpt>
      <trkpt lat="45.16247" lon="5.94551">
        <ele>2134.3999023438</ele>
        <time>2016-04-10T07:34:25.000Z</time>
      </trkpt>
      <trkpt lat="45.16241" lon="5.94546">
        <ele>2133.6000976562</ele>
        <time>2016-04-10T07:34:28.000Z</time>
      </trkpt>
      <trkpt lat="45.16235" lon="5.94544">
        <ele>2132.3999023438</ele>
        <time>2016-04-10T07:34:31.000Z</time>
      </trkpt>
      <trkpt lat="45.16233" lon="5.94544">
        <ele>2132</ele>
        <time>2016-04-10T07:34:32.000Z</time>
      </trkpt>
      <trkpt lat="45.16229" lon="5.94544">
        <ele>2131.3999023438</ele>
        <time>2016-04-10T07:34:34.000Z</time>
      </trkpt>
      <trkpt lat="45.16222" lon="5.94548">
        <ele>2130</ele>
        <time>2016-04-10T07:34:38.000Z</time>
      </trkpt>
      <trkpt lat="45.16218" lon="5.9455">
        <ele>2129.3999023438</ele>
        <time>2016-04-10T07:34:40.000Z</time>
      </trkpt>
      <trkpt lat="45.16215" lon="5.94552">
        <ele>2129</ele>
        <time>2016-04-10T07:34:42.000Z</time>
      </trkpt>
      <trkpt lat="45.16211" lon="5.94555">
        <ele>2128</ele>
        <time>2016-04-10T07:34:45.000Z</time>
      </trkpt>
      <trkpt lat="45.16208" lon="5.94556">
        <ele>2127.1999511719</ele>
        <time>2016-04-10T07:34:47.000Z</time>
      </trkpt>
      <trkpt lat="45.16204" lon="5.94556">
        <ele>2126.8000488281</ele>
        <time>2016-04-10T07:34:49.000Z</time>
      </trkpt>
      <trkpt lat="45.16197" lon="5.94557">
        <ele>2125.6000976562</ele>
        <time>2016-04-10T07:34:53.000Z</time>
      </trkpt>
      <trkpt lat="45.16192" lon="5.94558">
        <ele>2125</ele>
        <time>2016-04-10T07:34:56.000Z</time>
      </trkpt>
      <trkpt lat="45.16189" lon="5.94559">
        <ele>2124.3999023438</ele>
        <time>2016-04-10T07:34:58.000Z</time>
      </trkpt>
      <trkpt lat="45.16182" lon="5.94557">
        <ele>2123.3999023438</ele>
        <time>2016-04-10T07:35:02.000Z</time>
      </trkpt>
      <trkpt lat="45.16175" lon="5.94557">
        <ele>2122.3999023438</ele>
        <time>2016-04-10T07:35:05.000Z</time>
      </trkpt>
      <trkpt lat="45.16171" lon="5.94557">
        <ele>2121.1999511719</ele>
        <time>2016-04-10T07:35:07.000Z</time>
      </trkpt>
      <trkpt lat="45.16167" lon="5.94556">
        <ele>2119.8000488281</ele>
        <time>2016-04-10T07:35:10.000Z</time>
      </trkpt>
      <trkpt lat="45.16165" lon="5.94557">
        <ele>2119.1999511719</ele>
        <time>2016-04-10T07:35:12.000Z</time>
      </trkpt>
      <trkpt lat="45.16161" lon="5.94561">
        <ele>2118.8000488281</ele>
        <time>2016-04-10T07:35:15.000Z</time>
      </trkpt>
      <trkpt lat="45.16158" lon="5.94566">
        <ele>2118.6000976562</ele>
        <time>2016-04-10T07:35:19.000Z</time>
      </trkpt>
      <trkpt lat="45.16148" lon="5.9457">
        <ele>2119</ele>
        <time>2016-04-10T07:35:25.000Z</time>
      </trkpt>
      <trkpt lat="45.16138" lon="5.94574">
        <ele>2117.6000976562</ele>
        <time>2016-04-10T07:35:32.000Z</time>
      </trkpt>
      <trkpt lat="45.16128" lon="5.94577">
        <ele>2117.6000976562</ele>
        <time>2016-04-10T07:35:39.000Z</time>
      </trkpt>
      <trkpt lat="45.16119" lon="5.94578">
        <ele>2118</ele>
        <time>2016-04-10T07:35:46.000Z</time>
      </trkpt>
      <trkpt lat="45.16113" lon="5.94577">
        <ele>2118</ele>
        <time>2016-04-10T07:35:52.000Z</time>
      </trkpt>
      <trkpt lat="45.16106" lon="5.94575">
        <ele>2118.3999023438</ele>
        <time>2016-04-10T07:35:59.000Z</time>
      </trkpt>
      <trkpt lat="45.16098" lon="5.94578">
        <ele>2118.8000488281</ele>
        <time>2016-04-10T07:36:05.000Z</time>
      </trkpt>
      <trkpt lat="45.16097" lon="5.94578">
        <ele>2119</ele>
        <time>2016-04-10T07:36:06.000Z</time>
      </trkpt>
      <trkpt lat="45.1609" lon="5.94581">
        <ele>2119.8000488281</ele>
        <time>2016-04-10T07:36:12.000Z</time>
      </trkpt>
      <trkpt lat="45.16089" lon="5.94581">
        <ele>2120</ele>
        <time>2016-04-10T07:36:13.000Z</time>
      </trkpt>
      <trkpt lat="45.16083" lon="5.94583">
        <ele>2120.6000976562</ele>
        <time>2016-04-10T07:36:20.000Z</time>
      </trkpt>
      <trkpt lat="45.16077" lon="5.94585">
        <ele>2121</ele>
        <time>2016-04-10T07:36:26.000Z</time>
      </trkpt>
      <trkpt lat="45.16076" lon="5.94585">
        <ele>2121</ele>
        <time>2016-04-10T07:36:27.000Z</time>
      </trkpt>
      <trkpt lat="45.16069" lon="5.94585">
        <ele>2121</ele>
        <time>2016-04-10T07:36:34.000Z</time>
      </trkpt>
      <trkpt lat="45.16063" lon="5.94586">
        <ele>2120.6000976562</ele>
        <time>2016-04-10T07:36:41.000Z</time>
      </trkpt>
      <trkpt lat="45.16053" lon="5.94585">
        <ele>2119.8000488281</ele>
        <time>2016-04-10T07:36:48.000Z</time>
      </trkpt>
      <trkpt lat="45.16052" lon="5.94585">
        <ele>2119.3999023438</ele>
        <time>2016-04-10T07:36:49.000Z</time>
      </trkpt>
      <trkpt lat="45.16046" lon="5.94585">
        <ele>2118.6000976562</ele>
        <time>2016-04-10T07:36:52.000Z</time>
      </trkpt>
      <trkpt lat="45.16041" lon="5.94585">
        <ele>2117.3999023438</ele>
        <time>2016-04-10T07:36:55.000Z</time>
      </trkpt>
      <trkpt lat="45.16038" lon="5.94586">
        <ele>2116.3999023438</ele>
        <time>2016-04-10T07:36:58.000Z</time>
      </trkpt>
      <trkpt lat="45.16035" lon="5.94586">
        <ele>2116</ele>
        <time>2016-04-10T07:37:02.000Z</time>
      </trkpt>
      <trkpt lat="45.1603" lon="5.94586">
        <ele>2116</ele>
        <time>2016-04-10T07:37:09.000Z</time>
      </trkpt>
      <trkpt lat="45.16024" lon="5.94584">
        <ele>2115.8000488281</ele>
        <time>2016-04-10T07:37:17.000Z</time>
      </trkpt>
      <trkpt lat="45.1602" lon="5.94584">
        <ele>2115.8000488281</ele>
        <time>2016-04-10T07:37:23.000Z</time>
      </trkpt>
      <trkpt lat="45.16015" lon="5.94585">
        <ele>2115.6000976562</ele>
        <time>2016-04-10T07:37:30.000Z</time>
      </trkpt>
      <trkpt lat="45.16007" lon="5.9459">
        <ele>2116.1999511719</ele>
        <time>2016-04-10T07:37:37.000Z</time>
      </trkpt>
      <trkpt lat="45.16" lon="5.94593">
        <ele>2117.3999023438</ele>
        <time>2016-04-10T07:37:43.000Z</time>
      </trkpt>
      <trkpt lat="45.15999" lon="5.94593">
        <ele>2117.3999023438</ele>
        <time>2016-04-10T07:37:44.000Z</time>
      </trkpt>
      <trkpt lat="45.15993" lon="5.94597">
        <ele>2117.8000488281</ele>
        <time>2016-04-10T07:37:50.000Z</time>
      </trkpt>
      <trkpt lat="45.15984" lon="5.94603">
        <ele>2118.1999511719</ele>
        <time>2016-04-10T07:37:58.000Z</time>
      </trkpt>
      <trkpt lat="45.15978" lon="5.94607">
        <ele>2118.3999023438</ele>
        <time>2016-04-10T07:38:03.000Z</time>
      </trkpt>
      <trkpt lat="45.15975" lon="5.94611">
        <ele>2118.8000488281</ele>
        <time>2016-04-10T07:38:06.000Z</time>
      </trkpt>
      <trkpt lat="45.15965" lon="5.94615">
        <ele>2119.1999511719</ele>
        <time>2016-04-10T07:38:14.000Z</time>
      </trkpt>
      <trkpt lat="45.15957" lon="5.94616">
        <ele>2119.1999511719</ele>
        <time>2016-04-10T07:38:21.000Z</time>
      </trkpt>
      <trkpt lat="45.15953" lon="5.94617">
        <ele>2119.6000976562</ele>
        <time>2016-04-10T07:38:25.000Z</time>
      </trkpt>
      <trkpt lat="45.15949" lon="5.9462">
        <ele>2120.1999511719</ele>
        <time>2016-04-10T07:38:29.000Z</time>
      </trkpt>
      <trkpt lat="45.15947" lon="5.9462">
        <ele>2120.6000976562</ele>
        <time>2016-04-10T07:38:34.000Z</time>
      </trkpt>
      <trkpt lat="45.15945" lon="5.9462">
        <ele>2120.8000488281</ele>
        <time>2016-04-10T07:38:36.000Z</time>
      </trkpt>
      <trkpt lat="45.15944" lon="5.9462">
        <ele>2120.8000488281</ele>
        <time>2016-04-10T07:38:37.000Z</time>
      </trkpt>
      <trkpt lat="45.15939" lon="5.94621">
        <ele>2121.1999511719</ele>
        <time>2016-04-10T07:38:42.000Z</time>
      </trkpt>
      <trkpt lat="45.15935" lon="5.94621">
        <ele>2121.3999023438</ele>
        <time>2016-04-10T07:38:48.000Z</time>
      </trkpt>
      <trkpt lat="45.15933" lon="5.94621">
        <ele>2121.8000488281</ele>
        <time>2016-04-10T07:38:51.000Z</time>
      </trkpt>
      <trkpt lat="45.1593" lon="5.94621">
        <ele>2122.3999023438</ele>
        <time>2016-04-10T07:38:55.000Z</time>
      </trkpt>
      <trkpt lat="45.15924" lon="5.94621">
        <ele>2122.6000976562</ele>
        <time>2016-04-10T07:39:01.000Z</time>
      </trkpt>
      <trkpt lat="45.15921" lon="5.9462">
        <ele>2122.8000488281</ele>
        <time>2016-04-10T07:39:04.000Z</time>
      </trkpt>
      <trkpt lat="45.15916" lon="5.94622">
        <ele>2123.6000976562</ele>
        <time>2016-04-10T07:39:10.000Z</time>
      </trkpt>
      <trkpt lat="45.15912" lon="5.94622">
        <ele>2124</ele>
        <time>2016-04-10T07:39:14.000Z</time>
      </trkpt>
      <trkpt lat="45.15911" lon="5.94621">
        <ele>2124.1999511719</ele>
        <time>2016-04-10T07:39:16.000Z</time>
      </trkpt>
      <trkpt lat="45.15905" lon="5.94619">
        <ele>2124.6000976562</ele>
        <time>2016-04-10T07:39:23.000Z</time>
      </trkpt>
      <trkpt lat="45.15904" lon="5.94619">
        <ele>2125</ele>
        <time>2016-04-10T07:39:26.000Z</time>
      </trkpt>
      <trkpt lat="45.15901" lon="5.94618">
        <ele>2125.1999511719</ele>
        <time>2016-04-10T07:39:29.000Z</time>
      </trkpt>
      <trkpt lat="45.15896" lon="5.9462">
        <ele>2125.3999023438</ele>
        <time>2016-04-10T07:39:35.000Z</time>
      </trkpt>
      <trkpt lat="45.15893" lon="5.94619">
        <ele>2126</ele>
        <time>2016-04-10T07:39:39.000Z</time>
      </trkpt>
      <trkpt lat="45.15891" lon="5.94617">
        <ele>2126.3999023438</ele>
        <time>2016-04-10T07:39:42.000Z</time>
      </trkpt>
      <trkpt lat="45.15888" lon="5.94617">
        <ele>2126.8000488281</ele>
        <time>2016-04-10T07:39:48.000Z</time>
      </trkpt>
      <trkpt lat="45.15882" lon="5.94618">
        <ele>2127</ele>
        <time>2016-04-10T07:39:56.000Z</time>
      </trkpt>
      <trkpt lat="45.15881" lon="5.94619">
        <ele>2127.1999511719</ele>
        <time>2016-04-10T07:39:58.000Z</time>
      </trkpt>
      <trkpt lat="45.15874" lon="5.94619">
        <ele>2128.1999511719</ele>
        <time>2016-04-10T07:40:04.000Z</time>
      </trkpt>
      <trkpt lat="45.15874" lon="5.9462">
        <ele>2128.3999023438</ele>
        <time>2016-04-10T07:40:05.000Z</time>
      </trkpt>
      <trkpt lat="45.15867" lon="5.94622">
        <ele>2129</ele>
        <time>2016-04-10T07:40:12.000Z</time>
      </trkpt>
      <trkpt lat="45.15865" lon="5.94622">
        <ele>2129.3999023438</ele>
        <time>2016-04-10T07:40:16.000Z</time>
      </trkpt>
      <trkpt lat="45.15863" lon="5.94622">
        <ele>2129.6000976562</ele>
        <time>2016-04-10T07:40:18.000Z</time>
      </trkpt>
      <trkpt lat="45.15856" lon="5.94621">
        <ele>2130.1999511719</ele>
        <time>2016-04-10T07:40:26.000Z</time>
      </trkpt>
      <trkpt lat="45.15854" lon="5.9462">
        <ele>2130.3999023438</ele>
        <time>2016-04-10T07:40:27.000Z</time>
      </trkpt>
      <trkpt lat="45.1585" lon="5.94621">
        <ele>2130.8000488281</ele>
        <time>2016-04-10T07:40:31.000Z</time>
      </trkpt>
      <trkpt lat="45.15846" lon="5.94622">
        <ele>2131.6000976562</ele>
        <time>2016-04-10T07:40:36.000Z</time>
      </trkpt>
      <trkpt lat="45.15845" lon="5.94622">
        <ele>2131.8000488281</ele>
        <time>2016-04-10T07:40:38.000Z</time>
      </trkpt>
      <trkpt lat="45.15837" lon="5.94624">
        <ele>2132.6000976562</ele>
        <time>2016-04-10T07:40:46.000Z</time>
      </trkpt>
      <trkpt lat="45.15836" lon="5.94625">
        <ele>2132.6000976562</ele>
        <time>2016-04-10T07:40:47.000Z</time>
      </trkpt>
      <trkpt lat="45.15832" lon="5.94626">
        <ele>2132.8000488281</ele>
        <time>2016-04-10T07:40:50.000Z</time>
      </trkpt>
      <trkpt lat="45.15828" lon="5.94628">
        <ele>2133</ele>
        <time>2016-04-10T07:40:53.000Z</time>
      </trkpt>
      <trkpt lat="45.1582" lon="5.94633">
        <ele>2133.3999023438</ele>
        <time>2016-04-10T07:41:00.000Z</time>
      </trkpt>
      <trkpt lat="45.15811" lon="5.94637">
        <ele>2133.3999023438</ele>
        <time>2016-04-10T07:41:07.000Z</time>
      </trkpt>
      <trkpt lat="45.15804" lon="5.94639">
        <ele>2133.8000488281</ele>
        <time>2016-04-10T07:41:14.000Z</time>
      </trkpt>
      <trkpt lat="45.15797" lon="5.9464">
        <ele>2134</ele>
        <time>2016-04-10T07:41:21.000Z</time>
      </trkpt>
      <trkpt lat="45.15789" lon="5.94642">
        <ele>2134</ele>
        <time>2016-04-10T07:41:28.000Z</time>
      </trkpt>
      <trkpt lat="45.1578" lon="5.94644">
        <ele>2134.3999023438</ele>
        <time>2016-04-10T07:41:35.000Z</time>
      </trkpt>
      <trkpt lat="45.1577" lon="5.94648">
        <ele>2134.3999023438</ele>
        <time>2016-04-10T07:41:43.000Z</time>
      </trkpt>
      <trkpt lat="45.15761" lon="5.94653">
        <ele>2134.6000976562</ele>
        <time>2016-04-10T07:41:51.000Z</time>
      </trkpt>
      <trkpt lat="45.15753" lon="5.94655">
        <ele>2134.6000976562</ele>
        <time>2016-04-10T07:41:58.000Z</time>
      </trkpt>
      <trkpt lat="45.15747" lon="5.94656">
        <ele>2134.8000488281</ele>
        <time>2016-04-10T07:42:04.000Z</time>
      </trkpt>
      <trkpt lat="45.15746" lon="5.94656">
        <ele>2134.8000488281</ele>
        <time>2016-04-10T07:42:05.000Z</time>
      </trkpt>
      <trkpt lat="45.1574" lon="5.94659">
        <ele>2135</ele>
        <time>2016-04-10T07:42:11.000Z</time>
      </trkpt>
      <trkpt lat="45.15731" lon="5.9466">
        <ele>2135.1999511719</ele>
        <time>2016-04-10T07:42:19.000Z</time>
      </trkpt>
      <trkpt lat="45.15729" lon="5.94659">
        <ele>2135.6000976562</ele>
        <time>2016-04-10T07:42:21.000Z</time>
      </trkpt>
      <trkpt lat="45.15726" lon="5.94659">
        <ele>2135.8000488281</ele>
        <time>2016-04-10T07:42:24.000Z</time>
      </trkpt>
      <trkpt lat="45.15724" lon="5.94657">
        <ele>2135.8000488281</ele>
        <time>2016-04-10T07:42:26.000Z</time>
      </trkpt>
      <trkpt lat="45.15717" lon="5.94656">
        <ele>2136</ele>
        <time>2016-04-10T07:42:32.000Z</time>
      </trkpt>
      <trkpt lat="45.15709" lon="5.94658">
        <ele>2136.8000488281</ele>
        <time>2016-04-10T07:42:39.000Z</time>
      </trkpt>
      <trkpt lat="45.15703" lon="5.9466">
        <ele>2137.3999023438</ele>
        <time>2016-04-10T07:42:45.000Z</time>
      </trkpt>
      <trkpt lat="45.157" lon="5.94661">
        <ele>2138</ele>
        <time>2016-04-10T07:42:48.000Z</time>
      </trkpt>
      <trkpt lat="45.15695" lon="5.94662">
        <ele>2138.6000976562</ele>
        <time>2016-04-10T07:42:53.000Z</time>
      </trkpt>
      <trkpt lat="45.15693" lon="5.94661">
        <ele>2139</ele>
        <time>2016-04-10T07:42:56.000Z</time>
      </trkpt>
      <trkpt lat="45.15689" lon="5.94663">
        <ele>2139.6000976562</ele>
        <time>2016-04-10T07:43:01.000Z</time>
      </trkpt>
      <trkpt lat="45.15683" lon="5.94662">
        <ele>2140</ele>
        <time>2016-04-10T07:43:08.000Z</time>
      </trkpt>
      <trkpt lat="45.15678" lon="5.94665">
        <ele>2141.1999511719</ele>
        <time>2016-04-10T07:43:15.000Z</time>
      </trkpt>
      <trkpt lat="45.15673" lon="5.94667">
        <ele>2142.1999511719</ele>
        <time>2016-04-10T07:43:21.000Z</time>
      </trkpt>
      <trkpt lat="45.15672" lon="5.94669">
        <ele>2142.8000488281</ele>
        <time>2016-04-10T07:43:24.000Z</time>
      </trkpt>
      <trkpt lat="45.15669" lon="5.94671">
        <ele>2143.3999023438</ele>
        <time>2016-04-10T07:43:29.000Z</time>
      </trkpt>
      <trkpt lat="45.15667" lon="5.94674">
        <ele>2144</ele>
        <time>2016-04-10T07:43:33.000Z</time>
      </trkpt>
      <trkpt lat="45.15665" lon="5.94676">
        <ele>2144.6000976562</ele>
        <time>2016-04-10T07:43:36.000Z</time>
      </trkpt>
      <trkpt lat="45.15663" lon="5.94678">
        <ele>2145.1999511719</ele>
        <time>2016-04-10T07:43:42.000Z</time>
      </trkpt>
      <trkpt lat="45.15659" lon="5.94681">
        <ele>2145.6000976562</ele>
        <time>2016-04-10T07:43:49.000Z</time>
      </trkpt>
      <trkpt lat="45.15658" lon="5.94682">
        <ele>2145.8000488281</ele>
        <time>2016-04-10T07:43:50.000Z</time>
      </trkpt>
      <trkpt lat="45.15652" lon="5.94684">
        <ele>2146.3999023438</ele>
        <time>2016-04-10T07:43:58.000Z</time>
      </trkpt>
      <trkpt lat="45.15647" lon="5.94686">
        <ele>2146.6000976562</ele>
        <time>2016-04-10T07:44:03.000Z</time>
      </trkpt>
      <trkpt lat="45.15646" lon="5.94686">
        <ele>2146.8000488281</ele>
        <time>2016-04-10T07:44:05.000Z</time>
      </trkpt>
      <trkpt lat="45.15641" lon="5.94688">
        <ele>2147.8000488281</ele>
        <time>2016-04-10T07:44:13.000Z</time>
      </trkpt>
      <trkpt lat="45.1564" lon="5.94688">
        <ele>2147.8000488281</ele>
        <time>2016-04-10T07:44:14.000Z</time>
      </trkpt>
      <trkpt lat="45.15634" lon="5.94688">
        <ele>2148.6000976562</ele>
        <time>2016-04-10T07:44:21.000Z</time>
      </trkpt>
      <trkpt lat="45.15632" lon="5.94688">
        <ele>2148.8000488281</ele>
        <time>2016-04-10T07:44:24.000Z</time>
      </trkpt>
      <trkpt lat="45.15629" lon="5.94688">
        <ele>2149.8000488281</ele>
        <time>2016-04-10T07:44:28.000Z</time>
      </trkpt>
      <trkpt lat="45.15623" lon="5.9469">
        <ele>2150.8000488281</ele>
        <time>2016-04-10T07:44:36.000Z</time>
      </trkpt>
      <trkpt lat="45.15622" lon="5.94689">
        <ele>2151</ele>
        <time>2016-04-10T07:44:38.000Z</time>
      </trkpt>
      <trkpt lat="45.15618" lon="5.94689">
        <ele>2151.8000488281</ele>
        <time>2016-04-10T07:44:43.000Z</time>
      </trkpt>
      <trkpt lat="45.15616" lon="5.94688">
        <ele>2152</ele>
        <time>2016-04-10T07:44:45.000Z</time>
      </trkpt>
      <trkpt lat="45.15612" lon="5.94687">
        <ele>2152.8000488281</ele>
        <time>2016-04-10T07:44:50.000Z</time>
      </trkpt>
      <trkpt lat="45.15612" lon="5.94687">
        <ele>2153</ele>
        <time>2016-04-10T07:44:51.000Z</time>
      </trkpt>
      <trkpt lat="45.15608" lon="5.94687">
        <ele>2154</ele>
        <time>2016-04-10T07:44:57.000Z</time>
      </trkpt>
      <trkpt lat="45.15608" lon="5.94686">
        <ele>2154.1999511719</ele>
        <time>2016-04-10T07:44:58.000Z</time>
      </trkpt>
      <trkpt lat="45.15604" lon="5.94686">
        <ele>2155.3999023438</ele>
        <time>2016-04-10T07:45:04.000Z</time>
      </trkpt>
      <trkpt lat="45.15599" lon="5.94686">
        <ele>2156.3999023438</ele>
        <time>2016-04-10T07:45:12.000Z</time>
      </trkpt>
      <trkpt lat="45.15594" lon="5.94686">
        <ele>2157.1999511719</ele>
        <time>2016-04-10T07:45:19.000Z</time>
      </trkpt>
      <trkpt lat="45.15592" lon="5.94687">
        <ele>2157.6000976562</ele>
        <time>2016-04-10T07:45:21.000Z</time>
      </trkpt>
      <trkpt lat="45.15592" lon="5.94688">
        <ele>2158</ele>
        <time>2016-04-10T07:45:25.000Z</time>
      </trkpt>
      <trkpt lat="45.15589" lon="5.94689">
        <ele>2158.8000488281</ele>
        <time>2016-04-10T07:45:31.000Z</time>
      </trkpt>
      <trkpt lat="45.15589" lon="5.94688">
        <ele>2159</ele>
        <time>2016-04-10T07:45:32.000Z</time>
      </trkpt>
      <trkpt lat="45.15587" lon="5.94688">
        <ele>2159.6000976562</ele>
        <time>2016-04-10T07:45:44.000Z</time>
      </trkpt>
      <trkpt lat="45.15587" lon="5.94688">
        <ele>2159.8000488281</ele>
        <time>2016-04-10T07:45:51.000Z</time>
      </trkpt>
      <trkpt lat="45.15587" lon="5.94688">
        <ele>2159.8000488281</ele>
        <time>2016-04-10T07:45:58.000Z</time>
      </trkpt>
      <trkpt lat="45.15587" lon="5.94688">
        <ele>2159.6000976562</ele>
        <time>2016-04-10T07:46:13.000Z</time>
      </trkpt>
      <trkpt lat="45.15587" lon="5.94688">
        <ele>2159.6000976562</ele>
        <time>2016-04-10T07:46:27.000Z</time>
      </trkpt>
      <trkpt lat="45.15587" lon="5.94688">
        <ele>2160</ele>
        <time>2016-04-10T07:46:41.000Z</time>
      </trkpt>
      <trkpt lat="45.15587" lon="5.94688">
        <ele>2160</ele>
        <time>2016-04-10T07:46:57.000Z</time>
      </trkpt>
      <trkpt lat="45.15587" lon="5.94688">
        <ele>2159.8000488281</ele>
        <time>2016-04-10T07:47:16.000Z</time>
      </trkpt>
      <trkpt lat="45.15587" lon="5.94689">
        <ele>2159.6000976562</ele>
        <time>2016-04-10T07:47:34.000Z</time>
      </trkpt>
      <trkpt lat="45.15587" lon="5.94689">
        <ele>2159.8000488281</ele>
        <time>2016-04-10T07:47:52.000Z</time>
      </trkpt>
      <trkpt lat="45.15587" lon="5.94689">
        <ele>2159.8000488281</ele>
        <time>2016-04-10T07:48:15.000Z</time>
      </trkpt>
      <trkpt lat="45.15587" lon="5.94689">
        <ele>2159.6000976562</ele>
        <time>2016-04-10T07:48:26.000Z</time>
      </trkpt>
      <trkpt lat="45.15586" lon="5.94689">
        <ele>2160</ele>
        <time>2016-04-10T07:48:34.000Z</time>
      </trkpt>
      <trkpt lat="45.15584" lon="5.94688">
        <ele>2160.6000976562</ele>
        <time>2016-04-10T07:48:43.000Z</time>
      </trkpt>
      <trkpt lat="45.15584" lon="5.94688">
        <ele>2160.8000488281</ele>
        <time>2016-04-10T07:48:44.000Z</time>
      </trkpt>
      <trkpt lat="45.15583" lon="5.94689">
        <ele>2161</ele>
        <time>2016-04-10T07:48:51.000Z</time>
      </trkpt>
      <trkpt lat="45.15581" lon="5.9469">
        <ele>2161</ele>
        <time>2016-04-10T07:48:53.000Z</time>
      </trkpt>
      <trkpt lat="45.15575" lon="5.94692">
        <ele>2161.8000488281</ele>
        <time>2016-04-10T07:49:00.000Z</time>
      </trkpt>
      <trkpt lat="45.15575" lon="5.94692">
        <ele>2162</ele>
        <time>2016-04-10T07:49:01.000Z</time>
      </trkpt>
      <trkpt lat="45.1557" lon="5.94695">
        <ele>2163</ele>
        <time>2016-04-10T07:49:06.000Z</time>
      </trkpt>
      <trkpt lat="45.15568" lon="5.94696">
        <ele>2163.6000976562</ele>
        <time>2016-04-10T07:49:09.000Z</time>
      </trkpt>
      <trkpt lat="45.15567" lon="5.94696">
        <ele>2164</ele>
        <time>2016-04-10T07:49:12.000Z</time>
      </trkpt>
      <trkpt lat="45.15562" lon="5.94696">
        <ele>2165.1999511719</ele>
        <time>2016-04-10T07:49:17.000Z</time>
      </trkpt>
      <trkpt lat="45.15557" lon="5.94698">
        <ele>2166.3999023438</ele>
        <time>2016-04-10T07:49:25.000Z</time>
      </trkpt>
      <trkpt lat="45.15553" lon="5.94698">
        <ele>2167.6000976562</ele>
        <time>2016-04-10T07:49:31.000Z</time>
      </trkpt>
      <trkpt lat="45.15551" lon="5.947">
        <ele>2168.3999023438</ele>
        <time>2016-04-10T07:49:34.000Z</time>
      </trkpt>
      <trkpt lat="45.1555" lon="5.94702">
        <ele>2168.8000488281</ele>
        <time>2016-04-10T07:49:36.000Z</time>
      </trkpt>
      <trkpt lat="45.15548" lon="5.94702">
        <ele>2170</ele>
        <time>2016-04-10T07:49:40.000Z</time>
      </trkpt>
      <trkpt lat="45.15546" lon="5.94703">
        <ele>2170.6000976562</ele>
        <time>2016-04-10T07:49:43.000Z</time>
      </trkpt>
      <trkpt lat="45.15544" lon="5.94705">
        <ele>2171</ele>
        <time>2016-04-10T07:49:47.000Z</time>
      </trkpt>
      <trkpt lat="45.15542" lon="5.94705">
        <ele>2171.3999023438</ele>
        <time>2016-04-10T07:49:51.000Z</time>
      </trkpt>
      <trkpt lat="45.1554" lon="5.94706">
        <ele>2172.1999511719</ele>
        <time>2016-04-10T07:49:55.000Z</time>
      </trkpt>
      <trkpt lat="45.15538" lon="5.94706">
        <ele>2172.8000488281</ele>
        <time>2016-04-10T07:49:58.000Z</time>
      </trkpt>
      <trkpt lat="45.15536" lon="5.94706">
        <ele>2173.1999511719</ele>
        <time>2016-04-10T07:50:02.000Z</time>
      </trkpt>
      <trkpt lat="45.15533" lon="5.94707">
        <ele>2173.8000488281</ele>
        <time>2016-04-10T07:50:06.000Z</time>
      </trkpt>
      <trkpt lat="45.15531" lon="5.94708">
        <ele>2174.3999023438</ele>
        <time>2016-04-10T07:50:09.000Z</time>
      </trkpt>
      <trkpt lat="45.15529" lon="5.94709">
        <ele>2175.3999023438</ele>
        <time>2016-04-10T07:50:15.000Z</time>
      </trkpt>
      <trkpt lat="45.15526" lon="5.9471">
        <ele>2176.3999023438</ele>
        <time>2016-04-10T07:50:22.000Z</time>
      </trkpt>
      <trkpt lat="45.15527" lon="5.94712">
        <ele>2176.8000488281</ele>
        <time>2016-04-10T07:50:24.000Z</time>
      </trkpt>
      <trkpt lat="45.15532" lon="5.94717">
        <ele>2177.8000488281</ele>
        <time>2016-04-10T07:50:31.000Z</time>
      </trkpt>
      <trkpt lat="45.15536" lon="5.94719">
        <ele>2178.8000488281</ele>
        <time>2016-04-10T07:50:37.000Z</time>
      </trkpt>
      <trkpt lat="45.15537" lon="5.9472">
        <ele>2179</ele>
        <time>2016-04-10T07:50:38.000Z</time>
      </trkpt>
      <trkpt lat="45.15539" lon="5.94723">
        <ele>2180</ele>
        <time>2016-04-10T07:50:43.000Z</time>
      </trkpt>
      <trkpt lat="45.1554" lon="5.94723">
        <ele>2180.3999023438</ele>
        <time>2016-04-10T07:50:45.000Z</time>
      </trkpt>
      <trkpt lat="45.15542" lon="5.94725">
        <ele>2181.1999511719</ele>
        <time>2016-04-10T07:50:48.000Z</time>
      </trkpt>
      <trkpt lat="45.15545" lon="5.94726">
        <ele>2181.8000488281</ele>
        <time>2016-04-10T07:50:52.000Z</time>
      </trkpt>
      <trkpt lat="45.15546" lon="5.94728">
        <ele>2182.1999511719</ele>
        <time>2016-04-10T07:50:55.000Z</time>
      </trkpt>
      <trkpt lat="45.15549" lon="5.94731">
        <ele>2183.1999511719</ele>
        <time>2016-04-10T07:51:00.000Z</time>
      </trkpt>
      <trkpt lat="45.15549" lon="5.94731">
        <ele>2183.3999023438</ele>
        <time>2016-04-10T07:51:01.000Z</time>
      </trkpt>
      <trkpt lat="45.1555" lon="5.94732">
        <ele>2184.3999023438</ele>
        <time>2016-04-10T07:51:05.000Z</time>
      </trkpt>
      <trkpt lat="45.15551" lon="5.94733">
        <ele>2184.8000488281</ele>
        <time>2016-04-10T07:51:08.000Z</time>
      </trkpt>
      <trkpt lat="45.15554" lon="5.94738">
        <ele>2185.6000976562</ele>
        <time>2016-04-10T07:51:13.000Z</time>
      </trkpt>
      <trkpt lat="45.15554" lon="5.94738">
        <ele>2185.8000488281</ele>
        <time>2016-04-10T07:51:15.000Z</time>
      </trkpt>
      <trkpt lat="45.15553" lon="5.94739">
        <ele>2186.8000488281</ele>
        <time>2016-04-10T07:51:20.000Z</time>
      </trkpt>
      <trkpt lat="45.15549" lon="5.9474">
        <ele>2187.8000488281</ele>
        <time>2016-04-10T07:51:27.000Z</time>
      </trkpt>
      <trkpt lat="45.15547" lon="5.94741">
        <ele>2188</ele>
        <time>2016-04-10T07:51:29.000Z</time>
      </trkpt>
      <trkpt lat="45.15544" lon="5.94743">
        <ele>2189.1999511719</ele>
        <time>2016-04-10T07:51:34.000Z</time>
      </trkpt>
      <trkpt lat="45.15542" lon="5.94744">
        <ele>2190.1999511719</ele>
        <time>2016-04-10T07:51:39.000Z</time>
      </trkpt>
      <trkpt lat="45.15541" lon="5.94744">
        <ele>2190.6000976562</ele>
        <time>2016-04-10T07:51:41.000Z</time>
      </trkpt>
      <trkpt lat="45.15538" lon="5.94747">
        <ele>2191.3999023438</ele>
        <time>2016-04-10T07:51:46.000Z</time>
      </trkpt>
      <trkpt lat="45.15536" lon="5.94747">
        <ele>2191.6000976562</ele>
        <time>2016-04-10T07:51:48.000Z</time>
      </trkpt>
      <trkpt lat="45.15534" lon="5.94749">
        <ele>2192.6000976562</ele>
        <time>2016-04-10T07:51:52.000Z</time>
      </trkpt>
      <trkpt lat="45.15531" lon="5.94752">
        <ele>2193.3999023438</ele>
        <time>2016-04-10T07:51:57.000Z</time>
      </trkpt>
      <trkpt lat="45.1553" lon="5.94753">
        <ele>2193.8000488281</ele>
        <time>2016-04-10T07:51:58.000Z</time>
      </trkpt>
      <trkpt lat="45.15527" lon="5.94755">
        <ele>2194.8000488281</ele>
        <time>2016-04-10T07:52:03.000Z</time>
      </trkpt>
      <trkpt lat="45.15525" lon="5.94756">
        <ele>2195.3999023438</ele>
        <time>2016-04-10T07:52:06.000Z</time>
      </trkpt>
      <trkpt lat="45.15525" lon="5.94756">
        <ele>2195.8000488281</ele>
        <time>2016-04-10T07:52:08.000Z</time>
      </trkpt>
      <trkpt lat="45.15523" lon="5.94758">
        <ele>2196.6000976562</ele>
        <time>2016-04-10T07:52:12.000Z</time>
      </trkpt>
      <trkpt lat="45.15521" lon="5.94759">
        <ele>2196.8000488281</ele>
        <time>2016-04-10T07:52:14.000Z</time>
      </trkpt>
      <trkpt lat="45.15519" lon="5.94761">
        <ele>2197.6000976562</ele>
        <time>2016-04-10T07:52:18.000Z</time>
      </trkpt>
      <trkpt lat="45.15518" lon="5.94761">
        <ele>2198</ele>
        <time>2016-04-10T07:52:20.000Z</time>
      </trkpt>
      <trkpt lat="45.15515" lon="5.94763">
        <ele>2198.8000488281</ele>
        <time>2016-04-10T07:52:25.000Z</time>
      </trkpt>
      <trkpt lat="45.15514" lon="5.94763">
        <ele>2199.1999511719</ele>
        <time>2016-04-10T07:52:27.000Z</time>
      </trkpt>
      <trkpt lat="45.15511" lon="5.94764">
        <ele>2199.8000488281</ele>
        <time>2016-04-10T07:52:33.000Z</time>
      </trkpt>
      <trkpt lat="45.15511" lon="5.94767">
        <ele>2200.3999023438</ele>
        <time>2016-04-10T07:52:36.000Z</time>
      </trkpt>
      <trkpt lat="45.15511" lon="5.94768">
        <ele>2200.8000488281</ele>
        <time>2016-04-10T07:52:38.000Z</time>
      </trkpt>
      <trkpt lat="45.15512" lon="5.9477">
        <ele>2201.3999023438</ele>
        <time>2016-04-10T07:52:40.000Z</time>
      </trkpt>
      <trkpt lat="45.15514" lon="5.94772">
        <ele>2202.1999511719</ele>
        <time>2016-04-10T07:52:44.000Z</time>
      </trkpt>
      <trkpt lat="45.15516" lon="5.94773">
        <ele>2202.6000976562</ele>
        <time>2016-04-10T07:52:48.000Z</time>
      </trkpt>
      <trkpt lat="45.15519" lon="5.94775">
        <ele>2203.6000976562</ele>
        <time>2016-04-10T07:52:52.000Z</time>
      </trkpt>
      <trkpt lat="45.15519" lon="5.94775">
        <ele>2203.8000488281</ele>
        <time>2016-04-10T07:52:53.000Z</time>
      </trkpt>
      <trkpt lat="45.15523" lon="5.94778">
        <ele>2205</ele>
        <time>2016-04-10T07:53:00.000Z</time>
      </trkpt>
      <trkpt lat="45.15524" lon="5.94781">
        <ele>2206</ele>
        <time>2016-04-10T07:53:05.000Z</time>
      </trkpt>
      <trkpt lat="45.15525" lon="5.94784">
        <ele>2206.6000976562</ele>
        <time>2016-04-10T07:53:08.000Z</time>
      </trkpt>
      <trkpt lat="45.15526" lon="5.94785">
        <ele>2207</ele>
        <time>2016-04-10T07:53:10.000Z</time>
      </trkpt>
      <trkpt lat="45.15529" lon="5.94787">
        <ele>2207.8000488281</ele>
        <time>2016-04-10T07:53:14.000Z</time>
      </trkpt>
      <trkpt lat="45.1553" lon="5.94788">
        <ele>2208.3999023438</ele>
        <time>2016-04-10T07:53:16.000Z</time>
      </trkpt>
      <trkpt lat="45.15533" lon="5.94791">
        <ele>2208.8000488281</ele>
        <time>2016-04-10T07:53:20.000Z</time>
      </trkpt>
      <trkpt lat="45.15535" lon="5.94793">
        <ele>2209.3999023438</ele>
        <time>2016-04-10T07:53:24.000Z</time>
      </trkpt>
      <trkpt lat="45.15535" lon="5.94794">
        <ele>2209.3999023438</ele>
        <time>2016-04-10T07:53:25.000Z</time>
      </trkpt>
      <trkpt lat="45.15539" lon="5.94798">
        <ele>2210.3999023438</ele>
        <time>2016-04-10T07:53:32.000Z</time>
      </trkpt>
      <trkpt lat="45.15542" lon="5.94801">
        <ele>2211.6000976562</ele>
        <time>2016-04-10T07:53:38.000Z</time>
      </trkpt>
      <trkpt lat="45.15544" lon="5.94803">
        <ele>2212.6000976562</ele>
        <time>2016-04-10T07:53:42.000Z</time>
      </trkpt>
      <trkpt lat="45.15546" lon="5.94806">
        <ele>2213.3999023438</ele>
        <time>2016-04-10T07:53:46.000Z</time>
      </trkpt>
      <trkpt lat="45.15547" lon="5.94807">
        <ele>2213.6000976562</ele>
        <time>2016-04-10T07:53:48.000Z</time>
      </trkpt>
      <trkpt lat="45.15549" lon="5.94809">
        <ele>2214.1999511719</ele>
        <time>2016-04-10T07:53:51.000Z</time>
      </trkpt>
      <trkpt lat="45.15549" lon="5.94811">
        <ele>2214.8000488281</ele>
        <time>2016-04-10T07:53:56.000Z</time>
      </trkpt>
      <trkpt lat="45.15547" lon="5.94813">
        <ele>2216</ele>
        <time>2016-04-10T07:54:02.000Z</time>
      </trkpt>
      <trkpt lat="45.15546" lon="5.94813">
        <ele>2216.1999511719</ele>
        <time>2016-04-10T07:54:03.000Z</time>
      </trkpt>
      <trkpt lat="45.15543" lon="5.94816">
        <ele>2217.1999511719</ele>
        <time>2016-04-10T07:54:08.000Z</time>
      </trkpt>
      <trkpt lat="45.15543" lon="5.94817">
        <ele>2217.3999023438</ele>
        <time>2016-04-10T07:54:09.000Z</time>
      </trkpt>
      <trkpt lat="45.15541" lon="5.94819">
        <ele>2218.1999511719</ele>
        <time>2016-04-10T07:54:13.000Z</time>
      </trkpt>
      <trkpt lat="45.15541" lon="5.94821">
        <ele>2218.8000488281</ele>
        <time>2016-04-10T07:54:16.000Z</time>
      </trkpt>
      <trkpt lat="45.15542" lon="5.94822">
        <ele>2219.1999511719</ele>
        <time>2016-04-10T07:54:18.000Z</time>
      </trkpt>
      <trkpt lat="45.15544" lon="5.94824">
        <ele>2220.3999023438</ele>
        <time>2016-04-10T07:54:22.000Z</time>
      </trkpt>
      <trkpt lat="45.1555" lon="5.94828">
        <ele>2221.3999023438</ele>
        <time>2016-04-10T07:54:28.000Z</time>
      </trkpt>
      <trkpt lat="45.15551" lon="5.94829">
        <ele>2221.6000976562</ele>
        <time>2016-04-10T07:54:29.000Z</time>
      </trkpt>
      <trkpt lat="45.15555" lon="5.94832">
        <ele>2222.6000976562</ele>
        <time>2016-04-10T07:54:34.000Z</time>
      </trkpt>
      <trkpt lat="45.15556" lon="5.94832">
        <ele>2223</ele>
        <time>2016-04-10T07:54:36.000Z</time>
      </trkpt>
      <trkpt lat="45.15558" lon="5.94833">
        <ele>2223.8000488281</ele>
        <time>2016-04-10T07:54:41.000Z</time>
      </trkpt>
      <trkpt lat="45.15558" lon="5.94834">
        <ele>2223.8000488281</ele>
        <time>2016-04-10T07:54:42.000Z</time>
      </trkpt>
      <trkpt lat="45.15563" lon="5.94836">
        <ele>2224.8000488281</ele>
        <time>2016-04-10T07:54:48.000Z</time>
      </trkpt>
      <trkpt lat="45.15566" lon="5.94838">
        <ele>2226</ele>
        <time>2016-04-10T07:54:53.000Z</time>
      </trkpt>
      <trkpt lat="45.15568" lon="5.94839">
        <ele>2227</ele>
        <time>2016-04-10T07:54:59.000Z</time>
      </trkpt>
      <trkpt lat="45.15569" lon="5.9484">
        <ele>2227.1999511719</ele>
        <time>2016-04-10T07:55:00.000Z</time>
      </trkpt>
      <trkpt lat="45.15574" lon="5.94841">
        <ele>2228.1999511719</ele>
        <time>2016-04-10T07:55:06.000Z</time>
      </trkpt>
      <trkpt lat="45.15576" lon="5.94843">
        <ele>2229.1999511719</ele>
        <time>2016-04-10T07:55:10.000Z</time>
      </trkpt>
      <trkpt lat="45.15577" lon="5.94843">
        <ele>2229.3999023438</ele>
        <time>2016-04-10T07:55:11.000Z</time>
      </trkpt>
      <trkpt lat="45.15579" lon="5.94845">
        <ele>2230.3999023438</ele>
        <time>2016-04-10T07:55:16.000Z</time>
      </trkpt>
      <trkpt lat="45.1558" lon="5.9485">
        <ele>2231.3999023438</ele>
        <time>2016-04-10T07:55:21.000Z</time>
      </trkpt>
      <trkpt lat="45.1558" lon="5.9485">
        <ele>2231.6000976562</ele>
        <time>2016-04-10T07:55:22.000Z</time>
      </trkpt>
      <trkpt lat="45.15578" lon="5.94854">
        <ele>2232.8000488281</ele>
        <time>2016-04-10T07:55:27.000Z</time>
      </trkpt>
      <trkpt lat="45.15578" lon="5.94855">
        <ele>2233.1999511719</ele>
        <time>2016-04-10T07:55:29.000Z</time>
      </trkpt>
      <trkpt lat="45.15576" lon="5.94859">
        <ele>2233.8000488281</ele>
        <time>2016-04-10T07:55:32.000Z</time>
      </trkpt>
      <trkpt lat="45.15575" lon="5.94861">
        <ele>2234.3999023438</ele>
        <time>2016-04-10T07:55:35.000Z</time>
      </trkpt>
      <trkpt lat="45.15575" lon="5.94862">
        <ele>2235</ele>
        <time>2016-04-10T07:55:38.000Z</time>
      </trkpt>
      <trkpt lat="45.15573" lon="5.94866">
        <ele>2236.1999511719</ele>
        <time>2016-04-10T07:55:42.000Z</time>
      </trkpt>
      <trkpt lat="45.15573" lon="5.94867">
        <ele>2236.3999023438</ele>
        <time>2016-04-10T07:55:43.000Z</time>
      </trkpt>
      <trkpt lat="45.1557" lon="5.94872">
        <ele>2237.1999511719</ele>
        <time>2016-04-10T07:55:48.000Z</time>
      </trkpt>
      <trkpt lat="45.15569" lon="5.94873">
        <ele>2237.3999023438</ele>
        <time>2016-04-10T07:55:49.000Z</time>
      </trkpt>
      <trkpt lat="45.15567" lon="5.94877">
        <ele>2238.1999511719</ele>
        <time>2016-04-10T07:55:55.000Z</time>
      </trkpt>
      <trkpt lat="45.15566" lon="5.94881">
        <ele>2239.3999023438</ele>
        <time>2016-04-10T07:56:01.000Z</time>
      </trkpt>
      <trkpt lat="45.15563" lon="5.94884">
        <ele>2240.3999023438</ele>
        <time>2016-04-10T07:56:08.000Z</time>
      </trkpt>
      <trkpt lat="45.15563" lon="5.94884">
        <ele>2240.6000976562</ele>
        <time>2016-04-10T07:56:09.000Z</time>
      </trkpt>
      <trkpt lat="45.15561" lon="5.94887">
        <ele>2241.6000976562</ele>
        <time>2016-04-10T07:56:14.000Z</time>
      </trkpt>
      <trkpt lat="45.15559" lon="5.9489">
        <ele>2242.8000488281</ele>
        <time>2016-04-10T07:56:18.000Z</time>
      </trkpt>
      <trkpt lat="45.15558" lon="5.94892">
        <ele>2243.8000488281</ele>
        <time>2016-04-10T07:56:23.000Z</time>
      </trkpt>
      <trkpt lat="45.15558" lon="5.94893">
        <ele>2244</ele>
        <time>2016-04-10T07:56:24.000Z</time>
      </trkpt>
      <trkpt lat="45.15561" lon="5.94897">
        <ele>2245.1999511719</ele>
        <time>2016-04-10T07:56:28.000Z</time>
      </trkpt>
      <trkpt lat="45.15563" lon="5.94898">
        <ele>2246</ele>
        <time>2016-04-10T07:56:31.000Z</time>
      </trkpt>
      <trkpt lat="45.15563" lon="5.94898">
        <ele>2246.1999511719</ele>
        <time>2016-04-10T07:56:32.000Z</time>
      </trkpt>
      <trkpt lat="45.15565" lon="5.94901">
        <ele>2247</ele>
        <time>2016-04-10T07:56:37.000Z</time>
      </trkpt>
      <trkpt lat="45.15565" lon="5.94902">
        <ele>2247.3999023438</ele>
        <time>2016-04-10T07:56:38.000Z</time>
      </trkpt>
      <trkpt lat="45.15569" lon="5.94904">
        <ele>2248.1999511719</ele>
        <time>2016-04-10T07:56:44.000Z</time>
      </trkpt>
      <trkpt lat="45.1557" lon="5.94905">
        <ele>2248.3999023438</ele>
        <time>2016-04-10T07:56:45.000Z</time>
      </trkpt>
      <trkpt lat="45.15573" lon="5.94908">
        <ele>2249.3999023438</ele>
        <time>2016-04-10T07:56:50.000Z</time>
      </trkpt>
      <trkpt lat="45.15573" lon="5.94908">
        <ele>2249.3999023438</ele>
        <time>2016-04-10T07:56:51.000Z</time>
      </trkpt>
      <trkpt lat="45.15575" lon="5.94909">
        <ele>2250.6000976562</ele>
        <time>2016-04-10T07:56:55.000Z</time>
      </trkpt>
      <trkpt lat="45.15576" lon="5.94911">
        <ele>2251.1999511719</ele>
        <time>2016-04-10T07:56:57.000Z</time>
      </trkpt>
      <trkpt lat="45.15577" lon="5.94913">
        <ele>2252</ele>
        <time>2016-04-10T07:57:01.000Z</time>
      </trkpt>
      <trkpt lat="45.15578" lon="5.94914">
        <ele>2252.3999023438</ele>
        <time>2016-04-10T07:57:03.000Z</time>
      </trkpt>
      <trkpt lat="45.15579" lon="5.94915">
        <ele>2253</ele>
        <time>2016-04-10T07:57:07.000Z</time>
      </trkpt>
      <trkpt lat="45.1558" lon="5.94917">
        <ele>2253.3999023438</ele>
        <time>2016-04-10T07:57:10.000Z</time>
      </trkpt>
      <trkpt lat="45.15582" lon="5.94918">
        <ele>2254.1999511719</ele>
        <time>2016-04-10T07:57:14.000Z</time>
      </trkpt>
      <trkpt lat="45.15583" lon="5.94919">
        <ele>2255</ele>
        <time>2016-04-10T07:57:16.000Z</time>
      </trkpt>
      <trkpt lat="45.15585" lon="5.9492">
        <ele>2255.3999023438</ele>
        <time>2016-04-10T07:57:18.000Z</time>
      </trkpt>
      <trkpt lat="45.15588" lon="5.94924">
        <ele>2256.1999511719</ele>
        <time>2016-04-10T07:57:24.000Z</time>
      </trkpt>
      <trkpt lat="45.15588" lon="5.94924">
        <ele>2256.3999023438</ele>
        <time>2016-04-10T07:57:25.000Z</time>
      </trkpt>
      <trkpt lat="45.15591" lon="5.94926">
        <ele>2257.1999511719</ele>
        <time>2016-04-10T07:57:29.000Z</time>
      </trkpt>
      <trkpt lat="45.15591" lon="5.94929">
        <ele>2257.6000976562</ele>
        <time>2016-04-10T07:57:33.000Z</time>
      </trkpt>
      <trkpt lat="45.15593" lon="5.9493">
        <ele>2258</ele>
        <time>2016-04-10T07:57:36.000Z</time>
      </trkpt>
      <trkpt lat="45.15594" lon="5.94931">
        <ele>2258.6000976562</ele>
        <time>2016-04-10T07:57:38.000Z</time>
      </trkpt>
      <trkpt lat="45.15594" lon="5.94933">
        <ele>2259.6000976562</ele>
        <time>2016-04-10T07:57:41.000Z</time>
      </trkpt>
      <trkpt lat="45.15594" lon="5.94934">
        <ele>2259.6000976562</ele>
        <time>2016-04-10T07:57:42.000Z</time>
      </trkpt>
      <trkpt lat="45.15597" lon="5.94937">
        <ele>2260.8000488281</ele>
        <time>2016-04-10T07:57:47.000Z</time>
      </trkpt>
      <trkpt lat="45.15598" lon="5.94938">
        <ele>2261</ele>
        <time>2016-04-10T07:57:48.000Z</time>
      </trkpt>
      <trkpt lat="45.156" lon="5.94941">
        <ele>2262</ele>
        <time>2016-04-10T07:57:53.000Z</time>
      </trkpt>
      <trkpt lat="45.15601" lon="5.94943">
        <ele>2262.6000976562</ele>
        <time>2016-04-10T07:57:57.000Z</time>
      </trkpt>
      <trkpt lat="45.15602" lon="5.94944">
        <ele>2263</ele>
        <time>2016-04-10T07:58:00.000Z</time>
      </trkpt>
      <trkpt lat="45.15604" lon="5.94945">
        <ele>2263.3999023438</ele>
        <time>2016-04-10T07:58:03.000Z</time>
      </trkpt>
      <trkpt lat="45.15605" lon="5.94947">
        <ele>2264.1999511719</ele>
        <time>2016-04-10T07:58:06.000Z</time>
      </trkpt>
      <trkpt lat="45.15605" lon="5.94948">
        <ele>2264.3999023438</ele>
        <time>2016-04-10T07:58:08.000Z</time>
      </trkpt>
      <trkpt lat="45.15607" lon="5.94951">
        <ele>2265.1999511719</ele>
        <time>2016-04-10T07:58:12.000Z</time>
      </trkpt>
      <trkpt lat="45.15607" lon="5.94953">
        <ele>2266.1999511719</ele>
        <time>2016-04-10T07:58:17.000Z</time>
      </trkpt>
      <trkpt lat="45.15608" lon="5.94954">
        <ele>2266.3999023438</ele>
        <time>2016-04-10T07:58:18.000Z</time>
      </trkpt>
      <trkpt lat="45.15608" lon="5.94955">
        <ele>2267.3999023438</ele>
        <time>2016-04-10T07:58:22.000Z</time>
      </trkpt>
      <trkpt lat="45.15609" lon="5.94956">
        <ele>2267.6000976562</ele>
        <time>2016-04-10T07:58:23.000Z</time>
      </trkpt>
      <trkpt lat="45.15609" lon="5.94959">
        <ele>2268.1999511719</ele>
        <time>2016-04-10T07:58:26.000Z</time>
      </trkpt>
      <trkpt lat="45.1561" lon="5.94961">
        <ele>2268.8000488281</ele>
        <time>2016-04-10T07:58:30.000Z</time>
      </trkpt>
      <trkpt lat="45.1561" lon="5.94962">
        <ele>2268.8000488281</ele>
        <time>2016-04-10T07:58:31.000Z</time>
      </trkpt>
      <trkpt lat="45.15612" lon="5.94964">
        <ele>2269.3999023438</ele>
        <time>2016-04-10T07:58:36.000Z</time>
      </trkpt>
      <trkpt lat="45.15613" lon="5.94965">
        <ele>2269.8000488281</ele>
        <time>2016-04-10T07:58:39.000Z</time>
      </trkpt>
      <trkpt lat="45.15613" lon="5.94966">
        <ele>2270.3999023438</ele>
        <time>2016-04-10T07:58:41.000Z</time>
      </trkpt>
      <trkpt lat="45.15614" lon="5.94967">
        <ele>2270.8000488281</ele>
        <time>2016-04-10T07:58:43.000Z</time>
      </trkpt>
      <trkpt lat="45.15615" lon="5.94968">
        <ele>2271.6000976562</ele>
        <time>2016-04-10T07:58:46.000Z</time>
      </trkpt>
      <trkpt lat="45.15616" lon="5.9497">
        <ele>2272</ele>
        <time>2016-04-10T07:58:48.000Z</time>
      </trkpt>
      <trkpt lat="45.15618" lon="5.94972">
        <ele>2273</ele>
        <time>2016-04-10T07:58:52.000Z</time>
      </trkpt>
      <trkpt lat="45.15618" lon="5.94973">
        <ele>2273.1999511719</ele>
        <time>2016-04-10T07:58:53.000Z</time>
      </trkpt>
      <trkpt lat="45.15618" lon="5.94974">
        <ele>2273.6000976562</ele>
        <time>2016-04-10T07:58:59.000Z</time>
      </trkpt>
      <trkpt lat="45.15618" lon="5.94973">
        <ele>2274.1999511719</ele>
        <time>2016-04-10T07:59:01.000Z</time>
      </trkpt>
      <trkpt lat="45.15615" lon="5.94974">
        <ele>2274.3999023438</ele>
        <time>2016-04-10T07:59:07.000Z</time>
      </trkpt>
      <trkpt lat="45.15614" lon="5.94975">
        <ele>2275.1999511719</ele>
        <time>2016-04-10T07:59:10.000Z</time>
      </trkpt>
      <trkpt lat="45.15611" lon="5.9498">
        <ele>2276.1999511719</ele>
        <time>2016-04-10T07:59:15.000Z</time>
      </trkpt>
      <trkpt lat="45.1561" lon="5.9498">
        <ele>2276.3999023438</ele>
        <time>2016-04-10T07:59:16.000Z</time>
      </trkpt>
      <trkpt lat="45.15606" lon="5.94981">
        <ele>2277.3999023438</ele>
        <time>2016-04-10T07:59:22.000Z</time>
      </trkpt>
      <trkpt lat="45.15602" lon="5.9498">
        <ele>2278.6000976562</ele>
        <time>2016-04-10T07:59:28.000Z</time>
      </trkpt>
      <trkpt lat="45.15601" lon="5.9498">
        <ele>2278.8000488281</ele>
        <time>2016-04-10T07:59:29.000Z</time>
      </trkpt>
      <trkpt lat="45.15599" lon="5.94981">
        <ele>2279.6000976562</ele>
        <time>2016-04-10T07:59:34.000Z</time>
      </trkpt>
      <trkpt lat="45.15598" lon="5.94981">
        <ele>2279.6000976562</ele>
        <time>2016-04-10T07:59:35.000Z</time>
      </trkpt>
      <trkpt lat="45.15595" lon="5.94982">
        <ele>2280.6000976562</ele>
        <time>2016-04-10T07:59:40.000Z</time>
      </trkpt>
      <trkpt lat="45.15594" lon="5.94982">
        <ele>2281.8000488281</ele>
        <time>2016-04-10T07:59:43.000Z</time>
      </trkpt>
      <trkpt lat="45.15593" lon="5.94982">
        <ele>2282</ele>
        <time>2016-04-10T07:59:44.000Z</time>
      </trkpt>
      <trkpt lat="45.15591" lon="5.94983">
        <ele>2282.8000488281</ele>
        <time>2016-04-10T07:59:48.000Z</time>
      </trkpt>
      <trkpt lat="45.1559" lon="5.94983">
        <ele>2283.3999023438</ele>
        <time>2016-04-10T07:59:51.000Z</time>
      </trkpt>
      <trkpt lat="45.15588" lon="5.94984">
        <ele>2283.8000488281</ele>
        <time>2016-04-10T07:59:54.000Z</time>
      </trkpt>
      <trkpt lat="45.15586" lon="5.94985">
        <ele>2284.3999023438</ele>
        <time>2016-04-10T07:59:59.000Z</time>
      </trkpt>
      <trkpt lat="45.15584" lon="5.94985">
        <ele>2285</ele>
        <time>2016-04-10T08:00:03.000Z</time>
      </trkpt>
      <trkpt lat="45.1558" lon="5.94985">
        <ele>2286.1999511719</ele>
        <time>2016-04-10T08:00:08.000Z</time>
      </trkpt>
      <trkpt lat="45.15578" lon="5.94986">
        <ele>2287.1999511719</ele>
        <time>2016-04-10T08:00:13.000Z</time>
      </trkpt>
      <trkpt lat="45.15577" lon="5.94985">
        <ele>2287.8000488281</ele>
        <time>2016-04-10T08:00:15.000Z</time>
      </trkpt>
      <trkpt lat="45.15577" lon="5.94985">
        <ele>2288.1999511719</ele>
        <time>2016-04-10T08:00:23.000Z</time>
      </trkpt>
      <trkpt lat="45.15577" lon="5.94985">
        <ele>2288.3999023438</ele>
        <time>2016-04-10T08:00:25.000Z</time>
      </trkpt>
      <trkpt lat="45.15577" lon="5.94985">
        <ele>2289.6000976562</ele>
        <time>2016-04-10T08:00:29.000Z</time>
      </trkpt>
      <trkpt lat="45.15576" lon="5.94986">
        <ele>2290</ele>
        <time>2016-04-10T08:00:31.000Z</time>
      </trkpt>
      <trkpt lat="45.15571" lon="5.94988">
        <ele>2290.6000976562</ele>
        <time>2016-04-10T08:00:38.000Z</time>
      </trkpt>
      <trkpt lat="45.15571" lon="5.94988">
        <ele>2290.8000488281</ele>
        <time>2016-04-10T08:00:39.000Z</time>
      </trkpt>
      <trkpt lat="45.15567" lon="5.9499">
        <ele>2291.8000488281</ele>
        <time>2016-04-10T08:00:44.000Z</time>
      </trkpt>
      <trkpt lat="45.15565" lon="5.9499">
        <ele>2292.3999023438</ele>
        <time>2016-04-10T08:00:47.000Z</time>
      </trkpt>
      <trkpt lat="45.15563" lon="5.94991">
        <ele>2292.8000488281</ele>
        <time>2016-04-10T08:00:51.000Z</time>
      </trkpt>
      <trkpt lat="45.15559" lon="5.94991">
        <ele>2294.1999511719</ele>
        <time>2016-04-10T08:00:57.000Z</time>
      </trkpt>
      <trkpt lat="45.15557" lon="5.94991">
        <ele>2295.1999511719</ele>
        <time>2016-04-10T08:01:01.000Z</time>
      </trkpt>
      <trkpt lat="45.15554" lon="5.94991">
        <ele>2295.8000488281</ele>
        <time>2016-04-10T08:01:06.000Z</time>
      </trkpt>
      <trkpt lat="45.15553" lon="5.94991">
        <ele>2296.1999511719</ele>
        <time>2016-04-10T08:01:09.000Z</time>
      </trkpt>
      <trkpt lat="45.15553" lon="5.94991">
        <ele>2296.8000488281</ele>
        <time>2016-04-10T08:01:16.000Z</time>
      </trkpt>
      <trkpt lat="45.15554" lon="5.94993">
        <ele>2296.8000488281</ele>
        <time>2016-04-10T08:01:26.000Z</time>
      </trkpt>
      <trkpt lat="45.15554" lon="5.94993">
        <ele>2297.1999511719</ele>
        <time>2016-04-10T08:01:29.000Z</time>
      </trkpt>
      <trkpt lat="45.15556" lon="5.94995">
        <ele>2297.3999023438</ele>
        <time>2016-04-10T08:01:34.000Z</time>
      </trkpt>
      <trkpt lat="45.15557" lon="5.94997">
        <ele>2298.3999023438</ele>
        <time>2016-04-10T08:01:38.000Z</time>
      </trkpt>
      <trkpt lat="45.15558" lon="5.94998">
        <ele>2298.8000488281</ele>
        <time>2016-04-10T08:01:40.000Z</time>
      </trkpt>
      <trkpt lat="45.15558" lon="5.94999">
        <ele>2299.3999023438</ele>
        <time>2016-04-10T08:01:41.000Z</time>
      </trkpt>
      <trkpt lat="45.1556" lon="5.95001">
        <ele>2299.6000976562</ele>
        <time>2016-04-10T08:01:46.000Z</time>
      </trkpt>
      <trkpt lat="45.15562" lon="5.95003">
        <ele>2300.1999511719</ele>
        <time>2016-04-10T08:01:53.000Z</time>
      </trkpt>
      <trkpt lat="45.15562" lon="5.95003">
        <ele>2300.6000976562</ele>
        <time>2016-04-10T08:01:55.000Z</time>
      </trkpt>
      <trkpt lat="45.15563" lon="5.95003">
        <ele>2301.1999511719</ele>
        <time>2016-04-10T08:02:03.000Z</time>
      </trkpt>
      <trkpt lat="45.15565" lon="5.95006">
        <ele>2301.6000976562</ele>
        <time>2016-04-10T08:02:07.000Z</time>
      </trkpt>
      <trkpt lat="45.15566" lon="5.95007">
        <ele>2301.8000488281</ele>
        <time>2016-04-10T08:02:09.000Z</time>
      </trkpt>
      <trkpt lat="45.1557" lon="5.9501">
        <ele>2302.3999023438</ele>
        <time>2016-04-10T08:02:15.000Z</time>
      </trkpt>
      <trkpt lat="45.1557" lon="5.9501">
        <ele>2302.8000488281</ele>
        <time>2016-04-10T08:02:21.000Z</time>
      </trkpt>
      <trkpt lat="45.1557" lon="5.9501">
        <ele>2303.3999023438</ele>
        <time>2016-04-10T08:02:24.000Z</time>
      </trkpt>
      <trkpt lat="45.1557" lon="5.9501">
        <ele>2303.8000488281</ele>
        <time>2016-04-10T08:02:27.000Z</time>
      </trkpt>
      <trkpt lat="45.15567" lon="5.95011">
        <ele>2304.3999023438</ele>
        <time>2016-04-10T08:02:32.000Z</time>
      </trkpt>
      <trkpt lat="45.15564" lon="5.95012">
        <ele>2305</ele>
        <time>2016-04-10T08:02:39.000Z</time>
      </trkpt>
      <trkpt lat="45.15564" lon="5.95012">
        <ele>2305</ele>
        <time>2016-04-10T08:02:40.000Z</time>
      </trkpt>
      <trkpt lat="45.15561" lon="5.95012">
        <ele>2306</ele>
        <time>2016-04-10T08:02:46.000Z</time>
      </trkpt>
      <trkpt lat="45.15559" lon="5.95013">
        <ele>2307</ele>
        <time>2016-04-10T08:02:52.000Z</time>
      </trkpt>
      <trkpt lat="45.15557" lon="5.95014">
        <ele>2307.3999023438</ele>
        <time>2016-04-10T08:02:55.000Z</time>
      </trkpt>
      <trkpt lat="45.15555" lon="5.95014">
        <ele>2308</ele>
        <time>2016-04-10T08:02:58.000Z</time>
      </trkpt>
      <trkpt lat="45.15554" lon="5.95015">
        <ele>2309</ele>
        <time>2016-04-10T08:03:03.000Z</time>
      </trkpt>
      <trkpt lat="45.15554" lon="5.95015">
        <ele>2309.1999511719</ele>
        <time>2016-04-10T08:03:05.000Z</time>
      </trkpt>
      <trkpt lat="45.15556" lon="5.95021">
        <ele>2309.3999023438</ele>
        <time>2016-04-10T08:03:13.000Z</time>
      </trkpt>
      <trkpt lat="45.15559" lon="5.95025">
        <ele>2310.1999511719</ele>
        <time>2016-04-10T08:03:18.000Z</time>
      </trkpt>
      <trkpt lat="45.15559" lon="5.95028">
        <ele>2311</ele>
        <time>2016-04-10T08:03:21.000Z</time>
      </trkpt>
      <trkpt lat="45.1556" lon="5.95032">
        <ele>2311.3999023438</ele>
        <time>2016-04-10T08:03:26.000Z</time>
      </trkpt>
      <trkpt lat="45.15561" lon="5.95033">
        <ele>2311.6000976562</ele>
        <time>2016-04-10T08:03:28.000Z</time>
      </trkpt>
      <trkpt lat="45.15561" lon="5.95033">
        <ele>2312.3999023438</ele>
        <time>2016-04-10T08:03:31.000Z</time>
      </trkpt>
      <trkpt lat="45.15562" lon="5.95034">
        <ele>2313.1999511719</ele>
        <time>2016-04-10T08:03:35.000Z</time>
      </trkpt>
      <trkpt lat="45.15563" lon="5.95035">
        <ele>2313.3999023438</ele>
        <time>2016-04-10T08:03:36.000Z</time>
      </trkpt>
      <trkpt lat="45.15566" lon="5.95038">
        <ele>2314.6000976562</ele>
        <time>2016-04-10T08:03:41.000Z</time>
      </trkpt>
      <trkpt lat="45.15566" lon="5.95038">
        <ele>2314.8000488281</ele>
        <time>2016-04-10T08:03:42.000Z</time>
      </trkpt>
      <trkpt lat="45.15567" lon="5.95041">
        <ele>2315.6000976562</ele>
        <time>2016-04-10T08:03:46.000Z</time>
      </trkpt>
      <trkpt lat="45.15568" lon="5.95044">
        <ele>2316.1999511719</ele>
        <time>2016-04-10T08:03:49.000Z</time>
      </trkpt>
      <trkpt lat="45.15569" lon="5.95047">
        <ele>2316.8000488281</ele>
        <time>2016-04-10T08:03:52.000Z</time>
      </trkpt>
      <trkpt lat="45.15571" lon="5.9505">
        <ele>2317.8000488281</ele>
        <time>2016-04-10T08:03:57.000Z</time>
      </trkpt>
      <trkpt lat="45.15573" lon="5.95056">
        <ele>2319</ele>
        <time>2016-04-10T08:04:04.000Z</time>
      </trkpt>
      <trkpt lat="45.15576" lon="5.95059">
        <ele>2320</ele>
        <time>2016-04-10T08:04:10.000Z</time>
      </trkpt>
      <trkpt lat="45.15577" lon="5.95059">
        <ele>2320</ele>
        <time>2016-04-10T08:04:11.000Z</time>
      </trkpt>
      <trkpt lat="45.15582" lon="5.95065">
        <ele>2321.1999511719</ele>
        <time>2016-04-10T08:04:18.000Z</time>
      </trkpt>
      <trkpt lat="45.15586" lon="5.95069">
        <ele>2322</ele>
        <time>2016-04-10T08:04:25.000Z</time>
      </trkpt>
      <trkpt lat="45.15587" lon="5.9507">
        <ele>2322.1999511719</ele>
        <time>2016-04-10T08:04:27.000Z</time>
      </trkpt>
      <trkpt lat="45.1559" lon="5.95076">
        <ele>2322.8000488281</ele>
        <time>2016-04-10T08:04:33.000Z</time>
      </trkpt>
      <trkpt lat="45.15591" lon="5.95081">
        <ele>2323.1999511719</ele>
        <time>2016-04-10T08:04:38.000Z</time>
      </trkpt>
      <trkpt lat="45.15592" lon="5.95081">
        <ele>2323.3999023438</ele>
        <time>2016-04-10T08:04:39.000Z</time>
      </trkpt>
      <trkpt lat="45.15593" lon="5.95086">
        <ele>2324.3999023438</ele>
        <time>2016-04-10T08:04:44.000Z</time>
      </trkpt>
      <trkpt lat="45.15593" lon="5.95088">
        <ele>2324.8000488281</ele>
        <time>2016-04-10T08:04:46.000Z</time>
      </trkpt>
      <trkpt lat="45.15594" lon="5.95091">
        <ele>2325.6000976562</ele>
        <time>2016-04-10T08:04:50.000Z</time>
      </trkpt>
      <trkpt lat="45.15594" lon="5.95091">
        <ele>2326</ele>
        <time>2016-04-10T08:04:52.000Z</time>
      </trkpt>
      <trkpt lat="45.15594" lon="5.95092">
        <ele>2326.8000488281</ele>
        <time>2016-04-10T08:04:54.000Z</time>
      </trkpt>
      <trkpt lat="45.15596" lon="5.95095">
        <ele>2327.3999023438</ele>
        <time>2016-04-10T08:04:58.000Z</time>
      </trkpt>
      <trkpt lat="45.15597" lon="5.95097">
        <ele>2327.8000488281</ele>
        <time>2016-04-10T08:05:00.000Z</time>
      </trkpt>
      <trkpt lat="45.156" lon="5.95099">
        <ele>2329</ele>
        <time>2016-04-10T08:05:05.000Z</time>
      </trkpt>
      <trkpt lat="45.15602" lon="5.95104">
        <ele>2330.1999511719</ele>
        <time>2016-04-10T08:05:11.000Z</time>
      </trkpt>
      <trkpt lat="45.15603" lon="5.95106">
        <ele>2330.1999511719</ele>
        <time>2016-04-10T08:05:12.000Z</time>
      </trkpt>
      <trkpt lat="45.15606" lon="5.9511">
        <ele>2331.1999511719</ele>
        <time>2016-04-10T08:05:17.000Z</time>
      </trkpt>
      <trkpt lat="45.15607" lon="5.95111">
        <ele>2331.3999023438</ele>
        <time>2016-04-10T08:05:19.000Z</time>
      </trkpt>
      <trkpt lat="45.15607" lon="5.95113">
        <ele>2332.3999023438</ele>
        <time>2016-04-10T08:05:24.000Z</time>
      </trkpt>
      <trkpt lat="45.15607" lon="5.95113">
        <ele>2332.8000488281</ele>
        <time>2016-04-10T08:05:26.000Z</time>
      </trkpt>
      <trkpt lat="45.15608" lon="5.95114">
        <ele>2333.3999023438</ele>
        <time>2016-04-10T08:05:30.000Z</time>
      </trkpt>
      <trkpt lat="45.15609" lon="5.95116">
        <ele>2333.8000488281</ele>
        <time>2016-04-10T08:05:32.000Z</time>
      </trkpt>
      <trkpt lat="45.15608" lon="5.95117">
        <ele>2334.6000976562</ele>
        <time>2016-04-10T08:05:35.000Z</time>
      </trkpt>
      <trkpt lat="45.15608" lon="5.9512">
        <ele>2335.6000976562</ele>
        <time>2016-04-10T08:05:39.000Z</time>
      </trkpt>
      <trkpt lat="45.15608" lon="5.95121">
        <ele>2335.8000488281</ele>
        <time>2016-04-10T08:05:40.000Z</time>
      </trkpt>
      <trkpt lat="45.15606" lon="5.95125">
        <ele>2336.8000488281</ele>
        <time>2016-04-10T08:05:45.000Z</time>
      </trkpt>
      <trkpt lat="45.15606" lon="5.95126">
        <ele>2336.8000488281</ele>
        <time>2016-04-10T08:05:46.000Z</time>
      </trkpt>
      <trkpt lat="45.15604" lon="5.95132">
        <ele>2337.8000488281</ele>
        <time>2016-04-10T08:05:53.000Z</time>
      </trkpt>
      <trkpt lat="45.15603" lon="5.95132">
        <ele>2338</ele>
        <time>2016-04-10T08:05:54.000Z</time>
      </trkpt>
      <trkpt lat="45.15601" lon="5.95138">
        <ele>2339</ele>
        <time>2016-04-10T08:06:00.000Z</time>
      </trkpt>
      <trkpt lat="45.15601" lon="5.95139">
        <ele>2339.3999023438</ele>
        <time>2016-04-10T08:06:01.000Z</time>
      </trkpt>
      <trkpt lat="45.15599" lon="5.95143">
        <ele>2340.1999511719</ele>
        <time>2016-04-10T08:06:04.000Z</time>
      </trkpt>
      <trkpt lat="45.15598" lon="5.95145">
        <ele>2341.3999023438</ele>
        <time>2016-04-10T08:06:07.000Z</time>
      </trkpt>
      <trkpt lat="45.15598" lon="5.95146">
        <ele>2341.6000976562</ele>
        <time>2016-04-10T08:06:08.000Z</time>
      </trkpt>
      <trkpt lat="45.15597" lon="5.95148">
        <ele>2342.3999023438</ele>
        <time>2016-04-10T08:06:11.000Z</time>
      </trkpt>
      <trkpt lat="45.15597" lon="5.95149">
        <ele>2343.3999023438</ele>
        <time>2016-04-10T08:06:15.000Z</time>
      </trkpt>
      <trkpt lat="45.15597" lon="5.95149">
        <ele>2343.6000976562</ele>
        <time>2016-04-10T08:06:16.000Z</time>
      </trkpt>
      <trkpt lat="45.15599" lon="5.95151">
        <ele>2344.3999023438</ele>
        <time>2016-04-10T08:06:22.000Z</time>
      </trkpt>
      <trkpt lat="45.15599" lon="5.95151">
        <ele>2344.6000976562</ele>
        <time>2016-04-10T08:06:23.000Z</time>
      </trkpt>
      <trkpt lat="45.15603" lon="5.95155">
        <ele>2345.3999023438</ele>
        <time>2016-04-10T08:06:27.000Z</time>
      </trkpt>
      <trkpt lat="45.15604" lon="5.95157">
        <ele>2346</ele>
        <time>2016-04-10T08:06:29.000Z</time>
      </trkpt>
      <trkpt lat="45.15606" lon="5.95161">
        <ele>2346.6000976562</ele>
        <time>2016-04-10T08:06:32.000Z</time>
      </trkpt>
      <trkpt lat="45.15609" lon="5.95163">
        <ele>2347.6000976562</ele>
        <time>2016-04-10T08:06:37.000Z</time>
      </trkpt>
      <trkpt lat="45.15611" lon="5.95166">
        <ele>2348.6000976562</ele>
        <time>2016-04-10T08:06:42.000Z</time>
      </trkpt>
      <trkpt lat="45.15613" lon="5.95167">
        <ele>2349.1999511719</ele>
        <time>2016-04-10T08:06:45.000Z</time>
      </trkpt>
      <trkpt lat="45.15617" lon="5.95166">
        <ele>2350</ele>
        <time>2016-04-10T08:06:51.000Z</time>
      </trkpt>
      <trkpt lat="45.15618" lon="5.95167">
        <ele>2350</ele>
        <time>2016-04-10T08:06:52.000Z</time>
      </trkpt>
      <trkpt lat="45.1562" lon="5.95168">
        <ele>2351.1999511719</ele>
        <time>2016-04-10T08:06:56.000Z</time>
      </trkpt>
      <trkpt lat="45.15622" lon="5.9517">
        <ele>2352</ele>
        <time>2016-04-10T08:07:00.000Z</time>
      </trkpt>
      <trkpt lat="45.15623" lon="5.9517">
        <ele>2352.1999511719</ele>
        <time>2016-04-10T08:07:01.000Z</time>
      </trkpt>
      <trkpt lat="45.15624" lon="5.95172">
        <ele>2353.1999511719</ele>
        <time>2016-04-10T08:07:07.000Z</time>
      </trkpt>
      <trkpt lat="45.15625" lon="5.95173">
        <ele>2353.3999023438</ele>
        <time>2016-04-10T08:07:09.000Z</time>
      </trkpt>
      <trkpt lat="45.15625" lon="5.95175">
        <ele>2354.3999023438</ele>
        <time>2016-04-10T08:07:14.000Z</time>
      </trkpt>
      <trkpt lat="45.15625" lon="5.95176">
        <ele>2354.6000976562</ele>
        <time>2016-04-10T08:07:15.000Z</time>
      </trkpt>
      <trkpt lat="45.15623" lon="5.95179">
        <ele>2355.3999023438</ele>
        <time>2016-04-10T08:07:18.000Z</time>
      </trkpt>
      <trkpt lat="45.15623" lon="5.95184">
        <ele>2356.3999023438</ele>
        <time>2016-04-10T08:07:24.000Z</time>
      </trkpt>
      <trkpt lat="45.15625" lon="5.95186">
        <ele>2357.8000488281</ele>
        <time>2016-04-10T08:07:29.000Z</time>
      </trkpt>
      <trkpt lat="45.15627" lon="5.95187">
        <ele>2358.1999511719</ele>
        <time>2016-04-10T08:07:32.000Z</time>
      </trkpt>
      <trkpt lat="45.15628" lon="5.95188">
        <ele>2358.8000488281</ele>
        <time>2016-04-10T08:07:35.000Z</time>
      </trkpt>
      <trkpt lat="45.15629" lon="5.95189">
        <ele>2359.1999511719</ele>
        <time>2016-04-10T08:07:37.000Z</time>
      </trkpt>
      <trkpt lat="45.15633" lon="5.95194">
        <ele>2360</ele>
        <time>2016-04-10T08:07:42.000Z</time>
      </trkpt>
      <trkpt lat="45.15634" lon="5.95195">
        <ele>2360.3999023438</ele>
        <time>2016-04-10T08:07:43.000Z</time>
      </trkpt>
      <trkpt lat="45.15638" lon="5.95194">
        <ele>2361.1999511719</ele>
        <time>2016-04-10T08:07:48.000Z</time>
      </trkpt>
      <trkpt lat="45.15639" lon="5.95194">
        <ele>2361.6000976562</ele>
        <time>2016-04-10T08:07:49.000Z</time>
      </trkpt>
      <trkpt lat="45.15642" lon="5.95191">
        <ele>2362.3999023438</ele>
        <time>2016-04-10T08:07:52.000Z</time>
      </trkpt>
      <trkpt lat="45.15643" lon="5.95189">
        <ele>2363.6000976562</ele>
        <time>2016-04-10T08:07:57.000Z</time>
      </trkpt>
      <trkpt lat="45.15643" lon="5.95192">
        <ele>2364.6000976562</ele>
        <time>2016-04-10T08:08:02.000Z</time>
      </trkpt>
      <trkpt lat="45.15644" lon="5.95193">
        <ele>2364.8000488281</ele>
        <time>2016-04-10T08:08:03.000Z</time>
      </trkpt>
      <trkpt lat="45.15644" lon="5.95195">
        <ele>2365.6000976562</ele>
        <time>2016-04-10T08:08:10.000Z</time>
      </trkpt>
      <trkpt lat="45.15647" lon="5.95201">
        <ele>2366.8000488281</ele>
        <time>2016-04-10T08:08:15.000Z</time>
      </trkpt>
      <trkpt lat="45.15647" lon="5.95202">
        <ele>2367.3999023438</ele>
        <time>2016-04-10T08:08:18.000Z</time>
      </trkpt>
      <trkpt lat="45.1565" lon="5.95198">
        <ele>2368</ele>
        <time>2016-04-10T08:08:20.000Z</time>
      </trkpt>
      <trkpt lat="45.15652" lon="5.95196">
        <ele>2368.8000488281</ele>
        <time>2016-04-10T08:08:23.000Z</time>
      </trkpt>
      <trkpt lat="45.15653" lon="5.95194">
        <ele>2369.1999511719</ele>
        <time>2016-04-10T08:08:25.000Z</time>
      </trkpt>
      <trkpt lat="45.15654" lon="5.95192">
        <ele>2369.1999511719</ele>
        <time>2016-04-10T08:08:27.000Z</time>
      </trkpt>
      <trkpt lat="45.15657" lon="5.95188">
        <ele>2369.8000488281</ele>
        <time>2016-04-10T08:08:33.000Z</time>
      </trkpt>
      <trkpt lat="45.15657" lon="5.95188">
        <ele>2370.3999023438</ele>
        <time>2016-04-10T08:08:37.000Z</time>
      </trkpt>
      <trkpt lat="45.15656" lon="5.95192">
        <ele>2371.6000976562</ele>
        <time>2016-04-10T08:08:40.000Z</time>
      </trkpt>
      <trkpt lat="45.15656" lon="5.95194">
        <ele>2372</ele>
        <time>2016-04-10T08:08:42.000Z</time>
      </trkpt>
      <trkpt lat="45.15656" lon="5.95199">
        <ele>2372.8000488281</ele>
        <time>2016-04-10T08:08:51.000Z</time>
      </trkpt>
      <trkpt lat="45.15658" lon="5.95197">
        <ele>2373.8000488281</ele>
        <time>2016-04-10T08:08:56.000Z</time>
      </trkpt>
      <trkpt lat="45.15659" lon="5.95195">
        <ele>2374</ele>
        <time>2016-04-10T08:08:57.000Z</time>
      </trkpt>
      <trkpt lat="45.1566" lon="5.95192">
        <ele>2375</ele>
        <time>2016-04-10T08:09:02.000Z</time>
      </trkpt>
      <trkpt lat="45.15662" lon="5.95186">
        <ele>2376</ele>
        <time>2016-04-10T08:09:08.000Z</time>
      </trkpt>
      <trkpt lat="45.15662" lon="5.95183">
        <ele>2376.1999511719</ele>
        <time>2016-04-10T08:09:11.000Z</time>
      </trkpt>
      <trkpt lat="45.15662" lon="5.95181">
        <ele>2376.6000976562</ele>
        <time>2016-04-10T08:09:13.000Z</time>
      </trkpt>
      <trkpt lat="45.15662" lon="5.9518">
        <ele>2377.1999511719</ele>
        <time>2016-04-10T08:09:15.000Z</time>
      </trkpt>
      <trkpt lat="45.15662" lon="5.95179">
        <ele>2378.3999023438</ele>
        <time>2016-04-10T08:09:18.000Z</time>
      </trkpt>
      <trkpt lat="45.15662" lon="5.95178">
        <ele>2378.3999023438</ele>
        <time>2016-04-10T08:09:19.000Z</time>
      </trkpt>
      <trkpt lat="45.15663" lon="5.95177">
        <ele>2379.3999023438</ele>
        <time>2016-04-10T08:09:22.000Z</time>
      </trkpt>
      <trkpt lat="45.15664" lon="5.95176">
        <ele>2380.6000976562</ele>
        <time>2016-04-10T08:09:26.000Z</time>
      </trkpt>
      <trkpt lat="45.15665" lon="5.95177">
        <ele>2381.6000976562</ele>
        <time>2016-04-10T08:09:32.000Z</time>
      </trkpt>
      <trkpt lat="45.15666" lon="5.9518">
        <ele>2381.6000976562</ele>
        <time>2016-04-10T08:09:35.000Z</time>
      </trkpt>
      <trkpt lat="45.15667" lon="5.9519">
        <ele>2382.3999023438</ele>
        <time>2016-04-10T08:09:41.000Z</time>
      </trkpt>
      <trkpt lat="45.15667" lon="5.95191">
        <ele>2382.6000976562</ele>
        <time>2016-04-10T08:09:42.000Z</time>
      </trkpt>
      <trkpt lat="45.15668" lon="5.952">
        <ele>2383.3999023438</ele>
        <time>2016-04-10T08:09:50.000Z</time>
      </trkpt>
      <trkpt lat="45.15669" lon="5.95204">
        <ele>2383.8000488281</ele>
        <time>2016-04-10T08:09:54.000Z</time>
      </trkpt>
      <trkpt lat="45.15668" lon="5.95211">
        <ele>2384.1999511719</ele>
        <time>2016-04-10T08:09:59.000Z</time>
      </trkpt>
      <trkpt lat="45.15668" lon="5.95218">
        <ele>2384.8000488281</ele>
        <time>2016-04-10T08:10:06.000Z</time>
      </trkpt>
      <trkpt lat="45.15668" lon="5.95218">
        <ele>2385.1999511719</ele>
        <time>2016-04-10T08:10:08.000Z</time>
      </trkpt>
      <trkpt lat="45.15669" lon="5.95219">
        <ele>2386</ele>
        <time>2016-04-10T08:10:12.000Z</time>
      </trkpt>
      <trkpt lat="45.15669" lon="5.95221">
        <ele>2386.8000488281</ele>
        <time>2016-04-10T08:10:16.000Z</time>
      </trkpt>
      <trkpt lat="45.15669" lon="5.95222">
        <ele>2387</ele>
        <time>2016-04-10T08:10:17.000Z</time>
      </trkpt>
      <trkpt lat="45.1567" lon="5.95226">
        <ele>2388</ele>
        <time>2016-04-10T08:10:22.000Z</time>
      </trkpt>
      <trkpt lat="45.1567" lon="5.95226">
        <ele>2388.3999023438</ele>
        <time>2016-04-10T08:10:24.000Z</time>
      </trkpt>
      <trkpt lat="45.1567" lon="5.95226">
        <ele>2389.3999023438</ele>
        <time>2016-04-10T08:10:30.000Z</time>
      </trkpt>
      <trkpt lat="45.15674" lon="5.9522">
        <ele>2389.3999023438</ele>
        <time>2016-04-10T08:10:32.000Z</time>
      </trkpt>
      <trkpt lat="45.15678" lon="5.95216">
        <ele>2390.3999023438</ele>
        <time>2016-04-10T08:10:36.000Z</time>
      </trkpt>
      <trkpt lat="45.15679" lon="5.95216">
        <ele>2390.6000976562</ele>
        <time>2016-04-10T08:10:37.000Z</time>
      </trkpt>
      <trkpt lat="45.15682" lon="5.95214">
        <ele>2391.1999511719</ele>
        <time>2016-04-10T08:10:41.000Z</time>
      </trkpt>
      <trkpt lat="45.15684" lon="5.95213">
        <ele>2391.6000976562</ele>
        <time>2016-04-10T08:10:43.000Z</time>
      </trkpt>
      <trkpt lat="45.15686" lon="5.95208">
        <ele>2392.6000976562</ele>
        <time>2016-04-10T08:10:48.000Z</time>
      </trkpt>
      <trkpt lat="45.15687" lon="5.95206">
        <ele>2392.8000488281</ele>
        <time>2016-04-10T08:10:49.000Z</time>
      </trkpt>
      <trkpt lat="45.15688" lon="5.95206">
        <ele>2393.8000488281</ele>
        <time>2016-04-10T08:10:53.000Z</time>
      </trkpt>
      <trkpt lat="45.15688" lon="5.95206">
        <ele>2394.1999511719</ele>
        <time>2016-04-10T08:10:54.000Z</time>
      </trkpt>
      <trkpt lat="45.15688" lon="5.95206">
        <ele>2395.3999023438</ele>
        <time>2016-04-10T08:11:01.000Z</time>
      </trkpt>
      <trkpt lat="45.15689" lon="5.95218">
        <ele>2395.6000976562</ele>
        <time>2016-04-10T08:11:08.000Z</time>
      </trkpt>
      <trkpt lat="45.15688" lon="5.95227">
        <ele>2396.6000976562</ele>
        <time>2016-04-10T08:11:16.000Z</time>
      </trkpt>
      <trkpt lat="45.15688" lon="5.95229">
        <ele>2397.6000976562</ele>
        <time>2016-04-10T08:11:20.000Z</time>
      </trkpt>
      <trkpt lat="45.15688" lon="5.95233">
        <ele>2398.8000488281</ele>
        <time>2016-04-10T08:11:25.000Z</time>
      </trkpt>
      <trkpt lat="45.15688" lon="5.95236">
        <ele>2400</ele>
        <time>2016-04-10T08:11:31.000Z</time>
      </trkpt>
      <trkpt lat="45.15688" lon="5.95237">
        <ele>2400.1999511719</ele>
        <time>2016-04-10T08:11:32.000Z</time>
      </trkpt>
      <trkpt lat="45.15689" lon="5.9524">
        <ele>2401</ele>
        <time>2016-04-10T08:11:36.000Z</time>
      </trkpt>
      <trkpt lat="45.15689" lon="5.95242">
        <ele>2401.6000976562</ele>
        <time>2016-04-10T08:11:40.000Z</time>
      </trkpt>
      <trkpt lat="45.15688" lon="5.95244">
        <ele>2402</ele>
        <time>2016-04-10T08:11:42.000Z</time>
      </trkpt>
      <trkpt lat="45.15688" lon="5.95247">
        <ele>2402.8000488281</ele>
        <time>2016-04-10T08:11:47.000Z</time>
      </trkpt>
      <trkpt lat="45.15688" lon="5.95248">
        <ele>2403</ele>
        <time>2016-04-10T08:11:49.000Z</time>
      </trkpt>
      <trkpt lat="45.15688" lon="5.95248">
        <ele>2404.1999511719</ele>
        <time>2016-04-10T08:11:53.000Z</time>
      </trkpt>
      <trkpt lat="45.15688" lon="5.95248">
        <ele>2404.3999023438</ele>
        <time>2016-04-10T08:11:55.000Z</time>
      </trkpt>
      <trkpt lat="45.15692" lon="5.95246">
        <ele>2404.3999023438</ele>
        <time>2016-04-10T08:12:00.000Z</time>
      </trkpt>
      <trkpt lat="45.15697" lon="5.95245">
        <ele>2405.1999511719</ele>
        <time>2016-04-10T08:12:04.000Z</time>
      </trkpt>
      <trkpt lat="45.15698" lon="5.95245">
        <ele>2405.8000488281</ele>
        <time>2016-04-10T08:12:06.000Z</time>
      </trkpt>
      <trkpt lat="45.15699" lon="5.95245">
        <ele>2406.3999023438</ele>
        <time>2016-04-10T08:12:08.000Z</time>
      </trkpt>
      <trkpt lat="45.15702" lon="5.95243">
        <ele>2407</ele>
        <time>2016-04-10T08:12:11.000Z</time>
      </trkpt>
      <trkpt lat="45.15704" lon="5.95243">
        <ele>2407.3999023438</ele>
        <time>2016-04-10T08:12:13.000Z</time>
      </trkpt>
      <trkpt lat="45.15706" lon="5.95241">
        <ele>2408</ele>
        <time>2016-04-10T08:12:18.000Z</time>
      </trkpt>
      <trkpt lat="45.15707" lon="5.95241">
        <ele>2408.3999023438</ele>
        <time>2016-04-10T08:12:21.000Z</time>
      </trkpt>
      <trkpt lat="45.15709" lon="5.9524">
        <ele>2408.6000976562</ele>
        <time>2016-04-10T08:12:22.000Z</time>
      </trkpt>
      <trkpt lat="45.1571" lon="5.95239">
        <ele>2408.8000488281</ele>
        <time>2016-04-10T08:12:24.000Z</time>
      </trkpt>
      <trkpt lat="45.15714" lon="5.95238">
        <ele>2409.6000976562</ele>
        <time>2016-04-10T08:12:28.000Z</time>
      </trkpt>
      <trkpt lat="45.15716" lon="5.95237">
        <ele>2410.8000488281</ele>
        <time>2016-04-10T08:12:32.000Z</time>
      </trkpt>
      <trkpt lat="45.15716" lon="5.95236">
        <ele>2411</ele>
        <time>2016-04-10T08:12:33.000Z</time>
      </trkpt>
      <trkpt lat="45.15715" lon="5.95235">
        <ele>2412</ele>
        <time>2016-04-10T08:12:40.000Z</time>
      </trkpt>
      <trkpt lat="45.15716" lon="5.95236">
        <ele>2413</ele>
        <time>2016-04-10T08:12:46.000Z</time>
      </trkpt>
      <trkpt lat="45.15716" lon="5.95237">
        <ele>2413.3999023438</ele>
        <time>2016-04-10T08:12:48.000Z</time>
      </trkpt>
      <trkpt lat="45.15715" lon="5.95247">
        <ele>2414.1999511719</ele>
        <time>2016-04-10T08:12:55.000Z</time>
      </trkpt>
      <trkpt lat="45.15715" lon="5.95249">
        <ele>2414.3999023438</ele>
        <time>2016-04-10T08:12:56.000Z</time>
      </trkpt>
      <trkpt lat="45.15715" lon="5.95252">
        <ele>2415.1999511719</ele>
        <time>2016-04-10T08:12:59.000Z</time>
      </trkpt>
      <trkpt lat="45.15715" lon="5.95258">
        <ele>2416.3999023438</ele>
        <time>2016-04-10T08:13:05.000Z</time>
      </trkpt>
      <trkpt lat="45.15715" lon="5.95259">
        <ele>2417.3999023438</ele>
        <time>2016-04-10T08:13:11.000Z</time>
      </trkpt>
      <trkpt lat="45.15715" lon="5.95261">
        <ele>2418</ele>
        <time>2016-04-10T08:13:14.000Z</time>
      </trkpt>
      <trkpt lat="45.15715" lon="5.95262">
        <ele>2418.3999023438</ele>
        <time>2016-04-10T08:13:16.000Z</time>
      </trkpt>
      <trkpt lat="45.15716" lon="5.95265">
        <ele>2419.1999511719</ele>
        <time>2016-04-10T08:13:19.000Z</time>
      </trkpt>
      <trkpt lat="45.15716" lon="5.95265">
        <ele>2419.6000976562</ele>
        <time>2016-04-10T08:13:21.000Z</time>
      </trkpt>
      <trkpt lat="45.15717" lon="5.95264">
        <ele>2420.6000976562</ele>
        <time>2016-04-10T08:13:27.000Z</time>
      </trkpt>
      <trkpt lat="45.1572" lon="5.95263">
        <ele>2420.8000488281</ele>
        <time>2016-04-10T08:13:30.000Z</time>
      </trkpt>
      <trkpt lat="45.15721" lon="5.95263">
        <ele>2421.3999023438</ele>
        <time>2016-04-10T08:13:34.000Z</time>
      </trkpt>
      <trkpt lat="45.15724" lon="5.95262">
        <ele>2421.8000488281</ele>
        <time>2016-04-10T08:13:37.000Z</time>
      </trkpt>
      <trkpt lat="45.15724" lon="5.95262">
        <ele>2422.6000976562</ele>
        <time>2016-04-10T08:13:42.000Z</time>
      </trkpt>
      <trkpt lat="45.15727" lon="5.9526">
        <ele>2423</ele>
        <time>2016-04-10T08:13:45.000Z</time>
      </trkpt>
      <trkpt lat="45.15729" lon="5.9526">
        <ele>2423.6000976562</ele>
        <time>2016-04-10T08:13:47.000Z</time>
      </trkpt>
      <trkpt lat="45.15731" lon="5.95259">
        <ele>2424.1999511719</ele>
        <time>2016-04-10T08:13:49.000Z</time>
      </trkpt>
      <trkpt lat="45.15732" lon="5.95259">
        <ele>2424.8000488281</ele>
        <time>2016-04-10T08:13:52.000Z</time>
      </trkpt>
      <trkpt lat="45.15733" lon="5.95259">
        <ele>2425.3999023438</ele>
        <time>2016-04-10T08:13:54.000Z</time>
      </trkpt>
      <trkpt lat="45.15734" lon="5.95259">
        <ele>2426.3999023438</ele>
        <time>2016-04-10T08:14:00.000Z</time>
      </trkpt>
      <trkpt lat="45.15737" lon="5.95259">
        <ele>2427.6000976562</ele>
        <time>2016-04-10T08:14:05.000Z</time>
      </trkpt>
      <trkpt lat="45.15738" lon="5.95259">
        <ele>2428.6000976562</ele>
        <time>2016-04-10T08:14:07.000Z</time>
      </trkpt>
      <trkpt lat="45.15739" lon="5.95259">
        <ele>2428.8000488281</ele>
        <time>2016-04-10T08:14:08.000Z</time>
      </trkpt>
      <trkpt lat="45.15744" lon="5.95258">
        <ele>2429.6000976562</ele>
        <time>2016-04-10T08:14:14.000Z</time>
      </trkpt>
      <trkpt lat="45.15745" lon="5.95257">
        <ele>2429.8000488281</ele>
        <time>2016-04-10T08:14:15.000Z</time>
      </trkpt>
      <trkpt lat="45.15746" lon="5.95256">
        <ele>2430.1999511719</ele>
        <time>2016-04-10T08:14:22.000Z</time>
      </trkpt>
      <trkpt lat="45.15746" lon="5.95256">
        <ele>2430.1999511719</ele>
        <time>2016-04-10T08:14:39.000Z</time>
      </trkpt>
      <trkpt lat="45.15746" lon="5.95256">
        <ele>2430.3999023438</ele>
        <time>2016-04-10T08:14:51.000Z</time>
      </trkpt>
      <trkpt lat="45.15746" lon="5.95256">
        <ele>2429</ele>
        <time>2016-04-10T08:15:05.000Z</time>
      </trkpt>
      <trkpt lat="45.15746" lon="5.95256">
        <ele>2429.8000488281</ele>
        <time>2016-04-10T08:15:26.000Z</time>
      </trkpt>
      <trkpt lat="45.15746" lon="5.95256">
        <ele>2430.8000488281</ele>
        <time>2016-04-10T08:15:38.000Z</time>
      </trkpt>
      <trkpt lat="45.15746" lon="5.95256">
        <ele>2430.6000976562</ele>
        <time>2016-04-10T08:15:41.000Z</time>
      </trkpt>
      <trkpt lat="45.15746" lon="5.95256">
        <ele>2430.1999511719</ele>
        <time>2016-04-10T08:15:53.000Z</time>
      </trkpt>
      <trkpt lat="45.15749" lon="5.95262">
        <ele>2430</ele>
        <time>2016-04-10T08:16:00.000Z</time>
      </trkpt>
      <trkpt lat="45.15749" lon="5.95266">
        <ele>2431.1999511719</ele>
        <time>2016-04-10T08:16:05.000Z</time>
      </trkpt>
      <trkpt lat="45.1575" lon="5.95268">
        <ele>2432</ele>
        <time>2016-04-10T08:16:07.000Z</time>
      </trkpt>
      <trkpt lat="45.15752" lon="5.95274">
        <ele>2432.8000488281</ele>
        <time>2016-04-10T08:16:11.000Z</time>
      </trkpt>
      <trkpt lat="45.15752" lon="5.95275">
        <ele>2433.1999511719</ele>
        <time>2016-04-10T08:16:12.000Z</time>
      </trkpt>
      <trkpt lat="45.15753" lon="5.95278">
        <ele>2434.3999023438</ele>
        <time>2016-04-10T08:16:16.000Z</time>
      </trkpt>
      <trkpt lat="45.15755" lon="5.95281">
        <ele>2434.8000488281</ele>
        <time>2016-04-10T08:16:18.000Z</time>
      </trkpt>
      <trkpt lat="45.15756" lon="5.95283">
        <ele>2435.3999023438</ele>
        <time>2016-04-10T08:16:20.000Z</time>
      </trkpt>
      <trkpt lat="45.15757" lon="5.95284">
        <ele>2436.6000976562</ele>
        <time>2016-04-10T08:16:24.000Z</time>
      </trkpt>
      <trkpt lat="45.15758" lon="5.95284">
        <ele>2436.6000976562</ele>
        <time>2016-04-10T08:16:25.000Z</time>
      </trkpt>
      <trkpt lat="45.15759" lon="5.95286">
        <ele>2437.8000488281</ele>
        <time>2016-04-10T08:16:30.000Z</time>
      </trkpt>
      <trkpt lat="45.1576" lon="5.95287">
        <ele>2438.1999511719</ele>
        <time>2016-04-10T08:16:32.000Z</time>
      </trkpt>
      <trkpt lat="45.15761" lon="5.95289">
        <ele>2439</ele>
        <time>2016-04-10T08:16:35.000Z</time>
      </trkpt>
      <trkpt lat="45.15761" lon="5.95291">
        <ele>2439.6000976562</ele>
        <time>2016-04-10T08:16:37.000Z</time>
      </trkpt>
      <trkpt lat="45.15762" lon="5.95293">
        <ele>2440</ele>
        <time>2016-04-10T08:16:39.000Z</time>
      </trkpt>
      <trkpt lat="45.15764" lon="5.95294">
        <ele>2441.1999511719</ele>
        <time>2016-04-10T08:16:43.000Z</time>
      </trkpt>
      <trkpt lat="45.15766" lon="5.95297">
        <ele>2442</ele>
        <time>2016-04-10T08:16:46.000Z</time>
      </trkpt>
      <trkpt lat="45.15766" lon="5.95297">
        <ele>2442.1999511719</ele>
        <time>2016-04-10T08:16:47.000Z</time>
      </trkpt>
      <trkpt lat="45.15768" lon="5.95298">
        <ele>2443.1999511719</ele>
        <time>2016-04-10T08:16:52.000Z</time>
      </trkpt>
      <trkpt lat="45.15769" lon="5.95298">
        <ele>2443.1999511719</ele>
        <time>2016-04-10T08:16:53.000Z</time>
      </trkpt>
      <trkpt lat="45.15769" lon="5.95298">
        <ele>2444.3999023438</ele>
        <time>2016-04-10T08:16:59.000Z</time>
      </trkpt>
      <trkpt lat="45.15769" lon="5.95299">
        <ele>2444.6000976562</ele>
        <time>2016-04-10T08:17:00.000Z</time>
      </trkpt>
      <trkpt lat="45.1577" lon="5.95299">
        <ele>2445.3999023438</ele>
        <time>2016-04-10T08:17:02.000Z</time>
      </trkpt>
      <trkpt lat="45.15771" lon="5.953">
        <ele>2445.8000488281</ele>
        <time>2016-04-10T08:17:05.000Z</time>
      </trkpt>
      <trkpt lat="45.15771" lon="5.95301">
        <ele>2446.3999023438</ele>
        <time>2016-04-10T08:17:10.000Z</time>
      </trkpt>
      <trkpt lat="45.1577" lon="5.95302">
        <ele>2446.8000488281</ele>
        <time>2016-04-10T08:17:11.000Z</time>
      </trkpt>
      <trkpt lat="45.1577" lon="5.95304">
        <ele>2447.3999023438</ele>
        <time>2016-04-10T08:17:13.000Z</time>
      </trkpt>
      <trkpt lat="45.15768" lon="5.9531">
        <ele>2448.3999023438</ele>
        <time>2016-04-10T08:17:19.000Z</time>
      </trkpt>
      <trkpt lat="45.15766" lon="5.95314">
        <ele>2449.3999023438</ele>
        <time>2016-04-10T08:17:26.000Z</time>
      </trkpt>
      <trkpt lat="45.15766" lon="5.95316">
        <ele>2449.6000976562</ele>
        <time>2016-04-10T08:17:28.000Z</time>
      </trkpt>
      <trkpt lat="45.15763" lon="5.9532">
        <ele>2450.6000976562</ele>
        <time>2016-04-10T08:17:34.000Z</time>
      </trkpt>
      <trkpt lat="45.15763" lon="5.9532">
        <ele>2451</ele>
        <time>2016-04-10T08:17:36.000Z</time>
      </trkpt>
      <trkpt lat="45.15762" lon="5.95323">
        <ele>2451.6000976562</ele>
        <time>2016-04-10T08:17:39.000Z</time>
      </trkpt>
      <trkpt lat="45.15761" lon="5.95325">
        <ele>2452.3999023438</ele>
        <time>2016-04-10T08:17:43.000Z</time>
      </trkpt>
      <trkpt lat="45.1576" lon="5.95327">
        <ele>2452.8000488281</ele>
        <time>2016-04-10T08:17:45.000Z</time>
      </trkpt>
      <trkpt lat="45.15758" lon="5.95331">
        <ele>2453.1999511719</ele>
        <time>2016-04-10T08:17:50.000Z</time>
      </trkpt>
      <trkpt lat="45.15757" lon="5.95331">
        <ele>2453.8000488281</ele>
        <time>2016-04-10T08:17:54.000Z</time>
      </trkpt>
      <trkpt lat="45.15754" lon="5.95333">
        <ele>2454.8000488281</ele>
        <time>2016-04-10T08:17:59.000Z</time>
      </trkpt>
      <trkpt lat="45.15754" lon="5.95334">
        <ele>2455</ele>
        <time>2016-04-10T08:18:00.000Z</time>
      </trkpt>
      <trkpt lat="45.15752" lon="5.95336">
        <ele>2456</ele>
        <time>2016-04-10T08:18:04.000Z</time>
      </trkpt>
      <trkpt lat="45.15751" lon="5.95337">
        <ele>2456.3999023438</ele>
        <time>2016-04-10T08:18:06.000Z</time>
      </trkpt>
      <trkpt lat="45.1575" lon="5.95338">
        <ele>2456.6000976562</ele>
        <time>2016-04-10T08:18:08.000Z</time>
      </trkpt>
      <trkpt lat="45.1575" lon="5.9534">
        <ele>2457</ele>
        <time>2016-04-10T08:18:11.000Z</time>
      </trkpt>
      <trkpt lat="45.15747" lon="5.95343">
        <ele>2458</ele>
        <time>2016-04-10T08:18:17.000Z</time>
      </trkpt>
      <trkpt lat="45.15747" lon="5.95344">
        <ele>2458.1999511719</ele>
        <time>2016-04-10T08:18:18.000Z</time>
      </trkpt>
      <trkpt lat="45.15744" lon="5.95345">
        <ele>2459.1999511719</ele>
        <time>2016-04-10T08:18:24.000Z</time>
      </trkpt>
      <trkpt lat="45.1574" lon="5.95344">
        <ele>2460.3999023438</ele>
        <time>2016-04-10T08:18:30.000Z</time>
      </trkpt>
      <trkpt lat="45.1574" lon="5.95344">
        <ele>2460.6000976562</ele>
        <time>2016-04-10T08:18:31.000Z</time>
      </trkpt>
      <trkpt lat="45.15742" lon="5.95348">
        <ele>2461</ele>
        <time>2016-04-10T08:18:36.000Z</time>
      </trkpt>
      <trkpt lat="45.15743" lon="5.95349">
        <ele>2461.3999023438</ele>
        <time>2016-04-10T08:18:39.000Z</time>
      </trkpt>
      <trkpt lat="45.15744" lon="5.9535">
        <ele>2461.6000976562</ele>
        <time>2016-04-10T08:18:41.000Z</time>
      </trkpt>
      <trkpt lat="45.15747" lon="5.95351">
        <ele>2462.6000976562</ele>
        <time>2016-04-10T08:18:47.000Z</time>
      </trkpt>
      <trkpt lat="45.15747" lon="5.95352">
        <ele>2463.1999511719</ele>
        <time>2016-04-10T08:18:50.000Z</time>
      </trkpt>
      <trkpt lat="45.1575" lon="5.95354">
        <ele>2463.8000488281</ele>
        <time>2016-04-10T08:18:55.000Z</time>
      </trkpt>
      <trkpt lat="45.1575" lon="5.95354">
        <ele>2464.1999511719</ele>
        <time>2016-04-10T08:18:57.000Z</time>
      </trkpt>
      <trkpt lat="45.1575" lon="5.95355">
        <ele>2464.8000488281</ele>
        <time>2016-04-10T08:19:01.000Z</time>
      </trkpt>
      <trkpt lat="45.15752" lon="5.95357">
        <ele>2466</ele>
        <time>2016-04-10T08:19:05.000Z</time>
      </trkpt>
      <trkpt lat="45.15752" lon="5.95357">
        <ele>2466.3999023438</ele>
        <time>2016-04-10T08:19:06.000Z</time>
      </trkpt>
      <trkpt lat="45.15754" lon="5.95358">
        <ele>2467.1999511719</ele>
        <time>2016-04-10T08:19:10.000Z</time>
      </trkpt>
      <trkpt lat="45.15754" lon="5.9536">
        <ele>2467.1999511719</ele>
        <time>2016-04-10T08:19:11.000Z</time>
      </trkpt>
      <trkpt lat="45.15756" lon="5.95363">
        <ele>2467.8000488281</ele>
        <time>2016-04-10T08:19:17.000Z</time>
      </trkpt>
      <trkpt lat="45.15756" lon="5.95363">
        <ele>2468.6000976562</ele>
        <time>2016-04-10T08:19:19.000Z</time>
      </trkpt>
      <trkpt lat="45.15754" lon="5.95367">
        <ele>2469.1999511719</ele>
        <time>2016-04-10T08:19:25.000Z</time>
      </trkpt>
      <trkpt lat="45.15753" lon="5.95368">
        <ele>2469.6000976562</ele>
        <time>2016-04-10T08:19:28.000Z</time>
      </trkpt>
      <trkpt lat="45.1575" lon="5.9537">
        <ele>2470.8000488281</ele>
        <time>2016-04-10T08:19:34.000Z</time>
      </trkpt>
      <trkpt lat="45.15746" lon="5.95375">
        <ele>2471.8000488281</ele>
        <time>2016-04-10T08:19:41.000Z</time>
      </trkpt>
      <trkpt lat="45.15745" lon="5.95376">
        <ele>2472.1999511719</ele>
        <time>2016-04-10T08:19:42.000Z</time>
      </trkpt>
      <trkpt lat="45.15744" lon="5.95377">
        <ele>2473</ele>
        <time>2016-04-10T08:19:45.000Z</time>
      </trkpt>
      <trkpt lat="45.15742" lon="5.95379">
        <ele>2474</ele>
        <time>2016-04-10T08:19:50.000Z</time>
      </trkpt>
      <trkpt lat="45.15737" lon="5.95381">
        <ele>2475.1999511719</ele>
        <time>2016-04-10T08:19:58.000Z</time>
      </trkpt>
      <trkpt lat="45.15735" lon="5.95381">
        <ele>2476.1999511719</ele>
        <time>2016-04-10T08:20:03.000Z</time>
      </trkpt>
      <trkpt lat="45.15735" lon="5.95381">
        <ele>2476.8000488281</ele>
        <time>2016-04-10T08:20:06.000Z</time>
      </trkpt>
      <trkpt lat="45.15738" lon="5.95387">
        <ele>2477.3999023438</ele>
        <time>2016-04-10T08:20:13.000Z</time>
      </trkpt>
      <trkpt lat="45.1574" lon="5.95392">
        <ele>2478.3999023438</ele>
        <time>2016-04-10T08:20:18.000Z</time>
      </trkpt>
      <trkpt lat="45.1574" lon="5.95393">
        <ele>2478.6000976562</ele>
        <time>2016-04-10T08:20:19.000Z</time>
      </trkpt>
      <trkpt lat="45.15741" lon="5.95396">
        <ele>2479.3999023438</ele>
        <time>2016-04-10T08:20:24.000Z</time>
      </trkpt>
      <trkpt lat="45.15741" lon="5.95396">
        <ele>2479.6000976562</ele>
        <time>2016-04-10T08:20:25.000Z</time>
      </trkpt>
      <trkpt lat="45.15742" lon="5.95397">
        <ele>2480.6000976562</ele>
        <time>2016-04-10T08:20:31.000Z</time>
      </trkpt>
      <trkpt lat="45.15742" lon="5.95397">
        <ele>2480.8000488281</ele>
        <time>2016-04-10T08:20:32.000Z</time>
      </trkpt>
      <trkpt lat="45.15739" lon="5.95397">
        <ele>2481.8000488281</ele>
        <time>2016-04-10T08:20:38.000Z</time>
      </trkpt>
      <trkpt lat="45.15738" lon="5.95397">
        <ele>2482.1999511719</ele>
        <time>2016-04-10T08:20:40.000Z</time>
      </trkpt>
      <trkpt lat="45.15735" lon="5.95399">
        <ele>2482.8000488281</ele>
        <time>2016-04-10T08:20:46.000Z</time>
      </trkpt>
      <trkpt lat="45.15733" lon="5.95399">
        <ele>2483.3999023438</ele>
        <time>2016-04-10T08:20:49.000Z</time>
      </trkpt>
      <trkpt lat="45.15733" lon="5.95399">
        <ele>2483.6000976562</ele>
        <time>2016-04-10T08:20:50.000Z</time>
      </trkpt>
      <trkpt lat="45.15732" lon="5.95399">
        <ele>2484</ele>
        <time>2016-04-10T08:20:51.000Z</time>
      </trkpt>
      <trkpt lat="45.1573" lon="5.954">
        <ele>2485</ele>
        <time>2016-04-10T08:20:56.000Z</time>
      </trkpt>
      <trkpt lat="45.15731" lon="5.95402">
        <ele>2485.1999511719</ele>
        <time>2016-04-10T08:20:57.000Z</time>
      </trkpt>
      <trkpt lat="45.15733" lon="5.95407">
        <ele>2486.1999511719</ele>
        <time>2016-04-10T08:21:03.000Z</time>
      </trkpt>
      <trkpt lat="45.15733" lon="5.95413">
        <ele>2487</ele>
        <time>2016-04-10T08:21:08.000Z</time>
      </trkpt>
      <trkpt lat="45.15733" lon="5.95413">
        <ele>2487.1999511719</ele>
        <time>2016-04-10T08:21:09.000Z</time>
      </trkpt>
      <trkpt lat="45.15735" lon="5.95417">
        <ele>2488</ele>
        <time>2016-04-10T08:21:14.000Z</time>
      </trkpt>
      <trkpt lat="45.15735" lon="5.95418">
        <ele>2488.3999023438</ele>
        <time>2016-04-10T08:21:16.000Z</time>
      </trkpt>
      <trkpt lat="45.15739" lon="5.9542">
        <ele>2489.6000976562</ele>
        <time>2016-04-10T08:21:22.000Z</time>
      </trkpt>
      <trkpt lat="45.1574" lon="5.95421">
        <ele>2489.6000976562</ele>
        <time>2016-04-10T08:21:23.000Z</time>
      </trkpt>
      <trkpt lat="45.15742" lon="5.95424">
        <ele>2490.6000976562</ele>
        <time>2016-04-10T08:21:28.000Z</time>
      </trkpt>
      <trkpt lat="45.15742" lon="5.95424">
        <ele>2490.8000488281</ele>
        <time>2016-04-10T08:21:29.000Z</time>
      </trkpt>
      <trkpt lat="45.15742" lon="5.95424">
        <ele>2491.6000976562</ele>
        <time>2016-04-10T08:21:34.000Z</time>
      </trkpt>
      <trkpt lat="45.15742" lon="5.95424">
        <ele>2492</ele>
        <time>2016-04-10T08:21:38.000Z</time>
      </trkpt>
      <trkpt lat="45.15739" lon="5.95427">
        <ele>2492.8000488281</ele>
        <time>2016-04-10T08:21:44.000Z</time>
      </trkpt>
      <trkpt lat="45.15737" lon="5.95428">
        <ele>2493.1999511719</ele>
        <time>2016-04-10T08:21:46.000Z</time>
      </trkpt>
      <trkpt lat="45.15735" lon="5.9543">
        <ele>2493.8000488281</ele>
        <time>2016-04-10T08:21:51.000Z</time>
      </trkpt>
      <trkpt lat="45.15734" lon="5.95431">
        <ele>2494.1999511719</ele>
        <time>2016-04-10T08:21:54.000Z</time>
      </trkpt>
      <trkpt lat="45.15732" lon="5.95433">
        <ele>2494.8000488281</ele>
        <time>2016-04-10T08:21:58.000Z</time>
      </trkpt>
      <trkpt lat="45.15729" lon="5.95433">
        <ele>2495.3999023438</ele>
        <time>2016-04-10T08:22:02.000Z</time>
      </trkpt>
      <trkpt lat="45.15728" lon="5.95433">
        <ele>2496</ele>
        <time>2016-04-10T08:22:05.000Z</time>
      </trkpt>
      <trkpt lat="45.15725" lon="5.95434">
        <ele>2497</ele>
        <time>2016-04-10T08:22:09.000Z</time>
      </trkpt>
      <trkpt lat="45.15725" lon="5.95435">
        <ele>2497.1999511719</ele>
        <time>2016-04-10T08:22:10.000Z</time>
      </trkpt>
      <trkpt lat="45.15722" lon="5.95435">
        <ele>2498.1999511719</ele>
        <time>2016-04-10T08:22:15.000Z</time>
      </trkpt>
      <trkpt lat="45.15722" lon="5.95435">
        <ele>2498.6000976562</ele>
        <time>2016-04-10T08:22:17.000Z</time>
      </trkpt>
      <trkpt lat="45.15719" lon="5.95432">
        <ele>2499.1999511719</ele>
        <time>2016-04-10T08:22:21.000Z</time>
      </trkpt>
      <trkpt lat="45.15716" lon="5.95433">
        <ele>2500</ele>
        <time>2016-04-10T08:22:25.000Z</time>
      </trkpt>
      <trkpt lat="45.15715" lon="5.95434">
        <ele>2500.3999023438</ele>
        <time>2016-04-10T08:22:27.000Z</time>
      </trkpt>
      <trkpt lat="45.15713" lon="5.95434">
        <ele>2501.3999023438</ele>
        <time>2016-04-10T08:22:32.000Z</time>
      </trkpt>
      <trkpt lat="45.15713" lon="5.95435">
        <ele>2501.6000976562</ele>
        <time>2016-04-10T08:22:33.000Z</time>
      </trkpt>
      <trkpt lat="45.1571" lon="5.95441">
        <ele>2502.8000488281</ele>
        <time>2016-04-10T08:22:38.000Z</time>
      </trkpt>
      <trkpt lat="45.1571" lon="5.95443">
        <ele>2502.8000488281</ele>
        <time>2016-04-10T08:22:39.000Z</time>
      </trkpt>
      <trkpt lat="45.15711" lon="5.95451">
        <ele>2503.6000976562</ele>
        <time>2016-04-10T08:22:44.000Z</time>
      </trkpt>
      <trkpt lat="45.15711" lon="5.95452">
        <ele>2503.8000488281</ele>
        <time>2016-04-10T08:22:45.000Z</time>
      </trkpt>
      <trkpt lat="45.15711" lon="5.95452">
        <ele>2504</ele>
        <time>2016-04-10T08:22:46.000Z</time>
      </trkpt>
      <trkpt lat="45.15712" lon="5.95456">
        <ele>2504.8000488281</ele>
        <time>2016-04-10T08:22:50.000Z</time>
      </trkpt>
      <trkpt lat="45.15712" lon="5.95457">
        <ele>2505</ele>
        <time>2016-04-10T08:22:51.000Z</time>
      </trkpt>
      <trkpt lat="45.15713" lon="5.9546">
        <ele>2505.8000488281</ele>
        <time>2016-04-10T08:22:54.000Z</time>
      </trkpt>
      <trkpt lat="45.15713" lon="5.95461">
        <ele>2506.1999511719</ele>
        <time>2016-04-10T08:22:55.000Z</time>
      </trkpt>
      <trkpt lat="45.15714" lon="5.95462">
        <ele>2506.8000488281</ele>
        <time>2016-04-10T08:22:58.000Z</time>
      </trkpt>
      <trkpt lat="45.15714" lon="5.95464">
        <ele>2507.1999511719</ele>
        <time>2016-04-10T08:23:00.000Z</time>
      </trkpt>
      <trkpt lat="45.15715" lon="5.95465">
        <ele>2507.6000976562</ele>
        <time>2016-04-10T08:23:02.000Z</time>
      </trkpt>
      <trkpt lat="45.15715" lon="5.95467">
        <ele>2508.1999511719</ele>
        <time>2016-04-10T08:23:07.000Z</time>
      </trkpt>
      <trkpt lat="45.15715" lon="5.95467">
        <ele>2508.1999511719</ele>
        <time>2016-04-10T08:23:09.000Z</time>
      </trkpt>
      <trkpt lat="45.15715" lon="5.95466">
        <ele>2508.8000488281</ele>
        <time>2016-04-10T08:23:18.000Z</time>
      </trkpt>
      <trkpt lat="45.15715" lon="5.95466">
        <ele>2509.1999511719</ele>
        <time>2016-04-10T08:23:23.000Z</time>
      </trkpt>
      <trkpt lat="45.15715" lon="5.95466">
        <ele>2509.1999511719</ele>
        <time>2016-04-10T08:23:32.000Z</time>
      </trkpt>
      <trkpt lat="45.15715" lon="5.95466">
        <ele>2509.1999511719</ele>
        <time>2016-04-10T08:23:46.000Z</time>
      </trkpt>
      <trkpt lat="45.15715" lon="5.95466">
        <ele>2509</ele>
        <time>2016-04-10T08:23:57.000Z</time>
      </trkpt>
      <trkpt lat="45.15715" lon="5.95466">
        <ele>2509</ele>
        <time>2016-04-10T08:24:07.000Z</time>
      </trkpt>
      <trkpt lat="45.15715" lon="5.95466">
        <ele>2509</ele>
        <time>2016-04-10T08:24:18.000Z</time>
      </trkpt>
      <trkpt lat="45.15715" lon="5.95466">
        <ele>2508.8000488281</ele>
        <time>2016-04-10T08:24:26.000Z</time>
      </trkpt>
      <trkpt lat="45.15715" lon="5.95467">
        <ele>2508.8000488281</ele>
        <time>2016-04-10T08:24:33.000Z</time>
      </trkpt>
      <trkpt lat="45.15715" lon="5.95467">
        <ele>2509</ele>
        <time>2016-04-10T08:24:42.000Z</time>
      </trkpt>
      <trkpt lat="45.15716" lon="5.95469">
        <ele>2509.3999023438</ele>
        <time>2016-04-10T08:24:47.000Z</time>
      </trkpt>
      <trkpt lat="45.15715" lon="5.95468">
        <ele>2510</ele>
        <time>2016-04-10T08:24:54.000Z</time>
      </trkpt>
      <trkpt lat="45.15715" lon="5.95468">
        <ele>2510.3999023438</ele>
        <time>2016-04-10T08:24:55.000Z</time>
      </trkpt>
      <trkpt lat="45.15714" lon="5.95469">
        <ele>2511.1999511719</ele>
        <time>2016-04-10T08:25:00.000Z</time>
      </trkpt>
      <trkpt lat="45.15714" lon="5.95469">
        <ele>2511.3999023438</ele>
        <time>2016-04-10T08:25:01.000Z</time>
      </trkpt>
      <trkpt lat="45.15713" lon="5.9547">
        <ele>2512.3999023438</ele>
        <time>2016-04-10T08:25:06.000Z</time>
      </trkpt>
      <trkpt lat="45.15713" lon="5.9547">
        <ele>2512.6000976562</ele>
        <time>2016-04-10T08:25:07.000Z</time>
      </trkpt>
      <trkpt lat="45.15711" lon="5.95471">
        <ele>2513.3999023438</ele>
        <time>2016-04-10T08:25:12.000Z</time>
      </trkpt>
      <trkpt lat="45.15708" lon="5.95472">
        <ele>2513.8000488281</ele>
        <time>2016-04-10T08:25:16.000Z</time>
      </trkpt>
      <trkpt lat="45.15707" lon="5.95473">
        <ele>2514.6000976562</ele>
        <time>2016-04-10T08:25:21.000Z</time>
      </trkpt>
      <trkpt lat="45.15706" lon="5.95476">
        <ele>2515.3999023438</ele>
        <time>2016-04-10T08:25:25.000Z</time>
      </trkpt>
      <trkpt lat="45.15706" lon="5.95478">
        <ele>2515.6000976562</ele>
        <time>2016-04-10T08:25:26.000Z</time>
      </trkpt>
      <trkpt lat="45.15706" lon="5.95483">
        <ele>2516.3999023438</ele>
        <time>2016-04-10T08:25:32.000Z</time>
      </trkpt>
      <trkpt lat="45.15707" lon="5.95484">
        <ele>2516.8000488281</ele>
        <time>2016-04-10T08:25:33.000Z</time>
      </trkpt>
      <trkpt lat="45.15709" lon="5.95489">
        <ele>2517.6000976562</ele>
        <time>2016-04-10T08:25:37.000Z</time>
      </trkpt>
      <trkpt lat="45.15709" lon="5.9549">
        <ele>2517.8000488281</ele>
        <time>2016-04-10T08:25:38.000Z</time>
      </trkpt>
      <trkpt lat="45.15711" lon="5.95493">
        <ele>2518.3999023438</ele>
        <time>2016-04-10T08:25:42.000Z</time>
      </trkpt>
      <trkpt lat="45.15711" lon="5.95493">
        <ele>2519</ele>
        <time>2016-04-10T08:25:43.000Z</time>
      </trkpt>
      <trkpt lat="45.15713" lon="5.95497">
        <ele>2519.6000976562</ele>
        <time>2016-04-10T08:25:47.000Z</time>
      </trkpt>
      <trkpt lat="45.15717" lon="5.955">
        <ele>2520</ele>
        <time>2016-04-10T08:25:53.000Z</time>
      </trkpt>
      <trkpt lat="45.15718" lon="5.955">
        <ele>2520.1999511719</ele>
        <time>2016-04-10T08:25:54.000Z</time>
      </trkpt>
      <trkpt lat="45.15718" lon="5.955">
        <ele>2521.1999511719</ele>
        <time>2016-04-10T08:25:58.000Z</time>
      </trkpt>
      <trkpt lat="45.15718" lon="5.95501">
        <ele>2522</ele>
        <time>2016-04-10T08:26:03.000Z</time>
      </trkpt>
      <trkpt lat="45.15716" lon="5.955">
        <ele>2522.3999023438</ele>
        <time>2016-04-10T08:26:06.000Z</time>
      </trkpt>
      <trkpt lat="45.15715" lon="5.95498">
        <ele>2523</ele>
        <time>2016-04-10T08:26:10.000Z</time>
      </trkpt>
      <trkpt lat="45.15712" lon="5.95499">
        <ele>2523.3999023438</ele>
        <time>2016-04-10T08:26:14.000Z</time>
      </trkpt>
      <trkpt lat="45.1571" lon="5.955">
        <ele>2524</ele>
        <time>2016-04-10T08:26:17.000Z</time>
      </trkpt>
      <trkpt lat="45.15709" lon="5.95501">
        <ele>2524.3999023438</ele>
        <time>2016-04-10T08:26:20.000Z</time>
      </trkpt>
      <trkpt lat="45.15707" lon="5.955">
        <ele>2525</ele>
        <time>2016-04-10T08:26:25.000Z</time>
      </trkpt>
      <trkpt lat="45.15705" lon="5.955">
        <ele>2525.6000976562</ele>
        <time>2016-04-10T08:26:28.000Z</time>
      </trkpt>
      <trkpt lat="45.15704" lon="5.95501">
        <ele>2525.6000976562</ele>
        <time>2016-04-10T08:26:30.000Z</time>
      </trkpt>
      <trkpt lat="45.15704" lon="5.95502">
        <ele>2526.6000976562</ele>
        <time>2016-04-10T08:26:34.000Z</time>
      </trkpt>
      <trkpt lat="45.15706" lon="5.95508">
        <ele>2527</ele>
        <time>2016-04-10T08:26:40.000Z</time>
      </trkpt>
      <trkpt lat="45.15708" lon="5.95512">
        <ele>2527.6000976562</ele>
        <time>2016-04-10T08:26:43.000Z</time>
      </trkpt>
      <trkpt lat="45.1571" lon="5.95514">
        <ele>2528.3999023438</ele>
        <time>2016-04-10T08:26:46.000Z</time>
      </trkpt>
      <trkpt lat="45.15713" lon="5.95518">
        <ele>2528.8000488281</ele>
        <time>2016-04-10T08:26:50.000Z</time>
      </trkpt>
      <trkpt lat="45.15714" lon="5.95519">
        <ele>2529.1999511719</ele>
        <time>2016-04-10T08:26:53.000Z</time>
      </trkpt>
      <trkpt lat="45.15715" lon="5.9552">
        <ele>2529.8000488281</ele>
        <time>2016-04-10T08:26:56.000Z</time>
      </trkpt>
      <trkpt lat="45.15719" lon="5.95523">
        <ele>2530.3999023438</ele>
        <time>2016-04-10T08:27:01.000Z</time>
      </trkpt>
      <trkpt lat="45.1572" lon="5.95523">
        <ele>2530.8000488281</ele>
        <time>2016-04-10T08:27:03.000Z</time>
      </trkpt>
      <trkpt lat="45.15721" lon="5.95523">
        <ele>2531.3999023438</ele>
        <time>2016-04-10T08:27:06.000Z</time>
      </trkpt>
      <trkpt lat="45.15722" lon="5.95524">
        <ele>2531.8000488281</ele>
        <time>2016-04-10T08:27:10.000Z</time>
      </trkpt>
      <trkpt lat="45.15722" lon="5.95524">
        <ele>2531.8000488281</ele>
        <time>2016-04-10T08:27:11.000Z</time>
      </trkpt>
      <trkpt lat="45.15719" lon="5.95525">
        <ele>2533</ele>
        <time>2016-04-10T08:27:18.000Z</time>
      </trkpt>
      <trkpt lat="45.15718" lon="5.95525">
        <ele>2533.3999023438</ele>
        <time>2016-04-10T08:27:19.000Z</time>
      </trkpt>
      <trkpt lat="45.15715" lon="5.95525">
        <ele>2534</ele>
        <time>2016-04-10T08:27:25.000Z</time>
      </trkpt>
      <trkpt lat="45.15715" lon="5.95525">
        <ele>2534.1999511719</ele>
        <time>2016-04-10T08:27:26.000Z</time>
      </trkpt>
      <trkpt lat="45.15709" lon="5.95528">
        <ele>2535.1999511719</ele>
        <time>2016-04-10T08:27:33.000Z</time>
      </trkpt>
      <trkpt lat="45.15707" lon="5.95529">
        <ele>2536.1999511719</ele>
        <time>2016-04-10T08:27:38.000Z</time>
      </trkpt>
      <trkpt lat="45.15705" lon="5.95529">
        <ele>2536.8000488281</ele>
        <time>2016-04-10T08:27:41.000Z</time>
      </trkpt>
      <trkpt lat="45.15705" lon="5.95529">
        <ele>2537.3999023438</ele>
        <time>2016-04-10T08:27:43.000Z</time>
      </trkpt>
      <trkpt lat="45.15705" lon="5.95529">
        <ele>2538.3999023438</ele>
        <time>2016-04-10T08:27:49.000Z</time>
      </trkpt>
      <trkpt lat="45.15709" lon="5.95537">
        <ele>2538.6000976562</ele>
        <time>2016-04-10T08:27:54.000Z</time>
      </trkpt>
      <trkpt lat="45.15711" lon="5.9554">
        <ele>2539.3999023438</ele>
        <time>2016-04-10T08:27:58.000Z</time>
      </trkpt>
      <trkpt lat="45.15713" lon="5.95541">
        <ele>2539.8000488281</ele>
        <time>2016-04-10T08:28:01.000Z</time>
      </trkpt>
      <trkpt lat="45.15715" lon="5.95543">
        <ele>2540.6000976562</ele>
        <time>2016-04-10T08:28:06.000Z</time>
      </trkpt>
      <trkpt lat="45.15715" lon="5.95545">
        <ele>2541.6000976562</ele>
        <time>2016-04-10T08:28:09.000Z</time>
      </trkpt>
      <trkpt lat="45.15716" lon="5.95545">
        <ele>2541.6000976562</ele>
        <time>2016-04-10T08:28:10.000Z</time>
      </trkpt>
      <trkpt lat="45.15716" lon="5.95545">
        <ele>2542.1999511719</ele>
        <time>2016-04-10T08:28:15.000Z</time>
      </trkpt>
      <trkpt lat="45.15715" lon="5.95546">
        <ele>2542.8000488281</ele>
        <time>2016-04-10T08:28:18.000Z</time>
      </trkpt>
      <trkpt lat="45.15712" lon="5.95545">
        <ele>2543.1999511719</ele>
        <time>2016-04-10T08:28:23.000Z</time>
      </trkpt>
      <trkpt lat="45.15708" lon="5.95546">
        <ele>2543.8000488281</ele>
        <time>2016-04-10T08:28:29.000Z</time>
      </trkpt>
      <trkpt lat="45.15708" lon="5.95546">
        <ele>2544</ele>
        <time>2016-04-10T08:28:30.000Z</time>
      </trkpt>
      <trkpt lat="45.15704" lon="5.95546">
        <ele>2545</ele>
        <time>2016-04-10T08:28:35.000Z</time>
      </trkpt>
      <trkpt lat="45.15704" lon="5.95546">
        <ele>2545.3999023438</ele>
        <time>2016-04-10T08:28:38.000Z</time>
      </trkpt>
      <trkpt lat="45.15703" lon="5.95548">
        <ele>2546.1999511719</ele>
        <time>2016-04-10T08:28:41.000Z</time>
      </trkpt>
      <trkpt lat="45.15703" lon="5.9555">
        <ele>2547.1999511719</ele>
        <time>2016-04-10T08:28:46.000Z</time>
      </trkpt>
      <trkpt lat="45.15705" lon="5.95556">
        <ele>2547.1999511719</ele>
        <time>2016-04-10T08:28:50.000Z</time>
      </trkpt>
      <trkpt lat="45.15709" lon="5.9556">
        <ele>2548</ele>
        <time>2016-04-10T08:28:55.000Z</time>
      </trkpt>
      <trkpt lat="45.1571" lon="5.9556">
        <ele>2548.1999511719</ele>
        <time>2016-04-10T08:28:56.000Z</time>
      </trkpt>
      <trkpt lat="45.15711" lon="5.9556">
        <ele>2549</ele>
        <time>2016-04-10T08:29:03.000Z</time>
      </trkpt>
      <trkpt lat="45.1571" lon="5.9556">
        <ele>2549.3999023438</ele>
        <time>2016-04-10T08:29:05.000Z</time>
      </trkpt>
      <trkpt lat="45.15707" lon="5.95559">
        <ele>2550</ele>
        <time>2016-04-10T08:29:10.000Z</time>
      </trkpt>
      <trkpt lat="45.15704" lon="5.95558">
        <ele>2550.3999023438</ele>
        <time>2016-04-10T08:29:15.000Z</time>
      </trkpt>
      <trkpt lat="45.15702" lon="5.95558">
        <ele>2550.8000488281</ele>
        <time>2016-04-10T08:29:18.000Z</time>
      </trkpt>
      <trkpt lat="45.157" lon="5.95558">
        <ele>2551.6000976562</ele>
        <time>2016-04-10T08:29:21.000Z</time>
      </trkpt>
      <trkpt lat="45.157" lon="5.9556">
        <ele>2552.3999023438</ele>
        <time>2016-04-10T08:29:26.000Z</time>
      </trkpt>
      <trkpt lat="45.15702" lon="5.95563">
        <ele>2552.6000976562</ele>
        <time>2016-04-10T08:29:28.000Z</time>
      </trkpt>
      <trkpt lat="45.15702" lon="5.95566">
        <ele>2552.6000976562</ele>
        <time>2016-04-10T08:29:31.000Z</time>
      </trkpt>
      <trkpt lat="45.15704" lon="5.9557">
        <ele>2553.6000976562</ele>
        <time>2016-04-10T08:29:35.000Z</time>
      </trkpt>
      <trkpt lat="45.15704" lon="5.9557">
        <ele>2553.8000488281</ele>
        <time>2016-04-10T08:29:36.000Z</time>
      </trkpt>
      <trkpt lat="45.15707" lon="5.95573">
        <ele>2554.6000976562</ele>
        <time>2016-04-10T08:29:41.000Z</time>
      </trkpt>
      <trkpt lat="45.15709" lon="5.95574">
        <ele>2555.1999511719</ele>
        <time>2016-04-10T08:29:44.000Z</time>
      </trkpt>
      <trkpt lat="45.15712" lon="5.95575">
        <ele>2555.8000488281</ele>
        <time>2016-04-10T08:29:46.000Z</time>
      </trkpt>
      <trkpt lat="45.15715" lon="5.95574">
        <ele>2556.3999023438</ele>
        <time>2016-04-10T08:29:49.000Z</time>
      </trkpt>
      <trkpt lat="45.15717" lon="5.95575">
        <ele>2556.8000488281</ele>
        <time>2016-04-10T08:29:52.000Z</time>
      </trkpt>
      <trkpt lat="45.15717" lon="5.95575">
        <ele>2557</ele>
        <time>2016-04-10T08:29:55.000Z</time>
      </trkpt>
      <trkpt lat="45.15715" lon="5.95574">
        <ele>2558</ele>
        <time>2016-04-10T08:30:03.000Z</time>
      </trkpt>
      <trkpt lat="45.15714" lon="5.95574">
        <ele>2558</ele>
        <time>2016-04-10T08:30:04.000Z</time>
      </trkpt>
      <trkpt lat="45.15708" lon="5.95578">
        <ele>2559</ele>
        <time>2016-04-10T08:30:12.000Z</time>
      </trkpt>
      <trkpt lat="45.15708" lon="5.95579">
        <ele>2559.1999511719</ele>
        <time>2016-04-10T08:30:13.000Z</time>
      </trkpt>
      <trkpt lat="45.15706" lon="5.95581">
        <ele>2559.3999023438</ele>
        <time>2016-04-10T08:30:16.000Z</time>
      </trkpt>
      <trkpt lat="45.15703" lon="5.95584">
        <ele>2560.1999511719</ele>
        <time>2016-04-10T08:30:19.000Z</time>
      </trkpt>
      <trkpt lat="45.15701" lon="5.95584">
        <ele>2561.1999511719</ele>
        <time>2016-04-10T08:30:22.000Z</time>
      </trkpt>
      <trkpt lat="45.15701" lon="5.95584">
        <ele>2561.3999023438</ele>
        <time>2016-04-10T08:30:23.000Z</time>
      </trkpt>
      <trkpt lat="45.15698" lon="5.95583">
        <ele>2562.3999023438</ele>
        <time>2016-04-10T08:30:30.000Z</time>
      </trkpt>
      <trkpt lat="45.15697" lon="5.95584">
        <ele>2563</ele>
        <time>2016-04-10T08:30:32.000Z</time>
      </trkpt>
      <trkpt lat="45.15696" lon="5.95583">
        <ele>2563.6000976562</ele>
        <time>2016-04-10T08:30:35.000Z</time>
      </trkpt>
      <trkpt lat="45.15693" lon="5.95584">
        <ele>2564.3999023438</ele>
        <time>2016-04-10T08:30:40.000Z</time>
      </trkpt>
      <trkpt lat="45.15693" lon="5.95584">
        <ele>2564.6000976562</ele>
        <time>2016-04-10T08:30:42.000Z</time>
      </trkpt>
      <trkpt lat="45.15693" lon="5.95589">
        <ele>2565.6000976562</ele>
        <time>2016-04-10T08:30:47.000Z</time>
      </trkpt>
      <trkpt lat="45.15695" lon="5.95594">
        <ele>2565.8000488281</ele>
        <time>2016-04-10T08:30:52.000Z</time>
      </trkpt>
      <trkpt lat="45.15695" lon="5.95594">
        <ele>2565.8000488281</ele>
        <time>2016-04-10T08:30:53.000Z</time>
      </trkpt>
      <trkpt lat="45.15699" lon="5.95597">
        <ele>2566.1999511719</ele>
        <time>2016-04-10T08:30:57.000Z</time>
      </trkpt>
      <trkpt lat="45.15701" lon="5.956">
        <ele>2566.8000488281</ele>
        <time>2016-04-10T08:31:02.000Z</time>
      </trkpt>
      <trkpt lat="45.15702" lon="5.95602">
        <ele>2567</ele>
        <time>2016-04-10T08:31:04.000Z</time>
      </trkpt>
      <trkpt lat="45.15704" lon="5.95603">
        <ele>2568</ele>
        <time>2016-04-10T08:31:09.000Z</time>
      </trkpt>
      <trkpt lat="45.15705" lon="5.95603">
        <ele>2568.3999023438</ele>
        <time>2016-04-10T08:31:10.000Z</time>
      </trkpt>
      <trkpt lat="45.15708" lon="5.95605">
        <ele>2569.3999023438</ele>
        <time>2016-04-10T08:31:14.000Z</time>
      </trkpt>
      <trkpt lat="45.15711" lon="5.95607">
        <ele>2570.3999023438</ele>
        <time>2016-04-10T08:31:21.000Z</time>
      </trkpt>
      <trkpt lat="45.15713" lon="5.95608">
        <ele>2571</ele>
        <time>2016-04-10T08:31:26.000Z</time>
      </trkpt>
      <trkpt lat="45.15715" lon="5.9561">
        <ele>2571.6000976562</ele>
        <time>2016-04-10T08:31:29.000Z</time>
      </trkpt>
      <trkpt lat="45.15717" lon="5.9561">
        <ele>2572</ele>
        <time>2016-04-10T08:31:31.000Z</time>
      </trkpt>
      <trkpt lat="45.1572" lon="5.95611">
        <ele>2572.6000976562</ele>
        <time>2016-04-10T08:31:37.000Z</time>
      </trkpt>
      <trkpt lat="45.15722" lon="5.95612">
        <ele>2573</ele>
        <time>2016-04-10T08:31:39.000Z</time>
      </trkpt>
      <trkpt lat="45.15723" lon="5.95612">
        <ele>2574</ele>
        <time>2016-04-10T08:31:43.000Z</time>
      </trkpt>
      <trkpt lat="45.15725" lon="5.95611">
        <ele>2575.1999511719</ele>
        <time>2016-04-10T08:31:46.000Z</time>
      </trkpt>
      <trkpt lat="45.15728" lon="5.9561">
        <ele>2575.8000488281</ele>
        <time>2016-04-10T08:31:56.000Z</time>
      </trkpt>
      <trkpt lat="45.15727" lon="5.95611">
        <ele>2576.3999023438</ele>
        <time>2016-04-10T08:31:58.000Z</time>
      </trkpt>
      <trkpt lat="45.15727" lon="5.95611">
        <ele>2577.6000976562</ele>
        <time>2016-04-10T08:32:01.000Z</time>
      </trkpt>
      <trkpt lat="45.15724" lon="5.95614">
        <ele>2577.8000488281</ele>
        <time>2016-04-10T08:32:05.000Z</time>
      </trkpt>
      <trkpt lat="45.15718" lon="5.95622">
        <ele>2578.6000976562</ele>
        <time>2016-04-10T08:32:13.000Z</time>
      </trkpt>
      <trkpt lat="45.15717" lon="5.95623">
        <ele>2578.6000976562</ele>
        <time>2016-04-10T08:32:14.000Z</time>
      </trkpt>
      <trkpt lat="45.15716" lon="5.95625">
        <ele>2579.6000976562</ele>
        <time>2016-04-10T08:32:18.000Z</time>
      </trkpt>
      <trkpt lat="45.15716" lon="5.95626">
        <ele>2580.1999511719</ele>
        <time>2016-04-10T08:32:20.000Z</time>
      </trkpt>
      <trkpt lat="45.15715" lon="5.95628">
        <ele>2580.8000488281</ele>
        <time>2016-04-10T08:32:24.000Z</time>
      </trkpt>
      <trkpt lat="45.15713" lon="5.95631">
        <ele>2581.6000976562</ele>
        <time>2016-04-10T08:32:28.000Z</time>
      </trkpt>
      <trkpt lat="45.15712" lon="5.95632">
        <ele>2581.8000488281</ele>
        <time>2016-04-10T08:32:29.000Z</time>
      </trkpt>
      <trkpt lat="45.15712" lon="5.95635">
        <ele>2582.8000488281</ele>
        <time>2016-04-10T08:32:34.000Z</time>
      </trkpt>
      <trkpt lat="45.15711" lon="5.95638">
        <ele>2583.1999511719</ele>
        <time>2016-04-10T08:32:37.000Z</time>
      </trkpt>
      <trkpt lat="45.1571" lon="5.95642">
        <ele>2583.8000488281</ele>
        <time>2016-04-10T08:32:41.000Z</time>
      </trkpt>
      <trkpt lat="45.15706" lon="5.95647">
        <ele>2584.6000976562</ele>
        <time>2016-04-10T08:32:48.000Z</time>
      </trkpt>
      <trkpt lat="45.15706" lon="5.95647">
        <ele>2585</ele>
        <time>2016-04-10T08:32:49.000Z</time>
      </trkpt>
      <trkpt lat="45.15704" lon="5.95651">
        <ele>2586</ele>
        <time>2016-04-10T08:32:54.000Z</time>
      </trkpt>
      <trkpt lat="45.15703" lon="5.95652">
        <ele>2587</ele>
        <time>2016-04-10T08:32:57.000Z</time>
      </trkpt>
      <trkpt lat="45.15702" lon="5.95653">
        <ele>2587.1999511719</ele>
        <time>2016-04-10T08:32:58.000Z</time>
      </trkpt>
      <trkpt lat="45.15703" lon="5.95654">
        <ele>2588.1999511719</ele>
        <time>2016-04-10T08:33:06.000Z</time>
      </trkpt>
      <trkpt lat="45.15701" lon="5.95657">
        <ele>2588.1999511719</ele>
        <time>2016-04-10T08:33:15.000Z</time>
      </trkpt>
      <trkpt lat="45.15701" lon="5.95658">
        <ele>2588.1999511719</ele>
        <time>2016-04-10T08:33:16.000Z</time>
      </trkpt>
      <trkpt lat="45.15703" lon="5.95664">
        <ele>2589.3999023438</ele>
        <time>2016-04-10T08:33:21.000Z</time>
      </trkpt>
      <trkpt lat="45.15703" lon="5.95664">
        <ele>2589.6000976562</ele>
        <time>2016-04-10T08:33:22.000Z</time>
      </trkpt>
      <trkpt lat="45.15708" lon="5.95666">
        <ele>2590.6000976562</ele>
        <time>2016-04-10T08:33:28.000Z</time>
      </trkpt>
      <trkpt lat="45.1571" lon="5.95666">
        <ele>2590.8000488281</ele>
        <time>2016-04-10T08:33:29.000Z</time>
      </trkpt>
      <trkpt lat="45.15712" lon="5.95669">
        <ele>2591.6000976562</ele>
        <time>2016-04-10T08:33:34.000Z</time>
      </trkpt>
      <trkpt lat="45.15713" lon="5.95669">
        <ele>2591.8000488281</ele>
        <time>2016-04-10T08:33:35.000Z</time>
      </trkpt>
      <trkpt lat="45.15713" lon="5.95669">
        <ele>2593</ele>
        <time>2016-04-10T08:33:41.000Z</time>
      </trkpt>
      <trkpt lat="45.15714" lon="5.9567">
        <ele>2594</ele>
        <time>2016-04-10T08:33:46.000Z</time>
      </trkpt>
      <trkpt lat="45.15714" lon="5.9567">
        <ele>2594.1999511719</ele>
        <time>2016-04-10T08:33:47.000Z</time>
      </trkpt>
      <trkpt lat="45.15716" lon="5.95672">
        <ele>2595.3999023438</ele>
        <time>2016-04-10T08:33:50.000Z</time>
      </trkpt>
      <trkpt lat="45.15716" lon="5.95672">
        <ele>2595.6000976562</ele>
        <time>2016-04-10T08:33:51.000Z</time>
      </trkpt>
      <trkpt lat="45.15717" lon="5.95672">
        <ele>2596.3999023438</ele>
        <time>2016-04-10T08:33:54.000Z</time>
      </trkpt>
      <trkpt lat="45.15719" lon="5.95674">
        <ele>2596.6000976562</ele>
        <time>2016-04-10T08:33:59.000Z</time>
      </trkpt>
      <trkpt lat="45.15719" lon="5.95674">
        <ele>2597.6000976562</ele>
        <time>2016-04-10T08:34:02.000Z</time>
      </trkpt>
      <trkpt lat="45.15718" lon="5.95677">
        <ele>2598.8000488281</ele>
        <time>2016-04-10T08:34:06.000Z</time>
      </trkpt>
      <trkpt lat="45.15718" lon="5.95678">
        <ele>2598.8000488281</ele>
        <time>2016-04-10T08:34:07.000Z</time>
      </trkpt>
      <trkpt lat="45.15717" lon="5.95682">
        <ele>2600</ele>
        <time>2016-04-10T08:34:11.000Z</time>
      </trkpt>
      <trkpt lat="45.15717" lon="5.95683">
        <ele>2600.3999023438</ele>
        <time>2016-04-10T08:34:13.000Z</time>
      </trkpt>
      <trkpt lat="45.15717" lon="5.95684">
        <ele>2601</ele>
        <time>2016-04-10T08:34:17.000Z</time>
      </trkpt>
      <trkpt lat="45.15717" lon="5.95685">
        <ele>2601.1999511719</ele>
        <time>2016-04-10T08:34:19.000Z</time>
      </trkpt>
      <trkpt lat="45.15716" lon="5.9569">
        <ele>2602.1999511719</ele>
        <time>2016-04-10T08:34:24.000Z</time>
      </trkpt>
      <trkpt lat="45.15717" lon="5.95691">
        <ele>2602.3999023438</ele>
        <time>2016-04-10T08:34:25.000Z</time>
      </trkpt>
      <trkpt lat="45.15717" lon="5.95693">
        <ele>2602.6000976562</ele>
        <time>2016-04-10T08:34:30.000Z</time>
      </trkpt>
      <trkpt lat="45.15716" lon="5.95695">
        <ele>2603.1999511719</ele>
        <time>2016-04-10T08:34:36.000Z</time>
      </trkpt>
      <trkpt lat="45.15716" lon="5.95696">
        <ele>2603.3999023438</ele>
        <time>2016-04-10T08:34:37.000Z</time>
      </trkpt>
      <trkpt lat="45.15716" lon="5.95699">
        <ele>2604.3999023438</ele>
        <time>2016-04-10T08:34:41.000Z</time>
      </trkpt>
      <trkpt lat="45.15716" lon="5.957">
        <ele>2604.6000976562</ele>
        <time>2016-04-10T08:34:42.000Z</time>
      </trkpt>
      <trkpt lat="45.15715" lon="5.95703">
        <ele>2605.3999023438</ele>
        <time>2016-04-10T08:34:49.000Z</time>
      </trkpt>
      <trkpt lat="45.15715" lon="5.95704">
        <ele>2606.3999023438</ele>
        <time>2016-04-10T08:34:54.000Z</time>
      </trkpt>
      <trkpt lat="45.15715" lon="5.95704">
        <ele>2607.3999023438</ele>
        <time>2016-04-10T08:34:56.000Z</time>
      </trkpt>
      <trkpt lat="45.15715" lon="5.95704">
        <ele>2607.6000976562</ele>
        <time>2016-04-10T08:34:57.000Z</time>
      </trkpt>
      <trkpt lat="45.15717" lon="5.95707">
        <ele>2608.3999023438</ele>
        <time>2016-04-10T08:35:04.000Z</time>
      </trkpt>
      <trkpt lat="45.15718" lon="5.95709">
        <ele>2608.8000488281</ele>
        <time>2016-04-10T08:35:06.000Z</time>
      </trkpt>
      <trkpt lat="45.15721" lon="5.95711">
        <ele>2609.6000976562</ele>
        <time>2016-04-10T08:35:10.000Z</time>
      </trkpt>
      <trkpt lat="45.15723" lon="5.95711">
        <ele>2610</ele>
        <time>2016-04-10T08:35:12.000Z</time>
      </trkpt>
      <trkpt lat="45.15728" lon="5.95711">
        <ele>2610.6000976562</ele>
        <time>2016-04-10T08:35:18.000Z</time>
      </trkpt>
      <trkpt lat="45.1573" lon="5.95711">
        <ele>2611</ele>
        <time>2016-04-10T08:35:21.000Z</time>
      </trkpt>
      <trkpt lat="45.15732" lon="5.95712">
        <ele>2612.1999511719</ele>
        <time>2016-04-10T08:35:25.000Z</time>
      </trkpt>
      <trkpt lat="45.15735" lon="5.95712">
        <ele>2612.8000488281</ele>
        <time>2016-04-10T08:35:28.000Z</time>
      </trkpt>
      <trkpt lat="45.15736" lon="5.9571">
        <ele>2613.1999511719</ele>
        <time>2016-04-10T08:35:33.000Z</time>
      </trkpt>
      <trkpt lat="45.15738" lon="5.95709">
        <ele>2613.8000488281</ele>
        <time>2016-04-10T08:35:37.000Z</time>
      </trkpt>
      <trkpt lat="45.15738" lon="5.95709">
        <ele>2614.1999511719</ele>
        <time>2016-04-10T08:35:40.000Z</time>
      </trkpt>
      <trkpt lat="45.15738" lon="5.95709">
        <ele>2615.1999511719</ele>
        <time>2016-04-10T08:35:43.000Z</time>
      </trkpt>
      <trkpt lat="45.15738" lon="5.9571">
        <ele>2615.6000976562</ele>
        <time>2016-04-10T08:35:46.000Z</time>
      </trkpt>
      <trkpt lat="45.1574" lon="5.95709">
        <ele>2616.3999023438</ele>
        <time>2016-04-10T08:35:50.000Z</time>
      </trkpt>
      <trkpt lat="45.1574" lon="5.95708">
        <ele>2617</ele>
        <time>2016-04-10T08:35:52.000Z</time>
      </trkpt>
      <trkpt lat="45.15745" lon="5.95706">
        <ele>2617.1999511719</ele>
        <time>2016-04-10T08:35:59.000Z</time>
      </trkpt>
      <trkpt lat="45.15747" lon="5.95704">
        <ele>2617.6000976562</ele>
        <time>2016-04-10T08:36:02.000Z</time>
      </trkpt>
      <trkpt lat="45.15748" lon="5.95705">
        <ele>2618.1999511719</ele>
        <time>2016-04-10T08:36:07.000Z</time>
      </trkpt>
      <trkpt lat="45.15748" lon="5.95705">
        <ele>2618.6000976562</ele>
        <time>2016-04-10T08:36:08.000Z</time>
      </trkpt>
      <trkpt lat="45.15748" lon="5.95705">
        <ele>2619.6000976562</ele>
        <time>2016-04-10T08:36:14.000Z</time>
      </trkpt>
      <trkpt lat="45.15749" lon="5.95706">
        <ele>2620</ele>
        <time>2016-04-10T08:36:17.000Z</time>
      </trkpt>
      <trkpt lat="45.15748" lon="5.95711">
        <ele>2620</ele>
        <time>2016-04-10T08:36:23.000Z</time>
      </trkpt>
      <trkpt lat="45.15748" lon="5.95715">
        <ele>2620.6000976562</ele>
        <time>2016-04-10T08:36:28.000Z</time>
      </trkpt>
      <trkpt lat="45.15747" lon="5.95717">
        <ele>2621.8000488281</ele>
        <time>2016-04-10T08:36:32.000Z</time>
      </trkpt>
      <trkpt lat="45.15748" lon="5.95718">
        <ele>2622.3999023438</ele>
        <time>2016-04-10T08:36:38.000Z</time>
      </trkpt>
      <trkpt lat="45.15754" lon="5.95714">
        <ele>2623</ele>
        <time>2016-04-10T08:36:47.000Z</time>
      </trkpt>
      <trkpt lat="45.15756" lon="5.95713">
        <ele>2624.1999511719</ele>
        <time>2016-04-10T08:36:51.000Z</time>
      </trkpt>
      <trkpt lat="45.15758" lon="5.95713">
        <ele>2624.1999511719</ele>
        <time>2016-04-10T08:36:53.000Z</time>
      </trkpt>
      <trkpt lat="45.15762" lon="5.95711">
        <ele>2624.8000488281</ele>
        <time>2016-04-10T08:36:59.000Z</time>
      </trkpt>
      <trkpt lat="45.15762" lon="5.9571">
        <ele>2625.3999023438</ele>
        <time>2016-04-10T08:37:01.000Z</time>
      </trkpt>
      <trkpt lat="45.15763" lon="5.95709">
        <ele>2625.8000488281</ele>
        <time>2016-04-10T08:37:05.000Z</time>
      </trkpt>
      <trkpt lat="45.15763" lon="5.95709">
        <ele>2626.6000976562</ele>
        <time>2016-04-10T08:37:10.000Z</time>
      </trkpt>
      <trkpt lat="45.15763" lon="5.95711">
        <ele>2627.6000976562</ele>
        <time>2016-04-10T08:37:12.000Z</time>
      </trkpt>
      <trkpt lat="45.15762" lon="5.95712">
        <ele>2627.8000488281</ele>
        <time>2016-04-10T08:37:13.000Z</time>
      </trkpt>
      <trkpt lat="45.15759" lon="5.9572">
        <ele>2628.1999511719</ele>
        <time>2016-04-10T08:37:20.000Z</time>
      </trkpt>
      <trkpt lat="45.15755" lon="5.9573">
        <ele>2629</ele>
        <time>2016-04-10T08:37:31.000Z</time>
      </trkpt>
      <trkpt lat="45.15754" lon="5.95733">
        <ele>2630</ele>
        <time>2016-04-10T08:37:36.000Z</time>
      </trkpt>
      <trkpt lat="45.15753" lon="5.95736">
        <ele>2631</ele>
        <time>2016-04-10T08:37:40.000Z</time>
      </trkpt>
      <trkpt lat="45.15753" lon="5.95736">
        <ele>2631</ele>
        <time>2016-04-10T08:37:41.000Z</time>
      </trkpt>
      <trkpt lat="45.15753" lon="5.95739">
        <ele>2632.1999511719</ele>
        <time>2016-04-10T08:37:45.000Z</time>
      </trkpt>
      <trkpt lat="45.15753" lon="5.95739">
        <ele>2632.3999023438</ele>
        <time>2016-04-10T08:37:46.000Z</time>
      </trkpt>
      <trkpt lat="45.15759" lon="5.95731">
        <ele>2632.8000488281</ele>
        <time>2016-04-10T08:37:55.000Z</time>
      </trkpt>
      <trkpt lat="45.15762" lon="5.95731">
        <ele>2633</ele>
        <time>2016-04-10T08:38:00.000Z</time>
      </trkpt>
      <trkpt lat="45.15764" lon="5.9573">
        <ele>2633.1999511719</ele>
        <time>2016-04-10T08:38:02.000Z</time>
      </trkpt>
      <trkpt lat="45.15766" lon="5.95728">
        <ele>2633.3999023438</ele>
        <time>2016-04-10T08:38:05.000Z</time>
      </trkpt>
      <trkpt lat="45.15768" lon="5.95728">
        <ele>2634.3999023438</ele>
        <time>2016-04-10T08:38:10.000Z</time>
      </trkpt>
      <trkpt lat="45.1577" lon="5.95725">
        <ele>2635.6000976562</ele>
        <time>2016-04-10T08:38:14.000Z</time>
      </trkpt>
      <trkpt lat="45.1577" lon="5.95724">
        <ele>2636.1999511719</ele>
        <time>2016-04-10T08:38:16.000Z</time>
      </trkpt>
      <trkpt lat="45.15771" lon="5.95722">
        <ele>2636.6000976562</ele>
        <time>2016-04-10T08:38:20.000Z</time>
      </trkpt>
      <trkpt lat="45.15772" lon="5.95721">
        <ele>2636.8000488281</ele>
        <time>2016-04-10T08:38:22.000Z</time>
      </trkpt>
      <trkpt lat="45.15774" lon="5.95718">
        <ele>2637.3999023438</ele>
        <time>2016-04-10T08:38:28.000Z</time>
      </trkpt>
      <trkpt lat="45.15774" lon="5.95718">
        <ele>2637.8000488281</ele>
        <time>2016-04-10T08:38:29.000Z</time>
      </trkpt>
      <trkpt lat="45.15774" lon="5.95717">
        <ele>2638.8000488281</ele>
        <time>2016-04-10T08:38:34.000Z</time>
      </trkpt>
      <trkpt lat="45.15774" lon="5.95716">
        <ele>2639.1999511719</ele>
        <time>2016-04-10T08:38:38.000Z</time>
      </trkpt>
      <trkpt lat="45.15776" lon="5.95713">
        <ele>2639.3999023438</ele>
        <time>2016-04-10T08:38:44.000Z</time>
      </trkpt>
      <trkpt lat="45.15776" lon="5.95713">
        <ele>2640</ele>
        <time>2016-04-10T08:38:48.000Z</time>
      </trkpt>
      <trkpt lat="45.15776" lon="5.95713">
        <ele>2641.1999511719</ele>
        <time>2016-04-10T08:38:51.000Z</time>
      </trkpt>
      <trkpt lat="45.15776" lon="5.95713">
        <ele>2641.8000488281</ele>
        <time>2016-04-10T08:38:54.000Z</time>
      </trkpt>
      <trkpt lat="45.15776" lon="5.95715">
        <ele>2641.6000976562</ele>
        <time>2016-04-10T08:39:00.000Z</time>
      </trkpt>
      <trkpt lat="45.15777" lon="5.95717">
        <ele>2642.1999511719</ele>
        <time>2016-04-10T08:39:04.000Z</time>
      </trkpt>
      <trkpt lat="45.15777" lon="5.95717">
        <ele>2642</ele>
        <time>2016-04-10T08:39:08.000Z</time>
      </trkpt>
      <trkpt lat="45.15779" lon="5.95725">
        <ele>2643.3999023438</ele>
        <time>2016-04-10T08:39:15.000Z</time>
      </trkpt>
      <trkpt lat="45.15779" lon="5.95725">
        <ele>2644.3999023438</ele>
        <time>2016-04-10T08:39:19.000Z</time>
      </trkpt>
      <trkpt lat="45.15779" lon="5.95725">
        <ele>2644.6000976562</ele>
        <time>2016-04-10T08:39:21.000Z</time>
      </trkpt>
      <trkpt lat="45.15779" lon="5.95725">
        <ele>2645.3999023438</ele>
        <time>2016-04-10T08:39:28.000Z</time>
      </trkpt>
      <trkpt lat="45.15779" lon="5.95725">
        <ele>2645.8000488281</ele>
        <time>2016-04-10T08:39:30.000Z</time>
      </trkpt>
      <trkpt lat="45.15779" lon="5.95725">
        <ele>2646.6000976562</ele>
        <time>2016-04-10T08:39:33.000Z</time>
      </trkpt>
      <trkpt lat="45.15779" lon="5.95729">
        <ele>2646.8000488281</ele>
        <time>2016-04-10T08:39:39.000Z</time>
      </trkpt>
      <trkpt lat="45.1578" lon="5.95734">
        <ele>2647.8000488281</ele>
        <time>2016-04-10T08:39:46.000Z</time>
      </trkpt>
      <trkpt lat="45.1578" lon="5.95734">
        <ele>2647.8000488281</ele>
        <time>2016-04-10T08:39:47.000Z</time>
      </trkpt>
      <trkpt lat="45.15781" lon="5.95736">
        <ele>2647.8000488281</ele>
        <time>2016-04-10T08:39:53.000Z</time>
      </trkpt>
      <trkpt lat="45.15784" lon="5.95735">
        <ele>2648</ele>
        <time>2016-04-10T08:40:00.000Z</time>
      </trkpt>
      <trkpt lat="45.15786" lon="5.95733">
        <ele>2648.6000976562</ele>
        <time>2016-04-10T08:40:05.000Z</time>
      </trkpt>
      <trkpt lat="45.15787" lon="5.95733">
        <ele>2648.8000488281</ele>
        <time>2016-04-10T08:40:08.000Z</time>
      </trkpt>
      <trkpt lat="45.15789" lon="5.95731">
        <ele>2649.6000976562</ele>
        <time>2016-04-10T08:40:11.000Z</time>
      </trkpt>
      <trkpt lat="45.15789" lon="5.9573">
        <ele>2649.8000488281</ele>
        <time>2016-04-10T08:40:12.000Z</time>
      </trkpt>
      <trkpt lat="45.15789" lon="5.95729">
        <ele>2650.6000976562</ele>
        <time>2016-04-10T08:40:16.000Z</time>
      </trkpt>
      <trkpt lat="45.15789" lon="5.95728">
        <ele>2651</ele>
        <time>2016-04-10T08:40:18.000Z</time>
      </trkpt>
      <trkpt lat="45.15792" lon="5.95725">
        <ele>2651.8000488281</ele>
        <time>2016-04-10T08:40:24.000Z</time>
      </trkpt>
      <trkpt lat="45.15792" lon="5.95725">
        <ele>2652</ele>
        <time>2016-04-10T08:40:25.000Z</time>
      </trkpt>
      <trkpt lat="45.15792" lon="5.95722">
        <ele>2653</ele>
        <time>2016-04-10T08:40:29.000Z</time>
      </trkpt>
      <trkpt lat="45.15792" lon="5.95722">
        <ele>2653.1999511719</ele>
        <time>2016-04-10T08:40:30.000Z</time>
      </trkpt>
      <trkpt lat="45.15793" lon="5.95723">
        <ele>2653.8000488281</ele>
        <time>2016-04-10T08:40:39.000Z</time>
      </trkpt>
      <trkpt lat="45.15795" lon="5.9573">
        <ele>2653.8000488281</ele>
        <time>2016-04-10T08:40:45.000Z</time>
      </trkpt>
      <trkpt lat="45.15795" lon="5.95732">
        <ele>2654</ele>
        <time>2016-04-10T08:40:47.000Z</time>
      </trkpt>
      <trkpt lat="45.15794" lon="5.95737">
        <ele>2654.8000488281</ele>
        <time>2016-04-10T08:40:52.000Z</time>
      </trkpt>
      <trkpt lat="45.15794" lon="5.9574">
        <ele>2655</ele>
        <time>2016-04-10T08:40:55.000Z</time>
      </trkpt>
      <trkpt lat="45.15793" lon="5.95742">
        <ele>2655.8000488281</ele>
        <time>2016-04-10T08:40:58.000Z</time>
      </trkpt>
      <trkpt lat="45.15792" lon="5.95744">
        <ele>2656.1999511719</ele>
        <time>2016-04-10T08:41:00.000Z</time>
      </trkpt>
      <trkpt lat="45.15792" lon="5.95749">
        <ele>2657.1999511719</ele>
        <time>2016-04-10T08:41:05.000Z</time>
      </trkpt>
      <trkpt lat="45.15792" lon="5.95749">
        <ele>2657.3999023438</ele>
        <time>2016-04-10T08:41:06.000Z</time>
      </trkpt>
      <trkpt lat="45.15792" lon="5.95752">
        <ele>2658.1999511719</ele>
        <time>2016-04-10T08:41:11.000Z</time>
      </trkpt>
      <trkpt lat="45.15792" lon="5.95753">
        <ele>2658.3999023438</ele>
        <time>2016-04-10T08:41:12.000Z</time>
      </trkpt>
      <trkpt lat="45.15793" lon="5.95756">
        <ele>2659</ele>
        <time>2016-04-10T08:41:17.000Z</time>
      </trkpt>
      <trkpt lat="45.15792" lon="5.95758">
        <ele>2659.3999023438</ele>
        <time>2016-04-10T08:41:20.000Z</time>
      </trkpt>
      <trkpt lat="45.15792" lon="5.95761">
        <ele>2660</ele>
        <time>2016-04-10T08:41:23.000Z</time>
      </trkpt>
      <trkpt lat="45.15792" lon="5.95763">
        <ele>2660.6000976562</ele>
        <time>2016-04-10T08:41:25.000Z</time>
      </trkpt>
      <trkpt lat="45.15793" lon="5.95765">
        <ele>2661.6000976562</ele>
        <time>2016-04-10T08:41:31.000Z</time>
      </trkpt>
      <trkpt lat="45.15793" lon="5.95766">
        <ele>2662.1999511719</ele>
        <time>2016-04-10T08:41:33.000Z</time>
      </trkpt>
      <trkpt lat="45.15793" lon="5.95769">
        <ele>2662.8000488281</ele>
        <time>2016-04-10T08:41:36.000Z</time>
      </trkpt>
      <trkpt lat="45.15793" lon="5.95769">
        <ele>2663.8000488281</ele>
        <time>2016-04-10T08:41:42.000Z</time>
      </trkpt>
      <trkpt lat="45.15793" lon="5.95769">
        <ele>2664.1999511719</ele>
        <time>2016-04-10T08:41:51.000Z</time>
      </trkpt>
      <trkpt lat="45.15793" lon="5.95771">
        <ele>2664.8000488281</ele>
        <time>2016-04-10T08:41:57.000Z</time>
      </trkpt>
      <trkpt lat="45.15793" lon="5.95775">
        <ele>2665.6000976562</ele>
        <time>2016-04-10T08:42:03.000Z</time>
      </trkpt>
      <trkpt lat="45.15793" lon="5.95777">
        <ele>2666</ele>
        <time>2016-04-10T08:42:05.000Z</time>
      </trkpt>
      <trkpt lat="45.15793" lon="5.95777">
        <ele>2667.1999511719</ele>
        <time>2016-04-10T08:42:09.000Z</time>
      </trkpt>
      <trkpt lat="45.15793" lon="5.95777">
        <ele>2667.3999023438</ele>
        <time>2016-04-10T08:42:13.000Z</time>
      </trkpt>
      <trkpt lat="45.15794" lon="5.95775">
        <ele>2667.8000488281</ele>
        <time>2016-04-10T08:42:21.000Z</time>
      </trkpt>
      <trkpt lat="45.15794" lon="5.95775">
        <ele>2668.1999511719</ele>
        <time>2016-04-10T08:42:23.000Z</time>
      </trkpt>
      <trkpt lat="45.15798" lon="5.95772">
        <ele>2668.3999023438</ele>
        <time>2016-04-10T08:42:28.000Z</time>
      </trkpt>
      <trkpt lat="45.15801" lon="5.95771">
        <ele>2669.3999023438</ele>
        <time>2016-04-10T08:42:32.000Z</time>
      </trkpt>
      <trkpt lat="45.15802" lon="5.95769">
        <ele>2670.1999511719</ele>
        <time>2016-04-10T08:42:35.000Z</time>
      </trkpt>
      <trkpt lat="45.15802" lon="5.95769">
        <ele>2670.6000976562</ele>
        <time>2016-04-10T08:42:45.000Z</time>
      </trkpt>
      <trkpt lat="45.15802" lon="5.95769">
        <ele>2670.6000976562</ele>
        <time>2016-04-10T08:42:46.000Z</time>
      </trkpt>
      <trkpt lat="45.15803" lon="5.95768">
        <ele>2670.6000976562</ele>
        <time>2016-04-10T08:42:52.000Z</time>
      </trkpt>
      <trkpt lat="45.15803" lon="5.95768">
        <ele>2671.6000976562</ele>
        <time>2016-04-10T08:42:57.000Z</time>
      </trkpt>
      <trkpt lat="45.15804" lon="5.95768">
        <ele>2672</ele>
        <time>2016-04-10T08:42:59.000Z</time>
      </trkpt>
      <trkpt lat="45.15806" lon="5.95774">
        <ele>2671.1999511719</ele>
        <time>2016-04-10T08:43:05.000Z</time>
      </trkpt>
      <trkpt lat="45.15805" lon="5.95781">
        <ele>2672.3999023438</ele>
        <time>2016-04-10T08:43:11.000Z</time>
      </trkpt>
      <trkpt lat="45.15805" lon="5.95782">
        <ele>2672.8000488281</ele>
        <time>2016-04-10T08:43:13.000Z</time>
      </trkpt>
      <trkpt lat="45.15805" lon="5.95786">
        <ele>2673.8000488281</ele>
        <time>2016-04-10T08:43:17.000Z</time>
      </trkpt>
      <trkpt lat="45.15804" lon="5.95787">
        <ele>2674.1999511719</ele>
        <time>2016-04-10T08:43:18.000Z</time>
      </trkpt>
      <trkpt lat="45.15803" lon="5.95791">
        <ele>2674.8000488281</ele>
        <time>2016-04-10T08:43:22.000Z</time>
      </trkpt>
      <trkpt lat="45.15803" lon="5.95791">
        <ele>2675.3999023438</ele>
        <time>2016-04-10T08:43:24.000Z</time>
      </trkpt>
      <trkpt lat="45.15801" lon="5.95793">
        <ele>2675.8000488281</ele>
        <time>2016-04-10T08:43:29.000Z</time>
      </trkpt>
      <trkpt lat="45.15802" lon="5.95795">
        <ele>2676.3999023438</ele>
        <time>2016-04-10T08:43:34.000Z</time>
      </trkpt>
      <trkpt lat="45.15802" lon="5.95795">
        <ele>2676.8000488281</ele>
        <time>2016-04-10T08:43:36.000Z</time>
      </trkpt>
      <trkpt lat="45.15805" lon="5.95792">
        <ele>2677</ele>
        <time>2016-04-10T08:43:46.000Z</time>
      </trkpt>
      <trkpt lat="45.15806" lon="5.9579">
        <ele>2677.3999023438</ele>
        <time>2016-04-10T08:43:48.000Z</time>
      </trkpt>
      <trkpt lat="45.1581" lon="5.95789">
        <ele>2677.8000488281</ele>
        <time>2016-04-10T08:43:54.000Z</time>
      </trkpt>
      <trkpt lat="45.15812" lon="5.95787">
        <ele>2678.8000488281</ele>
        <time>2016-04-10T08:43:58.000Z</time>
      </trkpt>
      <trkpt lat="45.15814" lon="5.95786">
        <ele>2679.3999023438</ele>
        <time>2016-04-10T08:44:01.000Z</time>
      </trkpt>
      <trkpt lat="45.15815" lon="5.95783">
        <ele>2679.8000488281</ele>
        <time>2016-04-10T08:44:06.000Z</time>
      </trkpt>
      <trkpt lat="45.15818" lon="5.95783">
        <ele>2680.3999023438</ele>
        <time>2016-04-10T08:44:08.000Z</time>
      </trkpt>
      <trkpt lat="45.15818" lon="5.95783">
        <ele>2681</ele>
        <time>2016-04-10T08:44:09.000Z</time>
      </trkpt>
      <trkpt lat="45.15818" lon="5.9578">
        <ele>2681</ele>
        <time>2016-04-10T08:44:13.000Z</time>
      </trkpt>
      <trkpt lat="45.1582" lon="5.95778">
        <ele>2682</ele>
        <time>2016-04-10T08:44:20.000Z</time>
      </trkpt>
      <trkpt lat="45.1582" lon="5.95776">
        <ele>2682</ele>
        <time>2016-04-10T08:44:27.000Z</time>
      </trkpt>
      <trkpt lat="45.1582" lon="5.95776">
        <ele>2683</ele>
        <time>2016-04-10T08:44:33.000Z</time>
      </trkpt>
      <trkpt lat="45.1582" lon="5.95776">
        <ele>2683.3999023438</ele>
        <time>2016-04-10T08:44:35.000Z</time>
      </trkpt>
      <trkpt lat="45.1582" lon="5.95779">
        <ele>2682.8000488281</ele>
        <time>2016-04-10T08:44:42.000Z</time>
      </trkpt>
      <trkpt lat="45.15819" lon="5.95786">
        <ele>2683.6000976562</ele>
        <time>2016-04-10T08:44:50.000Z</time>
      </trkpt>
      <trkpt lat="45.15819" lon="5.95789">
        <ele>2684.1999511719</ele>
        <time>2016-04-10T08:44:53.000Z</time>
      </trkpt>
      <trkpt lat="45.15819" lon="5.95792">
        <ele>2684.8000488281</ele>
        <time>2016-04-10T08:44:55.000Z</time>
      </trkpt>
      <trkpt lat="45.15818" lon="5.95794">
        <ele>2685.6000976562</ele>
        <time>2016-04-10T08:44:57.000Z</time>
      </trkpt>
      <trkpt lat="45.15817" lon="5.95796">
        <ele>2686.6000976562</ele>
        <time>2016-04-10T08:45:02.000Z</time>
      </trkpt>
      <trkpt lat="45.15816" lon="5.95803">
        <ele>2687</ele>
        <time>2016-04-10T08:45:07.000Z</time>
      </trkpt>
      <trkpt lat="45.15814" lon="5.95804">
        <ele>2687.6000976562</ele>
        <time>2016-04-10T08:45:09.000Z</time>
      </trkpt>
      <trkpt lat="45.15814" lon="5.95804">
        <ele>2688.6000976562</ele>
        <time>2016-04-10T08:45:12.000Z</time>
      </trkpt>
      <trkpt lat="45.15814" lon="5.95804">
        <ele>2688.8000488281</ele>
        <time>2016-04-10T08:45:15.000Z</time>
      </trkpt>
      <trkpt lat="45.15818" lon="5.958">
        <ele>2688.1999511719</ele>
        <time>2016-04-10T08:45:24.000Z</time>
      </trkpt>
      <trkpt lat="45.15821" lon="5.95796">
        <ele>2689.3999023438</ele>
        <time>2016-04-10T08:45:30.000Z</time>
      </trkpt>
      <trkpt lat="45.15822" lon="5.95795">
        <ele>2689.8000488281</ele>
        <time>2016-04-10T08:45:31.000Z</time>
      </trkpt>
      <trkpt lat="45.15824" lon="5.95794">
        <ele>2691</ele>
        <time>2016-04-10T08:45:35.000Z</time>
      </trkpt>
      <trkpt lat="45.15825" lon="5.95794">
        <ele>2691.1999511719</ele>
        <time>2016-04-10T08:45:36.000Z</time>
      </trkpt>
      <trkpt lat="45.15829" lon="5.95789">
        <ele>2691.3999023438</ele>
        <time>2016-04-10T08:45:41.000Z</time>
      </trkpt>
      <trkpt lat="45.15829" lon="5.95788">
        <ele>2691.6000976562</ele>
        <time>2016-04-10T08:45:47.000Z</time>
      </trkpt>
      <trkpt lat="45.15829" lon="5.95788">
        <ele>2692.1999511719</ele>
        <time>2016-04-10T08:45:50.000Z</time>
      </trkpt>
      <trkpt lat="45.15829" lon="5.95788">
        <ele>2693</ele>
        <time>2016-04-10T08:45:54.000Z</time>
      </trkpt>
      <trkpt lat="45.15829" lon="5.95788">
        <ele>2692.1999511719</ele>
        <time>2016-04-10T08:46:04.000Z</time>
      </trkpt>
      <trkpt lat="45.1583" lon="5.95791">
        <ele>2692.6000976562</ele>
        <time>2016-04-10T08:46:13.000Z</time>
      </trkpt>
      <trkpt lat="45.15828" lon="5.95796">
        <ele>2692.6000976562</ele>
        <time>2016-04-10T08:46:18.000Z</time>
      </trkpt>
      <trkpt lat="45.15827" lon="5.95799">
        <ele>2693.1999511719</ele>
        <time>2016-04-10T08:46:21.000Z</time>
      </trkpt>
      <trkpt lat="45.15825" lon="5.95804">
        <ele>2694</ele>
        <time>2016-04-10T08:46:26.000Z</time>
      </trkpt>
      <trkpt lat="45.15825" lon="5.95805">
        <ele>2694.3999023438</ele>
        <time>2016-04-10T08:46:28.000Z</time>
      </trkpt>
      <trkpt lat="45.15823" lon="5.95808">
        <ele>2695</ele>
        <time>2016-04-10T08:46:32.000Z</time>
      </trkpt>
      <trkpt lat="45.15823" lon="5.95809">
        <ele>2695.3999023438</ele>
        <time>2016-04-10T08:46:33.000Z</time>
      </trkpt>
      <trkpt lat="45.15822" lon="5.95813">
        <ele>2696.3999023438</ele>
        <time>2016-04-10T08:46:38.000Z</time>
      </trkpt>
      <trkpt lat="45.15821" lon="5.95815">
        <ele>2697.1999511719</ele>
        <time>2016-04-10T08:46:46.000Z</time>
      </trkpt>
      <trkpt lat="45.15821" lon="5.95815">
        <ele>2697.3999023438</ele>
        <time>2016-04-10T08:46:51.000Z</time>
      </trkpt>
      <trkpt lat="45.15821" lon="5.95815">
        <ele>2697.6000976562</ele>
        <time>2016-04-10T08:46:53.000Z</time>
      </trkpt>
      <trkpt lat="45.15821" lon="5.95815">
        <ele>2698.6000976562</ele>
        <time>2016-04-10T08:47:00.000Z</time>
      </trkpt>
      <trkpt lat="45.15821" lon="5.95815">
        <ele>2699.6000976562</ele>
        <time>2016-04-10T08:47:07.000Z</time>
      </trkpt>
      <trkpt lat="45.15821" lon="5.95815">
        <ele>2700.3999023438</ele>
        <time>2016-04-10T08:47:10.000Z</time>
      </trkpt>
      <trkpt lat="45.15821" lon="5.95815">
        <ele>2700.8000488281</ele>
        <time>2016-04-10T08:47:12.000Z</time>
      </trkpt>
      <trkpt lat="45.15821" lon="5.95815">
        <ele>2701.8000488281</ele>
        <time>2016-04-10T08:47:19.000Z</time>
      </trkpt>
      <trkpt lat="45.1582" lon="5.95815">
        <ele>2702.8000488281</ele>
        <time>2016-04-10T08:47:23.000Z</time>
      </trkpt>
      <trkpt lat="45.1582" lon="5.95815">
        <ele>2703.6000976562</ele>
        <time>2016-04-10T08:47:27.000Z</time>
      </trkpt>
      <trkpt lat="45.1582" lon="5.95815">
        <ele>2704</ele>
        <time>2016-04-10T08:47:31.000Z</time>
      </trkpt>
      <trkpt lat="45.1582" lon="5.95815">
        <ele>2704.1999511719</ele>
        <time>2016-04-10T08:47:34.000Z</time>
      </trkpt>
      <trkpt lat="45.1582" lon="5.95815">
        <ele>2704.3999023438</ele>
        <time>2016-04-10T08:47:49.000Z</time>
      </trkpt>
      <trkpt lat="45.15819" lon="5.95818">
        <ele>2704.3999023438</ele>
        <time>2016-04-10T08:48:00.000Z</time>
      </trkpt>
      <trkpt lat="45.15819" lon="5.95818">
        <ele>2705.1999511719</ele>
        <time>2016-04-10T08:48:08.000Z</time>
      </trkpt>
      <trkpt lat="45.15819" lon="5.95818">
        <ele>2705</ele>
        <time>2016-04-10T08:48:10.000Z</time>
      </trkpt>
      <trkpt lat="45.15819" lon="5.95818">
        <ele>2705.3999023438</ele>
        <time>2016-04-10T08:48:18.000Z</time>
      </trkpt>
      <trkpt lat="45.15815" lon="5.95826">
        <ele>2705.6000976562</ele>
        <time>2016-04-10T08:48:29.000Z</time>
      </trkpt>
      <trkpt lat="45.15815" lon="5.95831">
        <ele>2706</ele>
        <time>2016-04-10T08:48:34.000Z</time>
      </trkpt>
      <trkpt lat="45.15814" lon="5.95832">
        <ele>2706.1999511719</ele>
        <time>2016-04-10T08:48:35.000Z</time>
      </trkpt>
      <trkpt lat="45.15811" lon="5.95835">
        <ele>2707.3999023438</ele>
        <time>2016-04-10T08:48:40.000Z</time>
      </trkpt>
      <trkpt lat="45.15811" lon="5.95836">
        <ele>2707.6000976562</ele>
        <time>2016-04-10T08:48:41.000Z</time>
      </trkpt>
      <trkpt lat="45.15809" lon="5.95839">
        <ele>2708.6000976562</ele>
        <time>2016-04-10T08:48:45.000Z</time>
      </trkpt>
      <trkpt lat="45.15808" lon="5.95843">
        <ele>2709.3999023438</ele>
        <time>2016-04-10T08:48:49.000Z</time>
      </trkpt>
      <trkpt lat="45.15808" lon="5.95844">
        <ele>2709.6000976562</ele>
        <time>2016-04-10T08:48:50.000Z</time>
      </trkpt>
      <trkpt lat="45.15808" lon="5.95848">
        <ele>2710.8000488281</ele>
        <time>2016-04-10T08:48:55.000Z</time>
      </trkpt>
      <trkpt lat="45.15808" lon="5.95848">
        <ele>2711.1999511719</ele>
        <time>2016-04-10T08:48:56.000Z</time>
      </trkpt>
      <trkpt lat="45.15809" lon="5.9585">
        <ele>2712.1999511719</ele>
        <time>2016-04-10T08:48:58.000Z</time>
      </trkpt>
      <trkpt lat="45.15809" lon="5.95852">
        <ele>2712.6000976562</ele>
        <time>2016-04-10T08:49:01.000Z</time>
      </trkpt>
      <trkpt lat="45.15809" lon="5.95853">
        <ele>2713.3999023438</ele>
        <time>2016-04-10T08:49:04.000Z</time>
      </trkpt>
      <trkpt lat="45.15809" lon="5.95854">
        <ele>2713.6000976562</ele>
        <time>2016-04-10T08:49:06.000Z</time>
      </trkpt>
      <trkpt lat="45.15809" lon="5.95856">
        <ele>2714.3999023438</ele>
        <time>2016-04-10T08:49:11.000Z</time>
      </trkpt>
      <trkpt lat="45.15809" lon="5.95856">
        <ele>2714.8000488281</ele>
        <time>2016-04-10T08:49:14.000Z</time>
      </trkpt>
      <trkpt lat="45.15809" lon="5.95856">
        <ele>2714.8000488281</ele>
        <time>2016-04-10T08:49:29.000Z</time>
      </trkpt>
      <trkpt lat="45.15809" lon="5.95856">
        <ele>2714.8000488281</ele>
        <time>2016-04-10T08:49:41.000Z</time>
      </trkpt>
      <trkpt lat="45.15809" lon="5.95856">
        <ele>2714.8000488281</ele>
        <time>2016-04-10T08:49:51.000Z</time>
      </trkpt>
      <trkpt lat="45.15809" lon="5.95856">
        <ele>2714.3999023438</ele>
        <time>2016-04-10T08:50:04.000Z</time>
      </trkpt>
      <trkpt lat="45.15809" lon="5.95856">
        <ele>2715.3999023438</ele>
        <time>2016-04-10T08:50:09.000Z</time>
      </trkpt>
      <trkpt lat="45.15809" lon="5.95856">
        <ele>2715</ele>
        <time>2016-04-10T08:50:17.000Z</time>
      </trkpt>
      <trkpt lat="45.15809" lon="5.95857">
        <ele>2715</ele>
        <time>2016-04-10T08:50:33.000Z</time>
      </trkpt>
      <trkpt lat="45.15809" lon="5.95857">
        <ele>2715</ele>
        <time>2016-04-10T08:50:53.000Z</time>
      </trkpt>
      <trkpt lat="45.15809" lon="5.95857">
        <ele>2715</ele>
        <time>2016-04-10T08:51:10.000Z</time>
      </trkpt>
      <trkpt lat="45.15809" lon="5.95857">
        <ele>2714.3999023438</ele>
        <time>2016-04-10T08:51:13.000Z</time>
      </trkpt>
      <trkpt lat="45.15809" lon="5.95857">
        <ele>2715</ele>
        <time>2016-04-10T08:51:24.000Z</time>
      </trkpt>
      <trkpt lat="45.15809" lon="5.95857">
        <ele>2715.3999023438</ele>
        <time>2016-04-10T08:51:34.000Z</time>
      </trkpt>
      <trkpt lat="45.15809" lon="5.95857">
        <ele>2715.1999511719</ele>
        <time>2016-04-10T08:51:40.000Z</time>
      </trkpt>
      <trkpt lat="45.15809" lon="5.95857">
        <ele>2714.6000976562</ele>
        <time>2016-04-10T08:51:58.000Z</time>
      </trkpt>
      <trkpt lat="45.15809" lon="5.95857">
        <ele>2714.6000976562</ele>
        <time>2016-04-10T08:52:12.000Z</time>
      </trkpt>
      <trkpt lat="45.15809" lon="5.95857">
        <ele>2715.3999023438</ele>
        <time>2016-04-10T08:52:22.000Z</time>
      </trkpt>
      <trkpt lat="45.15809" lon="5.95857">
        <ele>2715.1999511719</ele>
        <time>2016-04-10T08:52:37.000Z</time>
      </trkpt>
      <trkpt lat="45.15809" lon="5.95857">
        <ele>2715.1999511719</ele>
        <time>2016-04-10T08:52:52.000Z</time>
      </trkpt>
      <trkpt lat="45.15809" lon="5.95857">
        <ele>2714.3999023438</ele>
        <time>2016-04-10T08:53:04.000Z</time>
      </trkpt>
      <trkpt lat="45.15809" lon="5.95857">
        <ele>2714.1999511719</ele>
        <time>2016-04-10T08:53:05.000Z</time>
      </trkpt>
      <trkpt lat="45.15809" lon="5.95861">
        <ele>2714.6000976562</ele>
        <time>2016-04-10T08:53:16.000Z</time>
      </trkpt>
      <trkpt lat="45.15809" lon="5.95861">
        <ele>2715.3999023438</ele>
        <time>2016-04-10T08:53:22.000Z</time>
      </trkpt>
      <trkpt lat="45.15809" lon="5.95861">
        <ele>2715.3999023438</ele>
        <time>2016-04-10T08:53:29.000Z</time>
      </trkpt>
      <trkpt lat="45.15809" lon="5.95861">
        <ele>2714.1999511719</ele>
        <time>2016-04-10T08:53:31.000Z</time>
      </trkpt>
      <trkpt lat="45.15809" lon="5.95861">
        <ele>2715.3999023438</ele>
        <time>2016-04-10T08:53:37.000Z</time>
      </trkpt>
      <trkpt lat="45.15809" lon="5.95861">
        <ele>2715</ele>
        <time>2016-04-10T08:53:41.000Z</time>
      </trkpt>
      <trkpt lat="45.15809" lon="5.95861">
        <ele>2714.8000488281</ele>
        <time>2016-04-10T08:53:54.000Z</time>
      </trkpt>
      <trkpt lat="45.15809" lon="5.95861">
        <ele>2715</ele>
        <time>2016-04-10T08:54:06.000Z</time>
      </trkpt>
      <trkpt lat="45.15809" lon="5.95861">
        <ele>2714.8000488281</ele>
        <time>2016-04-10T08:54:21.000Z</time>
      </trkpt>
      <trkpt lat="45.15809" lon="5.95861">
        <ele>2715.3999023438</ele>
        <time>2016-04-10T08:54:32.000Z</time>
      </trkpt>
      <trkpt lat="45.15809" lon="5.95861">
        <ele>2715.1999511719</ele>
        <time>2016-04-10T08:54:45.000Z</time>
      </trkpt>
      <trkpt lat="45.15809" lon="5.95861">
        <ele>2715</ele>
        <time>2016-04-10T08:55:03.000Z</time>
      </trkpt>
      <trkpt lat="45.15809" lon="5.95861">
        <ele>2715.6000976562</ele>
        <time>2016-04-10T08:55:18.000Z</time>
      </trkpt>
      <trkpt lat="45.15809" lon="5.95861">
        <ele>2714.1999511719</ele>
        <time>2016-04-10T08:55:30.000Z</time>
      </trkpt>
      <trkpt lat="45.15809" lon="5.95861">
        <ele>2713.6000976562</ele>
        <time>2016-04-10T08:55:34.000Z</time>
      </trkpt>
      <trkpt lat="45.15809" lon="5.95861">
        <ele>2715.6000976562</ele>
        <time>2016-04-10T08:55:38.000Z</time>
      </trkpt>
      <trkpt lat="45.15809" lon="5.95861">
        <ele>2715.1999511719</ele>
        <time>2016-04-10T08:55:50.000Z</time>
      </trkpt>
      <trkpt lat="45.15809" lon="5.95861">
        <ele>2715.6000976562</ele>
        <time>2016-04-10T08:56:01.000Z</time>
      </trkpt>
      <trkpt lat="45.15809" lon="5.95861">
        <ele>2716.6000976562</ele>
        <time>2016-04-10T08:56:18.000Z</time>
      </trkpt>
      <trkpt lat="45.15809" lon="5.95861">
        <ele>2716.8000488281</ele>
        <time>2016-04-10T08:56:19.000Z</time>
      </trkpt>
      <trkpt lat="45.15809" lon="5.95861">
        <ele>2716</ele>
        <time>2016-04-10T08:56:32.000Z</time>
      </trkpt>
      <trkpt lat="45.15809" lon="5.95861">
        <ele>2716</ele>
        <time>2016-04-10T08:56:51.000Z</time>
      </trkpt>
      <trkpt lat="45.15809" lon="5.95861">
        <ele>2715.6000976562</ele>
        <time>2016-04-10T08:57:01.000Z</time>
      </trkpt>
      <trkpt lat="45.15809" lon="5.95861">
        <ele>2716</ele>
        <time>2016-04-10T08:57:07.000Z</time>
      </trkpt>
      <trkpt lat="45.15809" lon="5.95861">
        <ele>2715.8000488281</ele>
        <time>2016-04-10T08:57:24.000Z</time>
      </trkpt>
      <trkpt lat="45.15809" lon="5.95861">
        <ele>2715.8000488281</ele>
        <time>2016-04-10T08:57:40.000Z</time>
      </trkpt>
      <trkpt lat="45.15809" lon="5.95861">
        <ele>2715.3999023438</ele>
        <time>2016-04-10T08:57:58.000Z</time>
      </trkpt>
      <trkpt lat="45.15809" lon="5.95861">
        <ele>2714.8000488281</ele>
        <time>2016-04-10T08:58:14.000Z</time>
      </trkpt>
      <trkpt lat="45.15809" lon="5.95861">
        <ele>2715.6000976562</ele>
        <time>2016-04-10T08:58:23.000Z</time>
      </trkpt>
      <trkpt lat="45.15809" lon="5.95861">
        <ele>2715.6000976562</ele>
        <time>2016-04-10T08:58:36.000Z</time>
      </trkpt>
      <trkpt lat="45.15809" lon="5.95861">
        <ele>2715.8000488281</ele>
        <time>2016-04-10T08:58:49.000Z</time>
      </trkpt>
      <trkpt lat="45.15809" lon="5.95861">
        <ele>2715</ele>
        <time>2016-04-10T08:58:59.000Z</time>
      </trkpt>
      <trkpt lat="45.15809" lon="5.95861">
        <ele>2714.6000976562</ele>
        <time>2016-04-10T08:59:02.000Z</time>
      </trkpt>
      <trkpt lat="45.15809" lon="5.95861">
        <ele>2714.8000488281</ele>
        <time>2016-04-10T08:59:07.000Z</time>
      </trkpt>
      <trkpt lat="45.15809" lon="5.95861">
        <ele>2714.6000976562</ele>
        <time>2016-04-10T08:59:18.000Z</time>
      </trkpt>
      <trkpt lat="45.15809" lon="5.95861">
        <ele>2714.6000976562</ele>
        <time>2016-04-10T08:59:33.000Z</time>
      </trkpt>
      <trkpt lat="45.15809" lon="5.95861">
        <ele>2714.6000976562</ele>
        <time>2016-04-10T08:59:55.000Z</time>
      </trkpt>
      <trkpt lat="45.15809" lon="5.95861">
        <ele>2714.6000976562</ele>
        <time>2016-04-10T09:00:07.000Z</time>
      </trkpt>
      <trkpt lat="45.15809" lon="5.95861">
        <ele>2714.8000488281</ele>
        <time>2016-04-10T09:00:27.000Z</time>
      </trkpt>
      <trkpt lat="45.15809" lon="5.95862">
        <ele>2714.6000976562</ele>
        <time>2016-04-10T09:00:36.000Z</time>
      </trkpt>
      <trkpt lat="45.15809" lon="5.95862">
        <ele>2714.3999023438</ele>
        <time>2016-04-10T09:00:58.000Z</time>
      </trkpt>
      <trkpt lat="45.15808" lon="5.95861">
        <ele>2714.8000488281</ele>
        <time>2016-04-10T09:01:12.000Z</time>
      </trkpt>
      <trkpt lat="45.15808" lon="5.95861">
        <ele>2714.6000976562</ele>
        <time>2016-04-10T09:01:22.000Z</time>
      </trkpt>
      <trkpt lat="45.15811" lon="5.95865">
        <ele>2715</ele>
        <time>2016-04-10T09:01:29.000Z</time>
      </trkpt>
      <trkpt lat="45.15824" lon="5.95874">
        <ele>2715.1999511719</ele>
        <time>2016-04-10T09:01:33.000Z</time>
      </trkpt>
      <trkpt lat="45.15826" lon="5.95877">
        <ele>2714.8000488281</ele>
        <time>2016-04-10T09:01:34.000Z</time>
      </trkpt>
      <trkpt lat="45.15833" lon="5.95882">
        <ele>2714</ele>
        <time>2016-04-10T09:01:36.000Z</time>
      </trkpt>
      <trkpt lat="45.15836" lon="5.95884">
        <ele>2713.3999023438</ele>
        <time>2016-04-10T09:01:37.000Z</time>
      </trkpt>
      <trkpt lat="45.15842" lon="5.9588">
        <ele>2712</ele>
        <time>2016-04-10T09:01:39.000Z</time>
      </trkpt>
      <trkpt lat="45.15844" lon="5.95881">
        <ele>2709.6000976562</ele>
        <time>2016-04-10T09:01:41.000Z</time>
      </trkpt>
      <trkpt lat="45.15845" lon="5.95881">
        <ele>2708.1999511719</ele>
        <time>2016-04-10T09:01:42.000Z</time>
      </trkpt>
      <trkpt lat="45.15847" lon="5.95882">
        <ele>2707</ele>
        <time>2016-04-10T09:01:43.000Z</time>
      </trkpt>
      <trkpt lat="45.15852" lon="5.95877">
        <ele>2705.8000488281</ele>
        <time>2016-04-10T09:01:45.000Z</time>
      </trkpt>
      <trkpt lat="45.15855" lon="5.95872">
        <ele>2705.1999511719</ele>
        <time>2016-04-10T09:01:46.000Z</time>
      </trkpt>
      <trkpt lat="45.15855" lon="5.95869">
        <ele>2704.3999023438</ele>
        <time>2016-04-10T09:01:47.000Z</time>
      </trkpt>
      <trkpt lat="45.15857" lon="5.95867">
        <ele>2702.3999023438</ele>
        <time>2016-04-10T09:01:49.000Z</time>
      </trkpt>
      <trkpt lat="45.15858" lon="5.95865">
        <ele>2700.8000488281</ele>
        <time>2016-04-10T09:01:51.000Z</time>
      </trkpt>
      <trkpt lat="45.15861" lon="5.95862">
        <ele>2699.8000488281</ele>
        <time>2016-04-10T09:01:53.000Z</time>
      </trkpt>
      <trkpt lat="45.15863" lon="5.95865">
        <ele>2699.1999511719</ele>
        <time>2016-04-10T09:01:54.000Z</time>
      </trkpt>
      <trkpt lat="45.15867" lon="5.95867">
        <ele>2697.1999511719</ele>
        <time>2016-04-10T09:01:56.000Z</time>
      </trkpt>
      <trkpt lat="45.15869" lon="5.95862">
        <ele>2696.1999511719</ele>
        <time>2016-04-10T09:01:57.000Z</time>
      </trkpt>
      <trkpt lat="45.15871" lon="5.95858">
        <ele>2695.1999511719</ele>
        <time>2016-04-10T09:01:58.000Z</time>
      </trkpt>
      <trkpt lat="45.15874" lon="5.95856">
        <ele>2694.3999023438</ele>
        <time>2016-04-10T09:01:59.000Z</time>
      </trkpt>
      <trkpt lat="45.15876" lon="5.95856">
        <ele>2693</ele>
        <time>2016-04-10T09:02:00.000Z</time>
      </trkpt>
      <trkpt lat="45.15879" lon="5.95857">
        <ele>2691</ele>
        <time>2016-04-10T09:02:01.000Z</time>
      </trkpt>
      <trkpt lat="45.15882" lon="5.95853">
        <ele>2688.8000488281</ele>
        <time>2016-04-10T09:02:02.000Z</time>
      </trkpt>
      <trkpt lat="45.15885" lon="5.95851">
        <ele>2687</ele>
        <time>2016-04-10T09:02:03.000Z</time>
      </trkpt>
      <trkpt lat="45.15886" lon="5.95849">
        <ele>2685.6000976562</ele>
        <time>2016-04-10T09:02:04.000Z</time>
      </trkpt>
      <trkpt lat="45.15889" lon="5.95852">
        <ele>2684</ele>
        <time>2016-04-10T09:02:05.000Z</time>
      </trkpt>
      <trkpt lat="45.15891" lon="5.95852">
        <ele>2681.6000976562</ele>
        <time>2016-04-10T09:02:06.000Z</time>
      </trkpt>
      <trkpt lat="45.15893" lon="5.9585">
        <ele>2679</ele>
        <time>2016-04-10T09:02:07.000Z</time>
      </trkpt>
      <trkpt lat="45.15895" lon="5.95848">
        <ele>2677.1999511719</ele>
        <time>2016-04-10T09:02:08.000Z</time>
      </trkpt>
      <trkpt lat="45.15896" lon="5.95848">
        <ele>2675.8000488281</ele>
        <time>2016-04-10T09:02:09.000Z</time>
      </trkpt>
      <trkpt lat="45.159" lon="5.95848">
        <ele>2674.1999511719</ele>
        <time>2016-04-10T09:02:10.000Z</time>
      </trkpt>
      <trkpt lat="45.15903" lon="5.95844">
        <ele>2669.6000976562</ele>
        <time>2016-04-10T09:02:11.000Z</time>
      </trkpt>
      <trkpt lat="45.15906" lon="5.95841">
        <ele>2667.3999023438</ele>
        <time>2016-04-10T09:02:12.000Z</time>
      </trkpt>
      <trkpt lat="45.15908" lon="5.95839">
        <ele>2665.1999511719</ele>
        <time>2016-04-10T09:02:13.000Z</time>
      </trkpt>
      <trkpt lat="45.15911" lon="5.95839">
        <ele>2662.8000488281</ele>
        <time>2016-04-10T09:02:14.000Z</time>
      </trkpt>
      <trkpt lat="45.1592" lon="5.95843">
        <ele>2660.1999511719</ele>
        <time>2016-04-10T09:02:15.000Z</time>
      </trkpt>
      <trkpt lat="45.15924" lon="5.95847">
        <ele>2657.8000488281</ele>
        <time>2016-04-10T09:02:16.000Z</time>
      </trkpt>
      <trkpt lat="45.15929" lon="5.95847">
        <ele>2655.8000488281</ele>
        <time>2016-04-10T09:02:17.000Z</time>
      </trkpt>
      <trkpt lat="45.15937" lon="5.95852">
        <ele>2654.1999511719</ele>
        <time>2016-04-10T09:02:18.000Z</time>
      </trkpt>
      <trkpt lat="45.15943" lon="5.95855">
        <ele>2652.6000976562</ele>
        <time>2016-04-10T09:02:19.000Z</time>
      </trkpt>
      <trkpt lat="45.1595" lon="5.95856">
        <ele>2650.8000488281</ele>
        <time>2016-04-10T09:02:20.000Z</time>
      </trkpt>
      <trkpt lat="45.15956" lon="5.95853">
        <ele>2648.8000488281</ele>
        <time>2016-04-10T09:02:21.000Z</time>
      </trkpt>
      <trkpt lat="45.1596" lon="5.95851">
        <ele>2646.6000976562</ele>
        <time>2016-04-10T09:02:22.000Z</time>
      </trkpt>
      <trkpt lat="45.15967" lon="5.9585">
        <ele>2644.1999511719</ele>
        <time>2016-04-10T09:02:23.000Z</time>
      </trkpt>
      <trkpt lat="45.15974" lon="5.95849">
        <ele>2641.1999511719</ele>
        <time>2016-04-10T09:02:24.000Z</time>
      </trkpt>
      <trkpt lat="45.15979" lon="5.95851">
        <ele>2638</ele>
        <time>2016-04-10T09:02:25.000Z</time>
      </trkpt>
      <trkpt lat="45.15983" lon="5.95853">
        <ele>2635.3999023438</ele>
        <time>2016-04-10T09:02:26.000Z</time>
      </trkpt>
      <trkpt lat="45.15989" lon="5.95852">
        <ele>2633.1999511719</ele>
        <time>2016-04-10T09:02:27.000Z</time>
      </trkpt>
      <trkpt lat="45.15995" lon="5.95852">
        <ele>2631.1999511719</ele>
        <time>2016-04-10T09:02:28.000Z</time>
      </trkpt>
      <trkpt lat="45.16001" lon="5.95857">
        <ele>2628.8000488281</ele>
        <time>2016-04-10T09:02:29.000Z</time>
      </trkpt>
      <trkpt lat="45.16008" lon="5.9586">
        <ele>2626.1999511719</ele>
        <time>2016-04-10T09:02:30.000Z</time>
      </trkpt>
      <trkpt lat="45.16012" lon="5.95859">
        <ele>2624</ele>
        <time>2016-04-10T09:02:31.000Z</time>
      </trkpt>
      <trkpt lat="45.1602" lon="5.95859">
        <ele>2622</ele>
        <time>2016-04-10T09:02:32.000Z</time>
      </trkpt>
      <trkpt lat="45.16026" lon="5.95862">
        <ele>2619.6000976562</ele>
        <time>2016-04-10T09:02:33.000Z</time>
      </trkpt>
      <trkpt lat="45.16034" lon="5.95861">
        <ele>2617</ele>
        <time>2016-04-10T09:02:34.000Z</time>
      </trkpt>
      <trkpt lat="45.16037" lon="5.95857">
        <ele>2611.8000488281</ele>
        <time>2016-04-10T09:02:35.000Z</time>
      </trkpt>
      <trkpt lat="45.16044" lon="5.95853">
        <ele>2609.3999023438</ele>
        <time>2016-04-10T09:02:36.000Z</time>
      </trkpt>
      <trkpt lat="45.16052" lon="5.95849">
        <ele>2606.8000488281</ele>
        <time>2016-04-10T09:02:37.000Z</time>
      </trkpt>
      <trkpt lat="45.16058" lon="5.95845">
        <ele>2604.3999023438</ele>
        <time>2016-04-10T09:02:38.000Z</time>
      </trkpt>
      <trkpt lat="45.16062" lon="5.95842">
        <ele>2602.3999023438</ele>
        <time>2016-04-10T09:02:39.000Z</time>
      </trkpt>
      <trkpt lat="45.16066" lon="5.9584">
        <ele>2600.8000488281</ele>
        <time>2016-04-10T09:02:40.000Z</time>
      </trkpt>
      <trkpt lat="45.16069" lon="5.95839">
        <ele>2600</ele>
        <time>2016-04-10T09:02:41.000Z</time>
      </trkpt>
      <trkpt lat="45.16071" lon="5.95839">
        <ele>2599.1999511719</ele>
        <time>2016-04-10T09:02:42.000Z</time>
      </trkpt>
      <trkpt lat="45.16072" lon="5.9584">
        <ele>2598.1999511719</ele>
        <time>2016-04-10T09:02:44.000Z</time>
      </trkpt>
      <trkpt lat="45.16072" lon="5.95841">
        <ele>2598</ele>
        <time>2016-04-10T09:02:45.000Z</time>
      </trkpt>
      <trkpt lat="45.16074" lon="5.95842">
        <ele>2597.6000976562</ele>
        <time>2016-04-10T09:02:51.000Z</time>
      </trkpt>
      <trkpt lat="45.16072" lon="5.95846">
        <ele>2597.6000976562</ele>
        <time>2016-04-10T09:02:52.000Z</time>
      </trkpt>
      <trkpt lat="45.16068" lon="5.95856">
        <ele>2596.8000488281</ele>
        <time>2016-04-10T09:02:55.000Z</time>
      </trkpt>
      <trkpt lat="45.16066" lon="5.95857">
        <ele>2595</ele>
        <time>2016-04-10T09:02:57.000Z</time>
      </trkpt>
      <trkpt lat="45.16066" lon="5.95857">
        <ele>2593.3999023438</ele>
        <time>2016-04-10T09:02:59.000Z</time>
      </trkpt>
      <trkpt lat="45.16064" lon="5.95854">
        <ele>2593.1999511719</ele>
        <time>2016-04-10T09:03:05.000Z</time>
      </trkpt>
      <trkpt lat="45.16063" lon="5.95853">
        <ele>2593.1999511719</ele>
        <time>2016-04-10T09:03:06.000Z</time>
      </trkpt>
      <trkpt lat="45.1606" lon="5.95838">
        <ele>2592.3999023438</ele>
        <time>2016-04-10T09:03:11.000Z</time>
      </trkpt>
      <trkpt lat="45.1606" lon="5.95829">
        <ele>2591.1999511719</ele>
        <time>2016-04-10T09:03:15.000Z</time>
      </trkpt>
      <trkpt lat="45.16059" lon="5.95825">
        <ele>2590.8000488281</ele>
        <time>2016-04-10T09:03:17.000Z</time>
      </trkpt>
      <trkpt lat="45.16058" lon="5.95817">
        <ele>2590.1999511719</ele>
        <time>2016-04-10T09:03:20.000Z</time>
      </trkpt>
      <trkpt lat="45.16055" lon="5.95813">
        <ele>2589.6000976562</ele>
        <time>2016-04-10T09:03:23.000Z</time>
      </trkpt>
      <trkpt lat="45.1605" lon="5.95809">
        <ele>2589</ele>
        <time>2016-04-10T09:03:26.000Z</time>
      </trkpt>
      <trkpt lat="45.16045" lon="5.95805">
        <ele>2588.6000976562</ele>
        <time>2016-04-10T09:03:30.000Z</time>
      </trkpt>
      <trkpt lat="45.16041" lon="5.95799">
        <ele>2588.3999023438</ele>
        <time>2016-04-10T09:03:36.000Z</time>
      </trkpt>
      <trkpt lat="45.1604" lon="5.95792">
        <ele>2588</ele>
        <time>2016-04-10T09:03:42.000Z</time>
      </trkpt>
      <trkpt lat="45.1604" lon="5.95791">
        <ele>2587.8000488281</ele>
        <time>2016-04-10T09:03:43.000Z</time>
      </trkpt>
      <trkpt lat="45.16038" lon="5.95789">
        <ele>2588</ele>
        <time>2016-04-10T09:03:49.000Z</time>
      </trkpt>
      <trkpt lat="45.16034" lon="5.95781">
        <ele>2588.1999511719</ele>
        <time>2016-04-10T09:03:55.000Z</time>
      </trkpt>
      <trkpt lat="45.16028" lon="5.95775">
        <ele>2587.8000488281</ele>
        <time>2016-04-10T09:04:01.000Z</time>
      </trkpt>
      <trkpt lat="45.16025" lon="5.95766">
        <ele>2587.6000976562</ele>
        <time>2016-04-10T09:04:08.000Z</time>
      </trkpt>
      <trkpt lat="45.16025" lon="5.95764">
        <ele>2587.6000976562</ele>
        <time>2016-04-10T09:04:09.000Z</time>
      </trkpt>
      <trkpt lat="45.16021" lon="5.95758">
        <ele>2587.3999023438</ele>
        <time>2016-04-10T09:04:16.000Z</time>
      </trkpt>
      <trkpt lat="45.16019" lon="5.95747">
        <ele>2586.8000488281</ele>
        <time>2016-04-10T09:04:21.000Z</time>
      </trkpt>
      <trkpt lat="45.16018" lon="5.95746">
        <ele>2586.6000976562</ele>
        <time>2016-04-10T09:04:22.000Z</time>
      </trkpt>
      <trkpt lat="45.16018" lon="5.95728">
        <ele>2585.8000488281</ele>
        <time>2016-04-10T09:04:26.000Z</time>
      </trkpt>
      <trkpt lat="45.16018" lon="5.95713">
        <ele>2584.6000976562</ele>
        <time>2016-04-10T09:04:29.000Z</time>
      </trkpt>
      <trkpt lat="45.16018" lon="5.95704">
        <ele>2583</ele>
        <time>2016-04-10T09:04:31.000Z</time>
      </trkpt>
      <trkpt lat="45.16018" lon="5.95695">
        <ele>2581.6000976562</ele>
        <time>2016-04-10T09:04:33.000Z</time>
      </trkpt>
      <trkpt lat="45.16017" lon="5.95687">
        <ele>2580.3999023438</ele>
        <time>2016-04-10T09:04:35.000Z</time>
      </trkpt>
      <trkpt lat="45.16017" lon="5.95679">
        <ele>2579</ele>
        <time>2016-04-10T09:04:39.000Z</time>
      </trkpt>
      <trkpt lat="45.1602" lon="5.9567">
        <ele>2578.6000976562</ele>
        <time>2016-04-10T09:04:45.000Z</time>
      </trkpt>
      <trkpt lat="45.16021" lon="5.95668">
        <ele>2578.1999511719</ele>
        <time>2016-04-10T09:04:51.000Z</time>
      </trkpt>
      <trkpt lat="45.16022" lon="5.95664">
        <ele>2578</ele>
        <time>2016-04-10T09:04:59.000Z</time>
      </trkpt>
      <trkpt lat="45.16023" lon="5.9566">
        <ele>2578.1999511719</ele>
        <time>2016-04-10T09:05:05.000Z</time>
      </trkpt>
      <trkpt lat="45.16022" lon="5.95657">
        <ele>2578</ele>
        <time>2016-04-10T09:05:13.000Z</time>
      </trkpt>
      <trkpt lat="45.1602" lon="5.95656">
        <ele>2578.8000488281</ele>
        <time>2016-04-10T09:05:20.000Z</time>
      </trkpt>
      <trkpt lat="45.16023" lon="5.95649">
        <ele>2578.3999023438</ele>
        <time>2016-04-10T09:05:24.000Z</time>
      </trkpt>
      <trkpt lat="45.16028" lon="5.95636">
        <ele>2577</ele>
        <time>2016-04-10T09:05:28.000Z</time>
      </trkpt>
      <trkpt lat="45.16029" lon="5.95633">
        <ele>2575</ele>
        <time>2016-04-10T09:05:30.000Z</time>
      </trkpt>
      <trkpt lat="45.1603" lon="5.95632">
        <ele>2574</ele>
        <time>2016-04-10T09:05:31.000Z</time>
      </trkpt>
      <trkpt lat="45.16032" lon="5.95627">
        <ele>2572</ele>
        <time>2016-04-10T09:05:33.000Z</time>
      </trkpt>
      <trkpt lat="45.16033" lon="5.95621">
        <ele>2570.3999023438</ele>
        <time>2016-04-10T09:05:35.000Z</time>
      </trkpt>
      <trkpt lat="45.16033" lon="5.95618">
        <ele>2568.8000488281</ele>
        <time>2016-04-10T09:05:37.000Z</time>
      </trkpt>
      <trkpt lat="45.16034" lon="5.95608">
        <ele>2567.3999023438</ele>
        <time>2016-04-10T09:05:39.000Z</time>
      </trkpt>
      <trkpt lat="45.16036" lon="5.95598">
        <ele>2566.1999511719</ele>
        <time>2016-04-10T09:05:41.000Z</time>
      </trkpt>
      <trkpt lat="45.16037" lon="5.95594">
        <ele>2565</ele>
        <time>2016-04-10T09:05:43.000Z</time>
      </trkpt>
      <trkpt lat="45.16038" lon="5.95595">
        <ele>2563.8000488281</ele>
        <time>2016-04-10T09:05:45.000Z</time>
      </trkpt>
      <trkpt lat="45.16038" lon="5.95595">
        <ele>2562.3999023438</ele>
        <time>2016-04-10T09:05:47.000Z</time>
      </trkpt>
      <trkpt lat="45.16038" lon="5.95593">
        <ele>2562</ele>
        <time>2016-04-10T09:05:50.000Z</time>
      </trkpt>
      <trkpt lat="45.16042" lon="5.95594">
        <ele>2561.1999511719</ele>
        <time>2016-04-10T09:05:54.000Z</time>
      </trkpt>
      <trkpt lat="45.16044" lon="5.95599">
        <ele>2560.1999511719</ele>
        <time>2016-04-10T09:05:55.000Z</time>
      </trkpt>
      <trkpt lat="45.16045" lon="5.95604">
        <ele>2559</ele>
        <time>2016-04-10T09:05:56.000Z</time>
      </trkpt>
      <trkpt lat="45.16047" lon="5.95609">
        <ele>2558</ele>
        <time>2016-04-10T09:05:57.000Z</time>
      </trkpt>
      <trkpt lat="45.16048" lon="5.95614">
        <ele>2557</ele>
        <time>2016-04-10T09:05:58.000Z</time>
      </trkpt>
      <trkpt lat="45.16049" lon="5.95619">
        <ele>2556</ele>
        <time>2016-04-10T09:05:59.000Z</time>
      </trkpt>
      <trkpt lat="45.1605" lon="5.95624">
        <ele>2554.6000976562</ele>
        <time>2016-04-10T09:06:00.000Z</time>
      </trkpt>
      <trkpt lat="45.16051" lon="5.9563">
        <ele>2552.8000488281</ele>
        <time>2016-04-10T09:06:01.000Z</time>
      </trkpt>
      <trkpt lat="45.16051" lon="5.95634">
        <ele>2551.3999023438</ele>
        <time>2016-04-10T09:06:02.000Z</time>
      </trkpt>
      <trkpt lat="45.16052" lon="5.95638">
        <ele>2550</ele>
        <time>2016-04-10T09:06:03.000Z</time>
      </trkpt>
      <trkpt lat="45.16052" lon="5.95641">
        <ele>2548.6000976562</ele>
        <time>2016-04-10T09:06:04.000Z</time>
      </trkpt>
      <trkpt lat="45.16052" lon="5.95644">
        <ele>2547</ele>
        <time>2016-04-10T09:06:05.000Z</time>
      </trkpt>
      <trkpt lat="45.16053" lon="5.95647">
        <ele>2545.6000976562</ele>
        <time>2016-04-10T09:06:06.000Z</time>
      </trkpt>
      <trkpt lat="45.16055" lon="5.95649">
        <ele>2544.3999023438</ele>
        <time>2016-04-10T09:06:07.000Z</time>
      </trkpt>
      <trkpt lat="45.16058" lon="5.95652">
        <ele>2543.3999023438</ele>
        <time>2016-04-10T09:06:08.000Z</time>
      </trkpt>
      <trkpt lat="45.1606" lon="5.95656">
        <ele>2542.3999023438</ele>
        <time>2016-04-10T09:06:09.000Z</time>
      </trkpt>
      <trkpt lat="45.16065" lon="5.95659">
        <ele>2541.1999511719</ele>
        <time>2016-04-10T09:06:10.000Z</time>
      </trkpt>
      <trkpt lat="45.16068" lon="5.95664">
        <ele>2538</ele>
        <time>2016-04-10T09:06:11.000Z</time>
      </trkpt>
      <trkpt lat="45.16072" lon="5.95668">
        <ele>2536.1999511719</ele>
        <time>2016-04-10T09:06:12.000Z</time>
      </trkpt>
      <trkpt lat="45.16074" lon="5.95673">
        <ele>2534.1999511719</ele>
        <time>2016-04-10T09:06:13.000Z</time>
      </trkpt>
      <trkpt lat="45.16077" lon="5.95677">
        <ele>2532.3999023438</ele>
        <time>2016-04-10T09:06:14.000Z</time>
      </trkpt>
      <trkpt lat="45.16079" lon="5.95681">
        <ele>2530.3999023438</ele>
        <time>2016-04-10T09:06:15.000Z</time>
      </trkpt>
      <trkpt lat="45.16081" lon="5.95685">
        <ele>2528.6000976562</ele>
        <time>2016-04-10T09:06:16.000Z</time>
      </trkpt>
      <trkpt lat="45.16084" lon="5.95688">
        <ele>2527.3999023438</ele>
        <time>2016-04-10T09:06:17.000Z</time>
      </trkpt>
      <trkpt lat="45.16086" lon="5.9569">
        <ele>2526.1999511719</ele>
        <time>2016-04-10T09:06:18.000Z</time>
      </trkpt>
      <trkpt lat="45.16088" lon="5.95692">
        <ele>2525</ele>
        <time>2016-04-10T09:06:19.000Z</time>
      </trkpt>
      <trkpt lat="45.16093" lon="5.95696">
        <ele>2523.8000488281</ele>
        <time>2016-04-10T09:06:21.000Z</time>
      </trkpt>
      <trkpt lat="45.16089" lon="5.95702">
        <ele>2523.3999023438</ele>
        <time>2016-04-10T09:06:22.000Z</time>
      </trkpt>
      <trkpt lat="45.16091" lon="5.95698">
        <ele>2523.1999511719</ele>
        <time>2016-04-10T09:06:23.000Z</time>
      </trkpt>
      <trkpt lat="45.16095" lon="5.95696">
        <ele>2522.6000976562</ele>
        <time>2016-04-10T09:06:25.000Z</time>
      </trkpt>
      <trkpt lat="45.16094" lon="5.95697">
        <ele>2521.6000976562</ele>
        <time>2016-04-10T09:06:26.000Z</time>
      </trkpt>
      <trkpt lat="45.16093" lon="5.95699">
        <ele>2519.8000488281</ele>
        <time>2016-04-10T09:06:27.000Z</time>
      </trkpt>
      <trkpt lat="45.16094" lon="5.95699">
        <ele>2517.6000976562</ele>
        <time>2016-04-10T09:06:28.000Z</time>
      </trkpt>
      <trkpt lat="45.16097" lon="5.95698">
        <ele>2516.1999511719</ele>
        <time>2016-04-10T09:06:29.000Z</time>
      </trkpt>
      <trkpt lat="45.16101" lon="5.95699">
        <ele>2514.8000488281</ele>
        <time>2016-04-10T09:06:30.000Z</time>
      </trkpt>
      <trkpt lat="45.16106" lon="5.95703">
        <ele>2513</ele>
        <time>2016-04-10T09:06:31.000Z</time>
      </trkpt>
      <trkpt lat="45.16105" lon="5.95711">
        <ele>2510.3999023438</ele>
        <time>2016-04-10T09:06:32.000Z</time>
      </trkpt>
      <trkpt lat="45.16108" lon="5.95713">
        <ele>2508</ele>
        <time>2016-04-10T09:06:33.000Z</time>
      </trkpt>
      <trkpt lat="45.16109" lon="5.95712">
        <ele>2506</ele>
        <time>2016-04-10T09:06:34.000Z</time>
      </trkpt>
      <trkpt lat="45.16112" lon="5.95712">
        <ele>2504.8000488281</ele>
        <time>2016-04-10T09:06:35.000Z</time>
      </trkpt>
      <trkpt lat="45.16118" lon="5.95714">
        <ele>2502</ele>
        <time>2016-04-10T09:06:36.000Z</time>
      </trkpt>
      <trkpt lat="45.16122" lon="5.95718">
        <ele>2499.3999023438</ele>
        <time>2016-04-10T09:06:37.000Z</time>
      </trkpt>
      <trkpt lat="45.16126" lon="5.95722">
        <ele>2496.8000488281</ele>
        <time>2016-04-10T09:06:38.000Z</time>
      </trkpt>
      <trkpt lat="45.16129" lon="5.95725">
        <ele>2494.6000976562</ele>
        <time>2016-04-10T09:06:39.000Z</time>
      </trkpt>
      <trkpt lat="45.16132" lon="5.95728">
        <ele>2493</ele>
        <time>2016-04-10T09:06:40.000Z</time>
      </trkpt>
      <trkpt lat="45.16136" lon="5.95731">
        <ele>2492</ele>
        <time>2016-04-10T09:06:41.000Z</time>
      </trkpt>
      <trkpt lat="45.16139" lon="5.95733">
        <ele>2490.8000488281</ele>
        <time>2016-04-10T09:06:42.000Z</time>
      </trkpt>
      <trkpt lat="45.16142" lon="5.95735">
        <ele>2489.8000488281</ele>
        <time>2016-04-10T09:06:43.000Z</time>
      </trkpt>
      <trkpt lat="45.16141" lon="5.95736">
        <ele>2488.3999023438</ele>
        <time>2016-04-10T09:06:45.000Z</time>
      </trkpt>
      <trkpt lat="45.16141" lon="5.95736">
        <ele>2488.1999511719</ele>
        <time>2016-04-10T09:06:46.000Z</time>
      </trkpt>
      <trkpt lat="45.16141" lon="5.95736">
        <ele>2488</ele>
        <time>2016-04-10T09:06:51.000Z</time>
      </trkpt>
      <trkpt lat="45.16139" lon="5.95729">
        <ele>2488</ele>
        <time>2016-04-10T09:06:53.000Z</time>
      </trkpt>
      <trkpt lat="45.16143" lon="5.95715">
        <ele>2487.1999511719</ele>
        <time>2016-04-10T09:06:56.000Z</time>
      </trkpt>
      <trkpt lat="45.16144" lon="5.95704">
        <ele>2485.6000976562</ele>
        <time>2016-04-10T09:06:58.000Z</time>
      </trkpt>
      <trkpt lat="45.16144" lon="5.95701">
        <ele>2485</ele>
        <time>2016-04-10T09:06:59.000Z</time>
      </trkpt>
      <trkpt lat="45.16146" lon="5.95699">
        <ele>2482.8000488281</ele>
        <time>2016-04-10T09:07:00.000Z</time>
      </trkpt>
      <trkpt lat="45.16147" lon="5.95694">
        <ele>2481</ele>
        <time>2016-04-10T09:07:01.000Z</time>
      </trkpt>
      <trkpt lat="45.16149" lon="5.95686">
        <ele>2479.1999511719</ele>
        <time>2016-04-10T09:07:02.000Z</time>
      </trkpt>
      <trkpt lat="45.1615" lon="5.95678">
        <ele>2478</ele>
        <time>2016-04-10T09:07:03.000Z</time>
      </trkpt>
      <trkpt lat="45.16151" lon="5.95672">
        <ele>2476.6000976562</ele>
        <time>2016-04-10T09:07:04.000Z</time>
      </trkpt>
      <trkpt lat="45.16152" lon="5.95667">
        <ele>2474.8000488281</ele>
        <time>2016-04-10T09:07:05.000Z</time>
      </trkpt>
      <trkpt lat="45.16152" lon="5.95664">
        <ele>2472.6000976562</ele>
        <time>2016-04-10T09:07:06.000Z</time>
      </trkpt>
      <trkpt lat="45.16153" lon="5.95662">
        <ele>2470.1999511719</ele>
        <time>2016-04-10T09:07:07.000Z</time>
      </trkpt>
      <trkpt lat="45.16155" lon="5.9566">
        <ele>2468.3999023438</ele>
        <time>2016-04-10T09:07:08.000Z</time>
      </trkpt>
      <trkpt lat="45.16157" lon="5.95657">
        <ele>2467</ele>
        <time>2016-04-10T09:07:09.000Z</time>
      </trkpt>
      <trkpt lat="45.16158" lon="5.95654">
        <ele>2465.6000976562</ele>
        <time>2016-04-10T09:07:10.000Z</time>
      </trkpt>
      <trkpt lat="45.1616" lon="5.95653">
        <ele>2463.8000488281</ele>
        <time>2016-04-10T09:07:11.000Z</time>
      </trkpt>
      <trkpt lat="45.16163" lon="5.95651">
        <ele>2461.8000488281</ele>
        <time>2016-04-10T09:07:12.000Z</time>
      </trkpt>
      <trkpt lat="45.16166" lon="5.95649">
        <ele>2459.6000976562</ele>
        <time>2016-04-10T09:07:13.000Z</time>
      </trkpt>
      <trkpt lat="45.16168" lon="5.95647">
        <ele>2457.8000488281</ele>
        <time>2016-04-10T09:07:14.000Z</time>
      </trkpt>
      <trkpt lat="45.1617" lon="5.95644">
        <ele>2456</ele>
        <time>2016-04-10T09:07:15.000Z</time>
      </trkpt>
      <trkpt lat="45.16175" lon="5.95643">
        <ele>2454</ele>
        <time>2016-04-10T09:07:16.000Z</time>
      </trkpt>
      <trkpt lat="45.16179" lon="5.9564">
        <ele>2452</ele>
        <time>2016-04-10T09:07:17.000Z</time>
      </trkpt>
      <trkpt lat="45.16183" lon="5.95637">
        <ele>2450</ele>
        <time>2016-04-10T09:07:18.000Z</time>
      </trkpt>
      <trkpt lat="45.16185" lon="5.95636">
        <ele>2448.1999511719</ele>
        <time>2016-04-10T09:07:19.000Z</time>
      </trkpt>
      <trkpt lat="45.16186" lon="5.95636">
        <ele>2446.1999511719</ele>
        <time>2016-04-10T09:07:20.000Z</time>
      </trkpt>
      <trkpt lat="45.16192" lon="5.95638">
        <ele>2444</ele>
        <time>2016-04-10T09:07:21.000Z</time>
      </trkpt>
      <trkpt lat="45.162" lon="5.95641">
        <ele>2441.8000488281</ele>
        <time>2016-04-10T09:07:22.000Z</time>
      </trkpt>
      <trkpt lat="45.16205" lon="5.95641">
        <ele>2439.8000488281</ele>
        <time>2016-04-10T09:07:23.000Z</time>
      </trkpt>
      <trkpt lat="45.16208" lon="5.9564">
        <ele>2437.8000488281</ele>
        <time>2016-04-10T09:07:24.000Z</time>
      </trkpt>
      <trkpt lat="45.16205" lon="5.95642">
        <ele>2437.6000976562</ele>
        <time>2016-04-10T09:07:25.000Z</time>
      </trkpt>
      <trkpt lat="45.16203" lon="5.95643">
        <ele>2437.8000488281</ele>
        <time>2016-04-10T09:07:32.000Z</time>
      </trkpt>
      <trkpt lat="45.16203" lon="5.95643">
        <ele>2437.8000488281</ele>
        <time>2016-04-10T09:07:44.000Z</time>
      </trkpt>
      <trkpt lat="45.16203" lon="5.95643">
        <ele>2437.8000488281</ele>
        <time>2016-04-10T09:07:57.000Z</time>
      </trkpt>
      <trkpt lat="45.16197" lon="5.95646">
        <ele>2437.3999023438</ele>
        <time>2016-04-10T09:08:13.000Z</time>
      </trkpt>
      <trkpt lat="45.16197" lon="5.95653">
        <ele>2437.3999023438</ele>
        <time>2016-04-10T09:08:18.000Z</time>
      </trkpt>
      <trkpt lat="45.16194" lon="5.95664">
        <ele>2437.3999023438</ele>
        <time>2016-04-10T09:08:19.000Z</time>
      </trkpt>
      <trkpt lat="45.16189" lon="5.95671">
        <ele>2437.1999511719</ele>
        <time>2016-04-10T09:08:20.000Z</time>
      </trkpt>
      <trkpt lat="45.16187" lon="5.95682">
        <ele>2437</ele>
        <time>2016-04-10T09:08:21.000Z</time>
      </trkpt>
      <trkpt lat="45.16187" lon="5.95692">
        <ele>2436.6000976562</ele>
        <time>2016-04-10T09:08:22.000Z</time>
      </trkpt>
      <trkpt lat="45.16187" lon="5.95711">
        <ele>2435.1999511719</ele>
        <time>2016-04-10T09:08:24.000Z</time>
      </trkpt>
      <trkpt lat="45.16188" lon="5.95721">
        <ele>2434.1999511719</ele>
        <time>2016-04-10T09:08:25.000Z</time>
      </trkpt>
      <trkpt lat="45.16188" lon="5.9573">
        <ele>2432.8000488281</ele>
        <time>2016-04-10T09:08:26.000Z</time>
      </trkpt>
      <trkpt lat="45.16188" lon="5.95737">
        <ele>2431.3999023438</ele>
        <time>2016-04-10T09:08:27.000Z</time>
      </trkpt>
      <trkpt lat="45.16186" lon="5.95744">
        <ele>2430</ele>
        <time>2016-04-10T09:08:28.000Z</time>
      </trkpt>
      <trkpt lat="45.16184" lon="5.9575">
        <ele>2428.8000488281</ele>
        <time>2016-04-10T09:08:29.000Z</time>
      </trkpt>
      <trkpt lat="45.16184" lon="5.95757">
        <ele>2427.6000976562</ele>
        <time>2016-04-10T09:08:30.000Z</time>
      </trkpt>
      <trkpt lat="45.16184" lon="5.95765">
        <ele>2426.3999023438</ele>
        <time>2016-04-10T09:08:31.000Z</time>
      </trkpt>
      <trkpt lat="45.16183" lon="5.95772">
        <ele>2425</ele>
        <time>2016-04-10T09:08:32.000Z</time>
      </trkpt>
      <trkpt lat="45.16182" lon="5.95779">
        <ele>2423.1999511719</ele>
        <time>2016-04-10T09:08:33.000Z</time>
      </trkpt>
      <trkpt lat="45.16181" lon="5.95786">
        <ele>2421.1999511719</ele>
        <time>2016-04-10T09:08:34.000Z</time>
      </trkpt>
      <trkpt lat="45.16182" lon="5.95792">
        <ele>2419.6000976562</ele>
        <time>2016-04-10T09:08:35.000Z</time>
      </trkpt>
      <trkpt lat="45.16183" lon="5.95798">
        <ele>2416.8000488281</ele>
        <time>2016-04-10T09:08:36.000Z</time>
      </trkpt>
      <trkpt lat="45.16185" lon="5.95804">
        <ele>2414.8000488281</ele>
        <time>2016-04-10T09:08:37.000Z</time>
      </trkpt>
      <trkpt lat="45.16186" lon="5.9581">
        <ele>2412.6000976562</ele>
        <time>2016-04-10T09:08:38.000Z</time>
      </trkpt>
      <trkpt lat="45.16192" lon="5.95812">
        <ele>2411.1999511719</ele>
        <time>2016-04-10T09:08:39.000Z</time>
      </trkpt>
      <trkpt lat="45.16199" lon="5.9581">
        <ele>2410</ele>
        <time>2016-04-10T09:08:40.000Z</time>
      </trkpt>
      <trkpt lat="45.16205" lon="5.95808">
        <ele>2408.3999023438</ele>
        <time>2016-04-10T09:08:41.000Z</time>
      </trkpt>
      <trkpt lat="45.16212" lon="5.95806">
        <ele>2405.6000976562</ele>
        <time>2016-04-10T09:08:42.000Z</time>
      </trkpt>
      <trkpt lat="45.16214" lon="5.95798">
        <ele>2402</ele>
        <time>2016-04-10T09:08:43.000Z</time>
      </trkpt>
      <trkpt lat="45.16214" lon="5.95792">
        <ele>2399.1999511719</ele>
        <time>2016-04-10T09:08:44.000Z</time>
      </trkpt>
      <trkpt lat="45.16216" lon="5.9579">
        <ele>2397.6000976562</ele>
        <time>2016-04-10T09:08:45.000Z</time>
      </trkpt>
      <trkpt lat="45.16218" lon="5.9579">
        <ele>2396.8000488281</ele>
        <time>2016-04-10T09:08:46.000Z</time>
      </trkpt>
      <trkpt lat="45.16222" lon="5.95792">
        <ele>2396.1999511719</ele>
        <time>2016-04-10T09:08:47.000Z</time>
      </trkpt>
      <trkpt lat="45.16232" lon="5.958">
        <ele>2395.8000488281</ele>
        <time>2016-04-10T09:08:49.000Z</time>
      </trkpt>
      <trkpt lat="45.16237" lon="5.95806">
        <ele>2395.6000976562</ele>
        <time>2016-04-10T09:08:50.000Z</time>
      </trkpt>
      <trkpt lat="45.16242" lon="5.95812">
        <ele>2394.6000976562</ele>
        <time>2016-04-10T09:08:51.000Z</time>
      </trkpt>
      <trkpt lat="45.16247" lon="5.95818">
        <ele>2393</ele>
        <time>2016-04-10T09:08:52.000Z</time>
      </trkpt>
      <trkpt lat="45.16251" lon="5.95824">
        <ele>2390.8000488281</ele>
        <time>2016-04-10T09:08:53.000Z</time>
      </trkpt>
      <trkpt lat="45.16257" lon="5.95827">
        <ele>2388.8000488281</ele>
        <time>2016-04-10T09:08:54.000Z</time>
      </trkpt>
      <trkpt lat="45.16263" lon="5.95829">
        <ele>2386.6000976562</ele>
        <time>2016-04-10T09:08:55.000Z</time>
      </trkpt>
      <trkpt lat="45.16267" lon="5.95832">
        <ele>2385.1999511719</ele>
        <time>2016-04-10T09:08:56.000Z</time>
      </trkpt>
      <trkpt lat="45.16271" lon="5.95834">
        <ele>2384.3999023438</ele>
        <time>2016-04-10T09:08:57.000Z</time>
      </trkpt>
      <trkpt lat="45.16274" lon="5.95836">
        <ele>2384</ele>
        <time>2016-04-10T09:08:58.000Z</time>
      </trkpt>
      <trkpt lat="45.16277" lon="5.95838">
        <ele>2385.6000976562</ele>
        <time>2016-04-10T09:09:00.000Z</time>
      </trkpt>
      <trkpt lat="45.16279" lon="5.95839">
        <ele>2386.6000976562</ele>
        <time>2016-04-10T09:09:01.000Z</time>
      </trkpt>
      <trkpt lat="45.1628" lon="5.9584">
        <ele>2387</ele>
        <time>2016-04-10T09:09:02.000Z</time>
      </trkpt>
      <trkpt lat="45.16289" lon="5.95842">
        <ele>2387.3999023438</ele>
        <time>2016-04-10T09:09:07.000Z</time>
      </trkpt>
      <trkpt lat="45.16294" lon="5.95844">
        <ele>2386</ele>
        <time>2016-04-10T09:09:09.000Z</time>
      </trkpt>
      <trkpt lat="45.16298" lon="5.95846">
        <ele>2384.8000488281</ele>
        <time>2016-04-10T09:09:10.000Z</time>
      </trkpt>
      <trkpt lat="45.16303" lon="5.95846">
        <ele>2383.8000488281</ele>
        <time>2016-04-10T09:09:11.000Z</time>
      </trkpt>
      <trkpt lat="45.1631" lon="5.95844">
        <ele>2382.6000976562</ele>
        <time>2016-04-10T09:09:12.000Z</time>
      </trkpt>
      <trkpt lat="45.16316" lon="5.95837">
        <ele>2381</ele>
        <time>2016-04-10T09:09:13.000Z</time>
      </trkpt>
      <trkpt lat="45.16323" lon="5.95831">
        <ele>2379</ele>
        <time>2016-04-10T09:09:14.000Z</time>
      </trkpt>
      <trkpt lat="45.16328" lon="5.95825">
        <ele>2376.8000488281</ele>
        <time>2016-04-10T09:09:15.000Z</time>
      </trkpt>
      <trkpt lat="45.16333" lon="5.95821">
        <ele>2375</ele>
        <time>2016-04-10T09:09:16.000Z</time>
      </trkpt>
      <trkpt lat="45.16338" lon="5.95818">
        <ele>2373.6000976562</ele>
        <time>2016-04-10T09:09:17.000Z</time>
      </trkpt>
      <trkpt lat="45.16347" lon="5.9581">
        <ele>2372.6000976562</ele>
        <time>2016-04-10T09:09:19.000Z</time>
      </trkpt>
      <trkpt lat="45.16359" lon="5.95798">
        <ele>2372.3999023438</ele>
        <time>2016-04-10T09:09:22.000Z</time>
      </trkpt>
      <trkpt lat="45.16378" lon="5.95775">
        <ele>2371.3999023438</ele>
        <time>2016-04-10T09:09:28.000Z</time>
      </trkpt>
      <trkpt lat="45.1639" lon="5.95762">
        <ele>2370.3999023438</ele>
        <time>2016-04-10T09:09:31.000Z</time>
      </trkpt>
      <trkpt lat="45.16394" lon="5.95758">
        <ele>2370.1999511719</ele>
        <time>2016-04-10T09:09:32.000Z</time>
      </trkpt>
      <trkpt lat="45.16404" lon="5.95749">
        <ele>2369.1999511719</ele>
        <time>2016-04-10T09:09:34.000Z</time>
      </trkpt>
      <trkpt lat="45.16418" lon="5.95737">
        <ele>2367.8000488281</ele>
        <time>2016-04-10T09:09:37.000Z</time>
      </trkpt>
      <trkpt lat="45.16426" lon="5.95726">
        <ele>2366.1999511719</ele>
        <time>2016-04-10T09:09:39.000Z</time>
      </trkpt>
      <trkpt lat="45.1643" lon="5.95719">
        <ele>2365.8000488281</ele>
        <time>2016-04-10T09:09:40.000Z</time>
      </trkpt>
      <trkpt lat="45.16436" lon="5.95705">
        <ele>2365.1999511719</ele>
        <time>2016-04-10T09:09:42.000Z</time>
      </trkpt>
      <trkpt lat="45.16441" lon="5.95692">
        <ele>2364.6000976562</ele>
        <time>2016-04-10T09:09:44.000Z</time>
      </trkpt>
      <trkpt lat="45.16443" lon="5.95687">
        <ele>2363.8000488281</ele>
        <time>2016-04-10T09:09:45.000Z</time>
      </trkpt>
      <trkpt lat="45.16447" lon="5.95675">
        <ele>2362.8000488281</ele>
        <time>2016-04-10T09:09:47.000Z</time>
      </trkpt>
      <trkpt lat="45.16453" lon="5.95656">
        <ele>2362.3999023438</ele>
        <time>2016-04-10T09:09:50.000Z</time>
      </trkpt>
      <trkpt lat="45.16454" lon="5.95645">
        <ele>2362.1999511719</ele>
        <time>2016-04-10T09:09:52.000Z</time>
      </trkpt>
      <trkpt lat="45.16454" lon="5.95636">
        <ele>2362</ele>
        <time>2016-04-10T09:09:54.000Z</time>
      </trkpt>
      <trkpt lat="45.16454" lon="5.95632">
        <ele>2361.8000488281</ele>
        <time>2016-04-10T09:09:55.000Z</time>
      </trkpt>
      <trkpt lat="45.16452" lon="5.9562">
        <ele>2361.3999023438</ele>
        <time>2016-04-10T09:09:58.000Z</time>
      </trkpt>
      <trkpt lat="45.16448" lon="5.95588">
        <ele>2361.6000976562</ele>
        <time>2016-04-10T09:10:06.000Z</time>
      </trkpt>
      <trkpt lat="45.16446" lon="5.95559">
        <ele>2361.1999511719</ele>
        <time>2016-04-10T09:10:14.000Z</time>
      </trkpt>
      <trkpt lat="45.16446" lon="5.95535">
        <ele>2361</ele>
        <time>2016-04-10T09:10:21.000Z</time>
      </trkpt>
      <trkpt lat="45.16448" lon="5.9551">
        <ele>2360.8000488281</ele>
        <time>2016-04-10T09:10:29.000Z</time>
      </trkpt>
      <trkpt lat="45.1645" lon="5.95504">
        <ele>2360.6000976562</ele>
        <time>2016-04-10T09:10:31.000Z</time>
      </trkpt>
      <trkpt lat="45.16456" lon="5.9549">
        <ele>2360.1999511719</ele>
        <time>2016-04-10T09:10:36.000Z</time>
      </trkpt>
      <trkpt lat="45.16466" lon="5.95469">
        <ele>2359.8000488281</ele>
        <time>2016-04-10T09:10:44.000Z</time>
      </trkpt>
      <trkpt lat="45.16476" lon="5.95453">
        <ele>2360.3999023438</ele>
        <time>2016-04-10T09:10:51.000Z</time>
      </trkpt>
      <trkpt lat="45.16485" lon="5.95445">
        <ele>2360.6000976562</ele>
        <time>2016-04-10T09:10:57.000Z</time>
      </trkpt>
      <trkpt lat="45.1649" lon="5.95441">
        <ele>2361.1999511719</ele>
        <time>2016-04-10T09:11:03.000Z</time>
      </trkpt>
      <trkpt lat="45.16492" lon="5.95438">
        <ele>2361.3999023438</ele>
        <time>2016-04-10T09:11:08.000Z</time>
      </trkpt>
      <trkpt lat="45.16498" lon="5.95437">
        <ele>2361.6000976562</ele>
        <time>2016-04-10T09:11:13.000Z</time>
      </trkpt>
      <trkpt lat="45.16498" lon="5.95437">
        <ele>2361.8000488281</ele>
        <time>2016-04-10T09:11:14.000Z</time>
      </trkpt>
      <trkpt lat="45.16499" lon="5.95437">
        <ele>2362.8000488281</ele>
        <time>2016-04-10T09:11:21.000Z</time>
      </trkpt>
      <trkpt lat="45.16499" lon="5.95437">
        <ele>2362.8000488281</ele>
        <time>2016-04-10T09:11:34.000Z</time>
      </trkpt>
      <trkpt lat="45.16499" lon="5.95437">
        <ele>2362.8000488281</ele>
        <time>2016-04-10T09:11:47.000Z</time>
      </trkpt>
      <trkpt lat="45.16499" lon="5.95437">
        <ele>2363</ele>
        <time>2016-04-10T09:12:03.000Z</time>
      </trkpt>
      <trkpt lat="45.16499" lon="5.95437">
        <ele>2362</ele>
        <time>2016-04-10T09:12:14.000Z</time>
      </trkpt>
      <trkpt lat="45.16499" lon="5.95437">
        <ele>2362</ele>
        <time>2016-04-10T09:12:27.000Z</time>
      </trkpt>
      <trkpt lat="45.16499" lon="5.95437">
        <ele>2362.6000976562</ele>
        <time>2016-04-10T09:12:36.000Z</time>
      </trkpt>
      <trkpt lat="45.16499" lon="5.95437">
        <ele>2362.8000488281</ele>
        <time>2016-04-10T09:12:56.000Z</time>
      </trkpt>
      <trkpt lat="45.16499" lon="5.95437">
        <ele>2362.6000976562</ele>
        <time>2016-04-10T09:13:08.000Z</time>
      </trkpt>
      <trkpt lat="45.16499" lon="5.95437">
        <ele>2362</ele>
        <time>2016-04-10T09:13:24.000Z</time>
      </trkpt>
      <trkpt lat="45.16499" lon="5.95437">
        <ele>2362.6000976562</ele>
        <time>2016-04-10T09:13:41.000Z</time>
      </trkpt>
      <trkpt lat="45.16499" lon="5.95437">
        <ele>2362.3999023438</ele>
        <time>2016-04-10T09:13:55.000Z</time>
      </trkpt>
      <trkpt lat="45.16499" lon="5.95437">
        <ele>2362</ele>
        <time>2016-04-10T09:14:09.000Z</time>
      </trkpt>
      <trkpt lat="45.16499" lon="5.95437">
        <ele>2361.8000488281</ele>
        <time>2016-04-10T09:14:10.000Z</time>
      </trkpt>
      <trkpt lat="45.16499" lon="5.95437">
        <ele>2362.1999511719</ele>
        <time>2016-04-10T09:14:21.000Z</time>
      </trkpt>
      <trkpt lat="45.16499" lon="5.95437">
        <ele>2362.1999511719</ele>
        <time>2016-04-10T09:14:35.000Z</time>
      </trkpt>
      <trkpt lat="45.16499" lon="5.95437">
        <ele>2362</ele>
        <time>2016-04-10T09:14:49.000Z</time>
      </trkpt>
      <trkpt lat="45.16499" lon="5.95437">
        <ele>2362.8000488281</ele>
        <time>2016-04-10T09:14:58.000Z</time>
      </trkpt>
      <trkpt lat="45.16499" lon="5.95437">
        <ele>2362.8000488281</ele>
        <time>2016-04-10T09:15:02.000Z</time>
      </trkpt>
      <trkpt lat="45.16499" lon="5.95437">
        <ele>2362.1999511719</ele>
        <time>2016-04-10T09:15:10.000Z</time>
      </trkpt>
      <trkpt lat="45.16499" lon="5.95437">
        <ele>2362.3999023438</ele>
        <time>2016-04-10T09:15:23.000Z</time>
      </trkpt>
      <trkpt lat="45.16499" lon="5.95437">
        <ele>2362.3999023438</ele>
        <time>2016-04-10T09:15:33.000Z</time>
      </trkpt>
      <trkpt lat="45.16499" lon="5.95437">
        <ele>2362.8000488281</ele>
        <time>2016-04-10T09:15:45.000Z</time>
      </trkpt>
      <trkpt lat="45.16499" lon="5.95437">
        <ele>2363.3999023438</ele>
        <time>2016-04-10T09:15:59.000Z</time>
      </trkpt>
      <trkpt lat="45.16499" lon="5.95437">
        <ele>2361.6000976562</ele>
        <time>2016-04-10T09:16:05.000Z</time>
      </trkpt>
      <trkpt lat="45.16499" lon="5.95437">
        <ele>2362.1999511719</ele>
        <time>2016-04-10T09:16:10.000Z</time>
      </trkpt>
      <trkpt lat="45.16499" lon="5.95437">
        <ele>2362.6000976562</ele>
        <time>2016-04-10T09:16:20.000Z</time>
      </trkpt>
      <trkpt lat="45.16499" lon="5.95434">
        <ele>2362.3999023438</ele>
        <time>2016-04-10T09:16:34.000Z</time>
      </trkpt>
      <trkpt lat="45.16499" lon="5.95434">
        <ele>2362.1999511719</ele>
        <time>2016-04-10T09:16:50.000Z</time>
      </trkpt>
      <trkpt lat="45.16499" lon="5.95432">
        <ele>2362.3999023438</ele>
        <time>2016-04-10T09:17:00.000Z</time>
      </trkpt>
      <trkpt lat="45.16499" lon="5.95432">
        <ele>2362.8000488281</ele>
        <time>2016-04-10T09:17:05.000Z</time>
      </trkpt>
      <trkpt lat="45.16499" lon="5.95432">
        <ele>2363.8000488281</ele>
        <time>2016-04-10T09:17:09.000Z</time>
      </trkpt>
      <trkpt lat="45.16499" lon="5.95432">
        <ele>2363.3999023438</ele>
        <time>2016-04-10T09:17:11.000Z</time>
      </trkpt>
      <trkpt lat="45.16499" lon="5.95432">
        <ele>2362.8000488281</ele>
        <time>2016-04-10T09:17:17.000Z</time>
      </trkpt>
      <trkpt lat="45.16499" lon="5.95432">
        <ele>2362.8000488281</ele>
        <time>2016-04-10T09:17:24.000Z</time>
      </trkpt>
      <trkpt lat="45.16496" lon="5.95434">
        <ele>2362.8000488281</ele>
        <time>2016-04-10T09:17:36.000Z</time>
      </trkpt>
      <trkpt lat="45.16496" lon="5.95434">
        <ele>2362.6000976562</ele>
        <time>2016-04-10T09:17:50.000Z</time>
      </trkpt>
      <trkpt lat="45.16496" lon="5.95434">
        <ele>2363</ele>
        <time>2016-04-10T09:18:05.000Z</time>
      </trkpt>
      <trkpt lat="45.165" lon="5.95437">
        <ele>2363.1999511719</ele>
        <time>2016-04-10T09:18:11.000Z</time>
      </trkpt>
      <trkpt lat="45.16503" lon="5.95438">
        <ele>2363.8000488281</ele>
        <time>2016-04-10T09:18:13.000Z</time>
      </trkpt>
      <trkpt lat="45.16508" lon="5.9544">
        <ele>2363.6000976562</ele>
        <time>2016-04-10T09:18:18.000Z</time>
      </trkpt>
      <trkpt lat="45.16513" lon="5.95444">
        <ele>2364.6000976562</ele>
        <time>2016-04-10T09:18:26.000Z</time>
      </trkpt>
      <trkpt lat="45.16514" lon="5.95444">
        <ele>2365</ele>
        <time>2016-04-10T09:18:27.000Z</time>
      </trkpt>
      <trkpt lat="45.16517" lon="5.95444">
        <ele>2366.1999511719</ele>
        <time>2016-04-10T09:18:32.000Z</time>
      </trkpt>
      <trkpt lat="45.16517" lon="5.95443">
        <ele>2366.6000976562</ele>
        <time>2016-04-10T09:18:33.000Z</time>
      </trkpt>
      <trkpt lat="45.16521" lon="5.95443">
        <ele>2367.1999511719</ele>
        <time>2016-04-10T09:18:37.000Z</time>
      </trkpt>
      <trkpt lat="45.16522" lon="5.95442">
        <ele>2367.3999023438</ele>
        <time>2016-04-10T09:18:39.000Z</time>
      </trkpt>
      <trkpt lat="45.16524" lon="5.95442">
        <ele>2367.1999511719</ele>
        <time>2016-04-10T09:18:45.000Z</time>
      </trkpt>
      <trkpt lat="45.16524" lon="5.95442">
        <ele>2367.1999511719</ele>
        <time>2016-04-10T09:18:55.000Z</time>
      </trkpt>
      <trkpt lat="45.16524" lon="5.95442">
        <ele>2367.3999023438</ele>
        <time>2016-04-10T09:19:05.000Z</time>
      </trkpt>
      <trkpt lat="45.16527" lon="5.95441">
        <ele>2368.1999511719</ele>
        <time>2016-04-10T09:19:12.000Z</time>
      </trkpt>
      <trkpt lat="45.16527" lon="5.9544">
        <ele>2368.3999023438</ele>
        <time>2016-04-10T09:19:13.000Z</time>
      </trkpt>
      <trkpt lat="45.16527" lon="5.9544">
        <ele>2368.8000488281</ele>
        <time>2016-04-10T09:19:18.000Z</time>
      </trkpt>
      <trkpt lat="45.16531" lon="5.95441">
        <ele>2369.6000976562</ele>
        <time>2016-04-10T09:19:25.000Z</time>
      </trkpt>
      <trkpt lat="45.16531" lon="5.95441">
        <ele>2369.6000976562</ele>
        <time>2016-04-10T09:19:27.000Z</time>
      </trkpt>
      <trkpt lat="45.16534" lon="5.95441">
        <ele>2369.8000488281</ele>
        <time>2016-04-10T09:19:33.000Z</time>
      </trkpt>
      <trkpt lat="45.16538" lon="5.95442">
        <ele>2370.6000976562</ele>
        <time>2016-04-10T09:19:38.000Z</time>
      </trkpt>
      <trkpt lat="45.16539" lon="5.95443">
        <ele>2371</ele>
        <time>2016-04-10T09:19:40.000Z</time>
      </trkpt>
      <trkpt lat="45.16541" lon="5.95443">
        <ele>2371.6000976562</ele>
        <time>2016-04-10T09:19:48.000Z</time>
      </trkpt>
      <trkpt lat="45.16541" lon="5.95443">
        <ele>2371.8000488281</ele>
        <time>2016-04-10T09:19:50.000Z</time>
      </trkpt>
      <trkpt lat="45.16541" lon="5.95444">
        <ele>2371.8000488281</ele>
        <time>2016-04-10T09:19:56.000Z</time>
      </trkpt>
      <trkpt lat="45.16545" lon="5.95446">
        <ele>2372.1999511719</ele>
        <time>2016-04-10T09:20:03.000Z</time>
      </trkpt>
      <trkpt lat="45.16549" lon="5.95447">
        <ele>2372.6000976562</ele>
        <time>2016-04-10T09:20:08.000Z</time>
      </trkpt>
      <trkpt lat="45.1655" lon="5.95447">
        <ele>2372.8000488281</ele>
        <time>2016-04-10T09:20:09.000Z</time>
      </trkpt>
      <trkpt lat="45.16553" lon="5.95446">
        <ele>2373.8000488281</ele>
        <time>2016-04-10T09:20:14.000Z</time>
      </trkpt>
      <trkpt lat="45.16553" lon="5.95446">
        <ele>2374</ele>
        <time>2016-04-10T09:20:15.000Z</time>
      </trkpt>
      <trkpt lat="45.16556" lon="5.95446">
        <ele>2374.8000488281</ele>
        <time>2016-04-10T09:20:20.000Z</time>
      </trkpt>
      <trkpt lat="45.16559" lon="5.95446">
        <ele>2375.8000488281</ele>
        <time>2016-04-10T09:20:25.000Z</time>
      </trkpt>
      <trkpt lat="45.16559" lon="5.95446">
        <ele>2376</ele>
        <time>2016-04-10T09:20:26.000Z</time>
      </trkpt>
      <trkpt lat="45.1656" lon="5.95448">
        <ele>2376.3999023438</ele>
        <time>2016-04-10T09:20:30.000Z</time>
      </trkpt>
      <trkpt lat="45.1656" lon="5.95448">
        <ele>2377</ele>
        <time>2016-04-10T09:20:32.000Z</time>
      </trkpt>
      <trkpt lat="45.1656" lon="5.95448">
        <ele>2378.1999511719</ele>
        <time>2016-04-10T09:20:37.000Z</time>
      </trkpt>
      <trkpt lat="45.16562" lon="5.95448">
        <ele>2378.1999511719</ele>
        <time>2016-04-10T09:20:40.000Z</time>
      </trkpt>
      <trkpt lat="45.16563" lon="5.95449">
        <ele>2378.3999023438</ele>
        <time>2016-04-10T09:20:44.000Z</time>
      </trkpt>
      <trkpt lat="45.16566" lon="5.95449">
        <ele>2379.3999023438</ele>
        <time>2016-04-10T09:20:49.000Z</time>
      </trkpt>
      <trkpt lat="45.16566" lon="5.95449">
        <ele>2379.6000976562</ele>
        <time>2016-04-10T09:20:50.000Z</time>
      </trkpt>
      <trkpt lat="45.16566" lon="5.95449">
        <ele>2380.6000976562</ele>
        <time>2016-04-10T09:20:53.000Z</time>
      </trkpt>
      <trkpt lat="45.16566" lon="5.95449">
        <ele>2381.3999023438</ele>
        <time>2016-04-10T09:20:56.000Z</time>
      </trkpt>
      <trkpt lat="45.16566" lon="5.95452">
        <ele>2381</ele>
        <time>2016-04-10T09:21:01.000Z</time>
      </trkpt>
      <trkpt lat="45.16566" lon="5.95454">
        <ele>2381.6000976562</ele>
        <time>2016-04-10T09:21:06.000Z</time>
      </trkpt>
      <trkpt lat="45.16566" lon="5.95458">
        <ele>2382.8000488281</ele>
        <time>2016-04-10T09:21:11.000Z</time>
      </trkpt>
      <trkpt lat="45.16567" lon="5.95462">
        <ele>2383.8000488281</ele>
        <time>2016-04-10T09:21:16.000Z</time>
      </trkpt>
      <trkpt lat="45.16567" lon="5.95464">
        <ele>2384</ele>
        <time>2016-04-10T09:21:17.000Z</time>
      </trkpt>
      <trkpt lat="45.16566" lon="5.95467">
        <ele>2385</ele>
        <time>2016-04-10T09:21:21.000Z</time>
      </trkpt>
      <trkpt lat="45.16566" lon="5.95469">
        <ele>2385.6000976562</ele>
        <time>2016-04-10T09:21:23.000Z</time>
      </trkpt>
      <trkpt lat="45.16565" lon="5.95472">
        <ele>2386.1999511719</ele>
        <time>2016-04-10T09:21:26.000Z</time>
      </trkpt>
      <trkpt lat="45.16565" lon="5.95473">
        <ele>2386.1999511719</ele>
        <time>2016-04-10T09:21:27.000Z</time>
      </trkpt>
      <trkpt lat="45.16564" lon="5.95476">
        <ele>2387.1999511719</ele>
        <time>2016-04-10T09:21:32.000Z</time>
      </trkpt>
      <trkpt lat="45.16564" lon="5.95476">
        <ele>2387.8000488281</ele>
        <time>2016-04-10T09:21:34.000Z</time>
      </trkpt>
      <trkpt lat="45.16566" lon="5.95479">
        <ele>2388.3999023438</ele>
        <time>2016-04-10T09:21:41.000Z</time>
      </trkpt>
      <trkpt lat="45.16572" lon="5.9548">
        <ele>2388.1999511719</ele>
        <time>2016-04-10T09:21:48.000Z</time>
      </trkpt>
      <trkpt lat="45.16576" lon="5.9548">
        <ele>2389</ele>
        <time>2016-04-10T09:21:54.000Z</time>
      </trkpt>
      <trkpt lat="45.16577" lon="5.95479">
        <ele>2389.6000976562</ele>
        <time>2016-04-10T09:21:57.000Z</time>
      </trkpt>
      <trkpt lat="45.16579" lon="5.95478">
        <ele>2390.8000488281</ele>
        <time>2016-04-10T09:22:01.000Z</time>
      </trkpt>
      <trkpt lat="45.1658" lon="5.95476">
        <ele>2391.8000488281</ele>
        <time>2016-04-10T09:22:06.000Z</time>
      </trkpt>
      <trkpt lat="45.1658" lon="5.95476">
        <ele>2392</ele>
        <time>2016-04-10T09:22:07.000Z</time>
      </trkpt>
      <trkpt lat="45.16582" lon="5.95477">
        <ele>2392.6000976562</ele>
        <time>2016-04-10T09:22:12.000Z</time>
      </trkpt>
      <trkpt lat="45.16583" lon="5.95481">
        <ele>2392.3999023438</ele>
        <time>2016-04-10T09:22:18.000Z</time>
      </trkpt>
      <trkpt lat="45.16583" lon="5.95483">
        <ele>2392.8000488281</ele>
        <time>2016-04-10T09:22:21.000Z</time>
      </trkpt>
      <trkpt lat="45.16583" lon="5.95484">
        <ele>2393.1999511719</ele>
        <time>2016-04-10T09:22:22.000Z</time>
      </trkpt>
      <trkpt lat="45.16582" lon="5.95486">
        <ele>2394</ele>
        <time>2016-04-10T09:22:25.000Z</time>
      </trkpt>
      <trkpt lat="45.16583" lon="5.95487">
        <ele>2394.1999511719</ele>
        <time>2016-04-10T09:22:26.000Z</time>
      </trkpt>
      <trkpt lat="45.16582" lon="5.95493">
        <ele>2395</ele>
        <time>2016-04-10T09:22:32.000Z</time>
      </trkpt>
      <trkpt lat="45.16582" lon="5.95493">
        <ele>2395.1999511719</ele>
        <time>2016-04-10T09:22:33.000Z</time>
      </trkpt>
      <trkpt lat="45.16582" lon="5.95493">
        <ele>2396</ele>
        <time>2016-04-10T09:22:58.000Z</time>
      </trkpt>
      <trkpt lat="45.16581" lon="5.95497">
        <ele>2396.1999511719</ele>
        <time>2016-04-10T09:23:02.000Z</time>
      </trkpt>
      <trkpt lat="45.16581" lon="5.955">
        <ele>2396.8000488281</ele>
        <time>2016-04-10T09:23:04.000Z</time>
      </trkpt>
      <trkpt lat="45.16581" lon="5.95503">
        <ele>2397.3999023438</ele>
        <time>2016-04-10T09:23:06.000Z</time>
      </trkpt>
      <trkpt lat="45.16579" lon="5.95512">
        <ele>2398.3999023438</ele>
        <time>2016-04-10T09:23:10.000Z</time>
      </trkpt>
      <trkpt lat="45.1658" lon="5.95514">
        <ele>2398.3999023438</ele>
        <time>2016-04-10T09:23:11.000Z</time>
      </trkpt>
      <trkpt lat="45.1658" lon="5.95518">
        <ele>2399</ele>
        <time>2016-04-10T09:23:16.000Z</time>
      </trkpt>
      <trkpt lat="45.1658" lon="5.9552">
        <ele>2399.6000976562</ele>
        <time>2016-04-10T09:23:19.000Z</time>
      </trkpt>
      <trkpt lat="45.16581" lon="5.9552">
        <ele>2400.6000976562</ele>
        <time>2016-04-10T09:23:24.000Z</time>
      </trkpt>
      <trkpt lat="45.16581" lon="5.9552">
        <ele>2401.8000488281</ele>
        <time>2016-04-10T09:23:25.000Z</time>
      </trkpt>
      <trkpt lat="45.16581" lon="5.9552">
        <ele>2403</ele>
        <time>2016-04-10T09:23:29.000Z</time>
      </trkpt>
      <trkpt lat="45.16581" lon="5.9552">
        <ele>2403.3999023438</ele>
        <time>2016-04-10T09:23:36.000Z</time>
      </trkpt>
      <trkpt lat="45.16583" lon="5.9552">
        <ele>2404.1999511719</ele>
        <time>2016-04-10T09:23:42.000Z</time>
      </trkpt>
      <trkpt lat="45.16585" lon="5.95519">
        <ele>2404.1999511719</ele>
        <time>2016-04-10T09:23:47.000Z</time>
      </trkpt>
      <trkpt lat="45.16588" lon="5.95518">
        <ele>2404.3999023438</ele>
        <time>2016-04-10T09:23:51.000Z</time>
      </trkpt>
      <trkpt lat="45.1659" lon="5.95516">
        <ele>2405.1999511719</ele>
        <time>2016-04-10T09:23:56.000Z</time>
      </trkpt>
      <trkpt lat="45.16594" lon="5.95514">
        <ele>2405.8000488281</ele>
        <time>2016-04-10T09:24:00.000Z</time>
      </trkpt>
      <trkpt lat="45.16596" lon="5.95512">
        <ele>2406.3999023438</ele>
        <time>2016-04-10T09:24:03.000Z</time>
      </trkpt>
      <trkpt lat="45.16597" lon="5.95511">
        <ele>2406.6000976562</ele>
        <time>2016-04-10T09:24:04.000Z</time>
      </trkpt>
      <trkpt lat="45.16597" lon="5.9551">
        <ele>2407</ele>
        <time>2016-04-10T09:24:08.000Z</time>
      </trkpt>
      <trkpt lat="45.16601" lon="5.95507">
        <ele>2407.3999023438</ele>
        <time>2016-04-10T09:24:13.000Z</time>
      </trkpt>
      <trkpt lat="45.16603" lon="5.95504">
        <ele>2408.1999511719</ele>
        <time>2016-04-10T09:24:17.000Z</time>
      </trkpt>
      <trkpt lat="45.16604" lon="5.95503">
        <ele>2408.6000976562</ele>
        <time>2016-04-10T09:24:19.000Z</time>
      </trkpt>
      <trkpt lat="45.16607" lon="5.95501">
        <ele>2409.1999511719</ele>
        <time>2016-04-10T09:24:23.000Z</time>
      </trkpt>
      <trkpt lat="45.16607" lon="5.95501">
        <ele>2409.8000488281</ele>
        <time>2016-04-10T09:24:25.000Z</time>
      </trkpt>
      <trkpt lat="45.16608" lon="5.95502">
        <ele>2410.8000488281</ele>
        <time>2016-04-10T09:24:28.000Z</time>
      </trkpt>
      <trkpt lat="45.16608" lon="5.95503">
        <ele>2411</ele>
        <time>2016-04-10T09:24:29.000Z</time>
      </trkpt>
      <trkpt lat="45.16608" lon="5.95504">
        <ele>2411.8000488281</ele>
        <time>2016-04-10T09:24:35.000Z</time>
      </trkpt>
      <trkpt lat="45.16608" lon="5.95504">
        <ele>2411.8000488281</ele>
        <time>2016-04-10T09:24:36.000Z</time>
      </trkpt>
      <trkpt lat="45.16608" lon="5.95504">
        <ele>2411.6000976562</ele>
        <time>2016-04-10T09:24:44.000Z</time>
      </trkpt>
      <trkpt lat="45.16608" lon="5.95506">
        <ele>2413</ele>
        <time>2016-04-10T09:24:49.000Z</time>
      </trkpt>
      <trkpt lat="45.16609" lon="5.95509">
        <ele>2413.1999511719</ele>
        <time>2016-04-10T09:24:50.000Z</time>
      </trkpt>
      <trkpt lat="45.16609" lon="5.95517">
        <ele>2414.1999511719</ele>
        <time>2016-04-10T09:24:55.000Z</time>
      </trkpt>
      <trkpt lat="45.16609" lon="5.95517">
        <ele>2414.6000976562</ele>
        <time>2016-04-10T09:24:57.000Z</time>
      </trkpt>
      <trkpt lat="45.16608" lon="5.95518">
        <ele>2415.1999511719</ele>
        <time>2016-04-10T09:25:01.000Z</time>
      </trkpt>
      <trkpt lat="45.16608" lon="5.95518">
        <ele>2415.6000976562</ele>
        <time>2016-04-10T09:25:10.000Z</time>
      </trkpt>
      <trkpt lat="45.16607" lon="5.95519">
        <ele>2415.8000488281</ele>
        <time>2016-04-10T09:25:21.000Z</time>
      </trkpt>
      <trkpt lat="45.16607" lon="5.95519">
        <ele>2415.8000488281</ele>
        <time>2016-04-10T09:25:33.000Z</time>
      </trkpt>
      <trkpt lat="45.16608" lon="5.95519">
        <ele>2416</ele>
        <time>2016-04-10T09:25:40.000Z</time>
      </trkpt>
      <trkpt lat="45.1661" lon="5.9552">
        <ele>2416.3999023438</ele>
        <time>2016-04-10T09:25:42.000Z</time>
      </trkpt>
      <trkpt lat="45.16614" lon="5.95522">
        <ele>2416.8000488281</ele>
        <time>2016-04-10T09:25:45.000Z</time>
      </trkpt>
      <trkpt lat="45.16615" lon="5.95522">
        <ele>2417.6000976562</ele>
        <time>2016-04-10T09:25:49.000Z</time>
      </trkpt>
      <trkpt lat="45.16615" lon="5.95522">
        <ele>2417.8000488281</ele>
        <time>2016-04-10T09:25:50.000Z</time>
      </trkpt>
      <trkpt lat="45.16615" lon="5.95524">
        <ele>2418.8000488281</ele>
        <time>2016-04-10T09:25:55.000Z</time>
      </trkpt>
      <trkpt lat="45.16617" lon="5.95529">
        <ele>2419.8000488281</ele>
        <time>2016-04-10T09:26:00.000Z</time>
      </trkpt>
      <trkpt lat="45.16617" lon="5.9553">
        <ele>2420</ele>
        <time>2016-04-10T09:26:01.000Z</time>
      </trkpt>
      <trkpt lat="45.16617" lon="5.95533">
        <ele>2421</ele>
        <time>2016-04-10T09:26:06.000Z</time>
      </trkpt>
      <trkpt lat="45.16618" lon="5.95534">
        <ele>2421.1999511719</ele>
        <time>2016-04-10T09:26:10.000Z</time>
      </trkpt>
      <trkpt lat="45.16622" lon="5.95534">
        <ele>2422</ele>
        <time>2016-04-10T09:26:14.000Z</time>
      </trkpt>
      <trkpt lat="45.16625" lon="5.95534">
        <ele>2422.6000976562</ele>
        <time>2016-04-10T09:26:16.000Z</time>
      </trkpt>
      <trkpt lat="45.16626" lon="5.95535">
        <ele>2423.1999511719</ele>
        <time>2016-04-10T09:26:19.000Z</time>
      </trkpt>
      <trkpt lat="45.16626" lon="5.95535">
        <ele>2423.8000488281</ele>
        <time>2016-04-10T09:26:22.000Z</time>
      </trkpt>
      <trkpt lat="45.16625" lon="5.95535">
        <ele>2424.3999023438</ele>
        <time>2016-04-10T09:26:24.000Z</time>
      </trkpt>
      <trkpt lat="45.16625" lon="5.95538">
        <ele>2424.6000976562</ele>
        <time>2016-04-10T09:26:28.000Z</time>
      </trkpt>
      <trkpt lat="45.16624" lon="5.95544">
        <ele>2425</ele>
        <time>2016-04-10T09:26:34.000Z</time>
      </trkpt>
      <trkpt lat="45.16623" lon="5.95545">
        <ele>2425.6000976562</ele>
        <time>2016-04-10T09:26:36.000Z</time>
      </trkpt>
      <trkpt lat="45.16623" lon="5.95549">
        <ele>2426.6000976562</ele>
        <time>2016-04-10T09:26:39.000Z</time>
      </trkpt>
      <trkpt lat="45.16622" lon="5.95551">
        <ele>2427</ele>
        <time>2016-04-10T09:26:41.000Z</time>
      </trkpt>
      <trkpt lat="45.16621" lon="5.95555">
        <ele>2427.8000488281</ele>
        <time>2016-04-10T09:26:44.000Z</time>
      </trkpt>
      <trkpt lat="45.16622" lon="5.95563">
        <ele>2429.1999511719</ele>
        <time>2016-04-10T09:26:48.000Z</time>
      </trkpt>
      <trkpt lat="45.16622" lon="5.95563">
        <ele>2429.6000976562</ele>
        <time>2016-04-10T09:26:49.000Z</time>
      </trkpt>
      <trkpt lat="45.16623" lon="5.95567">
        <ele>2430.1999511719</ele>
        <time>2016-04-10T09:26:53.000Z</time>
      </trkpt>
      <trkpt lat="45.16623" lon="5.9557">
        <ele>2430.8000488281</ele>
        <time>2016-04-10T09:26:56.000Z</time>
      </trkpt>
      <trkpt lat="45.16623" lon="5.95575">
        <ele>2431.1999511719</ele>
        <time>2016-04-10T09:27:03.000Z</time>
      </trkpt>
      <trkpt lat="45.16624" lon="5.95569">
        <ele>2431.1999511719</ele>
        <time>2016-04-10T09:27:07.000Z</time>
      </trkpt>
      <trkpt lat="45.16627" lon="5.95568">
        <ele>2431.8000488281</ele>
        <time>2016-04-10T09:27:10.000Z</time>
      </trkpt>
      <trkpt lat="45.16631" lon="5.95567">
        <ele>2432.3999023438</ele>
        <time>2016-04-10T09:27:14.000Z</time>
      </trkpt>
      <trkpt lat="45.16633" lon="5.95565">
        <ele>2432.8000488281</ele>
        <time>2016-04-10T09:27:17.000Z</time>
      </trkpt>
      <trkpt lat="45.16635" lon="5.95564">
        <ele>2433.3999023438</ele>
        <time>2016-04-10T09:27:20.000Z</time>
      </trkpt>
      <trkpt lat="45.16637" lon="5.95563">
        <ele>2433.8000488281</ele>
        <time>2016-04-10T09:27:23.000Z</time>
      </trkpt>
      <trkpt lat="45.16638" lon="5.9556">
        <ele>2434.3999023438</ele>
        <time>2016-04-10T09:27:27.000Z</time>
      </trkpt>
      <trkpt lat="45.16639" lon="5.9556">
        <ele>2435</ele>
        <time>2016-04-10T09:27:29.000Z</time>
      </trkpt>
      <trkpt lat="45.16639" lon="5.95558">
        <ele>2435.6000976562</ele>
        <time>2016-04-10T09:27:31.000Z</time>
      </trkpt>
      <trkpt lat="45.1664" lon="5.95557">
        <ele>2436.1999511719</ele>
        <time>2016-04-10T09:27:35.000Z</time>
      </trkpt>
      <trkpt lat="45.16642" lon="5.95555">
        <ele>2436.6000976562</ele>
        <time>2016-04-10T09:27:39.000Z</time>
      </trkpt>
      <trkpt lat="45.16643" lon="5.95555">
        <ele>2436.6000976562</ele>
        <time>2016-04-10T09:27:43.000Z</time>
      </trkpt>
      <trkpt lat="45.16643" lon="5.95554">
        <ele>2437.6000976562</ele>
        <time>2016-04-10T09:27:49.000Z</time>
      </trkpt>
      <trkpt lat="45.16644" lon="5.95555">
        <ele>2438.1999511719</ele>
        <time>2016-04-10T09:27:50.000Z</time>
      </trkpt>
      <trkpt lat="45.16644" lon="5.95556">
        <ele>2438.8000488281</ele>
        <time>2016-04-10T09:27:52.000Z</time>
      </trkpt>
      <trkpt lat="45.16643" lon="5.95558">
        <ele>2439.3999023438</ele>
        <time>2016-04-10T09:27:55.000Z</time>
      </trkpt>
      <trkpt lat="45.16642" lon="5.95559">
        <ele>2440</ele>
        <time>2016-04-10T09:27:57.000Z</time>
      </trkpt>
      <trkpt lat="45.16641" lon="5.95562">
        <ele>2440.6000976562</ele>
        <time>2016-04-10T09:28:00.000Z</time>
      </trkpt>
      <trkpt lat="45.16641" lon="5.95564">
        <ele>2441</ele>
        <time>2016-04-10T09:28:02.000Z</time>
      </trkpt>
      <trkpt lat="45.1664" lon="5.95567">
        <ele>2441.6000976562</ele>
        <time>2016-04-10T09:28:08.000Z</time>
      </trkpt>
      <trkpt lat="45.16644" lon="5.95564">
        <ele>2442.1999511719</ele>
        <time>2016-04-10T09:28:14.000Z</time>
      </trkpt>
      <trkpt lat="45.16644" lon="5.95564">
        <ele>2442.3999023438</ele>
        <time>2016-04-10T09:28:15.000Z</time>
      </trkpt>
      <trkpt lat="45.16647" lon="5.95563">
        <ele>2443.1999511719</ele>
        <time>2016-04-10T09:28:19.000Z</time>
      </trkpt>
      <trkpt lat="45.16651" lon="5.95562">
        <ele>2443.8000488281</ele>
        <time>2016-04-10T09:28:24.000Z</time>
      </trkpt>
      <trkpt lat="45.16654" lon="5.95561">
        <ele>2444.3999023438</ele>
        <time>2016-04-10T09:28:28.000Z</time>
      </trkpt>
      <trkpt lat="45.16656" lon="5.95559">
        <ele>2445.6000976562</ele>
        <time>2016-04-10T09:28:33.000Z</time>
      </trkpt>
      <trkpt lat="45.16658" lon="5.95558">
        <ele>2446</ele>
        <time>2016-04-10T09:28:38.000Z</time>
      </trkpt>
      <trkpt lat="45.1666" lon="5.95557">
        <ele>2446.6000976562</ele>
        <time>2016-04-10T09:28:43.000Z</time>
      </trkpt>
      <trkpt lat="45.16662" lon="5.95561">
        <ele>2447.6000976562</ele>
        <time>2016-04-10T09:28:48.000Z</time>
      </trkpt>
      <trkpt lat="45.16662" lon="5.95562">
        <ele>2447.8000488281</ele>
        <time>2016-04-10T09:28:49.000Z</time>
      </trkpt>
      <trkpt lat="45.16663" lon="5.95568">
        <ele>2448.8000488281</ele>
        <time>2016-04-10T09:28:53.000Z</time>
      </trkpt>
      <trkpt lat="45.16664" lon="5.95569">
        <ele>2449.3999023438</ele>
        <time>2016-04-10T09:28:55.000Z</time>
      </trkpt>
      <trkpt lat="45.16664" lon="5.9557">
        <ele>2450</ele>
        <time>2016-04-10T09:28:57.000Z</time>
      </trkpt>
      <trkpt lat="45.16665" lon="5.95574">
        <ele>2451.3999023438</ele>
        <time>2016-04-10T09:29:02.000Z</time>
      </trkpt>
      <trkpt lat="45.16665" lon="5.95575">
        <ele>2451.3999023438</ele>
        <time>2016-04-10T09:29:03.000Z</time>
      </trkpt>
      <trkpt lat="45.16667" lon="5.95579">
        <ele>2452.1999511719</ele>
        <time>2016-04-10T09:29:10.000Z</time>
      </trkpt>
      <trkpt lat="45.16668" lon="5.95579">
        <ele>2452.3999023438</ele>
        <time>2016-04-10T09:29:11.000Z</time>
      </trkpt>
      <trkpt lat="45.1667" lon="5.95578">
        <ele>2452.8000488281</ele>
        <time>2016-04-10T09:29:16.000Z</time>
      </trkpt>
      <trkpt lat="45.16672" lon="5.95576">
        <ele>2453.6000976562</ele>
        <time>2016-04-10T09:29:20.000Z</time>
      </trkpt>
      <trkpt lat="45.16675" lon="5.95576">
        <ele>2454.3999023438</ele>
        <time>2016-04-10T09:29:23.000Z</time>
      </trkpt>
      <trkpt lat="45.16675" lon="5.95575">
        <ele>2454.8000488281</ele>
        <time>2016-04-10T09:29:25.000Z</time>
      </trkpt>
      <trkpt lat="45.16678" lon="5.95573">
        <ele>2455.6000976562</ele>
        <time>2016-04-10T09:29:30.000Z</time>
      </trkpt>
      <trkpt lat="45.1668" lon="5.95573">
        <ele>2455.8000488281</ele>
        <time>2016-04-10T09:29:32.000Z</time>
      </trkpt>
      <trkpt lat="45.16683" lon="5.95572">
        <ele>2456.3999023438</ele>
        <time>2016-04-10T09:29:37.000Z</time>
      </trkpt>
      <trkpt lat="45.16684" lon="5.95573">
        <ele>2456.8000488281</ele>
        <time>2016-04-10T09:29:39.000Z</time>
      </trkpt>
      <trkpt lat="45.16687" lon="5.95572">
        <ele>2457.3999023438</ele>
        <time>2016-04-10T09:29:44.000Z</time>
      </trkpt>
      <trkpt lat="45.16689" lon="5.9557">
        <ele>2457.8000488281</ele>
        <time>2016-04-10T09:29:49.000Z</time>
      </trkpt>
      <trkpt lat="45.16688" lon="5.95565">
        <ele>2459</ele>
        <time>2016-04-10T09:29:54.000Z</time>
      </trkpt>
      <trkpt lat="45.16688" lon="5.95562">
        <ele>2459.6000976562</ele>
        <time>2016-04-10T09:29:58.000Z</time>
      </trkpt>
      <trkpt lat="45.16688" lon="5.95561">
        <ele>2460.3999023438</ele>
        <time>2016-04-10T09:30:00.000Z</time>
      </trkpt>
      <trkpt lat="45.16691" lon="5.95558">
        <ele>2461.6000976562</ele>
        <time>2016-04-10T09:30:04.000Z</time>
      </trkpt>
      <trkpt lat="45.16694" lon="5.9556">
        <ele>2462.3999023438</ele>
        <time>2016-04-10T09:30:09.000Z</time>
      </trkpt>
      <trkpt lat="45.16695" lon="5.9556">
        <ele>2462.6000976562</ele>
        <time>2016-04-10T09:30:10.000Z</time>
      </trkpt>
      <trkpt lat="45.16696" lon="5.95561">
        <ele>2464</ele>
        <time>2016-04-10T09:30:15.000Z</time>
      </trkpt>
      <trkpt lat="45.16699" lon="5.95561">
        <ele>2465.1999511719</ele>
        <time>2016-04-10T09:30:19.000Z</time>
      </trkpt>
      <trkpt lat="45.167" lon="5.9556">
        <ele>2465.6000976562</ele>
        <time>2016-04-10T09:30:20.000Z</time>
      </trkpt>
      <trkpt lat="45.16701" lon="5.9556">
        <ele>2466.1999511719</ele>
        <time>2016-04-10T09:30:22.000Z</time>
      </trkpt>
      <trkpt lat="45.16704" lon="5.9556">
        <ele>2467.3999023438</ele>
        <time>2016-04-10T09:30:26.000Z</time>
      </trkpt>
      <trkpt lat="45.16708" lon="5.95562">
        <ele>2467.6000976562</ele>
        <time>2016-04-10T09:30:32.000Z</time>
      </trkpt>
      <trkpt lat="45.16709" lon="5.95563">
        <ele>2468.3999023438</ele>
        <time>2016-04-10T09:30:37.000Z</time>
      </trkpt>
      <trkpt lat="45.1671" lon="5.95563">
        <ele>2468.8000488281</ele>
        <time>2016-04-10T09:30:38.000Z</time>
      </trkpt>
      <trkpt lat="45.1671" lon="5.95564">
        <ele>2469.6000976562</ele>
        <time>2016-04-10T09:30:39.000Z</time>
      </trkpt>
      <trkpt lat="45.16709" lon="5.9556">
        <ele>2469.8000488281</ele>
        <time>2016-04-10T09:30:43.000Z</time>
      </trkpt>
      <trkpt lat="45.16709" lon="5.95557">
        <ele>2470</ele>
        <time>2016-04-10T09:30:47.000Z</time>
      </trkpt>
      <trkpt lat="45.1671" lon="5.95557">
        <ele>2470.8000488281</ele>
        <time>2016-04-10T09:30:49.000Z</time>
      </trkpt>
      <trkpt lat="45.16713" lon="5.95557">
        <ele>2471.6000976562</ele>
        <time>2016-04-10T09:30:53.000Z</time>
      </trkpt>
      <trkpt lat="45.16714" lon="5.95558">
        <ele>2471.8000488281</ele>
        <time>2016-04-10T09:30:54.000Z</time>
      </trkpt>
      <trkpt lat="45.16715" lon="5.95559">
        <ele>2473</ele>
        <time>2016-04-10T09:30:57.000Z</time>
      </trkpt>
      <trkpt lat="45.16715" lon="5.9556">
        <ele>2474.1999511719</ele>
        <time>2016-04-10T09:30:59.000Z</time>
      </trkpt>
      <trkpt lat="45.16715" lon="5.9556">
        <ele>2474.8000488281</ele>
        <time>2016-04-10T09:31:00.000Z</time>
      </trkpt>
      <trkpt lat="45.16715" lon="5.9556">
        <ele>2475.1999511719</ele>
        <time>2016-04-10T09:31:01.000Z</time>
      </trkpt>
      <trkpt lat="45.16716" lon="5.95562">
        <ele>2474.6000976562</ele>
        <time>2016-04-10T09:31:06.000Z</time>
      </trkpt>
      <trkpt lat="45.16718" lon="5.95568">
        <ele>2475</ele>
        <time>2016-04-10T09:31:11.000Z</time>
      </trkpt>
      <trkpt lat="45.16721" lon="5.95571">
        <ele>2476</ele>
        <time>2016-04-10T09:31:15.000Z</time>
      </trkpt>
      <trkpt lat="45.16723" lon="5.95572">
        <ele>2476.1999511719</ele>
        <time>2016-04-10T09:31:19.000Z</time>
      </trkpt>
      <trkpt lat="45.16723" lon="5.95572">
        <ele>2476.3999023438</ele>
        <time>2016-04-10T09:31:21.000Z</time>
      </trkpt>
      <trkpt lat="45.16724" lon="5.9557">
        <ele>2477.3999023438</ele>
        <time>2016-04-10T09:31:26.000Z</time>
      </trkpt>
      <trkpt lat="45.16725" lon="5.95568">
        <ele>2478.3999023438</ele>
        <time>2016-04-10T09:31:30.000Z</time>
      </trkpt>
      <trkpt lat="45.16726" lon="5.95566">
        <ele>2479.6000976562</ele>
        <time>2016-04-10T09:31:34.000Z</time>
      </trkpt>
      <trkpt lat="45.16727" lon="5.95564">
        <ele>2480</ele>
        <time>2016-04-10T09:31:38.000Z</time>
      </trkpt>
      <trkpt lat="45.16729" lon="5.95565">
        <ele>2480.6000976562</ele>
        <time>2016-04-10T09:31:44.000Z</time>
      </trkpt>
      <trkpt lat="45.1673" lon="5.95565">
        <ele>2480.8000488281</ele>
        <time>2016-04-10T09:31:45.000Z</time>
      </trkpt>
      <trkpt lat="45.16732" lon="5.95567">
        <ele>2481.1999511719</ele>
        <time>2016-04-10T09:31:51.000Z</time>
      </trkpt>
      <trkpt lat="45.16733" lon="5.95569">
        <ele>2481.6000976562</ele>
        <time>2016-04-10T09:31:56.000Z</time>
      </trkpt>
      <trkpt lat="45.16734" lon="5.95572">
        <ele>2482.3999023438</ele>
        <time>2016-04-10T09:32:00.000Z</time>
      </trkpt>
      <trkpt lat="45.16734" lon="5.95573">
        <ele>2482.6000976562</ele>
        <time>2016-04-10T09:32:01.000Z</time>
      </trkpt>
      <trkpt lat="45.16735" lon="5.95576">
        <ele>2483.3999023438</ele>
        <time>2016-04-10T09:32:04.000Z</time>
      </trkpt>
      <trkpt lat="45.16736" lon="5.95577">
        <ele>2483.8000488281</ele>
        <time>2016-04-10T09:32:06.000Z</time>
      </trkpt>
      <trkpt lat="45.16737" lon="5.95578">
        <ele>2484</ele>
        <time>2016-04-10T09:32:07.000Z</time>
      </trkpt>
      <trkpt lat="45.16739" lon="5.95579">
        <ele>2484.3999023438</ele>
        <time>2016-04-10T09:32:11.000Z</time>
      </trkpt>
      <trkpt lat="45.1674" lon="5.95581">
        <ele>2484.8000488281</ele>
        <time>2016-04-10T09:32:15.000Z</time>
      </trkpt>
      <trkpt lat="45.16742" lon="5.95582">
        <ele>2485.1999511719</ele>
        <time>2016-04-10T09:32:16.000Z</time>
      </trkpt>
      <trkpt lat="45.16745" lon="5.95583">
        <ele>2486.1999511719</ele>
        <time>2016-04-10T09:32:19.000Z</time>
      </trkpt>
      <trkpt lat="45.16745" lon="5.95583">
        <ele>2487</ele>
        <time>2016-04-10T09:32:20.000Z</time>
      </trkpt>
      <trkpt lat="45.16746" lon="5.95584">
        <ele>2487.6000976562</ele>
        <time>2016-04-10T09:32:21.000Z</time>
      </trkpt>
      <trkpt lat="45.16748" lon="5.95585">
        <ele>2488.6000976562</ele>
        <time>2016-04-10T09:32:24.000Z</time>
      </trkpt>
      <trkpt lat="45.16752" lon="5.95588">
        <ele>2488.6000976562</ele>
        <time>2016-04-10T09:32:30.000Z</time>
      </trkpt>
      <trkpt lat="45.16754" lon="5.95588">
        <ele>2489.6000976562</ele>
        <time>2016-04-10T09:32:36.000Z</time>
      </trkpt>
      <trkpt lat="45.16755" lon="5.95588">
        <ele>2490.1999511719</ele>
        <time>2016-04-10T09:32:38.000Z</time>
      </trkpt>
      <trkpt lat="45.16756" lon="5.95589">
        <ele>2490.8000488281</ele>
        <time>2016-04-10T09:32:39.000Z</time>
      </trkpt>
      <trkpt lat="45.16757" lon="5.95588">
        <ele>2491.8000488281</ele>
        <time>2016-04-10T09:32:43.000Z</time>
      </trkpt>
      <trkpt lat="45.16759" lon="5.95588">
        <ele>2492</ele>
        <time>2016-04-10T09:32:46.000Z</time>
      </trkpt>
      <trkpt lat="45.16761" lon="5.95588">
        <ele>2492.6000976562</ele>
        <time>2016-04-10T09:32:52.000Z</time>
      </trkpt>
      <trkpt lat="45.16761" lon="5.95588">
        <ele>2493</ele>
        <time>2016-04-10T09:32:57.000Z</time>
      </trkpt>
      <trkpt lat="45.16761" lon="5.95588">
        <ele>2493.6000976562</ele>
        <time>2016-04-10T09:33:03.000Z</time>
      </trkpt>
      <trkpt lat="45.16759" lon="5.95591">
        <ele>2494</ele>
        <time>2016-04-10T09:33:09.000Z</time>
      </trkpt>
      <trkpt lat="45.16758" lon="5.95595">
        <ele>2495</ele>
        <time>2016-04-10T09:33:14.000Z</time>
      </trkpt>
      <trkpt lat="45.16757" lon="5.95599">
        <ele>2495.6000976562</ele>
        <time>2016-04-10T09:33:19.000Z</time>
      </trkpt>
      <trkpt lat="45.16757" lon="5.95601">
        <ele>2496.1999511719</ele>
        <time>2016-04-10T09:33:22.000Z</time>
      </trkpt>
      <trkpt lat="45.16757" lon="5.95603">
        <ele>2496.6000976562</ele>
        <time>2016-04-10T09:33:24.000Z</time>
      </trkpt>
      <trkpt lat="45.16757" lon="5.95606">
        <ele>2497.1999511719</ele>
        <time>2016-04-10T09:33:28.000Z</time>
      </trkpt>
      <trkpt lat="45.16757" lon="5.95607">
        <ele>2497.3999023438</ele>
        <time>2016-04-10T09:33:29.000Z</time>
      </trkpt>
      <trkpt lat="45.16757" lon="5.9561">
        <ele>2498.1999511719</ele>
        <time>2016-04-10T09:33:33.000Z</time>
      </trkpt>
      <trkpt lat="45.16757" lon="5.9561">
        <ele>2498.3999023438</ele>
        <time>2016-04-10T09:33:34.000Z</time>
      </trkpt>
      <trkpt lat="45.16757" lon="5.95611">
        <ele>2499</ele>
        <time>2016-04-10T09:33:39.000Z</time>
      </trkpt>
      <trkpt lat="45.16757" lon="5.95611">
        <ele>2499.3999023438</ele>
        <time>2016-04-10T09:33:41.000Z</time>
      </trkpt>
      <trkpt lat="45.16757" lon="5.95611">
        <ele>2499.8000488281</ele>
        <time>2016-04-10T09:33:50.000Z</time>
      </trkpt>
      <trkpt lat="45.1676" lon="5.95605">
        <ele>2500.6000976562</ele>
        <time>2016-04-10T09:33:54.000Z</time>
      </trkpt>
      <trkpt lat="45.16761" lon="5.95604">
        <ele>2500.8000488281</ele>
        <time>2016-04-10T09:33:56.000Z</time>
      </trkpt>
      <trkpt lat="45.16764" lon="5.95603">
        <ele>2501.3999023438</ele>
        <time>2016-04-10T09:34:01.000Z</time>
      </trkpt>
      <trkpt lat="45.16764" lon="5.95602">
        <ele>2501.6000976562</ele>
        <time>2016-04-10T09:34:02.000Z</time>
      </trkpt>
      <trkpt lat="45.16766" lon="5.95601">
        <ele>2502.3999023438</ele>
        <time>2016-04-10T09:34:06.000Z</time>
      </trkpt>
      <trkpt lat="45.16766" lon="5.95601">
        <ele>2502.8000488281</ele>
        <time>2016-04-10T09:34:07.000Z</time>
      </trkpt>
      <trkpt lat="45.16765" lon="5.95601">
        <ele>2503.1999511719</ele>
        <time>2016-04-10T09:34:12.000Z</time>
      </trkpt>
      <trkpt lat="45.16765" lon="5.95602">
        <ele>2503.8000488281</ele>
        <time>2016-04-10T09:34:15.000Z</time>
      </trkpt>
      <trkpt lat="45.16765" lon="5.95602">
        <ele>2504</ele>
        <time>2016-04-10T09:34:16.000Z</time>
      </trkpt>
      <trkpt lat="45.16765" lon="5.9561">
        <ele>2504.3999023438</ele>
        <time>2016-04-10T09:34:21.000Z</time>
      </trkpt>
      <trkpt lat="45.16766" lon="5.95617">
        <ele>2504.6000976562</ele>
        <time>2016-04-10T09:34:26.000Z</time>
      </trkpt>
      <trkpt lat="45.16766" lon="5.95621">
        <ele>2505</ele>
        <time>2016-04-10T09:34:30.000Z</time>
      </trkpt>
      <trkpt lat="45.16767" lon="5.95623">
        <ele>2505.3999023438</ele>
        <time>2016-04-10T09:34:33.000Z</time>
      </trkpt>
      <trkpt lat="45.16767" lon="5.95627">
        <ele>2506</ele>
        <time>2016-04-10T09:34:36.000Z</time>
      </trkpt>
      <trkpt lat="45.16769" lon="5.95629">
        <ele>2507.3999023438</ele>
        <time>2016-04-10T09:34:39.000Z</time>
      </trkpt>
      <trkpt lat="45.1677" lon="5.95631">
        <ele>2507.8000488281</ele>
        <time>2016-04-10T09:34:41.000Z</time>
      </trkpt>
      <trkpt lat="45.16771" lon="5.95635">
        <ele>2508.3999023438</ele>
        <time>2016-04-10T09:34:46.000Z</time>
      </trkpt>
      <trkpt lat="45.16772" lon="5.95637">
        <ele>2508.8000488281</ele>
        <time>2016-04-10T09:34:49.000Z</time>
      </trkpt>
      <trkpt lat="45.16772" lon="5.95637">
        <ele>2509.3999023438</ele>
        <time>2016-04-10T09:34:52.000Z</time>
      </trkpt>
      <trkpt lat="45.16772" lon="5.95638">
        <ele>2510.6000976562</ele>
        <time>2016-04-10T09:34:56.000Z</time>
      </trkpt>
      <trkpt lat="45.16773" lon="5.95639">
        <ele>2510.6000976562</ele>
        <time>2016-04-10T09:34:57.000Z</time>
      </trkpt>
      <trkpt lat="45.16773" lon="5.95642">
        <ele>2511.3999023438</ele>
        <time>2016-04-10T09:35:02.000Z</time>
      </trkpt>
      <trkpt lat="45.16773" lon="5.95642">
        <ele>2511.8000488281</ele>
        <time>2016-04-10T09:35:03.000Z</time>
      </trkpt>
      <trkpt lat="45.16773" lon="5.95647">
        <ele>2512.3999023438</ele>
        <time>2016-04-10T09:35:08.000Z</time>
      </trkpt>
      <trkpt lat="45.16773" lon="5.95648">
        <ele>2512.8000488281</ele>
        <time>2016-04-10T09:35:12.000Z</time>
      </trkpt>
      <trkpt lat="45.16773" lon="5.95648">
        <ele>2513</ele>
        <time>2016-04-10T09:35:14.000Z</time>
      </trkpt>
      <trkpt lat="45.16773" lon="5.95645">
        <ele>2512.8000488281</ele>
        <time>2016-04-10T09:35:20.000Z</time>
      </trkpt>
      <trkpt lat="45.16774" lon="5.95643">
        <ele>2514</ele>
        <time>2016-04-10T09:35:30.000Z</time>
      </trkpt>
      <trkpt lat="45.16774" lon="5.95642">
        <ele>2514</ele>
        <time>2016-04-10T09:35:31.000Z</time>
      </trkpt>
      <trkpt lat="45.16774" lon="5.9564">
        <ele>2514.3999023438</ele>
        <time>2016-04-10T09:35:34.000Z</time>
      </trkpt>
      <trkpt lat="45.16775" lon="5.95637">
        <ele>2514.1999511719</ele>
        <time>2016-04-10T09:35:37.000Z</time>
      </trkpt>
      <trkpt lat="45.16776" lon="5.95636">
        <ele>2514.8000488281</ele>
        <time>2016-04-10T09:35:40.000Z</time>
      </trkpt>
      <trkpt lat="45.16777" lon="5.95635">
        <ele>2515</ele>
        <time>2016-04-10T09:35:41.000Z</time>
      </trkpt>
      <trkpt lat="45.16777" lon="5.95635">
        <ele>2515.3999023438</ele>
        <time>2016-04-10T09:35:43.000Z</time>
      </trkpt>
      <trkpt lat="45.16779" lon="5.95634">
        <ele>2516.1999511719</ele>
        <time>2016-04-10T09:35:46.000Z</time>
      </trkpt>
      <trkpt lat="45.16781" lon="5.95634">
        <ele>2516.3999023438</ele>
        <time>2016-04-10T09:35:48.000Z</time>
      </trkpt>
      <trkpt lat="45.16781" lon="5.95632">
        <ele>2517</ele>
        <time>2016-04-10T09:35:54.000Z</time>
      </trkpt>
      <trkpt lat="45.16781" lon="5.95632">
        <ele>2517.1999511719</ele>
        <time>2016-04-10T09:35:56.000Z</time>
      </trkpt>
      <trkpt lat="45.16782" lon="5.95636">
        <ele>2517.3999023438</ele>
        <time>2016-04-10T09:36:00.000Z</time>
      </trkpt>
      <trkpt lat="45.16783" lon="5.95641">
        <ele>2518.3999023438</ele>
        <time>2016-04-10T09:36:06.000Z</time>
      </trkpt>
      <trkpt lat="45.16783" lon="5.95643">
        <ele>2519</ele>
        <time>2016-04-10T09:36:08.000Z</time>
      </trkpt>
      <trkpt lat="45.16783" lon="5.95643">
        <ele>2519.6000976562</ele>
        <time>2016-04-10T09:36:10.000Z</time>
      </trkpt>
      <trkpt lat="45.16784" lon="5.95647">
        <ele>2521</ele>
        <time>2016-04-10T09:36:15.000Z</time>
      </trkpt>
      <trkpt lat="45.16786" lon="5.9565">
        <ele>2522.1999511719</ele>
        <time>2016-04-10T09:36:18.000Z</time>
      </trkpt>
      <trkpt lat="45.16786" lon="5.95652">
        <ele>2523.1999511719</ele>
        <time>2016-04-10T09:36:21.000Z</time>
      </trkpt>
      <trkpt lat="45.16786" lon="5.95653">
        <ele>2523.3999023438</ele>
        <time>2016-04-10T09:36:22.000Z</time>
      </trkpt>
      <trkpt lat="45.16786" lon="5.95655">
        <ele>2523.6000976562</ele>
        <time>2016-04-10T09:36:27.000Z</time>
      </trkpt>
      <trkpt lat="45.16786" lon="5.95656">
        <ele>2524.1999511719</ele>
        <time>2016-04-10T09:36:30.000Z</time>
      </trkpt>
      <trkpt lat="45.16786" lon="5.95656">
        <ele>2524.6000976562</ele>
        <time>2016-04-10T09:36:31.000Z</time>
      </trkpt>
      <trkpt lat="45.16786" lon="5.95656">
        <ele>2525.1999511719</ele>
        <time>2016-04-10T09:36:35.000Z</time>
      </trkpt>
      <trkpt lat="45.16786" lon="5.95656">
        <ele>2525.8000488281</ele>
        <time>2016-04-10T09:36:40.000Z</time>
      </trkpt>
      <trkpt lat="45.16788" lon="5.95652">
        <ele>2525.8000488281</ele>
        <time>2016-04-10T09:36:42.000Z</time>
      </trkpt>
      <trkpt lat="45.16788" lon="5.9565">
        <ele>2525.8000488281</ele>
        <time>2016-04-10T09:36:44.000Z</time>
      </trkpt>
      <trkpt lat="45.16789" lon="5.95648">
        <ele>2526</ele>
        <time>2016-04-10T09:36:47.000Z</time>
      </trkpt>
      <trkpt lat="45.16789" lon="5.95647">
        <ele>2526.3999023438</ele>
        <time>2016-04-10T09:36:49.000Z</time>
      </trkpt>
      <trkpt lat="45.16789" lon="5.95646">
        <ele>2526.6000976562</ele>
        <time>2016-04-10T09:36:51.000Z</time>
      </trkpt>
      <trkpt lat="45.16791" lon="5.95644">
        <ele>2527.3999023438</ele>
        <time>2016-04-10T09:36:58.000Z</time>
      </trkpt>
      <trkpt lat="45.16792" lon="5.95644">
        <ele>2527.6000976562</ele>
        <time>2016-04-10T09:36:59.000Z</time>
      </trkpt>
      <trkpt lat="45.16793" lon="5.95642">
        <ele>2528.6000976562</ele>
        <time>2016-04-10T09:37:04.000Z</time>
      </trkpt>
      <trkpt lat="45.16792" lon="5.95642">
        <ele>2529.1999511719</ele>
        <time>2016-04-10T09:37:06.000Z</time>
      </trkpt>
      <trkpt lat="45.16793" lon="5.95642">
        <ele>2529.6000976562</ele>
        <time>2016-04-10T09:37:08.000Z</time>
      </trkpt>
      <trkpt lat="45.16793" lon="5.95644">
        <ele>2530.3999023438</ele>
        <time>2016-04-10T09:37:11.000Z</time>
      </trkpt>
      <trkpt lat="45.16794" lon="5.95646">
        <ele>2530.8000488281</ele>
        <time>2016-04-10T09:37:13.000Z</time>
      </trkpt>
      <trkpt lat="45.16795" lon="5.95649">
        <ele>2531</ele>
        <time>2016-04-10T09:37:15.000Z</time>
      </trkpt>
      <trkpt lat="45.16794" lon="5.95653">
        <ele>2531.8000488281</ele>
        <time>2016-04-10T09:37:18.000Z</time>
      </trkpt>
      <trkpt lat="45.16793" lon="5.95656">
        <ele>2532.1999511719</ele>
        <time>2016-04-10T09:37:20.000Z</time>
      </trkpt>
      <trkpt lat="45.16793" lon="5.95658">
        <ele>2533</ele>
        <time>2016-04-10T09:37:23.000Z</time>
      </trkpt>
      <trkpt lat="45.16793" lon="5.95659">
        <ele>2534.3999023438</ele>
        <time>2016-04-10T09:37:26.000Z</time>
      </trkpt>
      <trkpt lat="45.16793" lon="5.9566">
        <ele>2535.3999023438</ele>
        <time>2016-04-10T09:37:29.000Z</time>
      </trkpt>
      <trkpt lat="45.16794" lon="5.9566">
        <ele>2535.6000976562</ele>
        <time>2016-04-10T09:37:30.000Z</time>
      </trkpt>
      <trkpt lat="45.16794" lon="5.95661">
        <ele>2536.1999511719</ele>
        <time>2016-04-10T09:37:35.000Z</time>
      </trkpt>
      <trkpt lat="45.16795" lon="5.95662">
        <ele>2536.3999023438</ele>
        <time>2016-04-10T09:37:36.000Z</time>
      </trkpt>
      <trkpt lat="45.16795" lon="5.95665">
        <ele>2536.8000488281</ele>
        <time>2016-04-10T09:37:41.000Z</time>
      </trkpt>
      <trkpt lat="45.16798" lon="5.95662">
        <ele>2536.6000976562</ele>
        <time>2016-04-10T09:37:49.000Z</time>
      </trkpt>
      <trkpt lat="45.168" lon="5.95661">
        <ele>2536.6000976562</ele>
        <time>2016-04-10T09:37:54.000Z</time>
      </trkpt>
      <trkpt lat="45.16802" lon="5.95659">
        <ele>2536.3999023438</ele>
        <time>2016-04-10T09:37:58.000Z</time>
      </trkpt>
      <trkpt lat="45.16803" lon="5.95657">
        <ele>2536.6000976562</ele>
        <time>2016-04-10T09:38:02.000Z</time>
      </trkpt>
      <trkpt lat="45.16803" lon="5.95655">
        <ele>2537.6000976562</ele>
        <time>2016-04-10T09:38:07.000Z</time>
      </trkpt>
      <trkpt lat="45.16803" lon="5.95652">
        <ele>2538</ele>
        <time>2016-04-10T09:38:09.000Z</time>
      </trkpt>
      <trkpt lat="45.16804" lon="5.95649">
        <ele>2538.6000976562</ele>
        <time>2016-04-10T09:38:13.000Z</time>
      </trkpt>
      <trkpt lat="45.16804" lon="5.95647">
        <ele>2538.8000488281</ele>
        <time>2016-04-10T09:38:14.000Z</time>
      </trkpt>
      <trkpt lat="45.16804" lon="5.95647">
        <ele>2539.1999511719</ele>
        <time>2016-04-10T09:38:17.000Z</time>
      </trkpt>
      <trkpt lat="45.16804" lon="5.95646">
        <ele>2540.1999511719</ele>
        <time>2016-04-10T09:38:20.000Z</time>
      </trkpt>
      <trkpt lat="45.16804" lon="5.95645">
        <ele>2540.3999023438</ele>
        <time>2016-04-10T09:38:21.000Z</time>
      </trkpt>
      <trkpt lat="45.16805" lon="5.9564">
        <ele>2541.1999511719</ele>
        <time>2016-04-10T09:38:26.000Z</time>
      </trkpt>
      <trkpt lat="45.16806" lon="5.95638">
        <ele>2542.1999511719</ele>
        <time>2016-04-10T09:38:30.000Z</time>
      </trkpt>
      <trkpt lat="45.16807" lon="5.95638">
        <ele>2542.6000976562</ele>
        <time>2016-04-10T09:38:34.000Z</time>
      </trkpt>
      <trkpt lat="45.16809" lon="5.95641">
        <ele>2542.6000976562</ele>
        <time>2016-04-10T09:38:40.000Z</time>
      </trkpt>
      <trkpt lat="45.1681" lon="5.95643">
        <ele>2542.1999511719</ele>
        <time>2016-04-10T09:38:44.000Z</time>
      </trkpt>
      <trkpt lat="45.16811" lon="5.95645">
        <ele>2543</ele>
        <time>2016-04-10T09:38:48.000Z</time>
      </trkpt>
      <trkpt lat="45.16811" lon="5.95646">
        <ele>2543.3999023438</ele>
        <time>2016-04-10T09:38:49.000Z</time>
      </trkpt>
      <trkpt lat="45.16813" lon="5.95648">
        <ele>2544.3999023438</ele>
        <time>2016-04-10T09:38:53.000Z</time>
      </trkpt>
      <trkpt lat="45.16813" lon="5.95648">
        <ele>2545.3999023438</ele>
        <time>2016-04-10T09:38:58.000Z</time>
      </trkpt>
      <trkpt lat="45.16813" lon="5.95648">
        <ele>2545.3999023438</ele>
        <time>2016-04-10T09:38:59.000Z</time>
      </trkpt>
      <trkpt lat="45.16814" lon="5.95651">
        <ele>2546</ele>
        <time>2016-04-10T09:39:03.000Z</time>
      </trkpt>
      <trkpt lat="45.16814" lon="5.95651">
        <ele>2546.8000488281</ele>
        <time>2016-04-10T09:39:05.000Z</time>
      </trkpt>
      <trkpt lat="45.16815" lon="5.95653">
        <ele>2547.1999511719</ele>
        <time>2016-04-10T09:39:07.000Z</time>
      </trkpt>
      <trkpt lat="45.16815" lon="5.95655">
        <ele>2547.8000488281</ele>
        <time>2016-04-10T09:39:11.000Z</time>
      </trkpt>
      <trkpt lat="45.16815" lon="5.95655">
        <ele>2548</ele>
        <time>2016-04-10T09:39:12.000Z</time>
      </trkpt>
      <trkpt lat="45.16816" lon="5.95657">
        <ele>2548.8000488281</ele>
        <time>2016-04-10T09:39:17.000Z</time>
      </trkpt>
      <trkpt lat="45.16816" lon="5.95658">
        <ele>2549</ele>
        <time>2016-04-10T09:39:18.000Z</time>
      </trkpt>
      <trkpt lat="45.16817" lon="5.95664">
        <ele>2550</ele>
        <time>2016-04-10T09:39:23.000Z</time>
      </trkpt>
      <trkpt lat="45.16818" lon="5.95665">
        <ele>2550.1999511719</ele>
        <time>2016-04-10T09:39:24.000Z</time>
      </trkpt>
      <trkpt lat="45.16818" lon="5.95665">
        <ele>2551</ele>
        <time>2016-04-10T09:39:27.000Z</time>
      </trkpt>
      <trkpt lat="45.16819" lon="5.95665">
        <ele>2551.1999511719</ele>
        <time>2016-04-10T09:39:29.000Z</time>
      </trkpt>
      <trkpt lat="45.16821" lon="5.95665">
        <ele>2551.6000976562</ele>
        <time>2016-04-10T09:39:32.000Z</time>
      </trkpt>
      <trkpt lat="45.16822" lon="5.95664">
        <ele>2552.1999511719</ele>
        <time>2016-04-10T09:39:35.000Z</time>
      </trkpt>
      <trkpt lat="45.16824" lon="5.95664">
        <ele>2552.3999023438</ele>
        <time>2016-04-10T09:39:36.000Z</time>
      </trkpt>
      <trkpt lat="45.16827" lon="5.95662">
        <ele>2553</ele>
        <time>2016-04-10T09:39:40.000Z</time>
      </trkpt>
      <trkpt lat="45.16827" lon="5.9566">
        <ele>2553.3999023438</ele>
        <time>2016-04-10T09:39:42.000Z</time>
      </trkpt>
      <trkpt lat="45.16828" lon="5.9566">
        <ele>2553.8000488281</ele>
        <time>2016-04-10T09:39:45.000Z</time>
      </trkpt>
      <trkpt lat="45.16829" lon="5.95657">
        <ele>2554.3999023438</ele>
        <time>2016-04-10T09:39:49.000Z</time>
      </trkpt>
      <trkpt lat="45.1683" lon="5.95656">
        <ele>2554.8000488281</ele>
        <time>2016-04-10T09:39:50.000Z</time>
      </trkpt>
      <trkpt lat="45.16833" lon="5.95652">
        <ele>2555.6000976562</ele>
        <time>2016-04-10T09:39:53.000Z</time>
      </trkpt>
      <trkpt lat="45.16833" lon="5.95652">
        <ele>2555.6000976562</ele>
        <time>2016-04-10T09:39:54.000Z</time>
      </trkpt>
      <trkpt lat="45.16836" lon="5.95648">
        <ele>2556</ele>
        <time>2016-04-10T09:39:58.000Z</time>
      </trkpt>
      <trkpt lat="45.16838" lon="5.95643">
        <ele>2556.6000976562</ele>
        <time>2016-04-10T09:40:01.000Z</time>
      </trkpt>
      <trkpt lat="45.16838" lon="5.95642">
        <ele>2557</ele>
        <time>2016-04-10T09:40:03.000Z</time>
      </trkpt>
      <trkpt lat="45.16838" lon="5.95639">
        <ele>2557.6000976562</ele>
        <time>2016-04-10T09:40:08.000Z</time>
      </trkpt>
      <trkpt lat="45.16837" lon="5.95636">
        <ele>2558.3999023438</ele>
        <time>2016-04-10T09:40:12.000Z</time>
      </trkpt>
      <trkpt lat="45.16836" lon="5.95633">
        <ele>2558.8000488281</ele>
        <time>2016-04-10T09:40:14.000Z</time>
      </trkpt>
      <trkpt lat="45.16836" lon="5.95627">
        <ele>2560</ele>
        <time>2016-04-10T09:40:17.000Z</time>
      </trkpt>
      <trkpt lat="45.16836" lon="5.95626">
        <ele>2560.6000976562</ele>
        <time>2016-04-10T09:40:19.000Z</time>
      </trkpt>
      <trkpt lat="45.16836" lon="5.95626">
        <ele>2561</ele>
        <time>2016-04-10T09:40:20.000Z</time>
      </trkpt>
      <trkpt lat="45.16837" lon="5.95623">
        <ele>2562</ele>
        <time>2016-04-10T09:40:23.000Z</time>
      </trkpt>
      <trkpt lat="45.16838" lon="5.95622">
        <ele>2562.1999511719</ele>
        <time>2016-04-10T09:40:24.000Z</time>
      </trkpt>
      <trkpt lat="45.16839" lon="5.95619">
        <ele>2563.1999511719</ele>
        <time>2016-04-10T09:40:29.000Z</time>
      </trkpt>
      <trkpt lat="45.16841" lon="5.95619">
        <ele>2564.3999023438</ele>
        <time>2016-04-10T09:40:32.000Z</time>
      </trkpt>
      <trkpt lat="45.16843" lon="5.95619">
        <ele>2564.8000488281</ele>
        <time>2016-04-10T09:40:35.000Z</time>
      </trkpt>
      <trkpt lat="45.16845" lon="5.95619">
        <ele>2565.3999023438</ele>
        <time>2016-04-10T09:40:38.000Z</time>
      </trkpt>
      <trkpt lat="45.16847" lon="5.95619">
        <ele>2566.6000976562</ele>
        <time>2016-04-10T09:40:40.000Z</time>
      </trkpt>
      <trkpt lat="45.16847" lon="5.95619">
        <ele>2566.8000488281</ele>
        <time>2016-04-10T09:40:41.000Z</time>
      </trkpt>
      <trkpt lat="45.16848" lon="5.95619">
        <ele>2567.6000976562</ele>
        <time>2016-04-10T09:40:45.000Z</time>
      </trkpt>
      <trkpt lat="45.16849" lon="5.95619">
        <ele>2567.8000488281</ele>
        <time>2016-04-10T09:40:46.000Z</time>
      </trkpt>
      <trkpt lat="45.16851" lon="5.9562">
        <ele>2568.3999023438</ele>
        <time>2016-04-10T09:40:51.000Z</time>
      </trkpt>
      <trkpt lat="45.16851" lon="5.9562">
        <ele>2568.6000976562</ele>
        <time>2016-04-10T09:40:52.000Z</time>
      </trkpt>
      <trkpt lat="45.16854" lon="5.95619">
        <ele>2569</ele>
        <time>2016-04-10T09:40:58.000Z</time>
      </trkpt>
      <trkpt lat="45.16857" lon="5.95619">
        <ele>2569.8000488281</ele>
        <time>2016-04-10T09:41:02.000Z</time>
      </trkpt>
      <trkpt lat="45.1686" lon="5.95619">
        <ele>2571</ele>
        <time>2016-04-10T09:41:07.000Z</time>
      </trkpt>
      <trkpt lat="45.16861" lon="5.9562">
        <ele>2571.1999511719</ele>
        <time>2016-04-10T09:41:09.000Z</time>
      </trkpt>
      <trkpt lat="45.16863" lon="5.95621">
        <ele>2571.1999511719</ele>
        <time>2016-04-10T09:41:15.000Z</time>
      </trkpt>
      <trkpt lat="45.16863" lon="5.95624">
        <ele>2571.1999511719</ele>
        <time>2016-04-10T09:41:19.000Z</time>
      </trkpt>
      <trkpt lat="45.16862" lon="5.95627">
        <ele>2571.8000488281</ele>
        <time>2016-04-10T09:41:23.000Z</time>
      </trkpt>
      <trkpt lat="45.16862" lon="5.95628">
        <ele>2572.1999511719</ele>
        <time>2016-04-10T09:41:25.000Z</time>
      </trkpt>
      <trkpt lat="45.16862" lon="5.95628">
        <ele>2573</ele>
        <time>2016-04-10T09:41:27.000Z</time>
      </trkpt>
      <trkpt lat="45.16862" lon="5.95629">
        <ele>2573.1999511719</ele>
        <time>2016-04-10T09:41:29.000Z</time>
      </trkpt>
      <trkpt lat="45.16861" lon="5.9563">
        <ele>2573.3999023438</ele>
        <time>2016-04-10T09:41:31.000Z</time>
      </trkpt>
      <trkpt lat="45.16861" lon="5.95632">
        <ele>2573.3999023438</ele>
        <time>2016-04-10T09:41:35.000Z</time>
      </trkpt>
      <trkpt lat="45.16861" lon="5.95632">
        <ele>2573.8000488281</ele>
        <time>2016-04-10T09:41:39.000Z</time>
      </trkpt>
      <trkpt lat="45.16861" lon="5.95632">
        <ele>2574.1999511719</ele>
        <time>2016-04-10T09:41:41.000Z</time>
      </trkpt>
      <trkpt lat="45.16861" lon="5.95632">
        <ele>2574.8000488281</ele>
        <time>2016-04-10T09:41:43.000Z</time>
      </trkpt>
      <trkpt lat="45.16861" lon="5.95634">
        <ele>2575.1999511719</ele>
        <time>2016-04-10T09:41:46.000Z</time>
      </trkpt>
      <trkpt lat="45.16861" lon="5.95636">
        <ele>2575.8000488281</ele>
        <time>2016-04-10T09:41:48.000Z</time>
      </trkpt>
      <trkpt lat="45.16861" lon="5.95636">
        <ele>2576.6000976562</ele>
        <time>2016-04-10T09:41:50.000Z</time>
      </trkpt>
      <trkpt lat="45.16861" lon="5.95636">
        <ele>2577.6000976562</ele>
        <time>2016-04-10T09:41:52.000Z</time>
      </trkpt>
      <trkpt lat="45.16861" lon="5.95636">
        <ele>2578.1999511719</ele>
        <time>2016-04-10T09:41:54.000Z</time>
      </trkpt>
      <trkpt lat="45.16861" lon="5.95636">
        <ele>2578.8000488281</ele>
        <time>2016-04-10T09:41:56.000Z</time>
      </trkpt>
      <trkpt lat="45.16861" lon="5.95636">
        <ele>2579.8000488281</ele>
        <time>2016-04-10T09:41:59.000Z</time>
      </trkpt>
      <trkpt lat="45.16861" lon="5.95636">
        <ele>2580.8000488281</ele>
        <time>2016-04-10T09:42:02.000Z</time>
      </trkpt>
      <trkpt lat="45.16861" lon="5.95636">
        <ele>2581</ele>
        <time>2016-04-10T09:42:03.000Z</time>
      </trkpt>
      <trkpt lat="45.16874" lon="5.95638">
        <ele>2581</ele>
        <time>2016-04-10T09:42:10.000Z</time>
      </trkpt>
      <trkpt lat="45.16879" lon="5.95638">
        <ele>2581.6000976562</ele>
        <time>2016-04-10T09:42:17.000Z</time>
      </trkpt>
      <trkpt lat="45.1688" lon="5.95637">
        <ele>2582</ele>
        <time>2016-04-10T09:42:19.000Z</time>
      </trkpt>
      <trkpt lat="45.16882" lon="5.95637">
        <ele>2583</ele>
        <time>2016-04-10T09:42:23.000Z</time>
      </trkpt>
      <trkpt lat="45.16882" lon="5.95637">
        <ele>2583.1999511719</ele>
        <time>2016-04-10T09:42:26.000Z</time>
      </trkpt>
      <trkpt lat="45.16882" lon="5.95637">
        <ele>2583.6000976562</ele>
        <time>2016-04-10T09:42:30.000Z</time>
      </trkpt>
      <trkpt lat="45.16886" lon="5.95635">
        <ele>2584.1999511719</ele>
        <time>2016-04-10T09:42:34.000Z</time>
      </trkpt>
      <trkpt lat="45.16889" lon="5.95634">
        <ele>2584.8000488281</ele>
        <time>2016-04-10T09:42:38.000Z</time>
      </trkpt>
      <trkpt lat="45.16891" lon="5.95635">
        <ele>2585.3999023438</ele>
        <time>2016-04-10T09:42:40.000Z</time>
      </trkpt>
      <trkpt lat="45.16891" lon="5.95635">
        <ele>2586.3999023438</ele>
        <time>2016-04-10T09:42:43.000Z</time>
      </trkpt>
      <trkpt lat="45.16891" lon="5.95635">
        <ele>2587.8000488281</ele>
        <time>2016-04-10T09:42:46.000Z</time>
      </trkpt>
      <trkpt lat="45.16891" lon="5.95635">
        <ele>2588.3999023438</ele>
        <time>2016-04-10T09:42:48.000Z</time>
      </trkpt>
      <trkpt lat="45.16891" lon="5.95635">
        <ele>2588.8000488281</ele>
        <time>2016-04-10T09:42:51.000Z</time>
      </trkpt>
      <trkpt lat="45.16892" lon="5.95636">
        <ele>2589</ele>
        <time>2016-04-10T09:42:53.000Z</time>
      </trkpt>
      <trkpt lat="45.16893" lon="5.95637">
        <ele>2589.6000976562</ele>
        <time>2016-04-10T09:42:57.000Z</time>
      </trkpt>
      <trkpt lat="45.16893" lon="5.95637">
        <ele>2589.8000488281</ele>
        <time>2016-04-10T09:42:59.000Z</time>
      </trkpt>
      <trkpt lat="45.16894" lon="5.95639">
        <ele>2590.6000976562</ele>
        <time>2016-04-10T09:43:03.000Z</time>
      </trkpt>
      <trkpt lat="45.16894" lon="5.95639">
        <ele>2590.8000488281</ele>
        <time>2016-04-10T09:43:05.000Z</time>
      </trkpt>
      <trkpt lat="45.16894" lon="5.95639">
        <ele>2591</ele>
        <time>2016-04-10T09:43:07.000Z</time>
      </trkpt>
      <trkpt lat="45.16896" lon="5.95641">
        <ele>2591.3999023438</ele>
        <time>2016-04-10T09:43:11.000Z</time>
      </trkpt>
      <trkpt lat="45.16901" lon="5.95646">
        <ele>2592</ele>
        <time>2016-04-10T09:43:15.000Z</time>
      </trkpt>
      <trkpt lat="45.16901" lon="5.95646">
        <ele>2592</ele>
        <time>2016-04-10T09:43:16.000Z</time>
      </trkpt>
      <trkpt lat="45.16904" lon="5.95648">
        <ele>2592.1999511719</ele>
        <time>2016-04-10T09:43:18.000Z</time>
      </trkpt>
      <trkpt lat="45.16906" lon="5.95651">
        <ele>2592.6000976562</ele>
        <time>2016-04-10T09:43:21.000Z</time>
      </trkpt>
      <trkpt lat="45.16905" lon="5.95651">
        <ele>2593.1999511719</ele>
        <time>2016-04-10T09:43:25.000Z</time>
      </trkpt>
      <trkpt lat="45.16905" lon="5.95651">
        <ele>2593.3999023438</ele>
        <time>2016-04-10T09:43:28.000Z</time>
      </trkpt>
      <trkpt lat="45.16905" lon="5.95651">
        <ele>2593.8000488281</ele>
        <time>2016-04-10T09:43:44.000Z</time>
      </trkpt>
      <trkpt lat="45.16905" lon="5.95651">
        <ele>2593.8000488281</ele>
        <time>2016-04-10T09:44:05.000Z</time>
      </trkpt>
      <trkpt lat="45.16905" lon="5.95651">
        <ele>2594</ele>
        <time>2016-04-10T09:44:26.000Z</time>
      </trkpt>
      <trkpt lat="45.16905" lon="5.95651">
        <ele>2594.1999511719</ele>
        <time>2016-04-10T09:44:39.000Z</time>
      </trkpt>
      <trkpt lat="45.16908" lon="5.95656">
        <ele>2594.1999511719</ele>
        <time>2016-04-10T09:44:42.000Z</time>
      </trkpt>
      <trkpt lat="45.16911" lon="5.9566">
        <ele>2594.6000976562</ele>
        <time>2016-04-10T09:44:46.000Z</time>
      </trkpt>
      <trkpt lat="45.16915" lon="5.95661">
        <ele>2595.1999511719</ele>
        <time>2016-04-10T09:44:50.000Z</time>
      </trkpt>
      <trkpt lat="45.16916" lon="5.95662">
        <ele>2595.1999511719</ele>
        <time>2016-04-10T09:44:51.000Z</time>
      </trkpt>
      <trkpt lat="45.16919" lon="5.95663">
        <ele>2596</ele>
        <time>2016-04-10T09:44:56.000Z</time>
      </trkpt>
      <trkpt lat="45.16919" lon="5.95663">
        <ele>2596.3999023438</ele>
        <time>2016-04-10T09:44:57.000Z</time>
      </trkpt>
      <trkpt lat="45.16924" lon="5.95666">
        <ele>2596.8000488281</ele>
        <time>2016-04-10T09:45:03.000Z</time>
      </trkpt>
      <trkpt lat="45.16926" lon="5.95666">
        <ele>2597.3999023438</ele>
        <time>2016-04-10T09:45:05.000Z</time>
      </trkpt>
      <trkpt lat="45.16929" lon="5.95665">
        <ele>2597.8000488281</ele>
        <time>2016-04-10T09:45:08.000Z</time>
      </trkpt>
      <trkpt lat="45.16933" lon="5.95664">
        <ele>2598.1999511719</ele>
        <time>2016-04-10T09:45:13.000Z</time>
      </trkpt>
      <trkpt lat="45.16936" lon="5.95663">
        <ele>2598.3999023438</ele>
        <time>2016-04-10T09:45:15.000Z</time>
      </trkpt>
      <trkpt lat="45.16939" lon="5.95663">
        <ele>2598.8000488281</ele>
        <time>2016-04-10T09:45:18.000Z</time>
      </trkpt>
      <trkpt lat="45.16942" lon="5.95662">
        <ele>2599.1999511719</ele>
        <time>2016-04-10T09:45:23.000Z</time>
      </trkpt>
      <trkpt lat="45.16943" lon="5.95662">
        <ele>2599.3999023438</ele>
        <time>2016-04-10T09:45:24.000Z</time>
      </trkpt>
      <trkpt lat="45.16946" lon="5.95661">
        <ele>2600.6000976562</ele>
        <time>2016-04-10T09:45:28.000Z</time>
      </trkpt>
      <trkpt lat="45.16948" lon="5.95661">
        <ele>2601.1999511719</ele>
        <time>2016-04-10T09:45:30.000Z</time>
      </trkpt>
      <trkpt lat="45.16951" lon="5.95663">
        <ele>2601.8000488281</ele>
        <time>2016-04-10T09:45:35.000Z</time>
      </trkpt>
      <trkpt lat="45.16953" lon="5.95665">
        <ele>2602.1999511719</ele>
        <time>2016-04-10T09:45:37.000Z</time>
      </trkpt>
      <trkpt lat="45.16956" lon="5.95668">
        <ele>2602.8000488281</ele>
        <time>2016-04-10T09:45:41.000Z</time>
      </trkpt>
      <trkpt lat="45.16958" lon="5.95671">
        <ele>2604</ele>
        <time>2016-04-10T09:45:45.000Z</time>
      </trkpt>
      <trkpt lat="45.1696" lon="5.95671">
        <ele>2604.3999023438</ele>
        <time>2016-04-10T09:45:47.000Z</time>
      </trkpt>
      <trkpt lat="45.16961" lon="5.95673">
        <ele>2605</ele>
        <time>2016-04-10T09:45:50.000Z</time>
      </trkpt>
      <trkpt lat="45.1696" lon="5.9567">
        <ele>2606.1999511719</ele>
        <time>2016-04-10T09:45:54.000Z</time>
      </trkpt>
      <trkpt lat="45.16961" lon="5.9567">
        <ele>2607</ele>
        <time>2016-04-10T09:45:59.000Z</time>
      </trkpt>
      <trkpt lat="45.16963" lon="5.95672">
        <ele>2607.1999511719</ele>
        <time>2016-04-10T09:46:02.000Z</time>
      </trkpt>
      <trkpt lat="45.16963" lon="5.95671">
        <ele>2607.3999023438</ele>
        <time>2016-04-10T09:46:03.000Z</time>
      </trkpt>
      <trkpt lat="45.16964" lon="5.95674">
        <ele>2608.3999023438</ele>
        <time>2016-04-10T09:46:09.000Z</time>
      </trkpt>
      <trkpt lat="45.16966" lon="5.95677">
        <ele>2609.1999511719</ele>
        <time>2016-04-10T09:46:13.000Z</time>
      </trkpt>
      <trkpt lat="45.16966" lon="5.95677">
        <ele>2609.3999023438</ele>
        <time>2016-04-10T09:46:17.000Z</time>
      </trkpt>
      <trkpt lat="45.16969" lon="5.9568">
        <ele>2610.6000976562</ele>
        <time>2016-04-10T09:46:23.000Z</time>
      </trkpt>
      <trkpt lat="45.1697" lon="5.95681">
        <ele>2610.8000488281</ele>
        <time>2016-04-10T09:46:25.000Z</time>
      </trkpt>
      <trkpt lat="45.16975" lon="5.95685">
        <ele>2611.6000976562</ele>
        <time>2016-04-10T09:46:30.000Z</time>
      </trkpt>
      <trkpt lat="45.16976" lon="5.95687">
        <ele>2612.3999023438</ele>
        <time>2016-04-10T09:46:34.000Z</time>
      </trkpt>
      <trkpt lat="45.16977" lon="5.95688">
        <ele>2612.6000976562</ele>
        <time>2016-04-10T09:46:36.000Z</time>
      </trkpt>
      <trkpt lat="45.1698" lon="5.95689">
        <ele>2613</ele>
        <time>2016-04-10T09:46:38.000Z</time>
      </trkpt>
      <trkpt lat="45.1698" lon="5.95689">
        <ele>2613.8000488281</ele>
        <time>2016-04-10T09:46:41.000Z</time>
      </trkpt>
      <trkpt lat="45.1698" lon="5.95689">
        <ele>2614</ele>
        <time>2016-04-10T09:46:42.000Z</time>
      </trkpt>
      <trkpt lat="45.16982" lon="5.95692">
        <ele>2615</ele>
        <time>2016-04-10T09:46:47.000Z</time>
      </trkpt>
      <trkpt lat="45.16983" lon="5.95693">
        <ele>2615.8000488281</ele>
        <time>2016-04-10T09:46:50.000Z</time>
      </trkpt>
      <trkpt lat="45.16984" lon="5.95694">
        <ele>2616.1999511719</ele>
        <time>2016-04-10T09:46:52.000Z</time>
      </trkpt>
      <trkpt lat="45.16985" lon="5.95697">
        <ele>2616.6000976562</ele>
        <time>2016-04-10T09:46:55.000Z</time>
      </trkpt>
      <trkpt lat="45.16986" lon="5.95698">
        <ele>2617.1999511719</ele>
        <time>2016-04-10T09:46:58.000Z</time>
      </trkpt>
      <trkpt lat="45.16988" lon="5.95699">
        <ele>2617.6000976562</ele>
        <time>2016-04-10T09:47:02.000Z</time>
      </trkpt>
      <trkpt lat="45.16988" lon="5.95699">
        <ele>2618.3999023438</ele>
        <time>2016-04-10T09:47:04.000Z</time>
      </trkpt>
      <trkpt lat="45.16988" lon="5.95699">
        <ele>2619.6000976562</ele>
        <time>2016-04-10T09:47:08.000Z</time>
      </trkpt>
      <trkpt lat="45.1699" lon="5.95699">
        <ele>2619.8000488281</ele>
        <time>2016-04-10T09:47:09.000Z</time>
      </trkpt>
      <trkpt lat="45.16992" lon="5.957">
        <ele>2620</ele>
        <time>2016-04-10T09:47:14.000Z</time>
      </trkpt>
      <trkpt lat="45.16993" lon="5.957">
        <ele>2620.6000976562</ele>
        <time>2016-04-10T09:47:19.000Z</time>
      </trkpt>
      <trkpt lat="45.16995" lon="5.95698">
        <ele>2621.1999511719</ele>
        <time>2016-04-10T09:47:23.000Z</time>
      </trkpt>
      <trkpt lat="45.16996" lon="5.95698">
        <ele>2621.6000976562</ele>
        <time>2016-04-10T09:47:25.000Z</time>
      </trkpt>
      <trkpt lat="45.16998" lon="5.95697">
        <ele>2622.1999511719</ele>
        <time>2016-04-10T09:47:27.000Z</time>
      </trkpt>
      <trkpt lat="45.16999" lon="5.95695">
        <ele>2622.8000488281</ele>
        <time>2016-04-10T09:47:30.000Z</time>
      </trkpt>
      <trkpt lat="45.17" lon="5.95696">
        <ele>2623</ele>
        <time>2016-04-10T09:47:31.000Z</time>
      </trkpt>
      <trkpt lat="45.17003" lon="5.95695">
        <ele>2623.6000976562</ele>
        <time>2016-04-10T09:47:35.000Z</time>
      </trkpt>
      <trkpt lat="45.17004" lon="5.95695">
        <ele>2624</ele>
        <time>2016-04-10T09:47:37.000Z</time>
      </trkpt>
      <trkpt lat="45.17005" lon="5.95695">
        <ele>2624.3999023438</ele>
        <time>2016-04-10T09:47:39.000Z</time>
      </trkpt>
      <trkpt lat="45.17005" lon="5.95695">
        <ele>2625.1999511719</ele>
        <time>2016-04-10T09:47:42.000Z</time>
      </trkpt>
      <trkpt lat="45.17007" lon="5.95694">
        <ele>2625.8000488281</ele>
        <time>2016-04-10T09:47:47.000Z</time>
      </trkpt>
      <trkpt lat="45.17008" lon="5.95693">
        <ele>2626.3999023438</ele>
        <time>2016-04-10T09:47:51.000Z</time>
      </trkpt>
      <trkpt lat="45.17008" lon="5.95693">
        <ele>2626.8000488281</ele>
        <time>2016-04-10T09:47:52.000Z</time>
      </trkpt>
      <trkpt lat="45.17008" lon="5.95693">
        <ele>2627.3999023438</ele>
        <time>2016-04-10T09:47:55.000Z</time>
      </trkpt>
      <trkpt lat="45.17008" lon="5.95693">
        <ele>2628</ele>
        <time>2016-04-10T09:48:01.000Z</time>
      </trkpt>
      <trkpt lat="45.17009" lon="5.95694">
        <ele>2627.3999023438</ele>
        <time>2016-04-10T09:48:09.000Z</time>
      </trkpt>
      <trkpt lat="45.1701" lon="5.95696">
        <ele>2628</ele>
        <time>2016-04-10T09:48:14.000Z</time>
      </trkpt>
      <trkpt lat="45.17011" lon="5.95698">
        <ele>2628.6000976562</ele>
        <time>2016-04-10T09:48:16.000Z</time>
      </trkpt>
      <trkpt lat="45.17012" lon="5.95698">
        <ele>2628.8000488281</ele>
        <time>2016-04-10T09:48:18.000Z</time>
      </trkpt>
      <trkpt lat="45.17014" lon="5.95698">
        <ele>2629.3999023438</ele>
        <time>2016-04-10T09:48:21.000Z</time>
      </trkpt>
      <trkpt lat="45.17014" lon="5.95698">
        <ele>2629.6000976562</ele>
        <time>2016-04-10T09:48:22.000Z</time>
      </trkpt>
      <trkpt lat="45.17014" lon="5.95699">
        <ele>2630.3999023438</ele>
        <time>2016-04-10T09:48:25.000Z</time>
      </trkpt>
      <trkpt lat="45.17014" lon="5.95699">
        <ele>2630.6000976562</ele>
        <time>2016-04-10T09:48:27.000Z</time>
      </trkpt>
      <trkpt lat="45.17015" lon="5.95701">
        <ele>2631.8000488281</ele>
        <time>2016-04-10T09:48:32.000Z</time>
      </trkpt>
      <trkpt lat="45.17015" lon="5.95703">
        <ele>2632.8000488281</ele>
        <time>2016-04-10T09:48:36.000Z</time>
      </trkpt>
      <trkpt lat="45.17015" lon="5.95704">
        <ele>2633</ele>
        <time>2016-04-10T09:48:37.000Z</time>
      </trkpt>
      <trkpt lat="45.17016" lon="5.95706">
        <ele>2633.8000488281</ele>
        <time>2016-04-10T09:48:40.000Z</time>
      </trkpt>
      <trkpt lat="45.17016" lon="5.95707">
        <ele>2634</ele>
        <time>2016-04-10T09:48:41.000Z</time>
      </trkpt>
      <trkpt lat="45.17016" lon="5.9571">
        <ele>2634.1999511719</ele>
        <time>2016-04-10T09:48:44.000Z</time>
      </trkpt>
      <trkpt lat="45.17015" lon="5.95713">
        <ele>2634.8000488281</ele>
        <time>2016-04-10T09:48:47.000Z</time>
      </trkpt>
      <trkpt lat="45.17015" lon="5.95714">
        <ele>2635</ele>
        <time>2016-04-10T09:48:48.000Z</time>
      </trkpt>
      <trkpt lat="45.17015" lon="5.95716">
        <ele>2635.8000488281</ele>
        <time>2016-04-10T09:48:50.000Z</time>
      </trkpt>
      <trkpt lat="45.17015" lon="5.95717">
        <ele>2636</ele>
        <time>2016-04-10T09:48:51.000Z</time>
      </trkpt>
      <trkpt lat="45.17015" lon="5.9572">
        <ele>2637.1999511719</ele>
        <time>2016-04-10T09:48:56.000Z</time>
      </trkpt>
      <trkpt lat="45.17015" lon="5.9572">
        <ele>2637.3999023438</ele>
        <time>2016-04-10T09:48:57.000Z</time>
      </trkpt>
      <trkpt lat="45.17014" lon="5.95725">
        <ele>2637.3999023438</ele>
        <time>2016-04-10T09:49:05.000Z</time>
      </trkpt>
      <trkpt lat="45.17016" lon="5.95722">
        <ele>2637.8000488281</ele>
        <time>2016-04-10T09:49:10.000Z</time>
      </trkpt>
      <trkpt lat="45.17018" lon="5.95719">
        <ele>2637.8000488281</ele>
        <time>2016-04-10T09:49:14.000Z</time>
      </trkpt>
      <trkpt lat="45.17019" lon="5.95717">
        <ele>2638.3999023438</ele>
        <time>2016-04-10T09:49:18.000Z</time>
      </trkpt>
      <trkpt lat="45.1702" lon="5.95717">
        <ele>2638.6000976562</ele>
        <time>2016-04-10T09:49:21.000Z</time>
      </trkpt>
      <trkpt lat="45.17021" lon="5.95715">
        <ele>2639.3999023438</ele>
        <time>2016-04-10T09:49:25.000Z</time>
      </trkpt>
      <trkpt lat="45.17021" lon="5.95715">
        <ele>2639.6000976562</ele>
        <time>2016-04-10T09:49:26.000Z</time>
      </trkpt>
      <trkpt lat="45.17022" lon="5.95715">
        <ele>2640.1999511719</ele>
        <time>2016-04-10T09:49:29.000Z</time>
      </trkpt>
      <trkpt lat="45.17022" lon="5.95715">
        <ele>2640.6000976562</ele>
        <time>2016-04-10T09:49:36.000Z</time>
      </trkpt>
      <trkpt lat="45.17023" lon="5.95717">
        <ele>2641</ele>
        <time>2016-04-10T09:49:40.000Z</time>
      </trkpt>
      <trkpt lat="45.17023" lon="5.95717">
        <ele>2641.3999023438</ele>
        <time>2016-04-10T09:49:44.000Z</time>
      </trkpt>
      <trkpt lat="45.17023" lon="5.95718">
        <ele>2641.8000488281</ele>
        <time>2016-04-10T09:49:46.000Z</time>
      </trkpt>
      <trkpt lat="45.17024" lon="5.95718">
        <ele>2642.3999023438</ele>
        <time>2016-04-10T09:49:49.000Z</time>
      </trkpt>
      <trkpt lat="45.17025" lon="5.9572">
        <ele>2643</ele>
        <time>2016-04-10T09:49:52.000Z</time>
      </trkpt>
      <trkpt lat="45.17025" lon="5.9572">
        <ele>2643.8000488281</ele>
        <time>2016-04-10T09:49:55.000Z</time>
      </trkpt>
      <trkpt lat="45.17025" lon="5.95721">
        <ele>2644.1999511719</ele>
        <time>2016-04-10T09:49:56.000Z</time>
      </trkpt>
      <trkpt lat="45.17026" lon="5.95723">
        <ele>2644.3999023438</ele>
        <time>2016-04-10T09:49:59.000Z</time>
      </trkpt>
      <trkpt lat="45.17026" lon="5.95728">
        <ele>2644.8000488281</ele>
        <time>2016-04-10T09:50:04.000Z</time>
      </trkpt>
      <trkpt lat="45.17026" lon="5.95729">
        <ele>2645.1999511719</ele>
        <time>2016-04-10T09:50:05.000Z</time>
      </trkpt>
      <trkpt lat="45.17027" lon="5.95731">
        <ele>2646</ele>
        <time>2016-04-10T09:50:11.000Z</time>
      </trkpt>
      <trkpt lat="45.17027" lon="5.95732">
        <ele>2646.1999511719</ele>
        <time>2016-04-10T09:50:13.000Z</time>
      </trkpt>
      <trkpt lat="45.17026" lon="5.95733">
        <ele>2647.1999511719</ele>
        <time>2016-04-10T09:50:16.000Z</time>
      </trkpt>
      <trkpt lat="45.17025" lon="5.95734">
        <ele>2647.6000976562</ele>
        <time>2016-04-10T09:50:17.000Z</time>
      </trkpt>
      <trkpt lat="45.17025" lon="5.95736">
        <ele>2648.6000976562</ele>
        <time>2016-04-10T09:50:22.000Z</time>
      </trkpt>
      <trkpt lat="45.17024" lon="5.95736">
        <ele>2648.8000488281</ele>
        <time>2016-04-10T09:50:31.000Z</time>
      </trkpt>
      <trkpt lat="45.17023" lon="5.95744">
        <ele>2649.1999511719</ele>
        <time>2016-04-10T09:50:37.000Z</time>
      </trkpt>
      <trkpt lat="45.17025" lon="5.95745">
        <ele>2649.3999023438</ele>
        <time>2016-04-10T09:50:40.000Z</time>
      </trkpt>
      <trkpt lat="45.17024" lon="5.95744">
        <ele>2649.6000976562</ele>
        <time>2016-04-10T09:50:42.000Z</time>
      </trkpt>
      <trkpt lat="45.17021" lon="5.95744">
        <ele>2649.6000976562</ele>
        <time>2016-04-10T09:50:43.000Z</time>
      </trkpt>
      <trkpt lat="45.1702" lon="5.95744">
        <ele>2649.8000488281</ele>
        <time>2016-04-10T09:50:44.000Z</time>
      </trkpt>
      <trkpt lat="45.17012" lon="5.9574">
        <ele>2650.3999023438</ele>
        <time>2016-04-10T09:50:49.000Z</time>
      </trkpt>
      <trkpt lat="45.17009" lon="5.9574">
        <ele>2650.6000976562</ele>
        <time>2016-04-10T09:50:50.000Z</time>
      </trkpt>
      <trkpt lat="45.17008" lon="5.95739">
        <ele>2650.6000976562</ele>
        <time>2016-04-10T09:50:51.000Z</time>
      </trkpt>
      <trkpt lat="45.17004" lon="5.95737">
        <ele>2651</ele>
        <time>2016-04-10T09:50:53.000Z</time>
      </trkpt>
      <trkpt lat="45.16997" lon="5.95737">
        <ele>2651.6000976562</ele>
        <time>2016-04-10T09:50:56.000Z</time>
      </trkpt>
      <trkpt lat="45.16994" lon="5.95735">
        <ele>2651.8000488281</ele>
        <time>2016-04-10T09:50:57.000Z</time>
      </trkpt>
      <trkpt lat="45.16988" lon="5.95734">
        <ele>2652.1999511719</ele>
        <time>2016-04-10T09:50:59.000Z</time>
      </trkpt>
      <trkpt lat="45.16975" lon="5.95732">
        <ele>2652.6000976562</ele>
        <time>2016-04-10T09:51:02.000Z</time>
      </trkpt>
      <trkpt lat="45.16971" lon="5.95731">
        <ele>2652.8000488281</ele>
        <time>2016-04-10T09:51:03.000Z</time>
      </trkpt>
      <trkpt lat="45.16956" lon="5.95729">
        <ele>2653</ele>
        <time>2016-04-10T09:51:06.000Z</time>
      </trkpt>
      <trkpt lat="45.16951" lon="5.95728">
        <ele>2653</ele>
        <time>2016-04-10T09:51:07.000Z</time>
      </trkpt>
      <trkpt lat="45.16929" lon="5.95725">
        <ele>2653.8000488281</ele>
        <time>2016-04-10T09:51:11.000Z</time>
      </trkpt>
      <trkpt lat="45.16925" lon="5.95724">
        <ele>2654.1999511719</ele>
        <time>2016-04-10T09:51:12.000Z</time>
      </trkpt>
      <trkpt lat="45.16914" lon="5.95723">
        <ele>2654.8000488281</ele>
        <time>2016-04-10T09:51:14.000Z</time>
      </trkpt>
      <trkpt lat="45.16904" lon="5.95722">
        <ele>2655.1999511719</ele>
        <time>2016-04-10T09:51:16.000Z</time>
      </trkpt>
      <trkpt lat="45.16899" lon="5.95725">
        <ele>2655.6000976562</ele>
        <time>2016-04-10T09:51:19.000Z</time>
      </trkpt>
      <trkpt lat="45.16898" lon="5.95724">
        <ele>2656</ele>
        <time>2016-04-10T09:51:22.000Z</time>
      </trkpt>
      <trkpt lat="45.16896" lon="5.95723">
        <ele>2656.8000488281</ele>
        <time>2016-04-10T09:51:26.000Z</time>
      </trkpt>
      <trkpt lat="45.16893" lon="5.95722">
        <ele>2657</ele>
        <time>2016-04-10T09:51:28.000Z</time>
      </trkpt>
      <trkpt lat="45.16891" lon="5.95722">
        <ele>2657.1999511719</ele>
        <time>2016-04-10T09:51:30.000Z</time>
      </trkpt>
      <trkpt lat="45.16889" lon="5.95722">
        <ele>2657.3999023438</ele>
        <time>2016-04-10T09:51:31.000Z</time>
      </trkpt>
      <trkpt lat="45.16886" lon="5.9572">
        <ele>2657.3999023438</ele>
        <time>2016-04-10T09:51:32.000Z</time>
      </trkpt>
      <trkpt lat="45.16882" lon="5.9572">
        <ele>2658</ele>
        <time>2016-04-10T09:51:34.000Z</time>
      </trkpt>
      <trkpt lat="45.16881" lon="5.9572">
        <ele>2658.1999511719</ele>
        <time>2016-04-10T09:51:35.000Z</time>
      </trkpt>
      <trkpt lat="45.1688" lon="5.95719">
        <ele>2659</ele>
        <time>2016-04-10T09:51:38.000Z</time>
      </trkpt>
      <trkpt lat="45.16879" lon="5.95719">
        <ele>2659.1999511719</ele>
        <time>2016-04-10T09:51:39.000Z</time>
      </trkpt>
      <trkpt lat="45.16872" lon="5.95718">
        <ele>2660.1999511719</ele>
        <time>2016-04-10T09:51:43.000Z</time>
      </trkpt>
      <trkpt lat="45.16861" lon="5.95718">
        <ele>2660.6000976562</ele>
        <time>2016-04-10T09:51:46.000Z</time>
      </trkpt>
      <trkpt lat="45.16839" lon="5.95711">
        <ele>2661.1999511719</ele>
        <time>2016-04-10T09:51:50.000Z</time>
      </trkpt>
      <trkpt lat="45.16833" lon="5.95711">
        <ele>2661.1999511719</ele>
        <time>2016-04-10T09:51:51.000Z</time>
      </trkpt>
      <trkpt lat="45.16818" lon="5.95706">
        <ele>2662.1999511719</ele>
        <time>2016-04-10T09:51:54.000Z</time>
      </trkpt>
      <trkpt lat="45.16812" lon="5.95706">
        <ele>2662.3999023438</ele>
        <time>2016-04-10T09:51:55.000Z</time>
      </trkpt>
      <trkpt lat="45.16797" lon="5.95703">
        <ele>2663</ele>
        <time>2016-04-10T09:51:58.000Z</time>
      </trkpt>
      <trkpt lat="45.16781" lon="5.957">
        <ele>2663.3999023438</ele>
        <time>2016-04-10T09:52:01.000Z</time>
      </trkpt>
      <trkpt lat="45.16775" lon="5.95701">
        <ele>2663.6000976562</ele>
        <time>2016-04-10T09:52:02.000Z</time>
      </trkpt>
      <trkpt lat="45.16772" lon="5.95699">
        <ele>2663.6000976562</ele>
        <time>2016-04-10T09:52:03.000Z</time>
      </trkpt>
      <trkpt lat="45.16756" lon="5.95699">
        <ele>2664</ele>
        <time>2016-04-10T09:52:06.000Z</time>
      </trkpt>
      <trkpt lat="45.16741" lon="5.95697">
        <ele>2664.3999023438</ele>
        <time>2016-04-10T09:52:09.000Z</time>
      </trkpt>
      <trkpt lat="45.16729" lon="5.95697">
        <ele>2664.6000976562</ele>
        <time>2016-04-10T09:52:11.000Z</time>
      </trkpt>
      <trkpt lat="45.16716" lon="5.95694">
        <ele>2665</ele>
        <time>2016-04-10T09:52:13.000Z</time>
      </trkpt>
      <trkpt lat="45.1671" lon="5.9569">
        <ele>2665.3999023438</ele>
        <time>2016-04-10T09:52:16.000Z</time>
      </trkpt>
      <trkpt lat="45.16711" lon="5.9569">
        <ele>2665.6000976562</ele>
        <time>2016-04-10T09:52:17.000Z</time>
      </trkpt>
      <trkpt lat="45.16711" lon="5.9569">
        <ele>2666.1999511719</ele>
        <time>2016-04-10T09:52:21.000Z</time>
      </trkpt>
      <trkpt lat="45.16711" lon="5.9569">
        <ele>2666.8000488281</ele>
        <time>2016-04-10T09:52:24.000Z</time>
      </trkpt>
      <trkpt lat="45.16711" lon="5.9569">
        <ele>2667.6000976562</ele>
        <time>2016-04-10T09:52:29.000Z</time>
      </trkpt>
      <trkpt lat="45.16712" lon="5.95691">
        <ele>2667</ele>
        <time>2016-04-10T09:52:35.000Z</time>
      </trkpt>
      <trkpt lat="45.16713" lon="5.95693">
        <ele>2667.3999023438</ele>
        <time>2016-04-10T09:52:38.000Z</time>
      </trkpt>
      <trkpt lat="45.16713" lon="5.95692">
        <ele>2668</ele>
        <time>2016-04-10T09:52:40.000Z</time>
      </trkpt>
      <trkpt lat="45.16714" lon="5.95693">
        <ele>2668.6000976562</ele>
        <time>2016-04-10T09:52:44.000Z</time>
      </trkpt>
      <trkpt lat="45.16714" lon="5.95693">
        <ele>2669.1999511719</ele>
        <time>2016-04-10T09:52:47.000Z</time>
      </trkpt>
      <trkpt lat="45.16714" lon="5.95693">
        <ele>2669.8000488281</ele>
        <time>2016-04-10T09:52:49.000Z</time>
      </trkpt>
      <trkpt lat="45.16715" lon="5.95695">
        <ele>2670.3999023438</ele>
        <time>2016-04-10T09:52:53.000Z</time>
      </trkpt>
      <trkpt lat="45.16716" lon="5.95697">
        <ele>2670.6000976562</ele>
        <time>2016-04-10T09:52:54.000Z</time>
      </trkpt>
      <trkpt lat="45.16717" lon="5.95699">
        <ele>2671.3999023438</ele>
        <time>2016-04-10T09:52:58.000Z</time>
      </trkpt>
      <trkpt lat="45.16717" lon="5.95699">
        <ele>2671.3999023438</ele>
        <time>2016-04-10T09:52:59.000Z</time>
      </trkpt>
      <trkpt lat="45.16718" lon="5.95702">
        <ele>2673</ele>
        <time>2016-04-10T09:53:05.000Z</time>
      </trkpt>
      <trkpt lat="45.16719" lon="5.95707">
        <ele>2673.6000976562</ele>
        <time>2016-04-10T09:53:09.000Z</time>
      </trkpt>
      <trkpt lat="45.1672" lon="5.95709">
        <ele>2674.1999511719</ele>
        <time>2016-04-10T09:53:12.000Z</time>
      </trkpt>
      <trkpt lat="45.1672" lon="5.95709">
        <ele>2674.8000488281</ele>
        <time>2016-04-10T09:53:15.000Z</time>
      </trkpt>
      <trkpt lat="45.1672" lon="5.95709">
        <ele>2675.1999511719</ele>
        <time>2016-04-10T09:53:17.000Z</time>
      </trkpt>
      <trkpt lat="45.1672" lon="5.95709">
        <ele>2676.1999511719</ele>
        <time>2016-04-10T09:53:22.000Z</time>
      </trkpt>
      <trkpt lat="45.1672" lon="5.95709">
        <ele>2677.3999023438</ele>
        <time>2016-04-10T09:53:30.000Z</time>
      </trkpt>
      <trkpt lat="45.1672" lon="5.95709">
        <ele>2678.3999023438</ele>
        <time>2016-04-10T09:53:34.000Z</time>
      </trkpt>
      <trkpt lat="45.16721" lon="5.95713">
        <ele>2679.6000976562</ele>
        <time>2016-04-10T09:53:39.000Z</time>
      </trkpt>
      <trkpt lat="45.16722" lon="5.95716">
        <ele>2680.1999511719</ele>
        <time>2016-04-10T09:53:43.000Z</time>
      </trkpt>
      <trkpt lat="45.16722" lon="5.95716">
        <ele>2680.6000976562</ele>
        <time>2016-04-10T09:53:45.000Z</time>
      </trkpt>
      <trkpt lat="45.16722" lon="5.95716">
        <ele>2680.8000488281</ele>
        <time>2016-04-10T09:53:46.000Z</time>
      </trkpt>
      <trkpt lat="45.16722" lon="5.95716">
        <ele>2681.8000488281</ele>
        <time>2016-04-10T09:53:52.000Z</time>
      </trkpt>
      <trkpt lat="45.16722" lon="5.95716">
        <ele>2682.6000976562</ele>
        <time>2016-04-10T09:53:57.000Z</time>
      </trkpt>
      <trkpt lat="45.16722" lon="5.95716">
        <ele>2682.8000488281</ele>
        <time>2016-04-10T09:53:59.000Z</time>
      </trkpt>
      <trkpt lat="45.16722" lon="5.95716">
        <ele>2683.8000488281</ele>
        <time>2016-04-10T09:54:03.000Z</time>
      </trkpt>
      <trkpt lat="45.16722" lon="5.95716">
        <ele>2684.1999511719</ele>
        <time>2016-04-10T09:54:04.000Z</time>
      </trkpt>
      <trkpt lat="45.16722" lon="5.95724">
        <ele>2684.8000488281</ele>
        <time>2016-04-10T09:54:09.000Z</time>
      </trkpt>
      <trkpt lat="45.16722" lon="5.95724">
        <ele>2685</ele>
        <time>2016-04-10T09:54:10.000Z</time>
      </trkpt>
      <trkpt lat="45.16722" lon="5.95729">
        <ele>2685.3999023438</ele>
        <time>2016-04-10T09:54:12.000Z</time>
      </trkpt>
      <trkpt lat="45.16722" lon="5.95729">
        <ele>2686.1999511719</ele>
        <time>2016-04-10T09:54:14.000Z</time>
      </trkpt>
      <trkpt lat="45.16722" lon="5.95729">
        <ele>2686.6000976562</ele>
        <time>2016-04-10T09:54:16.000Z</time>
      </trkpt>
      <trkpt lat="45.16722" lon="5.95729">
        <ele>2687.1999511719</ele>
        <time>2016-04-10T09:54:18.000Z</time>
      </trkpt>
      <trkpt lat="45.16722" lon="5.95729">
        <ele>2688</ele>
        <time>2016-04-10T09:54:22.000Z</time>
      </trkpt>
      <trkpt lat="45.16722" lon="5.95729">
        <ele>2688.1999511719</ele>
        <time>2016-04-10T09:54:23.000Z</time>
      </trkpt>
      <trkpt lat="45.16722" lon="5.95732">
        <ele>2688.8000488281</ele>
        <time>2016-04-10T09:54:27.000Z</time>
      </trkpt>
      <trkpt lat="45.16723" lon="5.95737">
        <ele>2689.1999511719</ele>
        <time>2016-04-10T09:54:31.000Z</time>
      </trkpt>
      <trkpt lat="45.16723" lon="5.95737">
        <ele>2689.6000976562</ele>
        <time>2016-04-10T09:54:32.000Z</time>
      </trkpt>
      <trkpt lat="45.16723" lon="5.95737">
        <ele>2690.6000976562</ele>
        <time>2016-04-10T09:54:35.000Z</time>
      </trkpt>
      <trkpt lat="45.16723" lon="5.95737">
        <ele>2691</ele>
        <time>2016-04-10T09:54:37.000Z</time>
      </trkpt>
      <trkpt lat="45.16723" lon="5.95737">
        <ele>2691.8000488281</ele>
        <time>2016-04-10T09:54:40.000Z</time>
      </trkpt>
      <trkpt lat="45.16723" lon="5.95737">
        <ele>2692.6000976562</ele>
        <time>2016-04-10T09:54:43.000Z</time>
      </trkpt>
      <trkpt lat="45.16723" lon="5.95737">
        <ele>2692.8000488281</ele>
        <time>2016-04-10T09:54:46.000Z</time>
      </trkpt>
      <trkpt lat="45.17058" lon="5.95759">
        <ele>2693.3999023438</ele>
        <time>2016-04-10T09:54:57.000Z</time>
      </trkpt>
      <trkpt lat="45.17072" lon="5.95758">
        <ele>2693.8000488281</ele>
        <time>2016-04-10T09:55:03.000Z</time>
      </trkpt>
      <trkpt lat="45.17081" lon="5.95755">
        <ele>2694.6000976562</ele>
        <time>2016-04-10T09:55:10.000Z</time>
      </trkpt>
      <trkpt lat="45.17083" lon="5.95754">
        <ele>2694.8000488281</ele>
        <time>2016-04-10T09:55:12.000Z</time>
      </trkpt>
      <trkpt lat="45.17088" lon="5.95752">
        <ele>2695.6000976562</ele>
        <time>2016-04-10T09:55:16.000Z</time>
      </trkpt>
      <trkpt lat="45.17089" lon="5.95751">
        <ele>2696</ele>
        <time>2016-04-10T09:55:18.000Z</time>
      </trkpt>
      <trkpt lat="45.17092" lon="5.95751">
        <ele>2696.6000976562</ele>
        <time>2016-04-10T09:55:21.000Z</time>
      </trkpt>
      <trkpt lat="45.17094" lon="5.95749">
        <ele>2697</ele>
        <time>2016-04-10T09:55:23.000Z</time>
      </trkpt>
      <trkpt lat="45.17098" lon="5.95749">
        <ele>2697.8000488281</ele>
        <time>2016-04-10T09:55:27.000Z</time>
      </trkpt>
      <trkpt lat="45.17099" lon="5.95748">
        <ele>2698.1999511719</ele>
        <time>2016-04-10T09:55:29.000Z</time>
      </trkpt>
      <trkpt lat="45.17104" lon="5.95746">
        <ele>2699.3999023438</ele>
        <time>2016-04-10T09:55:35.000Z</time>
      </trkpt>
      <trkpt lat="45.17108" lon="5.95743">
        <ele>2700.6000976562</ele>
        <time>2016-04-10T09:55:41.000Z</time>
      </trkpt>
      <trkpt lat="45.17108" lon="5.95742">
        <ele>2700.8000488281</ele>
        <time>2016-04-10T09:55:42.000Z</time>
      </trkpt>
      <trkpt lat="45.1711" lon="5.9574">
        <ele>2701.8000488281</ele>
        <time>2016-04-10T09:55:46.000Z</time>
      </trkpt>
      <trkpt lat="45.17111" lon="5.9574">
        <ele>2702.1999511719</ele>
        <time>2016-04-10T09:55:48.000Z</time>
      </trkpt>
      <trkpt lat="45.17112" lon="5.95738">
        <ele>2702.8000488281</ele>
        <time>2016-04-10T09:55:51.000Z</time>
      </trkpt>
      <trkpt lat="45.17113" lon="5.95736">
        <ele>2703.8000488281</ele>
        <time>2016-04-10T09:55:54.000Z</time>
      </trkpt>
      <trkpt lat="45.17113" lon="5.95736">
        <ele>2704</ele>
        <time>2016-04-10T09:55:55.000Z</time>
      </trkpt>
      <trkpt lat="45.17115" lon="5.95732">
        <ele>2704.3999023438</ele>
        <time>2016-04-10T09:56:01.000Z</time>
      </trkpt>
      <trkpt lat="45.17116" lon="5.95731">
        <ele>2705</ele>
        <time>2016-04-10T09:56:04.000Z</time>
      </trkpt>
      <trkpt lat="45.17117" lon="5.9573">
        <ele>2706</ele>
        <time>2016-04-10T09:56:08.000Z</time>
      </trkpt>
      <trkpt lat="45.17117" lon="5.9573">
        <ele>2706.1999511719</ele>
        <time>2016-04-10T09:56:09.000Z</time>
      </trkpt>
      <trkpt lat="45.17118" lon="5.95728">
        <ele>2707.3999023438</ele>
        <time>2016-04-10T09:56:12.000Z</time>
      </trkpt>
      <trkpt lat="45.17119" lon="5.95727">
        <ele>2708.3999023438</ele>
        <time>2016-04-10T09:56:15.000Z</time>
      </trkpt>
      <trkpt lat="45.1712" lon="5.95726">
        <ele>2708.6000976562</ele>
        <time>2016-04-10T09:56:16.000Z</time>
      </trkpt>
      <trkpt lat="45.17122" lon="5.95724">
        <ele>2709.1999511719</ele>
        <time>2016-04-10T09:56:19.000Z</time>
      </trkpt>
      <trkpt lat="45.17123" lon="5.9572">
        <ele>2709.6000976562</ele>
        <time>2016-04-10T09:56:25.000Z</time>
      </trkpt>
      <trkpt lat="45.17123" lon="5.9572">
        <ele>2709.6000976562</ele>
        <time>2016-04-10T09:56:26.000Z</time>
      </trkpt>
      <trkpt lat="45.17123" lon="5.9572">
        <ele>2710.8000488281</ele>
        <time>2016-04-10T09:56:34.000Z</time>
      </trkpt>
      <trkpt lat="45.17123" lon="5.9572">
        <ele>2711</ele>
        <time>2016-04-10T09:56:35.000Z</time>
      </trkpt>
      <trkpt lat="45.17124" lon="5.95726">
        <ele>2711.6000976562</ele>
        <time>2016-04-10T09:56:41.000Z</time>
      </trkpt>
      <trkpt lat="45.17125" lon="5.95732">
        <ele>2711.8000488281</ele>
        <time>2016-04-10T09:56:47.000Z</time>
      </trkpt>
      <trkpt lat="45.17126" lon="5.95738">
        <ele>2712.6000976562</ele>
        <time>2016-04-10T09:56:53.000Z</time>
      </trkpt>
      <trkpt lat="45.17126" lon="5.95741">
        <ele>2713</ele>
        <time>2016-04-10T09:56:56.000Z</time>
      </trkpt>
      <trkpt lat="45.17126" lon="5.95744">
        <ele>2713.8000488281</ele>
        <time>2016-04-10T09:57:00.000Z</time>
      </trkpt>
      <trkpt lat="45.17126" lon="5.95746">
        <ele>2714</ele>
        <time>2016-04-10T09:57:02.000Z</time>
      </trkpt>
      <trkpt lat="45.17125" lon="5.95752">
        <ele>2714.1999511719</ele>
        <time>2016-04-10T09:57:07.000Z</time>
      </trkpt>
      <trkpt lat="45.17125" lon="5.95761">
        <ele>2714.6000976562</ele>
        <time>2016-04-10T09:57:13.000Z</time>
      </trkpt>
      <trkpt lat="45.17125" lon="5.95767">
        <ele>2715</ele>
        <time>2016-04-10T09:57:17.000Z</time>
      </trkpt>
      <trkpt lat="45.17124" lon="5.95768">
        <ele>2715</ele>
        <time>2016-04-10T09:57:18.000Z</time>
      </trkpt>
      <trkpt lat="45.1712" lon="5.95775">
        <ele>2715.6000976562</ele>
        <time>2016-04-10T09:57:25.000Z</time>
      </trkpt>
      <trkpt lat="45.17118" lon="5.95778">
        <ele>2716</ele>
        <time>2016-04-10T09:57:29.000Z</time>
      </trkpt>
      <trkpt lat="45.17117" lon="5.95779">
        <ele>2716</ele>
        <time>2016-04-10T09:57:31.000Z</time>
      </trkpt>
      <trkpt lat="45.17114" lon="5.95785">
        <ele>2717.1999511719</ele>
        <time>2016-04-10T09:57:38.000Z</time>
      </trkpt>
      <trkpt lat="45.17113" lon="5.95789">
        <ele>2718.1999511719</ele>
        <time>2016-04-10T09:57:43.000Z</time>
      </trkpt>
      <trkpt lat="45.17113" lon="5.95791">
        <ele>2718.6000976562</ele>
        <time>2016-04-10T09:57:45.000Z</time>
      </trkpt>
      <trkpt lat="45.17113" lon="5.95793">
        <ele>2719.3999023438</ele>
        <time>2016-04-10T09:57:48.000Z</time>
      </trkpt>
      <trkpt lat="45.17114" lon="5.95796">
        <ele>2719.6000976562</ele>
        <time>2016-04-10T09:57:52.000Z</time>
      </trkpt>
      <trkpt lat="45.17117" lon="5.95799">
        <ele>2720.6000976562</ele>
        <time>2016-04-10T09:57:55.000Z</time>
      </trkpt>
      <trkpt lat="45.17117" lon="5.95801">
        <ele>2721.3999023438</ele>
        <time>2016-04-10T09:57:58.000Z</time>
      </trkpt>
      <trkpt lat="45.17117" lon="5.95801">
        <ele>2721.6000976562</ele>
        <time>2016-04-10T09:57:59.000Z</time>
      </trkpt>
      <trkpt lat="45.17122" lon="5.95809">
        <ele>2722.3999023438</ele>
        <time>2016-04-10T09:58:05.000Z</time>
      </trkpt>
      <trkpt lat="45.17123" lon="5.9581">
        <ele>2722.6000976562</ele>
        <time>2016-04-10T09:58:07.000Z</time>
      </trkpt>
      <trkpt lat="45.17123" lon="5.9581">
        <ele>2723.3999023438</ele>
        <time>2016-04-10T09:58:11.000Z</time>
      </trkpt>
      <trkpt lat="45.17123" lon="5.95811">
        <ele>2723.6000976562</ele>
        <time>2016-04-10T09:58:12.000Z</time>
      </trkpt>
      <trkpt lat="45.17125" lon="5.95815">
        <ele>2724.3999023438</ele>
        <time>2016-04-10T09:58:16.000Z</time>
      </trkpt>
      <trkpt lat="45.17126" lon="5.95816">
        <ele>2724.8000488281</ele>
        <time>2016-04-10T09:58:17.000Z</time>
      </trkpt>
      <trkpt lat="45.17127" lon="5.9582">
        <ele>2725.1999511719</ele>
        <time>2016-04-10T09:58:21.000Z</time>
      </trkpt>
      <trkpt lat="45.17127" lon="5.95823">
        <ele>2725.8000488281</ele>
        <time>2016-04-10T09:58:24.000Z</time>
      </trkpt>
      <trkpt lat="45.17128" lon="5.95828">
        <ele>2726</ele>
        <time>2016-04-10T09:58:28.000Z</time>
      </trkpt>
      <trkpt lat="45.17131" lon="5.95834">
        <ele>2726.3999023438</ele>
        <time>2016-04-10T09:58:34.000Z</time>
      </trkpt>
      <trkpt lat="45.17132" lon="5.95837">
        <ele>2726.8000488281</ele>
        <time>2016-04-10T09:58:37.000Z</time>
      </trkpt>
      <trkpt lat="45.17133" lon="5.95841">
        <ele>2727.1999511719</ele>
        <time>2016-04-10T09:58:40.000Z</time>
      </trkpt>
      <trkpt lat="45.17134" lon="5.95849">
        <ele>2727.8000488281</ele>
        <time>2016-04-10T09:58:46.000Z</time>
      </trkpt>
      <trkpt lat="45.17134" lon="5.95856">
        <ele>2728.3999023438</ele>
        <time>2016-04-10T09:58:53.000Z</time>
      </trkpt>
      <trkpt lat="45.17135" lon="5.95862">
        <ele>2728.8000488281</ele>
        <time>2016-04-10T09:59:00.000Z</time>
      </trkpt>
      <trkpt lat="45.17135" lon="5.95866">
        <ele>2729</ele>
        <time>2016-04-10T09:59:04.000Z</time>
      </trkpt>
      <trkpt lat="45.17135" lon="5.95869">
        <ele>2730</ele>
        <time>2016-04-10T09:59:06.000Z</time>
      </trkpt>
      <trkpt lat="45.17133" lon="5.95876">
        <ele>2730.6000976562</ele>
        <time>2016-04-10T09:59:11.000Z</time>
      </trkpt>
      <trkpt lat="45.17132" lon="5.95882">
        <ele>2730.8000488281</ele>
        <time>2016-04-10T09:59:15.000Z</time>
      </trkpt>
      <trkpt lat="45.17131" lon="5.95883">
        <ele>2730.8000488281</ele>
        <time>2016-04-10T09:59:16.000Z</time>
      </trkpt>
      <trkpt lat="45.17129" lon="5.9589">
        <ele>2731.1999511719</ele>
        <time>2016-04-10T09:59:20.000Z</time>
      </trkpt>
      <trkpt lat="45.17129" lon="5.95892">
        <ele>2731.8000488281</ele>
        <time>2016-04-10T09:59:22.000Z</time>
      </trkpt>
      <trkpt lat="45.17128" lon="5.95895">
        <ele>2732.3999023438</ele>
        <time>2016-04-10T09:59:24.000Z</time>
      </trkpt>
      <trkpt lat="45.17126" lon="5.959">
        <ele>2734.1999511719</ele>
        <time>2016-04-10T09:59:29.000Z</time>
      </trkpt>
      <trkpt lat="45.17125" lon="5.95906">
        <ele>2734.3999023438</ele>
        <time>2016-04-10T09:59:35.000Z</time>
      </trkpt>
      <trkpt lat="45.17124" lon="5.95912">
        <ele>2735.1999511719</ele>
        <time>2016-04-10T09:59:40.000Z</time>
      </trkpt>
      <trkpt lat="45.17124" lon="5.95913">
        <ele>2735.6000976562</ele>
        <time>2016-04-10T09:59:41.000Z</time>
      </trkpt>
      <trkpt lat="45.17123" lon="5.95914">
        <ele>2736.1999511719</ele>
        <time>2016-04-10T09:59:42.000Z</time>
      </trkpt>
      <trkpt lat="45.17123" lon="5.95917">
        <ele>2737.1999511719</ele>
        <time>2016-04-10T09:59:45.000Z</time>
      </trkpt>
      <trkpt lat="45.17123" lon="5.95919">
        <ele>2737</ele>
        <time>2016-04-10T09:59:48.000Z</time>
      </trkpt>
      <trkpt lat="45.17123" lon="5.95925">
        <ele>2738.1999511719</ele>
        <time>2016-04-10T09:59:54.000Z</time>
      </trkpt>
      <trkpt lat="45.17123" lon="5.95925">
        <ele>2738.3999023438</ele>
        <time>2016-04-10T09:59:55.000Z</time>
      </trkpt>
      <trkpt lat="45.17122" lon="5.95929">
        <ele>2739.3999023438</ele>
        <time>2016-04-10T10:00:00.000Z</time>
      </trkpt>
      <trkpt lat="45.17122" lon="5.9593">
        <ele>2739.6000976562</ele>
        <time>2016-04-10T10:00:01.000Z</time>
      </trkpt>
      <trkpt lat="45.17122" lon="5.95933">
        <ele>2740.8000488281</ele>
        <time>2016-04-10T10:00:05.000Z</time>
      </trkpt>
      <trkpt lat="45.17121" lon="5.95934">
        <ele>2741.3999023438</ele>
        <time>2016-04-10T10:00:07.000Z</time>
      </trkpt>
      <trkpt lat="45.1712" lon="5.95935">
        <ele>2741.8000488281</ele>
        <time>2016-04-10T10:00:09.000Z</time>
      </trkpt>
      <trkpt lat="45.17116" lon="5.95939">
        <ele>2741.8000488281</ele>
        <time>2016-04-10T10:00:14.000Z</time>
      </trkpt>
      <trkpt lat="45.17112" lon="5.95942">
        <ele>2741.8000488281</ele>
        <time>2016-04-10T10:00:20.000Z</time>
      </trkpt>
      <trkpt lat="45.1711" lon="5.95944">
        <ele>2742.8000488281</ele>
        <time>2016-04-10T10:00:28.000Z</time>
      </trkpt>
      <trkpt lat="45.17105" lon="5.95948">
        <ele>2743.8000488281</ele>
        <time>2016-04-10T10:00:34.000Z</time>
      </trkpt>
      <trkpt lat="45.17104" lon="5.95948">
        <ele>2744</ele>
        <time>2016-04-10T10:00:35.000Z</time>
      </trkpt>
      <trkpt lat="45.17101" lon="5.95953">
        <ele>2745</ele>
        <time>2016-04-10T10:00:41.000Z</time>
      </trkpt>
      <trkpt lat="45.171" lon="5.95953">
        <ele>2745.1999511719</ele>
        <time>2016-04-10T10:00:42.000Z</time>
      </trkpt>
      <trkpt lat="45.17104" lon="5.95961">
        <ele>2746</ele>
        <time>2016-04-10T10:00:46.000Z</time>
      </trkpt>
      <trkpt lat="45.17104" lon="5.95959">
        <ele>2746.1999511719</ele>
        <time>2016-04-10T10:00:48.000Z</time>
      </trkpt>
      <trkpt lat="45.17108" lon="5.95963">
        <ele>2747</ele>
        <time>2016-04-10T10:00:54.000Z</time>
      </trkpt>
      <trkpt lat="45.17109" lon="5.95964">
        <ele>2747.1999511719</ele>
        <time>2016-04-10T10:00:55.000Z</time>
      </trkpt>
      <trkpt lat="45.17111" lon="5.95967">
        <ele>2747.8000488281</ele>
        <time>2016-04-10T10:00:59.000Z</time>
      </trkpt>
      <trkpt lat="45.17111" lon="5.9597">
        <ele>2748.3999023438</ele>
        <time>2016-04-10T10:01:01.000Z</time>
      </trkpt>
      <trkpt lat="45.17112" lon="5.95971">
        <ele>2749</ele>
        <time>2016-04-10T10:01:04.000Z</time>
      </trkpt>
      <trkpt lat="45.17112" lon="5.95973">
        <ele>2749.6000976562</ele>
        <time>2016-04-10T10:01:05.000Z</time>
      </trkpt>
      <trkpt lat="45.17115" lon="5.95975">
        <ele>2750.6000976562</ele>
        <time>2016-04-10T10:01:10.000Z</time>
      </trkpt>
      <trkpt lat="45.17116" lon="5.95976">
        <ele>2750.8000488281</ele>
        <time>2016-04-10T10:01:11.000Z</time>
      </trkpt>
      <trkpt lat="45.17119" lon="5.95978">
        <ele>2751.3999023438</ele>
        <time>2016-04-10T10:01:18.000Z</time>
      </trkpt>
      <trkpt lat="45.17119" lon="5.95978">
        <ele>2751.6000976562</ele>
        <time>2016-04-10T10:01:20.000Z</time>
      </trkpt>
      <trkpt lat="45.17119" lon="5.95977">
        <ele>2752.3999023438</ele>
        <time>2016-04-10T10:01:32.000Z</time>
      </trkpt>
      <trkpt lat="45.17117" lon="5.95978">
        <ele>2751.1999511719</ele>
        <time>2016-04-10T10:01:48.000Z</time>
      </trkpt>
      <trkpt lat="45.1712" lon="5.95979">
        <ele>2751.8000488281</ele>
        <time>2016-04-10T10:02:05.000Z</time>
      </trkpt>
      <trkpt lat="45.17124" lon="5.95982">
        <ele>2752.6000976562</ele>
        <time>2016-04-10T10:02:11.000Z</time>
      </trkpt>
      <trkpt lat="45.17125" lon="5.95983">
        <ele>2752.8000488281</ele>
        <time>2016-04-10T10:02:12.000Z</time>
      </trkpt>
      <trkpt lat="45.1713" lon="5.95985">
        <ele>2754</ele>
        <time>2016-04-10T10:02:18.000Z</time>
      </trkpt>
      <trkpt lat="45.17131" lon="5.95985">
        <ele>2754.1999511719</ele>
        <time>2016-04-10T10:02:19.000Z</time>
      </trkpt>
      <trkpt lat="45.17135" lon="5.95985">
        <ele>2755.3999023438</ele>
        <time>2016-04-10T10:02:24.000Z</time>
      </trkpt>
      <trkpt lat="45.17138" lon="5.95986">
        <ele>2756.3999023438</ele>
        <time>2016-04-10T10:02:28.000Z</time>
      </trkpt>
      <trkpt lat="45.17141" lon="5.95987">
        <ele>2757.3999023438</ele>
        <time>2016-04-10T10:02:32.000Z</time>
      </trkpt>
      <trkpt lat="45.17143" lon="5.95988">
        <ele>2758.8000488281</ele>
        <time>2016-04-10T10:02:36.000Z</time>
      </trkpt>
      <trkpt lat="45.17144" lon="5.95988">
        <ele>2759</ele>
        <time>2016-04-10T10:02:37.000Z</time>
      </trkpt>
      <trkpt lat="45.17147" lon="5.95988">
        <ele>2759.8000488281</ele>
        <time>2016-04-10T10:02:41.000Z</time>
      </trkpt>
      <trkpt lat="45.17149" lon="5.95987">
        <ele>2760.3999023438</ele>
        <time>2016-04-10T10:02:45.000Z</time>
      </trkpt>
      <trkpt lat="45.17153" lon="5.95987">
        <ele>2761</ele>
        <time>2016-04-10T10:02:49.000Z</time>
      </trkpt>
      <trkpt lat="45.17156" lon="5.95987">
        <ele>2761.6000976562</ele>
        <time>2016-04-10T10:02:53.000Z</time>
      </trkpt>
      <trkpt lat="45.17157" lon="5.95987">
        <ele>2762</ele>
        <time>2016-04-10T10:02:56.000Z</time>
      </trkpt>
      <trkpt lat="45.1716" lon="5.95987">
        <ele>2763</ele>
        <time>2016-04-10T10:03:00.000Z</time>
      </trkpt>
      <trkpt lat="45.1716" lon="5.95987">
        <ele>2763.1999511719</ele>
        <time>2016-04-10T10:03:01.000Z</time>
      </trkpt>
      <trkpt lat="45.17162" lon="5.95986">
        <ele>2764.6000976562</ele>
        <time>2016-04-10T10:03:05.000Z</time>
      </trkpt>
      <trkpt lat="45.17163" lon="5.95986">
        <ele>2765</ele>
        <time>2016-04-10T10:03:06.000Z</time>
      </trkpt>
      <trkpt lat="45.17164" lon="5.95985">
        <ele>2765.6000976562</ele>
        <time>2016-04-10T10:03:08.000Z</time>
      </trkpt>
      <trkpt lat="45.17166" lon="5.95983">
        <ele>2766.8000488281</ele>
        <time>2016-04-10T10:03:12.000Z</time>
      </trkpt>
      <trkpt lat="45.17168" lon="5.95981">
        <ele>2768.1999511719</ele>
        <time>2016-04-10T10:03:17.000Z</time>
      </trkpt>
      <trkpt lat="45.17166" lon="5.95979">
        <ele>2769.1999511719</ele>
        <time>2016-04-10T10:03:20.000Z</time>
      </trkpt>
      <trkpt lat="45.17165" lon="5.95977">
        <ele>2769.8000488281</ele>
        <time>2016-04-10T10:03:23.000Z</time>
      </trkpt>
      <trkpt lat="45.17163" lon="5.95975">
        <ele>2770.3999023438</ele>
        <time>2016-04-10T10:03:25.000Z</time>
      </trkpt>
      <trkpt lat="45.17162" lon="5.95973">
        <ele>2771</ele>
        <time>2016-04-10T10:03:27.000Z</time>
      </trkpt>
      <trkpt lat="45.17162" lon="5.95973">
        <ele>2771.6000976562</ele>
        <time>2016-04-10T10:03:29.000Z</time>
      </trkpt>
      <trkpt lat="45.17162" lon="5.95972">
        <ele>2772.6000976562</ele>
        <time>2016-04-10T10:03:34.000Z</time>
      </trkpt>
      <trkpt lat="45.17161" lon="5.95972">
        <ele>2772.6000976562</ele>
        <time>2016-04-10T10:03:35.000Z</time>
      </trkpt>
      <trkpt lat="45.17161" lon="5.9597">
        <ele>2773.1999511719</ele>
        <time>2016-04-10T10:03:38.000Z</time>
      </trkpt>
      <trkpt lat="45.1716" lon="5.95969">
        <ele>2773.8000488281</ele>
        <time>2016-04-10T10:03:40.000Z</time>
      </trkpt>
      <trkpt lat="45.1716" lon="5.95968">
        <ele>2774.6000976562</ele>
        <time>2016-04-10T10:03:43.000Z</time>
      </trkpt>
      <trkpt lat="45.17159" lon="5.95967">
        <ele>2774.8000488281</ele>
        <time>2016-04-10T10:03:44.000Z</time>
      </trkpt>
      <trkpt lat="45.17158" lon="5.95964">
        <ele>2775.6000976562</ele>
        <time>2016-04-10T10:03:47.000Z</time>
      </trkpt>
      <trkpt lat="45.17158" lon="5.95963">
        <ele>2776</ele>
        <time>2016-04-10T10:03:49.000Z</time>
      </trkpt>
      <trkpt lat="45.17158" lon="5.95961">
        <ele>2776.8000488281</ele>
        <time>2016-04-10T10:03:54.000Z</time>
      </trkpt>
      <trkpt lat="45.17158" lon="5.95961">
        <ele>2776</ele>
        <time>2016-04-10T10:04:01.000Z</time>
      </trkpt>
      <trkpt lat="45.17161" lon="5.95958">
        <ele>2777</ele>
        <time>2016-04-10T10:04:07.000Z</time>
      </trkpt>
      <trkpt lat="45.1716" lon="5.95957">
        <ele>2777.1999511719</ele>
        <time>2016-04-10T10:04:09.000Z</time>
      </trkpt>
      <trkpt lat="45.1716" lon="5.95955">
        <ele>2778</ele>
        <time>2016-04-10T10:04:12.000Z</time>
      </trkpt>
      <trkpt lat="45.1716" lon="5.95954">
        <ele>2778.3999023438</ele>
        <time>2016-04-10T10:04:13.000Z</time>
      </trkpt>
      <trkpt lat="45.17159" lon="5.95952">
        <ele>2779.8000488281</ele>
        <time>2016-04-10T10:04:16.000Z</time>
      </trkpt>
      <trkpt lat="45.17159" lon="5.95952">
        <ele>2779.8000488281</ele>
        <time>2016-04-10T10:04:17.000Z</time>
      </trkpt>
      <trkpt lat="45.17158" lon="5.95947">
        <ele>2780</ele>
        <time>2016-04-10T10:04:22.000Z</time>
      </trkpt>
      <trkpt lat="45.17159" lon="5.95947">
        <ele>2780</ele>
        <time>2016-04-10T10:04:29.000Z</time>
      </trkpt>
      <trkpt lat="45.17159" lon="5.95947">
        <ele>2781</ele>
        <time>2016-04-10T10:04:32.000Z</time>
      </trkpt>
      <trkpt lat="45.17162" lon="5.95943">
        <ele>2781.8000488281</ele>
        <time>2016-04-10T10:04:36.000Z</time>
      </trkpt>
      <trkpt lat="45.17163" lon="5.9594">
        <ele>2781.8000488281</ele>
        <time>2016-04-10T10:04:41.000Z</time>
      </trkpt>
      <trkpt lat="45.17163" lon="5.95939">
        <ele>2782.1999511719</ele>
        <time>2016-04-10T10:04:49.000Z</time>
      </trkpt>
      <trkpt lat="45.17163" lon="5.95939">
        <ele>2782.1999511719</ele>
        <time>2016-04-10T10:04:52.000Z</time>
      </trkpt>
      <trkpt lat="45.17163" lon="5.95939">
        <ele>2782</ele>
        <time>2016-04-10T10:05:05.000Z</time>
      </trkpt>
      <trkpt lat="45.17163" lon="5.95939">
        <ele>2781.8000488281</ele>
        <time>2016-04-10T10:05:20.000Z</time>
      </trkpt>
      <trkpt lat="45.17163" lon="5.95939">
        <ele>2781.3999023438</ele>
        <time>2016-04-10T10:05:36.000Z</time>
      </trkpt>
      <trkpt lat="45.17163" lon="5.95939">
        <ele>2781.6000976562</ele>
        <time>2016-04-10T10:05:52.000Z</time>
      </trkpt>
      <trkpt lat="45.17163" lon="5.95938">
        <ele>2782</ele>
        <time>2016-04-10T10:06:07.000Z</time>
      </trkpt>
      <trkpt lat="45.17164" lon="5.95938">
        <ele>2781.3999023438</ele>
        <time>2016-04-10T10:06:18.000Z</time>
      </trkpt>
      <trkpt lat="45.17164" lon="5.95938">
        <ele>2781</ele>
        <time>2016-04-10T10:06:20.000Z</time>
      </trkpt>
      <trkpt lat="45.17164" lon="5.95938">
        <ele>2781.1999511719</ele>
        <time>2016-04-10T10:06:32.000Z</time>
      </trkpt>
      <trkpt lat="45.17164" lon="5.95938">
        <ele>2782</ele>
        <time>2016-04-10T10:06:38.000Z</time>
      </trkpt>
      <trkpt lat="45.17164" lon="5.95938">
        <ele>2782.1999511719</ele>
        <time>2016-04-10T10:06:41.000Z</time>
      </trkpt>
      <trkpt lat="45.17164" lon="5.95938">
        <ele>2781.1999511719</ele>
        <time>2016-04-10T10:06:49.000Z</time>
      </trkpt>
      <trkpt lat="45.17164" lon="5.95938">
        <ele>2782.6000976562</ele>
        <time>2016-04-10T10:07:07.000Z</time>
      </trkpt>
      <trkpt lat="45.17164" lon="5.95938">
        <ele>2782.1999511719</ele>
        <time>2016-04-10T10:07:21.000Z</time>
      </trkpt>
      <trkpt lat="45.17164" lon="5.95938">
        <ele>2782.3999023438</ele>
        <time>2016-04-10T10:07:40.000Z</time>
      </trkpt>
      <trkpt lat="45.17164" lon="5.95938">
        <ele>2782.3999023438</ele>
        <time>2016-04-10T10:07:55.000Z</time>
      </trkpt>
      <trkpt lat="45.17164" lon="5.95938">
        <ele>2782.1999511719</ele>
        <time>2016-04-10T10:08:12.000Z</time>
      </trkpt>
      <trkpt lat="45.17164" lon="5.95938">
        <ele>2781.8000488281</ele>
        <time>2016-04-10T10:08:29.000Z</time>
      </trkpt>
      <trkpt lat="45.17164" lon="5.95938">
        <ele>2781.8000488281</ele>
        <time>2016-04-10T10:08:47.000Z</time>
      </trkpt>
      <trkpt lat="45.17164" lon="5.95938">
        <ele>2781</ele>
        <time>2016-04-10T10:08:57.000Z</time>
      </trkpt>
      <trkpt lat="45.17164" lon="5.95938">
        <ele>2781</ele>
        <time>2016-04-10T10:09:02.000Z</time>
      </trkpt>
      <trkpt lat="45.17164" lon="5.95938">
        <ele>2781.6000976562</ele>
        <time>2016-04-10T10:09:08.000Z</time>
      </trkpt>
      <trkpt lat="45.17164" lon="5.95938">
        <ele>2781.8000488281</ele>
        <time>2016-04-10T10:09:20.000Z</time>
      </trkpt>
      <trkpt lat="45.17164" lon="5.95938">
        <ele>2782</ele>
        <time>2016-04-10T10:09:24.000Z</time>
      </trkpt>
      <trkpt lat="45.17164" lon="5.95938">
        <ele>2782</ele>
        <time>2016-04-10T10:09:35.000Z</time>
      </trkpt>
      <trkpt lat="45.17164" lon="5.95938">
        <ele>2782</ele>
        <time>2016-04-10T10:09:47.000Z</time>
      </trkpt>
      <trkpt lat="45.17164" lon="5.95938">
        <ele>2781.6000976562</ele>
        <time>2016-04-10T10:10:04.000Z</time>
      </trkpt>
      <trkpt lat="45.17164" lon="5.95938">
        <ele>2781.8000488281</ele>
        <time>2016-04-10T10:10:20.000Z</time>
      </trkpt>
      <trkpt lat="45.17164" lon="5.95938">
        <ele>2782</ele>
        <time>2016-04-10T10:10:35.000Z</time>
      </trkpt>
      <trkpt lat="45.17164" lon="5.95938">
        <ele>2781.8000488281</ele>
        <time>2016-04-10T10:10:52.000Z</time>
      </trkpt>
      <trkpt lat="45.17164" lon="5.95938">
        <ele>2781.3999023438</ele>
        <time>2016-04-10T10:11:03.000Z</time>
      </trkpt>
      <trkpt lat="45.17164" lon="5.95938">
        <ele>2781</ele>
        <time>2016-04-10T10:11:13.000Z</time>
      </trkpt>
      <trkpt lat="45.17164" lon="5.95938">
        <ele>2780.8000488281</ele>
        <time>2016-04-10T10:11:25.000Z</time>
      </trkpt>
      <trkpt lat="45.17164" lon="5.95938">
        <ele>2781.1999511719</ele>
        <time>2016-04-10T10:11:50.000Z</time>
      </trkpt>
      <trkpt lat="45.17164" lon="5.95938">
        <ele>2781.1999511719</ele>
        <time>2016-04-10T10:11:56.000Z</time>
      </trkpt>
      <trkpt lat="45.17164" lon="5.95938">
        <ele>2781.3999023438</ele>
        <time>2016-04-10T10:12:13.000Z</time>
      </trkpt>
      <trkpt lat="45.17164" lon="5.95938">
        <ele>2781.3999023438</ele>
        <time>2016-04-10T10:12:37.000Z</time>
      </trkpt>
      <trkpt lat="45.17164" lon="5.95938">
        <ele>2781.6000976562</ele>
        <time>2016-04-10T10:12:51.000Z</time>
      </trkpt>
      <trkpt lat="45.17165" lon="5.95938">
        <ele>2781.3999023438</ele>
        <time>2016-04-10T10:13:10.000Z</time>
      </trkpt>
      <trkpt lat="45.17165" lon="5.95938">
        <ele>2780.8000488281</ele>
        <time>2016-04-10T10:13:25.000Z</time>
      </trkpt>
      <trkpt lat="45.17165" lon="5.95938">
        <ele>2780.6000976562</ele>
        <time>2016-04-10T10:13:42.000Z</time>
      </trkpt>
      <trkpt lat="45.17165" lon="5.95938">
        <ele>2782.1999511719</ele>
        <time>2016-04-10T10:13:55.000Z</time>
      </trkpt>
      <trkpt lat="45.17165" lon="5.95938">
        <ele>2782.1999511719</ele>
        <time>2016-04-10T10:13:57.000Z</time>
      </trkpt>
      <trkpt lat="45.17165" lon="5.95938">
        <ele>2781.8000488281</ele>
        <time>2016-04-10T10:14:16.000Z</time>
      </trkpt>
      <trkpt lat="45.17165" lon="5.95938">
        <ele>2781.8000488281</ele>
        <time>2016-04-10T10:14:30.000Z</time>
      </trkpt>
      <trkpt lat="45.17165" lon="5.95938">
        <ele>2781.8000488281</ele>
        <time>2016-04-10T10:14:41.000Z</time>
      </trkpt>
      <trkpt lat="45.17165" lon="5.95938">
        <ele>2781.1999511719</ele>
        <time>2016-04-10T10:14:54.000Z</time>
      </trkpt>
      <trkpt lat="45.17165" lon="5.95938">
        <ele>2781.6000976562</ele>
        <time>2016-04-10T10:15:08.000Z</time>
      </trkpt>
      <trkpt lat="45.17165" lon="5.95938">
        <ele>2781.3999023438</ele>
        <time>2016-04-10T10:15:26.000Z</time>
      </trkpt>
      <trkpt lat="45.17165" lon="5.95938">
        <ele>2781.1999511719</ele>
        <time>2016-04-10T10:15:34.000Z</time>
      </trkpt>
      <trkpt lat="45.17165" lon="5.95938">
        <ele>2781</ele>
        <time>2016-04-10T10:15:36.000Z</time>
      </trkpt>
      <trkpt lat="45.17165" lon="5.95938">
        <ele>2780.8000488281</ele>
        <time>2016-04-10T10:15:52.000Z</time>
      </trkpt>
      <trkpt lat="45.17165" lon="5.95938">
        <ele>2780.6000976562</ele>
        <time>2016-04-10T10:16:05.000Z</time>
      </trkpt>
      <trkpt lat="45.17165" lon="5.95938">
        <ele>2780.3999023438</ele>
        <time>2016-04-10T10:16:17.000Z</time>
      </trkpt>
      <trkpt lat="45.17165" lon="5.95938">
        <ele>2781.8000488281</ele>
        <time>2016-04-10T10:16:25.000Z</time>
      </trkpt>
      <trkpt lat="45.17165" lon="5.95938">
        <ele>2782.1999511719</ele>
        <time>2016-04-10T10:16:27.000Z</time>
      </trkpt>
      <trkpt lat="45.17165" lon="5.95938">
        <ele>2781.6000976562</ele>
        <time>2016-04-10T10:16:35.000Z</time>
      </trkpt>
      <trkpt lat="45.17165" lon="5.95938">
        <ele>2782</ele>
        <time>2016-04-10T10:16:45.000Z</time>
      </trkpt>
      <trkpt lat="45.17165" lon="5.95938">
        <ele>2782</ele>
        <time>2016-04-10T10:17:02.000Z</time>
      </trkpt>
      <trkpt lat="45.17165" lon="5.95938">
        <ele>2782.1999511719</ele>
        <time>2016-04-10T10:17:18.000Z</time>
      </trkpt>
      <trkpt lat="45.17165" lon="5.95938">
        <ele>2781.3999023438</ele>
        <time>2016-04-10T10:17:36.000Z</time>
      </trkpt>
      <trkpt lat="45.17165" lon="5.95938">
        <ele>2781</ele>
        <time>2016-04-10T10:17:40.000Z</time>
      </trkpt>
      <trkpt lat="45.17165" lon="5.95939">
        <ele>2780.8000488281</ele>
        <time>2016-04-10T10:17:45.000Z</time>
      </trkpt>
      <trkpt lat="45.17165" lon="5.95939">
        <ele>2782</ele>
        <time>2016-04-10T10:17:58.000Z</time>
      </trkpt>
      <trkpt lat="45.17165" lon="5.95939">
        <ele>2782</ele>
        <time>2016-04-10T10:17:59.000Z</time>
      </trkpt>
      <trkpt lat="45.17165" lon="5.95939">
        <ele>2781.8000488281</ele>
        <time>2016-04-10T10:18:04.000Z</time>
      </trkpt>
      <trkpt lat="45.17165" lon="5.95939">
        <ele>2781.3999023438</ele>
        <time>2016-04-10T10:18:05.000Z</time>
      </trkpt>
      <trkpt lat="45.17165" lon="5.95939">
        <ele>2781</ele>
        <time>2016-04-10T10:18:07.000Z</time>
      </trkpt>
      <trkpt lat="45.17165" lon="5.95943">
        <ele>2780.1999511719</ele>
        <time>2016-04-10T10:18:10.000Z</time>
      </trkpt>
      <trkpt lat="45.17167" lon="5.95946">
        <ele>2780</ele>
        <time>2016-04-10T10:18:11.000Z</time>
      </trkpt>
      <trkpt lat="45.17168" lon="5.95948">
        <ele>2779.8000488281</ele>
        <time>2016-04-10T10:18:12.000Z</time>
      </trkpt>
      <trkpt lat="45.17165" lon="5.95955">
        <ele>2778.8000488281</ele>
        <time>2016-04-10T10:18:15.000Z</time>
      </trkpt>
      <trkpt lat="45.17162" lon="5.95956">
        <ele>2778.6000976562</ele>
        <time>2016-04-10T10:18:16.000Z</time>
      </trkpt>
      <trkpt lat="45.1716" lon="5.95957">
        <ele>2778.3999023438</ele>
        <time>2016-04-10T10:18:17.000Z</time>
      </trkpt>
      <trkpt lat="45.17153" lon="5.95958">
        <ele>2777.8000488281</ele>
        <time>2016-04-10T10:18:19.000Z</time>
      </trkpt>
      <trkpt lat="45.1715" lon="5.95958">
        <ele>2776.1999511719</ele>
        <time>2016-04-10T10:18:20.000Z</time>
      </trkpt>
      <trkpt lat="45.17147" lon="5.95959">
        <ele>2775</ele>
        <time>2016-04-10T10:18:22.000Z</time>
      </trkpt>
      <trkpt lat="45.17146" lon="5.95958">
        <ele>2774.3999023438</ele>
        <time>2016-04-10T10:18:23.000Z</time>
      </trkpt>
      <trkpt lat="45.17145" lon="5.95961">
        <ele>2774</ele>
        <time>2016-04-10T10:18:24.000Z</time>
      </trkpt>
      <trkpt lat="45.17144" lon="5.95964">
        <ele>2773.3999023438</ele>
        <time>2016-04-10T10:18:25.000Z</time>
      </trkpt>
      <trkpt lat="45.17144" lon="5.95967">
        <ele>2772.1999511719</ele>
        <time>2016-04-10T10:18:26.000Z</time>
      </trkpt>
      <trkpt lat="45.17143" lon="5.9597">
        <ele>2770.8000488281</ele>
        <time>2016-04-10T10:18:27.000Z</time>
      </trkpt>
      <trkpt lat="45.17141" lon="5.9597">
        <ele>2769</ele>
        <time>2016-04-10T10:18:28.000Z</time>
      </trkpt>
      <trkpt lat="45.17139" lon="5.9597">
        <ele>2767.8000488281</ele>
        <time>2016-04-10T10:18:29.000Z</time>
      </trkpt>
      <trkpt lat="45.17139" lon="5.95969">
        <ele>2766.6000976562</ele>
        <time>2016-04-10T10:18:31.000Z</time>
      </trkpt>
      <trkpt lat="45.17136" lon="5.95968">
        <ele>2765.6000976562</ele>
        <time>2016-04-10T10:18:33.000Z</time>
      </trkpt>
      <trkpt lat="45.17134" lon="5.95967">
        <ele>2764.8000488281</ele>
        <time>2016-04-10T10:18:34.000Z</time>
      </trkpt>
      <trkpt lat="45.17132" lon="5.95964">
        <ele>2764.3999023438</ele>
        <time>2016-04-10T10:18:35.000Z</time>
      </trkpt>
      <trkpt lat="45.1713" lon="5.95959">
        <ele>2763.3999023438</ele>
        <time>2016-04-10T10:18:37.000Z</time>
      </trkpt>
      <trkpt lat="45.1713" lon="5.95958">
        <ele>2762.3999023438</ele>
        <time>2016-04-10T10:18:38.000Z</time>
      </trkpt>
      <trkpt lat="45.17129" lon="5.95957">
        <ele>2761.1999511719</ele>
        <time>2016-04-10T10:18:39.000Z</time>
      </trkpt>
      <trkpt lat="45.17129" lon="5.95957">
        <ele>2759.8000488281</ele>
        <time>2016-04-10T10:18:40.000Z</time>
      </trkpt>
      <trkpt lat="45.17128" lon="5.95956">
        <ele>2758.6000976562</ele>
        <time>2016-04-10T10:18:41.000Z</time>
      </trkpt>
      <trkpt lat="45.17128" lon="5.95953">
        <ele>2757</ele>
        <time>2016-04-10T10:18:43.000Z</time>
      </trkpt>
      <trkpt lat="45.1713" lon="5.9595">
        <ele>2756</ele>
        <time>2016-04-10T10:18:44.000Z</time>
      </trkpt>
      <trkpt lat="45.17132" lon="5.95945">
        <ele>2755.6000976562</ele>
        <time>2016-04-10T10:18:45.000Z</time>
      </trkpt>
      <trkpt lat="45.17138" lon="5.95934">
        <ele>2754.6000976562</ele>
        <time>2016-04-10T10:18:47.000Z</time>
      </trkpt>
      <trkpt lat="45.17142" lon="5.95925">
        <ele>2753.1999511719</ele>
        <time>2016-04-10T10:18:49.000Z</time>
      </trkpt>
      <trkpt lat="45.17144" lon="5.95916">
        <ele>2752.6000976562</ele>
        <time>2016-04-10T10:18:51.000Z</time>
      </trkpt>
      <trkpt lat="45.17145" lon="5.95911">
        <ele>2752.1999511719</ele>
        <time>2016-04-10T10:18:52.000Z</time>
      </trkpt>
      <trkpt lat="45.17148" lon="5.95898">
        <ele>2751.1999511719</ele>
        <time>2016-04-10T10:18:54.000Z</time>
      </trkpt>
      <trkpt lat="45.1715" lon="5.95893">
        <ele>2750.6000976562</ele>
        <time>2016-04-10T10:18:55.000Z</time>
      </trkpt>
      <trkpt lat="45.17152" lon="5.95886">
        <ele>2749</ele>
        <time>2016-04-10T10:18:57.000Z</time>
      </trkpt>
      <trkpt lat="45.17153" lon="5.9588">
        <ele>2747.8000488281</ele>
        <time>2016-04-10T10:18:59.000Z</time>
      </trkpt>
      <trkpt lat="45.17151" lon="5.95878">
        <ele>2746.8000488281</ele>
        <time>2016-04-10T10:19:03.000Z</time>
      </trkpt>
      <trkpt lat="45.1715" lon="5.95878">
        <ele>2746.3999023438</ele>
        <time>2016-04-10T10:19:04.000Z</time>
      </trkpt>
      <trkpt lat="45.17149" lon="5.95874">
        <ele>2745</ele>
        <time>2016-04-10T10:19:05.000Z</time>
      </trkpt>
      <trkpt lat="45.17149" lon="5.95869">
        <ele>2743.6000976562</ele>
        <time>2016-04-10T10:19:06.000Z</time>
      </trkpt>
      <trkpt lat="45.17147" lon="5.95865">
        <ele>2742.1999511719</ele>
        <time>2016-04-10T10:19:07.000Z</time>
      </trkpt>
      <trkpt lat="45.17145" lon="5.95865">
        <ele>2740.6000976562</ele>
        <time>2016-04-10T10:19:08.000Z</time>
      </trkpt>
      <trkpt lat="45.17142" lon="5.95867">
        <ele>2739.3999023438</ele>
        <time>2016-04-10T10:19:09.000Z</time>
      </trkpt>
      <trkpt lat="45.17138" lon="5.95868">
        <ele>2737.3999023438</ele>
        <time>2016-04-10T10:19:10.000Z</time>
      </trkpt>
      <trkpt lat="45.17135" lon="5.95868">
        <ele>2735</ele>
        <time>2016-04-10T10:19:11.000Z</time>
      </trkpt>
      <trkpt lat="45.17133" lon="5.95866">
        <ele>2733.3999023438</ele>
        <time>2016-04-10T10:19:12.000Z</time>
      </trkpt>
      <trkpt lat="45.17131" lon="5.95866">
        <ele>2732.3999023438</ele>
        <time>2016-04-10T10:19:13.000Z</time>
      </trkpt>
      <trkpt lat="45.17126" lon="5.95871">
        <ele>2729.8000488281</ele>
        <time>2016-04-10T10:19:15.000Z</time>
      </trkpt>
      <trkpt lat="45.17121" lon="5.95877">
        <ele>2727.1999511719</ele>
        <time>2016-04-10T10:19:16.000Z</time>
      </trkpt>
      <trkpt lat="45.17118" lon="5.95881">
        <ele>2724.8000488281</ele>
        <time>2016-04-10T10:19:17.000Z</time>
      </trkpt>
      <trkpt lat="45.17115" lon="5.95885">
        <ele>2723.1999511719</ele>
        <time>2016-04-10T10:19:18.000Z</time>
      </trkpt>
      <trkpt lat="45.17112" lon="5.95887">
        <ele>2722.3999023438</ele>
        <time>2016-04-10T10:19:19.000Z</time>
      </trkpt>
      <trkpt lat="45.17109" lon="5.95884">
        <ele>2721.3999023438</ele>
        <time>2016-04-10T10:19:20.000Z</time>
      </trkpt>
      <trkpt lat="45.17101" lon="5.95877">
        <ele>2720.1999511719</ele>
        <time>2016-04-10T10:19:22.000Z</time>
      </trkpt>
      <trkpt lat="45.17097" lon="5.95869">
        <ele>2719.1999511719</ele>
        <time>2016-04-10T10:19:23.000Z</time>
      </trkpt>
      <trkpt lat="45.17095" lon="5.95859">
        <ele>2717</ele>
        <time>2016-04-10T10:19:24.000Z</time>
      </trkpt>
      <trkpt lat="45.17092" lon="5.95849">
        <ele>2715</ele>
        <time>2016-04-10T10:19:25.000Z</time>
      </trkpt>
      <trkpt lat="45.1709" lon="5.95841">
        <ele>2713.6000976562</ele>
        <time>2016-04-10T10:19:26.000Z</time>
      </trkpt>
      <trkpt lat="45.17083" lon="5.95833">
        <ele>2711</ele>
        <time>2016-04-10T10:19:28.000Z</time>
      </trkpt>
      <trkpt lat="45.17078" lon="5.95827">
        <ele>2708.6000976562</ele>
        <time>2016-04-10T10:19:29.000Z</time>
      </trkpt>
      <trkpt lat="45.17074" lon="5.95824">
        <ele>2706.3999023438</ele>
        <time>2016-04-10T10:19:30.000Z</time>
      </trkpt>
      <trkpt lat="45.17072" lon="5.95821">
        <ele>2705</ele>
        <time>2016-04-10T10:19:31.000Z</time>
      </trkpt>
      <trkpt lat="45.1707" lon="5.9582">
        <ele>2702.3999023438</ele>
        <time>2016-04-10T10:19:32.000Z</time>
      </trkpt>
      <trkpt lat="45.17069" lon="5.95819">
        <ele>2701</ele>
        <time>2016-04-10T10:19:33.000Z</time>
      </trkpt>
      <trkpt lat="45.17069" lon="5.95819">
        <ele>2699.8000488281</ele>
        <time>2016-04-10T10:19:34.000Z</time>
      </trkpt>
      <trkpt lat="45.17069" lon="5.95819">
        <ele>2698</ele>
        <time>2016-04-10T10:19:36.000Z</time>
      </trkpt>
      <trkpt lat="45.17069" lon="5.95819">
        <ele>2697.1999511719</ele>
        <time>2016-04-10T10:19:37.000Z</time>
      </trkpt>
      <trkpt lat="45.17069" lon="5.95819">
        <ele>2696.8000488281</ele>
        <time>2016-04-10T10:19:39.000Z</time>
      </trkpt>
      <trkpt lat="45.17068" lon="5.95821">
        <ele>2696.3999023438</ele>
        <time>2016-04-10T10:19:45.000Z</time>
      </trkpt>
      <trkpt lat="45.17069" lon="5.95821">
        <ele>2696.1999511719</ele>
        <time>2016-04-10T10:19:46.000Z</time>
      </trkpt>
      <trkpt lat="45.17064" lon="5.95825">
        <ele>2695.6000976562</ele>
        <time>2016-04-10T10:19:50.000Z</time>
      </trkpt>
      <trkpt lat="45.1706" lon="5.95831">
        <ele>2694.8000488281</ele>
        <time>2016-04-10T10:19:52.000Z</time>
      </trkpt>
      <trkpt lat="45.17058" lon="5.95833">
        <ele>2694.3999023438</ele>
        <time>2016-04-10T10:19:53.000Z</time>
      </trkpt>
      <trkpt lat="45.17054" lon="5.95839">
        <ele>2693.3999023438</ele>
        <time>2016-04-10T10:19:55.000Z</time>
      </trkpt>
      <trkpt lat="45.17052" lon="5.95842">
        <ele>2692.3999023438</ele>
        <time>2016-04-10T10:19:56.000Z</time>
      </trkpt>
      <trkpt lat="45.17044" lon="5.95855">
        <ele>2691.6000976562</ele>
        <time>2016-04-10T10:19:59.000Z</time>
      </trkpt>
      <trkpt lat="45.17042" lon="5.95861">
        <ele>2691</ele>
        <time>2016-04-10T10:20:00.000Z</time>
      </trkpt>
      <trkpt lat="45.17039" lon="5.95872">
        <ele>2689.3999023438</ele>
        <time>2016-04-10T10:20:02.000Z</time>
      </trkpt>
      <trkpt lat="45.17034" lon="5.95882">
        <ele>2688.1999511719</ele>
        <time>2016-04-10T10:20:04.000Z</time>
      </trkpt>
      <trkpt lat="45.17032" lon="5.95886">
        <ele>2688</ele>
        <time>2016-04-10T10:20:05.000Z</time>
      </trkpt>
      <trkpt lat="45.17029" lon="5.9589">
        <ele>2687.3999023438</ele>
        <time>2016-04-10T10:20:06.000Z</time>
      </trkpt>
      <trkpt lat="45.17026" lon="5.95894">
        <ele>2687</ele>
        <time>2016-04-10T10:20:07.000Z</time>
      </trkpt>
      <trkpt lat="45.17021" lon="5.95898">
        <ele>2686</ele>
        <time>2016-04-10T10:20:09.000Z</time>
      </trkpt>
      <trkpt lat="45.17017" lon="5.95899">
        <ele>2684.3999023438</ele>
        <time>2016-04-10T10:20:10.000Z</time>
      </trkpt>
      <trkpt lat="45.17013" lon="5.959">
        <ele>2683</ele>
        <time>2016-04-10T10:20:11.000Z</time>
      </trkpt>
      <trkpt lat="45.17009" lon="5.95896">
        <ele>2681.8000488281</ele>
        <time>2016-04-10T10:20:12.000Z</time>
      </trkpt>
      <trkpt lat="45.17007" lon="5.95891">
        <ele>2680.1999511719</ele>
        <time>2016-04-10T10:20:13.000Z</time>
      </trkpt>
      <trkpt lat="45.17007" lon="5.95882">
        <ele>2678.3999023438</ele>
        <time>2016-04-10T10:20:14.000Z</time>
      </trkpt>
      <trkpt lat="45.17006" lon="5.95875">
        <ele>2677</ele>
        <time>2016-04-10T10:20:15.000Z</time>
      </trkpt>
      <trkpt lat="45.17005" lon="5.95867">
        <ele>2675.8000488281</ele>
        <time>2016-04-10T10:20:16.000Z</time>
      </trkpt>
      <trkpt lat="45.17005" lon="5.95861">
        <ele>2674.8000488281</ele>
        <time>2016-04-10T10:20:17.000Z</time>
      </trkpt>
      <trkpt lat="45.17005" lon="5.95854">
        <ele>2673.8000488281</ele>
        <time>2016-04-10T10:20:18.000Z</time>
      </trkpt>
      <trkpt lat="45.17005" lon="5.95848">
        <ele>2672.8000488281</ele>
        <time>2016-04-10T10:20:19.000Z</time>
      </trkpt>
      <trkpt lat="45.17006" lon="5.9584">
        <ele>2670.8000488281</ele>
        <time>2016-04-10T10:20:20.000Z</time>
      </trkpt>
      <trkpt lat="45.17007" lon="5.95822">
        <ele>2669.3999023438</ele>
        <time>2016-04-10T10:20:22.000Z</time>
      </trkpt>
      <trkpt lat="45.17007" lon="5.95812">
        <ele>2668.1999511719</ele>
        <time>2016-04-10T10:20:23.000Z</time>
      </trkpt>
      <trkpt lat="45.17008" lon="5.95804">
        <ele>2666.8000488281</ele>
        <time>2016-04-10T10:20:24.000Z</time>
      </trkpt>
      <trkpt lat="45.17007" lon="5.95796">
        <ele>2665</ele>
        <time>2016-04-10T10:20:25.000Z</time>
      </trkpt>
      <trkpt lat="45.17006" lon="5.95789">
        <ele>2663</ele>
        <time>2016-04-10T10:20:26.000Z</time>
      </trkpt>
      <trkpt lat="45.17001" lon="5.95786">
        <ele>2661.3999023438</ele>
        <time>2016-04-10T10:20:27.000Z</time>
      </trkpt>
      <trkpt lat="45.16998" lon="5.95783">
        <ele>2659.3999023438</ele>
        <time>2016-04-10T10:20:28.000Z</time>
      </trkpt>
      <trkpt lat="45.16997" lon="5.9578">
        <ele>2657.3999023438</ele>
        <time>2016-04-10T10:20:29.000Z</time>
      </trkpt>
      <trkpt lat="45.16996" lon="5.95776">
        <ele>2655.1999511719</ele>
        <time>2016-04-10T10:20:30.000Z</time>
      </trkpt>
      <trkpt lat="45.16994" lon="5.95773">
        <ele>2653.1999511719</ele>
        <time>2016-04-10T10:20:31.000Z</time>
      </trkpt>
      <trkpt lat="45.16991" lon="5.9577">
        <ele>2652</ele>
        <time>2016-04-10T10:20:32.000Z</time>
      </trkpt>
      <trkpt lat="45.16987" lon="5.95768">
        <ele>2651</ele>
        <time>2016-04-10T10:20:33.000Z</time>
      </trkpt>
      <trkpt lat="45.16984" lon="5.95766">
        <ele>2649.8000488281</ele>
        <time>2016-04-10T10:20:34.000Z</time>
      </trkpt>
      <trkpt lat="45.16983" lon="5.95763">
        <ele>2648.1999511719</ele>
        <time>2016-04-10T10:20:35.000Z</time>
      </trkpt>
      <trkpt lat="45.16983" lon="5.95761">
        <ele>2646.3999023438</ele>
        <time>2016-04-10T10:20:36.000Z</time>
      </trkpt>
      <trkpt lat="45.16984" lon="5.95758">
        <ele>2645</ele>
        <time>2016-04-10T10:20:37.000Z</time>
      </trkpt>
      <trkpt lat="45.16983" lon="5.95755">
        <ele>2644</ele>
        <time>2016-04-10T10:20:38.000Z</time>
      </trkpt>
      <trkpt lat="45.16978" lon="5.95751">
        <ele>2642.1999511719</ele>
        <time>2016-04-10T10:20:40.000Z</time>
      </trkpt>
      <trkpt lat="45.16976" lon="5.95743">
        <ele>2640.3999023438</ele>
        <time>2016-04-10T10:20:42.000Z</time>
      </trkpt>
      <trkpt lat="45.16979" lon="5.95738">
        <ele>2639</ele>
        <time>2016-04-10T10:20:43.000Z</time>
      </trkpt>
      <trkpt lat="45.1698" lon="5.95732">
        <ele>2634.8000488281</ele>
        <time>2016-04-10T10:20:44.000Z</time>
      </trkpt>
      <trkpt lat="45.16978" lon="5.95726">
        <ele>2633.3999023438</ele>
        <time>2016-04-10T10:20:45.000Z</time>
      </trkpt>
      <trkpt lat="45.16975" lon="5.9572">
        <ele>2632.3999023438</ele>
        <time>2016-04-10T10:20:46.000Z</time>
      </trkpt>
      <trkpt lat="45.16974" lon="5.95711">
        <ele>2630.1999511719</ele>
        <time>2016-04-10T10:20:47.000Z</time>
      </trkpt>
      <trkpt lat="45.16974" lon="5.95702">
        <ele>2626.8000488281</ele>
        <time>2016-04-10T10:20:48.000Z</time>
      </trkpt>
      <trkpt lat="45.16973" lon="5.95693">
        <ele>2623.3999023438</ele>
        <time>2016-04-10T10:20:49.000Z</time>
      </trkpt>
      <trkpt lat="45.16972" lon="5.95687">
        <ele>2621</ele>
        <time>2016-04-10T10:20:50.000Z</time>
      </trkpt>
      <trkpt lat="45.16971" lon="5.95688">
        <ele>2619.6000976562</ele>
        <time>2016-04-10T10:20:51.000Z</time>
      </trkpt>
      <trkpt lat="45.16969" lon="5.95689">
        <ele>2618</ele>
        <time>2016-04-10T10:20:52.000Z</time>
      </trkpt>
      <trkpt lat="45.16967" lon="5.9569">
        <ele>2616.1999511719</ele>
        <time>2016-04-10T10:20:53.000Z</time>
      </trkpt>
      <trkpt lat="45.16965" lon="5.9569">
        <ele>2614.3999023438</ele>
        <time>2016-04-10T10:20:54.000Z</time>
      </trkpt>
      <trkpt lat="45.16965" lon="5.95691">
        <ele>2613.1999511719</ele>
        <time>2016-04-10T10:20:55.000Z</time>
      </trkpt>
      <trkpt lat="45.16965" lon="5.95691">
        <ele>2612.3999023438</ele>
        <time>2016-04-10T10:20:56.000Z</time>
      </trkpt>
      <trkpt lat="45.16965" lon="5.95693">
        <ele>2611.8000488281</ele>
        <time>2016-04-10T10:20:57.000Z</time>
      </trkpt>
      <trkpt lat="45.16964" lon="5.95701">
        <ele>2610.8000488281</ele>
        <time>2016-04-10T10:21:04.000Z</time>
      </trkpt>
      <trkpt lat="45.16961" lon="5.95703">
        <ele>2610.8000488281</ele>
        <time>2016-04-10T10:21:05.000Z</time>
      </trkpt>
      <trkpt lat="45.16954" lon="5.95699">
        <ele>2610.1999511719</ele>
        <time>2016-04-10T10:21:08.000Z</time>
      </trkpt>
      <trkpt lat="45.1695" lon="5.95696">
        <ele>2609.6000976562</ele>
        <time>2016-04-10T10:21:09.000Z</time>
      </trkpt>
      <trkpt lat="45.16939" lon="5.95696">
        <ele>2607.8000488281</ele>
        <time>2016-04-10T10:21:11.000Z</time>
      </trkpt>
      <trkpt lat="45.16934" lon="5.95696">
        <ele>2606</ele>
        <time>2016-04-10T10:21:12.000Z</time>
      </trkpt>
      <trkpt lat="45.1693" lon="5.95691">
        <ele>2603.3999023438</ele>
        <time>2016-04-10T10:21:13.000Z</time>
      </trkpt>
      <trkpt lat="45.16925" lon="5.95688">
        <ele>2601.6000976562</ele>
        <time>2016-04-10T10:21:14.000Z</time>
      </trkpt>
      <trkpt lat="45.1692" lon="5.95685">
        <ele>2600.1999511719</ele>
        <time>2016-04-10T10:21:15.000Z</time>
      </trkpt>
      <trkpt lat="45.1691" lon="5.95678">
        <ele>2598.6000976562</ele>
        <time>2016-04-10T10:21:17.000Z</time>
      </trkpt>
      <trkpt lat="45.16904" lon="5.95674">
        <ele>2597.6000976562</ele>
        <time>2016-04-10T10:21:18.000Z</time>
      </trkpt>
      <trkpt lat="45.16898" lon="5.9567">
        <ele>2596.3999023438</ele>
        <time>2016-04-10T10:21:19.000Z</time>
      </trkpt>
      <trkpt lat="45.16893" lon="5.9567">
        <ele>2595.1999511719</ele>
        <time>2016-04-10T10:21:20.000Z</time>
      </trkpt>
      <trkpt lat="45.16889" lon="5.95675">
        <ele>2593.3999023438</ele>
        <time>2016-04-10T10:21:21.000Z</time>
      </trkpt>
      <trkpt lat="45.16885" lon="5.95681">
        <ele>2591.3999023438</ele>
        <time>2016-04-10T10:21:22.000Z</time>
      </trkpt>
      <trkpt lat="45.16881" lon="5.95684">
        <ele>2589.3999023438</ele>
        <time>2016-04-10T10:21:23.000Z</time>
      </trkpt>
      <trkpt lat="45.16877" lon="5.95688">
        <ele>2587.8000488281</ele>
        <time>2016-04-10T10:21:24.000Z</time>
      </trkpt>
      <trkpt lat="45.16874" lon="5.95689">
        <ele>2586.3999023438</ele>
        <time>2016-04-10T10:21:25.000Z</time>
      </trkpt>
      <trkpt lat="45.16871" lon="5.95693">
        <ele>2585.1999511719</ele>
        <time>2016-04-10T10:21:26.000Z</time>
      </trkpt>
      <trkpt lat="45.16864" lon="5.957">
        <ele>2583.6000976562</ele>
        <time>2016-04-10T10:21:28.000Z</time>
      </trkpt>
      <trkpt lat="45.1686" lon="5.95701">
        <ele>2582</ele>
        <time>2016-04-10T10:21:30.000Z</time>
      </trkpt>
      <trkpt lat="45.16857" lon="5.95702">
        <ele>2580.8000488281</ele>
        <time>2016-04-10T10:21:31.000Z</time>
      </trkpt>
      <trkpt lat="45.16855" lon="5.95703">
        <ele>2578.6000976562</ele>
        <time>2016-04-10T10:21:32.000Z</time>
      </trkpt>
      <trkpt lat="45.16849" lon="5.95706">
        <ele>2577.1999511719</ele>
        <time>2016-04-10T10:21:34.000Z</time>
      </trkpt>
      <trkpt lat="45.16843" lon="5.95707">
        <ele>2575.3999023438</ele>
        <time>2016-04-10T10:21:36.000Z</time>
      </trkpt>
      <trkpt lat="45.16843" lon="5.95705">
        <ele>2574.3999023438</ele>
        <time>2016-04-10T10:21:37.000Z</time>
      </trkpt>
      <trkpt lat="45.16843" lon="5.957">
        <ele>2573.3999023438</ele>
        <time>2016-04-10T10:21:38.000Z</time>
      </trkpt>
      <trkpt lat="45.16843" lon="5.95696">
        <ele>2572</ele>
        <time>2016-04-10T10:21:39.000Z</time>
      </trkpt>
      <trkpt lat="45.16842" lon="5.95694">
        <ele>2570.6000976562</ele>
        <time>2016-04-10T10:21:40.000Z</time>
      </trkpt>
      <trkpt lat="45.16838" lon="5.95694">
        <ele>2569.3999023438</ele>
        <time>2016-04-10T10:21:41.000Z</time>
      </trkpt>
      <trkpt lat="45.16834" lon="5.95687">
        <ele>2567</ele>
        <time>2016-04-10T10:21:43.000Z</time>
      </trkpt>
      <trkpt lat="45.16834" lon="5.9568">
        <ele>2564.8000488281</ele>
        <time>2016-04-10T10:21:44.000Z</time>
      </trkpt>
      <trkpt lat="45.16834" lon="5.95671">
        <ele>2562.1999511719</ele>
        <time>2016-04-10T10:21:45.000Z</time>
      </trkpt>
      <trkpt lat="45.16833" lon="5.95663">
        <ele>2560.1999511719</ele>
        <time>2016-04-10T10:21:46.000Z</time>
      </trkpt>
      <trkpt lat="45.16832" lon="5.95657">
        <ele>2558.3999023438</ele>
        <time>2016-04-10T10:21:47.000Z</time>
      </trkpt>
      <trkpt lat="45.1683" lon="5.95651">
        <ele>2556.3999023438</ele>
        <time>2016-04-10T10:21:48.000Z</time>
      </trkpt>
      <trkpt lat="45.1683" lon="5.95647">
        <ele>2555</ele>
        <time>2016-04-10T10:21:49.000Z</time>
      </trkpt>
      <trkpt lat="45.16828" lon="5.95648">
        <ele>2554</ele>
        <time>2016-04-10T10:21:50.000Z</time>
      </trkpt>
      <trkpt lat="45.16825" lon="5.95647">
        <ele>2553.1999511719</ele>
        <time>2016-04-10T10:21:51.000Z</time>
      </trkpt>
      <trkpt lat="45.16819" lon="5.95647">
        <ele>2550.8000488281</ele>
        <time>2016-04-10T10:21:53.000Z</time>
      </trkpt>
      <trkpt lat="45.16816" lon="5.9565">
        <ele>2549.1999511719</ele>
        <time>2016-04-10T10:21:54.000Z</time>
      </trkpt>
      <trkpt lat="45.16814" lon="5.95654">
        <ele>2547.8000488281</ele>
        <time>2016-04-10T10:21:55.000Z</time>
      </trkpt>
      <trkpt lat="45.1681" lon="5.95657">
        <ele>2544.3999023438</ele>
        <time>2016-04-10T10:21:56.000Z</time>
      </trkpt>
      <trkpt lat="45.16807" lon="5.95658">
        <ele>2541.8000488281</ele>
        <time>2016-04-10T10:21:57.000Z</time>
      </trkpt>
      <trkpt lat="45.16804" lon="5.9566">
        <ele>2539.1999511719</ele>
        <time>2016-04-10T10:21:58.000Z</time>
      </trkpt>
      <trkpt lat="45.16801" lon="5.95661">
        <ele>2537.1999511719</ele>
        <time>2016-04-10T10:21:59.000Z</time>
      </trkpt>
      <trkpt lat="45.16798" lon="5.95662">
        <ele>2535.3999023438</ele>
        <time>2016-04-10T10:22:00.000Z</time>
      </trkpt>
      <trkpt lat="45.16795" lon="5.95659">
        <ele>2533.3999023438</ele>
        <time>2016-04-10T10:22:01.000Z</time>
      </trkpt>
      <trkpt lat="45.16791" lon="5.95658">
        <ele>2531</ele>
        <time>2016-04-10T10:22:02.000Z</time>
      </trkpt>
      <trkpt lat="45.16787" lon="5.95659">
        <ele>2528.8000488281</ele>
        <time>2016-04-10T10:22:03.000Z</time>
      </trkpt>
      <trkpt lat="45.16783" lon="5.9566">
        <ele>2527</ele>
        <time>2016-04-10T10:22:04.000Z</time>
      </trkpt>
      <trkpt lat="45.1678" lon="5.95662">
        <ele>2525.3999023438</ele>
        <time>2016-04-10T10:22:05.000Z</time>
      </trkpt>
      <trkpt lat="45.16777" lon="5.9566">
        <ele>2523.6000976562</ele>
        <time>2016-04-10T10:22:06.000Z</time>
      </trkpt>
      <trkpt lat="45.16774" lon="5.95657">
        <ele>2521.1999511719</ele>
        <time>2016-04-10T10:22:07.000Z</time>
      </trkpt>
      <trkpt lat="45.16772" lon="5.95653">
        <ele>2518.8000488281</ele>
        <time>2016-04-10T10:22:08.000Z</time>
      </trkpt>
      <trkpt lat="45.1677" lon="5.95651">
        <ele>2516.6000976562</ele>
        <time>2016-04-10T10:22:09.000Z</time>
      </trkpt>
      <trkpt lat="45.16767" lon="5.9565">
        <ele>2514.8000488281</ele>
        <time>2016-04-10T10:22:10.000Z</time>
      </trkpt>
      <trkpt lat="45.16764" lon="5.95649">
        <ele>2513.1999511719</ele>
        <time>2016-04-10T10:22:11.000Z</time>
      </trkpt>
      <trkpt lat="45.16761" lon="5.95645">
        <ele>2511.1999511719</ele>
        <time>2016-04-10T10:22:12.000Z</time>
      </trkpt>
      <trkpt lat="45.16758" lon="5.95642">
        <ele>2509</ele>
        <time>2016-04-10T10:22:13.000Z</time>
      </trkpt>
      <trkpt lat="45.16756" lon="5.95639">
        <ele>2506.3999023438</ele>
        <time>2016-04-10T10:22:14.000Z</time>
      </trkpt>
      <trkpt lat="45.16753" lon="5.95637">
        <ele>2504.1999511719</ele>
        <time>2016-04-10T10:22:15.000Z</time>
      </trkpt>
      <trkpt lat="45.1675" lon="5.95633">
        <ele>2502.1999511719</ele>
        <time>2016-04-10T10:22:16.000Z</time>
      </trkpt>
      <trkpt lat="45.16747" lon="5.95631">
        <ele>2500</ele>
        <time>2016-04-10T10:22:17.000Z</time>
      </trkpt>
      <trkpt lat="45.16743" lon="5.95632">
        <ele>2497.1999511719</ele>
        <time>2016-04-10T10:22:18.000Z</time>
      </trkpt>
      <trkpt lat="45.16739" lon="5.95631">
        <ele>2494.3999023438</ele>
        <time>2016-04-10T10:22:19.000Z</time>
      </trkpt>
      <trkpt lat="45.16735" lon="5.9563">
        <ele>2489.8000488281</ele>
        <time>2016-04-10T10:22:20.000Z</time>
      </trkpt>
      <trkpt lat="45.16731" lon="5.95626">
        <ele>2487.3999023438</ele>
        <time>2016-04-10T10:22:21.000Z</time>
      </trkpt>
      <trkpt lat="45.16729" lon="5.9562">
        <ele>2484.8000488281</ele>
        <time>2016-04-10T10:22:22.000Z</time>
      </trkpt>
      <trkpt lat="45.16724" lon="5.95615">
        <ele>2482.3999023438</ele>
        <time>2016-04-10T10:22:23.000Z</time>
      </trkpt>
      <trkpt lat="45.16719" lon="5.95607">
        <ele>2480.1999511719</ele>
        <time>2016-04-10T10:22:24.000Z</time>
      </trkpt>
      <trkpt lat="45.16713" lon="5.95595">
        <ele>2478.1999511719</ele>
        <time>2016-04-10T10:22:25.000Z</time>
      </trkpt>
      <trkpt lat="45.1671" lon="5.95585">
        <ele>2476.3999023438</ele>
        <time>2016-04-10T10:22:26.000Z</time>
      </trkpt>
      <trkpt lat="45.16707" lon="5.95577">
        <ele>2474.8000488281</ele>
        <time>2016-04-10T10:22:27.000Z</time>
      </trkpt>
      <trkpt lat="45.16705" lon="5.95571">
        <ele>2473.3999023438</ele>
        <time>2016-04-10T10:22:28.000Z</time>
      </trkpt>
      <trkpt lat="45.16702" lon="5.95565">
        <ele>2472.1999511719</ele>
        <time>2016-04-10T10:22:29.000Z</time>
      </trkpt>
      <trkpt lat="45.16698" lon="5.9556">
        <ele>2471</ele>
        <time>2016-04-10T10:22:30.000Z</time>
      </trkpt>
      <trkpt lat="45.16694" lon="5.95559">
        <ele>2470</ele>
        <time>2016-04-10T10:22:31.000Z</time>
      </trkpt>
      <trkpt lat="45.1669" lon="5.9556">
        <ele>2469</ele>
        <time>2016-04-10T10:22:32.000Z</time>
      </trkpt>
      <trkpt lat="45.16685" lon="5.95562">
        <ele>2467.8000488281</ele>
        <time>2016-04-10T10:22:33.000Z</time>
      </trkpt>
      <trkpt lat="45.1668" lon="5.95562">
        <ele>2466.6000976562</ele>
        <time>2016-04-10T10:22:34.000Z</time>
      </trkpt>
      <trkpt lat="45.16675" lon="5.95561">
        <ele>2465.6000976562</ele>
        <time>2016-04-10T10:22:35.000Z</time>
      </trkpt>
      <trkpt lat="45.16669" lon="5.9556">
        <ele>2464.1999511719</ele>
        <time>2016-04-10T10:22:36.000Z</time>
      </trkpt>
      <trkpt lat="45.16665" lon="5.95562">
        <ele>2463</ele>
        <time>2016-04-10T10:22:37.000Z</time>
      </trkpt>
      <trkpt lat="45.16662" lon="5.95565">
        <ele>2461.3999023438</ele>
        <time>2016-04-10T10:22:38.000Z</time>
      </trkpt>
      <trkpt lat="45.16658" lon="5.95568">
        <ele>2459.8000488281</ele>
        <time>2016-04-10T10:22:39.000Z</time>
      </trkpt>
      <trkpt lat="45.16654" lon="5.95569">
        <ele>2457.8000488281</ele>
        <time>2016-04-10T10:22:40.000Z</time>
      </trkpt>
      <trkpt lat="45.16649" lon="5.9557">
        <ele>2455.8000488281</ele>
        <time>2016-04-10T10:22:41.000Z</time>
      </trkpt>
      <trkpt lat="45.16644" lon="5.95571">
        <ele>2454.1999511719</ele>
        <time>2016-04-10T10:22:42.000Z</time>
      </trkpt>
      <trkpt lat="45.1664" lon="5.95569">
        <ele>2452.6000976562</ele>
        <time>2016-04-10T10:22:43.000Z</time>
      </trkpt>
      <trkpt lat="45.16637" lon="5.95567">
        <ele>2449.3999023438</ele>
        <time>2016-04-10T10:22:44.000Z</time>
      </trkpt>
      <trkpt lat="45.16634" lon="5.95563">
        <ele>2447.3999023438</ele>
        <time>2016-04-10T10:22:45.000Z</time>
      </trkpt>
      <trkpt lat="45.16633" lon="5.95556">
        <ele>2445.3999023438</ele>
        <time>2016-04-10T10:22:46.000Z</time>
      </trkpt>
      <trkpt lat="45.16634" lon="5.95545">
        <ele>2443.6000976562</ele>
        <time>2016-04-10T10:22:47.000Z</time>
      </trkpt>
      <trkpt lat="45.16634" lon="5.95534">
        <ele>2442</ele>
        <time>2016-04-10T10:22:48.000Z</time>
      </trkpt>
      <trkpt lat="45.16635" lon="5.95525">
        <ele>2440.6000976562</ele>
        <time>2016-04-10T10:22:49.000Z</time>
      </trkpt>
      <trkpt lat="45.16635" lon="5.95519">
        <ele>2439</ele>
        <time>2016-04-10T10:22:50.000Z</time>
      </trkpt>
      <trkpt lat="45.16635" lon="5.95513">
        <ele>2437</ele>
        <time>2016-04-10T10:22:51.000Z</time>
      </trkpt>
      <trkpt lat="45.16632" lon="5.9551">
        <ele>2435.1999511719</ele>
        <time>2016-04-10T10:22:52.000Z</time>
      </trkpt>
      <trkpt lat="45.16627" lon="5.95509">
        <ele>2433.8000488281</ele>
        <time>2016-04-10T10:22:53.000Z</time>
      </trkpt>
      <trkpt lat="45.16622" lon="5.95509">
        <ele>2432.8000488281</ele>
        <time>2016-04-10T10:22:54.000Z</time>
      </trkpt>
      <trkpt lat="45.16618" lon="5.95508">
        <ele>2431.8000488281</ele>
        <time>2016-04-10T10:22:55.000Z</time>
      </trkpt>
      <trkpt lat="45.16615" lon="5.95504">
        <ele>2430.3999023438</ele>
        <time>2016-04-10T10:22:56.000Z</time>
      </trkpt>
      <trkpt lat="45.16612" lon="5.95501">
        <ele>2428.3999023438</ele>
        <time>2016-04-10T10:22:57.000Z</time>
      </trkpt>
      <trkpt lat="45.16609" lon="5.95499">
        <ele>2426.3999023438</ele>
        <time>2016-04-10T10:22:58.000Z</time>
      </trkpt>
      <trkpt lat="45.16604" lon="5.95498">
        <ele>2424.6000976562</ele>
        <time>2016-04-10T10:22:59.000Z</time>
      </trkpt>
      <trkpt lat="45.166" lon="5.95496">
        <ele>2423</ele>
        <time>2016-04-10T10:23:00.000Z</time>
      </trkpt>
      <trkpt lat="45.16595" lon="5.95494">
        <ele>2421.3999023438</ele>
        <time>2016-04-10T10:23:01.000Z</time>
      </trkpt>
      <trkpt lat="45.16589" lon="5.95496">
        <ele>2419.3999023438</ele>
        <time>2016-04-10T10:23:02.000Z</time>
      </trkpt>
      <trkpt lat="45.16584" lon="5.95496">
        <ele>2417.3999023438</ele>
        <time>2016-04-10T10:23:03.000Z</time>
      </trkpt>
      <trkpt lat="45.16579" lon="5.95495">
        <ele>2415.1999511719</ele>
        <time>2016-04-10T10:23:04.000Z</time>
      </trkpt>
      <trkpt lat="45.16575" lon="5.95493">
        <ele>2412.8000488281</ele>
        <time>2016-04-10T10:23:05.000Z</time>
      </trkpt>
      <trkpt lat="45.16571" lon="5.9549">
        <ele>2410</ele>
        <time>2016-04-10T10:23:06.000Z</time>
      </trkpt>
      <trkpt lat="45.16566" lon="5.95487">
        <ele>2407.3999023438</ele>
        <time>2016-04-10T10:23:07.000Z</time>
      </trkpt>
      <trkpt lat="45.16561" lon="5.95482">
        <ele>2402.6000976562</ele>
        <time>2016-04-10T10:23:08.000Z</time>
      </trkpt>
      <trkpt lat="45.16558" lon="5.95477">
        <ele>2399.6000976562</ele>
        <time>2016-04-10T10:23:09.000Z</time>
      </trkpt>
      <trkpt lat="45.16559" lon="5.95467">
        <ele>2396.3999023438</ele>
        <time>2016-04-10T10:23:10.000Z</time>
      </trkpt>
      <trkpt lat="45.16556" lon="5.9546">
        <ele>2393.8000488281</ele>
        <time>2016-04-10T10:23:11.000Z</time>
      </trkpt>
      <trkpt lat="45.16551" lon="5.95459">
        <ele>2392</ele>
        <time>2016-04-10T10:23:12.000Z</time>
      </trkpt>
      <trkpt lat="45.16546" lon="5.95456">
        <ele>2390.6000976562</ele>
        <time>2016-04-10T10:23:13.000Z</time>
      </trkpt>
      <trkpt lat="45.16543" lon="5.95452">
        <ele>2389.3999023438</ele>
        <time>2016-04-10T10:23:14.000Z</time>
      </trkpt>
      <trkpt lat="45.1654" lon="5.95446">
        <ele>2388</ele>
        <time>2016-04-10T10:23:15.000Z</time>
      </trkpt>
      <trkpt lat="45.16538" lon="5.9544">
        <ele>2386.3999023438</ele>
        <time>2016-04-10T10:23:16.000Z</time>
      </trkpt>
      <trkpt lat="45.16533" lon="5.95435">
        <ele>2384.3999023438</ele>
        <time>2016-04-10T10:23:17.000Z</time>
      </trkpt>
      <trkpt lat="45.16527" lon="5.95434">
        <ele>2382.3999023438</ele>
        <time>2016-04-10T10:23:18.000Z</time>
      </trkpt>
      <trkpt lat="45.16522" lon="5.9543">
        <ele>2380.3999023438</ele>
        <time>2016-04-10T10:23:19.000Z</time>
      </trkpt>
      <trkpt lat="45.16518" lon="5.95424">
        <ele>2378.1999511719</ele>
        <time>2016-04-10T10:23:20.000Z</time>
      </trkpt>
      <trkpt lat="45.16516" lon="5.95416">
        <ele>2375.8000488281</ele>
        <time>2016-04-10T10:23:21.000Z</time>
      </trkpt>
      <trkpt lat="45.16521" lon="5.95407">
        <ele>2373.6000976562</ele>
        <time>2016-04-10T10:23:22.000Z</time>
      </trkpt>
      <trkpt lat="45.16522" lon="5.95398">
        <ele>2371.6000976562</ele>
        <time>2016-04-10T10:23:23.000Z</time>
      </trkpt>
      <trkpt lat="45.16521" lon="5.95393">
        <ele>2370</ele>
        <time>2016-04-10T10:23:24.000Z</time>
      </trkpt>
      <trkpt lat="45.1652" lon="5.95388">
        <ele>2368.8000488281</ele>
        <time>2016-04-10T10:23:25.000Z</time>
      </trkpt>
      <trkpt lat="45.16519" lon="5.95383">
        <ele>2368</ele>
        <time>2016-04-10T10:23:26.000Z</time>
      </trkpt>
      <trkpt lat="45.16519" lon="5.95376">
        <ele>2367.1999511719</ele>
        <time>2016-04-10T10:23:27.000Z</time>
      </trkpt>
      <trkpt lat="45.16522" lon="5.95367">
        <ele>2365.1999511719</ele>
        <time>2016-04-10T10:23:29.000Z</time>
      </trkpt>
      <trkpt lat="45.16524" lon="5.95369">
        <ele>2364</ele>
        <time>2016-04-10T10:23:30.000Z</time>
      </trkpt>
      <trkpt lat="45.16526" lon="5.95371">
        <ele>2362.3999023438</ele>
        <time>2016-04-10T10:23:31.000Z</time>
      </trkpt>
      <trkpt lat="45.16527" lon="5.95371">
        <ele>2359.6000976562</ele>
        <time>2016-04-10T10:23:32.000Z</time>
      </trkpt>
      <trkpt lat="45.16527" lon="5.95373">
        <ele>2358.3999023438</ele>
        <time>2016-04-10T10:23:34.000Z</time>
      </trkpt>
      <trkpt lat="45.16527" lon="5.95378">
        <ele>2358.6000976562</ele>
        <time>2016-04-10T10:23:38.000Z</time>
      </trkpt>
      <trkpt lat="45.1653" lon="5.95373">
        <ele>2358.6000976562</ele>
        <time>2016-04-10T10:23:46.000Z</time>
      </trkpt>
      <trkpt lat="45.16532" lon="5.95356">
        <ele>2357.6000976562</ele>
        <time>2016-04-10T10:23:49.000Z</time>
      </trkpt>
      <trkpt lat="45.16532" lon="5.95352">
        <ele>2357</ele>
        <time>2016-04-10T10:23:50.000Z</time>
      </trkpt>
      <trkpt lat="45.16532" lon="5.9535">
        <ele>2355.8000488281</ele>
        <time>2016-04-10T10:23:51.000Z</time>
      </trkpt>
      <trkpt lat="45.16535" lon="5.95349">
        <ele>2354.1999511719</ele>
        <time>2016-04-10T10:23:52.000Z</time>
      </trkpt>
      <trkpt lat="45.16538" lon="5.95349">
        <ele>2352.6000976562</ele>
        <time>2016-04-10T10:23:53.000Z</time>
      </trkpt>
      <trkpt lat="45.16542" lon="5.95349">
        <ele>2351</ele>
        <time>2016-04-10T10:23:54.000Z</time>
      </trkpt>
      <trkpt lat="45.16547" lon="5.9535">
        <ele>2349.8000488281</ele>
        <time>2016-04-10T10:23:55.000Z</time>
      </trkpt>
      <trkpt lat="45.16552" lon="5.95351">
        <ele>2347.1999511719</ele>
        <time>2016-04-10T10:23:56.000Z</time>
      </trkpt>
      <trkpt lat="45.16557" lon="5.9535">
        <ele>2345.6000976562</ele>
        <time>2016-04-10T10:23:57.000Z</time>
      </trkpt>
      <trkpt lat="45.16561" lon="5.95349">
        <ele>2344</ele>
        <time>2016-04-10T10:23:58.000Z</time>
      </trkpt>
      <trkpt lat="45.16564" lon="5.95349">
        <ele>2342.8000488281</ele>
        <time>2016-04-10T10:23:59.000Z</time>
      </trkpt>
      <trkpt lat="45.16566" lon="5.95347">
        <ele>2341.3999023438</ele>
        <time>2016-04-10T10:24:00.000Z</time>
      </trkpt>
      <trkpt lat="45.16562" lon="5.95342">
        <ele>2339.8000488281</ele>
        <time>2016-04-10T10:24:01.000Z</time>
      </trkpt>
      <trkpt lat="45.16559" lon="5.95336">
        <ele>2338</ele>
        <time>2016-04-10T10:24:02.000Z</time>
      </trkpt>
      <trkpt lat="45.16558" lon="5.95331">
        <ele>2336.1999511719</ele>
        <time>2016-04-10T10:24:03.000Z</time>
      </trkpt>
      <trkpt lat="45.16556" lon="5.95325">
        <ele>2334.6000976562</ele>
        <time>2016-04-10T10:24:04.000Z</time>
      </trkpt>
      <trkpt lat="45.16555" lon="5.9532">
        <ele>2333.3999023438</ele>
        <time>2016-04-10T10:24:05.000Z</time>
      </trkpt>
      <trkpt lat="45.16555" lon="5.95315">
        <ele>2332.3999023438</ele>
        <time>2016-04-10T10:24:06.000Z</time>
      </trkpt>
      <trkpt lat="45.16554" lon="5.9531">
        <ele>2331.3999023438</ele>
        <time>2016-04-10T10:24:07.000Z</time>
      </trkpt>
      <trkpt lat="45.16553" lon="5.95307">
        <ele>2330.3999023438</ele>
        <time>2016-04-10T10:24:08.000Z</time>
      </trkpt>
      <trkpt lat="45.16554" lon="5.95305">
        <ele>2329.3999023438</ele>
        <time>2016-04-10T10:24:09.000Z</time>
      </trkpt>
      <trkpt lat="45.16556" lon="5.95305">
        <ele>2328.6000976562</ele>
        <time>2016-04-10T10:24:10.000Z</time>
      </trkpt>
      <trkpt lat="45.16558" lon="5.95305">
        <ele>2327.6000976562</ele>
        <time>2016-04-10T10:24:11.000Z</time>
      </trkpt>
      <trkpt lat="45.1656" lon="5.95305">
        <ele>2326.1999511719</ele>
        <time>2016-04-10T10:24:12.000Z</time>
      </trkpt>
      <trkpt lat="45.16562" lon="5.95305">
        <ele>2324.8000488281</ele>
        <time>2016-04-10T10:24:13.000Z</time>
      </trkpt>
      <trkpt lat="45.16564" lon="5.95305">
        <ele>2323.6000976562</ele>
        <time>2016-04-10T10:24:14.000Z</time>
      </trkpt>
      <trkpt lat="45.1657" lon="5.95306">
        <ele>2321.8000488281</ele>
        <time>2016-04-10T10:24:16.000Z</time>
      </trkpt>
      <trkpt lat="45.16578" lon="5.95305">
        <ele>2320</ele>
        <time>2016-04-10T10:24:18.000Z</time>
      </trkpt>
      <trkpt lat="45.16581" lon="5.95301">
        <ele>2319</ele>
        <time>2016-04-10T10:24:19.000Z</time>
      </trkpt>
      <trkpt lat="45.16584" lon="5.95298">
        <ele>2317</ele>
        <time>2016-04-10T10:24:20.000Z</time>
      </trkpt>
      <trkpt lat="45.16584" lon="5.95294">
        <ele>2315.8000488281</ele>
        <time>2016-04-10T10:24:21.000Z</time>
      </trkpt>
      <trkpt lat="45.16581" lon="5.95291">
        <ele>2314.3999023438</ele>
        <time>2016-04-10T10:24:22.000Z</time>
      </trkpt>
      <trkpt lat="45.16581" lon="5.95289">
        <ele>2312.8000488281</ele>
        <time>2016-04-10T10:24:23.000Z</time>
      </trkpt>
      <trkpt lat="45.16581" lon="5.95288">
        <ele>2311.3999023438</ele>
        <time>2016-04-10T10:24:24.000Z</time>
      </trkpt>
      <trkpt lat="45.1658" lon="5.95286">
        <ele>2309.8000488281</ele>
        <time>2016-04-10T10:24:25.000Z</time>
      </trkpt>
      <trkpt lat="45.1658" lon="5.95286">
        <ele>2308.6000976562</ele>
        <time>2016-04-10T10:24:26.000Z</time>
      </trkpt>
      <trkpt lat="45.1658" lon="5.95284">
        <ele>2307.8000488281</ele>
        <time>2016-04-10T10:24:27.000Z</time>
      </trkpt>
      <trkpt lat="45.1658" lon="5.95284">
        <ele>2307.3999023438</ele>
        <time>2016-04-10T10:24:28.000Z</time>
      </trkpt>
      <trkpt lat="45.1658" lon="5.95283">
        <ele>2307</ele>
        <time>2016-04-10T10:24:33.000Z</time>
      </trkpt>
      <trkpt lat="45.16581" lon="5.95279">
        <ele>2307</ele>
        <time>2016-04-10T10:24:34.000Z</time>
      </trkpt>
      <trkpt lat="45.16588" lon="5.95272">
        <ele>2306.3999023438</ele>
        <time>2016-04-10T10:24:36.000Z</time>
      </trkpt>
      <trkpt lat="45.16592" lon="5.95269">
        <ele>2305.6000976562</ele>
        <time>2016-04-10T10:24:37.000Z</time>
      </trkpt>
      <trkpt lat="45.16597" lon="5.95268">
        <ele>2304.3999023438</ele>
        <time>2016-04-10T10:24:38.000Z</time>
      </trkpt>
      <trkpt lat="45.16602" lon="5.95267">
        <ele>2303.3999023438</ele>
        <time>2016-04-10T10:24:39.000Z</time>
      </trkpt>
      <trkpt lat="45.16606" lon="5.95268">
        <ele>2302.6000976562</ele>
        <time>2016-04-10T10:24:40.000Z</time>
      </trkpt>
      <trkpt lat="45.16611" lon="5.95266">
        <ele>2301.8000488281</ele>
        <time>2016-04-10T10:24:41.000Z</time>
      </trkpt>
      <trkpt lat="45.16617" lon="5.95265">
        <ele>2300.8000488281</ele>
        <time>2016-04-10T10:24:42.000Z</time>
      </trkpt>
      <trkpt lat="45.16621" lon="5.95264">
        <ele>2300.1999511719</ele>
        <time>2016-04-10T10:24:43.000Z</time>
      </trkpt>
      <trkpt lat="45.16625" lon="5.95264">
        <ele>2298.8000488281</ele>
        <time>2016-04-10T10:24:44.000Z</time>
      </trkpt>
      <trkpt lat="45.1663" lon="5.95264">
        <ele>2297.8000488281</ele>
        <time>2016-04-10T10:24:46.000Z</time>
      </trkpt>
      <trkpt lat="45.16632" lon="5.95261">
        <ele>2297.3999023438</ele>
        <time>2016-04-10T10:24:47.000Z</time>
      </trkpt>
      <trkpt lat="45.16637" lon="5.95254">
        <ele>2295</ele>
        <time>2016-04-10T10:24:49.000Z</time>
      </trkpt>
      <trkpt lat="45.16643" lon="5.95247">
        <ele>2293.6000976562</ele>
        <time>2016-04-10T10:24:50.000Z</time>
      </trkpt>
      <trkpt lat="45.16648" lon="5.95241">
        <ele>2292.6000976562</ele>
        <time>2016-04-10T10:24:51.000Z</time>
      </trkpt>
      <trkpt lat="45.16653" lon="5.95237">
        <ele>2291.6000976562</ele>
        <time>2016-04-10T10:24:52.000Z</time>
      </trkpt>
      <trkpt lat="45.16658" lon="5.9523">
        <ele>2290.6000976562</ele>
        <time>2016-04-10T10:24:53.000Z</time>
      </trkpt>
      <trkpt lat="45.16662" lon="5.95224">
        <ele>2290</ele>
        <time>2016-04-10T10:24:54.000Z</time>
      </trkpt>
      <trkpt lat="45.1667" lon="5.95212">
        <ele>2288.8000488281</ele>
        <time>2016-04-10T10:24:56.000Z</time>
      </trkpt>
      <trkpt lat="45.16673" lon="5.95205">
        <ele>2288.1999511719</ele>
        <time>2016-04-10T10:24:57.000Z</time>
      </trkpt>
      <trkpt lat="45.16674" lon="5.95199">
        <ele>2287.6000976562</ele>
        <time>2016-04-10T10:24:58.000Z</time>
      </trkpt>
      <trkpt lat="45.16681" lon="5.9516">
        <ele>2286.8000488281</ele>
        <time>2016-04-10T10:25:04.000Z</time>
      </trkpt>
      <trkpt lat="45.16683" lon="5.95153">
        <ele>2286.6000976562</ele>
        <time>2016-04-10T10:25:05.000Z</time>
      </trkpt>
      <trkpt lat="45.16686" lon="5.95145">
        <ele>2286.3999023438</ele>
        <time>2016-04-10T10:25:06.000Z</time>
      </trkpt>
      <trkpt lat="45.1669" lon="5.95131">
        <ele>2285.3999023438</ele>
        <time>2016-04-10T10:25:08.000Z</time>
      </trkpt>
      <trkpt lat="45.16692" lon="5.95124">
        <ele>2284.8000488281</ele>
        <time>2016-04-10T10:25:09.000Z</time>
      </trkpt>
      <trkpt lat="45.16694" lon="5.95117">
        <ele>2284.1999511719</ele>
        <time>2016-04-10T10:25:10.000Z</time>
      </trkpt>
      <trkpt lat="45.16698" lon="5.95101">
        <ele>2282.6000976562</ele>
        <time>2016-04-10T10:25:12.000Z</time>
      </trkpt>
      <trkpt lat="45.16699" lon="5.95091">
        <ele>2282</ele>
        <time>2016-04-10T10:25:13.000Z</time>
      </trkpt>
      <trkpt lat="45.16699" lon="5.95083">
        <ele>2281.1999511719</ele>
        <time>2016-04-10T10:25:14.000Z</time>
      </trkpt>
      <trkpt lat="45.16697" lon="5.95077">
        <ele>2280.1999511719</ele>
        <time>2016-04-10T10:25:15.000Z</time>
      </trkpt>
      <trkpt lat="45.16697" lon="5.9507">
        <ele>2279</ele>
        <time>2016-04-10T10:25:16.000Z</time>
      </trkpt>
      <trkpt lat="45.16695" lon="5.95061">
        <ele>2278.1999511719</ele>
        <time>2016-04-10T10:25:17.000Z</time>
      </trkpt>
      <trkpt lat="45.16694" lon="5.95053">
        <ele>2277.6000976562</ele>
        <time>2016-04-10T10:25:18.000Z</time>
      </trkpt>
      <trkpt lat="45.16692" lon="5.95042">
        <ele>2277.1999511719</ele>
        <time>2016-04-10T10:25:19.000Z</time>
      </trkpt>
      <trkpt lat="45.16689" lon="5.95035">
        <ele>2276.6000976562</ele>
        <time>2016-04-10T10:25:20.000Z</time>
      </trkpt>
      <trkpt lat="45.16686" lon="5.95028">
        <ele>2275.3999023438</ele>
        <time>2016-04-10T10:25:21.000Z</time>
      </trkpt>
      <trkpt lat="45.16684" lon="5.95023">
        <ele>2274.1999511719</ele>
        <time>2016-04-10T10:25:22.000Z</time>
      </trkpt>
      <trkpt lat="45.16681" lon="5.95013">
        <ele>2273.1999511719</ele>
        <time>2016-04-10T10:25:24.000Z</time>
      </trkpt>
      <trkpt lat="45.16675" lon="5.95003">
        <ele>2272.8000488281</ele>
        <time>2016-04-10T10:25:26.000Z</time>
      </trkpt>
      <trkpt lat="45.16667" lon="5.9499">
        <ele>2272.6000976562</ele>
        <time>2016-04-10T10:25:28.000Z</time>
      </trkpt>
      <trkpt lat="45.16662" lon="5.94983">
        <ele>2272.1999511719</ele>
        <time>2016-04-10T10:25:29.000Z</time>
      </trkpt>
      <trkpt lat="45.16657" lon="5.94975">
        <ele>2271.6000976562</ele>
        <time>2016-04-10T10:25:30.000Z</time>
      </trkpt>
      <trkpt lat="45.16644" lon="5.94957">
        <ele>2267.8000488281</ele>
        <time>2016-04-10T10:25:32.000Z</time>
      </trkpt>
      <trkpt lat="45.16639" lon="5.94949">
        <ele>2266.1999511719</ele>
        <time>2016-04-10T10:25:33.000Z</time>
      </trkpt>
      <trkpt lat="45.16634" lon="5.94945">
        <ele>2265.1999511719</ele>
        <time>2016-04-10T10:25:34.000Z</time>
      </trkpt>
      <trkpt lat="45.16624" lon="5.94933">
        <ele>2264.1999511719</ele>
        <time>2016-04-10T10:25:36.000Z</time>
      </trkpt>
      <trkpt lat="45.166" lon="5.94904">
        <ele>2263.8000488281</ele>
        <time>2016-04-10T10:25:41.000Z</time>
      </trkpt>
      <trkpt lat="45.16591" lon="5.94889">
        <ele>2263.3999023438</ele>
        <time>2016-04-10T10:25:43.000Z</time>
      </trkpt>
      <trkpt lat="45.1659" lon="5.94881">
        <ele>2262.8000488281</ele>
        <time>2016-04-10T10:25:44.000Z</time>
      </trkpt>
      <trkpt lat="45.16588" lon="5.94876">
        <ele>2261.8000488281</ele>
        <time>2016-04-10T10:25:45.000Z</time>
      </trkpt>
      <trkpt lat="45.16586" lon="5.94872">
        <ele>2260.3999023438</ele>
        <time>2016-04-10T10:25:46.000Z</time>
      </trkpt>
      <trkpt lat="45.16585" lon="5.9487">
        <ele>2259</ele>
        <time>2016-04-10T10:25:47.000Z</time>
      </trkpt>
      <trkpt lat="45.16584" lon="5.94867">
        <ele>2257.8000488281</ele>
        <time>2016-04-10T10:25:48.000Z</time>
      </trkpt>
      <trkpt lat="45.16585" lon="5.94864">
        <ele>2256.8000488281</ele>
        <time>2016-04-10T10:25:49.000Z</time>
      </trkpt>
      <trkpt lat="45.16585" lon="5.94861">
        <ele>2255.8000488281</ele>
        <time>2016-04-10T10:25:50.000Z</time>
      </trkpt>
      <trkpt lat="45.16586" lon="5.9486">
        <ele>2255</ele>
        <time>2016-04-10T10:25:51.000Z</time>
      </trkpt>
      <trkpt lat="45.16588" lon="5.94861">
        <ele>2254</ele>
        <time>2016-04-10T10:25:52.000Z</time>
      </trkpt>
      <trkpt lat="45.1659" lon="5.94863">
        <ele>2252.8000488281</ele>
        <time>2016-04-10T10:25:54.000Z</time>
      </trkpt>
      <trkpt lat="45.1659" lon="5.94864">
        <ele>2252.3999023438</ele>
        <time>2016-04-10T10:25:55.000Z</time>
      </trkpt>
      <trkpt lat="45.16591" lon="5.94863">
        <ele>2251.8000488281</ele>
        <time>2016-04-10T10:25:56.000Z</time>
      </trkpt>
      <trkpt lat="45.16591" lon="5.9486">
        <ele>2251.6000976562</ele>
        <time>2016-04-10T10:25:57.000Z</time>
      </trkpt>
      <trkpt lat="45.16593" lon="5.94855">
        <ele>2251.1999511719</ele>
        <time>2016-04-10T10:25:59.000Z</time>
      </trkpt>
      <trkpt lat="45.16588" lon="5.94852">
        <ele>2250.6000976562</ele>
        <time>2016-04-10T10:26:01.000Z</time>
      </trkpt>
      <trkpt lat="45.16587" lon="5.94848">
        <ele>2250.1999511719</ele>
        <time>2016-04-10T10:26:02.000Z</time>
      </trkpt>
      <trkpt lat="45.16585" lon="5.94841">
        <ele>2248.6000976562</ele>
        <time>2016-04-10T10:26:04.000Z</time>
      </trkpt>
      <trkpt lat="45.16585" lon="5.94837">
        <ele>2247</ele>
        <time>2016-04-10T10:26:05.000Z</time>
      </trkpt>
      <trkpt lat="45.16586" lon="5.94832">
        <ele>2245.6000976562</ele>
        <time>2016-04-10T10:26:06.000Z</time>
      </trkpt>
      <trkpt lat="45.16584" lon="5.94829">
        <ele>2243.8000488281</ele>
        <time>2016-04-10T10:26:07.000Z</time>
      </trkpt>
      <trkpt lat="45.1658" lon="5.94827">
        <ele>2242.1999511719</ele>
        <time>2016-04-10T10:26:08.000Z</time>
      </trkpt>
      <trkpt lat="45.16576" lon="5.94823">
        <ele>2240.8000488281</ele>
        <time>2016-04-10T10:26:09.000Z</time>
      </trkpt>
      <trkpt lat="45.16572" lon="5.94817">
        <ele>2239.6000976562</ele>
        <time>2016-04-10T10:26:10.000Z</time>
      </trkpt>
      <trkpt lat="45.1657" lon="5.94809">
        <ele>2238</ele>
        <time>2016-04-10T10:26:11.000Z</time>
      </trkpt>
      <trkpt lat="45.16572" lon="5.94799">
        <ele>2235.8000488281</ele>
        <time>2016-04-10T10:26:12.000Z</time>
      </trkpt>
      <trkpt lat="45.16573" lon="5.9479">
        <ele>2233.3999023438</ele>
        <time>2016-04-10T10:26:13.000Z</time>
      </trkpt>
      <trkpt lat="45.16574" lon="5.9478">
        <ele>2231.6000976562</ele>
        <time>2016-04-10T10:26:14.000Z</time>
      </trkpt>
      <trkpt lat="45.16572" lon="5.94772">
        <ele>2229.8000488281</ele>
        <time>2016-04-10T10:26:15.000Z</time>
      </trkpt>
      <trkpt lat="45.16566" lon="5.94765">
        <ele>2228.1999511719</ele>
        <time>2016-04-10T10:26:16.000Z</time>
      </trkpt>
      <trkpt lat="45.16561" lon="5.94759">
        <ele>2226.6000976562</ele>
        <time>2016-04-10T10:26:17.000Z</time>
      </trkpt>
      <trkpt lat="45.16555" lon="5.94753">
        <ele>2224.6000976562</ele>
        <time>2016-04-10T10:26:18.000Z</time>
      </trkpt>
      <trkpt lat="45.16549" lon="5.94747">
        <ele>2222.8000488281</ele>
        <time>2016-04-10T10:26:19.000Z</time>
      </trkpt>
      <trkpt lat="45.16543" lon="5.94738">
        <ele>2219.1999511719</ele>
        <time>2016-04-10T10:26:20.000Z</time>
      </trkpt>
      <trkpt lat="45.16541" lon="5.94727">
        <ele>2216.8000488281</ele>
        <time>2016-04-10T10:26:21.000Z</time>
      </trkpt>
      <trkpt lat="45.16538" lon="5.94718">
        <ele>2214.8000488281</ele>
        <time>2016-04-10T10:26:22.000Z</time>
      </trkpt>
      <trkpt lat="45.16534" lon="5.9471">
        <ele>2213.3999023438</ele>
        <time>2016-04-10T10:26:23.000Z</time>
      </trkpt>
      <trkpt lat="45.16523" lon="5.94693">
        <ele>2211.6000976562</ele>
        <time>2016-04-10T10:26:25.000Z</time>
      </trkpt>
      <trkpt lat="45.16516" lon="5.94685">
        <ele>2210.6000976562</ele>
        <time>2016-04-10T10:26:26.000Z</time>
      </trkpt>
      <trkpt lat="45.16511" lon="5.94679">
        <ele>2209</ele>
        <time>2016-04-10T10:26:27.000Z</time>
      </trkpt>
      <trkpt lat="45.16508" lon="5.94675">
        <ele>2207.8000488281</ele>
        <time>2016-04-10T10:26:28.000Z</time>
      </trkpt>
      <trkpt lat="45.16505" lon="5.94672">
        <ele>2206.6000976562</ele>
        <time>2016-04-10T10:26:30.000Z</time>
      </trkpt>
      <trkpt lat="45.16505" lon="5.9467">
        <ele>2206.1999511719</ele>
        <time>2016-04-10T10:26:31.000Z</time>
      </trkpt>
      <trkpt lat="45.16503" lon="5.94668">
        <ele>2205.6000976562</ele>
        <time>2016-04-10T10:26:33.000Z</time>
      </trkpt>
      <trkpt lat="45.165" lon="5.94667">
        <ele>2205</ele>
        <time>2016-04-10T10:26:37.000Z</time>
      </trkpt>
      <trkpt lat="45.16494" lon="5.94656">
        <ele>2204.3999023438</ele>
        <time>2016-04-10T10:26:41.000Z</time>
      </trkpt>
      <trkpt lat="45.16494" lon="5.9465">
        <ele>2204.1999511719</ele>
        <time>2016-04-10T10:26:42.000Z</time>
      </trkpt>
      <trkpt lat="45.16496" lon="5.94637">
        <ele>2202.8000488281</ele>
        <time>2016-04-10T10:26:44.000Z</time>
      </trkpt>
      <trkpt lat="45.16496" lon="5.94627">
        <ele>2201.3999023438</ele>
        <time>2016-04-10T10:26:46.000Z</time>
      </trkpt>
      <trkpt lat="45.16499" lon="5.94626">
        <ele>2199.8000488281</ele>
        <time>2016-04-10T10:26:48.000Z</time>
      </trkpt>
      <trkpt lat="45.16501" lon="5.94622">
        <ele>2198.6000976562</ele>
        <time>2016-04-10T10:26:49.000Z</time>
      </trkpt>
      <trkpt lat="45.16501" lon="5.94621">
        <ele>2197.1999511719</ele>
        <time>2016-04-10T10:26:50.000Z</time>
      </trkpt>
      <trkpt lat="45.16501" lon="5.94619">
        <ele>2196.1999511719</ele>
        <time>2016-04-10T10:26:51.000Z</time>
      </trkpt>
      <trkpt lat="45.16501" lon="5.94617">
        <ele>2195.6000976562</ele>
        <time>2016-04-10T10:26:52.000Z</time>
      </trkpt>
      <trkpt lat="45.16504" lon="5.94615">
        <ele>2194.3999023438</ele>
        <time>2016-04-10T10:26:55.000Z</time>
      </trkpt>
      <trkpt lat="45.16505" lon="5.9461">
        <ele>2194.1999511719</ele>
        <time>2016-04-10T10:26:56.000Z</time>
      </trkpt>
      <trkpt lat="45.16506" lon="5.94599">
        <ele>2193.8000488281</ele>
        <time>2016-04-10T10:26:58.000Z</time>
      </trkpt>
      <trkpt lat="45.16507" lon="5.94592">
        <ele>2193.1999511719</ele>
        <time>2016-04-10T10:26:59.000Z</time>
      </trkpt>
      <trkpt lat="45.16508" lon="5.94585">
        <ele>2192.3999023438</ele>
        <time>2016-04-10T10:27:00.000Z</time>
      </trkpt>
      <trkpt lat="45.1651" lon="5.94576">
        <ele>2191</ele>
        <time>2016-04-10T10:27:01.000Z</time>
      </trkpt>
      <trkpt lat="45.16512" lon="5.94568">
        <ele>2189.8000488281</ele>
        <time>2016-04-10T10:27:02.000Z</time>
      </trkpt>
      <trkpt lat="45.16511" lon="5.94565">
        <ele>2188.3999023438</ele>
        <time>2016-04-10T10:27:03.000Z</time>
      </trkpt>
      <trkpt lat="45.16512" lon="5.94563">
        <ele>2187.1999511719</ele>
        <time>2016-04-10T10:27:04.000Z</time>
      </trkpt>
      <trkpt lat="45.16512" lon="5.94562">
        <ele>2186</ele>
        <time>2016-04-10T10:27:05.000Z</time>
      </trkpt>
      <trkpt lat="45.16513" lon="5.94562">
        <ele>2184.3999023438</ele>
        <time>2016-04-10T10:27:07.000Z</time>
      </trkpt>
      <trkpt lat="45.16514" lon="5.94562">
        <ele>2184</ele>
        <time>2016-04-10T10:27:09.000Z</time>
      </trkpt>
      <trkpt lat="45.1651" lon="5.94564">
        <ele>2184.8000488281</ele>
        <time>2016-04-10T10:27:17.000Z</time>
      </trkpt>
      <trkpt lat="45.16508" lon="5.94568">
        <ele>2184.8000488281</ele>
        <time>2016-04-10T10:27:18.000Z</time>
      </trkpt>
      <trkpt lat="45.16504" lon="5.94563">
        <ele>2184.8000488281</ele>
        <time>2016-04-10T10:27:20.000Z</time>
      </trkpt>
      <trkpt lat="45.16497" lon="5.94561">
        <ele>2183.1999511719</ele>
        <time>2016-04-10T10:27:22.000Z</time>
      </trkpt>
      <trkpt lat="45.16496" lon="5.94555">
        <ele>2181.8000488281</ele>
        <time>2016-04-10T10:27:23.000Z</time>
      </trkpt>
      <trkpt lat="45.16494" lon="5.9455">
        <ele>2180.1999511719</ele>
        <time>2016-04-10T10:27:24.000Z</time>
      </trkpt>
      <trkpt lat="45.16488" lon="5.94547">
        <ele>2178.8000488281</ele>
        <time>2016-04-10T10:27:25.000Z</time>
      </trkpt>
      <trkpt lat="45.16483" lon="5.94544">
        <ele>2177</ele>
        <time>2016-04-10T10:27:26.000Z</time>
      </trkpt>
      <trkpt lat="45.16478" lon="5.94541">
        <ele>2175.1999511719</ele>
        <time>2016-04-10T10:27:27.000Z</time>
      </trkpt>
      <trkpt lat="45.16475" lon="5.94537">
        <ele>2173.3999023438</ele>
        <time>2016-04-10T10:27:28.000Z</time>
      </trkpt>
      <trkpt lat="45.16474" lon="5.94533">
        <ele>2171.3999023438</ele>
        <time>2016-04-10T10:27:29.000Z</time>
      </trkpt>
      <trkpt lat="45.16472" lon="5.94528">
        <ele>2169.3999023438</ele>
        <time>2016-04-10T10:27:30.000Z</time>
      </trkpt>
      <trkpt lat="45.16467" lon="5.94524">
        <ele>2167.8000488281</ele>
        <time>2016-04-10T10:27:31.000Z</time>
      </trkpt>
      <trkpt lat="45.16462" lon="5.94521">
        <ele>2166</ele>
        <time>2016-04-10T10:27:32.000Z</time>
      </trkpt>
      <trkpt lat="45.16455" lon="5.94519">
        <ele>2163.8000488281</ele>
        <time>2016-04-10T10:27:34.000Z</time>
      </trkpt>
      <trkpt lat="45.1645" lon="5.94519">
        <ele>2162.1999511719</ele>
        <time>2016-04-10T10:27:35.000Z</time>
      </trkpt>
      <trkpt lat="45.16444" lon="5.9452">
        <ele>2160.6000976562</ele>
        <time>2016-04-10T10:27:36.000Z</time>
      </trkpt>
      <trkpt lat="45.16439" lon="5.9452">
        <ele>2159.3999023438</ele>
        <time>2016-04-10T10:27:37.000Z</time>
      </trkpt>
      <trkpt lat="45.16434" lon="5.94519">
        <ele>2158.3999023438</ele>
        <time>2016-04-10T10:27:38.000Z</time>
      </trkpt>
      <trkpt lat="45.16429" lon="5.94519">
        <ele>2157.3999023438</ele>
        <time>2016-04-10T10:27:39.000Z</time>
      </trkpt>
      <trkpt lat="45.16425" lon="5.94515">
        <ele>2156.3999023438</ele>
        <time>2016-04-10T10:27:40.000Z</time>
      </trkpt>
      <trkpt lat="45.16416" lon="5.94505">
        <ele>2154.6000976562</ele>
        <time>2016-04-10T10:27:42.000Z</time>
      </trkpt>
      <trkpt lat="45.1641" lon="5.94499">
        <ele>2153.6000976562</ele>
        <time>2016-04-10T10:27:43.000Z</time>
      </trkpt>
      <trkpt lat="45.16406" lon="5.94493">
        <ele>2152.1999511719</ele>
        <time>2016-04-10T10:27:44.000Z</time>
      </trkpt>
      <trkpt lat="45.16405" lon="5.94489">
        <ele>2150.3999023438</ele>
        <time>2016-04-10T10:27:45.000Z</time>
      </trkpt>
      <trkpt lat="45.16404" lon="5.94486">
        <ele>2148.3999023438</ele>
        <time>2016-04-10T10:27:46.000Z</time>
      </trkpt>
      <trkpt lat="45.16403" lon="5.94482">
        <ele>2146.6000976562</ele>
        <time>2016-04-10T10:27:47.000Z</time>
      </trkpt>
      <trkpt lat="45.16402" lon="5.94481">
        <ele>2145.3999023438</ele>
        <time>2016-04-10T10:27:48.000Z</time>
      </trkpt>
      <trkpt lat="45.16403" lon="5.94483">
        <ele>2144.1999511719</ele>
        <time>2016-04-10T10:27:50.000Z</time>
      </trkpt>
      <trkpt lat="45.16403" lon="5.94483">
        <ele>2143.1999511719</ele>
        <time>2016-04-10T10:27:54.000Z</time>
      </trkpt>
      <trkpt lat="45.16403" lon="5.94483">
        <ele>2142.6000976562</ele>
        <time>2016-04-10T10:28:01.000Z</time>
      </trkpt>
      <trkpt lat="45.16406" lon="5.9448">
        <ele>2142.3999023438</ele>
        <time>2016-04-10T10:28:02.000Z</time>
      </trkpt>
      <trkpt lat="45.16409" lon="5.94469">
        <ele>2142.1999511719</ele>
        <time>2016-04-10T10:28:04.000Z</time>
      </trkpt>
      <trkpt lat="45.16407" lon="5.94464">
        <ele>2142</ele>
        <time>2016-04-10T10:28:05.000Z</time>
      </trkpt>
      <trkpt lat="45.16406" lon="5.9446">
        <ele>2141.3999023438</ele>
        <time>2016-04-10T10:28:06.000Z</time>
      </trkpt>
      <trkpt lat="45.16406" lon="5.94457">
        <ele>2140.6000976562</ele>
        <time>2016-04-10T10:28:07.000Z</time>
      </trkpt>
      <trkpt lat="45.16407" lon="5.94453">
        <ele>2139.3999023438</ele>
        <time>2016-04-10T10:28:08.000Z</time>
      </trkpt>
      <trkpt lat="45.16408" lon="5.9445">
        <ele>2138.3999023438</ele>
        <time>2016-04-10T10:28:09.000Z</time>
      </trkpt>
      <trkpt lat="45.16411" lon="5.9445">
        <ele>2137.3999023438</ele>
        <time>2016-04-10T10:28:10.000Z</time>
      </trkpt>
      <trkpt lat="45.16415" lon="5.94452">
        <ele>2136.6000976562</ele>
        <time>2016-04-10T10:28:11.000Z</time>
      </trkpt>
      <trkpt lat="45.16417" lon="5.94453">
        <ele>2135.6000976562</ele>
        <time>2016-04-10T10:28:12.000Z</time>
      </trkpt>
      <trkpt lat="45.16421" lon="5.94455">
        <ele>2134.3999023438</ele>
        <time>2016-04-10T10:28:13.000Z</time>
      </trkpt>
      <trkpt lat="45.16425" lon="5.94456">
        <ele>2133.1999511719</ele>
        <time>2016-04-10T10:28:14.000Z</time>
      </trkpt>
      <trkpt lat="45.16429" lon="5.94454">
        <ele>2132</ele>
        <time>2016-04-10T10:28:15.000Z</time>
      </trkpt>
      <trkpt lat="45.16432" lon="5.94451">
        <ele>2130.8000488281</ele>
        <time>2016-04-10T10:28:16.000Z</time>
      </trkpt>
      <trkpt lat="45.16432" lon="5.94448">
        <ele>2129.3999023438</ele>
        <time>2016-04-10T10:28:17.000Z</time>
      </trkpt>
      <trkpt lat="45.16433" lon="5.94446">
        <ele>2127.8000488281</ele>
        <time>2016-04-10T10:28:18.000Z</time>
      </trkpt>
      <trkpt lat="45.16435" lon="5.94444">
        <ele>2125.8000488281</ele>
        <time>2016-04-10T10:28:19.000Z</time>
      </trkpt>
      <trkpt lat="45.16436" lon="5.94441">
        <ele>2121.1999511719</ele>
        <time>2016-04-10T10:28:20.000Z</time>
      </trkpt>
      <trkpt lat="45.16439" lon="5.94437">
        <ele>2119.1999511719</ele>
        <time>2016-04-10T10:28:21.000Z</time>
      </trkpt>
      <trkpt lat="45.16442" lon="5.9443">
        <ele>2117.6000976562</ele>
        <time>2016-04-10T10:28:22.000Z</time>
      </trkpt>
      <trkpt lat="45.16446" lon="5.94425">
        <ele>2116</ele>
        <time>2016-04-10T10:28:23.000Z</time>
      </trkpt>
      <trkpt lat="45.16451" lon="5.94419">
        <ele>2114.1999511719</ele>
        <time>2016-04-10T10:28:24.000Z</time>
      </trkpt>
      <trkpt lat="45.16455" lon="5.94414">
        <ele>2112.1999511719</ele>
        <time>2016-04-10T10:28:25.000Z</time>
      </trkpt>
      <trkpt lat="45.16459" lon="5.94409">
        <ele>2110.3999023438</ele>
        <time>2016-04-10T10:28:26.000Z</time>
      </trkpt>
      <trkpt lat="45.16462" lon="5.94406">
        <ele>2109</ele>
        <time>2016-04-10T10:28:27.000Z</time>
      </trkpt>
      <trkpt lat="45.16465" lon="5.94399">
        <ele>2107.8000488281</ele>
        <time>2016-04-10T10:28:28.000Z</time>
      </trkpt>
      <trkpt lat="45.16471" lon="5.94387">
        <ele>2106.1999511719</ele>
        <time>2016-04-10T10:28:30.000Z</time>
      </trkpt>
      <trkpt lat="45.16477" lon="5.9437">
        <ele>2104</ele>
        <time>2016-04-10T10:28:32.000Z</time>
      </trkpt>
      <trkpt lat="45.16481" lon="5.94361">
        <ele>2102.6000976562</ele>
        <time>2016-04-10T10:28:33.000Z</time>
      </trkpt>
      <trkpt lat="45.16485" lon="5.94353">
        <ele>2100.6000976562</ele>
        <time>2016-04-10T10:28:34.000Z</time>
      </trkpt>
      <trkpt lat="45.16488" lon="5.94346">
        <ele>2098.1999511719</ele>
        <time>2016-04-10T10:28:35.000Z</time>
      </trkpt>
      <trkpt lat="45.16489" lon="5.94338">
        <ele>2096.3999023438</ele>
        <time>2016-04-10T10:28:36.000Z</time>
      </trkpt>
      <trkpt lat="45.16491" lon="5.94328">
        <ele>2094.6000976562</ele>
        <time>2016-04-10T10:28:37.000Z</time>
      </trkpt>
      <trkpt lat="45.16494" lon="5.94318">
        <ele>2093</ele>
        <time>2016-04-10T10:28:38.000Z</time>
      </trkpt>
      <trkpt lat="45.16498" lon="5.94309">
        <ele>2091.1999511719</ele>
        <time>2016-04-10T10:28:39.000Z</time>
      </trkpt>
      <trkpt lat="45.16503" lon="5.94302">
        <ele>2089.1999511719</ele>
        <time>2016-04-10T10:28:40.000Z</time>
      </trkpt>
      <trkpt lat="45.16507" lon="5.94294">
        <ele>2087.1999511719</ele>
        <time>2016-04-10T10:28:41.000Z</time>
      </trkpt>
      <trkpt lat="45.16512" lon="5.94287">
        <ele>2085.3999023438</ele>
        <time>2016-04-10T10:28:42.000Z</time>
      </trkpt>
      <trkpt lat="45.16517" lon="5.9428">
        <ele>2083.6000976562</ele>
        <time>2016-04-10T10:28:43.000Z</time>
      </trkpt>
      <trkpt lat="45.16522" lon="5.94273">
        <ele>2080</ele>
        <time>2016-04-10T10:28:44.000Z</time>
      </trkpt>
      <trkpt lat="45.16528" lon="5.94269">
        <ele>2078.6000976562</ele>
        <time>2016-04-10T10:28:45.000Z</time>
      </trkpt>
      <trkpt lat="45.16534" lon="5.94265">
        <ele>2077.1999511719</ele>
        <time>2016-04-10T10:28:46.000Z</time>
      </trkpt>
      <trkpt lat="45.16539" lon="5.9426">
        <ele>2076.1999511719</ele>
        <time>2016-04-10T10:28:47.000Z</time>
      </trkpt>
      <trkpt lat="45.16542" lon="5.94248">
        <ele>2075</ele>
        <time>2016-04-10T10:28:49.000Z</time>
      </trkpt>
      <trkpt lat="45.16546" lon="5.94234">
        <ele>2074.6000976562</ele>
        <time>2016-04-10T10:28:53.000Z</time>
      </trkpt>
      <trkpt lat="45.16554" lon="5.94223">
        <ele>2075.1999511719</ele>
        <time>2016-04-10T10:28:57.000Z</time>
      </trkpt>
      <trkpt lat="45.16557" lon="5.94219">
        <ele>2075</ele>
        <time>2016-04-10T10:28:58.000Z</time>
      </trkpt>
      <trkpt lat="45.16573" lon="5.94197">
        <ele>2073.6000976562</ele>
        <time>2016-04-10T10:29:02.000Z</time>
      </trkpt>
      <trkpt lat="45.16574" lon="5.94186">
        <ele>2072.1999511719</ele>
        <time>2016-04-10T10:29:04.000Z</time>
      </trkpt>
      <trkpt lat="45.16575" lon="5.94183">
        <ele>2071.6000976562</ele>
        <time>2016-04-10T10:29:05.000Z</time>
      </trkpt>
      <trkpt lat="45.16577" lon="5.94179">
        <ele>2071</ele>
        <time>2016-04-10T10:29:06.000Z</time>
      </trkpt>
      <trkpt lat="45.16584" lon="5.94169">
        <ele>2070.6000976562</ele>
        <time>2016-04-10T10:29:10.000Z</time>
      </trkpt>
      <trkpt lat="45.166" lon="5.94168">
        <ele>2069.8000488281</ele>
        <time>2016-04-10T10:29:14.000Z</time>
      </trkpt>
      <trkpt lat="45.16604" lon="5.9417">
        <ele>2069.6000976562</ele>
        <time>2016-04-10T10:29:15.000Z</time>
      </trkpt>
      <trkpt lat="45.16613" lon="5.94173">
        <ele>2069</ele>
        <time>2016-04-10T10:29:17.000Z</time>
      </trkpt>
      <trkpt lat="45.16616" lon="5.94174">
        <ele>2068.6000976562</ele>
        <time>2016-04-10T10:29:18.000Z</time>
      </trkpt>
      <trkpt lat="45.16622" lon="5.94175">
        <ele>2067.6000976562</ele>
        <time>2016-04-10T10:29:20.000Z</time>
      </trkpt>
      <trkpt lat="45.16625" lon="5.94175">
        <ele>2067.1999511719</ele>
        <time>2016-04-10T10:29:21.000Z</time>
      </trkpt>
      <trkpt lat="45.16637" lon="5.94176">
        <ele>2066.3999023438</ele>
        <time>2016-04-10T10:29:26.000Z</time>
      </trkpt>
      <trkpt lat="45.16644" lon="5.94176">
        <ele>2066.3999023438</ele>
        <time>2016-04-10T10:29:27.000Z</time>
      </trkpt>
      <trkpt lat="45.16652" lon="5.94172">
        <ele>2066.3999023438</ele>
        <time>2016-04-10T10:29:28.000Z</time>
      </trkpt>
      <trkpt lat="45.16664" lon="5.94162">
        <ele>2066</ele>
        <time>2016-04-10T10:29:30.000Z</time>
      </trkpt>
      <trkpt lat="45.16671" lon="5.94157">
        <ele>2065</ele>
        <time>2016-04-10T10:29:31.000Z</time>
      </trkpt>
      <trkpt lat="45.16678" lon="5.9415">
        <ele>2062</ele>
        <time>2016-04-10T10:29:32.000Z</time>
      </trkpt>
      <trkpt lat="45.16684" lon="5.94143">
        <ele>2060.8000488281</ele>
        <time>2016-04-10T10:29:33.000Z</time>
      </trkpt>
      <trkpt lat="45.16691" lon="5.94136">
        <ele>2059.6000976562</ele>
        <time>2016-04-10T10:29:34.000Z</time>
      </trkpt>
      <trkpt lat="45.16695" lon="5.94128">
        <ele>2058.1999511719</ele>
        <time>2016-04-10T10:29:35.000Z</time>
      </trkpt>
      <trkpt lat="45.167" lon="5.94121">
        <ele>2056.8000488281</ele>
        <time>2016-04-10T10:29:36.000Z</time>
      </trkpt>
      <trkpt lat="45.16704" lon="5.94113">
        <ele>2055.3999023438</ele>
        <time>2016-04-10T10:29:37.000Z</time>
      </trkpt>
      <trkpt lat="45.16708" lon="5.94105">
        <ele>2054.1999511719</ele>
        <time>2016-04-10T10:29:38.000Z</time>
      </trkpt>
      <trkpt lat="45.16716" lon="5.94089">
        <ele>2052.6000976562</ele>
        <time>2016-04-10T10:29:40.000Z</time>
      </trkpt>
      <trkpt lat="45.16724" lon="5.94074">
        <ele>2051</ele>
        <time>2016-04-10T10:29:42.000Z</time>
      </trkpt>
      <trkpt lat="45.16733" lon="5.94058">
        <ele>2049.3999023438</ele>
        <time>2016-04-10T10:29:44.000Z</time>
      </trkpt>
      <trkpt lat="45.16738" lon="5.9405">
        <ele>2048.6000976562</ele>
        <time>2016-04-10T10:29:45.000Z</time>
      </trkpt>
      <trkpt lat="45.16743" lon="5.9404">
        <ele>2047.8000488281</ele>
        <time>2016-04-10T10:29:46.000Z</time>
      </trkpt>
      <trkpt lat="45.16752" lon="5.94016">
        <ele>2045.5999755859</ele>
        <time>2016-04-10T10:29:48.000Z</time>
      </trkpt>
      <trkpt lat="45.16757" lon="5.94005">
        <ele>2044.1999511719</ele>
        <time>2016-04-10T10:29:49.000Z</time>
      </trkpt>
      <trkpt lat="45.1676" lon="5.93995">
        <ele>2042.8000488281</ele>
        <time>2016-04-10T10:29:50.000Z</time>
      </trkpt>
      <trkpt lat="45.16763" lon="5.93984">
        <ele>2041.1999511719</ele>
        <time>2016-04-10T10:29:51.000Z</time>
      </trkpt>
      <trkpt lat="45.16764" lon="5.93975">
        <ele>2039.8000488281</ele>
        <time>2016-04-10T10:29:52.000Z</time>
      </trkpt>
      <trkpt lat="45.16764" lon="5.93965">
        <ele>2038.8000488281</ele>
        <time>2016-04-10T10:29:53.000Z</time>
      </trkpt>
      <trkpt lat="45.16763" lon="5.9395">
        <ele>2037.5999755859</ele>
        <time>2016-04-10T10:29:55.000Z</time>
      </trkpt>
      <trkpt lat="45.16764" lon="5.93943">
        <ele>2036.8000488281</ele>
        <time>2016-04-10T10:29:56.000Z</time>
      </trkpt>
      <trkpt lat="45.16764" lon="5.93939">
        <ele>2036.4000244141</ele>
        <time>2016-04-10T10:29:57.000Z</time>
      </trkpt>
      <trkpt lat="45.16766" lon="5.93928">
        <ele>2036.1999511719</ele>
        <time>2016-04-10T10:30:00.000Z</time>
      </trkpt>
      <trkpt lat="45.1678" lon="5.9391">
        <ele>2035.5999755859</ele>
        <time>2016-04-10T10:30:06.000Z</time>
      </trkpt>
      <trkpt lat="45.16785" lon="5.93907">
        <ele>2035.4000244141</ele>
        <time>2016-04-10T10:30:07.000Z</time>
      </trkpt>
      <trkpt lat="45.16792" lon="5.93907">
        <ele>2035</ele>
        <time>2016-04-10T10:30:09.000Z</time>
      </trkpt>
      <trkpt lat="45.16799" lon="5.93905">
        <ele>2034</ele>
        <time>2016-04-10T10:30:11.000Z</time>
      </trkpt>
      <trkpt lat="45.16809" lon="5.93907">
        <ele>2032.4000244141</ele>
        <time>2016-04-10T10:30:13.000Z</time>
      </trkpt>
      <trkpt lat="45.16818" lon="5.93916">
        <ele>2031</ele>
        <time>2016-04-10T10:30:15.000Z</time>
      </trkpt>
      <trkpt lat="45.16828" lon="5.93922">
        <ele>2029</ele>
        <time>2016-04-10T10:30:17.000Z</time>
      </trkpt>
      <trkpt lat="45.16831" lon="5.93925">
        <ele>2027.8000488281</ele>
        <time>2016-04-10T10:30:18.000Z</time>
      </trkpt>
      <trkpt lat="45.16834" lon="5.93926">
        <ele>2026.4000244141</ele>
        <time>2016-04-10T10:30:19.000Z</time>
      </trkpt>
      <trkpt lat="45.16836" lon="5.93926">
        <ele>2024.4000244141</ele>
        <time>2016-04-10T10:30:20.000Z</time>
      </trkpt>
      <trkpt lat="45.16838" lon="5.93926">
        <ele>2024</ele>
        <time>2016-04-10T10:30:21.000Z</time>
      </trkpt>
      <trkpt lat="45.16845" lon="5.93925">
        <ele>2023.4000244141</ele>
        <time>2016-04-10T10:30:23.000Z</time>
      </trkpt>
      <trkpt lat="45.16854" lon="5.9392">
        <ele>2022.8000488281</ele>
        <time>2016-04-10T10:30:26.000Z</time>
      </trkpt>
      <trkpt lat="45.16858" lon="5.93918">
        <ele>2022.1999511719</ele>
        <time>2016-04-10T10:30:27.000Z</time>
      </trkpt>
      <trkpt lat="45.16875" lon="5.93904">
        <ele>2021.1999511719</ele>
        <time>2016-04-10T10:30:31.000Z</time>
      </trkpt>
      <trkpt lat="45.16887" lon="5.93889">
        <ele>2019.5999755859</ele>
        <time>2016-04-10T10:30:34.000Z</time>
      </trkpt>
      <trkpt lat="45.16894" lon="5.93878">
        <ele>2018.1999511719</ele>
        <time>2016-04-10T10:30:36.000Z</time>
      </trkpt>
      <trkpt lat="45.16897" lon="5.93873">
        <ele>2017.4000244141</ele>
        <time>2016-04-10T10:30:37.000Z</time>
      </trkpt>
      <trkpt lat="45.16901" lon="5.93867">
        <ele>2016.8000488281</ele>
        <time>2016-04-10T10:30:38.000Z</time>
      </trkpt>
      <trkpt lat="45.16913" lon="5.93847">
        <ele>2015.5999755859</ele>
        <time>2016-04-10T10:30:41.000Z</time>
      </trkpt>
      <trkpt lat="45.16917" lon="5.9384">
        <ele>2015.1999511719</ele>
        <time>2016-04-10T10:30:42.000Z</time>
      </trkpt>
      <trkpt lat="45.16919" lon="5.93833">
        <ele>2014.4000244141</ele>
        <time>2016-04-10T10:30:43.000Z</time>
      </trkpt>
      <trkpt lat="45.16922" lon="5.93827">
        <ele>2013</ele>
        <time>2016-04-10T10:30:44.000Z</time>
      </trkpt>
      <trkpt lat="45.16923" lon="5.9382">
        <ele>2011</ele>
        <time>2016-04-10T10:30:46.000Z</time>
      </trkpt>
      <trkpt lat="45.16927" lon="5.9381">
        <ele>2009.4000244141</ele>
        <time>2016-04-10T10:30:48.000Z</time>
      </trkpt>
      <trkpt lat="45.16929" lon="5.93806">
        <ele>2008.8000488281</ele>
        <time>2016-04-10T10:30:49.000Z</time>
      </trkpt>
      <trkpt lat="45.16932" lon="5.93803">
        <ele>2008</ele>
        <time>2016-04-10T10:30:50.000Z</time>
      </trkpt>
      <trkpt lat="45.16936" lon="5.93797">
        <ele>2006.4000244141</ele>
        <time>2016-04-10T10:30:52.000Z</time>
      </trkpt>
      <trkpt lat="45.16939" lon="5.93794">
        <ele>2005.8000488281</ele>
        <time>2016-04-10T10:30:53.000Z</time>
      </trkpt>
      <trkpt lat="45.16942" lon="5.93791">
        <ele>2005.1999511719</ele>
        <time>2016-04-10T10:30:54.000Z</time>
      </trkpt>
      <trkpt lat="45.16949" lon="5.93782">
        <ele>2004</ele>
        <time>2016-04-10T10:30:56.000Z</time>
      </trkpt>
      <trkpt lat="45.16957" lon="5.93773">
        <ele>2002.8000488281</ele>
        <time>2016-04-10T10:30:58.000Z</time>
      </trkpt>
      <trkpt lat="45.16961" lon="5.93769">
        <ele>2002</ele>
        <time>2016-04-10T10:30:59.000Z</time>
      </trkpt>
      <trkpt lat="45.16965" lon="5.93766">
        <ele>2001.4000244141</ele>
        <time>2016-04-10T10:31:00.000Z</time>
      </trkpt>
      <trkpt lat="45.16972" lon="5.9376">
        <ele>2000.1999511719</ele>
        <time>2016-04-10T10:31:02.000Z</time>
      </trkpt>
      <trkpt lat="45.16978" lon="5.93756">
        <ele>1999.5999755859</ele>
        <time>2016-04-10T10:31:03.000Z</time>
      </trkpt>
      <trkpt lat="45.16983" lon="5.93752">
        <ele>1999.1999511719</ele>
        <time>2016-04-10T10:31:04.000Z</time>
      </trkpt>
      <trkpt lat="45.16994" lon="5.93745">
        <ele>1997.8000488281</ele>
        <time>2016-04-10T10:31:06.000Z</time>
      </trkpt>
      <trkpt lat="45.17006" lon="5.93739">
        <ele>1995.8000488281</ele>
        <time>2016-04-10T10:31:08.000Z</time>
      </trkpt>
      <trkpt lat="45.17018" lon="5.93735">
        <ele>1994.5999755859</ele>
        <time>2016-04-10T10:31:10.000Z</time>
      </trkpt>
      <trkpt lat="45.1703" lon="5.93733">
        <ele>1993.1999511719</ele>
        <time>2016-04-10T10:31:12.000Z</time>
      </trkpt>
      <trkpt lat="45.17036" lon="5.93733">
        <ele>1992.4000244141</ele>
        <time>2016-04-10T10:31:13.000Z</time>
      </trkpt>
      <trkpt lat="45.17041" lon="5.93735">
        <ele>1991.4000244141</ele>
        <time>2016-04-10T10:31:14.000Z</time>
      </trkpt>
      <trkpt lat="45.17053" lon="5.93735">
        <ele>1989.8000488281</ele>
        <time>2016-04-10T10:31:16.000Z</time>
      </trkpt>
      <trkpt lat="45.17067" lon="5.93727">
        <ele>1989</ele>
        <time>2016-04-10T10:31:18.000Z</time>
      </trkpt>
      <trkpt lat="45.17071" lon="5.93724">
        <ele>1988</ele>
        <time>2016-04-10T10:31:19.000Z</time>
      </trkpt>
      <trkpt lat="45.17076" lon="5.93719">
        <ele>1986.4000244141</ele>
        <time>2016-04-10T10:31:20.000Z</time>
      </trkpt>
      <trkpt lat="45.1708" lon="5.93714">
        <ele>1984.8000488281</ele>
        <time>2016-04-10T10:31:21.000Z</time>
      </trkpt>
      <trkpt lat="45.17084" lon="5.93709">
        <ele>1983.8000488281</ele>
        <time>2016-04-10T10:31:22.000Z</time>
      </trkpt>
      <trkpt lat="45.17087" lon="5.93704">
        <ele>1983</ele>
        <time>2016-04-10T10:31:23.000Z</time>
      </trkpt>
      <trkpt lat="45.17089" lon="5.937">
        <ele>1982.4000244141</ele>
        <time>2016-04-10T10:31:24.000Z</time>
      </trkpt>
      <trkpt lat="45.17094" lon="5.93692">
        <ele>1981.5999755859</ele>
        <time>2016-04-10T10:31:26.000Z</time>
      </trkpt>
      <trkpt lat="45.17097" lon="5.93689">
        <ele>1981.4000244141</ele>
        <time>2016-04-10T10:31:27.000Z</time>
      </trkpt>
      <trkpt lat="45.17112" lon="5.9367">
        <ele>1979.8000488281</ele>
        <time>2016-04-10T10:31:32.000Z</time>
      </trkpt>
      <trkpt lat="45.17112" lon="5.93669">
        <ele>1979.1999511719</ele>
        <time>2016-04-10T10:31:35.000Z</time>
      </trkpt>
      <trkpt lat="45.17114" lon="5.93659">
        <ele>1980.4000244141</ele>
        <time>2016-04-10T10:31:41.000Z</time>
      </trkpt>
      <trkpt lat="45.17117" lon="5.93643">
        <ele>1980.5999755859</ele>
        <time>2016-04-10T10:31:48.000Z</time>
      </trkpt>
      <trkpt lat="45.17118" lon="5.93634">
        <ele>1980.5999755859</ele>
        <time>2016-04-10T10:31:50.000Z</time>
      </trkpt>
      <trkpt lat="45.17121" lon="5.93622">
        <ele>1980.4000244141</ele>
        <time>2016-04-10T10:31:52.000Z</time>
      </trkpt>
      <trkpt lat="45.17123" lon="5.9362">
        <ele>1979.4000244141</ele>
        <time>2016-04-10T10:31:55.000Z</time>
      </trkpt>
      <trkpt lat="45.17127" lon="5.93621">
        <ele>1979</ele>
        <time>2016-04-10T10:32:04.000Z</time>
      </trkpt>
      <trkpt lat="45.17128" lon="5.93621">
        <ele>1979.5999755859</ele>
        <time>2016-04-10T10:32:13.000Z</time>
      </trkpt>
      <trkpt lat="45.17133" lon="5.93623">
        <ele>1980.5999755859</ele>
        <time>2016-04-10T10:32:22.000Z</time>
      </trkpt>
      <trkpt lat="45.17134" lon="5.93623">
        <ele>1980.8000488281</ele>
        <time>2016-04-10T10:32:27.000Z</time>
      </trkpt>
      <trkpt lat="45.17135" lon="5.93622">
        <ele>1981</ele>
        <time>2016-04-10T10:32:39.000Z</time>
      </trkpt>
      <trkpt lat="45.17135" lon="5.93622">
        <ele>1981.1999511719</ele>
        <time>2016-04-10T10:32:49.000Z</time>
      </trkpt>
      <trkpt lat="45.17135" lon="5.93622">
        <ele>1981.4000244141</ele>
        <time>2016-04-10T10:33:00.000Z</time>
      </trkpt>
      <trkpt lat="45.17137" lon="5.9362">
        <ele>1981.1999511719</ele>
        <time>2016-04-10T10:33:04.000Z</time>
      </trkpt>
      <trkpt lat="45.17137" lon="5.9362">
        <ele>1981.1999511719</ele>
        <time>2016-04-10T10:33:09.000Z</time>
      </trkpt>
      <trkpt lat="45.17137" lon="5.9362">
        <ele>1980.8000488281</ele>
        <time>2016-04-10T10:33:19.000Z</time>
      </trkpt>
      <trkpt lat="45.17137" lon="5.9362">
        <ele>1981</ele>
        <time>2016-04-10T10:33:35.000Z</time>
      </trkpt>
      <trkpt lat="45.17138" lon="5.9362">
        <ele>1981</ele>
        <time>2016-04-10T10:33:48.000Z</time>
      </trkpt>
      <trkpt lat="45.17139" lon="5.93621">
        <ele>1981.5999755859</ele>
        <time>2016-04-10T10:33:57.000Z</time>
      </trkpt>
      <trkpt lat="45.17139" lon="5.93621">
        <ele>1981.8000488281</ele>
        <time>2016-04-10T10:33:59.000Z</time>
      </trkpt>
      <trkpt lat="45.17139" lon="5.93621">
        <ele>1981.8000488281</ele>
        <time>2016-04-10T10:34:06.000Z</time>
      </trkpt>
      <trkpt lat="45.17138" lon="5.93623">
        <ele>1981.4000244141</ele>
        <time>2016-04-10T10:34:13.000Z</time>
      </trkpt>
      <trkpt lat="45.17136" lon="5.93624">
        <ele>1981.1999511719</ele>
        <time>2016-04-10T10:34:15.000Z</time>
      </trkpt>
      <trkpt lat="45.17134" lon="5.93623">
        <ele>1981</ele>
        <time>2016-04-10T10:34:19.000Z</time>
      </trkpt>
      <trkpt lat="45.17133" lon="5.93622">
        <ele>1981</ele>
        <time>2016-04-10T10:34:25.000Z</time>
      </trkpt>
      <trkpt lat="45.17133" lon="5.93622">
        <ele>1980.8000488281</ele>
        <time>2016-04-10T10:34:27.000Z</time>
      </trkpt>
      <trkpt lat="45.17133" lon="5.93622">
        <ele>1982.1999511719</ele>
        <time>2016-04-10T10:34:32.000Z</time>
      </trkpt>
      <trkpt lat="45.17133" lon="5.93622">
        <ele>1982.5999755859</ele>
        <time>2016-04-10T10:34:34.000Z</time>
      </trkpt>
      <trkpt lat="45.17133" lon="5.93622">
        <ele>1981.8000488281</ele>
        <time>2016-04-10T10:34:44.000Z</time>
      </trkpt>
      <trkpt lat="45.17133" lon="5.93622">
        <ele>1981.8000488281</ele>
        <time>2016-04-10T10:34:59.000Z</time>
      </trkpt>
      <trkpt lat="45.17134" lon="5.93621">
        <ele>1981.8000488281</ele>
        <time>2016-04-10T10:35:12.000Z</time>
      </trkpt>
      <trkpt lat="45.17134" lon="5.93621">
        <ele>1981.8000488281</ele>
        <time>2016-04-10T10:35:26.000Z</time>
      </trkpt>
      <trkpt lat="45.17134" lon="5.93621">
        <ele>1981.8000488281</ele>
        <time>2016-04-10T10:35:31.000Z</time>
      </trkpt>
      <trkpt lat="45.17134" lon="5.93621">
        <ele>1981.8000488281</ele>
        <time>2016-04-10T10:35:39.000Z</time>
      </trkpt>
      <trkpt lat="45.17133" lon="5.9362">
        <ele>1981.8000488281</ele>
        <time>2016-04-10T10:35:53.000Z</time>
      </trkpt>
      <trkpt lat="45.17133" lon="5.9362">
        <ele>1981.8000488281</ele>
        <time>2016-04-10T10:36:08.000Z</time>
      </trkpt>
      <trkpt lat="45.17133" lon="5.93618">
        <ele>1981.8000488281</ele>
        <time>2016-04-10T10:36:23.000Z</time>
      </trkpt>
      <trkpt lat="45.17133" lon="5.93618">
        <ele>1981.8000488281</ele>
        <time>2016-04-10T10:36:40.000Z</time>
      </trkpt>
      <trkpt lat="45.17133" lon="5.93618">
        <ele>1981.5999755859</ele>
        <time>2016-04-10T10:36:56.000Z</time>
      </trkpt>
      <trkpt lat="45.17133" lon="5.93618">
        <ele>1981.5999755859</ele>
        <time>2016-04-10T10:37:09.000Z</time>
      </trkpt>
      <trkpt lat="45.17133" lon="5.93618">
        <ele>1981.5999755859</ele>
        <time>2016-04-10T10:37:12.000Z</time>
      </trkpt>
      <trkpt lat="45.17133" lon="5.93618">
        <ele>1981.5999755859</ele>
        <time>2016-04-10T10:37:28.000Z</time>
      </trkpt>
      <trkpt lat="45.17133" lon="5.93618">
        <ele>1981.5999755859</ele>
        <time>2016-04-10T10:37:44.000Z</time>
      </trkpt>
      <trkpt lat="45.17133" lon="5.93618">
        <ele>1981.5999755859</ele>
        <time>2016-04-10T10:37:55.000Z</time>
      </trkpt>
      <trkpt lat="45.17133" lon="5.93618">
        <ele>1981.4000244141</ele>
        <time>2016-04-10T10:38:06.000Z</time>
      </trkpt>
      <trkpt lat="45.17133" lon="5.93618">
        <ele>1981.5999755859</ele>
        <time>2016-04-10T10:38:12.000Z</time>
      </trkpt>
      <trkpt lat="45.17133" lon="5.93618">
        <ele>1981.5999755859</ele>
        <time>2016-04-10T10:38:21.000Z</time>
      </trkpt>
      <trkpt lat="45.17133" lon="5.93618">
        <ele>1981.5999755859</ele>
        <time>2016-04-10T10:38:38.000Z</time>
      </trkpt>
      <trkpt lat="45.17133" lon="5.93618">
        <ele>1981.8000488281</ele>
        <time>2016-04-10T10:38:48.000Z</time>
      </trkpt>
      <trkpt lat="45.17134" lon="5.93618">
        <ele>1981.8000488281</ele>
        <time>2016-04-10T10:39:04.000Z</time>
      </trkpt>
      <trkpt lat="45.17134" lon="5.93618">
        <ele>1981.5999755859</ele>
        <time>2016-04-10T10:39:07.000Z</time>
      </trkpt>
      <trkpt lat="45.17134" lon="5.93618">
        <ele>1981.8000488281</ele>
        <time>2016-04-10T10:39:17.000Z</time>
      </trkpt>
      <trkpt lat="45.17134" lon="5.93618">
        <ele>1981.8000488281</ele>
        <time>2016-04-10T10:39:30.000Z</time>
      </trkpt>
      <trkpt lat="45.17134" lon="5.93619">
        <ele>1981.8000488281</ele>
        <time>2016-04-10T10:39:46.000Z</time>
      </trkpt>
      <trkpt lat="45.17134" lon="5.93619">
        <ele>1981.8000488281</ele>
        <time>2016-04-10T10:39:59.000Z</time>
      </trkpt>
      <trkpt lat="45.17134" lon="5.93619">
        <ele>1981.5999755859</ele>
        <time>2016-04-10T10:40:11.000Z</time>
      </trkpt>
      <trkpt lat="45.17134" lon="5.93619">
        <ele>1981.5999755859</ele>
        <time>2016-04-10T10:40:17.000Z</time>
      </trkpt>
      <trkpt lat="45.17133" lon="5.9362">
        <ele>1981.5999755859</ele>
        <time>2016-04-10T10:40:29.000Z</time>
      </trkpt>
      <trkpt lat="45.17133" lon="5.9362">
        <ele>1981.5999755859</ele>
        <time>2016-04-10T10:40:48.000Z</time>
      </trkpt>
      <trkpt lat="45.1713" lon="5.93624">
        <ele>1981.5999755859</ele>
        <time>2016-04-10T10:41:04.000Z</time>
      </trkpt>
      <trkpt lat="45.1713" lon="5.93624">
        <ele>1981.8000488281</ele>
        <time>2016-04-10T10:41:19.000Z</time>
      </trkpt>
      <trkpt lat="45.1713" lon="5.93624">
        <ele>1982</ele>
        <time>2016-04-10T10:41:33.000Z</time>
      </trkpt>
      <trkpt lat="45.1713" lon="5.93624">
        <ele>1982</ele>
        <time>2016-04-10T10:41:53.000Z</time>
      </trkpt>
      <trkpt lat="45.1713" lon="5.93623">
        <ele>1982.1999511719</ele>
        <time>2016-04-10T10:42:13.000Z</time>
      </trkpt>
      <trkpt lat="45.1713" lon="5.93623">
        <ele>1982.1999511719</ele>
        <time>2016-04-10T10:42:16.000Z</time>
      </trkpt>
      <trkpt lat="45.1713" lon="5.93623">
        <ele>1982.1999511719</ele>
        <time>2016-04-10T10:42:31.000Z</time>
      </trkpt>
      <trkpt lat="45.1713" lon="5.93623">
        <ele>1982.1999511719</ele>
        <time>2016-04-10T10:42:50.000Z</time>
      </trkpt>
      <trkpt lat="45.17131" lon="5.93622">
        <ele>1982.4000244141</ele>
        <time>2016-04-10T10:43:05.000Z</time>
      </trkpt>
      <trkpt lat="45.17131" lon="5.93622">
        <ele>1982.5999755859</ele>
        <time>2016-04-10T10:43:19.000Z</time>
      </trkpt>
      <trkpt lat="45.17131" lon="5.9362">
        <ele>1982.4000244141</ele>
        <time>2016-04-10T10:43:33.000Z</time>
      </trkpt>
      <trkpt lat="45.17132" lon="5.93619">
        <ele>1982.8000488281</ele>
        <time>2016-04-10T10:43:42.000Z</time>
      </trkpt>
      <trkpt lat="45.17132" lon="5.93619">
        <ele>1982.5999755859</ele>
        <time>2016-04-10T10:43:59.000Z</time>
      </trkpt>
      <trkpt lat="45.17132" lon="5.93619">
        <ele>1982.5999755859</ele>
        <time>2016-04-10T10:44:21.000Z</time>
      </trkpt>
      <trkpt lat="45.17132" lon="5.93619">
        <ele>1982.4000244141</ele>
        <time>2016-04-10T10:44:44.000Z</time>
      </trkpt>
      <trkpt lat="45.17132" lon="5.93618">
        <ele>1982.4000244141</ele>
        <time>2016-04-10T10:45:02.000Z</time>
      </trkpt>
      <trkpt lat="45.17132" lon="5.93618">
        <ele>1982.1999511719</ele>
        <time>2016-04-10T10:45:21.000Z</time>
      </trkpt>
      <trkpt lat="45.17132" lon="5.93618">
        <ele>1982</ele>
        <time>2016-04-10T10:45:45.000Z</time>
      </trkpt>
      <trkpt lat="45.17132" lon="5.93618">
        <ele>1982</ele>
        <time>2016-04-10T10:46:08.000Z</time>
      </trkpt>
      <trkpt lat="45.17132" lon="5.93618">
        <ele>1981.8000488281</ele>
        <time>2016-04-10T10:46:28.000Z</time>
      </trkpt>
      <trkpt lat="45.17132" lon="5.93618">
        <ele>1981.8000488281</ele>
        <time>2016-04-10T10:46:49.000Z</time>
      </trkpt>
      <trkpt lat="45.17132" lon="5.93618">
        <ele>1981.5999755859</ele>
        <time>2016-04-10T10:47:18.000Z</time>
      </trkpt>
      <trkpt lat="45.17133" lon="5.93618">
        <ele>1981.5999755859</ele>
        <time>2016-04-10T10:47:41.000Z</time>
      </trkpt>
      <trkpt lat="45.17133" lon="5.93618">
        <ele>1981.5999755859</ele>
        <time>2016-04-10T10:48:05.000Z</time>
      </trkpt>
      <trkpt lat="45.17133" lon="5.93618">
        <ele>1981.8000488281</ele>
        <time>2016-04-10T10:48:26.000Z</time>
      </trkpt>
      <trkpt lat="45.17133" lon="5.93618">
        <ele>1981.8000488281</ele>
        <time>2016-04-10T10:48:44.000Z</time>
      </trkpt>
      <trkpt lat="45.17133" lon="5.93619">
        <ele>1982</ele>
        <time>2016-04-10T10:48:58.000Z</time>
      </trkpt>
      <trkpt lat="45.17133" lon="5.93619">
        <ele>1982.1999511719</ele>
        <time>2016-04-10T10:49:15.000Z</time>
      </trkpt>
      <trkpt lat="45.17133" lon="5.93619">
        <ele>1982.1999511719</ele>
        <time>2016-04-10T10:49:34.000Z</time>
      </trkpt>
      <trkpt lat="45.17133" lon="5.93619">
        <ele>1982.4000244141</ele>
        <time>2016-04-10T10:49:53.000Z</time>
      </trkpt>
      <trkpt lat="45.17133" lon="5.93619">
        <ele>1982.4000244141</ele>
        <time>2016-04-10T10:50:20.000Z</time>
      </trkpt>
      <trkpt lat="45.17133" lon="5.93619">
        <ele>1982.1999511719</ele>
        <time>2016-04-10T10:50:42.000Z</time>
      </trkpt>
      <trkpt lat="45.17133" lon="5.93619">
        <ele>1982.4000244141</ele>
        <time>2016-04-10T10:51:04.000Z</time>
      </trkpt>
      <trkpt lat="45.17133" lon="5.93619">
        <ele>1982</ele>
        <time>2016-04-10T10:51:32.000Z</time>
      </trkpt>
      <trkpt lat="45.17133" lon="5.93619">
        <ele>1982</ele>
        <time>2016-04-10T10:51:56.000Z</time>
      </trkpt>
      <trkpt lat="45.17133" lon="5.93619">
        <ele>1981.8000488281</ele>
        <time>2016-04-10T10:52:20.000Z</time>
      </trkpt>
      <trkpt lat="45.17133" lon="5.93619">
        <ele>1981</ele>
        <time>2016-04-10T10:52:33.000Z</time>
      </trkpt>
      <trkpt lat="45.17133" lon="5.93619">
        <ele>1982.1999511719</ele>
        <time>2016-04-10T10:52:40.000Z</time>
      </trkpt>
      <trkpt lat="45.17133" lon="5.93619">
        <ele>1981.8000488281</ele>
        <time>2016-04-10T10:52:48.000Z</time>
      </trkpt>
      <trkpt lat="45.17131" lon="5.93619">
        <ele>1981</ele>
        <time>2016-04-10T10:52:56.000Z</time>
      </trkpt>
      <trkpt lat="45.17132" lon="5.9362">
        <ele>1980.4000244141</ele>
        <time>2016-04-10T10:52:59.000Z</time>
      </trkpt>
      <trkpt lat="45.17132" lon="5.9362">
        <ele>1982.1999511719</ele>
        <time>2016-04-10T10:53:02.000Z</time>
      </trkpt>
      <trkpt lat="45.17132" lon="5.9362">
        <ele>1981.1999511719</ele>
        <time>2016-04-10T10:53:11.000Z</time>
      </trkpt>
      <trkpt lat="45.17132" lon="5.9362">
        <ele>1981.5999755859</ele>
        <time>2016-04-10T10:53:25.000Z</time>
      </trkpt>
      <trkpt lat="45.17132" lon="5.9362">
        <ele>1981.5999755859</ele>
        <time>2016-04-10T10:53:39.000Z</time>
      </trkpt>
      <trkpt lat="45.17134" lon="5.93624">
        <ele>1981.8000488281</ele>
        <time>2016-04-10T10:53:50.000Z</time>
      </trkpt>
      <trkpt lat="45.17134" lon="5.93624">
        <ele>1981.5999755859</ele>
        <time>2016-04-10T10:54:02.000Z</time>
      </trkpt>
      <trkpt lat="45.17134" lon="5.93624">
        <ele>1981.4000244141</ele>
        <time>2016-04-10T10:54:11.000Z</time>
      </trkpt>
      <trkpt lat="45.17135" lon="5.93626">
        <ele>1981</ele>
        <time>2016-04-10T10:54:17.000Z</time>
      </trkpt>
      <trkpt lat="45.17135" lon="5.93626">
        <ele>1980.5999755859</ele>
        <time>2016-04-10T10:54:29.000Z</time>
      </trkpt>
      <trkpt lat="45.17135" lon="5.93626">
        <ele>1980.5999755859</ele>
        <time>2016-04-10T10:54:42.000Z</time>
      </trkpt>
      <trkpt lat="45.17135" lon="5.93624">
        <ele>1980.5999755859</ele>
        <time>2016-04-10T10:54:59.000Z</time>
      </trkpt>
      <trkpt lat="45.17135" lon="5.93624">
        <ele>1980.8000488281</ele>
        <time>2016-04-10T10:55:09.000Z</time>
      </trkpt>
      <trkpt lat="45.17135" lon="5.93624">
        <ele>1980.5999755859</ele>
        <time>2016-04-10T10:55:24.000Z</time>
      </trkpt>
      <trkpt lat="45.17135" lon="5.93624">
        <ele>1981</ele>
        <time>2016-04-10T10:55:38.000Z</time>
      </trkpt>
      <trkpt lat="45.17135" lon="5.93624">
        <ele>1981</ele>
        <time>2016-04-10T10:55:50.000Z</time>
      </trkpt>
      <trkpt lat="45.17136" lon="5.93624">
        <ele>1981</ele>
        <time>2016-04-10T10:55:57.000Z</time>
      </trkpt>
      <trkpt lat="45.17137" lon="5.93623">
        <ele>1981.1999511719</ele>
        <time>2016-04-10T10:56:06.000Z</time>
      </trkpt>
      <trkpt lat="45.1714" lon="5.93623">
        <ele>1981.1999511719</ele>
        <time>2016-04-10T10:56:13.000Z</time>
      </trkpt>
      <trkpt lat="45.17143" lon="5.93623">
        <ele>1981.4000244141</ele>
        <time>2016-04-10T10:56:21.000Z</time>
      </trkpt>
      <trkpt lat="45.17149" lon="5.93624">
        <ele>1981.8000488281</ele>
        <time>2016-04-10T10:56:30.000Z</time>
      </trkpt>
      <trkpt lat="45.17151" lon="5.93625">
        <ele>1981.8000488281</ele>
        <time>2016-04-10T10:56:37.000Z</time>
      </trkpt>
      <trkpt lat="45.17153" lon="5.93628">
        <ele>1982</ele>
        <time>2016-04-10T10:56:46.000Z</time>
      </trkpt>
      <trkpt lat="45.17155" lon="5.93631">
        <ele>1982</ele>
        <time>2016-04-10T10:56:47.000Z</time>
      </trkpt>
      <trkpt lat="45.17161" lon="5.93641">
        <ele>1981.8000488281</ele>
        <time>2016-04-10T10:56:50.000Z</time>
      </trkpt>
      <trkpt lat="45.17177" lon="5.93645">
        <ele>1980</ele>
        <time>2016-04-10T10:56:54.000Z</time>
      </trkpt>
      <trkpt lat="45.17193" lon="5.93643">
        <ele>1979</ele>
        <time>2016-04-10T10:56:57.000Z</time>
      </trkpt>
      <trkpt lat="45.17204" lon="5.93642">
        <ele>1978.1999511719</ele>
        <time>2016-04-10T10:56:59.000Z</time>
      </trkpt>
      <trkpt lat="45.1721" lon="5.93641">
        <ele>1978</ele>
        <time>2016-04-10T10:57:00.000Z</time>
      </trkpt>
      <trkpt lat="45.1722" lon="5.93639">
        <ele>1976.8000488281</ele>
        <time>2016-04-10T10:57:02.000Z</time>
      </trkpt>
      <trkpt lat="45.1723" lon="5.93636">
        <ele>1975.4000244141</ele>
        <time>2016-04-10T10:57:04.000Z</time>
      </trkpt>
      <trkpt lat="45.17237" lon="5.93634">
        <ele>1974.4000244141</ele>
        <time>2016-04-10T10:57:06.000Z</time>
      </trkpt>
      <trkpt lat="45.17248" lon="5.93632">
        <ele>1973.4000244141</ele>
        <time>2016-04-10T10:57:10.000Z</time>
      </trkpt>
      <trkpt lat="45.17255" lon="5.93631">
        <ele>1973.4000244141</ele>
        <time>2016-04-10T10:57:13.000Z</time>
      </trkpt>
      <trkpt lat="45.17275" lon="5.93627">
        <ele>1972.8000488281</ele>
        <time>2016-04-10T10:57:21.000Z</time>
      </trkpt>
      <trkpt lat="45.17283" lon="5.93626">
        <ele>1973</ele>
        <time>2016-04-10T10:57:28.000Z</time>
      </trkpt>
      <trkpt lat="45.17285" lon="5.93625">
        <ele>1973</ele>
        <time>2016-04-10T10:57:29.000Z</time>
      </trkpt>
      <trkpt lat="45.173" lon="5.93617">
        <ele>1972.5999755859</ele>
        <time>2016-04-10T10:57:33.000Z</time>
      </trkpt>
      <trkpt lat="45.17305" lon="5.93616">
        <ele>1972</ele>
        <time>2016-04-10T10:57:34.000Z</time>
      </trkpt>
      <trkpt lat="45.1731" lon="5.93615">
        <ele>1971.4000244141</ele>
        <time>2016-04-10T10:57:35.000Z</time>
      </trkpt>
      <trkpt lat="45.17315" lon="5.93616">
        <ele>1970.8000488281</ele>
        <time>2016-04-10T10:57:36.000Z</time>
      </trkpt>
      <trkpt lat="45.17325" lon="5.9362">
        <ele>1969.1999511719</ele>
        <time>2016-04-10T10:57:38.000Z</time>
      </trkpt>
      <trkpt lat="45.17329" lon="5.93619">
        <ele>1968.5999755859</ele>
        <time>2016-04-10T10:57:39.000Z</time>
      </trkpt>
      <trkpt lat="45.17332" lon="5.93616">
        <ele>1968.1999511719</ele>
        <time>2016-04-10T10:57:40.000Z</time>
      </trkpt>
      <trkpt lat="45.17335" lon="5.93612">
        <ele>1967.5999755859</ele>
        <time>2016-04-10T10:57:41.000Z</time>
      </trkpt>
      <trkpt lat="45.17337" lon="5.93607">
        <ele>1967</ele>
        <time>2016-04-10T10:57:42.000Z</time>
      </trkpt>
      <trkpt lat="45.1734" lon="5.93604">
        <ele>1965.8000488281</ele>
        <time>2016-04-10T10:57:43.000Z</time>
      </trkpt>
      <trkpt lat="45.17342" lon="5.93605">
        <ele>1964.4000244141</ele>
        <time>2016-04-10T10:57:44.000Z</time>
      </trkpt>
      <trkpt lat="45.17344" lon="5.93605">
        <ele>1963.1999511719</ele>
        <time>2016-04-10T10:57:45.000Z</time>
      </trkpt>
      <trkpt lat="45.17345" lon="5.93606">
        <ele>1962</ele>
        <time>2016-04-10T10:57:46.000Z</time>
      </trkpt>
      <trkpt lat="45.17346" lon="5.93608">
        <ele>1960.1999511719</ele>
        <time>2016-04-10T10:57:48.000Z</time>
      </trkpt>
      <trkpt lat="45.17346" lon="5.93609">
        <ele>1958.5999755859</ele>
        <time>2016-04-10T10:57:50.000Z</time>
      </trkpt>
      <trkpt lat="45.17345" lon="5.93611">
        <ele>1957.5999755859</ele>
        <time>2016-04-10T10:57:58.000Z</time>
      </trkpt>
      <trkpt lat="45.17346" lon="5.93612">
        <ele>1957.4000244141</ele>
        <time>2016-04-10T10:57:59.000Z</time>
      </trkpt>
      <trkpt lat="45.17349" lon="5.93612">
        <ele>1956.4000244141</ele>
        <time>2016-04-10T10:58:01.000Z</time>
      </trkpt>
      <trkpt lat="45.17351" lon="5.9361">
        <ele>1956</ele>
        <time>2016-04-10T10:58:02.000Z</time>
      </trkpt>
      <trkpt lat="45.17357" lon="5.93604">
        <ele>1954.5999755859</ele>
        <time>2016-04-10T10:58:05.000Z</time>
      </trkpt>
      <trkpt lat="45.1736" lon="5.93604">
        <ele>1953.8000488281</ele>
        <time>2016-04-10T10:58:06.000Z</time>
      </trkpt>
      <trkpt lat="45.17362" lon="5.93603">
        <ele>1952.5999755859</ele>
        <time>2016-04-10T10:58:07.000Z</time>
      </trkpt>
      <trkpt lat="45.17362" lon="5.936">
        <ele>1951.4000244141</ele>
        <time>2016-04-10T10:58:08.000Z</time>
      </trkpt>
      <trkpt lat="45.17362" lon="5.93597">
        <ele>1950.5999755859</ele>
        <time>2016-04-10T10:58:09.000Z</time>
      </trkpt>
      <trkpt lat="45.17363" lon="5.93594">
        <ele>1949.8000488281</ele>
        <time>2016-04-10T10:58:10.000Z</time>
      </trkpt>
      <trkpt lat="45.17364" lon="5.9359">
        <ele>1948.4000244141</ele>
        <time>2016-04-10T10:58:11.000Z</time>
      </trkpt>
      <trkpt lat="45.17366" lon="5.93587">
        <ele>1946.5999755859</ele>
        <time>2016-04-10T10:58:12.000Z</time>
      </trkpt>
      <trkpt lat="45.17368" lon="5.93584">
        <ele>1944.5999755859</ele>
        <time>2016-04-10T10:58:13.000Z</time>
      </trkpt>
      <trkpt lat="45.17369" lon="5.9358">
        <ele>1942.8000488281</ele>
        <time>2016-04-10T10:58:14.000Z</time>
      </trkpt>
      <trkpt lat="45.17371" lon="5.93576">
        <ele>1941.4000244141</ele>
        <time>2016-04-10T10:58:15.000Z</time>
      </trkpt>
      <trkpt lat="45.17372" lon="5.9357">
        <ele>1939.8000488281</ele>
        <time>2016-04-10T10:58:16.000Z</time>
      </trkpt>
      <trkpt lat="45.17374" lon="5.93565">
        <ele>1937.8000488281</ele>
        <time>2016-04-10T10:58:17.000Z</time>
      </trkpt>
      <trkpt lat="45.17376" lon="5.9356">
        <ele>1935.8000488281</ele>
        <time>2016-04-10T10:58:18.000Z</time>
      </trkpt>
      <trkpt lat="45.17377" lon="5.93554">
        <ele>1934</ele>
        <time>2016-04-10T10:58:19.000Z</time>
      </trkpt>
      <trkpt lat="45.17378" lon="5.93547">
        <ele>1932.4000244141</ele>
        <time>2016-04-10T10:58:20.000Z</time>
      </trkpt>
      <trkpt lat="45.17378" lon="5.9354">
        <ele>1930.5999755859</ele>
        <time>2016-04-10T10:58:21.000Z</time>
      </trkpt>
      <trkpt lat="45.17379" lon="5.93532">
        <ele>1927.5999755859</ele>
        <time>2016-04-10T10:58:22.000Z</time>
      </trkpt>
      <trkpt lat="45.1738" lon="5.93526">
        <ele>1926.4000244141</ele>
        <time>2016-04-10T10:58:23.000Z</time>
      </trkpt>
      <trkpt lat="45.17381" lon="5.93519">
        <ele>1925.1999511719</ele>
        <time>2016-04-10T10:58:24.000Z</time>
      </trkpt>
      <trkpt lat="45.17378" lon="5.9351">
        <ele>1923.4000244141</ele>
        <time>2016-04-10T10:58:26.000Z</time>
      </trkpt>
      <trkpt lat="45.17377" lon="5.93504">
        <ele>1922.8000488281</ele>
        <time>2016-04-10T10:58:27.000Z</time>
      </trkpt>
      <trkpt lat="45.17377" lon="5.93497">
        <ele>1922</ele>
        <time>2016-04-10T10:58:28.000Z</time>
      </trkpt>
      <trkpt lat="45.17377" lon="5.93491">
        <ele>1920.8000488281</ele>
        <time>2016-04-10T10:58:29.000Z</time>
      </trkpt>
      <trkpt lat="45.17376" lon="5.93486">
        <ele>1919.8000488281</ele>
        <time>2016-04-10T10:58:30.000Z</time>
      </trkpt>
      <trkpt lat="45.17374" lon="5.93481">
        <ele>1918.8000488281</ele>
        <time>2016-04-10T10:58:31.000Z</time>
      </trkpt>
      <trkpt lat="45.17373" lon="5.93475">
        <ele>1918</ele>
        <time>2016-04-10T10:58:32.000Z</time>
      </trkpt>
      <trkpt lat="45.17371" lon="5.9347">
        <ele>1916.8000488281</ele>
        <time>2016-04-10T10:58:33.000Z</time>
      </trkpt>
      <trkpt lat="45.17368" lon="5.93465">
        <ele>1915.8000488281</ele>
        <time>2016-04-10T10:58:34.000Z</time>
      </trkpt>
      <trkpt lat="45.17362" lon="5.93459">
        <ele>1914.4000244141</ele>
        <time>2016-04-10T10:58:36.000Z</time>
      </trkpt>
      <trkpt lat="45.17359" lon="5.93454">
        <ele>1912.5999755859</ele>
        <time>2016-04-10T10:58:38.000Z</time>
      </trkpt>
      <trkpt lat="45.17359" lon="5.9345">
        <ele>1911.8000488281</ele>
        <time>2016-04-10T10:58:39.000Z</time>
      </trkpt>
      <trkpt lat="45.1736" lon="5.93445">
        <ele>1911</ele>
        <time>2016-04-10T10:58:40.000Z</time>
      </trkpt>
      <trkpt lat="45.17363" lon="5.93433">
        <ele>1909.4000244141</ele>
        <time>2016-04-10T10:58:42.000Z</time>
      </trkpt>
      <trkpt lat="45.17364" lon="5.93424">
        <ele>1908.4000244141</ele>
        <time>2016-04-10T10:58:43.000Z</time>
      </trkpt>
      <trkpt lat="45.17365" lon="5.93414">
        <ele>1907.4000244141</ele>
        <time>2016-04-10T10:58:44.000Z</time>
      </trkpt>
      <trkpt lat="45.17366" lon="5.93403">
        <ele>1906.1999511719</ele>
        <time>2016-04-10T10:58:45.000Z</time>
      </trkpt>
      <trkpt lat="45.17368" lon="5.93392">
        <ele>1903.5999755859</ele>
        <time>2016-04-10T10:58:46.000Z</time>
      </trkpt>
      <trkpt lat="45.17368" lon="5.93382">
        <ele>1902.4000244141</ele>
        <time>2016-04-10T10:58:47.000Z</time>
      </trkpt>
      <trkpt lat="45.17369" lon="5.93371">
        <ele>1901.1999511719</ele>
        <time>2016-04-10T10:58:48.000Z</time>
      </trkpt>
      <trkpt lat="45.1737" lon="5.93352">
        <ele>1899.4000244141</ele>
        <time>2016-04-10T10:58:50.000Z</time>
      </trkpt>
      <trkpt lat="45.1737" lon="5.93343">
        <ele>1898.1999511719</ele>
        <time>2016-04-10T10:58:51.000Z</time>
      </trkpt>
      <trkpt lat="45.17373" lon="5.93328">
        <ele>1896.5999755859</ele>
        <time>2016-04-10T10:58:53.000Z</time>
      </trkpt>
      <trkpt lat="45.17375" lon="5.93323">
        <ele>1896.1999511719</ele>
        <time>2016-04-10T10:58:54.000Z</time>
      </trkpt>
      <trkpt lat="45.17382" lon="5.93304">
        <ele>1895.4000244141</ele>
        <time>2016-04-10T10:58:57.000Z</time>
      </trkpt>
      <trkpt lat="45.17385" lon="5.93275">
        <ele>1893.8000488281</ele>
        <time>2016-04-10T10:59:00.000Z</time>
      </trkpt>
      <trkpt lat="45.17385" lon="5.93266">
        <ele>1892.5999755859</ele>
        <time>2016-04-10T10:59:01.000Z</time>
      </trkpt>
      <trkpt lat="45.17385" lon="5.93257">
        <ele>1891.4000244141</ele>
        <time>2016-04-10T10:59:02.000Z</time>
      </trkpt>
      <trkpt lat="45.17385" lon="5.93244">
        <ele>1890</ele>
        <time>2016-04-10T10:59:04.000Z</time>
      </trkpt>
      <trkpt lat="45.17384" lon="5.93239">
        <ele>1889.4000244141</ele>
        <time>2016-04-10T10:59:05.000Z</time>
      </trkpt>
      <trkpt lat="45.17384" lon="5.9323">
        <ele>1888.8000488281</ele>
        <time>2016-04-10T10:59:08.000Z</time>
      </trkpt>
      <trkpt lat="45.17384" lon="5.93227">
        <ele>1888.8000488281</ele>
        <time>2016-04-10T10:59:09.000Z</time>
      </trkpt>
      <trkpt lat="45.17382" lon="5.9322">
        <ele>1890</ele>
        <time>2016-04-10T10:59:13.000Z</time>
      </trkpt>
      <trkpt lat="45.17379" lon="5.93211">
        <ele>1891</ele>
        <time>2016-04-10T10:59:19.000Z</time>
      </trkpt>
      <trkpt lat="45.17379" lon="5.93203">
        <ele>1891.1999511719</ele>
        <time>2016-04-10T10:59:24.000Z</time>
      </trkpt>
      <trkpt lat="45.17378" lon="5.93199">
        <ele>1891.1999511719</ele>
        <time>2016-04-10T10:59:25.000Z</time>
      </trkpt>
      <trkpt lat="45.17379" lon="5.93193">
        <ele>1891.1999511719</ele>
        <time>2016-04-10T10:59:26.000Z</time>
      </trkpt>
      <trkpt lat="45.17379" lon="5.93186">
        <ele>1891.1999511719</ele>
        <time>2016-04-10T10:59:28.000Z</time>
      </trkpt>
      <trkpt lat="45.17377" lon="5.93179">
        <ele>1890.4000244141</ele>
        <time>2016-04-10T10:59:31.000Z</time>
      </trkpt>
      <trkpt lat="45.17375" lon="5.93177">
        <ele>1890.1999511719</ele>
        <time>2016-04-10T10:59:32.000Z</time>
      </trkpt>
      <trkpt lat="45.17373" lon="5.93175">
        <ele>1890.1999511719</ele>
        <time>2016-04-10T10:59:33.000Z</time>
      </trkpt>
      <trkpt lat="45.17366" lon="5.93166">
        <ele>1889.1999511719</ele>
        <time>2016-04-10T10:59:38.000Z</time>
      </trkpt>
      <trkpt lat="45.17363" lon="5.93161">
        <ele>1889.8000488281</ele>
        <time>2016-04-10T10:59:43.000Z</time>
      </trkpt>
      <trkpt lat="45.17359" lon="5.93155">
        <ele>1890.1999511719</ele>
        <time>2016-04-10T10:59:48.000Z</time>
      </trkpt>
      <trkpt lat="45.17357" lon="5.93145">
        <ele>1890.1999511719</ele>
        <time>2016-04-10T10:59:53.000Z</time>
      </trkpt>
      <trkpt lat="45.17352" lon="5.93133">
        <ele>1890.4000244141</ele>
        <time>2016-04-10T10:59:58.000Z</time>
      </trkpt>
      <trkpt lat="45.17348" lon="5.93124">
        <ele>1890.4000244141</ele>
        <time>2016-04-10T11:00:02.000Z</time>
      </trkpt>
      <trkpt lat="45.17348" lon="5.93124">
        <ele>1891</ele>
        <time>2016-04-10T11:00:08.000Z</time>
      </trkpt>
      <trkpt lat="45.17343" lon="5.93119">
        <ele>1891</ele>
        <time>2016-04-10T11:00:14.000Z</time>
      </trkpt>
      <trkpt lat="45.17339" lon="5.9311">
        <ele>1890.8000488281</ele>
        <time>2016-04-10T11:00:20.000Z</time>
      </trkpt>
      <trkpt lat="45.17339" lon="5.93107">
        <ele>1890.5999755859</ele>
        <time>2016-04-10T11:00:21.000Z</time>
      </trkpt>
      <trkpt lat="45.17341" lon="5.93102">
        <ele>1890.4000244141</ele>
        <time>2016-04-10T11:00:23.000Z</time>
      </trkpt>
      <trkpt lat="45.17347" lon="5.93097">
        <ele>1889.1999511719</ele>
        <time>2016-04-10T11:00:25.000Z</time>
      </trkpt>
      <trkpt lat="45.17349" lon="5.93093">
        <ele>1888.5999755859</ele>
        <time>2016-04-10T11:00:26.000Z</time>
      </trkpt>
      <trkpt lat="45.1735" lon="5.93088">
        <ele>1887.5999755859</ele>
        <time>2016-04-10T11:00:27.000Z</time>
      </trkpt>
      <trkpt lat="45.1735" lon="5.93083">
        <ele>1886.4000244141</ele>
        <time>2016-04-10T11:00:28.000Z</time>
      </trkpt>
      <trkpt lat="45.17348" lon="5.93078">
        <ele>1884.5999755859</ele>
        <time>2016-04-10T11:00:29.000Z</time>
      </trkpt>
      <trkpt lat="45.17346" lon="5.93073">
        <ele>1882.5999755859</ele>
        <time>2016-04-10T11:00:30.000Z</time>
      </trkpt>
      <trkpt lat="45.17344" lon="5.93068">
        <ele>1880.5999755859</ele>
        <time>2016-04-10T11:00:31.000Z</time>
      </trkpt>
      <trkpt lat="45.17343" lon="5.93064">
        <ele>1879.1999511719</ele>
        <time>2016-04-10T11:00:32.000Z</time>
      </trkpt>
      <trkpt lat="45.17342" lon="5.93061">
        <ele>1878</ele>
        <time>2016-04-10T11:00:33.000Z</time>
      </trkpt>
      <trkpt lat="45.17342" lon="5.93056">
        <ele>1877</ele>
        <time>2016-04-10T11:00:34.000Z</time>
      </trkpt>
      <trkpt lat="45.17342" lon="5.9305">
        <ele>1875.8000488281</ele>
        <time>2016-04-10T11:00:35.000Z</time>
      </trkpt>
      <trkpt lat="45.1734" lon="5.93045">
        <ele>1874.5999755859</ele>
        <time>2016-04-10T11:00:36.000Z</time>
      </trkpt>
      <trkpt lat="45.1734" lon="5.9304">
        <ele>1873.5999755859</ele>
        <time>2016-04-10T11:00:37.000Z</time>
      </trkpt>
      <trkpt lat="45.17341" lon="5.93034">
        <ele>1872.4000244141</ele>
        <time>2016-04-10T11:00:38.000Z</time>
      </trkpt>
      <trkpt lat="45.1734" lon="5.93028">
        <ele>1870.8000488281</ele>
        <time>2016-04-10T11:00:39.000Z</time>
      </trkpt>
      <trkpt lat="45.1734" lon="5.93022">
        <ele>1869.1999511719</ele>
        <time>2016-04-10T11:00:40.000Z</time>
      </trkpt>
      <trkpt lat="45.17339" lon="5.93015">
        <ele>1867.8000488281</ele>
        <time>2016-04-10T11:00:41.000Z</time>
      </trkpt>
      <trkpt lat="45.17336" lon="5.93008">
        <ele>1866.4000244141</ele>
        <time>2016-04-10T11:00:42.000Z</time>
      </trkpt>
      <trkpt lat="45.17333" lon="5.93">
        <ele>1865</ele>
        <time>2016-04-10T11:00:43.000Z</time>
      </trkpt>
      <trkpt lat="45.1733" lon="5.92993">
        <ele>1863.4000244141</ele>
        <time>2016-04-10T11:00:44.000Z</time>
      </trkpt>
      <trkpt lat="45.17328" lon="5.92987">
        <ele>1861.5999755859</ele>
        <time>2016-04-10T11:00:45.000Z</time>
      </trkpt>
      <trkpt lat="45.17325" lon="5.92981">
        <ele>1858</ele>
        <time>2016-04-10T11:00:46.000Z</time>
      </trkpt>
      <trkpt lat="45.17323" lon="5.92975">
        <ele>1856.5999755859</ele>
        <time>2016-04-10T11:00:47.000Z</time>
      </trkpt>
      <trkpt lat="45.1732" lon="5.92967">
        <ele>1855.5999755859</ele>
        <time>2016-04-10T11:00:48.000Z</time>
      </trkpt>
      <trkpt lat="45.17316" lon="5.92958">
        <ele>1854.8000488281</ele>
        <time>2016-04-10T11:00:49.000Z</time>
      </trkpt>
      <trkpt lat="45.17313" lon="5.92952">
        <ele>1853.8000488281</ele>
        <time>2016-04-10T11:00:50.000Z</time>
      </trkpt>
      <trkpt lat="45.17311" lon="5.92947">
        <ele>1852.8000488281</ele>
        <time>2016-04-10T11:00:51.000Z</time>
      </trkpt>
      <trkpt lat="45.17309" lon="5.92942">
        <ele>1851.5999755859</ele>
        <time>2016-04-10T11:00:52.000Z</time>
      </trkpt>
      <trkpt lat="45.17307" lon="5.92938">
        <ele>1850.4000244141</ele>
        <time>2016-04-10T11:00:53.000Z</time>
      </trkpt>
      <trkpt lat="45.17304" lon="5.9293">
        <ele>1848.8000488281</ele>
        <time>2016-04-10T11:00:55.000Z</time>
      </trkpt>
      <trkpt lat="45.17299" lon="5.9292">
        <ele>1848</ele>
        <time>2016-04-10T11:00:57.000Z</time>
      </trkpt>
      <trkpt lat="45.17295" lon="5.92915">
        <ele>1847.8000488281</ele>
        <time>2016-04-10T11:00:58.000Z</time>
      </trkpt>
      <trkpt lat="45.17293" lon="5.9291">
        <ele>1847.1999511719</ele>
        <time>2016-04-10T11:00:59.000Z</time>
      </trkpt>
      <trkpt lat="45.1729" lon="5.92904">
        <ele>1846.1999511719</ele>
        <time>2016-04-10T11:01:00.000Z</time>
      </trkpt>
      <trkpt lat="45.17287" lon="5.92898">
        <ele>1845.1999511719</ele>
        <time>2016-04-10T11:01:01.000Z</time>
      </trkpt>
      <trkpt lat="45.17285" lon="5.92892">
        <ele>1844</ele>
        <time>2016-04-10T11:01:02.000Z</time>
      </trkpt>
      <trkpt lat="45.17283" lon="5.92887">
        <ele>1843</ele>
        <time>2016-04-10T11:01:03.000Z</time>
      </trkpt>
      <trkpt lat="45.17282" lon="5.92882">
        <ele>1841.8000488281</ele>
        <time>2016-04-10T11:01:04.000Z</time>
      </trkpt>
      <trkpt lat="45.17283" lon="5.92877">
        <ele>1840.8000488281</ele>
        <time>2016-04-10T11:01:05.000Z</time>
      </trkpt>
      <trkpt lat="45.17283" lon="5.92873">
        <ele>1839.5999755859</ele>
        <time>2016-04-10T11:01:06.000Z</time>
      </trkpt>
      <trkpt lat="45.17285" lon="5.92862">
        <ele>1838</ele>
        <time>2016-04-10T11:01:08.000Z</time>
      </trkpt>
      <trkpt lat="45.17285" lon="5.92857">
        <ele>1837</ele>
        <time>2016-04-10T11:01:09.000Z</time>
      </trkpt>
      <trkpt lat="45.17284" lon="5.9285">
        <ele>1833.8000488281</ele>
        <time>2016-04-10T11:01:10.000Z</time>
      </trkpt>
      <trkpt lat="45.17283" lon="5.92844">
        <ele>1832</ele>
        <time>2016-04-10T11:01:11.000Z</time>
      </trkpt>
      <trkpt lat="45.17281" lon="5.92837">
        <ele>1830.4000244141</ele>
        <time>2016-04-10T11:01:12.000Z</time>
      </trkpt>
      <trkpt lat="45.17278" lon="5.92831">
        <ele>1829</ele>
        <time>2016-04-10T11:01:13.000Z</time>
      </trkpt>
      <trkpt lat="45.17275" lon="5.92825">
        <ele>1827.5999755859</ele>
        <time>2016-04-10T11:01:14.000Z</time>
      </trkpt>
      <trkpt lat="45.17274" lon="5.92818">
        <ele>1826</ele>
        <time>2016-04-10T11:01:15.000Z</time>
      </trkpt>
      <trkpt lat="45.17274" lon="5.92813">
        <ele>1824.1999511719</ele>
        <time>2016-04-10T11:01:16.000Z</time>
      </trkpt>
      <trkpt lat="45.17274" lon="5.92808">
        <ele>1822.8000488281</ele>
        <time>2016-04-10T11:01:17.000Z</time>
      </trkpt>
      <trkpt lat="45.17274" lon="5.92805">
        <ele>1821.5999755859</ele>
        <time>2016-04-10T11:01:18.000Z</time>
      </trkpt>
      <trkpt lat="45.17275" lon="5.92804">
        <ele>1820.4000244141</ele>
        <time>2016-04-10T11:01:19.000Z</time>
      </trkpt>
      <trkpt lat="45.17277" lon="5.92802">
        <ele>1819.4000244141</ele>
        <time>2016-04-10T11:01:20.000Z</time>
      </trkpt>
      <trkpt lat="45.17278" lon="5.928">
        <ele>1818.8000488281</ele>
        <time>2016-04-10T11:01:21.000Z</time>
      </trkpt>
      <trkpt lat="45.17282" lon="5.92796">
        <ele>1817.1999511719</ele>
        <time>2016-04-10T11:01:23.000Z</time>
      </trkpt>
      <trkpt lat="45.17285" lon="5.92795">
        <ele>1815.8000488281</ele>
        <time>2016-04-10T11:01:24.000Z</time>
      </trkpt>
      <trkpt lat="45.17288" lon="5.92793">
        <ele>1814</ele>
        <time>2016-04-10T11:01:25.000Z</time>
      </trkpt>
      <trkpt lat="45.17291" lon="5.92788">
        <ele>1812.4000244141</ele>
        <time>2016-04-10T11:01:26.000Z</time>
      </trkpt>
      <trkpt lat="45.17292" lon="5.92782">
        <ele>1811.4000244141</ele>
        <time>2016-04-10T11:01:27.000Z</time>
      </trkpt>
      <trkpt lat="45.17296" lon="5.92777">
        <ele>1809.1999511719</ele>
        <time>2016-04-10T11:01:29.000Z</time>
      </trkpt>
      <trkpt lat="45.17298" lon="5.92776">
        <ele>1807.5999755859</ele>
        <time>2016-04-10T11:01:30.000Z</time>
      </trkpt>
      <trkpt lat="45.17299" lon="5.92774">
        <ele>1806</ele>
        <time>2016-04-10T11:01:31.000Z</time>
      </trkpt>
      <trkpt lat="45.173" lon="5.92771">
        <ele>1804.5999755859</ele>
        <time>2016-04-10T11:01:32.000Z</time>
      </trkpt>
      <trkpt lat="45.17302" lon="5.92769">
        <ele>1803.5999755859</ele>
        <time>2016-04-10T11:01:33.000Z</time>
      </trkpt>
      <trkpt lat="45.17305" lon="5.92769">
        <ele>1802</ele>
        <time>2016-04-10T11:01:34.000Z</time>
      </trkpt>
      <trkpt lat="45.17308" lon="5.92768">
        <ele>1800.8000488281</ele>
        <time>2016-04-10T11:01:35.000Z</time>
      </trkpt>
      <trkpt lat="45.1731" lon="5.92764">
        <ele>1799.8000488281</ele>
        <time>2016-04-10T11:01:36.000Z</time>
      </trkpt>
      <trkpt lat="45.17312" lon="5.92761">
        <ele>1798.5999755859</ele>
        <time>2016-04-10T11:01:37.000Z</time>
      </trkpt>
      <trkpt lat="45.17312" lon="5.92759">
        <ele>1797.1999511719</ele>
        <time>2016-04-10T11:01:38.000Z</time>
      </trkpt>
      <trkpt lat="45.17313" lon="5.92758">
        <ele>1795.8000488281</ele>
        <time>2016-04-10T11:01:39.000Z</time>
      </trkpt>
      <trkpt lat="45.17313" lon="5.92757">
        <ele>1794.4000244141</ele>
        <time>2016-04-10T11:01:40.000Z</time>
      </trkpt>
      <trkpt lat="45.17314" lon="5.92755">
        <ele>1793.5999755859</ele>
        <time>2016-04-10T11:01:41.000Z</time>
      </trkpt>
      <trkpt lat="45.17315" lon="5.92749">
        <ele>1793.1999511719</ele>
        <time>2016-04-10T11:01:42.000Z</time>
      </trkpt>
      <trkpt lat="45.17316" lon="5.92742">
        <ele>1793</ele>
        <time>2016-04-10T11:01:43.000Z</time>
      </trkpt>
      <trkpt lat="45.17316" lon="5.92729">
        <ele>1792.4000244141</ele>
        <time>2016-04-10T11:01:45.000Z</time>
      </trkpt>
      <trkpt lat="45.17316" lon="5.92724">
        <ele>1791.8000488281</ele>
        <time>2016-04-10T11:01:46.000Z</time>
      </trkpt>
      <trkpt lat="45.17321" lon="5.92714">
        <ele>1790</ele>
        <time>2016-04-10T11:01:48.000Z</time>
      </trkpt>
      <trkpt lat="45.17323" lon="5.92707">
        <ele>1789.1999511719</ele>
        <time>2016-04-10T11:01:49.000Z</time>
      </trkpt>
      <trkpt lat="45.17323" lon="5.92701">
        <ele>1788.5999755859</ele>
        <time>2016-04-10T11:01:50.000Z</time>
      </trkpt>
      <trkpt lat="45.17322" lon="5.92697">
        <ele>1788</ele>
        <time>2016-04-10T11:01:51.000Z</time>
      </trkpt>
      <trkpt lat="45.1732" lon="5.92694">
        <ele>1787</ele>
        <time>2016-04-10T11:01:52.000Z</time>
      </trkpt>
      <trkpt lat="45.17316" lon="5.92692">
        <ele>1785.5999755859</ele>
        <time>2016-04-10T11:01:53.000Z</time>
      </trkpt>
      <trkpt lat="45.17312" lon="5.9269">
        <ele>1784.4000244141</ele>
        <time>2016-04-10T11:01:54.000Z</time>
      </trkpt>
      <trkpt lat="45.17306" lon="5.92687">
        <ele>1783.4000244141</ele>
        <time>2016-04-10T11:01:55.000Z</time>
      </trkpt>
      <trkpt lat="45.17301" lon="5.92684">
        <ele>1782.4000244141</ele>
        <time>2016-04-10T11:01:56.000Z</time>
      </trkpt>
      <trkpt lat="45.17296" lon="5.9268">
        <ele>1781.4000244141</ele>
        <time>2016-04-10T11:01:57.000Z</time>
      </trkpt>
      <trkpt lat="45.17292" lon="5.92676">
        <ele>1780</ele>
        <time>2016-04-10T11:01:58.000Z</time>
      </trkpt>
      <trkpt lat="45.17288" lon="5.92671">
        <ele>1777.4000244141</ele>
        <time>2016-04-10T11:01:59.000Z</time>
      </trkpt>
      <trkpt lat="45.17285" lon="5.92666">
        <ele>1776.1999511719</ele>
        <time>2016-04-10T11:02:00.000Z</time>
      </trkpt>
      <trkpt lat="45.17284" lon="5.92662">
        <ele>1775</ele>
        <time>2016-04-10T11:02:01.000Z</time>
      </trkpt>
      <trkpt lat="45.17284" lon="5.92658">
        <ele>1773.5999755859</ele>
        <time>2016-04-10T11:02:02.000Z</time>
      </trkpt>
      <trkpt lat="45.17286" lon="5.92655">
        <ele>1772.4000244141</ele>
        <time>2016-04-10T11:02:03.000Z</time>
      </trkpt>
      <trkpt lat="45.17288" lon="5.92652">
        <ele>1771.1999511719</ele>
        <time>2016-04-10T11:02:04.000Z</time>
      </trkpt>
      <trkpt lat="45.17292" lon="5.9265">
        <ele>1769.8000488281</ele>
        <time>2016-04-10T11:02:05.000Z</time>
      </trkpt>
      <trkpt lat="45.17297" lon="5.9265">
        <ele>1768.5999755859</ele>
        <time>2016-04-10T11:02:06.000Z</time>
      </trkpt>
      <trkpt lat="45.17307" lon="5.92645">
        <ele>1766.8000488281</ele>
        <time>2016-04-10T11:02:08.000Z</time>
      </trkpt>
      <trkpt lat="45.17312" lon="5.92643">
        <ele>1765.8000488281</ele>
        <time>2016-04-10T11:02:09.000Z</time>
      </trkpt>
      <trkpt lat="45.17316" lon="5.92641">
        <ele>1764.4000244141</ele>
        <time>2016-04-10T11:02:10.000Z</time>
      </trkpt>
      <trkpt lat="45.1732" lon="5.92638">
        <ele>1763</ele>
        <time>2016-04-10T11:02:11.000Z</time>
      </trkpt>
      <trkpt lat="45.17324" lon="5.92636">
        <ele>1761.8000488281</ele>
        <time>2016-04-10T11:02:12.000Z</time>
      </trkpt>
      <trkpt lat="45.17328" lon="5.92633">
        <ele>1761.1999511719</ele>
        <time>2016-04-10T11:02:13.000Z</time>
      </trkpt>
      <trkpt lat="45.17333" lon="5.9263">
        <ele>1760.4000244141</ele>
        <time>2016-04-10T11:02:14.000Z</time>
      </trkpt>
      <trkpt lat="45.17337" lon="5.92625">
        <ele>1759.5999755859</ele>
        <time>2016-04-10T11:02:15.000Z</time>
      </trkpt>
      <trkpt lat="45.17342" lon="5.92621">
        <ele>1758.8000488281</ele>
        <time>2016-04-10T11:02:16.000Z</time>
      </trkpt>
      <trkpt lat="45.17345" lon="5.92616">
        <ele>1758</ele>
        <time>2016-04-10T11:02:17.000Z</time>
      </trkpt>
      <trkpt lat="45.17349" lon="5.92612">
        <ele>1757</ele>
        <time>2016-04-10T11:02:18.000Z</time>
      </trkpt>
      <trkpt lat="45.17353" lon="5.92607">
        <ele>1755.8000488281</ele>
        <time>2016-04-10T11:02:19.000Z</time>
      </trkpt>
      <trkpt lat="45.17358" lon="5.92602">
        <ele>1754.8000488281</ele>
        <time>2016-04-10T11:02:20.000Z</time>
      </trkpt>
      <trkpt lat="45.17366" lon="5.92592">
        <ele>1752.8000488281</ele>
        <time>2016-04-10T11:02:22.000Z</time>
      </trkpt>
      <trkpt lat="45.17369" lon="5.92587">
        <ele>1750.5999755859</ele>
        <time>2016-04-10T11:02:23.000Z</time>
      </trkpt>
      <trkpt lat="45.17371" lon="5.92582">
        <ele>1749.5999755859</ele>
        <time>2016-04-10T11:02:24.000Z</time>
      </trkpt>
      <trkpt lat="45.17371" lon="5.92577">
        <ele>1748.5999755859</ele>
        <time>2016-04-10T11:02:25.000Z</time>
      </trkpt>
      <trkpt lat="45.17373" lon="5.92571">
        <ele>1747.8000488281</ele>
        <time>2016-04-10T11:02:26.000Z</time>
      </trkpt>
      <trkpt lat="45.17376" lon="5.92566">
        <ele>1746.5999755859</ele>
        <time>2016-04-10T11:02:27.000Z</time>
      </trkpt>
      <trkpt lat="45.17378" lon="5.92561">
        <ele>1745.1999511719</ele>
        <time>2016-04-10T11:02:28.000Z</time>
      </trkpt>
      <trkpt lat="45.1738" lon="5.92555">
        <ele>1743.8000488281</ele>
        <time>2016-04-10T11:02:29.000Z</time>
      </trkpt>
      <trkpt lat="45.17384" lon="5.92549">
        <ele>1742.5999755859</ele>
        <time>2016-04-10T11:02:30.000Z</time>
      </trkpt>
      <trkpt lat="45.17386" lon="5.92537">
        <ele>1740.5999755859</ele>
        <time>2016-04-10T11:02:32.000Z</time>
      </trkpt>
      <trkpt lat="45.17385" lon="5.92529">
        <ele>1739.5999755859</ele>
        <time>2016-04-10T11:02:33.000Z</time>
      </trkpt>
      <trkpt lat="45.17385" lon="5.92521">
        <ele>1738.4000244141</ele>
        <time>2016-04-10T11:02:34.000Z</time>
      </trkpt>
      <trkpt lat="45.17385" lon="5.92513">
        <ele>1737</ele>
        <time>2016-04-10T11:02:35.000Z</time>
      </trkpt>
      <trkpt lat="45.17387" lon="5.92505">
        <ele>1735.4000244141</ele>
        <time>2016-04-10T11:02:36.000Z</time>
      </trkpt>
      <trkpt lat="45.17388" lon="5.92497">
        <ele>1734.1999511719</ele>
        <time>2016-04-10T11:02:37.000Z</time>
      </trkpt>
      <trkpt lat="45.17392" lon="5.92487">
        <ele>1732.5999755859</ele>
        <time>2016-04-10T11:02:39.000Z</time>
      </trkpt>
      <trkpt lat="45.17395" lon="5.92485">
        <ele>1731.8000488281</ele>
        <time>2016-04-10T11:02:40.000Z</time>
      </trkpt>
      <trkpt lat="45.17396" lon="5.92479">
        <ele>1730.8000488281</ele>
        <time>2016-04-10T11:02:41.000Z</time>
      </trkpt>
      <trkpt lat="45.17402" lon="5.92472">
        <ele>1729.4000244141</ele>
        <time>2016-04-10T11:02:43.000Z</time>
      </trkpt>
      <trkpt lat="45.17405" lon="5.92469">
        <ele>1728.4000244141</ele>
        <time>2016-04-10T11:02:44.000Z</time>
      </trkpt>
      <trkpt lat="45.17408" lon="5.92466">
        <ele>1727.1999511719</ele>
        <time>2016-04-10T11:02:45.000Z</time>
      </trkpt>
      <trkpt lat="45.17411" lon="5.92463">
        <ele>1726.1999511719</ele>
        <time>2016-04-10T11:02:46.000Z</time>
      </trkpt>
      <trkpt lat="45.17415" lon="5.9246">
        <ele>1724.5999755859</ele>
        <time>2016-04-10T11:02:47.000Z</time>
      </trkpt>
      <trkpt lat="45.17423" lon="5.9246">
        <ele>1723</ele>
        <time>2016-04-10T11:02:49.000Z</time>
      </trkpt>
      <trkpt lat="45.17425" lon="5.92455">
        <ele>1721</ele>
        <time>2016-04-10T11:02:51.000Z</time>
      </trkpt>
      <trkpt lat="45.17427" lon="5.92453">
        <ele>1719.8000488281</ele>
        <time>2016-04-10T11:02:52.000Z</time>
      </trkpt>
      <trkpt lat="45.17427" lon="5.9245">
        <ele>1718.5999755859</ele>
        <time>2016-04-10T11:02:53.000Z</time>
      </trkpt>
      <trkpt lat="45.17426" lon="5.92445">
        <ele>1717.4000244141</ele>
        <time>2016-04-10T11:02:55.000Z</time>
      </trkpt>
      <trkpt lat="45.17433" lon="5.92431">
        <ele>1716</ele>
        <time>2016-04-10T11:02:58.000Z</time>
      </trkpt>
      <trkpt lat="45.17441" lon="5.92427">
        <ele>1715</ele>
        <time>2016-04-10T11:03:00.000Z</time>
      </trkpt>
      <trkpt lat="45.17446" lon="5.92427">
        <ele>1714.4000244141</ele>
        <time>2016-04-10T11:03:01.000Z</time>
      </trkpt>
      <trkpt lat="45.17454" lon="5.92423">
        <ele>1712.1999511719</ele>
        <time>2016-04-10T11:03:03.000Z</time>
      </trkpt>
      <trkpt lat="45.17457" lon="5.92421">
        <ele>1711.1999511719</ele>
        <time>2016-04-10T11:03:04.000Z</time>
      </trkpt>
      <trkpt lat="45.17463" lon="5.92423">
        <ele>1709.4000244141</ele>
        <time>2016-04-10T11:03:06.000Z</time>
      </trkpt>
      <trkpt lat="45.17467" lon="5.92424">
        <ele>1708.5999755859</ele>
        <time>2016-04-10T11:03:07.000Z</time>
      </trkpt>
      <trkpt lat="45.1747" lon="5.92423">
        <ele>1707.8000488281</ele>
        <time>2016-04-10T11:03:08.000Z</time>
      </trkpt>
      <trkpt lat="45.17476" lon="5.92423">
        <ele>1706</ele>
        <time>2016-04-10T11:03:11.000Z</time>
      </trkpt>
      <trkpt lat="45.1748" lon="5.92425">
        <ele>1706</ele>
        <time>2016-04-10T11:03:16.000Z</time>
      </trkpt>
      <trkpt lat="45.1748" lon="5.92423">
        <ele>1705.8000488281</ele>
        <time>2016-04-10T11:03:21.000Z</time>
      </trkpt>
      <trkpt lat="45.1748" lon="5.92419">
        <ele>1705.8000488281</ele>
        <time>2016-04-10T11:03:24.000Z</time>
      </trkpt>
      <trkpt lat="45.17484" lon="5.92416">
        <ele>1705.4000244141</ele>
        <time>2016-04-10T11:03:27.000Z</time>
      </trkpt>
      <trkpt lat="45.1749" lon="5.9241">
        <ele>1705</ele>
        <time>2016-04-10T11:03:29.000Z</time>
      </trkpt>
      <trkpt lat="45.17494" lon="5.92406">
        <ele>1704.5999755859</ele>
        <time>2016-04-10T11:03:30.000Z</time>
      </trkpt>
      <trkpt lat="45.17499" lon="5.92396">
        <ele>1703.5999755859</ele>
        <time>2016-04-10T11:03:32.000Z</time>
      </trkpt>
      <trkpt lat="45.17503" lon="5.9239">
        <ele>1701.5999755859</ele>
        <time>2016-04-10T11:03:35.000Z</time>
      </trkpt>
      <trkpt lat="45.17506" lon="5.92388">
        <ele>1700</ele>
        <time>2016-04-10T11:03:36.000Z</time>
      </trkpt>
      <trkpt lat="45.17511" lon="5.92385">
        <ele>1699.1999511719</ele>
        <time>2016-04-10T11:03:38.000Z</time>
      </trkpt>
      <trkpt lat="45.17514" lon="5.92384">
        <ele>1699</ele>
        <time>2016-04-10T11:03:39.000Z</time>
      </trkpt>
      <trkpt lat="45.17516" lon="5.92384">
        <ele>1698.5999755859</ele>
        <time>2016-04-10T11:03:40.000Z</time>
      </trkpt>
      <trkpt lat="45.17518" lon="5.92384">
        <ele>1697.8000488281</ele>
        <time>2016-04-10T11:03:42.000Z</time>
      </trkpt>
      <trkpt lat="45.17523" lon="5.92385">
        <ele>1697</ele>
        <time>2016-04-10T11:03:46.000Z</time>
      </trkpt>
      <trkpt lat="45.17524" lon="5.92385">
        <ele>1696.5999755859</ele>
        <time>2016-04-10T11:03:47.000Z</time>
      </trkpt>
      <trkpt lat="45.17527" lon="5.92385">
        <ele>1695.5999755859</ele>
        <time>2016-04-10T11:03:50.000Z</time>
      </trkpt>
      <trkpt lat="45.17529" lon="5.92385">
        <ele>1695.4000244141</ele>
        <time>2016-04-10T11:03:52.000Z</time>
      </trkpt>
      <trkpt lat="45.17538" lon="5.92386">
        <ele>1695.8000488281</ele>
        <time>2016-04-10T11:04:00.000Z</time>
      </trkpt>
      <trkpt lat="45.17545" lon="5.92384">
        <ele>1695.8000488281</ele>
        <time>2016-04-10T11:04:07.000Z</time>
      </trkpt>
      <trkpt lat="45.17554" lon="5.92382">
        <ele>1695.8000488281</ele>
        <time>2016-04-10T11:04:13.000Z</time>
      </trkpt>
      <trkpt lat="45.17557" lon="5.92379">
        <ele>1695</ele>
        <time>2016-04-10T11:04:20.000Z</time>
      </trkpt>
      <trkpt lat="45.1755" lon="5.92375">
        <ele>1694.8000488281</ele>
        <time>2016-04-10T11:04:30.000Z</time>
      </trkpt>
      <trkpt lat="45.17549" lon="5.92371">
        <ele>1694.5999755859</ele>
        <time>2016-04-10T11:04:36.000Z</time>
      </trkpt>
      <trkpt lat="45.17549" lon="5.92366">
        <ele>1694.8000488281</ele>
        <time>2016-04-10T11:04:42.000Z</time>
      </trkpt>
      <trkpt lat="45.17548" lon="5.92358">
        <ele>1694.5999755859</ele>
        <time>2016-04-10T11:04:47.000Z</time>
      </trkpt>
      <trkpt lat="45.17544" lon="5.92349">
        <ele>1694.5999755859</ele>
        <time>2016-04-10T11:04:53.000Z</time>
      </trkpt>
      <trkpt lat="45.17542" lon="5.92346">
        <ele>1695</ele>
        <time>2016-04-10T11:04:55.000Z</time>
      </trkpt>
      <trkpt lat="45.1754" lon="5.92344">
        <ele>1695</ele>
        <time>2016-04-10T11:04:58.000Z</time>
      </trkpt>
      <trkpt lat="45.17537" lon="5.92337">
        <ele>1695.4000244141</ele>
        <time>2016-04-10T11:05:04.000Z</time>
      </trkpt>
      <trkpt lat="45.17532" lon="5.92327">
        <ele>1695.1999511719</ele>
        <time>2016-04-10T11:05:10.000Z</time>
      </trkpt>
      <trkpt lat="45.17524" lon="5.92318">
        <ele>1695</ele>
        <time>2016-04-10T11:05:16.000Z</time>
      </trkpt>
      <trkpt lat="45.1752" lon="5.92309">
        <ele>1694.4000244141</ele>
        <time>2016-04-10T11:05:22.000Z</time>
      </trkpt>
      <trkpt lat="45.1752" lon="5.92308">
        <ele>1694.1999511719</ele>
        <time>2016-04-10T11:05:23.000Z</time>
      </trkpt>
      <trkpt lat="45.17521" lon="5.92302">
        <ele>1694.4000244141</ele>
        <time>2016-04-10T11:05:29.000Z</time>
      </trkpt>
      <trkpt lat="45.17521" lon="5.92299">
        <ele>1694.5999755859</ele>
        <time>2016-04-10T11:05:30.000Z</time>
      </trkpt>
      <trkpt lat="45.17524" lon="5.92291">
        <ele>1694.5999755859</ele>
        <time>2016-04-10T11:05:33.000Z</time>
      </trkpt>
      <trkpt lat="45.17528" lon="5.92282">
        <ele>1694.5999755859</ele>
        <time>2016-04-10T11:05:37.000Z</time>
      </trkpt>
      <trkpt lat="45.17531" lon="5.92276">
        <ele>1695</ele>
        <time>2016-04-10T11:05:42.000Z</time>
      </trkpt>
      <trkpt lat="45.17532" lon="5.92274">
        <ele>1695</ele>
        <time>2016-04-10T11:05:48.000Z</time>
      </trkpt>
      <trkpt lat="45.17533" lon="5.92272">
        <ele>1695</ele>
        <time>2016-04-10T11:05:49.000Z</time>
      </trkpt>
      <trkpt lat="45.17536" lon="5.92264">
        <ele>1695</ele>
        <time>2016-04-10T11:05:52.000Z</time>
      </trkpt>
      <trkpt lat="45.17536" lon="5.92261">
        <ele>1695</ele>
        <time>2016-04-10T11:05:53.000Z</time>
      </trkpt>
      <trkpt lat="45.17542" lon="5.92242">
        <ele>1694.4000244141</ele>
        <time>2016-04-10T11:05:58.000Z</time>
      </trkpt>
      <trkpt lat="45.17549" lon="5.92224">
        <ele>1693.4000244141</ele>
        <time>2016-04-10T11:06:02.000Z</time>
      </trkpt>
      <trkpt lat="45.17553" lon="5.92215">
        <ele>1692.8000488281</ele>
        <time>2016-04-10T11:06:05.000Z</time>
      </trkpt>
      <trkpt lat="45.17563" lon="5.92204">
        <ele>1692.1999511719</ele>
        <time>2016-04-10T11:06:10.000Z</time>
      </trkpt>
      <trkpt lat="45.17577" lon="5.92181">
        <ele>1691.1999511719</ele>
        <time>2016-04-10T11:06:16.000Z</time>
      </trkpt>
      <trkpt lat="45.17585" lon="5.92168">
        <ele>1690.1999511719</ele>
        <time>2016-04-10T11:06:19.000Z</time>
      </trkpt>
      <trkpt lat="45.17595" lon="5.92161">
        <ele>1689.1999511719</ele>
        <time>2016-04-10T11:06:22.000Z</time>
      </trkpt>
      <trkpt lat="45.17596" lon="5.92162">
        <ele>1689.1999511719</ele>
        <time>2016-04-10T11:06:23.000Z</time>
      </trkpt>
      <trkpt lat="45.17597" lon="5.92162">
        <ele>1689</ele>
        <time>2016-04-10T11:06:24.000Z</time>
      </trkpt>
      <trkpt lat="45.17599" lon="5.92162">
        <ele>1689</ele>
        <time>2016-04-10T11:06:25.000Z</time>
      </trkpt>
      <trkpt lat="45.17612" lon="5.92167">
        <ele>1688.4000244141</ele>
        <time>2016-04-10T11:06:36.000Z</time>
      </trkpt>
      <trkpt lat="45.17621" lon="5.92166">
        <ele>1689</ele>
        <time>2016-04-10T11:06:47.000Z</time>
      </trkpt>
      <trkpt lat="45.17625" lon="5.92167">
        <ele>1688.5999755859</ele>
        <time>2016-04-10T11:06:59.000Z</time>
      </trkpt>
      <trkpt lat="45.17622" lon="5.92168">
        <ele>1689</ele>
        <time>2016-04-10T11:07:15.000Z</time>
      </trkpt>
      <trkpt lat="45.17621" lon="5.92168">
        <ele>1688.5999755859</ele>
        <time>2016-04-10T11:07:29.000Z</time>
      </trkpt>
      <trkpt lat="45.17616" lon="5.9217">
        <ele>1688.4000244141</ele>
        <time>2016-04-10T11:07:41.000Z</time>
      </trkpt>
      <trkpt lat="45.17616" lon="5.9217">
        <ele>1688.4000244141</ele>
        <time>2016-04-10T11:07:55.000Z</time>
      </trkpt>
      <trkpt lat="45.17617" lon="5.92171">
        <ele>1688.8000488281</ele>
        <time>2016-04-10T11:08:09.000Z</time>
      </trkpt>
      <trkpt lat="45.17617" lon="5.92172">
        <ele>1688.8000488281</ele>
        <time>2016-04-10T11:08:15.000Z</time>
      </trkpt>
      <trkpt lat="45.17617" lon="5.92172">
        <ele>1688.8000488281</ele>
        <time>2016-04-10T11:08:18.000Z</time>
      </trkpt>
      <trkpt lat="45.17617" lon="5.92172">
        <ele>1688.5999755859</ele>
        <time>2016-04-10T11:08:31.000Z</time>
      </trkpt>
      <trkpt lat="45.17608" lon="5.9217">
        <ele>1688.5999755859</ele>
        <time>2016-04-10T11:08:41.000Z</time>
      </trkpt>
      <trkpt lat="45.17607" lon="5.92171">
        <ele>1688.5999755859</ele>
        <time>2016-04-10T11:08:50.000Z</time>
      </trkpt>
      <trkpt lat="45.17607" lon="5.92171">
        <ele>1688.5999755859</ele>
        <time>2016-04-10T11:09:01.000Z</time>
      </trkpt>
      <trkpt lat="45.17607" lon="5.92171">
        <ele>1688.5999755859</ele>
        <time>2016-04-10T11:09:10.000Z</time>
      </trkpt>
      <trkpt lat="45.17607" lon="5.92171">
        <ele>1688.4000244141</ele>
        <time>2016-04-10T11:09:25.000Z</time>
      </trkpt>
      <trkpt lat="45.17607" lon="5.92171">
        <ele>1688.4000244141</ele>
        <time>2016-04-10T11:09:35.000Z</time>
      </trkpt>
      <trkpt lat="45.17606" lon="5.92172">
        <ele>1688.1999511719</ele>
        <time>2016-04-10T11:09:49.000Z</time>
      </trkpt>
      <trkpt lat="45.17606" lon="5.92171">
        <ele>1688.4000244141</ele>
        <time>2016-04-10T11:10:00.000Z</time>
      </trkpt>
      <trkpt lat="45.17606" lon="5.92171">
        <ele>1688.4000244141</ele>
        <time>2016-04-10T11:10:13.000Z</time>
      </trkpt>
      <trkpt lat="45.17606" lon="5.92171">
        <ele>1687.8000488281</ele>
        <time>2016-04-10T11:10:20.000Z</time>
      </trkpt>
      <trkpt lat="45.17607" lon="5.92167">
        <ele>1687.4000244141</ele>
        <time>2016-04-10T11:10:23.000Z</time>
      </trkpt>
      <trkpt lat="45.1761" lon="5.9216">
        <ele>1687.8000488281</ele>
        <time>2016-04-10T11:10:31.000Z</time>
      </trkpt>
      <trkpt lat="45.17612" lon="5.9215">
        <ele>1687.8000488281</ele>
        <time>2016-04-10T11:10:39.000Z</time>
      </trkpt>
      <trkpt lat="45.17614" lon="5.92141">
        <ele>1687</ele>
        <time>2016-04-10T11:10:47.000Z</time>
      </trkpt>
      <trkpt lat="45.17616" lon="5.92131">
        <ele>1687</ele>
        <time>2016-04-10T11:10:56.000Z</time>
      </trkpt>
      <trkpt lat="45.17616" lon="5.92128">
        <ele>1686.8000488281</ele>
        <time>2016-04-10T11:10:58.000Z</time>
      </trkpt>
      <trkpt lat="45.17611" lon="5.92116">
        <ele>1686.8000488281</ele>
        <time>2016-04-10T11:11:05.000Z</time>
      </trkpt>
      <trkpt lat="45.17617" lon="5.921">
        <ele>1686.4000244141</ele>
        <time>2016-04-10T11:11:14.000Z</time>
      </trkpt>
      <trkpt lat="45.1762" lon="5.92092">
        <ele>1685.8000488281</ele>
        <time>2016-04-10T11:11:22.000Z</time>
      </trkpt>
      <trkpt lat="45.17619" lon="5.92091">
        <ele>1685.8000488281</ele>
        <time>2016-04-10T11:11:23.000Z</time>
      </trkpt>
      <trkpt lat="45.17628" lon="5.9208">
        <ele>1685.1999511719</ele>
        <time>2016-04-10T11:11:31.000Z</time>
      </trkpt>
      <trkpt lat="45.17635" lon="5.92075">
        <ele>1685</ele>
        <time>2016-04-10T11:11:38.000Z</time>
      </trkpt>
      <trkpt lat="45.17638" lon="5.92075">
        <ele>1684.5999755859</ele>
        <time>2016-04-10T11:11:42.000Z</time>
      </trkpt>
      <trkpt lat="45.17648" lon="5.92069">
        <ele>1684.1999511719</ele>
        <time>2016-04-10T11:11:49.000Z</time>
      </trkpt>
      <trkpt lat="45.17652" lon="5.92066">
        <ele>1683.5999755859</ele>
        <time>2016-04-10T11:11:55.000Z</time>
      </trkpt>
      <trkpt lat="45.17654" lon="5.92064">
        <ele>1683.1999511719</ele>
        <time>2016-04-10T11:11:57.000Z</time>
      </trkpt>
      <trkpt lat="45.17663" lon="5.92058">
        <ele>1682.8000488281</ele>
        <time>2016-04-10T11:12:03.000Z</time>
      </trkpt>
      <trkpt lat="45.17664" lon="5.92057">
        <ele>1682.8000488281</ele>
        <time>2016-04-10T11:12:05.000Z</time>
      </trkpt>
      <trkpt lat="45.17665" lon="5.9205">
        <ele>1682.8000488281</ele>
        <time>2016-04-10T11:12:08.000Z</time>
      </trkpt>
      <trkpt lat="45.17666" lon="5.92048">
        <ele>1682.8000488281</ele>
        <time>2016-04-10T11:12:09.000Z</time>
      </trkpt>
      <trkpt lat="45.17668" lon="5.92046">
        <ele>1682.4000244141</ele>
        <time>2016-04-10T11:12:11.000Z</time>
      </trkpt>
      <trkpt lat="45.17668" lon="5.92044">
        <ele>1682.1999511719</ele>
        <time>2016-04-10T11:12:12.000Z</time>
      </trkpt>
      <trkpt lat="45.1767" lon="5.92038">
        <ele>1681.4000244141</ele>
        <time>2016-04-10T11:12:16.000Z</time>
      </trkpt>
      <trkpt lat="45.17669" lon="5.92036">
        <ele>1681.1999511719</ele>
        <time>2016-04-10T11:12:18.000Z</time>
      </trkpt>
      <trkpt lat="45.17668" lon="5.92028">
        <ele>1681</ele>
        <time>2016-04-10T11:12:27.000Z</time>
      </trkpt>
      <trkpt lat="45.17672" lon="5.92019">
        <ele>1681.1999511719</ele>
        <time>2016-04-10T11:12:35.000Z</time>
      </trkpt>
      <trkpt lat="45.17675" lon="5.92008">
        <ele>1680.4000244141</ele>
        <time>2016-04-10T11:12:43.000Z</time>
      </trkpt>
      <trkpt lat="45.17677" lon="5.92005">
        <ele>1680.1999511719</ele>
        <time>2016-04-10T11:12:44.000Z</time>
      </trkpt>
      <trkpt lat="45.17681" lon="5.91997">
        <ele>1679.4000244141</ele>
        <time>2016-04-10T11:12:50.000Z</time>
      </trkpt>
      <trkpt lat="45.17682" lon="5.91996">
        <ele>1679.1999511719</ele>
        <time>2016-04-10T11:12:51.000Z</time>
      </trkpt>
      <trkpt lat="45.17687" lon="5.9199">
        <ele>1678.5999755859</ele>
        <time>2016-04-10T11:13:00.000Z</time>
      </trkpt>
      <trkpt lat="45.17691" lon="5.91985">
        <ele>1678.1999511719</ele>
        <time>2016-04-10T11:13:05.000Z</time>
      </trkpt>
      <trkpt lat="45.17695" lon="5.91982">
        <ele>1677.8000488281</ele>
        <time>2016-04-10T11:13:09.000Z</time>
      </trkpt>
      <trkpt lat="45.17702" lon="5.91977">
        <ele>1677.1999511719</ele>
        <time>2016-04-10T11:13:13.000Z</time>
      </trkpt>
      <trkpt lat="45.17706" lon="5.91973">
        <ele>1676.8000488281</ele>
        <time>2016-04-10T11:13:17.000Z</time>
      </trkpt>
      <trkpt lat="45.17707" lon="5.91961">
        <ele>1676.1999511719</ele>
        <time>2016-04-10T11:13:25.000Z</time>
      </trkpt>
      <trkpt lat="45.17709" lon="5.9195">
        <ele>1675.1999511719</ele>
        <time>2016-04-10T11:13:32.000Z</time>
      </trkpt>
      <trkpt lat="45.17709" lon="5.91948">
        <ele>1674.5999755859</ele>
        <time>2016-04-10T11:13:34.000Z</time>
      </trkpt>
      <trkpt lat="45.1771" lon="5.91945">
        <ele>1674</ele>
        <time>2016-04-10T11:13:36.000Z</time>
      </trkpt>
      <trkpt lat="45.17711" lon="5.91934">
        <ele>1673.1999511719</ele>
        <time>2016-04-10T11:13:41.000Z</time>
      </trkpt>
      <trkpt lat="45.17712" lon="5.91931">
        <ele>1673</ele>
        <time>2016-04-10T11:13:43.000Z</time>
      </trkpt>
      <trkpt lat="45.17714" lon="5.91924">
        <ele>1672.1999511719</ele>
        <time>2016-04-10T11:13:47.000Z</time>
      </trkpt>
      <trkpt lat="45.17713" lon="5.91922">
        <ele>1672</ele>
        <time>2016-04-10T11:13:48.000Z</time>
      </trkpt>
      <trkpt lat="45.17713" lon="5.91915">
        <ele>1671.1999511719</ele>
        <time>2016-04-10T11:13:55.000Z</time>
      </trkpt>
      <trkpt lat="45.17713" lon="5.91912">
        <ele>1671</ele>
        <time>2016-04-10T11:13:57.000Z</time>
      </trkpt>
      <trkpt lat="45.1771" lon="5.9191">
        <ele>1670.1999511719</ele>
        <time>2016-04-10T11:14:01.000Z</time>
      </trkpt>
      <trkpt lat="45.17708" lon="5.91908">
        <ele>1669.8000488281</ele>
        <time>2016-04-10T11:14:04.000Z</time>
      </trkpt>
      <trkpt lat="45.17702" lon="5.91905">
        <ele>1669.1999511719</ele>
        <time>2016-04-10T11:14:09.000Z</time>
      </trkpt>
      <trkpt lat="45.17699" lon="5.91903">
        <ele>1668.8000488281</ele>
        <time>2016-04-10T11:14:12.000Z</time>
      </trkpt>
      <trkpt lat="45.17699" lon="5.91903">
        <ele>1668.1999511719</ele>
        <time>2016-04-10T11:14:16.000Z</time>
      </trkpt>
      <trkpt lat="45.17699" lon="5.91899">
        <ele>1667.5999755859</ele>
        <time>2016-04-10T11:14:19.000Z</time>
      </trkpt>
      <trkpt lat="45.17701" lon="5.91897">
        <ele>1666.5999755859</ele>
        <time>2016-04-10T11:14:24.000Z</time>
      </trkpt>
      <trkpt lat="45.17702" lon="5.91896">
        <ele>1666.5999755859</ele>
        <time>2016-04-10T11:14:25.000Z</time>
      </trkpt>
      <trkpt lat="45.17709" lon="5.91894">
        <ele>1665.4000244141</ele>
        <time>2016-04-10T11:14:32.000Z</time>
      </trkpt>
      <trkpt lat="45.17712" lon="5.91895">
        <ele>1664.5999755859</ele>
        <time>2016-04-10T11:14:35.000Z</time>
      </trkpt>
      <trkpt lat="45.17714" lon="5.91894">
        <ele>1664.1999511719</ele>
        <time>2016-04-10T11:14:37.000Z</time>
      </trkpt>
      <trkpt lat="45.17718" lon="5.9189">
        <ele>1663.1999511719</ele>
        <time>2016-04-10T11:14:43.000Z</time>
      </trkpt>
      <trkpt lat="45.17718" lon="5.9189">
        <ele>1662.8000488281</ele>
        <time>2016-04-10T11:14:45.000Z</time>
      </trkpt>
      <trkpt lat="45.17723" lon="5.91889">
        <ele>1662</ele>
        <time>2016-04-10T11:14:48.000Z</time>
      </trkpt>
      <trkpt lat="45.17732" lon="5.91888">
        <ele>1661</ele>
        <time>2016-04-10T11:14:53.000Z</time>
      </trkpt>
      <trkpt lat="45.17733" lon="5.91887">
        <ele>1660.8000488281</ele>
        <time>2016-04-10T11:14:54.000Z</time>
      </trkpt>
      <trkpt lat="45.17735" lon="5.91883">
        <ele>1660.1999511719</ele>
        <time>2016-04-10T11:14:58.000Z</time>
      </trkpt>
      <trkpt lat="45.17735" lon="5.91882">
        <ele>1659.8000488281</ele>
        <time>2016-04-10T11:14:59.000Z</time>
      </trkpt>
      <trkpt lat="45.17736" lon="5.91876">
        <ele>1658.5999755859</ele>
        <time>2016-04-10T11:15:04.000Z</time>
      </trkpt>
      <trkpt lat="45.17739" lon="5.91875">
        <ele>1657.5999755859</ele>
        <time>2016-04-10T11:15:07.000Z</time>
      </trkpt>
      <trkpt lat="45.17739" lon="5.91874">
        <ele>1657.4000244141</ele>
        <time>2016-04-10T11:15:08.000Z</time>
      </trkpt>
      <trkpt lat="45.17742" lon="5.91872">
        <ele>1656</ele>
        <time>2016-04-10T11:15:12.000Z</time>
      </trkpt>
      <trkpt lat="45.17747" lon="5.91867">
        <ele>1654.8000488281</ele>
        <time>2016-04-10T11:15:16.000Z</time>
      </trkpt>
      <trkpt lat="45.17749" lon="5.91864">
        <ele>1653.5999755859</ele>
        <time>2016-04-10T11:15:21.000Z</time>
      </trkpt>
      <trkpt lat="45.17749" lon="5.91864">
        <ele>1653.1999511719</ele>
        <time>2016-04-10T11:15:23.000Z</time>
      </trkpt>
      <trkpt lat="45.17749" lon="5.91864">
        <ele>1652.4000244141</ele>
        <time>2016-04-10T11:15:25.000Z</time>
      </trkpt>
      <trkpt lat="45.17751" lon="5.91861">
        <ele>1651.4000244141</ele>
        <time>2016-04-10T11:15:29.000Z</time>
      </trkpt>
      <trkpt lat="45.17753" lon="5.9186">
        <ele>1650.4000244141</ele>
        <time>2016-04-10T11:15:33.000Z</time>
      </trkpt>
      <trkpt lat="45.17753" lon="5.9186">
        <ele>1649.8000488281</ele>
        <time>2016-04-10T11:15:34.000Z</time>
      </trkpt>
      <trkpt lat="45.17753" lon="5.9186">
        <ele>1649</ele>
        <time>2016-04-10T11:15:36.000Z</time>
      </trkpt>
      <trkpt lat="45.17757" lon="5.91859">
        <ele>1648.8000488281</ele>
        <time>2016-04-10T11:15:38.000Z</time>
      </trkpt>
      <trkpt lat="45.17761" lon="5.91857">
        <ele>1648</ele>
        <time>2016-04-10T11:15:40.000Z</time>
      </trkpt>
      <trkpt lat="45.17762" lon="5.91856">
        <ele>1647.5999755859</ele>
        <time>2016-04-10T11:15:41.000Z</time>
      </trkpt>
      <trkpt lat="45.17767" lon="5.91852">
        <ele>1646.4000244141</ele>
        <time>2016-04-10T11:15:45.000Z</time>
      </trkpt>
      <trkpt lat="45.17768" lon="5.91846">
        <ele>1645.5999755859</ele>
        <time>2016-04-10T11:15:48.000Z</time>
      </trkpt>
      <trkpt lat="45.17769" lon="5.91842">
        <ele>1645.4000244141</ele>
        <time>2016-04-10T11:15:50.000Z</time>
      </trkpt>
      <trkpt lat="45.17768" lon="5.91838">
        <ele>1644.1999511719</ele>
        <time>2016-04-10T11:15:54.000Z</time>
      </trkpt>
      <trkpt lat="45.17766" lon="5.91837">
        <ele>1643.8000488281</ele>
        <time>2016-04-10T11:15:56.000Z</time>
      </trkpt>
      <trkpt lat="45.17762" lon="5.91836">
        <ele>1643.1999511719</ele>
        <time>2016-04-10T11:15:59.000Z</time>
      </trkpt>
      <trkpt lat="45.17754" lon="5.91834">
        <ele>1642.1999511719</ele>
        <time>2016-04-10T11:16:05.000Z</time>
      </trkpt>
      <trkpt lat="45.17753" lon="5.91834">
        <ele>1642.1999511719</ele>
        <time>2016-04-10T11:16:06.000Z</time>
      </trkpt>
      <trkpt lat="45.17751" lon="5.91831">
        <ele>1641</ele>
        <time>2016-04-10T11:16:10.000Z</time>
      </trkpt>
      <trkpt lat="45.17754" lon="5.91828">
        <ele>1640.1999511719</ele>
        <time>2016-04-10T11:16:13.000Z</time>
      </trkpt>
      <trkpt lat="45.17755" lon="5.91827">
        <ele>1640</ele>
        <time>2016-04-10T11:16:14.000Z</time>
      </trkpt>
      <trkpt lat="45.1776" lon="5.91825">
        <ele>1639.1999511719</ele>
        <time>2016-04-10T11:16:21.000Z</time>
      </trkpt>
      <trkpt lat="45.17762" lon="5.91824">
        <ele>1638.8000488281</ele>
        <time>2016-04-10T11:16:23.000Z</time>
      </trkpt>
      <trkpt lat="45.17766" lon="5.91823">
        <ele>1637.8000488281</ele>
        <time>2016-04-10T11:16:27.000Z</time>
      </trkpt>
      <trkpt lat="45.1777" lon="5.91825">
        <ele>1636.5999755859</ele>
        <time>2016-04-10T11:16:31.000Z</time>
      </trkpt>
      <trkpt lat="45.17777" lon="5.91828">
        <ele>1635.4000244141</ele>
        <time>2016-04-10T11:16:39.000Z</time>
      </trkpt>
      <trkpt lat="45.17777" lon="5.91828">
        <ele>1634.8000488281</ele>
        <time>2016-04-10T11:16:42.000Z</time>
      </trkpt>
      <trkpt lat="45.1778" lon="5.9183">
        <ele>1634.4000244141</ele>
        <time>2016-04-10T11:16:47.000Z</time>
      </trkpt>
      <trkpt lat="45.17785" lon="5.9183">
        <ele>1633.5999755859</ele>
        <time>2016-04-10T11:16:50.000Z</time>
      </trkpt>
      <trkpt lat="45.17789" lon="5.91828">
        <ele>1633.4000244141</ele>
        <time>2016-04-10T11:16:52.000Z</time>
      </trkpt>
      <trkpt lat="45.17791" lon="5.91824">
        <ele>1632.5999755859</ele>
        <time>2016-04-10T11:16:56.000Z</time>
      </trkpt>
      <trkpt lat="45.1779" lon="5.91822">
        <ele>1632.1999511719</ele>
        <time>2016-04-10T11:16:58.000Z</time>
      </trkpt>
      <trkpt lat="45.17785" lon="5.91818">
        <ele>1631.4000244141</ele>
        <time>2016-04-10T11:17:04.000Z</time>
      </trkpt>
      <trkpt lat="45.17782" lon="5.91817">
        <ele>1631</ele>
        <time>2016-04-10T11:17:06.000Z</time>
      </trkpt>
      <trkpt lat="45.17779" lon="5.91812">
        <ele>1630</ele>
        <time>2016-04-10T11:17:11.000Z</time>
      </trkpt>
      <trkpt lat="45.17777" lon="5.9181">
        <ele>1629</ele>
        <time>2016-04-10T11:17:13.000Z</time>
      </trkpt>
      <trkpt lat="45.17777" lon="5.9181">
        <ele>1628.8000488281</ele>
        <time>2016-04-10T11:17:14.000Z</time>
      </trkpt>
      <trkpt lat="45.17773" lon="5.91806">
        <ele>1628</ele>
        <time>2016-04-10T11:17:21.000Z</time>
      </trkpt>
      <trkpt lat="45.17772" lon="5.91804">
        <ele>1627.8000488281</ele>
        <time>2016-04-10T11:17:22.000Z</time>
      </trkpt>
      <trkpt lat="45.17767" lon="5.91799">
        <ele>1626.8000488281</ele>
        <time>2016-04-10T11:17:27.000Z</time>
      </trkpt>
      <trkpt lat="45.17767" lon="5.91798">
        <ele>1626.4000244141</ele>
        <time>2016-04-10T11:17:28.000Z</time>
      </trkpt>
      <trkpt lat="45.17767" lon="5.91795">
        <ele>1625.8000488281</ele>
        <time>2016-04-10T11:17:32.000Z</time>
      </trkpt>
      <trkpt lat="45.1777" lon="5.91796">
        <ele>1625</ele>
        <time>2016-04-10T11:17:35.000Z</time>
      </trkpt>
      <trkpt lat="45.17771" lon="5.91795">
        <ele>1624.5999755859</ele>
        <time>2016-04-10T11:17:36.000Z</time>
      </trkpt>
      <trkpt lat="45.17773" lon="5.91795">
        <ele>1623.4000244141</ele>
        <time>2016-04-10T11:17:38.000Z</time>
      </trkpt>
      <trkpt lat="45.17781" lon="5.91796">
        <ele>1622.5999755859</ele>
        <time>2016-04-10T11:17:44.000Z</time>
      </trkpt>
      <trkpt lat="45.17784" lon="5.91795">
        <ele>1622.1999511719</ele>
        <time>2016-04-10T11:17:45.000Z</time>
      </trkpt>
      <trkpt lat="45.17791" lon="5.91796">
        <ele>1621.1999511719</ele>
        <time>2016-04-10T11:17:52.000Z</time>
      </trkpt>
      <trkpt lat="45.17792" lon="5.91796">
        <ele>1620.8000488281</ele>
        <time>2016-04-10T11:17:53.000Z</time>
      </trkpt>
      <trkpt lat="45.178" lon="5.91794">
        <ele>1620</ele>
        <time>2016-04-10T11:17:57.000Z</time>
      </trkpt>
      <trkpt lat="45.17804" lon="5.91795">
        <ele>1619.1999511719</ele>
        <time>2016-04-10T11:18:00.000Z</time>
      </trkpt>
      <trkpt lat="45.17805" lon="5.91795">
        <ele>1618.5999755859</ele>
        <time>2016-04-10T11:18:01.000Z</time>
      </trkpt>
      <trkpt lat="45.17808" lon="5.91794">
        <ele>1617.4000244141</ele>
        <time>2016-04-10T11:18:05.000Z</time>
      </trkpt>
      <trkpt lat="45.1781" lon="5.91792">
        <ele>1617</ele>
        <time>2016-04-10T11:18:07.000Z</time>
      </trkpt>
      <trkpt lat="45.1781" lon="5.91788">
        <ele>1616.4000244141</ele>
        <time>2016-04-10T11:18:10.000Z</time>
      </trkpt>
      <trkpt lat="45.17809" lon="5.91785">
        <ele>1615.8000488281</ele>
        <time>2016-04-10T11:18:12.000Z</time>
      </trkpt>
      <trkpt lat="45.17806" lon="5.91783">
        <ele>1615.1999511719</ele>
        <time>2016-04-10T11:18:14.000Z</time>
      </trkpt>
      <trkpt lat="45.17802" lon="5.91781">
        <ele>1614.1999511719</ele>
        <time>2016-04-10T11:18:17.000Z</time>
      </trkpt>
      <trkpt lat="45.17801" lon="5.9178">
        <ele>1613.8000488281</ele>
        <time>2016-04-10T11:18:19.000Z</time>
      </trkpt>
      <trkpt lat="45.17798" lon="5.91776">
        <ele>1613</ele>
        <time>2016-04-10T11:18:23.000Z</time>
      </trkpt>
      <trkpt lat="45.17795" lon="5.91772">
        <ele>1612</ele>
        <time>2016-04-10T11:18:26.000Z</time>
      </trkpt>
      <trkpt lat="45.17792" lon="5.91769">
        <ele>1611.1999511719</ele>
        <time>2016-04-10T11:18:29.000Z</time>
      </trkpt>
      <trkpt lat="45.17792" lon="5.91768">
        <ele>1610.8000488281</ele>
        <time>2016-04-10T11:18:30.000Z</time>
      </trkpt>
      <trkpt lat="45.17788" lon="5.91765">
        <ele>1609.5999755859</ele>
        <time>2016-04-10T11:18:33.000Z</time>
      </trkpt>
      <trkpt lat="45.17782" lon="5.91763">
        <ele>1608.5999755859</ele>
        <time>2016-04-10T11:18:38.000Z</time>
      </trkpt>
      <trkpt lat="45.1778" lon="5.91761">
        <ele>1608.1999511719</ele>
        <time>2016-04-10T11:18:39.000Z</time>
      </trkpt>
      <trkpt lat="45.17777" lon="5.91758">
        <ele>1607.4000244141</ele>
        <time>2016-04-10T11:18:43.000Z</time>
      </trkpt>
      <trkpt lat="45.17771" lon="5.91753">
        <ele>1606.4000244141</ele>
        <time>2016-04-10T11:18:49.000Z</time>
      </trkpt>
      <trkpt lat="45.17769" lon="5.91752">
        <ele>1606.1999511719</ele>
        <time>2016-04-10T11:18:50.000Z</time>
      </trkpt>
      <trkpt lat="45.17766" lon="5.91751">
        <ele>1605</ele>
        <time>2016-04-10T11:18:54.000Z</time>
      </trkpt>
      <trkpt lat="45.17762" lon="5.91747">
        <ele>1604</ele>
        <time>2016-04-10T11:18:58.000Z</time>
      </trkpt>
      <trkpt lat="45.17759" lon="5.91745">
        <ele>1603.4000244141</ele>
        <time>2016-04-10T11:19:01.000Z</time>
      </trkpt>
      <trkpt lat="45.17757" lon="5.91745">
        <ele>1602.8000488281</ele>
        <time>2016-04-10T11:19:03.000Z</time>
      </trkpt>
      <trkpt lat="45.17755" lon="5.91745">
        <ele>1601.8000488281</ele>
        <time>2016-04-10T11:19:06.000Z</time>
      </trkpt>
      <trkpt lat="45.17749" lon="5.91743">
        <ele>1600.5999755859</ele>
        <time>2016-04-10T11:19:11.000Z</time>
      </trkpt>
      <trkpt lat="45.1775" lon="5.91738">
        <ele>1599.4000244141</ele>
        <time>2016-04-10T11:19:16.000Z</time>
      </trkpt>
      <trkpt lat="45.1775" lon="5.91737">
        <ele>1598.4000244141</ele>
        <time>2016-04-10T11:19:18.000Z</time>
      </trkpt>
      <trkpt lat="45.17751" lon="5.91737">
        <ele>1598</ele>
        <time>2016-04-10T11:19:19.000Z</time>
      </trkpt>
      <trkpt lat="45.17756" lon="5.91734">
        <ele>1596.8000488281</ele>
        <time>2016-04-10T11:19:25.000Z</time>
      </trkpt>
      <trkpt lat="45.17761" lon="5.91731">
        <ele>1595.8000488281</ele>
        <time>2016-04-10T11:19:29.000Z</time>
      </trkpt>
      <trkpt lat="45.1777" lon="5.91728">
        <ele>1594.5999755859</ele>
        <time>2016-04-10T11:19:35.000Z</time>
      </trkpt>
      <trkpt lat="45.17772" lon="5.91726">
        <ele>1594.4000244141</ele>
        <time>2016-04-10T11:19:36.000Z</time>
      </trkpt>
      <trkpt lat="45.17774" lon="5.91725">
        <ele>1593.5999755859</ele>
        <time>2016-04-10T11:19:38.000Z</time>
      </trkpt>
      <trkpt lat="45.17775" lon="5.91725">
        <ele>1593.4000244141</ele>
        <time>2016-04-10T11:19:39.000Z</time>
      </trkpt>
      <trkpt lat="45.17779" lon="5.91722">
        <ele>1592.4000244141</ele>
        <time>2016-04-10T11:19:43.000Z</time>
      </trkpt>
      <trkpt lat="45.17784" lon="5.91719">
        <ele>1591.1999511719</ele>
        <time>2016-04-10T11:19:46.000Z</time>
      </trkpt>
      <trkpt lat="45.17791" lon="5.91721">
        <ele>1590</ele>
        <time>2016-04-10T11:19:50.000Z</time>
      </trkpt>
      <trkpt lat="45.17796" lon="5.9172">
        <ele>1588.8000488281</ele>
        <time>2016-04-10T11:19:55.000Z</time>
      </trkpt>
      <trkpt lat="45.17804" lon="5.91718">
        <ele>1587.5999755859</ele>
        <time>2016-04-10T11:20:00.000Z</time>
      </trkpt>
      <trkpt lat="45.17806" lon="5.91716">
        <ele>1586.4000244141</ele>
        <time>2016-04-10T11:20:02.000Z</time>
      </trkpt>
      <trkpt lat="45.17807" lon="5.91715">
        <ele>1585.5999755859</ele>
        <time>2016-04-10T11:20:04.000Z</time>
      </trkpt>
      <trkpt lat="45.17808" lon="5.91713">
        <ele>1585.4000244141</ele>
        <time>2016-04-10T11:20:06.000Z</time>
      </trkpt>
      <trkpt lat="45.17811" lon="5.91711">
        <ele>1584.1999511719</ele>
        <time>2016-04-10T11:20:09.000Z</time>
      </trkpt>
      <trkpt lat="45.17811" lon="5.91711">
        <ele>1583.1999511719</ele>
        <time>2016-04-10T11:20:12.000Z</time>
      </trkpt>
      <trkpt lat="45.17815" lon="5.91709">
        <ele>1582</ele>
        <time>2016-04-10T11:20:19.000Z</time>
      </trkpt>
      <trkpt lat="45.17819" lon="5.91707">
        <ele>1581.1999511719</ele>
        <time>2016-04-10T11:20:22.000Z</time>
      </trkpt>
      <trkpt lat="45.17824" lon="5.91705">
        <ele>1580.8000488281</ele>
        <time>2016-04-10T11:20:24.000Z</time>
      </trkpt>
      <trkpt lat="45.17824" lon="5.91704">
        <ele>1580.4000244141</ele>
        <time>2016-04-10T11:20:25.000Z</time>
      </trkpt>
      <trkpt lat="45.17828" lon="5.91703">
        <ele>1579.5999755859</ele>
        <time>2016-04-10T11:20:27.000Z</time>
      </trkpt>
      <trkpt lat="45.17829" lon="5.91702">
        <ele>1579.4000244141</ele>
        <time>2016-04-10T11:20:28.000Z</time>
      </trkpt>
      <trkpt lat="45.17832" lon="5.91702">
        <ele>1579</ele>
        <time>2016-04-10T11:20:30.000Z</time>
      </trkpt>
      <trkpt lat="45.17835" lon="5.91703">
        <ele>1578.5999755859</ele>
        <time>2016-04-10T11:20:32.000Z</time>
      </trkpt>
      <trkpt lat="45.17838" lon="5.91701">
        <ele>1578</ele>
        <time>2016-04-10T11:20:35.000Z</time>
      </trkpt>
      <trkpt lat="45.1784" lon="5.91701">
        <ele>1577.4000244141</ele>
        <time>2016-04-10T11:20:37.000Z</time>
      </trkpt>
      <trkpt lat="45.17844" lon="5.91698">
        <ele>1576.1999511719</ele>
        <time>2016-04-10T11:20:42.000Z</time>
      </trkpt>
      <trkpt lat="45.17843" lon="5.91696">
        <ele>1576</ele>
        <time>2016-04-10T11:20:43.000Z</time>
      </trkpt>
      <trkpt lat="45.1784" lon="5.91694">
        <ele>1575</ele>
        <time>2016-04-10T11:20:46.000Z</time>
      </trkpt>
      <trkpt lat="45.17835" lon="5.91691">
        <ele>1574</ele>
        <time>2016-04-10T11:20:50.000Z</time>
      </trkpt>
      <trkpt lat="45.17832" lon="5.9169">
        <ele>1573.5999755859</ele>
        <time>2016-04-10T11:20:52.000Z</time>
      </trkpt>
      <trkpt lat="45.17825" lon="5.91687">
        <ele>1573</ele>
        <time>2016-04-10T11:20:57.000Z</time>
      </trkpt>
      <trkpt lat="45.17822" lon="5.91684">
        <ele>1572.4000244141</ele>
        <time>2016-04-10T11:21:00.000Z</time>
      </trkpt>
      <trkpt lat="45.17819" lon="5.91679">
        <ele>1571.8000488281</ele>
        <time>2016-04-10T11:21:02.000Z</time>
      </trkpt>
      <trkpt lat="45.17815" lon="5.91678">
        <ele>1570.5999755859</ele>
        <time>2016-04-10T11:21:05.000Z</time>
      </trkpt>
      <trkpt lat="45.17812" lon="5.91676">
        <ele>1569.5999755859</ele>
        <time>2016-04-10T11:21:10.000Z</time>
      </trkpt>
      <trkpt lat="45.1781" lon="5.91674">
        <ele>1568.5999755859</ele>
        <time>2016-04-10T11:21:13.000Z</time>
      </trkpt>
      <trkpt lat="45.17809" lon="5.91674">
        <ele>1568.4000244141</ele>
        <time>2016-04-10T11:21:15.000Z</time>
      </trkpt>
      <trkpt lat="45.17806" lon="5.91671">
        <ele>1567.4000244141</ele>
        <time>2016-04-10T11:21:20.000Z</time>
      </trkpt>
      <trkpt lat="45.17803" lon="5.91669">
        <ele>1566.1999511719</ele>
        <time>2016-04-10T11:21:24.000Z</time>
      </trkpt>
      <trkpt lat="45.178" lon="5.91666">
        <ele>1565.1999511719</ele>
        <time>2016-04-10T11:21:27.000Z</time>
      </trkpt>
      <trkpt lat="45.17799" lon="5.91666">
        <ele>1564.4000244141</ele>
        <time>2016-04-10T11:21:29.000Z</time>
      </trkpt>
      <trkpt lat="45.17798" lon="5.91664">
        <ele>1564</ele>
        <time>2016-04-10T11:21:31.000Z</time>
      </trkpt>
      <trkpt lat="45.178" lon="5.91662">
        <ele>1562.8000488281</ele>
        <time>2016-04-10T11:21:34.000Z</time>
      </trkpt>
      <trkpt lat="45.17804" lon="5.91658">
        <ele>1561.5999755859</ele>
        <time>2016-04-10T11:21:39.000Z</time>
      </trkpt>
      <trkpt lat="45.17808" lon="5.91656">
        <ele>1561.1999511719</ele>
        <time>2016-04-10T11:21:41.000Z</time>
      </trkpt>
      <trkpt lat="45.1781" lon="5.91656">
        <ele>1560.8000488281</ele>
        <time>2016-04-10T11:21:42.000Z</time>
      </trkpt>
      <trkpt lat="45.17812" lon="5.91656">
        <ele>1560.5999755859</ele>
        <time>2016-04-10T11:21:43.000Z</time>
      </trkpt>
      <trkpt lat="45.17818" lon="5.91654">
        <ele>1559.4000244141</ele>
        <time>2016-04-10T11:21:47.000Z</time>
      </trkpt>
      <trkpt lat="45.1782" lon="5.91654">
        <ele>1559</ele>
        <time>2016-04-10T11:21:48.000Z</time>
      </trkpt>
      <trkpt lat="45.17823" lon="5.91652">
        <ele>1558.1999511719</ele>
        <time>2016-04-10T11:21:50.000Z</time>
      </trkpt>
      <trkpt lat="45.17828" lon="5.9165">
        <ele>1557</ele>
        <time>2016-04-10T11:21:54.000Z</time>
      </trkpt>
      <trkpt lat="45.17833" lon="5.91647">
        <ele>1555.8000488281</ele>
        <time>2016-04-10T11:21:59.000Z</time>
      </trkpt>
      <trkpt lat="45.17836" lon="5.91646">
        <ele>1554.8000488281</ele>
        <time>2016-04-10T11:22:01.000Z</time>
      </trkpt>
      <trkpt lat="45.1784" lon="5.91645">
        <ele>1554</ele>
        <time>2016-04-10T11:22:05.000Z</time>
      </trkpt>
      <trkpt lat="45.17841" lon="5.91645">
        <ele>1553.8000488281</ele>
        <time>2016-04-10T11:22:06.000Z</time>
      </trkpt>
      <trkpt lat="45.17848" lon="5.91641">
        <ele>1552.5999755859</ele>
        <time>2016-04-10T11:22:10.000Z</time>
      </trkpt>
      <trkpt lat="45.17849" lon="5.91641">
        <ele>1552.4000244141</ele>
        <time>2016-04-10T11:22:11.000Z</time>
      </trkpt>
      <trkpt lat="45.1785" lon="5.91642">
        <ele>1551.4000244141</ele>
        <time>2016-04-10T11:22:14.000Z</time>
      </trkpt>
      <trkpt lat="45.17854" lon="5.91636">
        <ele>1550.1999511719</ele>
        <time>2016-04-10T11:22:17.000Z</time>
      </trkpt>
      <trkpt lat="45.17856" lon="5.91634">
        <ele>1550</ele>
        <time>2016-04-10T11:22:18.000Z</time>
      </trkpt>
      <trkpt lat="45.1786" lon="5.91633">
        <ele>1549.1999511719</ele>
        <time>2016-04-10T11:22:21.000Z</time>
      </trkpt>
      <trkpt lat="45.17862" lon="5.9163">
        <ele>1548.5999755859</ele>
        <time>2016-04-10T11:22:23.000Z</time>
      </trkpt>
      <trkpt lat="45.17864" lon="5.91629">
        <ele>1547.8000488281</ele>
        <time>2016-04-10T11:22:25.000Z</time>
      </trkpt>
      <trkpt lat="45.17867" lon="5.91626">
        <ele>1546.8000488281</ele>
        <time>2016-04-10T11:22:28.000Z</time>
      </trkpt>
      <trkpt lat="45.17868" lon="5.91625">
        <ele>1546.4000244141</ele>
        <time>2016-04-10T11:22:29.000Z</time>
      </trkpt>
      <trkpt lat="45.1787" lon="5.91624">
        <ele>1545.8000488281</ele>
        <time>2016-04-10T11:22:32.000Z</time>
      </trkpt>
      <trkpt lat="45.17874" lon="5.91619">
        <ele>1544.8000488281</ele>
        <time>2016-04-10T11:22:36.000Z</time>
      </trkpt>
      <trkpt lat="45.17875" lon="5.91618">
        <ele>1544.5999755859</ele>
        <time>2016-04-10T11:22:37.000Z</time>
      </trkpt>
      <trkpt lat="45.1788" lon="5.91614">
        <ele>1543.4000244141</ele>
        <time>2016-04-10T11:22:42.000Z</time>
      </trkpt>
      <trkpt lat="45.17886" lon="5.91611">
        <ele>1542.1999511719</ele>
        <time>2016-04-10T11:22:46.000Z</time>
      </trkpt>
      <trkpt lat="45.17887" lon="5.91611">
        <ele>1541.4000244141</ele>
        <time>2016-04-10T11:22:48.000Z</time>
      </trkpt>
      <trkpt lat="45.17888" lon="5.91611">
        <ele>1540.8000488281</ele>
        <time>2016-04-10T11:22:49.000Z</time>
      </trkpt>
      <trkpt lat="45.17894" lon="5.91608">
        <ele>1539.5999755859</ele>
        <time>2016-04-10T11:22:54.000Z</time>
      </trkpt>
      <trkpt lat="45.17897" lon="5.91608">
        <ele>1539</ele>
        <time>2016-04-10T11:22:57.000Z</time>
      </trkpt>
      <trkpt lat="45.179" lon="5.91607">
        <ele>1538.4000244141</ele>
        <time>2016-04-10T11:22:59.000Z</time>
      </trkpt>
      <trkpt lat="45.17903" lon="5.91607">
        <ele>1537.1999511719</ele>
        <time>2016-04-10T11:23:02.000Z</time>
      </trkpt>
      <trkpt lat="45.17907" lon="5.91606">
        <ele>1536.8000488281</ele>
        <time>2016-04-10T11:23:04.000Z</time>
      </trkpt>
      <trkpt lat="45.17909" lon="5.91604">
        <ele>1536</ele>
        <time>2016-04-10T11:23:07.000Z</time>
      </trkpt>
      <trkpt lat="45.17913" lon="5.91603">
        <ele>1534.8000488281</ele>
        <time>2016-04-10T11:23:11.000Z</time>
      </trkpt>
      <trkpt lat="45.17915" lon="5.91603">
        <ele>1533.5999755859</ele>
        <time>2016-04-10T11:23:14.000Z</time>
      </trkpt>
      <trkpt lat="45.1792" lon="5.91601">
        <ele>1533</ele>
        <time>2016-04-10T11:23:17.000Z</time>
      </trkpt>
      <trkpt lat="45.17924" lon="5.916">
        <ele>1532.4000244141</ele>
        <time>2016-04-10T11:23:19.000Z</time>
      </trkpt>
      <trkpt lat="45.17927" lon="5.916">
        <ele>1531.5999755859</ele>
        <time>2016-04-10T11:23:22.000Z</time>
      </trkpt>
      <trkpt lat="45.17928" lon="5.91599">
        <ele>1531.1999511719</ele>
        <time>2016-04-10T11:23:23.000Z</time>
      </trkpt>
      <trkpt lat="45.17934" lon="5.91596">
        <ele>1530.1999511719</ele>
        <time>2016-04-10T11:23:27.000Z</time>
      </trkpt>
      <trkpt lat="45.17936" lon="5.91595">
        <ele>1530.1999511719</ele>
        <time>2016-04-10T11:23:28.000Z</time>
      </trkpt>
      <trkpt lat="45.17938" lon="5.91595">
        <ele>1529.1999511719</ele>
        <time>2016-04-10T11:23:31.000Z</time>
      </trkpt>
      <trkpt lat="45.17941" lon="5.91595">
        <ele>1528.4000244141</ele>
        <time>2016-04-10T11:23:34.000Z</time>
      </trkpt>
      <trkpt lat="45.17943" lon="5.91593">
        <ele>1527.8000488281</ele>
        <time>2016-04-10T11:23:36.000Z</time>
      </trkpt>
      <trkpt lat="45.17947" lon="5.91591">
        <ele>1526.8000488281</ele>
        <time>2016-04-10T11:23:38.000Z</time>
      </trkpt>
      <trkpt lat="45.17949" lon="5.91591">
        <ele>1526.4000244141</ele>
        <time>2016-04-10T11:23:40.000Z</time>
      </trkpt>
      <trkpt lat="45.17953" lon="5.91591">
        <ele>1525.5999755859</ele>
        <time>2016-04-10T11:23:43.000Z</time>
      </trkpt>
      <trkpt lat="45.17959" lon="5.9159">
        <ele>1524.4000244141</ele>
        <time>2016-04-10T11:23:47.000Z</time>
      </trkpt>
      <trkpt lat="45.17967" lon="5.9159">
        <ele>1523</ele>
        <time>2016-04-10T11:23:52.000Z</time>
      </trkpt>
      <trkpt lat="45.1797" lon="5.91589">
        <ele>1522.1999511719</ele>
        <time>2016-04-10T11:23:54.000Z</time>
      </trkpt>
      <trkpt lat="45.17971" lon="5.9159">
        <ele>1522</ele>
        <time>2016-04-10T11:23:55.000Z</time>
      </trkpt>
      <trkpt lat="45.17974" lon="5.91589">
        <ele>1520.5999755859</ele>
        <time>2016-04-10T11:23:58.000Z</time>
      </trkpt>
      <trkpt lat="45.17978" lon="5.91588">
        <ele>1519.4000244141</ele>
        <time>2016-04-10T11:24:01.000Z</time>
      </trkpt>
      <trkpt lat="45.17981" lon="5.91587">
        <ele>1518.4000244141</ele>
        <time>2016-04-10T11:24:03.000Z</time>
      </trkpt>
      <trkpt lat="45.17986" lon="5.91586">
        <ele>1517.4000244141</ele>
        <time>2016-04-10T11:24:07.000Z</time>
      </trkpt>
      <trkpt lat="45.17988" lon="5.91586">
        <ele>1516.5999755859</ele>
        <time>2016-04-10T11:24:10.000Z</time>
      </trkpt>
      <trkpt lat="45.1799" lon="5.91586">
        <ele>1516.4000244141</ele>
        <time>2016-04-10T11:24:11.000Z</time>
      </trkpt>
      <trkpt lat="45.17995" lon="5.91585">
        <ele>1515.1999511719</ele>
        <time>2016-04-10T11:24:14.000Z</time>
      </trkpt>
      <trkpt lat="45.17999" lon="5.91584">
        <ele>1514.4000244141</ele>
        <time>2016-04-10T11:24:17.000Z</time>
      </trkpt>
      <trkpt lat="45.18" lon="5.91584">
        <ele>1514</ele>
        <time>2016-04-10T11:24:18.000Z</time>
      </trkpt>
      <trkpt lat="45.18005" lon="5.91586">
        <ele>1513</ele>
        <time>2016-04-10T11:24:22.000Z</time>
      </trkpt>
      <trkpt lat="45.18008" lon="5.91586">
        <ele>1512.5999755859</ele>
        <time>2016-04-10T11:24:24.000Z</time>
      </trkpt>
      <trkpt lat="45.18011" lon="5.91586">
        <ele>1512</ele>
        <time>2016-04-10T11:24:26.000Z</time>
      </trkpt>
      <trkpt lat="45.18017" lon="5.91589">
        <ele>1511.1999511719</ele>
        <time>2016-04-10T11:24:30.000Z</time>
      </trkpt>
      <trkpt lat="45.1802" lon="5.9159">
        <ele>1511</ele>
        <time>2016-04-10T11:24:33.000Z</time>
      </trkpt>
      <trkpt lat="45.18027" lon="5.91591">
        <ele>1510.5999755859</ele>
        <time>2016-04-10T11:24:37.000Z</time>
      </trkpt>
      <trkpt lat="45.18032" lon="5.91591">
        <ele>1509.8000488281</ele>
        <time>2016-04-10T11:24:41.000Z</time>
      </trkpt>
      <trkpt lat="45.18035" lon="5.9159">
        <ele>1509.5999755859</ele>
        <time>2016-04-10T11:24:44.000Z</time>
      </trkpt>
      <trkpt lat="45.18038" lon="5.91589">
        <ele>1509.5999755859</ele>
        <time>2016-04-10T11:24:46.000Z</time>
      </trkpt>
      <trkpt lat="45.18045" lon="5.91588">
        <ele>1509.1999511719</ele>
        <time>2016-04-10T11:24:52.000Z</time>
      </trkpt>
      <trkpt lat="45.18053" lon="5.91588">
        <ele>1508.8000488281</ele>
        <time>2016-04-10T11:24:58.000Z</time>
      </trkpt>
      <trkpt lat="45.18064" lon="5.91584">
        <ele>1508</ele>
        <time>2016-04-10T11:25:05.000Z</time>
      </trkpt>
      <trkpt lat="45.18066" lon="5.91584">
        <ele>1507.5999755859</ele>
        <time>2016-04-10T11:25:07.000Z</time>
      </trkpt>
      <trkpt lat="45.18073" lon="5.91581">
        <ele>1507.4000244141</ele>
        <time>2016-04-10T11:25:12.000Z</time>
      </trkpt>
      <trkpt lat="45.18078" lon="5.91578">
        <ele>1506.5999755859</ele>
        <time>2016-04-10T11:25:16.000Z</time>
      </trkpt>
      <trkpt lat="45.18082" lon="5.91577">
        <ele>1506.4000244141</ele>
        <time>2016-04-10T11:25:19.000Z</time>
      </trkpt>
      <trkpt lat="45.18092" lon="5.91576">
        <ele>1505.8000488281</ele>
        <time>2016-04-10T11:25:29.000Z</time>
      </trkpt>
      <trkpt lat="45.18098" lon="5.91575">
        <ele>1505.5999755859</ele>
        <time>2016-04-10T11:25:32.000Z</time>
      </trkpt>
      <trkpt lat="45.18101" lon="5.91574">
        <ele>1505.1999511719</ele>
        <time>2016-04-10T11:25:36.000Z</time>
      </trkpt>
      <trkpt lat="45.18105" lon="5.91573">
        <ele>1504.4000244141</ele>
        <time>2016-04-10T11:25:40.000Z</time>
      </trkpt>
      <trkpt lat="45.18111" lon="5.91569">
        <ele>1504</ele>
        <time>2016-04-10T11:25:44.000Z</time>
      </trkpt>
      <trkpt lat="45.18118" lon="5.91564">
        <ele>1503.4000244141</ele>
        <time>2016-04-10T11:25:49.000Z</time>
      </trkpt>
      <trkpt lat="45.18122" lon="5.91558">
        <ele>1503.1999511719</ele>
        <time>2016-04-10T11:25:52.000Z</time>
      </trkpt>
      <trkpt lat="45.18127" lon="5.91551">
        <ele>1502.4000244141</ele>
        <time>2016-04-10T11:25:56.000Z</time>
      </trkpt>
      <trkpt lat="45.18128" lon="5.91549">
        <ele>1502.1999511719</ele>
        <time>2016-04-10T11:25:57.000Z</time>
      </trkpt>
      <trkpt lat="45.18131" lon="5.91541">
        <ele>1501.1999511719</ele>
        <time>2016-04-10T11:26:01.000Z</time>
      </trkpt>
      <trkpt lat="45.18131" lon="5.9154">
        <ele>1500.5999755859</ele>
        <time>2016-04-10T11:26:03.000Z</time>
      </trkpt>
      <trkpt lat="45.18132" lon="5.91534">
        <ele>1500</ele>
        <time>2016-04-10T11:26:06.000Z</time>
      </trkpt>
      <trkpt lat="45.18131" lon="5.91529">
        <ele>1499.8000488281</ele>
        <time>2016-04-10T11:26:08.000Z</time>
      </trkpt>
      <trkpt lat="45.18131" lon="5.91528">
        <ele>1499.5999755859</ele>
        <time>2016-04-10T11:26:09.000Z</time>
      </trkpt>
      <trkpt lat="45.18128" lon="5.91525">
        <ele>1499</ele>
        <time>2016-04-10T11:26:14.000Z</time>
      </trkpt>
      <trkpt lat="45.18128" lon="5.91525">
        <ele>1498.8000488281</ele>
        <time>2016-04-10T11:26:15.000Z</time>
      </trkpt>
      <trkpt lat="45.18128" lon="5.91525">
        <ele>1498.8000488281</ele>
        <time>2016-04-10T11:26:26.000Z</time>
      </trkpt>
      <trkpt lat="45.18127" lon="5.91522">
        <ele>1499</ele>
        <time>2016-04-10T11:26:33.000Z</time>
      </trkpt>
      <trkpt lat="45.18124" lon="5.91514">
        <ele>1498.1999511719</ele>
        <time>2016-04-10T11:26:39.000Z</time>
      </trkpt>
      <trkpt lat="45.18123" lon="5.91512">
        <ele>1498.1999511719</ele>
        <time>2016-04-10T11:26:40.000Z</time>
      </trkpt>
      <trkpt lat="45.18121" lon="5.91506">
        <ele>1498</ele>
        <time>2016-04-10T11:26:44.000Z</time>
      </trkpt>
      <trkpt lat="45.1812" lon="5.91505">
        <ele>1498</ele>
        <time>2016-04-10T11:26:45.000Z</time>
      </trkpt>
      <trkpt lat="45.18119" lon="5.91497">
        <ele>1497.8000488281</ele>
        <time>2016-04-10T11:26:48.000Z</time>
      </trkpt>
      <trkpt lat="45.1812" lon="5.91494">
        <ele>1497.5999755859</ele>
        <time>2016-04-10T11:26:50.000Z</time>
      </trkpt>
      <trkpt lat="45.1812" lon="5.91488">
        <ele>1497.5999755859</ele>
        <time>2016-04-10T11:26:53.000Z</time>
      </trkpt>
      <trkpt lat="45.18121" lon="5.91484">
        <ele>1497.1999511719</ele>
        <time>2016-04-10T11:26:55.000Z</time>
      </trkpt>
      <trkpt lat="45.18123" lon="5.9148">
        <ele>1496.8000488281</ele>
        <time>2016-04-10T11:26:59.000Z</time>
      </trkpt>
      <trkpt lat="45.18124" lon="5.91479">
        <ele>1496.5999755859</ele>
        <time>2016-04-10T11:27:00.000Z</time>
      </trkpt>
      <trkpt lat="45.18129" lon="5.91475">
        <ele>1495.8000488281</ele>
        <time>2016-04-10T11:27:06.000Z</time>
      </trkpt>
      <trkpt lat="45.1813" lon="5.91474">
        <ele>1495.4000244141</ele>
        <time>2016-04-10T11:27:07.000Z</time>
      </trkpt>
      <trkpt lat="45.18133" lon="5.91471">
        <ele>1495</ele>
        <time>2016-04-10T11:27:10.000Z</time>
      </trkpt>
      <trkpt lat="45.18133" lon="5.91471">
        <ele>1494.8000488281</ele>
        <time>2016-04-10T11:27:11.000Z</time>
      </trkpt>
      <trkpt lat="45.18134" lon="5.91471">
        <ele>1494.1999511719</ele>
        <time>2016-04-10T11:27:13.000Z</time>
      </trkpt>
      <trkpt lat="45.18136" lon="5.91468">
        <ele>1493.5999755859</ele>
        <time>2016-04-10T11:27:17.000Z</time>
      </trkpt>
      <trkpt lat="45.18139" lon="5.91467">
        <ele>1493</ele>
        <time>2016-04-10T11:27:19.000Z</time>
      </trkpt>
      <trkpt lat="45.1814" lon="5.91467">
        <ele>1492.5999755859</ele>
        <time>2016-04-10T11:27:21.000Z</time>
      </trkpt>
      <trkpt lat="45.18142" lon="5.91465">
        <ele>1491.4000244141</ele>
        <time>2016-04-10T11:27:25.000Z</time>
      </trkpt>
      <trkpt lat="45.18144" lon="5.91465">
        <ele>1490.8000488281</ele>
        <time>2016-04-10T11:27:27.000Z</time>
      </trkpt>
      <trkpt lat="45.18145" lon="5.91464">
        <ele>1490.1999511719</ele>
        <time>2016-04-10T11:27:29.000Z</time>
      </trkpt>
      <trkpt lat="45.18149" lon="5.91461">
        <ele>1489</ele>
        <time>2016-04-10T11:27:33.000Z</time>
      </trkpt>
      <trkpt lat="45.1815" lon="5.91461">
        <ele>1488.5999755859</ele>
        <time>2016-04-10T11:27:35.000Z</time>
      </trkpt>
      <trkpt lat="45.18152" lon="5.91461">
        <ele>1488</ele>
        <time>2016-04-10T11:27:37.000Z</time>
      </trkpt>
      <trkpt lat="45.18159" lon="5.9146">
        <ele>1486.8000488281</ele>
        <time>2016-04-10T11:27:41.000Z</time>
      </trkpt>
      <trkpt lat="45.18159" lon="5.9146">
        <ele>1486.5999755859</ele>
        <time>2016-04-10T11:27:42.000Z</time>
      </trkpt>
      <trkpt lat="45.18162" lon="5.91459">
        <ele>1485.8000488281</ele>
        <time>2016-04-10T11:27:45.000Z</time>
      </trkpt>
      <trkpt lat="45.18168" lon="5.91456">
        <ele>1484.5999755859</ele>
        <time>2016-04-10T11:27:51.000Z</time>
      </trkpt>
      <trkpt lat="45.18169" lon="5.91455">
        <ele>1484.4000244141</ele>
        <time>2016-04-10T11:27:52.000Z</time>
      </trkpt>
      <trkpt lat="45.18174" lon="5.91453">
        <ele>1483.4000244141</ele>
        <time>2016-04-10T11:27:57.000Z</time>
      </trkpt>
      <trkpt lat="45.1818" lon="5.9145">
        <ele>1483.1999511719</ele>
        <time>2016-04-10T11:28:00.000Z</time>
      </trkpt>
      <trkpt lat="45.18185" lon="5.91446">
        <ele>1482.4000244141</ele>
        <time>2016-04-10T11:28:04.000Z</time>
      </trkpt>
      <trkpt lat="45.18188" lon="5.91446">
        <ele>1482</ele>
        <time>2016-04-10T11:28:06.000Z</time>
      </trkpt>
      <trkpt lat="45.18193" lon="5.91443">
        <ele>1481</ele>
        <time>2016-04-10T11:28:09.000Z</time>
      </trkpt>
      <trkpt lat="45.18195" lon="5.91441">
        <ele>1480</ele>
        <time>2016-04-10T11:28:13.000Z</time>
      </trkpt>
      <trkpt lat="45.18196" lon="5.91441">
        <ele>1479.8000488281</ele>
        <time>2016-04-10T11:28:14.000Z</time>
      </trkpt>
      <trkpt lat="45.18201" lon="5.91439">
        <ele>1478.8000488281</ele>
        <time>2016-04-10T11:28:19.000Z</time>
      </trkpt>
      <trkpt lat="45.18206" lon="5.91438">
        <ele>1478.1999511719</ele>
        <time>2016-04-10T11:28:22.000Z</time>
      </trkpt>
      <trkpt lat="45.18208" lon="5.91438">
        <ele>1477.8000488281</ele>
        <time>2016-04-10T11:28:24.000Z</time>
      </trkpt>
      <trkpt lat="45.18211" lon="5.91436">
        <ele>1476.5999755859</ele>
        <time>2016-04-10T11:28:27.000Z</time>
      </trkpt>
      <trkpt lat="45.18214" lon="5.91434">
        <ele>1476</ele>
        <time>2016-04-10T11:28:29.000Z</time>
      </trkpt>
      <trkpt lat="45.18217" lon="5.91432">
        <ele>1475.5999755859</ele>
        <time>2016-04-10T11:28:31.000Z</time>
      </trkpt>
      <trkpt lat="45.18221" lon="5.91431">
        <ele>1474.4000244141</ele>
        <time>2016-04-10T11:28:36.000Z</time>
      </trkpt>
      <trkpt lat="45.18224" lon="5.9143">
        <ele>1474.1999511719</ele>
        <time>2016-04-10T11:28:37.000Z</time>
      </trkpt>
      <trkpt lat="45.18228" lon="5.91428">
        <ele>1473.4000244141</ele>
        <time>2016-04-10T11:28:41.000Z</time>
      </trkpt>
      <trkpt lat="45.18232" lon="5.91426">
        <ele>1472.1999511719</ele>
        <time>2016-04-10T11:28:45.000Z</time>
      </trkpt>
      <trkpt lat="45.18232" lon="5.91426">
        <ele>1471</ele>
        <time>2016-04-10T11:28:49.000Z</time>
      </trkpt>
      <trkpt lat="45.18232" lon="5.91426">
        <ele>1470</ele>
        <time>2016-04-10T11:28:53.000Z</time>
      </trkpt>
      <trkpt lat="45.18234" lon="5.91426">
        <ele>1469</ele>
        <time>2016-04-10T11:28:57.000Z</time>
      </trkpt>
      <trkpt lat="45.18239" lon="5.91424">
        <ele>1467.8000488281</ele>
        <time>2016-04-10T11:29:01.000Z</time>
      </trkpt>
      <trkpt lat="45.18243" lon="5.91422">
        <ele>1466.8000488281</ele>
        <time>2016-04-10T11:29:04.000Z</time>
      </trkpt>
      <trkpt lat="45.18244" lon="5.91421">
        <ele>1466.5999755859</ele>
        <time>2016-04-10T11:29:05.000Z</time>
      </trkpt>
      <trkpt lat="45.18247" lon="5.91421">
        <ele>1465.5999755859</ele>
        <time>2016-04-10T11:29:09.000Z</time>
      </trkpt>
      <trkpt lat="45.18247" lon="5.91421">
        <ele>1464.5999755859</ele>
        <time>2016-04-10T11:29:12.000Z</time>
      </trkpt>
      <trkpt lat="45.18249" lon="5.9142">
        <ele>1464.1999511719</ele>
        <time>2016-04-10T11:29:13.000Z</time>
      </trkpt>
      <trkpt lat="45.18259" lon="5.91418">
        <ele>1463</ele>
        <time>2016-04-10T11:29:19.000Z</time>
      </trkpt>
      <trkpt lat="45.18261" lon="5.91418">
        <ele>1462.5999755859</ele>
        <time>2016-04-10T11:29:21.000Z</time>
      </trkpt>
      <trkpt lat="45.18261" lon="5.91418">
        <ele>1462</ele>
        <time>2016-04-10T11:29:24.000Z</time>
      </trkpt>
      <trkpt lat="45.18261" lon="5.91418">
        <ele>1460.8000488281</ele>
        <time>2016-04-10T11:29:30.000Z</time>
      </trkpt>
      <trkpt lat="45.18261" lon="5.91418">
        <ele>1459.8000488281</ele>
        <time>2016-04-10T11:29:34.000Z</time>
      </trkpt>
      <trkpt lat="45.18265" lon="5.91418">
        <ele>1458.5999755859</ele>
        <time>2016-04-10T11:29:38.000Z</time>
      </trkpt>
      <trkpt lat="45.18271" lon="5.91417">
        <ele>1458</ele>
        <time>2016-04-10T11:29:40.000Z</time>
      </trkpt>
      <trkpt lat="45.18275" lon="5.91417">
        <ele>1457.4000244141</ele>
        <time>2016-04-10T11:29:42.000Z</time>
      </trkpt>
      <trkpt lat="45.18283" lon="5.91417">
        <ele>1456.4000244141</ele>
        <time>2016-04-10T11:29:47.000Z</time>
      </trkpt>
      <trkpt lat="45.18285" lon="5.91417">
        <ele>1456.1999511719</ele>
        <time>2016-04-10T11:29:48.000Z</time>
      </trkpt>
      <trkpt lat="45.18292" lon="5.91414">
        <ele>1455.1999511719</ele>
        <time>2016-04-10T11:29:51.000Z</time>
      </trkpt>
      <trkpt lat="45.18299" lon="5.91413">
        <ele>1454.1999511719</ele>
        <time>2016-04-10T11:29:54.000Z</time>
      </trkpt>
      <trkpt lat="45.18306" lon="5.9141">
        <ele>1453</ele>
        <time>2016-04-10T11:29:58.000Z</time>
      </trkpt>
      <trkpt lat="45.18312" lon="5.91407">
        <ele>1452.4000244141</ele>
        <time>2016-04-10T11:30:01.000Z</time>
      </trkpt>
      <trkpt lat="45.18317" lon="5.91404">
        <ele>1452</ele>
        <time>2016-04-10T11:30:03.000Z</time>
      </trkpt>
      <trkpt lat="45.18323" lon="5.91401">
        <ele>1450.5999755859</ele>
        <time>2016-04-10T11:30:07.000Z</time>
      </trkpt>
      <trkpt lat="45.18324" lon="5.914">
        <ele>1450.4000244141</ele>
        <time>2016-04-10T11:30:08.000Z</time>
      </trkpt>
      <trkpt lat="45.18329" lon="5.91398">
        <ele>1449.5999755859</ele>
        <time>2016-04-10T11:30:11.000Z</time>
      </trkpt>
      <trkpt lat="45.18334" lon="5.91397">
        <ele>1448.4000244141</ele>
        <time>2016-04-10T11:30:15.000Z</time>
      </trkpt>
      <trkpt lat="45.18337" lon="5.91396">
        <ele>1448</ele>
        <time>2016-04-10T11:30:17.000Z</time>
      </trkpt>
      <trkpt lat="45.18341" lon="5.91395">
        <ele>1447.1999511719</ele>
        <time>2016-04-10T11:30:21.000Z</time>
      </trkpt>
      <trkpt lat="45.18348" lon="5.9139">
        <ele>1446</ele>
        <time>2016-04-10T11:30:25.000Z</time>
      </trkpt>
      <trkpt lat="45.18354" lon="5.91387">
        <ele>1445.1999511719</ele>
        <time>2016-04-10T11:30:29.000Z</time>
      </trkpt>
      <trkpt lat="45.18355" lon="5.91387">
        <ele>1445</ele>
        <time>2016-04-10T11:30:30.000Z</time>
      </trkpt>
      <trkpt lat="45.1836" lon="5.91385">
        <ele>1443.8000488281</ele>
        <time>2016-04-10T11:30:34.000Z</time>
      </trkpt>
      <trkpt lat="45.18361" lon="5.91384">
        <ele>1443.5999755859</ele>
        <time>2016-04-10T11:30:35.000Z</time>
      </trkpt>
      <trkpt lat="45.18366" lon="5.91382">
        <ele>1442.5999755859</ele>
        <time>2016-04-10T11:30:39.000Z</time>
      </trkpt>
      <trkpt lat="45.18371" lon="5.91381">
        <ele>1441.5999755859</ele>
        <time>2016-04-10T11:30:43.000Z</time>
      </trkpt>
      <trkpt lat="45.18375" lon="5.9138">
        <ele>1440.5999755859</ele>
        <time>2016-04-10T11:30:48.000Z</time>
      </trkpt>
      <trkpt lat="45.18377" lon="5.9138">
        <ele>1439.8000488281</ele>
        <time>2016-04-10T11:30:50.000Z</time>
      </trkpt>
      <trkpt lat="45.18377" lon="5.9138">
        <ele>1439.5999755859</ele>
        <time>2016-04-10T11:30:51.000Z</time>
      </trkpt>
      <trkpt lat="45.18383" lon="5.91378">
        <ele>1438.4000244141</ele>
        <time>2016-04-10T11:30:55.000Z</time>
      </trkpt>
      <trkpt lat="45.18387" lon="5.91376">
        <ele>1437.5999755859</ele>
        <time>2016-04-10T11:30:58.000Z</time>
      </trkpt>
      <trkpt lat="45.18388" lon="5.91376">
        <ele>1437.1999511719</ele>
        <time>2016-04-10T11:30:59.000Z</time>
      </trkpt>
      <trkpt lat="45.18395" lon="5.91373">
        <ele>1436.1999511719</ele>
        <time>2016-04-10T11:31:04.000Z</time>
      </trkpt>
      <trkpt lat="45.18397" lon="5.91373">
        <ele>1435.5999755859</ele>
        <time>2016-04-10T11:31:06.000Z</time>
      </trkpt>
      <trkpt lat="45.18399" lon="5.91373">
        <ele>1435</ele>
        <time>2016-04-10T11:31:08.000Z</time>
      </trkpt>
      <trkpt lat="45.18405" lon="5.91373">
        <ele>1434</ele>
        <time>2016-04-10T11:31:12.000Z</time>
      </trkpt>
      <trkpt lat="45.18408" lon="5.91372">
        <ele>1432.8000488281</ele>
        <time>2016-04-10T11:31:15.000Z</time>
      </trkpt>
      <trkpt lat="45.18412" lon="5.91372">
        <ele>1431.8000488281</ele>
        <time>2016-04-10T11:31:20.000Z</time>
      </trkpt>
      <trkpt lat="45.18414" lon="5.91372">
        <ele>1430.8000488281</ele>
        <time>2016-04-10T11:31:24.000Z</time>
      </trkpt>
      <trkpt lat="45.18415" lon="5.91372">
        <ele>1430.4000244141</ele>
        <time>2016-04-10T11:31:25.000Z</time>
      </trkpt>
      <trkpt lat="45.18421" lon="5.91369">
        <ele>1429.4000244141</ele>
        <time>2016-04-10T11:31:31.000Z</time>
      </trkpt>
      <trkpt lat="45.18423" lon="5.91368">
        <ele>1428.8000488281</ele>
        <time>2016-04-10T11:31:33.000Z</time>
      </trkpt>
      <trkpt lat="45.18424" lon="5.91367">
        <ele>1428</ele>
        <time>2016-04-10T11:31:35.000Z</time>
      </trkpt>
      <trkpt lat="45.18424" lon="5.91367">
        <ele>1427</ele>
        <time>2016-04-10T11:31:38.000Z</time>
      </trkpt>
      <trkpt lat="45.18426" lon="5.91367">
        <ele>1426.4000244141</ele>
        <time>2016-04-10T11:31:41.000Z</time>
      </trkpt>
      <trkpt lat="45.18429" lon="5.91368">
        <ele>1425.8000488281</ele>
        <time>2016-04-10T11:31:43.000Z</time>
      </trkpt>
      <trkpt lat="45.18433" lon="5.91368">
        <ele>1424.5999755859</ele>
        <time>2016-04-10T11:31:46.000Z</time>
      </trkpt>
      <trkpt lat="45.18441" lon="5.91367">
        <ele>1423.5999755859</ele>
        <time>2016-04-10T11:31:51.000Z</time>
      </trkpt>
      <trkpt lat="45.18442" lon="5.91367">
        <ele>1423.1999511719</ele>
        <time>2016-04-10T11:31:52.000Z</time>
      </trkpt>
      <trkpt lat="45.18449" lon="5.91367">
        <ele>1422.1999511719</ele>
        <time>2016-04-10T11:31:56.000Z</time>
      </trkpt>
      <trkpt lat="45.18455" lon="5.91367">
        <ele>1421.4000244141</ele>
        <time>2016-04-10T11:32:00.000Z</time>
      </trkpt>
      <trkpt lat="45.18456" lon="5.91367">
        <ele>1421</ele>
        <time>2016-04-10T11:32:01.000Z</time>
      </trkpt>
      <trkpt lat="45.1846" lon="5.91366">
        <ele>1420</ele>
        <time>2016-04-10T11:32:05.000Z</time>
      </trkpt>
      <trkpt lat="45.18464" lon="5.91366">
        <ele>1419.1999511719</ele>
        <time>2016-04-10T11:32:08.000Z</time>
      </trkpt>
      <trkpt lat="45.18465" lon="5.91366">
        <ele>1418.8000488281</ele>
        <time>2016-04-10T11:32:09.000Z</time>
      </trkpt>
      <trkpt lat="45.18472" lon="5.9137">
        <ele>1417.5999755859</ele>
        <time>2016-04-10T11:32:15.000Z</time>
      </trkpt>
      <trkpt lat="45.18474" lon="5.91372">
        <ele>1417.1999511719</ele>
        <time>2016-04-10T11:32:18.000Z</time>
      </trkpt>
      <trkpt lat="45.1848" lon="5.91376">
        <ele>1416.5999755859</ele>
        <time>2016-04-10T11:32:22.000Z</time>
      </trkpt>
      <trkpt lat="45.18483" lon="5.9138">
        <ele>1415.5999755859</ele>
        <time>2016-04-10T11:32:26.000Z</time>
      </trkpt>
      <trkpt lat="45.18483" lon="5.91381">
        <ele>1415.1999511719</ele>
        <time>2016-04-10T11:32:27.000Z</time>
      </trkpt>
      <trkpt lat="45.18486" lon="5.91381">
        <ele>1414.1999511719</ele>
        <time>2016-04-10T11:32:30.000Z</time>
      </trkpt>
      <trkpt lat="45.1849" lon="5.91382">
        <ele>1413.8000488281</ele>
        <time>2016-04-10T11:32:34.000Z</time>
      </trkpt>
      <trkpt lat="45.18493" lon="5.91384">
        <ele>1413</ele>
        <time>2016-04-10T11:32:38.000Z</time>
      </trkpt>
      <trkpt lat="45.18496" lon="5.91384">
        <ele>1412</ele>
        <time>2016-04-10T11:32:41.000Z</time>
      </trkpt>
      <trkpt lat="45.18498" lon="5.91384">
        <ele>1411.4000244141</ele>
        <time>2016-04-10T11:32:43.000Z</time>
      </trkpt>
      <trkpt lat="45.185" lon="5.91383">
        <ele>1410.5999755859</ele>
        <time>2016-04-10T11:32:45.000Z</time>
      </trkpt>
      <trkpt lat="45.18507" lon="5.91379">
        <ele>1409.1999511719</ele>
        <time>2016-04-10T11:32:50.000Z</time>
      </trkpt>
      <trkpt lat="45.18509" lon="5.91378">
        <ele>1409</ele>
        <time>2016-04-10T11:32:51.000Z</time>
      </trkpt>
      <trkpt lat="45.18514" lon="5.91376">
        <ele>1408</ele>
        <time>2016-04-10T11:32:54.000Z</time>
      </trkpt>
      <trkpt lat="45.18517" lon="5.91374">
        <ele>1407.1999511719</ele>
        <time>2016-04-10T11:32:57.000Z</time>
      </trkpt>
      <trkpt lat="45.18518" lon="5.91373">
        <ele>1407</ele>
        <time>2016-04-10T11:32:58.000Z</time>
      </trkpt>
      <trkpt lat="45.18521" lon="5.9137">
        <ele>1406</ele>
        <time>2016-04-10T11:33:02.000Z</time>
      </trkpt>
      <trkpt lat="45.18522" lon="5.91367">
        <ele>1405.1999511719</ele>
        <time>2016-04-10T11:33:04.000Z</time>
      </trkpt>
      <trkpt lat="45.18523" lon="5.91365">
        <ele>1404.8000488281</ele>
        <time>2016-04-10T11:33:06.000Z</time>
      </trkpt>
      <trkpt lat="45.18527" lon="5.91359">
        <ele>1403.4000244141</ele>
        <time>2016-04-10T11:33:11.000Z</time>
      </trkpt>
      <trkpt lat="45.18529" lon="5.91358">
        <ele>1402.1999511719</ele>
        <time>2016-04-10T11:33:14.000Z</time>
      </trkpt>
      <trkpt lat="45.18531" lon="5.91356">
        <ele>1401.1999511719</ele>
        <time>2016-04-10T11:33:18.000Z</time>
      </trkpt>
      <trkpt lat="45.18532" lon="5.91356">
        <ele>1400.5999755859</ele>
        <time>2016-04-10T11:33:20.000Z</time>
      </trkpt>
      <trkpt lat="45.18534" lon="5.91355">
        <ele>1400.1999511719</ele>
        <time>2016-04-10T11:33:23.000Z</time>
      </trkpt>
      <trkpt lat="45.18536" lon="5.91353">
        <ele>1398.8000488281</ele>
        <time>2016-04-10T11:33:28.000Z</time>
      </trkpt>
      <trkpt lat="45.18542" lon="5.91349">
        <ele>1397.4000244141</ele>
        <time>2016-04-10T11:33:34.000Z</time>
      </trkpt>
      <trkpt lat="45.18544" lon="5.91346">
        <ele>1396.5999755859</ele>
        <time>2016-04-10T11:33:36.000Z</time>
      </trkpt>
      <trkpt lat="45.18545" lon="5.91345">
        <ele>1396.1999511719</ele>
        <time>2016-04-10T11:33:37.000Z</time>
      </trkpt>
      <trkpt lat="45.18547" lon="5.91343">
        <ele>1395.1999511719</ele>
        <time>2016-04-10T11:33:39.000Z</time>
      </trkpt>
      <trkpt lat="45.1855" lon="5.91338">
        <ele>1394</ele>
        <time>2016-04-10T11:33:44.000Z</time>
      </trkpt>
      <trkpt lat="45.18554" lon="5.9133">
        <ele>1393</ele>
        <time>2016-04-10T11:33:49.000Z</time>
      </trkpt>
      <trkpt lat="45.18556" lon="5.91327">
        <ele>1392.4000244141</ele>
        <time>2016-04-10T11:33:52.000Z</time>
      </trkpt>
      <trkpt lat="45.18558" lon="5.91324">
        <ele>1391.8000488281</ele>
        <time>2016-04-10T11:33:54.000Z</time>
      </trkpt>
      <trkpt lat="45.18562" lon="5.9132">
        <ele>1390.5999755859</ele>
        <time>2016-04-10T11:33:58.000Z</time>
      </trkpt>
      <trkpt lat="45.18567" lon="5.91317">
        <ele>1389.8000488281</ele>
        <time>2016-04-10T11:34:02.000Z</time>
      </trkpt>
      <trkpt lat="45.18568" lon="5.91316">
        <ele>1389.5999755859</ele>
        <time>2016-04-10T11:34:03.000Z</time>
      </trkpt>
      <trkpt lat="45.18575" lon="5.91311">
        <ele>1388.4000244141</ele>
        <time>2016-04-10T11:34:09.000Z</time>
      </trkpt>
      <trkpt lat="45.18583" lon="5.91306">
        <ele>1387.1999511719</ele>
        <time>2016-04-10T11:34:18.000Z</time>
      </trkpt>
      <trkpt lat="45.18584" lon="5.91306">
        <ele>1387</ele>
        <time>2016-04-10T11:34:19.000Z</time>
      </trkpt>
      <trkpt lat="45.18592" lon="5.91304">
        <ele>1386.1999511719</ele>
        <time>2016-04-10T11:34:26.000Z</time>
      </trkpt>
      <trkpt lat="45.18593" lon="5.91304">
        <ele>1386.1999511719</ele>
        <time>2016-04-10T11:34:27.000Z</time>
      </trkpt>
      <trkpt lat="45.186" lon="5.91304">
        <ele>1385.1999511719</ele>
        <time>2016-04-10T11:34:33.000Z</time>
      </trkpt>
      <trkpt lat="45.18604" lon="5.91304">
        <ele>1384.8000488281</ele>
        <time>2016-04-10T11:34:36.000Z</time>
      </trkpt>
      <trkpt lat="45.18615" lon="5.91304">
        <ele>1384</ele>
        <time>2016-04-10T11:34:44.000Z</time>
      </trkpt>
      <trkpt lat="45.18621" lon="5.91303">
        <ele>1383</ele>
        <time>2016-04-10T11:34:49.000Z</time>
      </trkpt>
      <trkpt lat="45.18623" lon="5.91302">
        <ele>1382.8000488281</ele>
        <time>2016-04-10T11:34:50.000Z</time>
      </trkpt>
      <trkpt lat="45.18631" lon="5.91303">
        <ele>1382</ele>
        <time>2016-04-10T11:34:56.000Z</time>
      </trkpt>
      <trkpt lat="45.18634" lon="5.91303">
        <ele>1381</ele>
        <time>2016-04-10T11:34:59.000Z</time>
      </trkpt>
      <trkpt lat="45.18635" lon="5.91303">
        <ele>1381</ele>
        <time>2016-04-10T11:35:00.000Z</time>
      </trkpt>
      <trkpt lat="45.18641" lon="5.91303">
        <ele>1379.8000488281</ele>
        <time>2016-04-10T11:35:05.000Z</time>
      </trkpt>
      <trkpt lat="45.18645" lon="5.91303">
        <ele>1379.4000244141</ele>
        <time>2016-04-10T11:35:07.000Z</time>
      </trkpt>
      <trkpt lat="45.1865" lon="5.91303">
        <ele>1378.4000244141</ele>
        <time>2016-04-10T11:35:11.000Z</time>
      </trkpt>
      <trkpt lat="45.18654" lon="5.91303">
        <ele>1377.5999755859</ele>
        <time>2016-04-10T11:35:14.000Z</time>
      </trkpt>
      <trkpt lat="45.18655" lon="5.91303">
        <ele>1377.4000244141</ele>
        <time>2016-04-10T11:35:15.000Z</time>
      </trkpt>
      <trkpt lat="45.18655" lon="5.91303">
        <ele>1376.4000244141</ele>
        <time>2016-04-10T11:35:19.000Z</time>
      </trkpt>
      <trkpt lat="45.18658" lon="5.91302">
        <ele>1376</ele>
        <time>2016-04-10T11:35:21.000Z</time>
      </trkpt>
      <trkpt lat="45.18662" lon="5.91303">
        <ele>1375.4000244141</ele>
        <time>2016-04-10T11:35:24.000Z</time>
      </trkpt>
      <trkpt lat="45.18663" lon="5.91303">
        <ele>1374.5999755859</ele>
        <time>2016-04-10T11:35:28.000Z</time>
      </trkpt>
      <trkpt lat="45.1867" lon="5.91306">
        <ele>1374.4000244141</ele>
        <time>2016-04-10T11:35:39.000Z</time>
      </trkpt>
      <trkpt lat="45.18672" lon="5.91307">
        <ele>1374.1999511719</ele>
        <time>2016-04-10T11:35:40.000Z</time>
      </trkpt>
      <trkpt lat="45.18679" lon="5.91308">
        <ele>1373.1999511719</ele>
        <time>2016-04-10T11:35:45.000Z</time>
      </trkpt>
      <trkpt lat="45.1868" lon="5.91307">
        <ele>1373</ele>
        <time>2016-04-10T11:35:46.000Z</time>
      </trkpt>
      <trkpt lat="45.18682" lon="5.91306">
        <ele>1372.4000244141</ele>
        <time>2016-04-10T11:35:54.000Z</time>
      </trkpt>
      <trkpt lat="45.18682" lon="5.91306">
        <ele>1372.4000244141</ele>
        <time>2016-04-10T11:36:06.000Z</time>
      </trkpt>
      <trkpt lat="45.18682" lon="5.91306">
        <ele>1372.4000244141</ele>
        <time>2016-04-10T11:36:13.000Z</time>
      </trkpt>
      <trkpt lat="45.18682" lon="5.91306">
        <ele>1372.1999511719</ele>
        <time>2016-04-10T11:36:22.000Z</time>
      </trkpt>
      <trkpt lat="45.18683" lon="5.91305">
        <ele>1372.4000244141</ele>
        <time>2016-04-10T11:36:25.000Z</time>
      </trkpt>
      <trkpt lat="45.18685" lon="5.91303">
        <ele>1372.1999511719</ele>
        <time>2016-04-10T11:36:27.000Z</time>
      </trkpt>
      <trkpt lat="45.18692" lon="5.91295">
        <ele>1371.8000488281</ele>
        <time>2016-04-10T11:36:34.000Z</time>
      </trkpt>
      <trkpt lat="45.18695" lon="5.91289">
        <ele>1371.4000244141</ele>
        <time>2016-04-10T11:36:40.000Z</time>
      </trkpt>
      <trkpt lat="45.18697" lon="5.91287">
        <ele>1371</ele>
        <time>2016-04-10T11:36:51.000Z</time>
      </trkpt>
    </trkseg>
  </trk>
</gpx>